<?xml version="1.0" encoding="UTF-8"?>
<gpx version="1.1" creator="https://www.youtrack.es" xsi:schemaLocation="http://www.topografix.com/GPX/1/1 http://www.topografix.com/GPX/1/1/gpx.xsd http://www.garmin.com/xmlschemas/GpxExtensions/v3 http://www.garmin.com/xmlschemas/GpxExtensionsv3.xsd http://www.garmin.com/xmlschemas/TrackPointExtension/v1 http://www.garmin.com/xmlschemas/TrackPointExtensionv1.xsd" xmlns:gpxtpx="http://www.garmin.com/xmlschemas/TrackPointExtension/v1" xmlns:gpxx="http://www.garmin.com/xmlschemas/GpxExtensions/v3" xmlns:xsi="http://www.w3.org/2001/XMLSchema-instance">
  <metadata>
    <link href="https://www.youtrack.es">
      <text>YouTrack.es</text>
    </link>
    <time>2026-05-10T15:40:58Z</time>
  </metadata>
  <trk>
    <src>https://www.youtrack.es</src>
    <link href="https://www.youtrack.es/ruta/8920-ruta-terra-de-montes-por-mmorly">
      <text>YouTrack.es</text>
    </link>
    <trkseg>
      <trkpt lat="42.530606" lon="-8.389347">
        <ele>338.877</ele>
        <time>2019-07-30T17:21:37Z</time>
      </trkpt>
      <trkpt lat="42.530997" lon="-8.389218">
        <ele>338.661</ele>
        <time>2019-07-30T17:21:57Z</time>
      </trkpt>
      <trkpt lat="42.531525" lon="-8.388979">
        <ele>341.427</ele>
        <time>2019-07-30T17:22:17Z</time>
      </trkpt>
      <trkpt lat="42.531934" lon="-8.388777">
        <ele>351.208</ele>
        <time>2019-07-30T17:22:37Z</time>
      </trkpt>
      <trkpt lat="42.532101" lon="-8.388312">
        <ele>353.930</ele>
        <time>2019-07-30T17:22:57Z</time>
      </trkpt>
      <trkpt lat="42.532189" lon="-8.387408">
        <ele>351.526</ele>
        <time>2019-07-30T17:23:17Z</time>
      </trkpt>
      <trkpt lat="42.532315" lon="-8.387297">
        <ele>354.279</ele>
        <time>2019-07-30T17:23:37Z</time>
      </trkpt>
      <trkpt lat="42.532389" lon="-8.387578">
        <ele>358.435</ele>
        <time>2019-07-30T17:23:57Z</time>
      </trkpt>
      <trkpt lat="42.532311" lon="-8.388595">
        <ele>362.837</ele>
        <time>2019-07-30T17:24:17Z</time>
      </trkpt>
      <trkpt lat="42.532181" lon="-8.389379">
        <ele>361.945</ele>
        <time>2019-07-30T17:24:37Z</time>
      </trkpt>
      <trkpt lat="42.532119" lon="-8.389873">
        <ele>364.915</ele>
        <time>2019-07-30T17:24:57Z</time>
      </trkpt>
      <trkpt lat="42.531955" lon="-8.390515">
        <ele>366.054</ele>
        <time>2019-07-30T17:25:17Z</time>
      </trkpt>
      <trkpt lat="42.531945" lon="-8.391228">
        <ele>363.634</ele>
        <time>2019-07-30T17:25:37Z</time>
      </trkpt>
      <trkpt lat="42.532015" lon="-8.391870">
        <ele>359.255</ele>
        <time>2019-07-30T17:25:57Z</time>
      </trkpt>
      <trkpt lat="42.532034" lon="-8.392424">
        <ele>355.210</ele>
        <time>2019-07-30T17:26:17Z</time>
      </trkpt>
      <trkpt lat="42.532055" lon="-8.393317">
        <ele>352.708</ele>
        <time>2019-07-30T17:26:37Z</time>
      </trkpt>
      <trkpt lat="42.532049" lon="-8.394233">
        <ele>347.476</ele>
        <time>2019-07-30T17:26:57Z</time>
      </trkpt>
      <trkpt lat="42.532125" lon="-8.394700">
        <ele>344.242</ele>
        <time>2019-07-30T17:27:17Z</time>
      </trkpt>
      <trkpt lat="42.532312" lon="-8.394755">
        <ele>344.595</ele>
        <time>2019-07-30T17:27:37Z</time>
      </trkpt>
      <trkpt lat="42.532874" lon="-8.394823">
        <ele>342.341</ele>
        <time>2019-07-30T17:27:57Z</time>
      </trkpt>
      <trkpt lat="42.533461" lon="-8.394914">
        <ele>341.283</ele>
        <time>2019-07-30T17:28:17Z</time>
      </trkpt>
      <trkpt lat="42.533870" lon="-8.394971">
        <ele>340.671</ele>
        <time>2019-07-30T17:28:37Z</time>
      </trkpt>
      <trkpt lat="42.534235" lon="-8.395028">
        <ele>338.611</ele>
        <time>2019-07-30T17:28:57Z</time>
      </trkpt>
      <trkpt lat="42.534438" lon="-8.395342">
        <ele>337.950</ele>
        <time>2019-07-30T17:29:17Z</time>
      </trkpt>
      <trkpt lat="42.534528" lon="-8.395685">
        <ele>346.132</ele>
        <time>2019-07-30T17:29:37Z</time>
      </trkpt>
      <trkpt lat="42.534662" lon="-8.395776">
        <ele>350.592</ele>
        <time>2019-07-30T17:29:57Z</time>
      </trkpt>
      <trkpt lat="42.535218" lon="-8.395661">
        <ele>354.911</ele>
        <time>2019-07-30T17:30:17Z</time>
      </trkpt>
      <trkpt lat="42.535891" lon="-8.395651">
        <ele>363.308</ele>
        <time>2019-07-30T17:30:37Z</time>
      </trkpt>
      <trkpt lat="42.536646" lon="-8.395616">
        <ele>366.466</ele>
        <time>2019-07-30T17:30:57Z</time>
      </trkpt>
      <trkpt lat="42.536708" lon="-8.395612">
        <ele>366.322</ele>
        <time>2019-07-30T17:31:17Z</time>
      </trkpt>
      <trkpt lat="42.537220" lon="-8.395732">
        <ele>372.115</ele>
        <time>2019-07-30T17:31:37Z</time>
      </trkpt>
      <trkpt lat="42.537251" lon="-8.395750">
        <ele>372.741</ele>
        <time>2019-07-30T17:31:57Z</time>
      </trkpt>
      <trkpt lat="42.537728" lon="-8.395797">
        <ele>374.473</ele>
        <time>2019-07-30T17:32:17Z</time>
      </trkpt>
      <trkpt lat="42.538176" lon="-8.395188">
        <ele>372.991</ele>
        <time>2019-07-30T17:32:37Z</time>
      </trkpt>
      <trkpt lat="42.538707" lon="-8.395106">
        <ele>381.791</ele>
        <time>2019-07-30T17:32:57Z</time>
      </trkpt>
      <trkpt lat="42.539182" lon="-8.395048">
        <ele>386.230</ele>
        <time>2019-07-30T17:33:17Z</time>
      </trkpt>
      <trkpt lat="42.539773" lon="-8.394877">
        <ele>392.123</ele>
        <time>2019-07-30T17:33:37Z</time>
      </trkpt>
      <trkpt lat="42.540382" lon="-8.394514">
        <ele>390.283</ele>
        <time>2019-07-30T17:33:57Z</time>
      </trkpt>
      <trkpt lat="42.540866" lon="-8.394851">
        <ele>400.811</ele>
        <time>2019-07-30T17:34:17Z</time>
      </trkpt>
      <trkpt lat="42.541526" lon="-8.395377">
        <ele>407.308</ele>
        <time>2019-07-30T17:34:37Z</time>
      </trkpt>
      <trkpt lat="42.542005" lon="-8.395572">
        <ele>407.835</ele>
        <time>2019-07-30T17:34:57Z</time>
      </trkpt>
      <trkpt lat="42.542482" lon="-8.395357">
        <ele>406.291</ele>
        <time>2019-07-30T17:35:17Z</time>
      </trkpt>
      <trkpt lat="42.542648" lon="-8.395344">
        <ele>409.884</ele>
        <time>2019-07-30T17:35:37Z</time>
      </trkpt>
      <trkpt lat="42.542709" lon="-8.395682">
        <ele>416.430</ele>
        <time>2019-07-30T17:35:57Z</time>
      </trkpt>
      <trkpt lat="42.542605" lon="-8.395951">
        <ele>419.552</ele>
        <time>2019-07-30T17:36:17Z</time>
      </trkpt>
      <trkpt lat="42.541788" lon="-8.396082">
        <ele>426.630</ele>
        <time>2019-07-30T17:36:37Z</time>
      </trkpt>
      <trkpt lat="42.541220" lon="-8.396020">
        <ele>426.110</ele>
        <time>2019-07-30T17:36:57Z</time>
      </trkpt>
      <trkpt lat="42.540613" lon="-8.396329">
        <ele>425.859</ele>
        <time>2019-07-30T17:37:17Z</time>
      </trkpt>
      <trkpt lat="42.540362" lon="-8.396861">
        <ele>428.894</ele>
        <time>2019-07-30T17:37:37Z</time>
      </trkpt>
      <trkpt lat="42.540235" lon="-8.397288">
        <ele>432.957</ele>
        <time>2019-07-30T17:37:57Z</time>
      </trkpt>
      <trkpt lat="42.540392" lon="-8.397840">
        <ele>437.222</ele>
        <time>2019-07-30T17:38:17Z</time>
      </trkpt>
      <trkpt lat="42.540951" lon="-8.398293">
        <ele>442.908</ele>
        <time>2019-07-30T17:38:37Z</time>
      </trkpt>
      <trkpt lat="42.541400" lon="-8.398581">
        <ele>447.162</ele>
        <time>2019-07-30T17:38:57Z</time>
      </trkpt>
      <trkpt lat="42.541761" lon="-8.398855">
        <ele>449.588</ele>
        <time>2019-07-30T17:39:17Z</time>
      </trkpt>
      <trkpt lat="42.542081" lon="-8.399094">
        <ele>454.441</ele>
        <time>2019-07-30T17:39:37Z</time>
      </trkpt>
      <trkpt lat="42.542054" lon="-8.399733">
        <ele>452.177</ele>
        <time>2019-07-30T17:39:57Z</time>
      </trkpt>
      <trkpt lat="42.541784" lon="-8.400503">
        <ele>446.349</ele>
        <time>2019-07-30T17:40:17Z</time>
      </trkpt>
      <trkpt lat="42.541298" lon="-8.401077">
        <ele>446.277</ele>
        <time>2019-07-30T17:40:37Z</time>
      </trkpt>
      <trkpt lat="42.541043" lon="-8.401319">
        <ele>456.387</ele>
        <time>2019-07-30T17:40:57Z</time>
      </trkpt>
      <trkpt lat="42.540374" lon="-8.400919">
        <ele>452.996</ele>
        <time>2019-07-30T17:41:17Z</time>
      </trkpt>
      <trkpt lat="42.539927" lon="-8.400785">
        <ele>449.642</ele>
        <time>2019-07-30T17:41:37Z</time>
      </trkpt>
      <trkpt lat="42.539730" lon="-8.401062">
        <ele>453.122</ele>
        <time>2019-07-30T17:41:57Z</time>
      </trkpt>
      <trkpt lat="42.539459" lon="-8.401578">
        <ele>456.614</ele>
        <time>2019-07-30T17:42:17Z</time>
      </trkpt>
      <trkpt lat="42.539233" lon="-8.402167">
        <ele>464.708</ele>
        <time>2019-07-30T17:42:37Z</time>
      </trkpt>
      <trkpt lat="42.539317" lon="-8.402343">
        <ele>469.797</ele>
        <time>2019-07-30T17:42:57Z</time>
      </trkpt>
      <trkpt lat="42.540096" lon="-8.402306">
        <ele>472.413</ele>
        <time>2019-07-30T17:43:17Z</time>
      </trkpt>
      <trkpt lat="42.540562" lon="-8.402457">
        <ele>479.436</ele>
        <time>2019-07-30T17:43:37Z</time>
      </trkpt>
      <trkpt lat="42.541364" lon="-8.402913">
        <ele>486.972</ele>
        <time>2019-07-30T17:43:57Z</time>
      </trkpt>
      <trkpt lat="42.542063" lon="-8.403354">
        <ele>494.224</ele>
        <time>2019-07-30T17:44:17Z</time>
      </trkpt>
      <trkpt lat="42.542688" lon="-8.403574">
        <ele>499.012</ele>
        <time>2019-07-30T17:44:37Z</time>
      </trkpt>
      <trkpt lat="42.543234" lon="-8.403319">
        <ele>500.072</ele>
        <time>2019-07-30T17:44:57Z</time>
      </trkpt>
      <trkpt lat="42.543507" lon="-8.403509">
        <ele>503.371</ele>
        <time>2019-07-30T17:45:17Z</time>
      </trkpt>
      <trkpt lat="42.543572" lon="-8.403906">
        <ele>508.579</ele>
        <time>2019-07-30T17:45:37Z</time>
      </trkpt>
      <trkpt lat="42.543575" lon="-8.403922">
        <ele>508.705</ele>
        <time>2019-07-30T17:45:57Z</time>
      </trkpt>
      <trkpt lat="42.543737" lon="-8.404343">
        <ele>511.425</ele>
        <time>2019-07-30T17:46:17Z</time>
      </trkpt>
      <trkpt lat="42.543752" lon="-8.404353">
        <ele>511.108</ele>
        <time>2019-07-30T17:46:37Z</time>
      </trkpt>
      <trkpt lat="42.543756" lon="-8.404358">
        <ele>511.130</ele>
        <time>2019-07-30T17:46:57Z</time>
      </trkpt>
      <trkpt lat="42.543885" lon="-8.404625">
        <ele>513.686</ele>
        <time>2019-07-30T17:47:17Z</time>
      </trkpt>
      <trkpt lat="42.544195" lon="-8.404901">
        <ele>515.439</ele>
        <time>2019-07-30T17:47:37Z</time>
      </trkpt>
      <trkpt lat="42.544583" lon="-8.405414">
        <ele>525.435</ele>
        <time>2019-07-30T17:47:57Z</time>
      </trkpt>
      <trkpt lat="42.544899" lon="-8.405519">
        <ele>523.437</ele>
        <time>2019-07-30T17:48:17Z</time>
      </trkpt>
      <trkpt lat="42.545128" lon="-8.405176">
        <ele>518.825</ele>
        <time>2019-07-30T17:48:37Z</time>
      </trkpt>
      <trkpt lat="42.545605" lon="-8.404462">
        <ele>525.975</ele>
        <time>2019-07-30T17:48:57Z</time>
      </trkpt>
      <trkpt lat="42.545968" lon="-8.404302">
        <ele>531.674</ele>
        <time>2019-07-30T17:49:17Z</time>
      </trkpt>
      <trkpt lat="42.546004" lon="-8.404275">
        <ele>532.169</ele>
        <time>2019-07-30T17:49:37Z</time>
      </trkpt>
      <trkpt lat="42.546690" lon="-8.404310">
        <ele>539.104</ele>
        <time>2019-07-30T17:49:57Z</time>
      </trkpt>
      <trkpt lat="42.546251" lon="-8.404469">
        <ele>539.724</ele>
        <time>2019-07-30T17:50:17Z</time>
      </trkpt>
      <trkpt lat="42.545974" lon="-8.404680">
        <ele>535.708</ele>
        <time>2019-07-30T17:50:37Z</time>
      </trkpt>
      <trkpt lat="42.545769" lon="-8.405053">
        <ele>532.529</ele>
        <time>2019-07-30T17:50:57Z</time>
      </trkpt>
      <trkpt lat="42.545916" lon="-8.405402">
        <ele>538.195</ele>
        <time>2019-07-30T17:51:17Z</time>
      </trkpt>
      <trkpt lat="42.546138" lon="-8.405587">
        <ele>542.668</ele>
        <time>2019-07-30T17:51:37Z</time>
      </trkpt>
      <trkpt lat="42.546150" lon="-8.405573">
        <ele>542.944</ele>
        <time>2019-07-30T17:51:57Z</time>
      </trkpt>
      <trkpt lat="42.546308" lon="-8.405385">
        <ele>546.336</ele>
        <time>2019-07-30T17:52:17Z</time>
      </trkpt>
      <trkpt lat="42.546459" lon="-8.405800">
        <ele>551.854</ele>
        <time>2019-07-30T17:52:37Z</time>
      </trkpt>
      <trkpt lat="42.546616" lon="-8.406680">
        <ele>562.584</ele>
        <time>2019-07-30T17:52:57Z</time>
      </trkpt>
      <trkpt lat="42.546616" lon="-8.407468">
        <ele>571.483</ele>
        <time>2019-07-30T17:53:17Z</time>
      </trkpt>
      <trkpt lat="42.546135" lon="-8.408035">
        <ele>573.819</ele>
        <time>2019-07-30T17:53:37Z</time>
      </trkpt>
      <trkpt lat="42.545398" lon="-8.408806">
        <ele>579.709</ele>
        <time>2019-07-30T17:53:57Z</time>
      </trkpt>
      <trkpt lat="42.545056" lon="-8.409647">
        <ele>585.419</ele>
        <time>2019-07-30T17:54:17Z</time>
      </trkpt>
      <trkpt lat="42.545113" lon="-8.410332">
        <ele>590.808</ele>
        <time>2019-07-30T17:54:37Z</time>
      </trkpt>
      <trkpt lat="42.545204" lon="-8.410404">
        <ele>591.654</ele>
        <time>2019-07-30T17:54:57Z</time>
      </trkpt>
      <trkpt lat="42.546050" lon="-8.410640">
        <ele>603.930</ele>
        <time>2019-07-30T17:55:17Z</time>
      </trkpt>
      <trkpt lat="42.547351" lon="-8.411162">
        <ele>615.753</ele>
        <time>2019-07-30T17:55:37Z</time>
      </trkpt>
      <trkpt lat="42.547357" lon="-8.411149">
        <ele>616.059</ele>
        <time>2019-07-30T17:55:57Z</time>
      </trkpt>
      <trkpt lat="42.547370" lon="-8.411137">
        <ele>616.391</ele>
        <time>2019-07-30T17:56:17Z</time>
      </trkpt>
      <trkpt lat="42.547899" lon="-8.411168">
        <ele>626.969</ele>
        <time>2019-07-30T17:56:37Z</time>
      </trkpt>
      <trkpt lat="42.548247" lon="-8.411404">
        <ele>627.239</ele>
        <time>2019-07-30T17:56:57Z</time>
      </trkpt>
      <trkpt lat="42.549037" lon="-8.411396">
        <ele>632.958</ele>
        <time>2019-07-30T17:57:17Z</time>
      </trkpt>
      <trkpt lat="42.549043" lon="-8.411390">
        <ele>633.046</ele>
        <time>2019-07-30T17:57:37Z</time>
      </trkpt>
      <trkpt lat="42.549744" lon="-8.411217">
        <ele>633.988</ele>
        <time>2019-07-30T17:57:57Z</time>
      </trkpt>
      <trkpt lat="42.550143" lon="-8.411046">
        <ele>635.716</ele>
        <time>2019-07-30T17:58:17Z</time>
      </trkpt>
      <trkpt lat="42.550164" lon="-8.411049">
        <ele>635.708</ele>
        <time>2019-07-30T17:58:37Z</time>
      </trkpt>
      <trkpt lat="42.550995" lon="-8.410809">
        <ele>635.757</ele>
        <time>2019-07-30T17:58:57Z</time>
      </trkpt>
      <trkpt lat="42.551316" lon="-8.410656">
        <ele>636.183</ele>
        <time>2019-07-30T17:59:17Z</time>
      </trkpt>
      <trkpt lat="42.551607" lon="-8.410861">
        <ele>631.036</ele>
        <time>2019-07-30T17:59:37Z</time>
      </trkpt>
      <trkpt lat="42.551617" lon="-8.410869">
        <ele>630.882</ele>
        <time>2019-07-30T17:59:57Z</time>
      </trkpt>
      <trkpt lat="42.552022" lon="-8.411271">
        <ele>623.274</ele>
        <time>2019-07-30T18:00:17Z</time>
      </trkpt>
      <trkpt lat="42.552541" lon="-8.410683">
        <ele>614.932</ele>
        <time>2019-07-30T18:00:37Z</time>
      </trkpt>
      <trkpt lat="42.552874" lon="-8.410070">
        <ele>605.172</ele>
        <time>2019-07-30T18:00:57Z</time>
      </trkpt>
      <trkpt lat="42.552922" lon="-8.409414">
        <ele>602.951</ele>
        <time>2019-07-30T18:01:17Z</time>
      </trkpt>
      <trkpt lat="42.553246" lon="-8.409805">
        <ele>595.945</ele>
        <time>2019-07-30T18:01:37Z</time>
      </trkpt>
      <trkpt lat="42.553560" lon="-8.410729">
        <ele>587.647</ele>
        <time>2019-07-30T18:01:57Z</time>
      </trkpt>
      <trkpt lat="42.553674" lon="-8.411772">
        <ele>578.511</ele>
        <time>2019-07-30T18:02:17Z</time>
      </trkpt>
      <trkpt lat="42.553954" lon="-8.412196">
        <ele>564.508</ele>
        <time>2019-07-30T18:02:37Z</time>
      </trkpt>
      <trkpt lat="42.554291" lon="-8.412837">
        <ele>547.367</ele>
        <time>2019-07-30T18:02:57Z</time>
      </trkpt>
      <trkpt lat="42.554652" lon="-8.413535">
        <ele>535.183</ele>
        <time>2019-07-30T18:03:17Z</time>
      </trkpt>
      <trkpt lat="42.554996" lon="-8.414123">
        <ele>524.226</ele>
        <time>2019-07-30T18:03:37Z</time>
      </trkpt>
      <trkpt lat="42.555292" lon="-8.414464">
        <ele>518.892</ele>
        <time>2019-07-30T18:03:57Z</time>
      </trkpt>
      <trkpt lat="42.555554" lon="-8.414505">
        <ele>515.164</ele>
        <time>2019-07-30T18:04:17Z</time>
      </trkpt>
      <trkpt lat="42.556185" lon="-8.414560">
        <ele>519.442</ele>
        <time>2019-07-30T18:04:37Z</time>
      </trkpt>
      <trkpt lat="42.556477" lon="-8.414728">
        <ele>520.252</ele>
        <time>2019-07-30T18:04:57Z</time>
      </trkpt>
      <trkpt lat="42.556694" lon="-8.414850">
        <ele>519.311</ele>
        <time>2019-07-30T18:05:17Z</time>
      </trkpt>
      <trkpt lat="42.557031" lon="-8.414362">
        <ele>525.216</ele>
        <time>2019-07-30T18:05:37Z</time>
      </trkpt>
      <trkpt lat="42.557056" lon="-8.414337">
        <ele>525.576</ele>
        <time>2019-07-30T18:05:57Z</time>
      </trkpt>
      <trkpt lat="42.557225" lon="-8.414290">
        <ele>526.313</ele>
        <time>2019-07-30T18:06:17Z</time>
      </trkpt>
      <trkpt lat="42.557262" lon="-8.414319">
        <ele>526.308</ele>
        <time>2019-07-30T18:06:37Z</time>
      </trkpt>
      <trkpt lat="42.557669" lon="-8.414552">
        <ele>528.754</ele>
        <time>2019-07-30T18:06:57Z</time>
      </trkpt>
      <trkpt lat="42.557740" lon="-8.415290">
        <ele>520.030</ele>
        <time>2019-07-30T18:07:17Z</time>
      </trkpt>
      <trkpt lat="42.557620" lon="-8.416362">
        <ele>501.333</ele>
        <time>2019-07-30T18:07:37Z</time>
      </trkpt>
      <trkpt lat="42.557525" lon="-8.417181">
        <ele>490.689</ele>
        <time>2019-07-30T18:07:57Z</time>
      </trkpt>
      <trkpt lat="42.558035" lon="-8.417620">
        <ele>484.391</ele>
        <time>2019-07-30T18:08:17Z</time>
      </trkpt>
      <trkpt lat="42.558667" lon="-8.417907">
        <ele>485.659</ele>
        <time>2019-07-30T18:08:37Z</time>
      </trkpt>
      <trkpt lat="42.559222" lon="-8.418552">
        <ele>480.699</ele>
        <time>2019-07-30T18:08:57Z</time>
      </trkpt>
      <trkpt lat="42.559655" lon="-8.419239">
        <ele>472.178</ele>
        <time>2019-07-30T18:09:17Z</time>
      </trkpt>
      <trkpt lat="42.560191" lon="-8.419717">
        <ele>471.681</ele>
        <time>2019-07-30T18:09:37Z</time>
      </trkpt>
      <trkpt lat="42.560042" lon="-8.419754">
        <ele>468.261</ele>
        <time>2019-07-30T18:09:57Z</time>
      </trkpt>
      <trkpt lat="42.559668" lon="-8.419620">
        <ele>464.017</ele>
        <time>2019-07-30T18:10:17Z</time>
      </trkpt>
      <trkpt lat="42.559377" lon="-8.419410">
        <ele>463.408</ele>
        <time>2019-07-30T18:10:37Z</time>
      </trkpt>
      <trkpt lat="42.559019" lon="-8.419377">
        <ele>469.181</ele>
        <time>2019-07-30T18:10:57Z</time>
      </trkpt>
      <trkpt lat="42.559020" lon="-8.419796">
        <ele>471.287</ele>
        <time>2019-07-30T18:11:17Z</time>
      </trkpt>
      <trkpt lat="42.559261" lon="-8.420635">
        <ele>467.340</ele>
        <time>2019-07-30T18:11:37Z</time>
      </trkpt>
      <trkpt lat="42.559486" lon="-8.421208">
        <ele>464.726</ele>
        <time>2019-07-30T18:11:57Z</time>
      </trkpt>
      <trkpt lat="42.559486" lon="-8.421756">
        <ele>470.428</ele>
        <time>2019-07-30T18:12:17Z</time>
      </trkpt>
      <trkpt lat="42.559398" lon="-8.422113">
        <ele>476.756</ele>
        <time>2019-07-30T18:12:37Z</time>
      </trkpt>
      <trkpt lat="42.559619" lon="-8.422843">
        <ele>472.766</ele>
        <time>2019-07-30T18:12:57Z</time>
      </trkpt>
      <trkpt lat="42.559682" lon="-8.423323">
        <ele>472.685</ele>
        <time>2019-07-30T18:13:17Z</time>
      </trkpt>
      <trkpt lat="42.559685" lon="-8.423480">
        <ele>469.945</ele>
        <time>2019-07-30T18:13:37Z</time>
      </trkpt>
      <trkpt lat="42.559565" lon="-8.423869">
        <ele>465.147</ele>
        <time>2019-07-30T18:13:57Z</time>
      </trkpt>
      <trkpt lat="42.559384" lon="-8.424360">
        <ele>461.311</ele>
        <time>2019-07-30T18:14:17Z</time>
      </trkpt>
      <trkpt lat="42.559286" lon="-8.424652">
        <ele>460.108</ele>
        <time>2019-07-30T18:14:37Z</time>
      </trkpt>
      <trkpt lat="42.559255" lon="-8.424915">
        <ele>457.547</ele>
        <time>2019-07-30T18:14:57Z</time>
      </trkpt>
      <trkpt lat="42.559201" lon="-8.425253">
        <ele>453.783</ele>
        <time>2019-07-30T18:15:17Z</time>
      </trkpt>
      <trkpt lat="42.559199" lon="-8.425255">
        <ele>453.796</ele>
        <time>2019-07-30T18:15:37Z</time>
      </trkpt>
      <trkpt lat="42.559095" lon="-8.425522">
        <ele>452.432</ele>
        <time>2019-07-30T18:15:57Z</time>
      </trkpt>
      <trkpt lat="42.559099" lon="-8.425783">
        <ele>447.084</ele>
        <time>2019-07-30T18:16:17Z</time>
      </trkpt>
      <trkpt lat="42.559042" lon="-8.426046">
        <ele>442.222</ele>
        <time>2019-07-30T18:16:37Z</time>
      </trkpt>
      <trkpt lat="42.558918" lon="-8.426452">
        <ele>435.642</ele>
        <time>2019-07-30T18:16:57Z</time>
      </trkpt>
      <trkpt lat="42.558866" lon="-8.426581">
        <ele>434.031</ele>
        <time>2019-07-30T18:17:17Z</time>
      </trkpt>
      <trkpt lat="42.558946" lon="-8.426550">
        <ele>433.626</ele>
        <time>2019-07-30T18:17:37Z</time>
      </trkpt>
      <trkpt lat="42.558999" lon="-8.426586">
        <ele>432.547</ele>
        <time>2019-07-30T18:17:57Z</time>
      </trkpt>
      <trkpt lat="42.558978" lon="-8.426681">
        <ele>431.211</ele>
        <time>2019-07-30T18:18:17Z</time>
      </trkpt>
      <trkpt lat="42.558955" lon="-8.426878">
        <ele>428.908</ele>
        <time>2019-07-30T18:18:37Z</time>
      </trkpt>
      <trkpt lat="42.558976" lon="-8.426999">
        <ele>427.285</ele>
        <time>2019-07-30T18:18:57Z</time>
      </trkpt>
      <trkpt lat="42.559036" lon="-8.427056">
        <ele>425.761</ele>
        <time>2019-07-30T18:19:17Z</time>
      </trkpt>
      <trkpt lat="42.559108" lon="-8.427067">
        <ele>424.594</ele>
        <time>2019-07-30T18:19:37Z</time>
      </trkpt>
      <trkpt lat="42.559115" lon="-8.427067">
        <ele>424.470</ele>
        <time>2019-07-30T18:19:57Z</time>
      </trkpt>
      <trkpt lat="42.559137" lon="-8.427085">
        <ele>423.942</ele>
        <time>2019-07-30T18:20:17Z</time>
      </trkpt>
      <trkpt lat="42.559211" lon="-8.427231">
        <ele>421.440</ele>
        <time>2019-07-30T18:20:37Z</time>
      </trkpt>
      <trkpt lat="42.559208" lon="-8.427293">
        <ele>420.880</ele>
        <time>2019-07-30T18:20:57Z</time>
      </trkpt>
      <trkpt lat="42.559178" lon="-8.427369">
        <ele>420.389</ele>
        <time>2019-07-30T18:21:17Z</time>
      </trkpt>
      <trkpt lat="42.559100" lon="-8.427529">
        <ele>419.642</ele>
        <time>2019-07-30T18:21:37Z</time>
      </trkpt>
      <trkpt lat="42.559046" lon="-8.427725">
        <ele>417.622</ele>
        <time>2019-07-30T18:21:57Z</time>
      </trkpt>
      <trkpt lat="42.559163" lon="-8.427785">
        <ele>415.914</ele>
        <time>2019-07-30T18:22:17Z</time>
      </trkpt>
      <trkpt lat="42.559421" lon="-8.427911">
        <ele>411.808</ele>
        <time>2019-07-30T18:22:37Z</time>
      </trkpt>
      <trkpt lat="42.559714" lon="-8.427859">
        <ele>410.657</ele>
        <time>2019-07-30T18:22:57Z</time>
      </trkpt>
      <trkpt lat="42.560049" lon="-8.427942">
        <ele>407.813</ele>
        <time>2019-07-30T18:23:17Z</time>
      </trkpt>
      <trkpt lat="42.560578" lon="-8.428035">
        <ele>409.496</ele>
        <time>2019-07-30T18:23:37Z</time>
      </trkpt>
      <trkpt lat="42.561093" lon="-8.427908">
        <ele>409.262</ele>
        <time>2019-07-30T18:23:57Z</time>
      </trkpt>
      <trkpt lat="42.561467" lon="-8.427846">
        <ele>403.294</ele>
        <time>2019-07-30T18:24:17Z</time>
      </trkpt>
      <trkpt lat="42.561735" lon="-8.428127">
        <ele>397.392</ele>
        <time>2019-07-30T18:24:37Z</time>
      </trkpt>
      <trkpt lat="42.561923" lon="-8.428643">
        <ele>392.142</ele>
        <time>2019-07-30T18:24:57Z</time>
      </trkpt>
      <trkpt lat="42.562223" lon="-8.429448">
        <ele>385.051</ele>
        <time>2019-07-30T18:25:17Z</time>
      </trkpt>
      <trkpt lat="42.562420" lon="-8.430288">
        <ele>378.238</ele>
        <time>2019-07-30T18:25:37Z</time>
      </trkpt>
      <trkpt lat="42.562941" lon="-8.430838">
        <ele>364.970</ele>
        <time>2019-07-30T18:25:57Z</time>
      </trkpt>
      <trkpt lat="42.563717" lon="-8.431136">
        <ele>359.217</ele>
        <time>2019-07-30T18:26:17Z</time>
      </trkpt>
      <trkpt lat="42.564336" lon="-8.430966">
        <ele>349.008</ele>
        <time>2019-07-30T18:26:37Z</time>
      </trkpt>
      <trkpt lat="42.564700" lon="-8.430440">
        <ele>347.636</ele>
        <time>2019-07-30T18:26:57Z</time>
      </trkpt>
      <trkpt lat="42.565024" lon="-8.429681">
        <ele>346.662</ele>
        <time>2019-07-30T18:27:17Z</time>
      </trkpt>
      <trkpt lat="42.565350" lon="-8.429122">
        <ele>345.095</ele>
        <time>2019-07-30T18:27:37Z</time>
      </trkpt>
      <trkpt lat="42.565917" lon="-8.428267">
        <ele>356.811</ele>
        <time>2019-07-30T18:27:57Z</time>
      </trkpt>
      <trkpt lat="42.566283" lon="-8.428150">
        <ele>355.063</ele>
        <time>2019-07-30T18:28:17Z</time>
      </trkpt>
      <trkpt lat="42.567000" lon="-8.427809">
        <ele>358.531</ele>
        <time>2019-07-30T18:28:37Z</time>
      </trkpt>
      <trkpt lat="42.567690" lon="-8.427817">
        <ele>352.121</ele>
        <time>2019-07-30T18:28:57Z</time>
      </trkpt>
      <trkpt lat="42.568555" lon="-8.427876">
        <ele>343.860</ele>
        <time>2019-07-30T18:29:17Z</time>
      </trkpt>
      <trkpt lat="42.569431" lon="-8.427622">
        <ele>342.868</ele>
        <time>2019-07-30T18:29:37Z</time>
      </trkpt>
      <trkpt lat="42.569449" lon="-8.427622">
        <ele>342.742</ele>
        <time>2019-07-30T18:29:57Z</time>
      </trkpt>
      <trkpt lat="42.570143" lon="-8.427579">
        <ele>342.926</ele>
        <time>2019-07-30T18:30:17Z</time>
      </trkpt>
      <trkpt lat="42.570197" lon="-8.427581">
        <ele>343.108</ele>
        <time>2019-07-30T18:30:37Z</time>
      </trkpt>
      <trkpt lat="42.570865" lon="-8.427371">
        <ele>342.919</ele>
        <time>2019-07-30T18:30:57Z</time>
      </trkpt>
      <trkpt lat="42.571663" lon="-8.427607">
        <ele>348.395</ele>
        <time>2019-07-30T18:31:17Z</time>
      </trkpt>
      <trkpt lat="42.572678" lon="-8.427762">
        <ele>351.798</ele>
        <time>2019-07-30T18:31:37Z</time>
      </trkpt>
      <trkpt lat="42.573137" lon="-8.427509">
        <ele>355.384</ele>
        <time>2019-07-30T18:31:57Z</time>
      </trkpt>
      <trkpt lat="42.573675" lon="-8.426831">
        <ele>357.726</ele>
        <time>2019-07-30T18:32:17Z</time>
      </trkpt>
      <trkpt lat="42.574225" lon="-8.426211">
        <ele>362.964</ele>
        <time>2019-07-30T18:32:37Z</time>
      </trkpt>
      <trkpt lat="42.574833" lon="-8.425652">
        <ele>371.174</ele>
        <time>2019-07-30T18:32:57Z</time>
      </trkpt>
      <trkpt lat="42.575222" lon="-8.425416">
        <ele>376.863</ele>
        <time>2019-07-30T18:33:17Z</time>
      </trkpt>
      <trkpt lat="42.575846" lon="-8.425510">
        <ele>379.096</ele>
        <time>2019-07-30T18:33:37Z</time>
      </trkpt>
      <trkpt lat="42.576556" lon="-8.425172">
        <ele>377.831</ele>
        <time>2019-07-30T18:33:57Z</time>
      </trkpt>
      <trkpt lat="42.577037" lon="-8.424848">
        <ele>379.924</ele>
        <time>2019-07-30T18:34:17Z</time>
      </trkpt>
      <trkpt lat="42.577444" lon="-8.424536">
        <ele>384.308</ele>
        <time>2019-07-30T18:34:37Z</time>
      </trkpt>
      <trkpt lat="42.577867" lon="-8.424384">
        <ele>390.622</ele>
        <time>2019-07-30T18:34:57Z</time>
      </trkpt>
      <trkpt lat="42.578197" lon="-8.424257">
        <ele>395.788</ele>
        <time>2019-07-30T18:35:17Z</time>
      </trkpt>
      <trkpt lat="42.578524" lon="-8.423736">
        <ele>404.091</ele>
        <time>2019-07-30T18:35:37Z</time>
      </trkpt>
      <trkpt lat="42.578875" lon="-8.422917">
        <ele>416.847</ele>
        <time>2019-07-30T18:35:57Z</time>
      </trkpt>
      <trkpt lat="42.579188" lon="-8.422382">
        <ele>421.179</ele>
        <time>2019-07-30T18:36:17Z</time>
      </trkpt>
      <trkpt lat="42.579503" lon="-8.422316">
        <ele>421.337</ele>
        <time>2019-07-30T18:36:37Z</time>
      </trkpt>
      <trkpt lat="42.579733" lon="-8.422535">
        <ele>422.157</ele>
        <time>2019-07-30T18:36:57Z</time>
      </trkpt>
      <trkpt lat="42.579947" lon="-8.422738">
        <ele>424.146</ele>
        <time>2019-07-30T18:37:17Z</time>
      </trkpt>
      <trkpt lat="42.580375" lon="-8.423158">
        <ele>431.546</ele>
        <time>2019-07-30T18:37:37Z</time>
      </trkpt>
      <trkpt lat="42.580625" lon="-8.423561">
        <ele>433.788</ele>
        <time>2019-07-30T18:37:57Z</time>
      </trkpt>
      <trkpt lat="42.580817" lon="-8.424053">
        <ele>433.216</ele>
        <time>2019-07-30T18:38:17Z</time>
      </trkpt>
      <trkpt lat="42.581055" lon="-8.424111">
        <ele>437.208</ele>
        <time>2019-07-30T18:38:37Z</time>
      </trkpt>
      <trkpt lat="42.581306" lon="-8.424291">
        <ele>442.117</ele>
        <time>2019-07-30T18:38:57Z</time>
      </trkpt>
      <trkpt lat="42.581856" lon="-8.424901">
        <ele>454.753</ele>
        <time>2019-07-30T18:39:17Z</time>
      </trkpt>
      <trkpt lat="42.582362" lon="-8.425244">
        <ele>459.176</ele>
        <time>2019-07-30T18:39:37Z</time>
      </trkpt>
      <trkpt lat="42.582372" lon="-8.425244">
        <ele>459.252</ele>
        <time>2019-07-30T18:39:57Z</time>
      </trkpt>
      <trkpt lat="42.583002" lon="-8.425429">
        <ele>463.574</ele>
        <time>2019-07-30T18:40:17Z</time>
      </trkpt>
      <trkpt lat="42.583012" lon="-8.425429">
        <ele>463.662</ele>
        <time>2019-07-30T18:40:37Z</time>
      </trkpt>
      <trkpt lat="42.583477" lon="-8.425447">
        <ele>468.072</ele>
        <time>2019-07-30T18:40:57Z</time>
      </trkpt>
      <trkpt lat="42.583901" lon="-8.425358">
        <ele>474.141</ele>
        <time>2019-07-30T18:41:17Z</time>
      </trkpt>
      <trkpt lat="42.584321" lon="-8.425168">
        <ele>479.223</ele>
        <time>2019-07-30T18:41:37Z</time>
      </trkpt>
      <trkpt lat="42.584796" lon="-8.425019">
        <ele>488.083</ele>
        <time>2019-07-30T18:41:57Z</time>
      </trkpt>
      <trkpt lat="42.585089" lon="-8.425092">
        <ele>494.411</ele>
        <time>2019-07-30T18:42:17Z</time>
      </trkpt>
      <trkpt lat="42.585060" lon="-8.425785">
        <ele>493.108</ele>
        <time>2019-07-30T18:42:37Z</time>
      </trkpt>
      <trkpt lat="42.585160" lon="-8.426557">
        <ele>499.925</ele>
        <time>2019-07-30T18:42:57Z</time>
      </trkpt>
      <trkpt lat="42.585507" lon="-8.427375">
        <ele>501.641</ele>
        <time>2019-07-30T18:43:17Z</time>
      </trkpt>
      <trkpt lat="42.585820" lon="-8.428300">
        <ele>505.824</ele>
        <time>2019-07-30T18:43:37Z</time>
      </trkpt>
      <trkpt lat="42.586305" lon="-8.428880">
        <ele>506.360</ele>
        <time>2019-07-30T18:43:57Z</time>
      </trkpt>
      <trkpt lat="42.586523" lon="-8.429070">
        <ele>512.262</ele>
        <time>2019-07-30T18:44:17Z</time>
      </trkpt>
      <trkpt lat="42.586534" lon="-8.429672">
        <ele>510.680</ele>
        <time>2019-07-30T18:44:37Z</time>
      </trkpt>
      <trkpt lat="42.586948" lon="-8.430697">
        <ele>514.150</ele>
        <time>2019-07-30T18:44:57Z</time>
      </trkpt>
      <trkpt lat="42.587739" lon="-8.431448">
        <ele>530.459</ele>
        <time>2019-07-30T18:45:17Z</time>
      </trkpt>
      <trkpt lat="42.588496" lon="-8.432272">
        <ele>536.584</ele>
        <time>2019-07-30T18:45:37Z</time>
      </trkpt>
      <trkpt lat="42.588898" lon="-8.432636">
        <ele>543.707</ele>
        <time>2019-07-30T18:45:57Z</time>
      </trkpt>
      <trkpt lat="42.588713" lon="-8.432835">
        <ele>542.517</ele>
        <time>2019-07-30T18:46:17Z</time>
      </trkpt>
      <trkpt lat="42.588375" lon="-8.432867">
        <ele>537.808</ele>
        <time>2019-07-30T18:46:37Z</time>
      </trkpt>
      <trkpt lat="42.588148" lon="-8.433225">
        <ele>538.931</ele>
        <time>2019-07-30T18:46:57Z</time>
      </trkpt>
      <trkpt lat="42.588297" lon="-8.433634">
        <ele>543.417</ele>
        <time>2019-07-30T18:47:17Z</time>
      </trkpt>
      <trkpt lat="42.588700" lon="-8.433692">
        <ele>549.310</ele>
        <time>2019-07-30T18:47:37Z</time>
      </trkpt>
      <trkpt lat="42.589093" lon="-8.433402">
        <ele>553.366</ele>
        <time>2019-07-30T18:47:57Z</time>
      </trkpt>
      <trkpt lat="42.589540" lon="-8.433212">
        <ele>558.998</ele>
        <time>2019-07-30T18:48:17Z</time>
      </trkpt>
      <trkpt lat="42.590491" lon="-8.432567">
        <ele>571.916</ele>
        <time>2019-07-30T18:48:37Z</time>
      </trkpt>
      <trkpt lat="42.590965" lon="-8.432542">
        <ele>578.136</ele>
        <time>2019-07-30T18:48:57Z</time>
      </trkpt>
      <trkpt lat="42.591034" lon="-8.433016">
        <ele>580.335</ele>
        <time>2019-07-30T18:49:17Z</time>
      </trkpt>
      <trkpt lat="42.591055" lon="-8.433304">
        <ele>581.796</ele>
        <time>2019-07-30T18:49:37Z</time>
      </trkpt>
      <trkpt lat="42.591255" lon="-8.433588">
        <ele>581.431</ele>
        <time>2019-07-30T18:49:57Z</time>
      </trkpt>
      <trkpt lat="42.591571" lon="-8.433943">
        <ele>581.124</ele>
        <time>2019-07-30T18:50:17Z</time>
      </trkpt>
      <trkpt lat="42.591933" lon="-8.434223">
        <ele>579.708</ele>
        <time>2019-07-30T18:50:37Z</time>
      </trkpt>
      <trkpt lat="42.592596" lon="-8.434454">
        <ele>578.252</ele>
        <time>2019-07-30T18:50:57Z</time>
      </trkpt>
      <trkpt lat="42.592939" lon="-8.434882">
        <ele>576.828</ele>
        <time>2019-07-30T18:51:17Z</time>
      </trkpt>
      <trkpt lat="42.593250" lon="-8.435288">
        <ele>576.341</ele>
        <time>2019-07-30T18:51:37Z</time>
      </trkpt>
      <trkpt lat="42.593533" lon="-8.436083">
        <ele>579.097</ele>
        <time>2019-07-30T18:51:57Z</time>
      </trkpt>
      <trkpt lat="42.594025" lon="-8.436320">
        <ele>575.259</ele>
        <time>2019-07-30T18:52:17Z</time>
      </trkpt>
      <trkpt lat="42.594488" lon="-8.436513">
        <ele>567.337</ele>
        <time>2019-07-30T18:52:37Z</time>
      </trkpt>
      <trkpt lat="42.594758" lon="-8.436834">
        <ele>564.797</ele>
        <time>2019-07-30T18:52:57Z</time>
      </trkpt>
      <trkpt lat="42.594824" lon="-8.437228">
        <ele>564.996</ele>
        <time>2019-07-30T18:53:17Z</time>
      </trkpt>
      <trkpt lat="42.594819" lon="-8.437537">
        <ele>566.645</ele>
        <time>2019-07-30T18:53:37Z</time>
      </trkpt>
      <trkpt lat="42.595100" lon="-8.437454">
        <ele>564.947</ele>
        <time>2019-07-30T18:53:57Z</time>
      </trkpt>
      <trkpt lat="42.595665" lon="-8.436949">
        <ele>562.411</ele>
        <time>2019-07-30T18:54:17Z</time>
      </trkpt>
      <trkpt lat="42.596135" lon="-8.436609">
        <ele>560.508</ele>
        <time>2019-07-30T18:54:37Z</time>
      </trkpt>
      <trkpt lat="42.596388" lon="-8.436570">
        <ele>561.357</ele>
        <time>2019-07-30T18:54:57Z</time>
      </trkpt>
      <trkpt lat="42.596578" lon="-8.436675">
        <ele>562.823</ele>
        <time>2019-07-30T18:55:17Z</time>
      </trkpt>
      <trkpt lat="42.596876" lon="-8.436934">
        <ele>564.296</ele>
        <time>2019-07-30T18:55:37Z</time>
      </trkpt>
      <trkpt lat="42.597143" lon="-8.437158">
        <ele>565.482</ele>
        <time>2019-07-30T18:55:57Z</time>
      </trkpt>
      <trkpt lat="42.597465" lon="-8.437156">
        <ele>562.524</ele>
        <time>2019-07-30T18:56:17Z</time>
      </trkpt>
      <trkpt lat="42.597674" lon="-8.437248">
        <ele>561.562</ele>
        <time>2019-07-30T18:56:37Z</time>
      </trkpt>
      <trkpt lat="42.597826" lon="-8.437356">
        <ele>561.792</ele>
        <time>2019-07-30T18:56:57Z</time>
      </trkpt>
      <trkpt lat="42.598327" lon="-8.436979">
        <ele>554.571</ele>
        <time>2019-07-30T18:57:17Z</time>
      </trkpt>
      <trkpt lat="42.598946" lon="-8.436444">
        <ele>548.233</ele>
        <time>2019-07-30T18:57:37Z</time>
      </trkpt>
      <trkpt lat="42.599385" lon="-8.436271">
        <ele>552.023</ele>
        <time>2019-07-30T18:57:57Z</time>
      </trkpt>
      <trkpt lat="42.600201" lon="-8.436080">
        <ele>556.815</ele>
        <time>2019-07-30T18:58:17Z</time>
      </trkpt>
      <trkpt lat="42.600826" lon="-8.436024">
        <ele>556.008</ele>
        <time>2019-07-30T18:58:37Z</time>
      </trkpt>
      <trkpt lat="42.601286" lon="-8.436220">
        <ele>558.796</ele>
        <time>2019-07-30T18:58:57Z</time>
      </trkpt>
      <trkpt lat="42.601785" lon="-8.436264">
        <ele>558.512</ele>
        <time>2019-07-30T18:59:17Z</time>
      </trkpt>
      <trkpt lat="42.602474" lon="-8.436335">
        <ele>553.325</ele>
        <time>2019-07-30T18:59:37Z</time>
      </trkpt>
      <trkpt lat="42.603189" lon="-8.436621">
        <ele>557.011</ele>
        <time>2019-07-30T18:59:57Z</time>
      </trkpt>
      <trkpt lat="42.603730" lon="-8.436988">
        <ele>555.113</ele>
        <time>2019-07-30T19:00:17Z</time>
      </trkpt>
      <trkpt lat="42.604305" lon="-8.437149">
        <ele>543.731</ele>
        <time>2019-07-30T19:00:37Z</time>
      </trkpt>
      <trkpt lat="42.604456" lon="-8.437384">
        <ele>541.911</ele>
        <time>2019-07-30T19:00:57Z</time>
      </trkpt>
      <trkpt lat="42.604678" lon="-8.437740">
        <ele>539.740</ele>
        <time>2019-07-30T19:01:17Z</time>
      </trkpt>
      <trkpt lat="42.605091" lon="-8.438122">
        <ele>533.575</ele>
        <time>2019-07-30T19:01:37Z</time>
      </trkpt>
      <trkpt lat="42.605560" lon="-8.438142">
        <ele>522.228</ele>
        <time>2019-07-30T19:01:57Z</time>
      </trkpt>
      <trkpt lat="42.605948" lon="-8.438193">
        <ele>512.020</ele>
        <time>2019-07-30T19:02:17Z</time>
      </trkpt>
      <trkpt lat="42.606224" lon="-8.438556">
        <ele>507.608</ele>
        <time>2019-07-30T19:02:37Z</time>
      </trkpt>
      <trkpt lat="42.606442" lon="-8.439162">
        <ele>501.320</ele>
        <time>2019-07-30T19:02:57Z</time>
      </trkpt>
      <trkpt lat="42.606722" lon="-8.439655">
        <ele>494.246</ele>
        <time>2019-07-30T19:03:17Z</time>
      </trkpt>
      <trkpt lat="42.607010" lon="-8.439813">
        <ele>488.239</ele>
        <time>2019-07-30T19:03:37Z</time>
      </trkpt>
      <trkpt lat="42.607365" lon="-8.439705">
        <ele>481.565</ele>
        <time>2019-07-30T19:03:57Z</time>
      </trkpt>
      <trkpt lat="42.607528" lon="-8.439466">
        <ele>479.457</ele>
        <time>2019-07-30T19:04:17Z</time>
      </trkpt>
      <trkpt lat="42.607551" lon="-8.439245">
        <ele>479.275</ele>
        <time>2019-07-30T19:04:37Z</time>
      </trkpt>
      <trkpt lat="42.607456" lon="-8.438972">
        <ele>481.445</ele>
        <time>2019-07-30T19:04:57Z</time>
      </trkpt>
      <trkpt lat="42.607617" lon="-8.438853">
        <ele>479.894</ele>
        <time>2019-07-30T19:05:17Z</time>
      </trkpt>
      <trkpt lat="42.607815" lon="-8.439031">
        <ele>476.164</ele>
        <time>2019-07-30T19:05:37Z</time>
      </trkpt>
      <trkpt lat="42.608012" lon="-8.439334">
        <ele>469.806</ele>
        <time>2019-07-30T19:05:57Z</time>
      </trkpt>
      <trkpt lat="42.608069" lon="-8.439535">
        <ele>467.316</ele>
        <time>2019-07-30T19:06:17Z</time>
      </trkpt>
      <trkpt lat="42.608062" lon="-8.439982">
        <ele>464.108</ele>
        <time>2019-07-30T19:06:37Z</time>
      </trkpt>
      <trkpt lat="42.607929" lon="-8.440696">
        <ele>458.619</ele>
        <time>2019-07-30T19:06:57Z</time>
      </trkpt>
      <trkpt lat="42.607943" lon="-8.441128">
        <ele>454.545</ele>
        <time>2019-07-30T19:07:17Z</time>
      </trkpt>
      <trkpt lat="42.608132" lon="-8.441192">
        <ele>448.868</ele>
        <time>2019-07-30T19:07:37Z</time>
      </trkpt>
      <trkpt lat="42.608241" lon="-8.441034">
        <ele>447.724</ele>
        <time>2019-07-30T19:07:57Z</time>
      </trkpt>
      <trkpt lat="42.608869" lon="-8.440147">
        <ele>436.266</ele>
        <time>2019-07-30T19:08:17Z</time>
      </trkpt>
      <trkpt lat="42.609145" lon="-8.440023">
        <ele>429.554</ele>
        <time>2019-07-30T19:08:37Z</time>
      </trkpt>
      <trkpt lat="42.609554" lon="-8.439549">
        <ele>424.084</ele>
        <time>2019-07-30T19:08:57Z</time>
      </trkpt>
      <trkpt lat="42.610089" lon="-8.439787">
        <ele>415.413</ele>
        <time>2019-07-30T19:09:17Z</time>
      </trkpt>
      <trkpt lat="42.610835" lon="-8.439769">
        <ele>405.831</ele>
        <time>2019-07-30T19:09:37Z</time>
      </trkpt>
      <trkpt lat="42.610892" lon="-8.439766">
        <ele>405.061</ele>
        <time>2019-07-30T19:09:57Z</time>
      </trkpt>
      <trkpt lat="42.611532" lon="-8.439935">
        <ele>399.307</ele>
        <time>2019-07-30T19:10:17Z</time>
      </trkpt>
      <trkpt lat="42.611596" lon="-8.440959">
        <ele>395.008</ele>
        <time>2019-07-30T19:10:37Z</time>
      </trkpt>
      <trkpt lat="42.611231" lon="-8.441583">
        <ele>400.426</ele>
        <time>2019-07-30T19:10:57Z</time>
      </trkpt>
      <trkpt lat="42.610058" lon="-8.444191">
        <ele>399.452</ele>
        <time>2019-07-30T19:11:17Z</time>
      </trkpt>
      <trkpt lat="42.608970" lon="-8.444632">
        <ele>398.715</ele>
        <time>2019-07-30T19:11:37Z</time>
      </trkpt>
      <trkpt lat="42.609356" lon="-8.445504">
        <ele>395.541</ele>
        <time>2019-07-30T19:11:57Z</time>
      </trkpt>
      <trkpt lat="42.609745" lon="-8.446838">
        <ele>401.113</ele>
        <time>2019-07-30T19:12:17Z</time>
      </trkpt>
      <trkpt lat="42.610115" lon="-8.448864">
        <ele>410.271</ele>
        <time>2019-07-30T19:12:37Z</time>
      </trkpt>
      <trkpt lat="42.610293" lon="-8.450571">
        <ele>411.821</ele>
        <time>2019-07-30T19:12:57Z</time>
      </trkpt>
      <trkpt lat="42.610574" lon="-8.453185">
        <ele>408.820</ele>
        <time>2019-07-30T19:13:17Z</time>
      </trkpt>
      <trkpt lat="42.611143" lon="-8.454339">
        <ele>411.729</ele>
        <time>2019-07-30T19:13:37Z</time>
      </trkpt>
      <trkpt lat="42.612020" lon="-8.452953">
        <ele>402.300</ele>
        <time>2019-07-30T19:13:57Z</time>
      </trkpt>
      <trkpt lat="42.612379" lon="-8.453164">
        <ele>400.420</ele>
        <time>2019-07-30T19:14:17Z</time>
      </trkpt>
      <trkpt lat="42.612368" lon="-8.453611">
        <ele>402.408</ele>
        <time>2019-07-30T19:14:37Z</time>
      </trkpt>
      <trkpt lat="42.612538" lon="-8.454523">
        <ele>403.235</ele>
        <time>2019-07-30T19:14:57Z</time>
      </trkpt>
      <trkpt lat="42.612547" lon="-8.454816">
        <ele>403.091</ele>
        <time>2019-07-30T19:15:17Z</time>
      </trkpt>
      <trkpt lat="42.613023" lon="-8.454675">
        <ele>394.584</ele>
        <time>2019-07-30T19:15:37Z</time>
      </trkpt>
      <trkpt lat="42.613048" lon="-8.454675">
        <ele>394.190</ele>
        <time>2019-07-30T19:15:57Z</time>
      </trkpt>
      <trkpt lat="42.613503" lon="-8.454583">
        <ele>389.822</ele>
        <time>2019-07-30T19:16:17Z</time>
      </trkpt>
      <trkpt lat="42.614085" lon="-8.454601">
        <ele>382.650</ele>
        <time>2019-07-30T19:16:37Z</time>
      </trkpt>
      <trkpt lat="42.614593" lon="-8.454623">
        <ele>380.140</ele>
        <time>2019-07-30T19:16:57Z</time>
      </trkpt>
      <trkpt lat="42.614890" lon="-8.454663">
        <ele>382.479</ele>
        <time>2019-07-30T19:17:17Z</time>
      </trkpt>
      <trkpt lat="42.615555" lon="-8.454757">
        <ele>381.073</ele>
        <time>2019-07-30T19:17:37Z</time>
      </trkpt>
      <trkpt lat="42.616021" lon="-8.454799">
        <ele>378.885</ele>
        <time>2019-07-30T19:17:57Z</time>
      </trkpt>
      <trkpt lat="42.616329" lon="-8.454818">
        <ele>375.913</ele>
        <time>2019-07-30T19:18:17Z</time>
      </trkpt>
      <trkpt lat="42.616476" lon="-8.455017">
        <ele>370.508</ele>
        <time>2019-07-30T19:18:37Z</time>
      </trkpt>
      <trkpt lat="42.616413" lon="-8.455244">
        <ele>368.370</ele>
        <time>2019-07-30T19:18:57Z</time>
      </trkpt>
      <trkpt lat="42.616393" lon="-8.455467">
        <ele>366.616</ele>
        <time>2019-07-30T19:19:17Z</time>
      </trkpt>
      <trkpt lat="42.616705" lon="-8.455744">
        <ele>362.529</ele>
        <time>2019-07-30T19:19:37Z</time>
      </trkpt>
      <trkpt lat="42.617064" lon="-8.455892">
        <ele>360.645</ele>
        <time>2019-07-30T19:19:57Z</time>
      </trkpt>
      <trkpt lat="42.617205" lon="-8.456181">
        <ele>359.077</ele>
        <time>2019-07-30T19:20:17Z</time>
      </trkpt>
      <trkpt lat="42.617395" lon="-8.456685">
        <ele>359.495</ele>
        <time>2019-07-30T19:20:37Z</time>
      </trkpt>
      <trkpt lat="42.617829" lon="-8.457835">
        <ele>356.665</ele>
        <time>2019-07-30T19:20:57Z</time>
      </trkpt>
      <trkpt lat="42.618093" lon="-8.458605">
        <ele>357.044</ele>
        <time>2019-07-30T19:21:17Z</time>
      </trkpt>
      <trkpt lat="42.618419" lon="-8.459507">
        <ele>361.154</ele>
        <time>2019-07-30T19:21:37Z</time>
      </trkpt>
      <trkpt lat="42.618573" lon="-8.459914">
        <ele>362.956</ele>
        <time>2019-07-30T19:21:57Z</time>
      </trkpt>
      <trkpt lat="42.618107" lon="-8.460012">
        <ele>362.611</ele>
        <time>2019-07-30T19:22:17Z</time>
      </trkpt>
      <trkpt lat="42.618002" lon="-8.460384">
        <ele>361.508</ele>
        <time>2019-07-30T19:22:37Z</time>
      </trkpt>
      <trkpt lat="42.618136" lon="-8.461044">
        <ele>359.148</ele>
        <time>2019-07-30T19:22:57Z</time>
      </trkpt>
      <trkpt lat="42.618490" lon="-8.462031">
        <ele>357.374</ele>
        <time>2019-07-30T19:23:17Z</time>
      </trkpt>
      <trkpt lat="42.618892" lon="-8.463372">
        <ele>360.917</ele>
        <time>2019-07-30T19:23:37Z</time>
      </trkpt>
      <trkpt lat="42.619216" lon="-8.464130">
        <ele>359.333</ele>
        <time>2019-07-30T19:23:57Z</time>
      </trkpt>
      <trkpt lat="42.619127" lon="-8.464496">
        <ele>360.975</ele>
        <time>2019-07-30T19:24:17Z</time>
      </trkpt>
      <trkpt lat="42.618949" lon="-8.464982">
        <ele>361.453</ele>
        <time>2019-07-30T19:24:37Z</time>
      </trkpt>
      <trkpt lat="42.618610" lon="-8.465120">
        <ele>357.073</ele>
        <time>2019-07-30T19:24:57Z</time>
      </trkpt>
      <trkpt lat="42.618244" lon="-8.465575">
        <ele>354.912</ele>
        <time>2019-07-30T19:25:17Z</time>
      </trkpt>
      <trkpt lat="42.617835" lon="-8.466103">
        <ele>357.381</ele>
        <time>2019-07-30T19:25:37Z</time>
      </trkpt>
      <trkpt lat="42.617698" lon="-8.466491">
        <ele>357.161</ele>
        <time>2019-07-30T19:25:57Z</time>
      </trkpt>
      <trkpt lat="42.617901" lon="-8.466832">
        <ele>359.317</ele>
        <time>2019-07-30T19:26:17Z</time>
      </trkpt>
      <trkpt lat="42.617912" lon="-8.466835">
        <ele>359.408</ele>
        <time>2019-07-30T19:26:37Z</time>
      </trkpt>
      <trkpt lat="42.617927" lon="-8.466844">
        <ele>359.641</ele>
        <time>2019-07-30T19:26:57Z</time>
      </trkpt>
      <trkpt lat="42.618366" lon="-8.467575">
        <ele>364.827</ele>
        <time>2019-07-30T19:27:17Z</time>
      </trkpt>
      <trkpt lat="42.618849" lon="-8.468234">
        <ele>360.910</ele>
        <time>2019-07-30T19:27:37Z</time>
      </trkpt>
      <trkpt lat="42.619641" lon="-8.469183">
        <ele>350.756</ele>
        <time>2019-07-30T19:27:57Z</time>
      </trkpt>
      <trkpt lat="42.620411" lon="-8.469607">
        <ele>351.728</ele>
        <time>2019-07-30T19:28:17Z</time>
      </trkpt>
      <trkpt lat="42.621183" lon="-8.469944">
        <ele>354.626</ele>
        <time>2019-07-30T19:28:37Z</time>
      </trkpt>
      <trkpt lat="42.621420" lon="-8.470564">
        <ele>350.426</ele>
        <time>2019-07-30T19:28:57Z</time>
      </trkpt>
      <trkpt lat="42.622066" lon="-8.471083">
        <ele>349.615</ele>
        <time>2019-07-30T19:29:17Z</time>
      </trkpt>
      <trkpt lat="42.622931" lon="-8.470948">
        <ele>352.468</ele>
        <time>2019-07-30T19:29:37Z</time>
      </trkpt>
      <trkpt lat="42.623656" lon="-8.470779">
        <ele>355.442</ele>
        <time>2019-07-30T19:29:57Z</time>
      </trkpt>
      <trkpt lat="42.623924" lon="-8.471894">
        <ele>352.426</ele>
        <time>2019-07-30T19:30:17Z</time>
      </trkpt>
      <trkpt lat="42.623738" lon="-8.474366">
        <ele>349.608</ele>
        <time>2019-07-30T19:30:37Z</time>
      </trkpt>
      <trkpt lat="42.623626" lon="-8.477631">
        <ele>354.869</ele>
        <time>2019-07-30T19:30:57Z</time>
      </trkpt>
      <trkpt lat="42.624912" lon="-8.476975">
        <ele>360.895</ele>
        <time>2019-07-30T19:31:17Z</time>
      </trkpt>
      <trkpt lat="42.625126" lon="-8.478737">
        <ele>362.768</ele>
        <time>2019-07-30T19:31:37Z</time>
      </trkpt>
      <trkpt lat="42.625074" lon="-8.480073">
        <ele>362.554</ele>
        <time>2019-07-30T19:31:57Z</time>
      </trkpt>
      <trkpt lat="42.626028" lon="-8.480427">
        <ele>365.946</ele>
        <time>2019-07-30T19:32:17Z</time>
      </trkpt>
      <trkpt lat="42.626983" lon="-8.480568">
        <ele>367.464</ele>
        <time>2019-07-30T19:32:37Z</time>
      </trkpt>
      <trkpt lat="42.627804" lon="-8.481083">
        <ele>376.224</ele>
        <time>2019-07-30T19:32:57Z</time>
      </trkpt>
      <trkpt lat="42.627609" lon="-8.481952">
        <ele>371.273</ele>
        <time>2019-07-30T19:33:17Z</time>
      </trkpt>
      <trkpt lat="42.627386" lon="-8.482524">
        <ele>372.763</ele>
        <time>2019-07-30T19:33:37Z</time>
      </trkpt>
      <trkpt lat="42.627122" lon="-8.483557">
        <ele>376.644</ele>
        <time>2019-07-30T19:33:57Z</time>
      </trkpt>
      <trkpt lat="42.627419" lon="-8.483774">
        <ele>382.818</ele>
        <time>2019-07-30T19:34:17Z</time>
      </trkpt>
      <trkpt lat="42.627707" lon="-8.483729">
        <ele>386.808</ele>
        <time>2019-07-30T19:34:37Z</time>
      </trkpt>
      <trkpt lat="42.627947" lon="-8.483465">
        <ele>389.769</ele>
        <time>2019-07-30T19:34:57Z</time>
      </trkpt>
      <trkpt lat="42.628303" lon="-8.483206">
        <ele>389.655</ele>
        <time>2019-07-30T19:35:17Z</time>
      </trkpt>
      <trkpt lat="42.628409" lon="-8.483581">
        <ele>394.188</ele>
        <time>2019-07-30T19:35:37Z</time>
      </trkpt>
      <trkpt lat="42.628488" lon="-8.484488">
        <ele>401.674</ele>
        <time>2019-07-30T19:35:57Z</time>
      </trkpt>
      <trkpt lat="42.628590" lon="-8.485220">
        <ele>406.886</ele>
        <time>2019-07-30T19:36:17Z</time>
      </trkpt>
      <trkpt lat="42.628865" lon="-8.485905">
        <ele>411.464</ele>
        <time>2019-07-30T19:36:37Z</time>
      </trkpt>
      <trkpt lat="42.629174" lon="-8.486000">
        <ele>417.394</ele>
        <time>2019-07-30T19:36:57Z</time>
      </trkpt>
      <trkpt lat="42.629692" lon="-8.485508">
        <ele>430.033</ele>
        <time>2019-07-30T19:37:17Z</time>
      </trkpt>
      <trkpt lat="42.630477" lon="-8.484772">
        <ele>443.062</ele>
        <time>2019-07-30T19:37:37Z</time>
      </trkpt>
      <trkpt lat="42.630838" lon="-8.484514">
        <ele>446.583</ele>
        <time>2019-07-30T19:37:57Z</time>
      </trkpt>
      <trkpt lat="42.631230" lon="-8.484321">
        <ele>448.011</ele>
        <time>2019-07-30T19:38:17Z</time>
      </trkpt>
      <trkpt lat="42.631243" lon="-8.484322">
        <ele>448.208</ele>
        <time>2019-07-30T19:38:37Z</time>
      </trkpt>
      <trkpt lat="42.631697" lon="-8.484443">
        <ele>454.719</ele>
        <time>2019-07-30T19:38:57Z</time>
      </trkpt>
      <trkpt lat="42.632306" lon="-8.484758">
        <ele>469.055</ele>
        <time>2019-07-30T19:39:17Z</time>
      </trkpt>
      <trkpt lat="42.632989" lon="-8.485126">
        <ele>484.848</ele>
        <time>2019-07-30T19:39:37Z</time>
      </trkpt>
      <trkpt lat="42.633454" lon="-8.485388">
        <ele>494.984</ele>
        <time>2019-07-30T19:39:57Z</time>
      </trkpt>
      <trkpt lat="42.633828" lon="-8.485641">
        <ele>498.326</ele>
        <time>2019-07-30T19:40:17Z</time>
      </trkpt>
      <trkpt lat="42.633907" lon="-8.485650">
        <ele>499.324</ele>
        <time>2019-07-30T19:40:37Z</time>
      </trkpt>
      <trkpt lat="42.633799" lon="-8.485290">
        <ele>500.674</ele>
        <time>2019-07-30T19:40:57Z</time>
      </trkpt>
      <trkpt lat="42.633727" lon="-8.484597">
        <ele>506.023</ele>
        <time>2019-07-30T19:41:17Z</time>
      </trkpt>
      <trkpt lat="42.633837" lon="-8.483873">
        <ele>508.795</ele>
        <time>2019-07-30T19:41:37Z</time>
      </trkpt>
      <trkpt lat="42.633843" lon="-8.483865">
        <ele>508.749</ele>
        <time>2019-07-30T19:41:57Z</time>
      </trkpt>
      <trkpt lat="42.634128" lon="-8.483417">
        <ele>508.523</ele>
        <time>2019-07-30T19:42:17Z</time>
      </trkpt>
      <trkpt lat="42.634149" lon="-8.483401">
        <ele>508.608</ele>
        <time>2019-07-30T19:42:37Z</time>
      </trkpt>
      <trkpt lat="42.634742" lon="-8.483040">
        <ele>512.882</ele>
        <time>2019-07-30T19:42:57Z</time>
      </trkpt>
      <trkpt lat="42.635781" lon="-8.482385">
        <ele>511.228</ele>
        <time>2019-07-30T19:43:17Z</time>
      </trkpt>
      <trkpt lat="42.635825" lon="-8.482385">
        <ele>512.151</ele>
        <time>2019-07-30T19:43:37Z</time>
      </trkpt>
      <trkpt lat="42.636627" lon="-8.481916">
        <ele>520.497</ele>
        <time>2019-07-30T19:43:57Z</time>
      </trkpt>
      <trkpt lat="42.637201" lon="-8.480928">
        <ele>518.549</ele>
        <time>2019-07-30T19:44:17Z</time>
      </trkpt>
      <trkpt lat="42.637827" lon="-8.480430">
        <ele>527.047</ele>
        <time>2019-07-30T19:44:37Z</time>
      </trkpt>
      <trkpt lat="42.637775" lon="-8.480728">
        <ele>530.057</ele>
        <time>2019-07-30T19:44:57Z</time>
      </trkpt>
      <trkpt lat="42.637670" lon="-8.481241">
        <ele>533.996</ele>
        <time>2019-07-30T19:45:17Z</time>
      </trkpt>
      <trkpt lat="42.637397" lon="-8.481968">
        <ele>541.996</ele>
        <time>2019-07-30T19:45:37Z</time>
      </trkpt>
      <trkpt lat="42.636935" lon="-8.482898">
        <ele>546.531</ele>
        <time>2019-07-30T19:45:57Z</time>
      </trkpt>
      <trkpt lat="42.636694" lon="-8.483450">
        <ele>551.024</ele>
        <time>2019-07-30T19:46:17Z</time>
      </trkpt>
      <trkpt lat="42.636183" lon="-8.483908">
        <ele>554.508</ele>
        <time>2019-07-30T19:46:37Z</time>
      </trkpt>
      <trkpt lat="42.636179" lon="-8.484144">
        <ele>557.742</ele>
        <time>2019-07-30T19:46:57Z</time>
      </trkpt>
      <trkpt lat="42.636654" lon="-8.484507">
        <ele>564.668</ele>
        <time>2019-07-30T19:47:17Z</time>
      </trkpt>
      <trkpt lat="42.637113" lon="-8.484956">
        <ele>573.561</ele>
        <time>2019-07-30T19:47:37Z</time>
      </trkpt>
      <trkpt lat="42.637316" lon="-8.485504">
        <ele>574.437</ele>
        <time>2019-07-30T19:47:57Z</time>
      </trkpt>
      <trkpt lat="42.637284" lon="-8.486038">
        <ele>573.479</ele>
        <time>2019-07-30T19:48:17Z</time>
      </trkpt>
      <trkpt lat="42.637199" lon="-8.486916">
        <ele>575.647</ele>
        <time>2019-07-30T19:48:37Z</time>
      </trkpt>
      <trkpt lat="42.637049" lon="-8.487410">
        <ele>573.877</ele>
        <time>2019-07-30T19:48:57Z</time>
      </trkpt>
      <trkpt lat="42.636947" lon="-8.487934">
        <ele>571.526</ele>
        <time>2019-07-30T19:49:17Z</time>
      </trkpt>
      <trkpt lat="42.637104" lon="-8.488406">
        <ele>570.594</ele>
        <time>2019-07-30T19:49:37Z</time>
      </trkpt>
      <trkpt lat="42.637428" lon="-8.488876">
        <ele>573.957</ele>
        <time>2019-07-30T19:49:57Z</time>
      </trkpt>
      <trkpt lat="42.637166" lon="-8.488950">
        <ele>571.122</ele>
        <time>2019-07-30T19:50:17Z</time>
      </trkpt>
      <trkpt lat="42.636698" lon="-8.488890">
        <ele>569.908</ele>
        <time>2019-07-30T19:50:37Z</time>
      </trkpt>
      <trkpt lat="42.636196" lon="-8.488667">
        <ele>567.952</ele>
        <time>2019-07-30T19:50:57Z</time>
      </trkpt>
      <trkpt lat="42.636189" lon="-8.489140">
        <ele>576.198</ele>
        <time>2019-07-30T19:51:17Z</time>
      </trkpt>
      <trkpt lat="42.636200" lon="-8.489827">
        <ele>582.881</ele>
        <time>2019-07-30T19:51:37Z</time>
      </trkpt>
      <trkpt lat="42.636303" lon="-8.490556">
        <ele>588.137</ele>
        <time>2019-07-30T19:51:57Z</time>
      </trkpt>
      <trkpt lat="42.636812" lon="-8.491920">
        <ele>594.429</ele>
        <time>2019-07-30T19:52:17Z</time>
      </trkpt>
      <trkpt lat="42.637173" lon="-8.492849">
        <ele>598.197</ele>
        <time>2019-07-30T19:52:37Z</time>
      </trkpt>
      <trkpt lat="42.637281" lon="-8.493518">
        <ele>596.377</ele>
        <time>2019-07-30T19:52:57Z</time>
      </trkpt>
      <trkpt lat="42.637074" lon="-8.494474">
        <ele>596.196</ele>
        <time>2019-07-30T19:53:17Z</time>
      </trkpt>
      <trkpt lat="42.636774" lon="-8.495301">
        <ele>594.499</ele>
        <time>2019-07-30T19:53:37Z</time>
      </trkpt>
      <trkpt lat="42.636437" lon="-8.495885">
        <ele>592.907</ele>
        <time>2019-07-30T19:53:57Z</time>
      </trkpt>
      <trkpt lat="42.636222" lon="-8.496718">
        <ele>591.327</ele>
        <time>2019-07-30T19:54:17Z</time>
      </trkpt>
      <trkpt lat="42.636210" lon="-8.497900">
        <ele>591.308</ele>
        <time>2019-07-30T19:54:37Z</time>
      </trkpt>
      <trkpt lat="42.636017" lon="-8.498435">
        <ele>588.852</ele>
        <time>2019-07-30T19:54:57Z</time>
      </trkpt>
      <trkpt lat="42.635280" lon="-8.499678">
        <ele>586.888</ele>
        <time>2019-07-30T19:55:17Z</time>
      </trkpt>
      <trkpt lat="42.634531" lon="-8.500254">
        <ele>587.481</ele>
        <time>2019-07-30T19:55:37Z</time>
      </trkpt>
      <trkpt lat="42.634056" lon="-8.500842">
        <ele>580.877</ele>
        <time>2019-07-30T19:55:57Z</time>
      </trkpt>
      <trkpt lat="42.633715" lon="-8.501831">
        <ele>580.089</ele>
        <time>2019-07-30T19:56:17Z</time>
      </trkpt>
      <trkpt lat="42.633320" lon="-8.502567">
        <ele>580.867</ele>
        <time>2019-07-30T19:56:37Z</time>
      </trkpt>
      <trkpt lat="42.632919" lon="-8.502921">
        <ele>578.537</ele>
        <time>2019-07-30T19:56:57Z</time>
      </trkpt>
      <trkpt lat="42.633204" lon="-8.502965">
        <ele>580.086</ele>
        <time>2019-07-30T19:57:17Z</time>
      </trkpt>
      <trkpt lat="42.633613" lon="-8.503187">
        <ele>581.048</ele>
        <time>2019-07-30T19:57:37Z</time>
      </trkpt>
      <trkpt lat="42.633637" lon="-8.503183">
        <ele>580.961</ele>
        <time>2019-07-30T19:57:57Z</time>
      </trkpt>
      <trkpt lat="42.633655" lon="-8.503186">
        <ele>580.817</ele>
        <time>2019-07-30T19:58:17Z</time>
      </trkpt>
      <trkpt lat="42.634040" lon="-8.503150">
        <ele>578.208</ele>
        <time>2019-07-30T19:58:37Z</time>
      </trkpt>
      <trkpt lat="42.634684" lon="-8.502851">
        <ele>572.647</ele>
        <time>2019-07-30T19:58:57Z</time>
      </trkpt>
      <trkpt lat="42.635198" lon="-8.502818">
        <ele>571.473</ele>
        <time>2019-07-30T19:59:17Z</time>
      </trkpt>
      <trkpt lat="42.635720" lon="-8.502680">
        <ele>563.366</ele>
        <time>2019-07-30T19:59:37Z</time>
      </trkpt>
      <trkpt lat="42.635727" lon="-8.502681">
        <ele>563.282</ele>
        <time>2019-07-30T19:59:57Z</time>
      </trkpt>
      <trkpt lat="42.636072" lon="-8.502815">
        <ele>558.064</ele>
        <time>2019-07-30T20:00:17Z</time>
      </trkpt>
      <trkpt lat="42.636439" lon="-8.503209">
        <ele>555.612</ele>
        <time>2019-07-30T20:00:37Z</time>
      </trkpt>
      <trkpt lat="42.637027" lon="-8.503515">
        <ele>552.412</ele>
        <time>2019-07-30T20:00:57Z</time>
      </trkpt>
      <trkpt lat="42.637869" lon="-8.503562">
        <ele>549.281</ele>
        <time>2019-07-30T20:01:17Z</time>
      </trkpt>
      <trkpt lat="42.638904" lon="-8.503133">
        <ele>548.912</ele>
        <time>2019-07-30T20:01:37Z</time>
      </trkpt>
      <trkpt lat="42.639317" lon="-8.502803">
        <ele>555.232</ele>
        <time>2019-07-30T20:01:57Z</time>
      </trkpt>
      <trkpt lat="42.640131" lon="-8.502837">
        <ele>555.105</ele>
        <time>2019-07-30T20:02:17Z</time>
      </trkpt>
      <trkpt lat="42.640810" lon="-8.502907">
        <ele>554.108</ele>
        <time>2019-07-30T20:02:37Z</time>
      </trkpt>
      <trkpt lat="42.641318" lon="-8.502869">
        <ele>552.874</ele>
        <time>2019-07-30T20:02:57Z</time>
      </trkpt>
      <trkpt lat="42.641845" lon="-8.502018">
        <ele>553.430</ele>
        <time>2019-07-30T20:03:17Z</time>
      </trkpt>
      <trkpt lat="42.642573" lon="-8.500848">
        <ele>554.983</ele>
        <time>2019-07-30T20:03:37Z</time>
      </trkpt>
      <trkpt lat="42.643173" lon="-8.500402">
        <ele>549.319</ele>
        <time>2019-07-30T20:03:57Z</time>
      </trkpt>
      <trkpt lat="42.643688" lon="-8.499633">
        <ele>548.091</ele>
        <time>2019-07-30T20:04:17Z</time>
      </trkpt>
      <trkpt lat="42.644398" lon="-8.499506">
        <ele>536.869</ele>
        <time>2019-07-30T20:04:37Z</time>
      </trkpt>
      <trkpt lat="42.644424" lon="-8.499500">
        <ele>536.629</ele>
        <time>2019-07-30T20:04:57Z</time>
      </trkpt>
      <trkpt lat="42.645420" lon="-8.499417">
        <ele>532.188</ele>
        <time>2019-07-30T20:05:17Z</time>
      </trkpt>
      <trkpt lat="42.646768" lon="-8.499258">
        <ele>521.339</ele>
        <time>2019-07-30T20:05:37Z</time>
      </trkpt>
      <trkpt lat="42.646547" lon="-8.499884">
        <ele>515.901</ele>
        <time>2019-07-30T20:05:57Z</time>
      </trkpt>
      <trkpt lat="42.646371" lon="-8.500199">
        <ele>512.821</ele>
        <time>2019-07-30T20:06:17Z</time>
      </trkpt>
      <trkpt lat="42.646599" lon="-8.500490">
        <ele>509.908</ele>
        <time>2019-07-30T20:06:37Z</time>
      </trkpt>
      <trkpt lat="42.646932" lon="-8.500770">
        <ele>506.136</ele>
        <time>2019-07-30T20:06:57Z</time>
      </trkpt>
      <trkpt lat="42.646965" lon="-8.501136">
        <ele>506.112</ele>
        <time>2019-07-30T20:07:17Z</time>
      </trkpt>
      <trkpt lat="42.647036" lon="-8.501454">
        <ele>506.975</ele>
        <time>2019-07-30T20:07:37Z</time>
      </trkpt>
      <trkpt lat="42.647547" lon="-8.501558">
        <ele>509.811</ele>
        <time>2019-07-30T20:07:57Z</time>
      </trkpt>
      <trkpt lat="42.648221" lon="-8.501756">
        <ele>515.543</ele>
        <time>2019-07-30T20:08:17Z</time>
      </trkpt>
      <trkpt lat="42.648897" lon="-8.501472">
        <ele>523.811</ele>
        <time>2019-07-30T20:08:37Z</time>
      </trkpt>
      <trkpt lat="42.649431" lon="-8.500708">
        <ele>525.591</ele>
        <time>2019-07-30T20:08:57Z</time>
      </trkpt>
      <trkpt lat="42.650111" lon="-8.500325">
        <ele>518.410</ele>
        <time>2019-07-30T20:09:17Z</time>
      </trkpt>
      <trkpt lat="42.650633" lon="-8.500340">
        <ele>514.172</ele>
        <time>2019-07-30T20:09:37Z</time>
      </trkpt>
      <trkpt lat="42.651299" lon="-8.500408">
        <ele>510.513</ele>
        <time>2019-07-30T20:09:57Z</time>
      </trkpt>
      <trkpt lat="42.651691" lon="-8.500639">
        <ele>507.214</ele>
        <time>2019-07-30T20:10:17Z</time>
      </trkpt>
      <trkpt lat="42.652125" lon="-8.500607">
        <ele>501.408</ele>
        <time>2019-07-30T20:10:37Z</time>
      </trkpt>
      <trkpt lat="42.652585" lon="-8.500521">
        <ele>492.960</ele>
        <time>2019-07-30T20:10:57Z</time>
      </trkpt>
      <trkpt lat="42.653092" lon="-8.500826">
        <ele>486.576</ele>
        <time>2019-07-30T20:11:17Z</time>
      </trkpt>
      <trkpt lat="42.653502" lon="-8.500688">
        <ele>481.249</ele>
        <time>2019-07-30T20:11:37Z</time>
      </trkpt>
      <trkpt lat="42.653945" lon="-8.500402">
        <ele>471.975</ele>
        <time>2019-07-30T20:11:57Z</time>
      </trkpt>
      <trkpt lat="42.654484" lon="-8.500481">
        <ele>462.927</ele>
        <time>2019-07-30T20:12:17Z</time>
      </trkpt>
      <trkpt lat="42.654490" lon="-8.500133">
        <ele>461.225</ele>
        <time>2019-07-30T20:12:37Z</time>
      </trkpt>
      <trkpt lat="42.654451" lon="-8.499614">
        <ele>455.435</ele>
        <time>2019-07-30T20:12:57Z</time>
      </trkpt>
      <trkpt lat="42.654229" lon="-8.498796">
        <ele>452.894</ele>
        <time>2019-07-30T20:13:17Z</time>
      </trkpt>
      <trkpt lat="42.654028" lon="-8.498270">
        <ele>446.494</ele>
        <time>2019-07-30T20:13:37Z</time>
      </trkpt>
      <trkpt lat="42.653524" lon="-8.498069">
        <ele>443.057</ele>
        <time>2019-07-30T20:13:57Z</time>
      </trkpt>
      <trkpt lat="42.653118" lon="-8.497947">
        <ele>440.122</ele>
        <time>2019-07-30T20:14:17Z</time>
      </trkpt>
      <trkpt lat="42.653487" lon="-8.497563">
        <ele>430.008</ele>
        <time>2019-07-30T20:14:37Z</time>
      </trkpt>
      <trkpt lat="42.654069" lon="-8.497203">
        <ele>421.732</ele>
        <time>2019-07-30T20:14:57Z</time>
      </trkpt>
      <trkpt lat="42.654586" lon="-8.497281">
        <ele>421.428</ele>
        <time>2019-07-30T20:15:17Z</time>
      </trkpt>
      <trkpt lat="42.654775" lon="-8.497402">
        <ele>422.061</ele>
        <time>2019-07-30T20:15:37Z</time>
      </trkpt>
      <trkpt lat="42.654939" lon="-8.497616">
        <ele>421.847</ele>
        <time>2019-07-30T20:15:57Z</time>
      </trkpt>
      <trkpt lat="42.654959" lon="-8.497905">
        <ele>423.669</ele>
        <time>2019-07-30T20:16:17Z</time>
      </trkpt>
      <trkpt lat="42.655076" lon="-8.498126">
        <ele>423.267</ele>
        <time>2019-07-30T20:16:37Z</time>
      </trkpt>
      <trkpt lat="42.655319" lon="-8.498188">
        <ele>419.937</ele>
        <time>2019-07-30T20:16:57Z</time>
      </trkpt>
      <trkpt lat="42.655536" lon="-8.498431">
        <ele>416.476</ele>
        <time>2019-07-30T20:17:17Z</time>
      </trkpt>
      <trkpt lat="42.655656" lon="-8.498655">
        <ele>414.565</ele>
        <time>2019-07-30T20:17:37Z</time>
      </trkpt>
      <trkpt lat="42.655674" lon="-8.499069">
        <ele>421.668</ele>
        <time>2019-07-30T20:17:57Z</time>
      </trkpt>
      <trkpt lat="42.655965" lon="-8.499579">
        <ele>421.214</ele>
        <time>2019-07-30T20:18:17Z</time>
      </trkpt>
      <trkpt lat="42.656138" lon="-8.499805">
        <ele>426.908</ele>
        <time>2019-07-30T20:18:37Z</time>
      </trkpt>
      <trkpt lat="42.656500" lon="-8.499476">
        <ele>424.149</ele>
        <time>2019-07-30T20:18:57Z</time>
      </trkpt>
      <trkpt lat="42.656784" lon="-8.499422">
        <ele>424.365</ele>
        <time>2019-07-30T20:19:17Z</time>
      </trkpt>
      <trkpt lat="42.657202" lon="-8.499419">
        <ele>427.848</ele>
        <time>2019-07-30T20:19:37Z</time>
      </trkpt>
      <trkpt lat="42.657582" lon="-8.498896">
        <ele>418.164</ele>
        <time>2019-07-30T20:19:57Z</time>
      </trkpt>
      <trkpt lat="42.658025" lon="-8.498174">
        <ele>404.326</ele>
        <time>2019-07-30T20:20:17Z</time>
      </trkpt>
      <trkpt lat="42.658307" lon="-8.497585">
        <ele>392.794</ele>
        <time>2019-07-30T20:20:37Z</time>
      </trkpt>
      <trkpt lat="42.658494" lon="-8.497325">
        <ele>387.854</ele>
        <time>2019-07-30T20:20:57Z</time>
      </trkpt>
      <trkpt lat="42.658810" lon="-8.497009">
        <ele>379.733</ele>
        <time>2019-07-30T20:21:17Z</time>
      </trkpt>
      <trkpt lat="42.659056" lon="-8.496899">
        <ele>374.495</ele>
        <time>2019-07-30T20:21:37Z</time>
      </trkpt>
      <trkpt lat="42.659264" lon="-8.497036">
        <ele>374.249</ele>
        <time>2019-07-30T20:21:57Z</time>
      </trkpt>
      <trkpt lat="42.659451" lon="-8.497298">
        <ele>376.323</ele>
        <time>2019-07-30T20:22:17Z</time>
      </trkpt>
      <trkpt lat="42.659576" lon="-8.497446">
        <ele>377.608</ele>
        <time>2019-07-30T20:22:37Z</time>
      </trkpt>
      <trkpt lat="42.659766" lon="-8.497443">
        <ele>376.242</ele>
        <time>2019-07-30T20:22:57Z</time>
      </trkpt>
      <trkpt lat="42.659982" lon="-8.497232">
        <ele>372.268</ele>
        <time>2019-07-30T20:23:17Z</time>
      </trkpt>
      <trkpt lat="42.659991" lon="-8.497231">
        <ele>372.211</ele>
        <time>2019-07-30T20:23:37Z</time>
      </trkpt>
      <trkpt lat="42.660154" lon="-8.497268">
        <ele>375.277</ele>
        <time>2019-07-30T20:23:57Z</time>
      </trkpt>
      <trkpt lat="42.660271" lon="-8.497402">
        <ele>379.289</ele>
        <time>2019-07-30T20:24:17Z</time>
      </trkpt>
      <trkpt lat="42.660588" lon="-8.497706">
        <ele>383.727</ele>
        <time>2019-07-30T20:24:37Z</time>
      </trkpt>
      <trkpt lat="42.660598" lon="-8.497706">
        <ele>383.687</ele>
        <time>2019-07-30T20:24:57Z</time>
      </trkpt>
      <trkpt lat="42.660745" lon="-8.497641">
        <ele>381.746</ele>
        <time>2019-07-30T20:25:17Z</time>
      </trkpt>
      <trkpt lat="42.660789" lon="-8.497348">
        <ele>379.431</ele>
        <time>2019-07-30T20:25:37Z</time>
      </trkpt>
      <trkpt lat="42.660735" lon="-8.497100">
        <ele>377.861</ele>
        <time>2019-07-30T20:25:57Z</time>
      </trkpt>
      <trkpt lat="42.660518" lon="-8.496734">
        <ele>371.507</ele>
        <time>2019-07-30T20:26:17Z</time>
      </trkpt>
      <trkpt lat="42.660352" lon="-8.496448">
        <ele>365.808</ele>
        <time>2019-07-30T20:26:37Z</time>
      </trkpt>
      <trkpt lat="42.660128" lon="-8.496080">
        <ele>360.326</ele>
        <time>2019-07-30T20:26:57Z</time>
      </trkpt>
      <trkpt lat="42.660220" lon="-8.495475">
        <ele>364.492</ele>
        <time>2019-07-30T20:27:17Z</time>
      </trkpt>
      <trkpt lat="42.660490" lon="-8.494950">
        <ele>366.435</ele>
        <time>2019-07-30T20:27:37Z</time>
      </trkpt>
      <trkpt lat="42.660500" lon="-8.494949">
        <ele>366.611</ele>
        <time>2019-07-30T20:27:57Z</time>
      </trkpt>
      <trkpt lat="42.660642" lon="-8.494770">
        <ele>364.743</ele>
        <time>2019-07-30T20:28:17Z</time>
      </trkpt>
      <trkpt lat="42.660906" lon="-8.494543">
        <ele>360.071</ele>
        <time>2019-07-30T20:28:37Z</time>
      </trkpt>
      <trkpt lat="42.661261" lon="-8.494337">
        <ele>354.761</ele>
        <time>2019-07-30T20:28:57Z</time>
      </trkpt>
      <trkpt lat="42.661286" lon="-8.494316">
        <ele>354.350</ele>
        <time>2019-07-30T20:29:17Z</time>
      </trkpt>
      <trkpt lat="42.661505" lon="-8.493966">
        <ele>351.651</ele>
        <time>2019-07-30T20:29:37Z</time>
      </trkpt>
      <trkpt lat="42.661716" lon="-8.493596">
        <ele>350.801</ele>
        <time>2019-07-30T20:29:57Z</time>
      </trkpt>
      <trkpt lat="42.661938" lon="-8.493330">
        <ele>351.911</ele>
        <time>2019-07-30T20:30:17Z</time>
      </trkpt>
      <trkpt lat="42.662180" lon="-8.493074">
        <ele>353.508</ele>
        <time>2019-07-30T20:30:37Z</time>
      </trkpt>
      <trkpt lat="42.662407" lon="-8.492990">
        <ele>355.438</ele>
        <time>2019-07-30T20:30:57Z</time>
      </trkpt>
      <trkpt lat="42.662783" lon="-8.492910">
        <ele>358.564</ele>
        <time>2019-07-30T20:31:17Z</time>
      </trkpt>
      <trkpt lat="42.663135" lon="-8.492808">
        <ele>365.127</ele>
        <time>2019-07-30T20:31:37Z</time>
      </trkpt>
      <trkpt lat="42.663149" lon="-8.492795">
        <ele>365.383</ele>
        <time>2019-07-30T20:31:57Z</time>
      </trkpt>
      <trkpt lat="42.663342" lon="-8.492458">
        <ele>365.655</ele>
        <time>2019-07-30T20:32:17Z</time>
      </trkpt>
      <trkpt lat="42.663630" lon="-8.492333">
        <ele>369.393</ele>
        <time>2019-07-30T20:32:37Z</time>
      </trkpt>
      <trkpt lat="42.663974" lon="-8.492254">
        <ele>373.763</ele>
        <time>2019-07-30T20:32:57Z</time>
      </trkpt>
      <trkpt lat="42.664189" lon="-8.492332">
        <ele>377.622</ele>
        <time>2019-07-30T20:33:17Z</time>
      </trkpt>
      <trkpt lat="42.664307" lon="-8.492417">
        <ele>379.271</ele>
        <time>2019-07-30T20:33:37Z</time>
      </trkpt>
      <trkpt lat="42.664405" lon="-8.492482">
        <ele>380.541</ele>
        <time>2019-07-30T20:33:57Z</time>
      </trkpt>
      <trkpt lat="42.664388" lon="-8.492692">
        <ele>382.915</ele>
        <time>2019-07-30T20:34:17Z</time>
      </trkpt>
      <trkpt lat="42.664477" lon="-8.492811">
        <ele>385.308</ele>
        <time>2019-07-30T20:34:37Z</time>
      </trkpt>
      <trkpt lat="42.664671" lon="-8.492747">
        <ele>388.340</ele>
        <time>2019-07-30T20:34:57Z</time>
      </trkpt>
      <trkpt lat="42.664973" lon="-8.492631">
        <ele>390.946</ele>
        <time>2019-07-30T20:35:17Z</time>
      </trkpt>
      <trkpt lat="42.665231" lon="-8.492748">
        <ele>397.519</ele>
        <time>2019-07-30T20:35:37Z</time>
      </trkpt>
      <trkpt lat="42.665516" lon="-8.492712">
        <ele>400.565</ele>
        <time>2019-07-30T20:35:57Z</time>
      </trkpt>
      <trkpt lat="42.665914" lon="-8.492612">
        <ele>405.337</ele>
        <time>2019-07-30T20:36:17Z</time>
      </trkpt>
      <trkpt lat="42.666270" lon="-8.492622">
        <ele>409.175</ele>
        <time>2019-07-30T20:36:37Z</time>
      </trkpt>
      <trkpt lat="42.666958" lon="-8.492732">
        <ele>405.565</ele>
        <time>2019-07-30T20:36:57Z</time>
      </trkpt>
      <trkpt lat="42.667329" lon="-8.492823">
        <ele>406.414</ele>
        <time>2019-07-30T20:37:17Z</time>
      </trkpt>
      <trkpt lat="42.667670" lon="-8.493088">
        <ele>407.032</ele>
        <time>2019-07-30T20:37:37Z</time>
      </trkpt>
      <trkpt lat="42.667822" lon="-8.493398">
        <ele>408.592</ele>
        <time>2019-07-30T20:37:57Z</time>
      </trkpt>
      <trkpt lat="42.667873" lon="-8.493901">
        <ele>413.111</ele>
        <time>2019-07-30T20:38:17Z</time>
      </trkpt>
      <trkpt lat="42.667851" lon="-8.494626">
        <ele>416.808</ele>
        <time>2019-07-30T20:38:37Z</time>
      </trkpt>
      <trkpt lat="42.667871" lon="-8.495254">
        <ele>424.446</ele>
        <time>2019-07-30T20:38:57Z</time>
      </trkpt>
      <trkpt lat="42.667909" lon="-8.495336">
        <ele>425.392</ele>
        <time>2019-07-30T20:39:17Z</time>
      </trkpt>
      <trkpt lat="42.667929" lon="-8.495359">
        <ele>425.555</ele>
        <time>2019-07-30T20:39:37Z</time>
      </trkpt>
      <trkpt lat="42.668117" lon="-8.495593">
        <ele>427.491</ele>
        <time>2019-07-30T20:39:57Z</time>
      </trkpt>
      <trkpt lat="42.668168" lon="-8.495591">
        <ele>427.333</ele>
        <time>2019-07-30T20:40:17Z</time>
      </trkpt>
      <trkpt lat="42.668219" lon="-8.495614">
        <ele>427.511</ele>
        <time>2019-07-30T20:40:37Z</time>
      </trkpt>
      <trkpt lat="42.668508" lon="-8.495766">
        <ele>429.891</ele>
        <time>2019-07-30T20:40:57Z</time>
      </trkpt>
      <trkpt lat="42.668772" lon="-8.495935">
        <ele>431.770</ele>
        <time>2019-07-30T20:41:17Z</time>
      </trkpt>
      <trkpt lat="42.669199" lon="-8.496725">
        <ele>431.944</ele>
        <time>2019-07-30T20:41:37Z</time>
      </trkpt>
      <trkpt lat="42.669239" lon="-8.497700">
        <ele>434.505</ele>
        <time>2019-07-30T20:41:57Z</time>
      </trkpt>
      <trkpt lat="42.669187" lon="-8.498861">
        <ele>437.815</ele>
        <time>2019-07-30T20:42:17Z</time>
      </trkpt>
      <trkpt lat="42.669441" lon="-8.499978">
        <ele>436.008</ele>
        <time>2019-07-30T20:42:37Z</time>
      </trkpt>
      <trkpt lat="42.669757" lon="-8.500639">
        <ele>438.037</ele>
        <time>2019-07-30T20:42:57Z</time>
      </trkpt>
      <trkpt lat="42.670247" lon="-8.501578">
        <ele>435.463</ele>
        <time>2019-07-30T20:43:17Z</time>
      </trkpt>
      <trkpt lat="42.670509" lon="-8.502293">
        <ele>431.886</ele>
        <time>2019-07-30T20:43:37Z</time>
      </trkpt>
      <trkpt lat="42.670732" lon="-8.502336">
        <ele>431.682</ele>
        <time>2019-07-30T20:43:57Z</time>
      </trkpt>
      <trkpt lat="42.671564" lon="-8.502176">
        <ele>434.424</ele>
        <time>2019-07-30T20:44:17Z</time>
      </trkpt>
      <trkpt lat="42.671589" lon="-8.502178">
        <ele>434.412</ele>
        <time>2019-07-30T20:44:37Z</time>
      </trkpt>
      <trkpt lat="42.672612" lon="-8.501594">
        <ele>436.532</ele>
        <time>2019-07-30T20:44:57Z</time>
      </trkpt>
      <trkpt lat="42.673090" lon="-8.501006">
        <ele>427.611</ele>
        <time>2019-07-30T20:45:17Z</time>
      </trkpt>
      <trkpt lat="42.673832" lon="-8.500145">
        <ele>410.085</ele>
        <time>2019-07-30T20:45:37Z</time>
      </trkpt>
      <trkpt lat="42.674367" lon="-8.499118">
        <ele>403.489</ele>
        <time>2019-07-30T20:45:57Z</time>
      </trkpt>
      <trkpt lat="42.675047" lon="-8.497891">
        <ele>395.517</ele>
        <time>2019-07-30T20:46:17Z</time>
      </trkpt>
      <trkpt lat="42.676253" lon="-8.496203">
        <ele>371.808</ele>
        <time>2019-07-30T20:46:37Z</time>
      </trkpt>
      <trkpt lat="42.678260" lon="-8.493989">
        <ele>327.121</ele>
        <time>2019-07-30T20:46:57Z</time>
      </trkpt>
      <trkpt lat="42.679343" lon="-8.493066">
        <ele>304.847</ele>
        <time>2019-07-30T20:47:17Z</time>
      </trkpt>
      <trkpt lat="42.679633" lon="-8.493065">
        <ele>304.060</ele>
        <time>2019-07-30T20:47:37Z</time>
      </trkpt>
      <trkpt lat="42.679993" lon="-8.493258">
        <ele>302.576</ele>
        <time>2019-07-30T20:47:57Z</time>
      </trkpt>
      <trkpt lat="42.679973" lon="-8.492818">
        <ele>298.688</ele>
        <time>2019-07-30T20:48:17Z</time>
      </trkpt>
      <trkpt lat="42.680014" lon="-8.491986">
        <ele>289.336</ele>
        <time>2019-07-30T20:48:37Z</time>
      </trkpt>
      <trkpt lat="42.680082" lon="-8.491179">
        <ele>284.246</ele>
        <time>2019-07-30T20:48:57Z</time>
      </trkpt>
      <trkpt lat="42.680263" lon="-8.491027">
        <ele>282.575</ele>
        <time>2019-07-30T20:49:17Z</time>
      </trkpt>
      <trkpt lat="42.680891" lon="-8.491323">
        <ele>284.762</ele>
        <time>2019-07-30T20:49:37Z</time>
      </trkpt>
      <trkpt lat="42.681353" lon="-8.491554">
        <ele>286.883</ele>
        <time>2019-07-30T20:49:57Z</time>
      </trkpt>
      <trkpt lat="42.681969" lon="-8.491664">
        <ele>288.211</ele>
        <time>2019-07-30T20:50:17Z</time>
      </trkpt>
      <trkpt lat="42.682015" lon="-8.491672">
        <ele>288.508</ele>
        <time>2019-07-30T20:50:37Z</time>
      </trkpt>
      <trkpt lat="42.682378" lon="-8.491328">
        <ele>289.899</ele>
        <time>2019-07-30T20:50:57Z</time>
      </trkpt>
      <trkpt lat="42.682795" lon="-8.491070">
        <ele>287.945</ele>
        <time>2019-07-30T20:51:17Z</time>
      </trkpt>
      <trkpt lat="42.683071" lon="-8.491047">
        <ele>286.898</ele>
        <time>2019-07-30T20:51:37Z</time>
      </trkpt>
      <trkpt lat="42.683531" lon="-8.491152">
        <ele>287.114</ele>
        <time>2019-07-30T20:51:57Z</time>
      </trkpt>
      <trkpt lat="42.684081" lon="-8.491284">
        <ele>287.476</ele>
        <time>2019-07-30T20:52:17Z</time>
      </trkpt>
      <trkpt lat="42.684884" lon="-8.490886">
        <ele>281.434</ele>
        <time>2019-07-30T20:52:37Z</time>
      </trkpt>
      <trkpt lat="42.685642" lon="-8.490651">
        <ele>282.024</ele>
        <time>2019-07-30T20:52:57Z</time>
      </trkpt>
      <trkpt lat="42.685971" lon="-8.490765">
        <ele>285.483</ele>
        <time>2019-07-30T20:53:17Z</time>
      </trkpt>
      <trkpt lat="42.686810" lon="-8.490863">
        <ele>291.979</ele>
        <time>2019-07-30T20:53:37Z</time>
      </trkpt>
      <trkpt lat="42.687382" lon="-8.490941">
        <ele>294.805</ele>
        <time>2019-07-30T20:53:57Z</time>
      </trkpt>
      <trkpt lat="42.688196" lon="-8.491104">
        <ele>297.525</ele>
        <time>2019-07-30T20:54:17Z</time>
      </trkpt>
      <trkpt lat="42.483642" lon="-8.540789">
        <ele>187.862</ele>
        <time>2018-07-20T09:16:55Z</time>
      </trkpt>
      <trkpt lat="42.483673" lon="-8.540517">
        <ele>186.983</ele>
        <time>2018-07-20T09:17:15Z</time>
      </trkpt>
      <trkpt lat="42.483581" lon="-8.540012">
        <ele>186.311</ele>
        <time>2018-07-20T09:17:35Z</time>
      </trkpt>
      <trkpt lat="42.483589" lon="-8.539336">
        <ele>182.508</ele>
        <time>2018-07-20T09:17:55Z</time>
      </trkpt>
      <trkpt lat="42.483602" lon="-8.538738">
        <ele>182.598</ele>
        <time>2018-07-20T09:18:15Z</time>
      </trkpt>
      <trkpt lat="42.483553" lon="-8.538033">
        <ele>188.372</ele>
        <time>2018-07-20T09:18:35Z</time>
      </trkpt>
      <trkpt lat="42.483500" lon="-8.537274">
        <ele>194.983</ele>
        <time>2018-07-20T09:18:55Z</time>
      </trkpt>
      <trkpt lat="42.483530" lon="-8.536698">
        <ele>197.880</ele>
        <time>2018-07-20T09:19:15Z</time>
      </trkpt>
      <trkpt lat="42.483500" lon="-8.536147">
        <ele>197.995</ele>
        <time>2018-07-20T09:19:35Z</time>
      </trkpt>
      <trkpt lat="42.483148" lon="-8.536045">
        <ele>194.955</ele>
        <time>2018-07-20T09:19:55Z</time>
      </trkpt>
      <trkpt lat="42.482823" lon="-8.535662">
        <ele>192.530</ele>
        <time>2018-07-20T09:20:15Z</time>
      </trkpt>
      <trkpt lat="42.482411" lon="-8.535210">
        <ele>189.496</ele>
        <time>2018-07-20T09:20:35Z</time>
      </trkpt>
      <trkpt lat="42.482131" lon="-8.534972">
        <ele>185.436</ele>
        <time>2018-07-20T09:20:55Z</time>
      </trkpt>
      <trkpt lat="42.481949" lon="-8.534999">
        <ele>185.017</ele>
        <time>2018-07-20T09:21:15Z</time>
      </trkpt>
      <trkpt lat="42.481654" lon="-8.535049">
        <ele>182.918</ele>
        <time>2018-07-20T09:21:35Z</time>
      </trkpt>
      <trkpt lat="42.481497" lon="-8.535299">
        <ele>181.908</ele>
        <time>2018-07-20T09:21:55Z</time>
      </trkpt>
      <trkpt lat="42.481303" lon="-8.535553">
        <ele>182.095</ele>
        <time>2018-07-20T09:22:15Z</time>
      </trkpt>
      <trkpt lat="42.481113" lon="-8.535703">
        <ele>182.559</ele>
        <time>2018-07-20T09:22:35Z</time>
      </trkpt>
      <trkpt lat="42.480946" lon="-8.535609">
        <ele>181.540</ele>
        <time>2018-07-20T09:22:55Z</time>
      </trkpt>
      <trkpt lat="42.480834" lon="-8.535468">
        <ele>181.697</ele>
        <time>2018-07-20T09:23:15Z</time>
      </trkpt>
      <trkpt lat="42.480411" lon="-8.535424">
        <ele>184.792</ele>
        <time>2018-07-20T09:23:35Z</time>
      </trkpt>
      <trkpt lat="42.480039" lon="-8.535666">
        <ele>181.592</ele>
        <time>2018-07-20T09:23:55Z</time>
      </trkpt>
      <trkpt lat="42.479728" lon="-8.535699">
        <ele>185.327</ele>
        <time>2018-07-20T09:24:15Z</time>
      </trkpt>
      <trkpt lat="42.479547" lon="-8.535933">
        <ele>185.323</ele>
        <time>2018-07-20T09:24:35Z</time>
      </trkpt>
      <trkpt lat="42.479434" lon="-8.536260">
        <ele>184.644</ele>
        <time>2018-07-20T09:24:55Z</time>
      </trkpt>
      <trkpt lat="42.479377" lon="-8.536807">
        <ele>185.605</ele>
        <time>2018-07-20T09:25:15Z</time>
      </trkpt>
      <trkpt lat="42.479226" lon="-8.537277">
        <ele>181.815</ele>
        <time>2018-07-20T09:25:35Z</time>
      </trkpt>
      <trkpt lat="42.479095" lon="-8.537599">
        <ele>177.808</ele>
        <time>2018-07-20T09:25:55Z</time>
      </trkpt>
      <trkpt lat="42.478957" lon="-8.537879">
        <ele>175.176</ele>
        <time>2018-07-20T09:26:15Z</time>
      </trkpt>
      <trkpt lat="42.478806" lon="-8.538096">
        <ele>177.660</ele>
        <time>2018-07-20T09:26:35Z</time>
      </trkpt>
      <trkpt lat="42.478724" lon="-8.538458">
        <ele>179.071</ele>
        <time>2018-07-20T09:26:55Z</time>
      </trkpt>
      <trkpt lat="42.478699" lon="-8.538816">
        <ele>180.418</ele>
        <time>2018-07-20T09:27:15Z</time>
      </trkpt>
      <trkpt lat="42.478711" lon="-8.539160">
        <ele>182.683</ele>
        <time>2018-07-20T09:27:35Z</time>
      </trkpt>
      <trkpt lat="42.478782" lon="-8.539554">
        <ele>181.153</ele>
        <time>2018-07-20T09:27:55Z</time>
      </trkpt>
      <trkpt lat="42.478796" lon="-8.540009">
        <ele>179.958</ele>
        <time>2018-07-20T09:28:15Z</time>
      </trkpt>
      <trkpt lat="42.478662" lon="-8.540331">
        <ele>179.434</ele>
        <time>2018-07-20T09:28:35Z</time>
      </trkpt>
      <trkpt lat="42.478469" lon="-8.540537">
        <ele>180.376</ele>
        <time>2018-07-20T09:28:55Z</time>
      </trkpt>
      <trkpt lat="42.478202" lon="-8.540585">
        <ele>183.990</ele>
        <time>2018-07-20T09:29:15Z</time>
      </trkpt>
      <trkpt lat="42.478019" lon="-8.540733">
        <ele>185.119</ele>
        <time>2018-07-20T09:29:35Z</time>
      </trkpt>
      <trkpt lat="42.477783" lon="-8.540923">
        <ele>187.608</ele>
        <time>2018-07-20T09:29:55Z</time>
      </trkpt>
      <trkpt lat="42.477562" lon="-8.540997">
        <ele>187.639</ele>
        <time>2018-07-20T09:30:15Z</time>
      </trkpt>
      <trkpt lat="42.477393" lon="-8.540904">
        <ele>188.153</ele>
        <time>2018-07-20T09:30:35Z</time>
      </trkpt>
      <trkpt lat="42.477067" lon="-8.540618">
        <ele>189.774</ele>
        <time>2018-07-20T09:30:55Z</time>
      </trkpt>
      <trkpt lat="42.476553" lon="-8.540390">
        <ele>192.621</ele>
        <time>2018-07-20T09:31:15Z</time>
      </trkpt>
      <trkpt lat="42.476134" lon="-8.540362">
        <ele>193.456</ele>
        <time>2018-07-20T09:31:35Z</time>
      </trkpt>
      <trkpt lat="42.475758" lon="-8.540573">
        <ele>191.966</ele>
        <time>2018-07-20T09:31:55Z</time>
      </trkpt>
      <trkpt lat="42.475332" lon="-8.540936">
        <ele>190.111</ele>
        <time>2018-07-20T09:32:15Z</time>
      </trkpt>
      <trkpt lat="42.475135" lon="-8.541279">
        <ele>188.977</ele>
        <time>2018-07-20T09:32:35Z</time>
      </trkpt>
      <trkpt lat="42.474878" lon="-8.541459">
        <ele>189.792</ele>
        <time>2018-07-20T09:32:55Z</time>
      </trkpt>
      <trkpt lat="42.474675" lon="-8.541472">
        <ele>189.073</ele>
        <time>2018-07-20T09:33:15Z</time>
      </trkpt>
      <trkpt lat="42.474542" lon="-8.541443">
        <ele>188.320</ele>
        <time>2018-07-20T09:33:35Z</time>
      </trkpt>
      <trkpt lat="42.474268" lon="-8.541337">
        <ele>190.408</ele>
        <time>2018-07-20T09:33:55Z</time>
      </trkpt>
      <trkpt lat="42.474048" lon="-8.541408">
        <ele>193.421</ele>
        <time>2018-07-20T09:34:15Z</time>
      </trkpt>
      <trkpt lat="42.473773" lon="-8.541587">
        <ele>197.365</ele>
        <time>2018-07-20T09:34:35Z</time>
      </trkpt>
      <trkpt lat="42.473489" lon="-8.541630">
        <ele>202.156</ele>
        <time>2018-07-20T09:34:55Z</time>
      </trkpt>
      <trkpt lat="42.473343" lon="-8.541679">
        <ele>203.613</ele>
        <time>2018-07-20T09:35:15Z</time>
      </trkpt>
      <trkpt lat="42.473083" lon="-8.541825">
        <ele>203.348</ele>
        <time>2018-07-20T09:35:35Z</time>
      </trkpt>
      <trkpt lat="42.472861" lon="-8.541972">
        <ele>203.598</ele>
        <time>2018-07-20T09:35:55Z</time>
      </trkpt>
      <trkpt lat="42.472683" lon="-8.542298">
        <ele>202.283</ele>
        <time>2018-07-20T09:36:15Z</time>
      </trkpt>
      <trkpt lat="42.472428" lon="-8.542508">
        <ele>199.969</ele>
        <time>2018-07-20T09:36:35Z</time>
      </trkpt>
      <trkpt lat="42.472174" lon="-8.542663">
        <ele>197.693</ele>
        <time>2018-07-20T09:36:55Z</time>
      </trkpt>
      <trkpt lat="42.472019" lon="-8.542447">
        <ele>203.665</ele>
        <time>2018-07-20T09:37:15Z</time>
      </trkpt>
      <trkpt lat="42.471884" lon="-8.542155">
        <ele>213.321</ele>
        <time>2018-07-20T09:37:35Z</time>
      </trkpt>
      <trkpt lat="42.471631" lon="-8.542007">
        <ele>222.208</ele>
        <time>2018-07-20T09:37:55Z</time>
      </trkpt>
      <trkpt lat="42.471456" lon="-8.542139">
        <ele>228.081</ele>
        <time>2018-07-20T09:38:15Z</time>
      </trkpt>
      <trkpt lat="42.471243" lon="-8.542525">
        <ele>227.665</ele>
        <time>2018-07-20T09:38:35Z</time>
      </trkpt>
      <trkpt lat="42.471158" lon="-8.542861">
        <ele>221.726</ele>
        <time>2018-07-20T09:38:55Z</time>
      </trkpt>
      <trkpt lat="42.470820" lon="-8.543073">
        <ele>225.723</ele>
        <time>2018-07-20T09:39:15Z</time>
      </trkpt>
      <trkpt lat="42.470502" lon="-8.543201">
        <ele>228.888</ele>
        <time>2018-07-20T09:39:35Z</time>
      </trkpt>
      <trkpt lat="42.470101" lon="-8.543290">
        <ele>229.868</ele>
        <time>2018-07-20T09:39:55Z</time>
      </trkpt>
      <trkpt lat="42.469908" lon="-8.543080">
        <ele>236.213</ele>
        <time>2018-07-20T09:40:15Z</time>
      </trkpt>
      <trkpt lat="42.469979" lon="-8.542741">
        <ele>241.749</ele>
        <time>2018-07-20T09:40:35Z</time>
      </trkpt>
      <trkpt lat="42.470122" lon="-8.542344">
        <ele>244.576</ele>
        <time>2018-07-20T09:40:55Z</time>
      </trkpt>
      <trkpt lat="42.470229" lon="-8.541877">
        <ele>250.690</ele>
        <time>2018-07-20T09:41:15Z</time>
      </trkpt>
      <trkpt lat="42.470503" lon="-8.541551">
        <ele>252.319</ele>
        <time>2018-07-20T09:41:35Z</time>
      </trkpt>
      <trkpt lat="42.470513" lon="-8.541221">
        <ele>252.408</ele>
        <time>2018-07-20T09:41:55Z</time>
      </trkpt>
      <trkpt lat="42.470229" lon="-8.541206">
        <ele>255.279</ele>
        <time>2018-07-20T09:42:15Z</time>
      </trkpt>
      <trkpt lat="42.469903" lon="-8.541360">
        <ele>256.893</ele>
        <time>2018-07-20T09:42:35Z</time>
      </trkpt>
      <trkpt lat="42.469674" lon="-8.541476">
        <ele>259.794</ele>
        <time>2018-07-20T09:42:55Z</time>
      </trkpt>
      <trkpt lat="42.469497" lon="-8.541485">
        <ele>264.241</ele>
        <time>2018-07-20T09:43:15Z</time>
      </trkpt>
      <trkpt lat="42.469296" lon="-8.541251">
        <ele>270.166</ele>
        <time>2018-07-20T09:43:35Z</time>
      </trkpt>
      <trkpt lat="42.469165" lon="-8.541036">
        <ele>272.626</ele>
        <time>2018-07-20T09:43:55Z</time>
      </trkpt>
      <trkpt lat="42.469264" lon="-8.540594">
        <ele>273.811</ele>
        <time>2018-07-20T09:44:15Z</time>
      </trkpt>
      <trkpt lat="42.469472" lon="-8.540083">
        <ele>273.527</ele>
        <time>2018-07-20T09:44:35Z</time>
      </trkpt>
      <trkpt lat="42.469557" lon="-8.539613">
        <ele>274.426</ele>
        <time>2018-07-20T09:44:55Z</time>
      </trkpt>
      <trkpt lat="42.469643" lon="-8.539011">
        <ele>276.447</ele>
        <time>2018-07-20T09:45:15Z</time>
      </trkpt>
      <trkpt lat="42.469773" lon="-8.538414">
        <ele>280.311</ele>
        <time>2018-07-20T09:45:35Z</time>
      </trkpt>
      <trkpt lat="42.470036" lon="-8.537960">
        <ele>280.908</ele>
        <time>2018-07-20T09:45:55Z</time>
      </trkpt>
      <trkpt lat="42.470415" lon="-8.537364">
        <ele>281.574</ele>
        <time>2018-07-20T09:46:15Z</time>
      </trkpt>
      <trkpt lat="42.470729" lon="-8.537127">
        <ele>284.218</ele>
        <time>2018-07-20T09:46:35Z</time>
      </trkpt>
      <trkpt lat="42.471025" lon="-8.536883">
        <ele>282.559</ele>
        <time>2018-07-20T09:46:55Z</time>
      </trkpt>
      <trkpt lat="42.470983" lon="-8.536613">
        <ele>284.716</ele>
        <time>2018-07-20T09:47:15Z</time>
      </trkpt>
      <trkpt lat="42.470779" lon="-8.536260">
        <ele>290.271</ele>
        <time>2018-07-20T09:47:35Z</time>
      </trkpt>
      <trkpt lat="42.470644" lon="-8.535857">
        <ele>296.661</ele>
        <time>2018-07-20T09:47:55Z</time>
      </trkpt>
      <trkpt lat="42.470733" lon="-8.535576">
        <ele>300.796</ele>
        <time>2018-07-20T09:48:15Z</time>
      </trkpt>
      <trkpt lat="42.470980" lon="-8.535077">
        <ele>304.742</ele>
        <time>2018-07-20T09:48:35Z</time>
      </trkpt>
      <trkpt lat="42.471019" lon="-8.534694">
        <ele>308.342</ele>
        <time>2018-07-20T09:48:55Z</time>
      </trkpt>
      <trkpt lat="42.470983" lon="-8.534206">
        <ele>314.322</ele>
        <time>2018-07-20T09:49:15Z</time>
      </trkpt>
      <trkpt lat="42.470902" lon="-8.533992">
        <ele>317.714</ele>
        <time>2018-07-20T09:49:35Z</time>
      </trkpt>
      <trkpt lat="42.470491" lon="-8.534168">
        <ele>319.508</ele>
        <time>2018-07-20T09:49:55Z</time>
      </trkpt>
      <trkpt lat="42.470239" lon="-8.534217">
        <ele>321.186</ele>
        <time>2018-07-20T09:50:15Z</time>
      </trkpt>
      <trkpt lat="42.470130" lon="-8.534201">
        <ele>323.220</ele>
        <time>2018-07-20T09:50:35Z</time>
      </trkpt>
      <trkpt lat="42.469934" lon="-8.534326">
        <ele>324.451</ele>
        <time>2018-07-20T09:50:55Z</time>
      </trkpt>
      <trkpt lat="42.469776" lon="-8.534446">
        <ele>325.078</ele>
        <time>2018-07-20T09:51:15Z</time>
      </trkpt>
      <trkpt lat="42.469462" lon="-8.534537">
        <ele>328.513</ele>
        <time>2018-07-20T09:51:35Z</time>
      </trkpt>
      <trkpt lat="42.469178" lon="-8.534571">
        <ele>333.543</ele>
        <time>2018-07-20T09:51:55Z</time>
      </trkpt>
      <trkpt lat="42.469014" lon="-8.534714">
        <ele>334.438</ele>
        <time>2018-07-20T09:52:15Z</time>
      </trkpt>
      <trkpt lat="42.468722" lon="-8.534941">
        <ele>336.424</ele>
        <time>2018-07-20T09:52:35Z</time>
      </trkpt>
      <trkpt lat="42.468486" lon="-8.535178">
        <ele>339.027</ele>
        <time>2018-07-20T09:52:55Z</time>
      </trkpt>
      <trkpt lat="42.468252" lon="-8.535530">
        <ele>342.868</ele>
        <time>2018-07-20T09:53:15Z</time>
      </trkpt>
      <trkpt lat="42.468099" lon="-8.535786">
        <ele>347.214</ele>
        <time>2018-07-20T09:53:35Z</time>
      </trkpt>
      <trkpt lat="42.467943" lon="-8.535972">
        <ele>348.908</ele>
        <time>2018-07-20T09:53:55Z</time>
      </trkpt>
      <trkpt lat="42.467786" lon="-8.536269">
        <ele>349.314</ele>
        <time>2018-07-20T09:54:15Z</time>
      </trkpt>
      <trkpt lat="42.467664" lon="-8.536520">
        <ele>350.018</ele>
        <time>2018-07-20T09:54:35Z</time>
      </trkpt>
      <trkpt lat="42.467494" lon="-8.536762">
        <ele>351.169</ele>
        <time>2018-07-20T09:54:55Z</time>
      </trkpt>
      <trkpt lat="42.467392" lon="-8.536889">
        <ele>350.666</ele>
        <time>2018-07-20T09:55:15Z</time>
      </trkpt>
      <trkpt lat="42.467307" lon="-8.536800">
        <ele>353.071</ele>
        <time>2018-07-20T09:55:35Z</time>
      </trkpt>
      <trkpt lat="42.467366" lon="-8.536593">
        <ele>355.591</ele>
        <time>2018-07-20T09:55:55Z</time>
      </trkpt>
      <trkpt lat="42.467439" lon="-8.536342">
        <ele>356.786</ele>
        <time>2018-07-20T09:56:15Z</time>
      </trkpt>
      <trkpt lat="42.467414" lon="-8.536128">
        <ele>358.132</ele>
        <time>2018-07-20T09:56:35Z</time>
      </trkpt>
      <trkpt lat="42.467359" lon="-8.535879">
        <ele>360.027</ele>
        <time>2018-07-20T09:56:55Z</time>
      </trkpt>
      <trkpt lat="42.467252" lon="-8.535668">
        <ele>363.668</ele>
        <time>2018-07-20T09:57:15Z</time>
      </trkpt>
      <trkpt lat="42.467160" lon="-8.535475">
        <ele>366.214</ele>
        <time>2018-07-20T09:57:35Z</time>
      </trkpt>
      <trkpt lat="42.466983" lon="-8.535490">
        <ele>367.008</ele>
        <time>2018-07-20T09:57:55Z</time>
      </trkpt>
      <trkpt lat="42.466841" lon="-8.535580">
        <ele>366.664</ele>
        <time>2018-07-20T09:58:15Z</time>
      </trkpt>
      <trkpt lat="42.466699" lon="-8.535675">
        <ele>366.128</ele>
        <time>2018-07-20T09:58:35Z</time>
      </trkpt>
      <trkpt lat="42.466556" lon="-8.535665">
        <ele>364.869</ele>
        <time>2018-07-20T09:58:55Z</time>
      </trkpt>
      <trkpt lat="42.466379" lon="-8.535551">
        <ele>364.946</ele>
        <time>2018-07-20T09:59:15Z</time>
      </trkpt>
      <trkpt lat="42.466261" lon="-8.535440">
        <ele>364.671</ele>
        <time>2018-07-20T09:59:35Z</time>
      </trkpt>
      <trkpt lat="42.466201" lon="-8.535256">
        <ele>366.681</ele>
        <time>2018-07-20T09:59:55Z</time>
      </trkpt>
      <trkpt lat="42.466076" lon="-8.535013">
        <ele>368.356</ele>
        <time>2018-07-20T10:00:15Z</time>
      </trkpt>
      <trkpt lat="42.465970" lon="-8.534840">
        <ele>369.322</ele>
        <time>2018-07-20T10:00:35Z</time>
      </trkpt>
      <trkpt lat="42.465881" lon="-8.534660">
        <ele>371.243</ele>
        <time>2018-07-20T10:00:55Z</time>
      </trkpt>
      <trkpt lat="42.465709" lon="-8.534566">
        <ele>371.264</ele>
        <time>2018-07-20T10:01:15Z</time>
      </trkpt>
      <trkpt lat="42.465465" lon="-8.534441">
        <ele>371.710</ele>
        <time>2018-07-20T10:01:35Z</time>
      </trkpt>
      <trkpt lat="42.465341" lon="-8.534296">
        <ele>373.608</ele>
        <time>2018-07-20T10:01:55Z</time>
      </trkpt>
      <trkpt lat="42.465308" lon="-8.534174">
        <ele>375.276</ele>
        <time>2018-07-20T10:02:15Z</time>
      </trkpt>
      <trkpt lat="42.465128" lon="-8.534106">
        <ele>374.150</ele>
        <time>2018-07-20T10:02:35Z</time>
      </trkpt>
      <trkpt lat="42.464908" lon="-8.534014">
        <ele>372.021</ele>
        <time>2018-07-20T10:02:55Z</time>
      </trkpt>
      <trkpt lat="42.464753" lon="-8.533973">
        <ele>370.058</ele>
        <time>2018-07-20T10:03:15Z</time>
      </trkpt>
      <trkpt lat="42.464581" lon="-8.534002">
        <ele>367.913</ele>
        <time>2018-07-20T10:03:35Z</time>
      </trkpt>
      <trkpt lat="42.464465" lon="-8.534110">
        <ele>365.713</ele>
        <time>2018-07-20T10:03:55Z</time>
      </trkpt>
      <trkpt lat="42.464318" lon="-8.534163">
        <ele>363.718</ele>
        <time>2018-07-20T10:04:15Z</time>
      </trkpt>
      <trkpt lat="42.464162" lon="-8.534246">
        <ele>360.944</ele>
        <time>2018-07-20T10:04:35Z</time>
      </trkpt>
      <trkpt lat="42.464065" lon="-8.534280">
        <ele>360.581</ele>
        <time>2018-07-20T10:04:55Z</time>
      </trkpt>
      <trkpt lat="42.463983" lon="-8.534320">
        <ele>360.261</ele>
        <time>2018-07-20T10:05:15Z</time>
      </trkpt>
      <trkpt lat="42.463850" lon="-8.534257">
        <ele>361.217</ele>
        <time>2018-07-20T10:05:35Z</time>
      </trkpt>
      <trkpt lat="42.463765" lon="-8.534236">
        <ele>361.708</ele>
        <time>2018-07-20T10:05:55Z</time>
      </trkpt>
      <trkpt lat="42.463656" lon="-8.534269">
        <ele>361.770</ele>
        <time>2018-07-20T10:06:15Z</time>
      </trkpt>
      <trkpt lat="42.463515" lon="-8.534379">
        <ele>361.124</ele>
        <time>2018-07-20T10:06:35Z</time>
      </trkpt>
      <trkpt lat="42.463258" lon="-8.534444">
        <ele>361.055</ele>
        <time>2018-07-20T10:06:55Z</time>
      </trkpt>
      <trkpt lat="42.463042" lon="-8.534484">
        <ele>360.382</ele>
        <time>2018-07-20T10:07:15Z</time>
      </trkpt>
      <trkpt lat="42.462898" lon="-8.534456">
        <ele>357.597</ele>
        <time>2018-07-20T10:07:35Z</time>
      </trkpt>
      <trkpt lat="42.462752" lon="-8.534430">
        <ele>354.947</ele>
        <time>2018-07-20T10:07:55Z</time>
      </trkpt>
      <trkpt lat="42.462572" lon="-8.534411">
        <ele>352.672</ele>
        <time>2018-07-20T10:08:15Z</time>
      </trkpt>
      <trkpt lat="42.462367" lon="-8.534421">
        <ele>349.028</ele>
        <time>2018-07-20T10:08:35Z</time>
      </trkpt>
      <trkpt lat="42.462246" lon="-8.534354">
        <ele>348.376</ele>
        <time>2018-07-20T10:08:55Z</time>
      </trkpt>
      <trkpt lat="42.462151" lon="-8.534248">
        <ele>349.290</ele>
        <time>2018-07-20T10:09:15Z</time>
      </trkpt>
      <trkpt lat="42.462008" lon="-8.534092">
        <ele>350.619</ele>
        <time>2018-07-20T10:09:35Z</time>
      </trkpt>
      <trkpt lat="42.461883" lon="-8.533926">
        <ele>352.908</ele>
        <time>2018-07-20T10:09:55Z</time>
      </trkpt>
      <trkpt lat="42.461794" lon="-8.533734">
        <ele>357.339</ele>
        <time>2018-07-20T10:10:15Z</time>
      </trkpt>
      <trkpt lat="42.461656" lon="-8.533605">
        <ele>359.273</ele>
        <time>2018-07-20T10:10:35Z</time>
      </trkpt>
      <trkpt lat="42.461516" lon="-8.533448">
        <ele>363.674</ele>
        <time>2018-07-20T10:10:55Z</time>
      </trkpt>
      <trkpt lat="42.461262" lon="-8.533396">
        <ele>368.281</ele>
        <time>2018-07-20T10:11:15Z</time>
      </trkpt>
      <trkpt lat="42.461040" lon="-8.533405">
        <ele>371.866</ele>
        <time>2018-07-20T10:11:35Z</time>
      </trkpt>
      <trkpt lat="42.460773" lon="-8.533408">
        <ele>375.096</ele>
        <time>2018-07-20T10:11:55Z</time>
      </trkpt>
      <trkpt lat="42.460632" lon="-8.533447">
        <ele>375.791</ele>
        <time>2018-07-20T10:12:15Z</time>
      </trkpt>
      <trkpt lat="42.460499" lon="-8.533471">
        <ele>376.577</ele>
        <time>2018-07-20T10:12:35Z</time>
      </trkpt>
      <trkpt lat="42.460317" lon="-8.533513">
        <ele>377.494</ele>
        <time>2018-07-20T10:12:55Z</time>
      </trkpt>
      <trkpt lat="42.460225" lon="-8.533441">
        <ele>378.857</ele>
        <time>2018-07-20T10:13:15Z</time>
      </trkpt>
      <trkpt lat="42.460049" lon="-8.533396">
        <ele>378.922</ele>
        <time>2018-07-20T10:13:35Z</time>
      </trkpt>
      <trkpt lat="42.459819" lon="-8.533354">
        <ele>381.608</ele>
        <time>2018-07-20T10:13:55Z</time>
      </trkpt>
      <trkpt lat="42.459574" lon="-8.533364">
        <ele>384.561</ele>
        <time>2018-07-20T10:14:15Z</time>
      </trkpt>
      <trkpt lat="42.459351" lon="-8.533429">
        <ele>386.275</ele>
        <time>2018-07-20T10:14:35Z</time>
      </trkpt>
      <trkpt lat="42.459148" lon="-8.533467">
        <ele>388.046</ele>
        <time>2018-07-20T10:14:55Z</time>
      </trkpt>
      <trkpt lat="42.459117" lon="-8.533480">
        <ele>388.293</ele>
        <time>2018-07-20T10:15:15Z</time>
      </trkpt>
      <trkpt lat="42.458944" lon="-8.533540">
        <ele>390.238</ele>
        <time>2018-07-20T10:15:35Z</time>
      </trkpt>
      <trkpt lat="42.458792" lon="-8.533684">
        <ele>390.868</ele>
        <time>2018-07-20T10:15:55Z</time>
      </trkpt>
      <trkpt lat="42.458613" lon="-8.533898">
        <ele>390.983</ele>
        <time>2018-07-20T10:16:15Z</time>
      </trkpt>
      <trkpt lat="42.458474" lon="-8.533969">
        <ele>393.049</ele>
        <time>2018-07-20T10:16:35Z</time>
      </trkpt>
      <trkpt lat="42.458337" lon="-8.533886">
        <ele>397.068</ele>
        <time>2018-07-20T10:16:55Z</time>
      </trkpt>
      <trkpt lat="42.458187" lon="-8.533706">
        <ele>400.242</ele>
        <time>2018-07-20T10:17:15Z</time>
      </trkpt>
      <trkpt lat="42.457996" lon="-8.533524">
        <ele>404.126</ele>
        <time>2018-07-20T10:17:35Z</time>
      </trkpt>
      <trkpt lat="42.457845" lon="-8.533410">
        <ele>407.308</ele>
        <time>2018-07-20T10:17:55Z</time>
      </trkpt>
      <trkpt lat="42.457754" lon="-8.533492">
        <ele>406.778</ele>
        <time>2018-07-20T10:18:15Z</time>
      </trkpt>
      <trkpt lat="42.457659" lon="-8.533626">
        <ele>404.842</ele>
        <time>2018-07-20T10:18:35Z</time>
      </trkpt>
      <trkpt lat="42.457600" lon="-8.533778">
        <ele>403.053</ele>
        <time>2018-07-20T10:18:55Z</time>
      </trkpt>
      <trkpt lat="42.457515" lon="-8.533868">
        <ele>402.250</ele>
        <time>2018-07-20T10:19:15Z</time>
      </trkpt>
      <trkpt lat="42.457267" lon="-8.533820">
        <ele>401.115</ele>
        <time>2018-07-20T10:19:35Z</time>
      </trkpt>
      <trkpt lat="42.457141" lon="-8.533890">
        <ele>399.755</ele>
        <time>2018-07-20T10:19:55Z</time>
      </trkpt>
      <trkpt lat="42.456992" lon="-8.534002">
        <ele>398.380</ele>
        <time>2018-07-20T10:20:15Z</time>
      </trkpt>
      <trkpt lat="42.456849" lon="-8.534172">
        <ele>397.036</ele>
        <time>2018-07-20T10:20:35Z</time>
      </trkpt>
      <trkpt lat="42.456680" lon="-8.534294">
        <ele>396.562</ele>
        <time>2018-07-20T10:20:55Z</time>
      </trkpt>
      <trkpt lat="42.456469" lon="-8.534201">
        <ele>394.783</ele>
        <time>2018-07-20T10:21:15Z</time>
      </trkpt>
      <trkpt lat="42.456420" lon="-8.534063">
        <ele>394.711</ele>
        <time>2018-07-20T10:21:35Z</time>
      </trkpt>
      <trkpt lat="42.456183" lon="-8.533801">
        <ele>394.908</ele>
        <time>2018-07-20T10:21:55Z</time>
      </trkpt>
      <trkpt lat="42.455951" lon="-8.533596">
        <ele>396.188</ele>
        <time>2018-07-20T10:22:15Z</time>
      </trkpt>
      <trkpt lat="42.455722" lon="-8.533698">
        <ele>396.662</ele>
        <time>2018-07-20T10:22:35Z</time>
      </trkpt>
      <trkpt lat="42.455536" lon="-8.533892">
        <ele>397.033</ele>
        <time>2018-07-20T10:22:55Z</time>
      </trkpt>
      <trkpt lat="42.455297" lon="-8.534057">
        <ele>395.680</ele>
        <time>2018-07-20T10:23:15Z</time>
      </trkpt>
      <trkpt lat="42.455087" lon="-8.534277">
        <ele>392.455</ele>
        <time>2018-07-20T10:23:35Z</time>
      </trkpt>
      <trkpt lat="42.454876" lon="-8.534460">
        <ele>390.755</ele>
        <time>2018-07-20T10:23:55Z</time>
      </trkpt>
      <trkpt lat="42.454671" lon="-8.534606">
        <ele>390.570</ele>
        <time>2018-07-20T10:24:15Z</time>
      </trkpt>
      <trkpt lat="42.454445" lon="-8.534812">
        <ele>388.766</ele>
        <time>2018-07-20T10:24:35Z</time>
      </trkpt>
      <trkpt lat="42.454255" lon="-8.534988">
        <ele>387.621</ele>
        <time>2018-07-20T10:24:55Z</time>
      </trkpt>
      <trkpt lat="42.453861" lon="-8.535347">
        <ele>386.641</ele>
        <time>2018-07-20T10:25:15Z</time>
      </trkpt>
      <trkpt lat="42.453401" lon="-8.535687">
        <ele>381.905</ele>
        <time>2018-07-20T10:25:35Z</time>
      </trkpt>
      <trkpt lat="42.453204" lon="-8.535678">
        <ele>380.908</ele>
        <time>2018-07-20T10:25:55Z</time>
      </trkpt>
      <trkpt lat="42.453126" lon="-8.535580">
        <ele>381.614</ele>
        <time>2018-07-20T10:26:15Z</time>
      </trkpt>
      <trkpt lat="42.453087" lon="-8.535426">
        <ele>384.728</ele>
        <time>2018-07-20T10:26:35Z</time>
      </trkpt>
      <trkpt lat="42.453011" lon="-8.535220">
        <ele>388.219</ele>
        <time>2018-07-20T10:26:55Z</time>
      </trkpt>
      <trkpt lat="42.452835" lon="-8.535065">
        <ele>387.996</ele>
        <time>2018-07-20T10:27:15Z</time>
      </trkpt>
      <trkpt lat="42.452646" lon="-8.535040">
        <ele>384.171</ele>
        <time>2018-07-20T10:27:35Z</time>
      </trkpt>
      <trkpt lat="42.452492" lon="-8.534982">
        <ele>381.131</ele>
        <time>2018-07-20T10:27:55Z</time>
      </trkpt>
      <trkpt lat="42.452373" lon="-8.534783">
        <ele>381.276</ele>
        <time>2018-07-20T10:28:15Z</time>
      </trkpt>
      <trkpt lat="42.452417" lon="-8.534470">
        <ele>383.772</ele>
        <time>2018-07-20T10:28:35Z</time>
      </trkpt>
      <trkpt lat="42.452428" lon="-8.534217">
        <ele>386.085</ele>
        <time>2018-07-20T10:28:55Z</time>
      </trkpt>
      <trkpt lat="42.452175" lon="-8.534115">
        <ele>385.589</ele>
        <time>2018-07-20T10:29:15Z</time>
      </trkpt>
      <trkpt lat="42.451909" lon="-8.534205">
        <ele>382.917</ele>
        <time>2018-07-20T10:29:35Z</time>
      </trkpt>
      <trkpt lat="42.451530" lon="-8.534349">
        <ele>383.708</ele>
        <time>2018-07-20T10:29:55Z</time>
      </trkpt>
      <trkpt lat="42.451317" lon="-8.534471">
        <ele>382.780</ele>
        <time>2018-07-20T10:30:15Z</time>
      </trkpt>
      <trkpt lat="42.451167" lon="-8.534624">
        <ele>380.454</ele>
        <time>2018-07-20T10:30:35Z</time>
      </trkpt>
      <trkpt lat="42.450958" lon="-8.534726">
        <ele>378.475</ele>
        <time>2018-07-20T10:30:55Z</time>
      </trkpt>
      <trkpt lat="42.450807" lon="-8.534686">
        <ele>378.222</ele>
        <time>2018-07-20T10:31:15Z</time>
      </trkpt>
      <trkpt lat="42.450506" lon="-8.534583">
        <ele>376.167</ele>
        <time>2018-07-20T10:31:35Z</time>
      </trkpt>
      <trkpt lat="42.450348" lon="-8.534481">
        <ele>376.297</ele>
        <time>2018-07-20T10:31:55Z</time>
      </trkpt>
      <trkpt lat="42.450235" lon="-8.534392">
        <ele>377.142</ele>
        <time>2018-07-20T10:32:15Z</time>
      </trkpt>
      <trkpt lat="42.450124" lon="-8.534560">
        <ele>375.218</ele>
        <time>2018-07-20T10:32:35Z</time>
      </trkpt>
      <trkpt lat="42.450072" lon="-8.534795">
        <ele>371.765</ele>
        <time>2018-07-20T10:32:55Z</time>
      </trkpt>
      <trkpt lat="42.449835" lon="-8.535020">
        <ele>369.468</ele>
        <time>2018-07-20T10:33:15Z</time>
      </trkpt>
      <trkpt lat="42.449705" lon="-8.535155">
        <ele>368.314</ele>
        <time>2018-07-20T10:33:35Z</time>
      </trkpt>
      <trkpt lat="42.449496" lon="-8.535268">
        <ele>366.308</ele>
        <time>2018-07-20T10:33:55Z</time>
      </trkpt>
      <trkpt lat="42.449340" lon="-8.535376">
        <ele>364.158</ele>
        <time>2018-07-20T10:34:15Z</time>
      </trkpt>
      <trkpt lat="42.449161" lon="-8.535532">
        <ele>360.412</ele>
        <time>2018-07-20T10:34:35Z</time>
      </trkpt>
      <trkpt lat="42.449004" lon="-8.535706">
        <ele>357.243</ele>
        <time>2018-07-20T10:34:55Z</time>
      </trkpt>
      <trkpt lat="42.448725" lon="-8.535799">
        <ele>355.930</ele>
        <time>2018-07-20T10:35:15Z</time>
      </trkpt>
      <trkpt lat="42.448425" lon="-8.535785">
        <ele>356.055</ele>
        <time>2018-07-20T10:35:35Z</time>
      </trkpt>
      <trkpt lat="42.448240" lon="-8.535722">
        <ele>355.265</ele>
        <time>2018-07-20T10:35:55Z</time>
      </trkpt>
      <trkpt lat="42.448172" lon="-8.535849">
        <ele>353.170</ele>
        <time>2018-07-20T10:36:15Z</time>
      </trkpt>
      <trkpt lat="42.448109" lon="-8.535919">
        <ele>351.666</ele>
        <time>2018-07-20T10:36:35Z</time>
      </trkpt>
      <trkpt lat="42.448039" lon="-8.535819">
        <ele>351.926</ele>
        <time>2018-07-20T10:36:55Z</time>
      </trkpt>
      <trkpt lat="42.447991" lon="-8.535709">
        <ele>352.647</ele>
        <time>2018-07-20T10:37:15Z</time>
      </trkpt>
      <trkpt lat="42.447872" lon="-8.535669">
        <ele>351.911</ele>
        <time>2018-07-20T10:37:35Z</time>
      </trkpt>
      <trkpt lat="42.447743" lon="-8.535718">
        <ele>350.108</ele>
        <time>2018-07-20T10:37:55Z</time>
      </trkpt>
      <trkpt lat="42.447669" lon="-8.535808">
        <ele>348.524</ele>
        <time>2018-07-20T10:38:15Z</time>
      </trkpt>
      <trkpt lat="42.447555" lon="-8.535995">
        <ele>345.368</ele>
        <time>2018-07-20T10:38:35Z</time>
      </trkpt>
      <trkpt lat="42.447435" lon="-8.536127">
        <ele>342.819</ele>
        <time>2018-07-20T10:38:55Z</time>
      </trkpt>
      <trkpt lat="42.447322" lon="-8.536331">
        <ele>339.146</ele>
        <time>2018-07-20T10:39:15Z</time>
      </trkpt>
      <trkpt lat="42.447197" lon="-8.536362">
        <ele>337.881</ele>
        <time>2018-07-20T10:39:35Z</time>
      </trkpt>
      <trkpt lat="42.447053" lon="-8.536475">
        <ele>336.961</ele>
        <time>2018-07-20T10:39:55Z</time>
      </trkpt>
      <trkpt lat="42.446926" lon="-8.536577">
        <ele>335.676</ele>
        <time>2018-07-20T10:40:15Z</time>
      </trkpt>
      <trkpt lat="42.446733" lon="-8.536694">
        <ele>333.582</ele>
        <time>2018-07-20T10:40:35Z</time>
      </trkpt>
      <trkpt lat="42.446521" lon="-8.536776">
        <ele>332.631</ele>
        <time>2018-07-20T10:40:55Z</time>
      </trkpt>
      <trkpt lat="42.446372" lon="-8.536829">
        <ele>332.161</ele>
        <time>2018-07-20T10:41:15Z</time>
      </trkpt>
      <trkpt lat="42.446287" lon="-8.536825">
        <ele>332.607</ele>
        <time>2018-07-20T10:41:35Z</time>
      </trkpt>
      <trkpt lat="42.446160" lon="-8.536702">
        <ele>334.608</ele>
        <time>2018-07-20T10:41:55Z</time>
      </trkpt>
      <trkpt lat="42.446070" lon="-8.536601">
        <ele>335.075</ele>
        <time>2018-07-20T10:42:15Z</time>
      </trkpt>
      <trkpt lat="42.445948" lon="-8.536588">
        <ele>334.869</ele>
        <time>2018-07-20T10:42:35Z</time>
      </trkpt>
      <trkpt lat="42.445829" lon="-8.536640">
        <ele>334.990</ele>
        <time>2018-07-20T10:42:55Z</time>
      </trkpt>
      <trkpt lat="42.445743" lon="-8.536657">
        <ele>335.367</ele>
        <time>2018-07-20T10:43:15Z</time>
      </trkpt>
      <trkpt lat="42.445671" lon="-8.536596">
        <ele>335.342</ele>
        <time>2018-07-20T10:43:35Z</time>
      </trkpt>
      <trkpt lat="42.445614" lon="-8.536615">
        <ele>335.632</ele>
        <time>2018-07-20T10:43:55Z</time>
      </trkpt>
      <trkpt lat="42.445620" lon="-8.536657">
        <ele>335.757</ele>
        <time>2018-07-20T10:44:15Z</time>
      </trkpt>
      <trkpt lat="42.445604" lon="-8.536711">
        <ele>335.933</ele>
        <time>2018-07-20T10:44:35Z</time>
      </trkpt>
      <trkpt lat="42.445594" lon="-8.536780">
        <ele>335.957</ele>
        <time>2018-07-20T10:44:55Z</time>
      </trkpt>
      <trkpt lat="42.445585" lon="-8.536867">
        <ele>336.000</ele>
        <time>2018-07-20T10:45:15Z</time>
      </trkpt>
      <trkpt lat="42.445620" lon="-8.536930">
        <ele>336.020</ele>
        <time>2018-07-20T10:45:35Z</time>
      </trkpt>
      <trkpt lat="42.445576" lon="-8.537074">
        <ele>334.708</ele>
        <time>2018-07-20T10:45:55Z</time>
      </trkpt>
      <trkpt lat="42.445518" lon="-8.537117">
        <ele>333.567</ele>
        <time>2018-07-20T10:46:15Z</time>
      </trkpt>
      <trkpt lat="42.445484" lon="-8.537215">
        <ele>331.841</ele>
        <time>2018-07-20T10:46:35Z</time>
      </trkpt>
      <trkpt lat="42.445410" lon="-8.537305">
        <ele>329.022</ele>
        <time>2018-07-20T10:46:55Z</time>
      </trkpt>
      <trkpt lat="42.445336" lon="-8.537286">
        <ele>328.179</ele>
        <time>2018-07-20T10:47:15Z</time>
      </trkpt>
      <trkpt lat="42.445264" lon="-8.537361">
        <ele>325.864</ele>
        <time>2018-07-20T10:47:35Z</time>
      </trkpt>
      <trkpt lat="42.445220" lon="-8.537518">
        <ele>322.924</ele>
        <time>2018-07-20T10:47:55Z</time>
      </trkpt>
      <trkpt lat="42.445193" lon="-8.537571">
        <ele>321.899</ele>
        <time>2018-07-20T10:48:15Z</time>
      </trkpt>
      <trkpt lat="42.445094" lon="-8.537425">
        <ele>322.375</ele>
        <time>2018-07-20T10:48:35Z</time>
      </trkpt>
      <trkpt lat="42.445024" lon="-8.537312">
        <ele>322.495</ele>
        <time>2018-07-20T10:48:55Z</time>
      </trkpt>
      <trkpt lat="42.444939" lon="-8.537171">
        <ele>321.949</ele>
        <time>2018-07-20T10:49:15Z</time>
      </trkpt>
      <trkpt lat="42.444832" lon="-8.537056">
        <ele>320.323</ele>
        <time>2018-07-20T10:49:35Z</time>
      </trkpt>
      <trkpt lat="42.444775" lon="-8.537015">
        <ele>319.408</ele>
        <time>2018-07-20T10:49:55Z</time>
      </trkpt>
      <trkpt lat="42.444757" lon="-8.537083">
        <ele>318.361</ele>
        <time>2018-07-20T10:50:15Z</time>
      </trkpt>
      <trkpt lat="42.444756" lon="-8.537182">
        <ele>317.345</ele>
        <time>2018-07-20T10:50:35Z</time>
      </trkpt>
      <trkpt lat="42.444656" lon="-8.537356">
        <ele>313.746</ele>
        <time>2018-07-20T10:50:55Z</time>
      </trkpt>
      <trkpt lat="42.444506" lon="-8.537419">
        <ele>311.663</ele>
        <time>2018-07-20T10:51:15Z</time>
      </trkpt>
      <trkpt lat="42.444323" lon="-8.537443">
        <ele>310.918</ele>
        <time>2018-07-20T10:51:35Z</time>
      </trkpt>
      <trkpt lat="42.444076" lon="-8.537461">
        <ele>311.798</ele>
        <time>2018-07-20T10:51:55Z</time>
      </trkpt>
      <trkpt lat="42.443947" lon="-8.537351">
        <ele>312.093</ele>
        <time>2018-07-20T10:52:15Z</time>
      </trkpt>
      <trkpt lat="42.443898" lon="-8.537217">
        <ele>310.939</ele>
        <time>2018-07-20T10:52:35Z</time>
      </trkpt>
      <trkpt lat="42.443860" lon="-8.537106">
        <ele>310.064</ele>
        <time>2018-07-20T10:52:55Z</time>
      </trkpt>
      <trkpt lat="42.443761" lon="-8.536991">
        <ele>309.406</ele>
        <time>2018-07-20T10:53:15Z</time>
      </trkpt>
      <trkpt lat="42.443595" lon="-8.536829">
        <ele>309.016</ele>
        <time>2018-07-20T10:53:35Z</time>
      </trkpt>
      <trkpt lat="42.443483" lon="-8.536700">
        <ele>309.208</ele>
        <time>2018-07-20T10:53:55Z</time>
      </trkpt>
      <trkpt lat="42.443371" lon="-8.536646">
        <ele>310.378</ele>
        <time>2018-07-20T10:54:15Z</time>
      </trkpt>
      <trkpt lat="42.443271" lon="-8.536629">
        <ele>311.592</ele>
        <time>2018-07-20T10:54:35Z</time>
      </trkpt>
      <trkpt lat="42.443172" lon="-8.536642">
        <ele>313.063</ele>
        <time>2018-07-20T10:54:55Z</time>
      </trkpt>
      <trkpt lat="42.443121" lon="-8.536662">
        <ele>314.060</ele>
        <time>2018-07-20T10:55:15Z</time>
      </trkpt>
      <trkpt lat="42.443089" lon="-8.536715">
        <ele>315.235</ele>
        <time>2018-07-20T10:55:35Z</time>
      </trkpt>
      <trkpt lat="42.442997" lon="-8.536715">
        <ele>316.525</ele>
        <time>2018-07-20T10:55:55Z</time>
      </trkpt>
      <trkpt lat="42.442901" lon="-8.536729">
        <ele>318.030</ele>
        <time>2018-07-20T10:56:15Z</time>
      </trkpt>
      <trkpt lat="42.442820" lon="-8.536746">
        <ele>319.366</ele>
        <time>2018-07-20T10:56:35Z</time>
      </trkpt>
      <trkpt lat="42.442779" lon="-8.536812">
        <ele>320.617</ele>
        <time>2018-07-20T10:56:55Z</time>
      </trkpt>
      <trkpt lat="42.442686" lon="-8.536872">
        <ele>321.787</ele>
        <time>2018-07-20T10:57:15Z</time>
      </trkpt>
      <trkpt lat="42.442593" lon="-8.536947">
        <ele>322.615</ele>
        <time>2018-07-20T10:57:35Z</time>
      </trkpt>
      <trkpt lat="42.442563" lon="-8.537035">
        <ele>321.608</ele>
        <time>2018-07-20T10:57:55Z</time>
      </trkpt>
      <trkpt lat="42.442483" lon="-8.537040">
        <ele>321.633</ele>
        <time>2018-07-20T10:58:15Z</time>
      </trkpt>
      <trkpt lat="42.442411" lon="-8.537029">
        <ele>321.937</ele>
        <time>2018-07-20T10:58:35Z</time>
      </trkpt>
      <trkpt lat="42.442380" lon="-8.536959">
        <ele>323.228</ele>
        <time>2018-07-20T10:58:55Z</time>
      </trkpt>
      <trkpt lat="42.442306" lon="-8.536905">
        <ele>323.965</ele>
        <time>2018-07-20T10:59:15Z</time>
      </trkpt>
      <trkpt lat="42.442262" lon="-8.536900">
        <ele>324.170</ele>
        <time>2018-07-20T10:59:35Z</time>
      </trkpt>
      <trkpt lat="42.442226" lon="-8.536917">
        <ele>324.240</ele>
        <time>2018-07-20T10:59:55Z</time>
      </trkpt>
      <trkpt lat="42.442180" lon="-8.536949">
        <ele>323.315</ele>
        <time>2018-07-20T11:00:15Z</time>
      </trkpt>
      <trkpt lat="42.442112" lon="-8.536977">
        <ele>321.741</ele>
        <time>2018-07-20T11:00:35Z</time>
      </trkpt>
      <trkpt lat="42.442024" lon="-8.536972">
        <ele>320.518</ele>
        <time>2018-07-20T11:00:55Z</time>
      </trkpt>
      <trkpt lat="42.441953" lon="-8.536976">
        <ele>319.398</ele>
        <time>2018-07-20T11:01:15Z</time>
      </trkpt>
      <trkpt lat="42.441907" lon="-8.536991">
        <ele>318.317</ele>
        <time>2018-07-20T11:01:35Z</time>
      </trkpt>
      <trkpt lat="42.441844" lon="-8.536989">
        <ele>317.508</ele>
        <time>2018-07-20T11:01:55Z</time>
      </trkpt>
      <trkpt lat="42.441779" lon="-8.537049">
        <ele>315.223</ele>
        <time>2018-07-20T11:02:15Z</time>
      </trkpt>
      <trkpt lat="42.441706" lon="-8.537110">
        <ele>312.967</ele>
        <time>2018-07-20T11:02:35Z</time>
      </trkpt>
      <trkpt lat="42.441594" lon="-8.537174">
        <ele>311.288</ele>
        <time>2018-07-20T11:02:55Z</time>
      </trkpt>
      <trkpt lat="42.441516" lon="-8.537227">
        <ele>310.485</ele>
        <time>2018-07-20T11:03:15Z</time>
      </trkpt>
      <trkpt lat="42.441433" lon="-8.537235">
        <ele>310.520</ele>
        <time>2018-07-20T11:03:35Z</time>
      </trkpt>
      <trkpt lat="42.441318" lon="-8.537195">
        <ele>311.110</ele>
        <time>2018-07-20T11:03:55Z</time>
      </trkpt>
      <trkpt lat="42.441223" lon="-8.537110">
        <ele>311.545</ele>
        <time>2018-07-20T11:04:15Z</time>
      </trkpt>
      <trkpt lat="42.441086" lon="-8.536956">
        <ele>311.681</ele>
        <time>2018-07-20T11:04:35Z</time>
      </trkpt>
      <trkpt lat="42.440993" lon="-8.536809">
        <ele>311.789</ele>
        <time>2018-07-20T11:04:55Z</time>
      </trkpt>
      <trkpt lat="42.440912" lon="-8.536648">
        <ele>312.006</ele>
        <time>2018-07-20T11:05:15Z</time>
      </trkpt>
      <trkpt lat="42.440823" lon="-8.536480">
        <ele>312.226</ele>
        <time>2018-07-20T11:05:35Z</time>
      </trkpt>
      <trkpt lat="42.440754" lon="-8.536406">
        <ele>311.408</ele>
        <time>2018-07-20T11:05:55Z</time>
      </trkpt>
      <trkpt lat="42.440662" lon="-8.536378">
        <ele>310.190</ele>
        <time>2018-07-20T11:06:15Z</time>
      </trkpt>
      <trkpt lat="42.440470" lon="-8.536319">
        <ele>308.144</ele>
        <time>2018-07-20T11:06:35Z</time>
      </trkpt>
      <trkpt lat="42.440378" lon="-8.536267">
        <ele>308.335</ele>
        <time>2018-07-20T11:06:55Z</time>
      </trkpt>
      <trkpt lat="42.440225" lon="-8.536203">
        <ele>309.472</ele>
        <time>2018-07-20T11:07:15Z</time>
      </trkpt>
      <trkpt lat="42.440095" lon="-8.536171">
        <ele>310.457</ele>
        <time>2018-07-20T11:07:35Z</time>
      </trkpt>
      <trkpt lat="42.439964" lon="-8.536193">
        <ele>310.577</ele>
        <time>2018-07-20T11:07:55Z</time>
      </trkpt>
      <trkpt lat="42.439862" lon="-8.536247">
        <ele>310.872</ele>
        <time>2018-07-20T11:08:15Z</time>
      </trkpt>
      <trkpt lat="42.439687" lon="-8.536338">
        <ele>311.338</ele>
        <time>2018-07-20T11:08:35Z</time>
      </trkpt>
      <trkpt lat="42.439572" lon="-8.536444">
        <ele>311.583</ele>
        <time>2018-07-20T11:08:55Z</time>
      </trkpt>
      <trkpt lat="42.439421" lon="-8.536499">
        <ele>313.525</ele>
        <time>2018-07-20T11:09:15Z</time>
      </trkpt>
      <trkpt lat="42.439369" lon="-8.536577">
        <ele>312.417</ele>
        <time>2018-07-20T11:09:35Z</time>
      </trkpt>
      <trkpt lat="42.439316" lon="-8.536714">
        <ele>310.508</ele>
        <time>2018-07-20T11:09:55Z</time>
      </trkpt>
      <trkpt lat="42.439230" lon="-8.536877">
        <ele>309.180</ele>
        <time>2018-07-20T11:10:15Z</time>
      </trkpt>
      <trkpt lat="42.439213" lon="-8.536986">
        <ele>307.624</ele>
        <time>2018-07-20T11:10:35Z</time>
      </trkpt>
      <trkpt lat="42.439071" lon="-8.537292">
        <ele>306.285</ele>
        <time>2018-07-20T11:10:55Z</time>
      </trkpt>
      <trkpt lat="42.438971" lon="-8.537589">
        <ele>303.462</ele>
        <time>2018-07-20T11:11:15Z</time>
      </trkpt>
      <trkpt lat="42.438823" lon="-8.537813">
        <ele>302.367</ele>
        <time>2018-07-20T11:11:35Z</time>
      </trkpt>
      <trkpt lat="42.438650" lon="-8.537815">
        <ele>303.657</ele>
        <time>2018-07-20T11:11:55Z</time>
      </trkpt>
      <trkpt lat="42.438637" lon="-8.537814">
        <ele>303.772</ele>
        <time>2018-07-20T11:12:15Z</time>
      </trkpt>
      <trkpt lat="42.438443" lon="-8.537795">
        <ele>305.148</ele>
        <time>2018-07-20T11:12:35Z</time>
      </trkpt>
      <trkpt lat="42.438290" lon="-8.537681">
        <ele>307.242</ele>
        <time>2018-07-20T11:12:55Z</time>
      </trkpt>
      <trkpt lat="42.438270" lon="-8.537670">
        <ele>307.222</ele>
        <time>2018-07-20T11:13:15Z</time>
      </trkpt>
      <trkpt lat="42.438115" lon="-8.537555">
        <ele>307.814</ele>
        <time>2018-07-20T11:13:35Z</time>
      </trkpt>
      <trkpt lat="42.437909" lon="-8.537449">
        <ele>307.908</ele>
        <time>2018-07-20T11:13:55Z</time>
      </trkpt>
      <trkpt lat="42.437738" lon="-8.537429">
        <ele>307.236</ele>
        <time>2018-07-20T11:14:15Z</time>
      </trkpt>
      <trkpt lat="42.437583" lon="-8.537364">
        <ele>307.540</ele>
        <time>2018-07-20T11:14:35Z</time>
      </trkpt>
      <trkpt lat="42.437442" lon="-8.537308">
        <ele>307.381</ele>
        <time>2018-07-20T11:14:55Z</time>
      </trkpt>
      <trkpt lat="42.437243" lon="-8.537166">
        <ele>306.978</ele>
        <time>2018-07-20T11:15:15Z</time>
      </trkpt>
      <trkpt lat="42.437009" lon="-8.537015">
        <ele>307.763</ele>
        <time>2018-07-20T11:15:35Z</time>
      </trkpt>
      <trkpt lat="42.436719" lon="-8.536974">
        <ele>307.343</ele>
        <time>2018-07-20T11:15:55Z</time>
      </trkpt>
      <trkpt lat="42.436450" lon="-8.537008">
        <ele>306.238</ele>
        <time>2018-07-20T11:16:15Z</time>
      </trkpt>
      <trkpt lat="42.436445" lon="-8.537008">
        <ele>306.284</ele>
        <time>2018-07-20T11:16:35Z</time>
      </trkpt>
      <trkpt lat="42.436225" lon="-8.537013">
        <ele>306.646</ele>
        <time>2018-07-20T11:16:55Z</time>
      </trkpt>
      <trkpt lat="42.436209" lon="-8.537015">
        <ele>306.688</ele>
        <time>2018-07-20T11:17:15Z</time>
      </trkpt>
      <trkpt lat="42.436040" lon="-8.537043">
        <ele>305.616</ele>
        <time>2018-07-20T11:17:35Z</time>
      </trkpt>
      <trkpt lat="42.435887" lon="-8.537005">
        <ele>305.508</ele>
        <time>2018-07-20T11:17:55Z</time>
      </trkpt>
      <trkpt lat="42.435550" lon="-8.536813">
        <ele>305.896</ele>
        <time>2018-07-20T11:18:15Z</time>
      </trkpt>
      <trkpt lat="42.435286" lon="-8.536645">
        <ele>305.430</ele>
        <time>2018-07-20T11:18:35Z</time>
      </trkpt>
      <trkpt lat="42.434971" lon="-8.536504">
        <ele>304.571</ele>
        <time>2018-07-20T11:18:55Z</time>
      </trkpt>
      <trkpt lat="42.434960" lon="-8.536502">
        <ele>304.568</ele>
        <time>2018-07-20T11:19:15Z</time>
      </trkpt>
      <trkpt lat="42.434946" lon="-8.536496">
        <ele>304.453</ele>
        <time>2018-07-20T11:19:35Z</time>
      </trkpt>
      <trkpt lat="42.434814" lon="-8.536333">
        <ele>304.273</ele>
        <time>2018-07-20T11:19:55Z</time>
      </trkpt>
      <trkpt lat="42.434891" lon="-8.536312">
        <ele>305.338</ele>
        <time>2018-07-20T11:20:15Z</time>
      </trkpt>
      <trkpt lat="42.435069" lon="-8.536314">
        <ele>307.654</ele>
        <time>2018-07-20T11:20:35Z</time>
      </trkpt>
      <trkpt lat="42.435078" lon="-8.536316">
        <ele>307.751</ele>
        <time>2018-07-20T11:20:55Z</time>
      </trkpt>
      <trkpt lat="42.435353" lon="-8.536277">
        <ele>311.701</ele>
        <time>2018-07-20T11:21:15Z</time>
      </trkpt>
      <trkpt lat="42.435403" lon="-8.536154">
        <ele>314.211</ele>
        <time>2018-07-20T11:21:35Z</time>
      </trkpt>
      <trkpt lat="42.435357" lon="-8.535959">
        <ele>315.808</ele>
        <time>2018-07-20T11:21:55Z</time>
      </trkpt>
      <trkpt lat="42.435309" lon="-8.535801">
        <ele>316.777</ele>
        <time>2018-07-20T11:22:15Z</time>
      </trkpt>
      <trkpt lat="42.435379" lon="-8.535514">
        <ele>319.691</ele>
        <time>2018-07-20T11:22:35Z</time>
      </trkpt>
      <trkpt lat="42.435625" lon="-8.535310">
        <ele>322.332</ele>
        <time>2018-07-20T11:22:55Z</time>
      </trkpt>
      <trkpt lat="42.435755" lon="-8.535126">
        <ele>323.069</ele>
        <time>2018-07-20T11:23:15Z</time>
      </trkpt>
      <trkpt lat="42.435712" lon="-8.534935">
        <ele>324.074</ele>
        <time>2018-07-20T11:23:35Z</time>
      </trkpt>
      <trkpt lat="42.435597" lon="-8.534699">
        <ele>326.434</ele>
        <time>2018-07-20T11:23:55Z</time>
      </trkpt>
      <trkpt lat="42.435335" lon="-8.534421">
        <ele>332.379</ele>
        <time>2018-07-20T11:24:15Z</time>
      </trkpt>
      <trkpt lat="42.435031" lon="-8.534113">
        <ele>336.125</ele>
        <time>2018-07-20T11:24:35Z</time>
      </trkpt>
      <trkpt lat="42.434785" lon="-8.533852">
        <ele>335.727</ele>
        <time>2018-07-20T11:24:55Z</time>
      </trkpt>
      <trkpt lat="42.434634" lon="-8.533618">
        <ele>337.368</ele>
        <time>2018-07-20T11:25:15Z</time>
      </trkpt>
      <trkpt lat="42.434442" lon="-8.533450">
        <ele>338.014</ele>
        <time>2018-07-20T11:25:35Z</time>
      </trkpt>
      <trkpt lat="42.434276" lon="-8.533230">
        <ele>340.808</ele>
        <time>2018-07-20T11:25:55Z</time>
      </trkpt>
      <trkpt lat="42.434120" lon="-8.532980">
        <ele>343.554</ele>
        <time>2018-07-20T11:26:15Z</time>
      </trkpt>
      <trkpt lat="42.434003" lon="-8.532708">
        <ele>346.238</ele>
        <time>2018-07-20T11:26:35Z</time>
      </trkpt>
      <trkpt lat="42.433884" lon="-8.532474">
        <ele>348.249</ele>
        <time>2018-07-20T11:26:55Z</time>
      </trkpt>
      <trkpt lat="42.433791" lon="-8.532263">
        <ele>348.596</ele>
        <time>2018-07-20T11:27:15Z</time>
      </trkpt>
      <trkpt lat="42.433651" lon="-8.531989">
        <ele>346.671</ele>
        <time>2018-07-20T11:27:35Z</time>
      </trkpt>
      <trkpt lat="42.433651" lon="-8.531968">
        <ele>346.621</ele>
        <time>2018-07-20T11:27:55Z</time>
      </trkpt>
      <trkpt lat="42.433513" lon="-8.531655">
        <ele>344.676</ele>
        <time>2018-07-20T11:28:15Z</time>
      </trkpt>
      <trkpt lat="42.433210" lon="-8.531536">
        <ele>341.622</ele>
        <time>2018-07-20T11:28:35Z</time>
      </trkpt>
      <trkpt lat="42.432885" lon="-8.531342">
        <ele>341.128</ele>
        <time>2018-07-20T11:28:55Z</time>
      </trkpt>
      <trkpt lat="42.432634" lon="-8.531088">
        <ele>341.689</ele>
        <time>2018-07-20T11:29:15Z</time>
      </trkpt>
      <trkpt lat="42.432499" lon="-8.531039">
        <ele>342.317</ele>
        <time>2018-07-20T11:29:35Z</time>
      </trkpt>
      <trkpt lat="42.432444" lon="-8.531134">
        <ele>342.108</ele>
        <time>2018-07-20T11:29:55Z</time>
      </trkpt>
      <trkpt lat="42.432385" lon="-8.531429">
        <ele>340.934</ele>
        <time>2018-07-20T11:30:15Z</time>
      </trkpt>
      <trkpt lat="42.432409" lon="-8.531625">
        <ele>340.198</ele>
        <time>2018-07-20T11:30:35Z</time>
      </trkpt>
      <trkpt lat="42.432528" lon="-8.531929">
        <ele>338.939</ele>
        <time>2018-07-20T11:30:55Z</time>
      </trkpt>
      <trkpt lat="42.432586" lon="-8.532147">
        <ele>338.286</ele>
        <time>2018-07-20T11:31:15Z</time>
      </trkpt>
      <trkpt lat="42.432569" lon="-8.532206">
        <ele>338.331</ele>
        <time>2018-07-20T11:31:35Z</time>
      </trkpt>
      <trkpt lat="42.432397" lon="-8.532101">
        <ele>339.891</ele>
        <time>2018-07-20T11:31:55Z</time>
      </trkpt>
      <trkpt lat="42.432385" lon="-8.532100">
        <ele>339.926</ele>
        <time>2018-07-20T11:32:15Z</time>
      </trkpt>
      <trkpt lat="42.432173" lon="-8.532063">
        <ele>341.282</ele>
        <time>2018-07-20T11:32:35Z</time>
      </trkpt>
      <trkpt lat="42.431990" lon="-8.532098">
        <ele>342.895</ele>
        <time>2018-07-20T11:32:55Z</time>
      </trkpt>
      <trkpt lat="42.431681" lon="-8.532228">
        <ele>345.949</ele>
        <time>2018-07-20T11:33:15Z</time>
      </trkpt>
      <trkpt lat="42.431477" lon="-8.532399">
        <ele>346.923</ele>
        <time>2018-07-20T11:33:35Z</time>
      </trkpt>
      <trkpt lat="42.431325" lon="-8.532563">
        <ele>347.408</ele>
        <time>2018-07-20T11:33:55Z</time>
      </trkpt>
      <trkpt lat="42.431195" lon="-8.532636">
        <ele>347.851</ele>
        <time>2018-07-20T11:34:15Z</time>
      </trkpt>
      <trkpt lat="42.431070" lon="-8.532660">
        <ele>348.175</ele>
        <time>2018-07-20T11:34:35Z</time>
      </trkpt>
      <trkpt lat="42.430960" lon="-8.532734">
        <ele>348.556</ele>
        <time>2018-07-20T11:34:55Z</time>
      </trkpt>
      <trkpt lat="42.430782" lon="-8.532876">
        <ele>350.073</ele>
        <time>2018-07-20T11:35:15Z</time>
      </trkpt>
      <trkpt lat="42.430581" lon="-8.533082">
        <ele>352.258</ele>
        <time>2018-07-20T11:35:35Z</time>
      </trkpt>
      <trkpt lat="42.430424" lon="-8.533227">
        <ele>355.618</ele>
        <time>2018-07-20T11:35:55Z</time>
      </trkpt>
      <trkpt lat="42.430272" lon="-8.533347">
        <ele>359.173</ele>
        <time>2018-07-20T11:36:15Z</time>
      </trkpt>
      <trkpt lat="42.430184" lon="-8.533458">
        <ele>360.959</ele>
        <time>2018-07-20T11:36:35Z</time>
      </trkpt>
      <trkpt lat="42.430096" lon="-8.533589">
        <ele>363.437</ele>
        <time>2018-07-20T11:36:55Z</time>
      </trkpt>
      <trkpt lat="42.430023" lon="-8.533662">
        <ele>365.149</ele>
        <time>2018-07-20T11:37:15Z</time>
      </trkpt>
      <trkpt lat="42.429958" lon="-8.533713">
        <ele>366.513</ele>
        <time>2018-07-20T11:37:35Z</time>
      </trkpt>
      <trkpt lat="42.429829" lon="-8.533697">
        <ele>368.408</ele>
        <time>2018-07-20T11:37:55Z</time>
      </trkpt>
      <trkpt lat="42.429655" lon="-8.533677">
        <ele>370.695</ele>
        <time>2018-07-20T11:38:15Z</time>
      </trkpt>
      <trkpt lat="42.429529" lon="-8.533738">
        <ele>373.729</ele>
        <time>2018-07-20T11:38:35Z</time>
      </trkpt>
      <trkpt lat="42.429461" lon="-8.533749">
        <ele>374.830</ele>
        <time>2018-07-20T11:38:55Z</time>
      </trkpt>
      <trkpt lat="42.429161" lon="-8.533796">
        <ele>377.397</ele>
        <time>2018-07-20T11:39:15Z</time>
      </trkpt>
      <trkpt lat="42.429022" lon="-8.533822">
        <ele>378.262</ele>
        <time>2018-07-20T11:39:35Z</time>
      </trkpt>
      <trkpt lat="42.428791" lon="-8.533862">
        <ele>379.512</ele>
        <time>2018-07-20T11:39:55Z</time>
      </trkpt>
      <trkpt lat="42.428596" lon="-8.533900">
        <ele>381.467</ele>
        <time>2018-07-20T11:40:15Z</time>
      </trkpt>
      <trkpt lat="42.428467" lon="-8.533887">
        <ele>383.133</ele>
        <time>2018-07-20T11:40:35Z</time>
      </trkpt>
      <trkpt lat="42.428332" lon="-8.533843">
        <ele>384.716</ele>
        <time>2018-07-20T11:40:55Z</time>
      </trkpt>
      <trkpt lat="42.428196" lon="-8.533757">
        <ele>386.576</ele>
        <time>2018-07-20T11:41:15Z</time>
      </trkpt>
      <trkpt lat="42.428106" lon="-8.533681">
        <ele>387.613</ele>
        <time>2018-07-20T11:41:35Z</time>
      </trkpt>
      <trkpt lat="42.428106" lon="-8.533675">
        <ele>387.608</ele>
        <time>2018-07-20T11:41:55Z</time>
      </trkpt>
      <trkpt lat="42.428025" lon="-8.533607">
        <ele>388.773</ele>
        <time>2018-07-20T11:42:15Z</time>
      </trkpt>
      <trkpt lat="42.427955" lon="-8.533582">
        <ele>390.467</ele>
        <time>2018-07-20T11:42:35Z</time>
      </trkpt>
      <trkpt lat="42.427810" lon="-8.533694">
        <ele>394.868</ele>
        <time>2018-07-20T11:42:55Z</time>
      </trkpt>
      <trkpt lat="42.427723" lon="-8.533779">
        <ele>397.065</ele>
        <time>2018-07-20T11:43:15Z</time>
      </trkpt>
      <trkpt lat="42.427577" lon="-8.533883">
        <ele>399.840</ele>
        <time>2018-07-20T11:43:35Z</time>
      </trkpt>
      <trkpt lat="42.427503" lon="-8.533965">
        <ele>401.530</ele>
        <time>2018-07-20T11:43:55Z</time>
      </trkpt>
      <trkpt lat="42.427370" lon="-8.534068">
        <ele>404.295</ele>
        <time>2018-07-20T11:44:15Z</time>
      </trkpt>
      <trkpt lat="42.427266" lon="-8.534115">
        <ele>406.081</ele>
        <time>2018-07-20T11:44:35Z</time>
      </trkpt>
      <trkpt lat="42.427148" lon="-8.534185">
        <ele>408.167</ele>
        <time>2018-07-20T11:44:55Z</time>
      </trkpt>
      <trkpt lat="42.427063" lon="-8.534271">
        <ele>409.581</ele>
        <time>2018-07-20T11:45:15Z</time>
      </trkpt>
      <trkpt lat="42.426981" lon="-8.534314">
        <ele>410.519</ele>
        <time>2018-07-20T11:45:35Z</time>
      </trkpt>
      <trkpt lat="42.426900" lon="-8.534353">
        <ele>411.408</ele>
        <time>2018-07-20T11:45:55Z</time>
      </trkpt>
      <trkpt lat="42.426827" lon="-8.534398">
        <ele>412.288</ele>
        <time>2018-07-20T11:46:15Z</time>
      </trkpt>
      <trkpt lat="42.426737" lon="-8.534365">
        <ele>413.042</ele>
        <time>2018-07-20T11:46:35Z</time>
      </trkpt>
      <trkpt lat="42.426704" lon="-8.534302">
        <ele>413.283</ele>
        <time>2018-07-20T11:46:55Z</time>
      </trkpt>
      <trkpt lat="42.426671" lon="-8.534157">
        <ele>413.010</ele>
        <time>2018-07-20T11:47:15Z</time>
      </trkpt>
      <trkpt lat="42.426671" lon="-8.534084">
        <ele>413.075</ele>
        <time>2018-07-20T11:47:35Z</time>
      </trkpt>
      <trkpt lat="42.426661" lon="-8.533953">
        <ele>413.145</ele>
        <time>2018-07-20T11:47:55Z</time>
      </trkpt>
      <trkpt lat="42.426643" lon="-8.533852">
        <ele>413.520</ele>
        <time>2018-07-20T11:48:15Z</time>
      </trkpt>
      <trkpt lat="42.426571" lon="-8.533795">
        <ele>414.916</ele>
        <time>2018-07-20T11:48:35Z</time>
      </trkpt>
      <trkpt lat="42.426532" lon="-8.533782">
        <ele>415.711</ele>
        <time>2018-07-20T11:48:55Z</time>
      </trkpt>
      <trkpt lat="42.426517" lon="-8.533702">
        <ele>415.921</ele>
        <time>2018-07-20T11:49:15Z</time>
      </trkpt>
      <trkpt lat="42.426477" lon="-8.533569">
        <ele>416.203</ele>
        <time>2018-07-20T11:49:35Z</time>
      </trkpt>
      <trkpt lat="42.426412" lon="-8.533471">
        <ele>416.708</ele>
        <time>2018-07-20T11:49:55Z</time>
      </trkpt>
      <trkpt lat="42.426314" lon="-8.533373">
        <ele>418.213</ele>
        <time>2018-07-20T11:50:15Z</time>
      </trkpt>
      <trkpt lat="42.426211" lon="-8.533247">
        <ele>419.537</ele>
        <time>2018-07-20T11:50:35Z</time>
      </trkpt>
      <trkpt lat="42.426119" lon="-8.533100">
        <ele>419.558</ele>
        <time>2018-07-20T11:50:55Z</time>
      </trkpt>
      <trkpt lat="42.426095" lon="-8.532965">
        <ele>419.085</ele>
        <time>2018-07-20T11:51:15Z</time>
      </trkpt>
      <trkpt lat="42.426048" lon="-8.532811">
        <ele>418.980</ele>
        <time>2018-07-20T11:51:35Z</time>
      </trkpt>
      <trkpt lat="42.426036" lon="-8.532593">
        <ele>418.080</ele>
        <time>2018-07-20T11:51:55Z</time>
      </trkpt>
      <trkpt lat="42.425990" lon="-8.532408">
        <ele>417.975</ele>
        <time>2018-07-20T11:52:15Z</time>
      </trkpt>
      <trkpt lat="42.425966" lon="-8.532282">
        <ele>418.061</ele>
        <time>2018-07-20T11:52:35Z</time>
      </trkpt>
      <trkpt lat="42.425958" lon="-8.532110">
        <ele>417.651</ele>
        <time>2018-07-20T11:52:55Z</time>
      </trkpt>
      <trkpt lat="42.425923" lon="-8.531939">
        <ele>417.401</ele>
        <time>2018-07-20T11:53:15Z</time>
      </trkpt>
      <trkpt lat="42.425847" lon="-8.531730">
        <ele>418.711</ele>
        <time>2018-07-20T11:53:35Z</time>
      </trkpt>
      <trkpt lat="42.425769" lon="-8.531527">
        <ele>420.008</ele>
        <time>2018-07-20T11:53:55Z</time>
      </trkpt>
      <trkpt lat="42.425655" lon="-8.531350">
        <ele>421.677</ele>
        <time>2018-07-20T11:54:15Z</time>
      </trkpt>
      <trkpt lat="42.425529" lon="-8.531193">
        <ele>423.141</ele>
        <time>2018-07-20T11:54:35Z</time>
      </trkpt>
      <trkpt lat="42.425437" lon="-8.531075">
        <ele>424.082</ele>
        <time>2018-07-20T11:54:55Z</time>
      </trkpt>
      <trkpt lat="42.425319" lon="-8.530856">
        <ele>425.389</ele>
        <time>2018-07-20T11:55:15Z</time>
      </trkpt>
      <trkpt lat="42.425256" lon="-8.530667">
        <ele>426.864</ele>
        <time>2018-07-20T11:55:35Z</time>
      </trkpt>
      <trkpt lat="42.425226" lon="-8.530462">
        <ele>427.434</ele>
        <time>2018-07-20T11:55:55Z</time>
      </trkpt>
      <trkpt lat="42.425201" lon="-8.530329">
        <ele>427.629</ele>
        <time>2018-07-20T11:56:15Z</time>
      </trkpt>
      <trkpt lat="42.425231" lon="-8.530197">
        <ele>427.645</ele>
        <time>2018-07-20T11:56:35Z</time>
      </trkpt>
      <trkpt lat="42.425312" lon="-8.530112">
        <ele>426.792</ele>
        <time>2018-07-20T11:56:55Z</time>
      </trkpt>
      <trkpt lat="42.425411" lon="-8.530084">
        <ele>424.073</ele>
        <time>2018-07-20T11:57:15Z</time>
      </trkpt>
      <trkpt lat="42.425425" lon="-8.530086">
        <ele>423.620</ele>
        <time>2018-07-20T11:57:35Z</time>
      </trkpt>
      <trkpt lat="42.425553" lon="-8.530073">
        <ele>420.108</ele>
        <time>2018-07-20T11:57:55Z</time>
      </trkpt>
      <trkpt lat="42.425813" lon="-8.530049">
        <ele>416.061</ele>
        <time>2018-07-20T11:58:15Z</time>
      </trkpt>
      <trkpt lat="42.426066" lon="-8.530006">
        <ele>416.075</ele>
        <time>2018-07-20T11:58:35Z</time>
      </trkpt>
      <trkpt lat="42.426072" lon="-8.530003">
        <ele>416.076</ele>
        <time>2018-07-20T11:58:55Z</time>
      </trkpt>
      <trkpt lat="42.426300" lon="-8.529979">
        <ele>415.593</ele>
        <time>2018-07-20T11:59:15Z</time>
      </trkpt>
      <trkpt lat="42.426527" lon="-8.529865">
        <ele>415.728</ele>
        <time>2018-07-20T11:59:35Z</time>
      </trkpt>
      <trkpt lat="42.426626" lon="-8.529702">
        <ele>415.368</ele>
        <time>2018-07-20T11:59:55Z</time>
      </trkpt>
      <trkpt lat="42.426653" lon="-8.529529">
        <ele>415.283</ele>
        <time>2018-07-20T12:00:15Z</time>
      </trkpt>
      <trkpt lat="42.426576" lon="-8.529391">
        <ele>417.089</ele>
        <time>2018-07-20T12:00:35Z</time>
      </trkpt>
      <trkpt lat="42.426543" lon="-8.529193">
        <ele>418.661</ele>
        <time>2018-07-20T12:00:55Z</time>
      </trkpt>
      <trkpt lat="42.426463" lon="-8.528900">
        <ele>420.921</ele>
        <time>2018-07-20T12:01:15Z</time>
      </trkpt>
      <trkpt lat="42.426383" lon="-8.528606">
        <ele>422.113</ele>
        <time>2018-07-20T12:01:35Z</time>
      </trkpt>
      <trkpt lat="42.426304" lon="-8.528432">
        <ele>422.808</ele>
        <time>2018-07-20T12:01:55Z</time>
      </trkpt>
      <trkpt lat="42.426367" lon="-8.528243">
        <ele>422.038</ele>
        <time>2018-07-20T12:02:15Z</time>
      </trkpt>
      <trkpt lat="42.426532" lon="-8.528093">
        <ele>420.292</ele>
        <time>2018-07-20T12:02:35Z</time>
      </trkpt>
      <trkpt lat="42.426677" lon="-8.527921">
        <ele>418.893</ele>
        <time>2018-07-20T12:02:55Z</time>
      </trkpt>
      <trkpt lat="42.426701" lon="-8.527590">
        <ele>418.720</ele>
        <time>2018-07-20T12:03:15Z</time>
      </trkpt>
      <trkpt lat="42.426627" lon="-8.527311">
        <ele>420.055</ele>
        <time>2018-07-20T12:03:35Z</time>
      </trkpt>
      <trkpt lat="42.426519" lon="-8.527179">
        <ele>422.765</ele>
        <time>2018-07-20T12:03:55Z</time>
      </trkpt>
      <trkpt lat="42.426489" lon="-8.526914">
        <ele>423.020</ele>
        <time>2018-07-20T12:04:15Z</time>
      </trkpt>
      <trkpt lat="42.426383" lon="-8.526683">
        <ele>423.236</ele>
        <time>2018-07-20T12:04:35Z</time>
      </trkpt>
      <trkpt lat="42.426287" lon="-8.526481">
        <ele>424.024</ele>
        <time>2018-07-20T12:04:55Z</time>
      </trkpt>
      <trkpt lat="42.426134" lon="-8.526212">
        <ele>424.404</ele>
        <time>2018-07-20T12:05:15Z</time>
      </trkpt>
      <trkpt lat="42.425929" lon="-8.525963">
        <ele>426.414</ele>
        <time>2018-07-20T12:05:35Z</time>
      </trkpt>
      <trkpt lat="42.425808" lon="-8.525724">
        <ele>427.008</ele>
        <time>2018-07-20T12:05:55Z</time>
      </trkpt>
      <trkpt lat="42.425715" lon="-8.525545">
        <ele>427.774</ele>
        <time>2018-07-20T12:06:15Z</time>
      </trkpt>
      <trkpt lat="42.425639" lon="-8.525388">
        <ele>428.878</ele>
        <time>2018-07-20T12:06:35Z</time>
      </trkpt>
      <trkpt lat="42.425604" lon="-8.525245">
        <ele>429.419</ele>
        <time>2018-07-20T12:06:55Z</time>
      </trkpt>
      <trkpt lat="42.425536" lon="-8.524954">
        <ele>431.446</ele>
        <time>2018-07-20T12:07:15Z</time>
      </trkpt>
      <trkpt lat="42.425503" lon="-8.524710">
        <ele>433.551</ele>
        <time>2018-07-20T12:07:35Z</time>
      </trkpt>
      <trkpt lat="42.425413" lon="-8.524562">
        <ele>435.861</ele>
        <time>2018-07-20T12:07:55Z</time>
      </trkpt>
      <trkpt lat="42.425232" lon="-8.524313">
        <ele>438.996</ele>
        <time>2018-07-20T12:08:15Z</time>
      </trkpt>
      <trkpt lat="42.425051" lon="-8.524178">
        <ele>442.932</ele>
        <time>2018-07-20T12:08:35Z</time>
      </trkpt>
      <trkpt lat="42.424803" lon="-8.523952">
        <ele>443.649</ele>
        <time>2018-07-20T12:08:55Z</time>
      </trkpt>
      <trkpt lat="42.424632" lon="-8.523850">
        <ele>443.402</ele>
        <time>2018-07-20T12:09:15Z</time>
      </trkpt>
      <trkpt lat="42.424491" lon="-8.523737">
        <ele>441.822</ele>
        <time>2018-07-20T12:09:35Z</time>
      </trkpt>
      <trkpt lat="42.424361" lon="-8.523605">
        <ele>441.508</ele>
        <time>2018-07-20T12:09:55Z</time>
      </trkpt>
      <trkpt lat="42.424284" lon="-8.523542">
        <ele>442.966</ele>
        <time>2018-07-20T12:10:15Z</time>
      </trkpt>
      <trkpt lat="42.424228" lon="-8.523477">
        <ele>443.950</ele>
        <time>2018-07-20T12:10:35Z</time>
      </trkpt>
      <trkpt lat="42.424068" lon="-8.523324">
        <ele>447.881</ele>
        <time>2018-07-20T12:10:55Z</time>
      </trkpt>
      <trkpt lat="42.424071" lon="-8.523316">
        <ele>447.798</ele>
        <time>2018-07-20T12:11:15Z</time>
      </trkpt>
      <trkpt lat="42.423944" lon="-8.523213">
        <ele>450.473</ele>
        <time>2018-07-20T12:11:35Z</time>
      </trkpt>
      <trkpt lat="42.423843" lon="-8.523135">
        <ele>451.633</ele>
        <time>2018-07-20T12:11:55Z</time>
      </trkpt>
      <trkpt lat="42.423674" lon="-8.522959">
        <ele>453.378</ele>
        <time>2018-07-20T12:12:15Z</time>
      </trkpt>
      <trkpt lat="42.423592" lon="-8.522812">
        <ele>453.944</ele>
        <time>2018-07-20T12:12:35Z</time>
      </trkpt>
      <trkpt lat="42.423536" lon="-8.522705">
        <ele>456.285</ele>
        <time>2018-07-20T12:12:55Z</time>
      </trkpt>
      <trkpt lat="42.423432" lon="-8.522488">
        <ele>460.989</ele>
        <time>2018-07-20T12:13:15Z</time>
      </trkpt>
      <trkpt lat="42.423377" lon="-8.522352">
        <ele>463.717</ele>
        <time>2018-07-20T12:13:35Z</time>
      </trkpt>
      <trkpt lat="42.423291" lon="-8.522257">
        <ele>467.208</ele>
        <time>2018-07-20T12:13:55Z</time>
      </trkpt>
      <trkpt lat="42.423227" lon="-8.522129">
        <ele>469.720</ele>
        <time>2018-07-20T12:14:15Z</time>
      </trkpt>
      <trkpt lat="42.423060" lon="-8.521889">
        <ele>473.584</ele>
        <time>2018-07-20T12:14:35Z</time>
      </trkpt>
      <trkpt lat="42.422991" lon="-8.521687">
        <ele>473.575</ele>
        <time>2018-07-20T12:14:55Z</time>
      </trkpt>
      <trkpt lat="42.422991" lon="-8.521681">
        <ele>473.542</ele>
        <time>2018-07-20T12:15:15Z</time>
      </trkpt>
      <trkpt lat="42.422994" lon="-8.521504">
        <ele>473.817</ele>
        <time>2018-07-20T12:15:35Z</time>
      </trkpt>
      <trkpt lat="42.423143" lon="-8.521293">
        <ele>473.367</ele>
        <time>2018-07-20T12:15:55Z</time>
      </trkpt>
      <trkpt lat="42.423317" lon="-8.521159">
        <ele>472.872</ele>
        <time>2018-07-20T12:16:15Z</time>
      </trkpt>
      <trkpt lat="42.423495" lon="-8.520980">
        <ele>473.928</ele>
        <time>2018-07-20T12:16:35Z</time>
      </trkpt>
      <trkpt lat="42.423502" lon="-8.520973">
        <ele>474.018</ele>
        <time>2018-07-20T12:16:55Z</time>
      </trkpt>
      <trkpt lat="42.423711" lon="-8.520840">
        <ele>474.298</ele>
        <time>2018-07-20T12:17:15Z</time>
      </trkpt>
      <trkpt lat="42.423827" lon="-8.520881">
        <ele>472.617</ele>
        <time>2018-07-20T12:17:35Z</time>
      </trkpt>
      <trkpt lat="42.424071" lon="-8.521022">
        <ele>470.508</ele>
        <time>2018-07-20T12:17:55Z</time>
      </trkpt>
      <trkpt lat="42.424359" lon="-8.521128">
        <ele>471.413</ele>
        <time>2018-07-20T12:18:15Z</time>
      </trkpt>
      <trkpt lat="42.424380" lon="-8.521123">
        <ele>471.877</ele>
        <time>2018-07-20T12:18:35Z</time>
      </trkpt>
      <trkpt lat="42.424755" lon="-8.521192">
        <ele>471.598</ele>
        <time>2018-07-20T12:18:55Z</time>
      </trkpt>
      <trkpt lat="42.424767" lon="-8.521190">
        <ele>471.485</ele>
        <time>2018-07-20T12:19:15Z</time>
      </trkpt>
      <trkpt lat="42.425083" lon="-8.521087">
        <ele>470.050</ele>
        <time>2018-07-20T12:19:35Z</time>
      </trkpt>
      <trkpt lat="42.425428" lon="-8.521013">
        <ele>468.510</ele>
        <time>2018-07-20T12:19:55Z</time>
      </trkpt>
      <trkpt lat="42.425632" lon="-8.520863">
        <ele>469.015</ele>
        <time>2018-07-20T12:20:15Z</time>
      </trkpt>
      <trkpt lat="42.425628" lon="-8.520722">
        <ele>470.791</ele>
        <time>2018-07-20T12:20:35Z</time>
      </trkpt>
      <trkpt lat="42.425770" lon="-8.520417">
        <ele>472.139</ele>
        <time>2018-07-20T12:20:55Z</time>
      </trkpt>
      <trkpt lat="42.425851" lon="-8.520066">
        <ele>472.601</ele>
        <time>2018-07-20T12:21:15Z</time>
      </trkpt>
      <trkpt lat="42.425931" lon="-8.519743">
        <ele>474.721</ele>
        <time>2018-07-20T12:21:35Z</time>
      </trkpt>
      <trkpt lat="42.425851" lon="-8.519568">
        <ele>478.308</ele>
        <time>2018-07-20T12:21:55Z</time>
      </trkpt>
      <trkpt lat="42.425939" lon="-8.519356">
        <ele>478.815</ele>
        <time>2018-07-20T12:22:15Z</time>
      </trkpt>
      <trkpt lat="42.425869" lon="-8.519192">
        <ele>482.139</ele>
        <time>2018-07-20T12:22:35Z</time>
      </trkpt>
      <trkpt lat="42.425771" lon="-8.519015">
        <ele>484.140</ele>
        <time>2018-07-20T12:22:55Z</time>
      </trkpt>
      <trkpt lat="42.425646" lon="-8.518795">
        <ele>485.977</ele>
        <time>2018-07-20T12:23:15Z</time>
      </trkpt>
      <trkpt lat="42.425507" lon="-8.518580">
        <ele>486.122</ele>
        <time>2018-07-20T12:23:35Z</time>
      </trkpt>
      <trkpt lat="42.425411" lon="-8.518428">
        <ele>487.272</ele>
        <time>2018-07-20T12:23:55Z</time>
      </trkpt>
      <trkpt lat="42.425257" lon="-8.518290">
        <ele>489.037</ele>
        <time>2018-07-20T12:24:15Z</time>
      </trkpt>
      <trkpt lat="42.425170" lon="-8.518202">
        <ele>489.853</ele>
        <time>2018-07-20T12:24:35Z</time>
      </trkpt>
      <trkpt lat="42.425093" lon="-8.518120">
        <ele>490.618</ele>
        <time>2018-07-20T12:24:55Z</time>
      </trkpt>
      <trkpt lat="42.425000" lon="-8.518058">
        <ele>492.098</ele>
        <time>2018-07-20T12:25:15Z</time>
      </trkpt>
      <trkpt lat="42.424909" lon="-8.518024">
        <ele>493.817</ele>
        <time>2018-07-20T12:25:35Z</time>
      </trkpt>
      <trkpt lat="42.424839" lon="-8.517981">
        <ele>495.208</ele>
        <time>2018-07-20T12:25:55Z</time>
      </trkpt>
      <trkpt lat="42.424805" lon="-8.517922">
        <ele>496.013</ele>
        <time>2018-07-20T12:26:15Z</time>
      </trkpt>
      <trkpt lat="42.424782" lon="-8.517856">
        <ele>496.677</ele>
        <time>2018-07-20T12:26:35Z</time>
      </trkpt>
      <trkpt lat="42.424792" lon="-8.517756">
        <ele>496.828</ele>
        <time>2018-07-20T12:26:55Z</time>
      </trkpt>
      <trkpt lat="42.424842" lon="-8.517667">
        <ele>496.065</ele>
        <time>2018-07-20T12:27:15Z</time>
      </trkpt>
      <trkpt lat="42.424918" lon="-8.517582">
        <ele>495.090</ele>
        <time>2018-07-20T12:27:35Z</time>
      </trkpt>
      <trkpt lat="42.425031" lon="-8.517451">
        <ele>493.860</ele>
        <time>2018-07-20T12:27:55Z</time>
      </trkpt>
      <trkpt lat="42.425100" lon="-8.517362">
        <ele>493.625</ele>
        <time>2018-07-20T12:28:15Z</time>
      </trkpt>
      <trkpt lat="42.425232" lon="-8.517221">
        <ele>493.511</ele>
        <time>2018-07-20T12:28:35Z</time>
      </trkpt>
      <trkpt lat="42.425390" lon="-8.517037">
        <ele>493.811</ele>
        <time>2018-07-20T12:28:55Z</time>
      </trkpt>
      <trkpt lat="42.425467" lon="-8.516885">
        <ele>494.721</ele>
        <time>2018-07-20T12:29:15Z</time>
      </trkpt>
      <trkpt lat="42.425519" lon="-8.516746">
        <ele>495.603</ele>
        <time>2018-07-20T12:29:35Z</time>
      </trkpt>
      <trkpt lat="42.425521" lon="-8.516659">
        <ele>496.208</ele>
        <time>2018-07-20T12:29:55Z</time>
      </trkpt>
      <trkpt lat="42.425524" lon="-8.516519">
        <ele>497.223</ele>
        <time>2018-07-20T12:30:15Z</time>
      </trkpt>
      <trkpt lat="42.425507" lon="-8.516330">
        <ele>498.297</ele>
        <time>2018-07-20T12:30:35Z</time>
      </trkpt>
      <trkpt lat="42.425494" lon="-8.516209">
        <ele>497.958</ele>
        <time>2018-07-20T12:30:55Z</time>
      </trkpt>
      <trkpt lat="42.425471" lon="-8.516100">
        <ele>497.975</ele>
        <time>2018-07-20T12:31:15Z</time>
      </trkpt>
      <trkpt lat="42.425452" lon="-8.515978">
        <ele>498.150</ele>
        <time>2018-07-20T12:31:35Z</time>
      </trkpt>
      <trkpt lat="42.425416" lon="-8.515800">
        <ele>498.660</ele>
        <time>2018-07-20T12:31:55Z</time>
      </trkpt>
      <trkpt lat="42.425394" lon="-8.515650">
        <ele>499.055</ele>
        <time>2018-07-20T12:32:15Z</time>
      </trkpt>
      <trkpt lat="42.425385" lon="-8.515453">
        <ele>499.681</ele>
        <time>2018-07-20T12:32:35Z</time>
      </trkpt>
      <trkpt lat="42.425401" lon="-8.515343">
        <ele>499.949</ele>
        <time>2018-07-20T12:32:55Z</time>
      </trkpt>
      <trkpt lat="42.425442" lon="-8.515171">
        <ele>500.602</ele>
        <time>2018-07-20T12:33:15Z</time>
      </trkpt>
      <trkpt lat="42.425455" lon="-8.515010">
        <ele>501.722</ele>
        <time>2018-07-20T12:33:35Z</time>
      </trkpt>
      <trkpt lat="42.425512" lon="-8.514791">
        <ele>502.808</ele>
        <time>2018-07-20T12:33:55Z</time>
      </trkpt>
      <trkpt lat="42.425560" lon="-8.514542">
        <ele>503.646</ele>
        <time>2018-07-20T12:34:15Z</time>
      </trkpt>
      <trkpt lat="42.425605" lon="-8.514342">
        <ele>504.140</ele>
        <time>2018-07-20T12:34:35Z</time>
      </trkpt>
      <trkpt lat="42.425676" lon="-8.514147">
        <ele>504.541</ele>
        <time>2018-07-20T12:34:55Z</time>
      </trkpt>
      <trkpt lat="42.425723" lon="-8.513968">
        <ele>504.998</ele>
        <time>2018-07-20T12:35:15Z</time>
      </trkpt>
      <trkpt lat="42.425780" lon="-8.513813">
        <ele>505.263</ele>
        <time>2018-07-20T12:35:35Z</time>
      </trkpt>
      <trkpt lat="42.425798" lon="-8.513640">
        <ele>505.523</ele>
        <time>2018-07-20T12:35:55Z</time>
      </trkpt>
      <trkpt lat="42.425861" lon="-8.513414">
        <ele>504.418</ele>
        <time>2018-07-20T12:36:15Z</time>
      </trkpt>
      <trkpt lat="42.425879" lon="-8.513287">
        <ele>504.034</ele>
        <time>2018-07-20T12:36:35Z</time>
      </trkpt>
      <trkpt lat="42.425901" lon="-8.513112">
        <ele>504.346</ele>
        <time>2018-07-20T12:36:55Z</time>
      </trkpt>
      <trkpt lat="42.425957" lon="-8.512788">
        <ele>506.288</ele>
        <time>2018-07-20T12:37:15Z</time>
      </trkpt>
      <trkpt lat="42.425946" lon="-8.512628">
        <ele>508.016</ele>
        <time>2018-07-20T12:37:35Z</time>
      </trkpt>
      <trkpt lat="42.425943" lon="-8.512434">
        <ele>509.108</ele>
        <time>2018-07-20T12:37:55Z</time>
      </trkpt>
      <trkpt lat="42.425902" lon="-8.512128">
        <ele>509.556</ele>
        <time>2018-07-20T12:38:15Z</time>
      </trkpt>
      <trkpt lat="42.425865" lon="-8.511954">
        <ele>509.970</ele>
        <time>2018-07-20T12:38:35Z</time>
      </trkpt>
      <trkpt lat="42.425862" lon="-8.511834">
        <ele>509.271</ele>
        <time>2018-07-20T12:38:55Z</time>
      </trkpt>
      <trkpt lat="42.425848" lon="-8.511672">
        <ele>508.538</ele>
        <time>2018-07-20T12:39:15Z</time>
      </trkpt>
      <trkpt lat="42.425808" lon="-8.511535">
        <ele>509.483</ele>
        <time>2018-07-20T12:39:35Z</time>
      </trkpt>
      <trkpt lat="42.425821" lon="-8.511380">
        <ele>508.363</ele>
        <time>2018-07-20T12:39:55Z</time>
      </trkpt>
      <trkpt lat="42.425805" lon="-8.511233">
        <ele>507.998</ele>
        <time>2018-07-20T12:40:15Z</time>
      </trkpt>
      <trkpt lat="42.425818" lon="-8.510959">
        <ele>505.584</ele>
        <time>2018-07-20T12:40:35Z</time>
      </trkpt>
      <trkpt lat="42.425779" lon="-8.510836">
        <ele>506.215</ele>
        <time>2018-07-20T12:40:55Z</time>
      </trkpt>
      <trkpt lat="42.425781" lon="-8.510692">
        <ele>505.665</ele>
        <time>2018-07-20T12:41:15Z</time>
      </trkpt>
      <trkpt lat="42.425760" lon="-8.510567">
        <ele>505.911</ele>
        <time>2018-07-20T12:41:35Z</time>
      </trkpt>
      <trkpt lat="42.425788" lon="-8.510452">
        <ele>504.408</ele>
        <time>2018-07-20T12:41:55Z</time>
      </trkpt>
      <trkpt lat="42.425782" lon="-8.510399">
        <ele>504.573</ele>
        <time>2018-07-20T12:42:15Z</time>
      </trkpt>
      <trkpt lat="42.425772" lon="-8.510317">
        <ele>504.647</ele>
        <time>2018-07-20T12:42:35Z</time>
      </trkpt>
      <trkpt lat="42.425782" lon="-8.510244">
        <ele>503.928</ele>
        <time>2018-07-20T12:42:55Z</time>
      </trkpt>
      <trkpt lat="42.425800" lon="-8.510158">
        <ele>502.845</ele>
        <time>2018-07-20T12:43:15Z</time>
      </trkpt>
      <trkpt lat="42.425831" lon="-8.510042">
        <ele>501.240</ele>
        <time>2018-07-20T12:43:35Z</time>
      </trkpt>
      <trkpt lat="42.425836" lon="-8.509940">
        <ele>500.910</ele>
        <time>2018-07-20T12:43:55Z</time>
      </trkpt>
      <trkpt lat="42.425857" lon="-8.509845">
        <ele>500.545</ele>
        <time>2018-07-20T12:44:15Z</time>
      </trkpt>
      <trkpt lat="42.425866" lon="-8.509795">
        <ele>500.371</ele>
        <time>2018-07-20T12:44:35Z</time>
      </trkpt>
      <trkpt lat="42.425856" lon="-8.509737">
        <ele>500.681</ele>
        <time>2018-07-20T12:44:55Z</time>
      </trkpt>
      <trkpt lat="42.425823" lon="-8.509654">
        <ele>500.861</ele>
        <time>2018-07-20T12:45:15Z</time>
      </trkpt>
      <trkpt lat="42.425831" lon="-8.509543">
        <ele>499.817</ele>
        <time>2018-07-20T12:45:35Z</time>
      </trkpt>
      <trkpt lat="42.425799" lon="-8.509467">
        <ele>499.808</ele>
        <time>2018-07-20T12:45:55Z</time>
      </trkpt>
      <trkpt lat="42.425773" lon="-8.509388">
        <ele>499.210</ele>
        <time>2018-07-20T12:46:15Z</time>
      </trkpt>
      <trkpt lat="42.425745" lon="-8.509350">
        <ele>499.014</ele>
        <time>2018-07-20T12:46:35Z</time>
      </trkpt>
      <trkpt lat="42.425637" lon="-8.509252">
        <ele>498.875</ele>
        <time>2018-07-20T12:46:55Z</time>
      </trkpt>
      <trkpt lat="42.425548" lon="-8.509209">
        <ele>499.072</ele>
        <time>2018-07-20T12:47:15Z</time>
      </trkpt>
      <trkpt lat="42.425455" lon="-8.509195">
        <ele>499.137</ele>
        <time>2018-07-20T12:47:35Z</time>
      </trkpt>
      <trkpt lat="42.425363" lon="-8.509181">
        <ele>499.187</ele>
        <time>2018-07-20T12:47:55Z</time>
      </trkpt>
      <trkpt lat="42.425287" lon="-8.509166">
        <ele>498.952</ele>
        <time>2018-07-20T12:48:15Z</time>
      </trkpt>
      <trkpt lat="42.425163" lon="-8.509155">
        <ele>498.778</ele>
        <time>2018-07-20T12:48:35Z</time>
      </trkpt>
      <trkpt lat="42.425066" lon="-8.509136">
        <ele>498.141</ele>
        <time>2018-07-20T12:48:55Z</time>
      </trkpt>
      <trkpt lat="42.424970" lon="-8.509139">
        <ele>497.981</ele>
        <time>2018-07-20T12:49:15Z</time>
      </trkpt>
      <trkpt lat="42.424871" lon="-8.509166">
        <ele>497.609</ele>
        <time>2018-07-20T12:49:35Z</time>
      </trkpt>
      <trkpt lat="42.424726" lon="-8.509198">
        <ele>497.208</ele>
        <time>2018-07-20T12:49:55Z</time>
      </trkpt>
      <trkpt lat="42.424621" lon="-8.509250">
        <ele>498.916</ele>
        <time>2018-07-20T12:50:15Z</time>
      </trkpt>
      <trkpt lat="42.424544" lon="-8.509282">
        <ele>499.730</ele>
        <time>2018-07-20T12:50:35Z</time>
      </trkpt>
      <trkpt lat="42.424380" lon="-8.509300">
        <ele>500.141</ele>
        <time>2018-07-20T12:50:55Z</time>
      </trkpt>
      <trkpt lat="42.424272" lon="-8.509288">
        <ele>500.328</ele>
        <time>2018-07-20T12:51:15Z</time>
      </trkpt>
      <trkpt lat="42.424197" lon="-8.509267">
        <ele>500.333</ele>
        <time>2018-07-20T12:51:35Z</time>
      </trkpt>
      <trkpt lat="42.424110" lon="-8.509227">
        <ele>500.213</ele>
        <time>2018-07-20T12:51:55Z</time>
      </trkpt>
      <trkpt lat="42.424062" lon="-8.509188">
        <ele>500.018</ele>
        <time>2018-07-20T12:52:15Z</time>
      </trkpt>
      <trkpt lat="42.423993" lon="-8.509109">
        <ele>499.264</ele>
        <time>2018-07-20T12:52:35Z</time>
      </trkpt>
      <trkpt lat="42.423952" lon="-8.509045">
        <ele>498.445</ele>
        <time>2018-07-20T12:52:55Z</time>
      </trkpt>
      <trkpt lat="42.423917" lon="-8.508968">
        <ele>497.247</ele>
        <time>2018-07-20T12:53:15Z</time>
      </trkpt>
      <trkpt lat="42.423889" lon="-8.508880">
        <ele>495.811</ele>
        <time>2018-07-20T12:53:35Z</time>
      </trkpt>
      <trkpt lat="42.423843" lon="-8.508832">
        <ele>495.508</ele>
        <time>2018-07-20T12:53:55Z</time>
      </trkpt>
      <trkpt lat="42.423784" lon="-8.508738">
        <ele>494.466</ele>
        <time>2018-07-20T12:54:15Z</time>
      </trkpt>
      <trkpt lat="42.423818" lon="-8.508676">
        <ele>492.940</ele>
        <time>2018-07-20T12:54:35Z</time>
      </trkpt>
      <trkpt lat="42.423887" lon="-8.508528">
        <ele>489.241</ele>
        <time>2018-07-20T12:54:55Z</time>
      </trkpt>
      <trkpt lat="42.423874" lon="-8.508289">
        <ele>484.638</ele>
        <time>2018-07-20T12:55:15Z</time>
      </trkpt>
      <trkpt lat="42.423795" lon="-8.508221">
        <ele>484.953</ele>
        <time>2018-07-20T12:55:35Z</time>
      </trkpt>
      <trkpt lat="42.423739" lon="-8.508188">
        <ele>485.393</ele>
        <time>2018-07-20T12:55:55Z</time>
      </trkpt>
      <trkpt lat="42.423690" lon="-8.508136">
        <ele>485.238</ele>
        <time>2018-07-20T12:56:15Z</time>
      </trkpt>
      <trkpt lat="42.423695" lon="-8.508099">
        <ele>484.594</ele>
        <time>2018-07-20T12:56:35Z</time>
      </trkpt>
      <trkpt lat="42.423722" lon="-8.508062">
        <ele>483.524</ele>
        <time>2018-07-20T12:56:55Z</time>
      </trkpt>
      <trkpt lat="42.423784" lon="-8.508044">
        <ele>482.304</ele>
        <time>2018-07-20T12:57:15Z</time>
      </trkpt>
      <trkpt lat="42.423832" lon="-8.508012">
        <ele>481.014</ele>
        <time>2018-07-20T12:57:35Z</time>
      </trkpt>
      <trkpt lat="42.423828" lon="-8.507963">
        <ele>480.208</ele>
        <time>2018-07-20T12:57:55Z</time>
      </trkpt>
      <trkpt lat="42.423858" lon="-8.507876">
        <ele>478.214</ele>
        <time>2018-07-20T12:58:15Z</time>
      </trkpt>
      <trkpt lat="42.423928" lon="-8.507736">
        <ele>475.278</ele>
        <time>2018-07-20T12:58:35Z</time>
      </trkpt>
      <trkpt lat="42.423971" lon="-8.507630">
        <ele>473.459</ele>
        <time>2018-07-20T12:58:55Z</time>
      </trkpt>
      <trkpt lat="42.423996" lon="-8.507536">
        <ele>471.856</ele>
        <time>2018-07-20T12:59:15Z</time>
      </trkpt>
      <trkpt lat="42.424019" lon="-8.507335">
        <ele>469.061</ele>
        <time>2018-07-20T12:59:35Z</time>
      </trkpt>
      <trkpt lat="42.424046" lon="-8.507125">
        <ele>466.541</ele>
        <time>2018-07-20T12:59:55Z</time>
      </trkpt>
      <trkpt lat="42.424040" lon="-8.506928">
        <ele>464.746</ele>
        <time>2018-07-20T13:00:15Z</time>
      </trkpt>
      <trkpt lat="42.424051" lon="-8.506653">
        <ele>461.072</ele>
        <time>2018-07-20T13:00:35Z</time>
      </trkpt>
      <trkpt lat="42.423990" lon="-8.506343">
        <ele>456.943</ele>
        <time>2018-07-20T13:00:55Z</time>
      </trkpt>
      <trkpt lat="42.423939" lon="-8.506200">
        <ele>455.664</ele>
        <time>2018-07-20T13:01:15Z</time>
      </trkpt>
      <trkpt lat="42.424009" lon="-8.506016">
        <ele>451.710</ele>
        <time>2018-07-20T13:01:35Z</time>
      </trkpt>
      <trkpt lat="42.424097" lon="-8.505894">
        <ele>448.708</ele>
        <time>2018-07-20T13:01:55Z</time>
      </trkpt>
      <trkpt lat="42.424122" lon="-8.505736">
        <ele>446.396</ele>
        <time>2018-07-20T13:02:15Z</time>
      </trkpt>
      <trkpt lat="42.424141" lon="-8.505567">
        <ele>444.280</ele>
        <time>2018-07-20T13:02:35Z</time>
      </trkpt>
      <trkpt lat="42.424182" lon="-8.505206">
        <ele>440.951</ele>
        <time>2018-07-20T13:02:55Z</time>
      </trkpt>
      <trkpt lat="42.424188" lon="-8.504964">
        <ele>440.228</ele>
        <time>2018-07-20T13:03:15Z</time>
      </trkpt>
      <trkpt lat="42.424189" lon="-8.504954">
        <ele>440.293</ele>
        <time>2018-07-20T13:03:35Z</time>
      </trkpt>
      <trkpt lat="42.424193" lon="-8.504740">
        <ele>440.383</ele>
        <time>2018-07-20T13:03:55Z</time>
      </trkpt>
      <trkpt lat="42.424198" lon="-8.504729">
        <ele>440.328</ele>
        <time>2018-07-20T13:04:15Z</time>
      </trkpt>
      <trkpt lat="42.424226" lon="-8.504508">
        <ele>440.044</ele>
        <time>2018-07-20T13:04:35Z</time>
      </trkpt>
      <trkpt lat="42.424245" lon="-8.504235">
        <ele>439.978</ele>
        <time>2018-07-20T13:04:55Z</time>
      </trkpt>
      <trkpt lat="42.424231" lon="-8.504045">
        <ele>439.433</ele>
        <time>2018-07-20T13:05:15Z</time>
      </trkpt>
      <trkpt lat="42.424238" lon="-8.503875">
        <ele>438.926</ele>
        <time>2018-07-20T13:05:35Z</time>
      </trkpt>
      <trkpt lat="42.424240" lon="-8.503862">
        <ele>438.808</ele>
        <time>2018-07-20T13:05:55Z</time>
      </trkpt>
      <trkpt lat="42.424258" lon="-8.503629">
        <ele>437.119</ele>
        <time>2018-07-20T13:06:15Z</time>
      </trkpt>
      <trkpt lat="42.424245" lon="-8.503494">
        <ele>435.353</ele>
        <time>2018-07-20T13:06:35Z</time>
      </trkpt>
      <trkpt lat="42.424245" lon="-8.503314">
        <ele>433.354</ele>
        <time>2018-07-20T13:06:55Z</time>
      </trkpt>
      <trkpt lat="42.424256" lon="-8.502991">
        <ele>432.191</ele>
        <time>2018-07-20T13:07:15Z</time>
      </trkpt>
      <trkpt lat="42.424205" lon="-8.502819">
        <ele>431.336</ele>
        <time>2018-07-20T13:07:35Z</time>
      </trkpt>
      <trkpt lat="42.423880" lon="-8.502872">
        <ele>427.986</ele>
        <time>2018-07-20T13:07:55Z</time>
      </trkpt>
      <trkpt lat="42.423694" lon="-8.502910">
        <ele>426.581</ele>
        <time>2018-07-20T13:08:15Z</time>
      </trkpt>
      <trkpt lat="42.423545" lon="-8.502965">
        <ele>425.017</ele>
        <time>2018-07-20T13:08:35Z</time>
      </trkpt>
      <trkpt lat="42.423250" lon="-8.503122">
        <ele>421.682</ele>
        <time>2018-07-20T13:08:55Z</time>
      </trkpt>
      <trkpt lat="42.422987" lon="-8.503246">
        <ele>419.043</ele>
        <time>2018-07-20T13:09:15Z</time>
      </trkpt>
      <trkpt lat="42.422412" lon="-8.503460">
        <ele>413.117</ele>
        <time>2018-07-20T13:09:35Z</time>
      </trkpt>
      <trkpt lat="42.422245" lon="-8.503503">
        <ele>411.908</ele>
        <time>2018-07-20T13:09:55Z</time>
      </trkpt>
      <trkpt lat="42.422043" lon="-8.503515">
        <ele>411.790</ele>
        <time>2018-07-20T13:10:15Z</time>
      </trkpt>
      <trkpt lat="42.421936" lon="-8.503519">
        <ele>411.674</ele>
        <time>2018-07-20T13:10:35Z</time>
      </trkpt>
      <trkpt lat="42.421927" lon="-8.503520">
        <ele>411.675</ele>
        <time>2018-07-20T13:10:55Z</time>
      </trkpt>
      <trkpt lat="42.421708" lon="-8.503546">
        <ele>410.842</ele>
        <time>2018-07-20T13:11:15Z</time>
      </trkpt>
      <trkpt lat="42.421570" lon="-8.503563">
        <ele>410.987</ele>
        <time>2018-07-20T13:11:35Z</time>
      </trkpt>
      <trkpt lat="42.421483" lon="-8.503564">
        <ele>411.297</ele>
        <time>2018-07-20T13:11:55Z</time>
      </trkpt>
      <trkpt lat="42.421536" lon="-8.503394">
        <ele>412.862</ele>
        <time>2018-07-20T13:12:15Z</time>
      </trkpt>
      <trkpt lat="42.421576" lon="-8.503200">
        <ele>414.878</ele>
        <time>2018-07-20T13:12:35Z</time>
      </trkpt>
      <trkpt lat="42.421578" lon="-8.503195">
        <ele>414.813</ele>
        <time>2018-07-20T13:12:55Z</time>
      </trkpt>
      <trkpt lat="42.421581" lon="-8.503184">
        <ele>414.943</ele>
        <time>2018-07-20T13:13:15Z</time>
      </trkpt>
      <trkpt lat="42.421582" lon="-8.503001">
        <ele>416.807</ele>
        <time>2018-07-20T13:13:35Z</time>
      </trkpt>
      <trkpt lat="42.421584" lon="-8.502994">
        <ele>416.908</ele>
        <time>2018-07-20T13:13:55Z</time>
      </trkpt>
      <trkpt lat="42.421538" lon="-8.502760">
        <ele>419.273</ele>
        <time>2018-07-20T13:14:15Z</time>
      </trkpt>
      <trkpt lat="42.421490" lon="-8.502487">
        <ele>422.247</ele>
        <time>2018-07-20T13:14:35Z</time>
      </trkpt>
      <trkpt lat="42.421451" lon="-8.502229">
        <ele>425.778</ele>
        <time>2018-07-20T13:14:55Z</time>
      </trkpt>
      <trkpt lat="42.421416" lon="-8.501996">
        <ele>428.595</ele>
        <time>2018-07-20T13:15:15Z</time>
      </trkpt>
      <trkpt lat="42.421358" lon="-8.501758">
        <ele>431.770</ele>
        <time>2018-07-20T13:15:35Z</time>
      </trkpt>
      <trkpt lat="42.421344" lon="-8.501553">
        <ele>434.260</ele>
        <time>2018-07-20T13:15:55Z</time>
      </trkpt>
      <trkpt lat="42.421344" lon="-8.501547">
        <ele>434.265</ele>
        <time>2018-07-20T13:16:15Z</time>
      </trkpt>
      <trkpt lat="42.421299" lon="-8.501314">
        <ele>436.651</ele>
        <time>2018-07-20T13:16:35Z</time>
      </trkpt>
      <trkpt lat="42.421294" lon="-8.501066">
        <ele>439.361</ele>
        <time>2018-07-20T13:16:55Z</time>
      </trkpt>
      <trkpt lat="42.421314" lon="-8.500920">
        <ele>440.421</ele>
        <time>2018-07-20T13:17:15Z</time>
      </trkpt>
      <trkpt lat="42.421367" lon="-8.500763">
        <ele>441.513</ele>
        <time>2018-07-20T13:17:35Z</time>
      </trkpt>
      <trkpt lat="42.421408" lon="-8.500670">
        <ele>442.408</ele>
        <time>2018-07-20T13:17:55Z</time>
      </trkpt>
      <trkpt lat="42.421456" lon="-8.500496">
        <ele>443.728</ele>
        <time>2018-07-20T13:18:15Z</time>
      </trkpt>
      <trkpt lat="42.421458" lon="-8.500489">
        <ele>443.712</ele>
        <time>2018-07-20T13:18:35Z</time>
      </trkpt>
      <trkpt lat="42.421467" lon="-8.500360">
        <ele>443.623</ele>
        <time>2018-07-20T13:18:55Z</time>
      </trkpt>
      <trkpt lat="42.421428" lon="-8.500261">
        <ele>443.320</ele>
        <time>2018-07-20T13:19:15Z</time>
      </trkpt>
      <trkpt lat="42.421428" lon="-8.500257">
        <ele>443.455</ele>
        <time>2018-07-20T13:19:35Z</time>
      </trkpt>
      <trkpt lat="42.421377" lon="-8.500194">
        <ele>443.345</ele>
        <time>2018-07-20T13:19:55Z</time>
      </trkpt>
      <trkpt lat="42.421297" lon="-8.500051">
        <ele>443.540</ele>
        <time>2018-07-20T13:20:15Z</time>
      </trkpt>
      <trkpt lat="42.421243" lon="-8.499883">
        <ele>443.916</ele>
        <time>2018-07-20T13:20:35Z</time>
      </trkpt>
      <trkpt lat="42.421239" lon="-8.499877">
        <ele>443.988</ele>
        <time>2018-07-20T13:20:55Z</time>
      </trkpt>
      <trkpt lat="42.421239" lon="-8.499871">
        <ele>444.024</ele>
        <time>2018-07-20T13:21:15Z</time>
      </trkpt>
      <trkpt lat="42.421215" lon="-8.499723">
        <ele>444.626</ele>
        <time>2018-07-20T13:21:35Z</time>
      </trkpt>
      <trkpt lat="42.421214" lon="-8.499715">
        <ele>444.708</ele>
        <time>2018-07-20T13:21:55Z</time>
      </trkpt>
      <trkpt lat="42.421213" lon="-8.499711">
        <ele>444.770</ele>
        <time>2018-07-20T13:22:15Z</time>
      </trkpt>
      <trkpt lat="42.421241" lon="-8.499554">
        <ele>445.594</ele>
        <time>2018-07-20T13:22:35Z</time>
      </trkpt>
      <trkpt lat="42.421299" lon="-8.499382">
        <ele>446.265</ele>
        <time>2018-07-20T13:22:55Z</time>
      </trkpt>
      <trkpt lat="42.421303" lon="-8.499380">
        <ele>446.252</ele>
        <time>2018-07-20T13:23:15Z</time>
      </trkpt>
      <trkpt lat="42.421353" lon="-8.499291">
        <ele>446.537</ele>
        <time>2018-07-20T13:23:35Z</time>
      </trkpt>
      <trkpt lat="42.421319" lon="-8.499228">
        <ele>447.517</ele>
        <time>2018-07-20T13:23:55Z</time>
      </trkpt>
      <trkpt lat="42.421218" lon="-8.499220">
        <ele>448.832</ele>
        <time>2018-07-20T13:24:15Z</time>
      </trkpt>
      <trkpt lat="42.421115" lon="-8.499186">
        <ele>450.758</ele>
        <time>2018-07-20T13:24:35Z</time>
      </trkpt>
      <trkpt lat="42.420923" lon="-8.499115">
        <ele>453.265</ele>
        <time>2018-07-20T13:24:55Z</time>
      </trkpt>
      <trkpt lat="42.420830" lon="-8.499060">
        <ele>455.068</ele>
        <time>2018-07-20T13:25:15Z</time>
      </trkpt>
      <trkpt lat="42.420794" lon="-8.498976">
        <ele>457.014</ele>
        <time>2018-07-20T13:25:35Z</time>
      </trkpt>
      <trkpt lat="42.420731" lon="-8.498931">
        <ele>458.708</ele>
        <time>2018-07-20T13:25:55Z</time>
      </trkpt>
      <trkpt lat="42.420636" lon="-8.498887">
        <ele>460.918</ele>
        <time>2018-07-20T13:26:15Z</time>
      </trkpt>
      <trkpt lat="42.420530" lon="-8.498856">
        <ele>462.912</ele>
        <time>2018-07-20T13:26:35Z</time>
      </trkpt>
      <trkpt lat="42.420410" lon="-8.498838">
        <ele>465.213</ele>
        <time>2018-07-20T13:26:55Z</time>
      </trkpt>
      <trkpt lat="42.420316" lon="-8.498762">
        <ele>467.470</ele>
        <time>2018-07-20T13:27:15Z</time>
      </trkpt>
      <trkpt lat="42.420218" lon="-8.498707">
        <ele>468.085</ele>
        <time>2018-07-20T13:27:35Z</time>
      </trkpt>
      <trkpt lat="42.420042" lon="-8.498622">
        <ele>467.395</ele>
        <time>2018-07-20T13:27:55Z</time>
      </trkpt>
      <trkpt lat="42.419921" lon="-8.498564">
        <ele>467.450</ele>
        <time>2018-07-20T13:28:15Z</time>
      </trkpt>
      <trkpt lat="42.419802" lon="-8.498474">
        <ele>468.326</ele>
        <time>2018-07-20T13:28:35Z</time>
      </trkpt>
      <trkpt lat="42.419803" lon="-8.498464">
        <ele>468.448</ele>
        <time>2018-07-20T13:28:55Z</time>
      </trkpt>
      <trkpt lat="42.419735" lon="-8.498388">
        <ele>469.461</ele>
        <time>2018-07-20T13:29:15Z</time>
      </trkpt>
      <trkpt lat="42.419564" lon="-8.498244">
        <ele>471.217</ele>
        <time>2018-07-20T13:29:35Z</time>
      </trkpt>
      <trkpt lat="42.419435" lon="-8.498217">
        <ele>471.908</ele>
        <time>2018-07-20T13:29:55Z</time>
      </trkpt>
      <trkpt lat="42.419363" lon="-8.498152">
        <ele>473.026</ele>
        <time>2018-07-20T13:30:15Z</time>
      </trkpt>
      <trkpt lat="42.419274" lon="-8.498071">
        <ele>474.120</ele>
        <time>2018-07-20T13:30:35Z</time>
      </trkpt>
      <trkpt lat="42.419276" lon="-8.498066">
        <ele>474.211</ele>
        <time>2018-07-20T13:30:55Z</time>
      </trkpt>
      <trkpt lat="42.419276" lon="-8.498062">
        <ele>474.228</ele>
        <time>2018-07-20T13:31:15Z</time>
      </trkpt>
      <trkpt lat="42.419168" lon="-8.497972">
        <ele>475.313</ele>
        <time>2018-07-20T13:31:35Z</time>
      </trkpt>
      <trkpt lat="42.419095" lon="-8.497878">
        <ele>476.743</ele>
        <time>2018-07-20T13:31:55Z</time>
      </trkpt>
      <trkpt lat="42.419034" lon="-8.497763">
        <ele>478.018</ele>
        <time>2018-07-20T13:32:15Z</time>
      </trkpt>
      <trkpt lat="42.418960" lon="-8.497712">
        <ele>479.684</ele>
        <time>2018-07-20T13:32:35Z</time>
      </trkpt>
      <trkpt lat="42.418829" lon="-8.497763">
        <ele>481.661</ele>
        <time>2018-07-20T13:32:55Z</time>
      </trkpt>
      <trkpt lat="42.418717" lon="-8.497807">
        <ele>484.221</ele>
        <time>2018-07-20T13:33:15Z</time>
      </trkpt>
      <trkpt lat="42.418654" lon="-8.497806">
        <ele>485.713</ele>
        <time>2018-07-20T13:33:35Z</time>
      </trkpt>
      <trkpt lat="42.418512" lon="-8.497775">
        <ele>487.708</ele>
        <time>2018-07-20T13:33:55Z</time>
      </trkpt>
      <trkpt lat="42.418410" lon="-8.497764">
        <ele>488.578</ele>
        <time>2018-07-20T13:34:15Z</time>
      </trkpt>
      <trkpt lat="42.418408" lon="-8.497763">
        <ele>488.532</ele>
        <time>2018-07-20T13:34:35Z</time>
      </trkpt>
      <trkpt lat="42.418309" lon="-8.497723">
        <ele>489.493</ele>
        <time>2018-07-20T13:34:55Z</time>
      </trkpt>
      <trkpt lat="42.418238" lon="-8.497696">
        <ele>490.060</ele>
        <time>2018-07-20T13:35:15Z</time>
      </trkpt>
      <trkpt lat="42.418148" lon="-8.497685">
        <ele>490.785</ele>
        <time>2018-07-20T13:35:35Z</time>
      </trkpt>
      <trkpt lat="42.418023" lon="-8.497658">
        <ele>491.575</ele>
        <time>2018-07-20T13:35:55Z</time>
      </trkpt>
      <trkpt lat="42.417927" lon="-8.497629">
        <ele>491.860</ele>
        <time>2018-07-20T13:36:15Z</time>
      </trkpt>
      <trkpt lat="42.417927" lon="-8.497626">
        <ele>491.896</ele>
        <time>2018-07-20T13:36:35Z</time>
      </trkpt>
      <trkpt lat="42.417817" lon="-8.497606">
        <ele>492.171</ele>
        <time>2018-07-20T13:36:55Z</time>
      </trkpt>
      <trkpt lat="42.417708" lon="-8.497580">
        <ele>492.941</ele>
        <time>2018-07-20T13:37:15Z</time>
      </trkpt>
      <trkpt lat="42.417599" lon="-8.497542">
        <ele>494.015</ele>
        <time>2018-07-20T13:37:35Z</time>
      </trkpt>
      <trkpt lat="42.417602" lon="-8.497537">
        <ele>494.008</ele>
        <time>2018-07-20T13:37:55Z</time>
      </trkpt>
      <trkpt lat="42.417541" lon="-8.497541">
        <ele>494.419</ele>
        <time>2018-07-20T13:38:15Z</time>
      </trkpt>
      <trkpt lat="42.417453" lon="-8.497546">
        <ele>495.763</ele>
        <time>2018-07-20T13:38:35Z</time>
      </trkpt>
      <trkpt lat="42.417359" lon="-8.497622">
        <ele>497.254</ele>
        <time>2018-07-20T13:38:55Z</time>
      </trkpt>
      <trkpt lat="42.417292" lon="-8.497724">
        <ele>497.931</ele>
        <time>2018-07-20T13:39:15Z</time>
      </trkpt>
      <trkpt lat="42.417247" lon="-8.497840">
        <ele>498.016</ele>
        <time>2018-07-20T13:39:35Z</time>
      </trkpt>
      <trkpt lat="42.417181" lon="-8.497923">
        <ele>498.326</ele>
        <time>2018-07-20T13:39:55Z</time>
      </trkpt>
      <trkpt lat="42.417153" lon="-8.497915">
        <ele>498.591</ele>
        <time>2018-07-20T13:40:15Z</time>
      </trkpt>
      <trkpt lat="42.416988" lon="-8.497769">
        <ele>500.717</ele>
        <time>2018-07-20T13:40:35Z</time>
      </trkpt>
      <trkpt lat="42.416988" lon="-8.497764">
        <ele>500.729</ele>
        <time>2018-07-20T13:40:55Z</time>
      </trkpt>
      <trkpt lat="42.416987" lon="-8.497757">
        <ele>500.800</ele>
        <time>2018-07-20T13:41:15Z</time>
      </trkpt>
      <trkpt lat="42.416867" lon="-8.497709">
        <ele>501.520</ele>
        <time>2018-07-20T13:41:35Z</time>
      </trkpt>
      <trkpt lat="42.416871" lon="-8.497702">
        <ele>501.508</ele>
        <time>2018-07-20T13:41:55Z</time>
      </trkpt>
      <trkpt lat="42.416812" lon="-8.497667">
        <ele>501.964</ele>
        <time>2018-07-20T13:42:15Z</time>
      </trkpt>
      <trkpt lat="42.416719" lon="-8.497659">
        <ele>502.248</ele>
        <time>2018-07-20T13:42:35Z</time>
      </trkpt>
      <trkpt lat="42.416657" lon="-8.497679">
        <ele>502.499</ele>
        <time>2018-07-20T13:42:55Z</time>
      </trkpt>
      <trkpt lat="42.416438" lon="-8.497787">
        <ele>503.656</ele>
        <time>2018-07-20T13:43:15Z</time>
      </trkpt>
      <trkpt lat="42.416310" lon="-8.497815">
        <ele>504.891</ele>
        <time>2018-07-20T13:43:35Z</time>
      </trkpt>
      <trkpt lat="42.416204" lon="-8.497801">
        <ele>505.961</ele>
        <time>2018-07-20T13:43:55Z</time>
      </trkpt>
      <trkpt lat="42.416125" lon="-8.497803">
        <ele>506.846</ele>
        <time>2018-07-20T13:44:15Z</time>
      </trkpt>
      <trkpt lat="42.416017" lon="-8.497807">
        <ele>509.262</ele>
        <time>2018-07-20T13:44:35Z</time>
      </trkpt>
      <trkpt lat="42.415893" lon="-8.497769">
        <ele>512.725</ele>
        <time>2018-07-20T13:44:55Z</time>
      </trkpt>
      <trkpt lat="42.415819" lon="-8.497732">
        <ele>515.526</ele>
        <time>2018-07-20T13:45:15Z</time>
      </trkpt>
      <trkpt lat="42.415774" lon="-8.497544">
        <ele>521.208</ele>
        <time>2018-07-20T13:45:35Z</time>
      </trkpt>
      <trkpt lat="42.415790" lon="-8.497431">
        <ele>522.808</ele>
        <time>2018-07-20T13:45:55Z</time>
      </trkpt>
      <trkpt lat="42.415887" lon="-8.497243">
        <ele>522.014</ele>
        <time>2018-07-20T13:46:15Z</time>
      </trkpt>
      <trkpt lat="42.415980" lon="-8.497097">
        <ele>519.478</ele>
        <time>2018-07-20T13:46:35Z</time>
      </trkpt>
      <trkpt lat="42.416072" lon="-8.496771">
        <ele>521.159</ele>
        <time>2018-07-20T13:46:55Z</time>
      </trkpt>
      <trkpt lat="42.416047" lon="-8.496455">
        <ele>528.036</ele>
        <time>2018-07-20T13:47:15Z</time>
      </trkpt>
      <trkpt lat="42.416072" lon="-8.496318">
        <ele>528.911</ele>
        <time>2018-07-20T13:47:35Z</time>
      </trkpt>
      <trkpt lat="42.416072" lon="-8.496236">
        <ele>529.641</ele>
        <time>2018-07-20T13:47:55Z</time>
      </trkpt>
      <trkpt lat="42.416053" lon="-8.496145">
        <ele>530.876</ele>
        <time>2018-07-20T13:48:15Z</time>
      </trkpt>
      <trkpt lat="42.416031" lon="-8.496036">
        <ele>531.972</ele>
        <time>2018-07-20T13:48:35Z</time>
      </trkpt>
      <trkpt lat="42.416042" lon="-8.496030">
        <ele>531.826</ele>
        <time>2018-07-20T13:48:55Z</time>
      </trkpt>
      <trkpt lat="42.416042" lon="-8.496029">
        <ele>531.847</ele>
        <time>2018-07-20T13:49:15Z</time>
      </trkpt>
      <trkpt lat="42.416009" lon="-8.495850">
        <ele>533.411</ele>
        <time>2018-07-20T13:49:35Z</time>
      </trkpt>
      <trkpt lat="42.415982" lon="-8.495658">
        <ele>534.208</ele>
        <time>2018-07-20T13:49:55Z</time>
      </trkpt>
      <trkpt lat="42.415930" lon="-8.495511">
        <ele>535.074</ele>
        <time>2018-07-20T13:50:15Z</time>
      </trkpt>
      <trkpt lat="42.415874" lon="-8.495346">
        <ele>536.168</ele>
        <time>2018-07-20T13:50:35Z</time>
      </trkpt>
      <trkpt lat="42.415877" lon="-8.495342">
        <ele>536.129</ele>
        <time>2018-07-20T13:50:55Z</time>
      </trkpt>
      <trkpt lat="42.415831" lon="-8.495163">
        <ele>537.476</ele>
        <time>2018-07-20T13:51:15Z</time>
      </trkpt>
      <trkpt lat="42.415765" lon="-8.495031">
        <ele>538.451</ele>
        <time>2018-07-20T13:51:35Z</time>
      </trkpt>
      <trkpt lat="42.415722" lon="-8.494973">
        <ele>539.031</ele>
        <time>2018-07-20T13:51:55Z</time>
      </trkpt>
      <trkpt lat="42.415722" lon="-8.494970">
        <ele>539.126</ele>
        <time>2018-07-20T13:52:15Z</time>
      </trkpt>
      <trkpt lat="42.415666" lon="-8.494894">
        <ele>540.212</ele>
        <time>2018-07-20T13:52:35Z</time>
      </trkpt>
      <trkpt lat="42.415613" lon="-8.494815">
        <ele>541.473</ele>
        <time>2018-07-20T13:52:55Z</time>
      </trkpt>
      <trkpt lat="42.415577" lon="-8.494735">
        <ele>542.685</ele>
        <time>2018-07-20T13:53:15Z</time>
      </trkpt>
      <trkpt lat="42.415500" lon="-8.494646">
        <ele>544.113</ele>
        <time>2018-07-20T13:53:35Z</time>
      </trkpt>
      <trkpt lat="42.415416" lon="-8.494599">
        <ele>545.108</ele>
        <time>2018-07-20T13:53:55Z</time>
      </trkpt>
      <trkpt lat="42.415232" lon="-8.494672">
        <ele>544.929</ele>
        <time>2018-07-20T13:54:15Z</time>
      </trkpt>
      <trkpt lat="42.415129" lon="-8.494755">
        <ele>544.243</ele>
        <time>2018-07-20T13:54:35Z</time>
      </trkpt>
      <trkpt lat="42.415084" lon="-8.494802">
        <ele>544.044</ele>
        <time>2018-07-20T13:54:55Z</time>
      </trkpt>
      <trkpt lat="42.415052" lon="-8.494834">
        <ele>543.991</ele>
        <time>2018-07-20T13:55:15Z</time>
      </trkpt>
      <trkpt lat="42.415024" lon="-8.494869">
        <ele>543.896</ele>
        <time>2018-07-20T13:55:35Z</time>
      </trkpt>
      <trkpt lat="42.414902" lon="-8.494946">
        <ele>544.086</ele>
        <time>2018-07-20T13:55:55Z</time>
      </trkpt>
      <trkpt lat="42.414829" lon="-8.494978">
        <ele>544.331</ele>
        <time>2018-07-20T13:56:15Z</time>
      </trkpt>
      <trkpt lat="42.414786" lon="-8.494994">
        <ele>544.697</ele>
        <time>2018-07-20T13:56:35Z</time>
      </trkpt>
      <trkpt lat="42.414641" lon="-8.495029">
        <ele>545.974</ele>
        <time>2018-07-20T13:56:55Z</time>
      </trkpt>
      <trkpt lat="42.414446" lon="-8.495081">
        <ele>548.056</ele>
        <time>2018-07-20T13:57:15Z</time>
      </trkpt>
      <trkpt lat="42.414300" lon="-8.495106">
        <ele>549.421</ele>
        <time>2018-07-20T13:57:35Z</time>
      </trkpt>
      <trkpt lat="42.414184" lon="-8.495112">
        <ele>550.608</ele>
        <time>2018-07-20T13:57:55Z</time>
      </trkpt>
      <trkpt lat="42.414181" lon="-8.495111">
        <ele>550.739</ele>
        <time>2018-07-20T13:58:15Z</time>
      </trkpt>
      <trkpt lat="42.414121" lon="-8.495073">
        <ele>551.133</ele>
        <time>2018-07-20T13:58:35Z</time>
      </trkpt>
      <trkpt lat="42.414098" lon="-8.495046">
        <ele>551.364</ele>
        <time>2018-07-20T13:58:55Z</time>
      </trkpt>
      <trkpt lat="42.414046" lon="-8.494968">
        <ele>551.751</ele>
        <time>2018-07-20T13:59:15Z</time>
      </trkpt>
      <trkpt lat="42.414012" lon="-8.494890">
        <ele>552.236</ele>
        <time>2018-07-20T13:59:35Z</time>
      </trkpt>
      <trkpt lat="42.414012" lon="-8.494888">
        <ele>552.286</ele>
        <time>2018-07-20T13:59:55Z</time>
      </trkpt>
      <trkpt lat="42.414012" lon="-8.494887">
        <ele>552.291</ele>
        <time>2018-07-20T14:00:15Z</time>
      </trkpt>
      <trkpt lat="42.414012" lon="-8.494885">
        <ele>552.227</ele>
        <time>2018-07-20T14:00:35Z</time>
      </trkpt>
      <trkpt lat="42.413992" lon="-8.494812">
        <ele>552.579</ele>
        <time>2018-07-20T14:00:55Z</time>
      </trkpt>
      <trkpt lat="42.413971" lon="-8.494757">
        <ele>552.805</ele>
        <time>2018-07-20T14:01:15Z</time>
      </trkpt>
      <trkpt lat="42.413942" lon="-8.494661">
        <ele>553.525</ele>
        <time>2018-07-20T14:01:35Z</time>
      </trkpt>
      <trkpt lat="42.413857" lon="-8.494524">
        <ele>555.208</ele>
        <time>2018-07-20T14:01:55Z</time>
      </trkpt>
      <trkpt lat="42.413817" lon="-8.494352">
        <ele>557.119</ele>
        <time>2018-07-20T14:02:15Z</time>
      </trkpt>
      <trkpt lat="42.413696" lon="-8.494217">
        <ele>559.383</ele>
        <time>2018-07-20T14:02:35Z</time>
      </trkpt>
      <trkpt lat="42.413569" lon="-8.494067">
        <ele>560.014</ele>
        <time>2018-07-20T14:02:55Z</time>
      </trkpt>
      <trkpt lat="42.413570" lon="-8.494034">
        <ele>560.091</ele>
        <time>2018-07-20T14:03:15Z</time>
      </trkpt>
      <trkpt lat="42.413436" lon="-8.493880">
        <ele>559.336</ele>
        <time>2018-07-20T14:03:35Z</time>
      </trkpt>
      <trkpt lat="42.413338" lon="-8.493544">
        <ele>556.816</ele>
        <time>2018-07-20T14:03:55Z</time>
      </trkpt>
      <trkpt lat="42.413350" lon="-8.493032">
        <ele>555.321</ele>
        <time>2018-07-20T14:04:15Z</time>
      </trkpt>
      <trkpt lat="42.413350" lon="-8.493021">
        <ele>555.377</ele>
        <time>2018-07-20T14:04:35Z</time>
      </trkpt>
      <trkpt lat="42.413339" lon="-8.492640">
        <ele>557.531</ele>
        <time>2018-07-20T14:04:55Z</time>
      </trkpt>
      <trkpt lat="42.413304" lon="-8.492339">
        <ele>559.861</ele>
        <time>2018-07-20T14:05:15Z</time>
      </trkpt>
      <trkpt lat="42.413260" lon="-8.492213">
        <ele>560.307</ele>
        <time>2018-07-20T14:05:35Z</time>
      </trkpt>
      <trkpt lat="42.413234" lon="-8.491954">
        <ele>562.508</ele>
        <time>2018-07-20T14:05:55Z</time>
      </trkpt>
      <trkpt lat="42.413181" lon="-8.491716">
        <ele>565.145</ele>
        <time>2018-07-20T14:06:15Z</time>
      </trkpt>
      <trkpt lat="42.413134" lon="-8.491530">
        <ele>567.529</ele>
        <time>2018-07-20T14:06:35Z</time>
      </trkpt>
      <trkpt lat="42.413040" lon="-8.491406">
        <ele>568.470</ele>
        <time>2018-07-20T14:06:55Z</time>
      </trkpt>
      <trkpt lat="42.412888" lon="-8.491312">
        <ele>568.117</ele>
        <time>2018-07-20T14:07:15Z</time>
      </trkpt>
      <trkpt lat="42.412638" lon="-8.491109">
        <ele>569.012</ele>
        <time>2018-07-20T14:07:35Z</time>
      </trkpt>
      <trkpt lat="42.412523" lon="-8.491026">
        <ele>569.012</ele>
        <time>2018-07-20T14:07:55Z</time>
      </trkpt>
      <trkpt lat="42.412355" lon="-8.490761">
        <ele>569.317</ele>
        <time>2018-07-20T14:08:15Z</time>
      </trkpt>
      <trkpt lat="42.412353" lon="-8.490753">
        <ele>569.413</ele>
        <time>2018-07-20T14:08:35Z</time>
      </trkpt>
      <trkpt lat="42.412209" lon="-8.490354">
        <ele>569.339</ele>
        <time>2018-07-20T14:08:55Z</time>
      </trkpt>
      <trkpt lat="42.412122" lon="-8.490031">
        <ele>568.401</ele>
        <time>2018-07-20T14:09:15Z</time>
      </trkpt>
      <trkpt lat="42.412116" lon="-8.489645">
        <ele>569.221</ele>
        <time>2018-07-20T14:09:35Z</time>
      </trkpt>
      <trkpt lat="42.412192" lon="-8.489364">
        <ele>570.208</ele>
        <time>2018-07-20T14:09:55Z</time>
      </trkpt>
      <trkpt lat="42.412324" lon="-8.489164">
        <ele>572.675</ele>
        <time>2018-07-20T14:10:15Z</time>
      </trkpt>
      <trkpt lat="42.412520" lon="-8.488951">
        <ele>575.879</ele>
        <time>2018-07-20T14:10:35Z</time>
      </trkpt>
      <trkpt lat="42.412676" lon="-8.488729">
        <ele>577.630</ele>
        <time>2018-07-20T14:10:55Z</time>
      </trkpt>
      <trkpt lat="42.412723" lon="-8.488499">
        <ele>576.617</ele>
        <time>2018-07-20T14:11:15Z</time>
      </trkpt>
      <trkpt lat="42.412723" lon="-8.488485">
        <ele>576.512</ele>
        <time>2018-07-20T14:11:35Z</time>
      </trkpt>
      <trkpt lat="42.412707" lon="-8.488316">
        <ele>575.012</ele>
        <time>2018-07-20T14:11:55Z</time>
      </trkpt>
      <trkpt lat="42.412668" lon="-8.488154">
        <ele>574.577</ele>
        <time>2018-07-20T14:12:15Z</time>
      </trkpt>
      <trkpt lat="42.412560" lon="-8.487921">
        <ele>573.323</ele>
        <time>2018-07-20T14:12:35Z</time>
      </trkpt>
      <trkpt lat="42.412441" lon="-8.487706">
        <ele>571.838</ele>
        <time>2018-07-20T14:12:55Z</time>
      </trkpt>
      <trkpt lat="42.412379" lon="-8.487464">
        <ele>571.570</ele>
        <time>2018-07-20T14:13:15Z</time>
      </trkpt>
      <trkpt lat="42.412330" lon="-8.487086">
        <ele>572.417</ele>
        <time>2018-07-20T14:13:35Z</time>
      </trkpt>
      <trkpt lat="42.412236" lon="-8.486667">
        <ele>570.508</ele>
        <time>2018-07-20T14:13:55Z</time>
      </trkpt>
      <trkpt lat="42.412111" lon="-8.486340">
        <ele>566.095</ele>
        <time>2018-07-20T14:14:15Z</time>
      </trkpt>
      <trkpt lat="42.412109" lon="-8.486116">
        <ele>565.799</ele>
        <time>2018-07-20T14:14:35Z</time>
      </trkpt>
      <trkpt lat="42.412180" lon="-8.485878">
        <ele>566.520</ele>
        <time>2018-07-20T14:14:55Z</time>
      </trkpt>
      <trkpt lat="42.412298" lon="-8.485685">
        <ele>568.367</ele>
        <time>2018-07-20T14:15:15Z</time>
      </trkpt>
      <trkpt lat="42.412451" lon="-8.485504">
        <ele>569.032</ele>
        <time>2018-07-20T14:15:35Z</time>
      </trkpt>
      <trkpt lat="42.412650" lon="-8.485302">
        <ele>568.462</ele>
        <time>2018-07-20T14:15:55Z</time>
      </trkpt>
      <trkpt lat="42.412698" lon="-8.485060">
        <ele>566.397</ele>
        <time>2018-07-20T14:16:15Z</time>
      </trkpt>
      <trkpt lat="42.412629" lon="-8.484862">
        <ele>563.533</ele>
        <time>2018-07-20T14:16:35Z</time>
      </trkpt>
      <trkpt lat="42.412509" lon="-8.484619">
        <ele>559.258</ele>
        <time>2018-07-20T14:16:55Z</time>
      </trkpt>
      <trkpt lat="42.412372" lon="-8.484354">
        <ele>557.252</ele>
        <time>2018-07-20T14:17:15Z</time>
      </trkpt>
      <trkpt lat="42.412274" lon="-8.484073">
        <ele>557.817</ele>
        <time>2018-07-20T14:17:35Z</time>
      </trkpt>
      <trkpt lat="42.412122" lon="-8.483753">
        <ele>557.508</ele>
        <time>2018-07-20T14:17:55Z</time>
      </trkpt>
      <trkpt lat="42.412089" lon="-8.483398">
        <ele>553.367</ele>
        <time>2018-07-20T14:18:15Z</time>
      </trkpt>
      <trkpt lat="42.411952" lon="-8.483174">
        <ele>549.261</ele>
        <time>2018-07-20T14:18:35Z</time>
      </trkpt>
      <trkpt lat="42.411779" lon="-8.483021">
        <ele>545.452</ele>
        <time>2018-07-20T14:18:55Z</time>
      </trkpt>
      <trkpt lat="42.411607" lon="-8.483017">
        <ele>543.829</ele>
        <time>2018-07-20T14:19:15Z</time>
      </trkpt>
      <trkpt lat="42.411391" lon="-8.483081">
        <ele>541.274</ele>
        <time>2018-07-20T14:19:35Z</time>
      </trkpt>
      <trkpt lat="42.411178" lon="-8.483204">
        <ele>538.724</ele>
        <time>2018-07-20T14:19:55Z</time>
      </trkpt>
      <trkpt lat="42.411005" lon="-8.483240">
        <ele>537.679</ele>
        <time>2018-07-20T14:20:15Z</time>
      </trkpt>
      <trkpt lat="42.410874" lon="-8.483145">
        <ele>536.155</ele>
        <time>2018-07-20T14:20:35Z</time>
      </trkpt>
      <trkpt lat="42.410754" lon="-8.482909">
        <ele>534.629</ele>
        <time>2018-07-20T14:20:55Z</time>
      </trkpt>
      <trkpt lat="42.410688" lon="-8.482749">
        <ele>534.700</ele>
        <time>2018-07-20T14:21:15Z</time>
      </trkpt>
      <trkpt lat="42.410685" lon="-8.482533">
        <ele>535.920</ele>
        <time>2018-07-20T14:21:35Z</time>
      </trkpt>
      <trkpt lat="42.410725" lon="-8.482377">
        <ele>536.008</ele>
        <time>2018-07-20T14:21:55Z</time>
      </trkpt>
      <trkpt lat="42.410843" lon="-8.482236">
        <ele>536.014</ele>
        <time>2018-07-20T14:22:15Z</time>
      </trkpt>
      <trkpt lat="42.411024" lon="-8.482108">
        <ele>535.488</ele>
        <time>2018-07-20T14:22:35Z</time>
      </trkpt>
      <trkpt lat="42.411156" lon="-8.481931">
        <ele>533.389</ele>
        <time>2018-07-20T14:22:55Z</time>
      </trkpt>
      <trkpt lat="42.411168" lon="-8.481909">
        <ele>532.946</ele>
        <time>2018-07-20T14:23:15Z</time>
      </trkpt>
      <trkpt lat="42.411236" lon="-8.481636">
        <ele>529.921</ele>
        <time>2018-07-20T14:23:35Z</time>
      </trkpt>
      <trkpt lat="42.411139" lon="-8.481250">
        <ele>526.861</ele>
        <time>2018-07-20T14:23:55Z</time>
      </trkpt>
      <trkpt lat="42.411001" lon="-8.480832">
        <ele>526.256</ele>
        <time>2018-07-20T14:24:15Z</time>
      </trkpt>
      <trkpt lat="42.410918" lon="-8.480342">
        <ele>524.822</ele>
        <time>2018-07-20T14:24:35Z</time>
      </trkpt>
      <trkpt lat="42.411017" lon="-8.479727">
        <ele>520.099</ele>
        <time>2018-07-20T14:24:55Z</time>
      </trkpt>
      <trkpt lat="42.411306" lon="-8.479165">
        <ele>516.307</ele>
        <time>2018-07-20T14:25:15Z</time>
      </trkpt>
      <trkpt lat="42.411560" lon="-8.478915">
        <ele>515.427</ele>
        <time>2018-07-20T14:25:35Z</time>
      </trkpt>
      <trkpt lat="42.411829" lon="-8.478748">
        <ele>514.308</ele>
        <time>2018-07-20T14:25:55Z</time>
      </trkpt>
      <trkpt lat="42.412037" lon="-8.478706">
        <ele>513.571</ele>
        <time>2018-07-20T14:26:15Z</time>
      </trkpt>
      <trkpt lat="42.412286" lon="-8.478737">
        <ele>511.795</ele>
        <time>2018-07-20T14:26:35Z</time>
      </trkpt>
      <trkpt lat="42.412638" lon="-8.478702">
        <ele>509.486</ele>
        <time>2018-07-20T14:26:55Z</time>
      </trkpt>
      <trkpt lat="42.413060" lon="-8.478350">
        <ele>505.063</ele>
        <time>2018-07-20T14:27:15Z</time>
      </trkpt>
      <trkpt lat="42.413262" lon="-8.478073">
        <ele>504.018</ele>
        <time>2018-07-20T14:27:35Z</time>
      </trkpt>
      <trkpt lat="42.413297" lon="-8.477698">
        <ele>501.068</ele>
        <time>2018-07-20T14:27:55Z</time>
      </trkpt>
      <trkpt lat="42.413304" lon="-8.477671">
        <ele>500.743</ele>
        <time>2018-07-20T14:28:15Z</time>
      </trkpt>
      <trkpt lat="42.413188" lon="-8.477174">
        <ele>499.469</ele>
        <time>2018-07-20T14:28:35Z</time>
      </trkpt>
      <trkpt lat="42.413131" lon="-8.476877">
        <ele>499.045</ele>
        <time>2018-07-20T14:28:55Z</time>
      </trkpt>
      <trkpt lat="42.412949" lon="-8.476396">
        <ele>498.047</ele>
        <time>2018-07-20T14:29:15Z</time>
      </trkpt>
      <trkpt lat="42.412807" lon="-8.475950">
        <ele>496.311</ele>
        <time>2018-07-20T14:29:35Z</time>
      </trkpt>
      <trkpt lat="42.412777" lon="-8.475636">
        <ele>492.208</ele>
        <time>2018-07-20T14:29:55Z</time>
      </trkpt>
      <trkpt lat="42.412786" lon="-8.475633">
        <ele>492.116</ele>
        <time>2018-07-20T14:30:15Z</time>
      </trkpt>
      <trkpt lat="42.412910" lon="-8.475450">
        <ele>490.230</ele>
        <time>2018-07-20T14:30:35Z</time>
      </trkpt>
      <trkpt lat="42.413066" lon="-8.475383">
        <ele>489.871</ele>
        <time>2018-07-20T14:30:55Z</time>
      </trkpt>
      <trkpt lat="42.413123" lon="-8.475545">
        <ele>490.928</ele>
        <time>2018-07-20T14:31:15Z</time>
      </trkpt>
      <trkpt lat="42.413250" lon="-8.475784">
        <ele>491.253</ele>
        <time>2018-07-20T14:31:35Z</time>
      </trkpt>
      <trkpt lat="42.413400" lon="-8.475990">
        <ele>490.883</ele>
        <time>2018-07-20T14:31:55Z</time>
      </trkpt>
      <trkpt lat="42.413565" lon="-8.476234">
        <ele>490.658</ele>
        <time>2018-07-20T14:32:15Z</time>
      </trkpt>
      <trkpt lat="42.413614" lon="-8.476243">
        <ele>490.474</ele>
        <time>2018-07-20T14:32:35Z</time>
      </trkpt>
      <trkpt lat="42.413920" lon="-8.476298">
        <ele>486.168</ele>
        <time>2018-07-20T14:32:55Z</time>
      </trkpt>
      <trkpt lat="42.414253" lon="-8.476269">
        <ele>483.142</ele>
        <time>2018-07-20T14:33:15Z</time>
      </trkpt>
      <trkpt lat="42.414449" lon="-8.476069">
        <ele>480.826</ele>
        <time>2018-07-20T14:33:35Z</time>
      </trkpt>
      <trkpt lat="42.414583" lon="-8.475621">
        <ele>474.408</ele>
        <time>2018-07-20T14:33:55Z</time>
      </trkpt>
      <trkpt lat="42.414605" lon="-8.475347">
        <ele>474.438</ele>
        <time>2018-07-20T14:34:15Z</time>
      </trkpt>
      <trkpt lat="42.414726" lon="-8.475151">
        <ele>471.392</ele>
        <time>2018-07-20T14:34:35Z</time>
      </trkpt>
      <trkpt lat="42.414607" lon="-8.474940">
        <ele>474.363</ele>
        <time>2018-07-20T14:34:55Z</time>
      </trkpt>
      <trkpt lat="42.414586" lon="-8.474693">
        <ele>472.480</ele>
        <time>2018-07-20T14:35:15Z</time>
      </trkpt>
      <trkpt lat="42.414701" lon="-8.474499">
        <ele>465.785</ele>
        <time>2018-07-20T14:35:35Z</time>
      </trkpt>
      <trkpt lat="42.414500" lon="-8.474104">
        <ele>468.495</ele>
        <time>2018-07-20T14:35:55Z</time>
      </trkpt>
      <trkpt lat="42.414505" lon="-8.473811">
        <ele>466.980</ele>
        <time>2018-07-20T14:36:15Z</time>
      </trkpt>
      <trkpt lat="42.414571" lon="-8.473564">
        <ele>464.536</ele>
        <time>2018-07-20T14:36:35Z</time>
      </trkpt>
      <trkpt lat="42.414716" lon="-8.473433">
        <ele>459.916</ele>
        <time>2018-07-20T14:36:55Z</time>
      </trkpt>
      <trkpt lat="42.414717" lon="-8.473177">
        <ele>458.076</ele>
        <time>2018-07-20T14:37:15Z</time>
      </trkpt>
      <trkpt lat="42.414701" lon="-8.473166">
        <ele>458.313</ele>
        <time>2018-07-20T14:37:35Z</time>
      </trkpt>
      <trkpt lat="42.414538" lon="-8.472796">
        <ele>457.608</ele>
        <time>2018-07-20T14:37:55Z</time>
      </trkpt>
      <trkpt lat="42.414455" lon="-8.472450">
        <ele>453.333</ele>
        <time>2018-07-20T14:38:15Z</time>
      </trkpt>
      <trkpt lat="42.414314" lon="-8.472286">
        <ele>453.357</ele>
        <time>2018-07-20T14:38:35Z</time>
      </trkpt>
      <trkpt lat="42.414247" lon="-8.471923">
        <ele>449.138</ele>
        <time>2018-07-20T14:38:55Z</time>
      </trkpt>
      <trkpt lat="42.414115" lon="-8.471585">
        <ele>445.325</ele>
        <time>2018-07-20T14:39:15Z</time>
      </trkpt>
      <trkpt lat="42.414116" lon="-8.471568">
        <ele>445.180</ele>
        <time>2018-07-20T14:39:35Z</time>
      </trkpt>
      <trkpt lat="42.414048" lon="-8.471329">
        <ele>443.240</ele>
        <time>2018-07-20T14:39:55Z</time>
      </trkpt>
      <trkpt lat="42.413905" lon="-8.471179">
        <ele>443.525</ele>
        <time>2018-07-20T14:40:15Z</time>
      </trkpt>
      <trkpt lat="42.413766" lon="-8.470990">
        <ele>441.061</ele>
        <time>2018-07-20T14:40:35Z</time>
      </trkpt>
      <trkpt lat="42.413535" lon="-8.470738">
        <ele>438.099</ele>
        <time>2018-07-20T14:40:55Z</time>
      </trkpt>
      <trkpt lat="42.413376" lon="-8.470528">
        <ele>435.707</ele>
        <time>2018-07-20T14:41:15Z</time>
      </trkpt>
      <trkpt lat="42.413212" lon="-8.470352">
        <ele>434.527</ele>
        <time>2018-07-20T14:41:35Z</time>
      </trkpt>
      <trkpt lat="42.413103" lon="-8.470116">
        <ele>432.008</ele>
        <time>2018-07-20T14:41:55Z</time>
      </trkpt>
      <trkpt lat="42.412979" lon="-8.469836">
        <ele>429.891</ele>
        <time>2018-07-20T14:42:15Z</time>
      </trkpt>
      <trkpt lat="42.412870" lon="-8.469605">
        <ele>429.755</ele>
        <time>2018-07-20T14:42:35Z</time>
      </trkpt>
      <trkpt lat="42.412776" lon="-8.469406">
        <ele>429.956</ele>
        <time>2018-07-20T14:42:55Z</time>
      </trkpt>
      <trkpt lat="42.412873" lon="-8.469356">
        <ele>429.053</ele>
        <time>2018-07-20T14:43:15Z</time>
      </trkpt>
      <trkpt lat="42.413126" lon="-8.469412">
        <ele>427.428</ele>
        <time>2018-07-20T14:43:35Z</time>
      </trkpt>
      <trkpt lat="42.413359" lon="-8.469422">
        <ele>425.868</ele>
        <time>2018-07-20T14:43:55Z</time>
      </trkpt>
      <trkpt lat="42.413505" lon="-8.469448">
        <ele>425.443</ele>
        <time>2018-07-20T14:44:15Z</time>
      </trkpt>
      <trkpt lat="42.413742" lon="-8.469205">
        <ele>424.989</ele>
        <time>2018-07-20T14:44:35Z</time>
      </trkpt>
      <trkpt lat="42.413771" lon="-8.469187">
        <ele>425.036</ele>
        <time>2018-07-20T14:44:55Z</time>
      </trkpt>
      <trkpt lat="42.413962" lon="-8.468941">
        <ele>425.217</ele>
        <time>2018-07-20T14:45:15Z</time>
      </trkpt>
      <trkpt lat="42.413985" lon="-8.468924">
        <ele>425.318</ele>
        <time>2018-07-20T14:45:35Z</time>
      </trkpt>
      <trkpt lat="42.414202" lon="-8.468757">
        <ele>425.108</ele>
        <time>2018-07-20T14:45:55Z</time>
      </trkpt>
      <trkpt lat="42.414543" lon="-8.468419">
        <ele>419.425</ele>
        <time>2018-07-20T14:46:15Z</time>
      </trkpt>
      <trkpt lat="42.414786" lon="-8.468028">
        <ele>413.569</ele>
        <time>2018-07-20T14:46:35Z</time>
      </trkpt>
      <trkpt lat="42.414816" lon="-8.467827">
        <ele>411.280</ele>
        <time>2018-07-20T14:46:55Z</time>
      </trkpt>
      <trkpt lat="42.414821" lon="-8.467795">
        <ele>410.847</ele>
        <time>2018-07-20T14:47:15Z</time>
      </trkpt>
      <trkpt lat="42.414913" lon="-8.467624">
        <ele>408.522</ele>
        <time>2018-07-20T14:47:35Z</time>
      </trkpt>
      <trkpt lat="42.415116" lon="-8.467424">
        <ele>405.472</ele>
        <time>2018-07-20T14:47:55Z</time>
      </trkpt>
      <trkpt lat="42.415183" lon="-8.467196">
        <ele>402.387</ele>
        <time>2018-07-20T14:48:15Z</time>
      </trkpt>
      <trkpt lat="42.415211" lon="-8.467036">
        <ele>400.653</ele>
        <time>2018-07-20T14:48:35Z</time>
      </trkpt>
      <trkpt lat="42.415404" lon="-8.466863">
        <ele>400.867</ele>
        <time>2018-07-20T14:48:55Z</time>
      </trkpt>
      <trkpt lat="42.415565" lon="-8.466743">
        <ele>402.381</ele>
        <time>2018-07-20T14:49:15Z</time>
      </trkpt>
      <trkpt lat="42.415639" lon="-8.466463">
        <ele>400.319</ele>
        <time>2018-07-20T14:49:35Z</time>
      </trkpt>
      <trkpt lat="42.415822" lon="-8.466306">
        <ele>399.708</ele>
        <time>2018-07-20T14:49:55Z</time>
      </trkpt>
      <trkpt lat="42.415961" lon="-8.466335">
        <ele>397.678</ele>
        <time>2018-07-20T14:50:15Z</time>
      </trkpt>
      <trkpt lat="42.416039" lon="-8.466390">
        <ele>396.692</ele>
        <time>2018-07-20T14:50:35Z</time>
      </trkpt>
      <trkpt lat="42.416091" lon="-8.466517">
        <ele>396.413</ele>
        <time>2018-07-20T14:50:55Z</time>
      </trkpt>
      <trkpt lat="42.416199" lon="-8.466604">
        <ele>394.370</ele>
        <time>2018-07-20T14:51:15Z</time>
      </trkpt>
      <trkpt lat="42.416205" lon="-8.466743">
        <ele>395.245</ele>
        <time>2018-07-20T14:51:35Z</time>
      </trkpt>
      <trkpt lat="42.416247" lon="-8.466833">
        <ele>394.895</ele>
        <time>2018-07-20T14:51:55Z</time>
      </trkpt>
      <trkpt lat="42.416364" lon="-8.466894">
        <ele>392.380</ele>
        <time>2018-07-20T14:52:15Z</time>
      </trkpt>
      <trkpt lat="42.416472" lon="-8.466908">
        <ele>390.636</ele>
        <time>2018-07-20T14:52:35Z</time>
      </trkpt>
      <trkpt lat="42.416512" lon="-8.466787">
        <ele>389.377</ele>
        <time>2018-07-20T14:52:55Z</time>
      </trkpt>
      <trkpt lat="42.416552" lon="-8.466665">
        <ele>388.261</ele>
        <time>2018-07-20T14:53:15Z</time>
      </trkpt>
      <trkpt lat="42.416573" lon="-8.466541">
        <ele>387.627</ele>
        <time>2018-07-20T14:53:35Z</time>
      </trkpt>
      <trkpt lat="42.416644" lon="-8.466389">
        <ele>387.008</ele>
        <time>2018-07-20T14:53:55Z</time>
      </trkpt>
      <trkpt lat="42.416745" lon="-8.466278">
        <ele>386.929</ele>
        <time>2018-07-20T14:54:15Z</time>
      </trkpt>
      <trkpt lat="42.416881" lon="-8.466305">
        <ele>388.543</ele>
        <time>2018-07-20T14:54:35Z</time>
      </trkpt>
      <trkpt lat="42.416920" lon="-8.466384">
        <ele>389.794</ele>
        <time>2018-07-20T14:54:55Z</time>
      </trkpt>
      <trkpt lat="42.416959" lon="-8.466464">
        <ele>390.261</ele>
        <time>2018-07-20T14:55:15Z</time>
      </trkpt>
      <trkpt lat="42.417080" lon="-8.466498">
        <ele>392.056</ele>
        <time>2018-07-20T14:55:35Z</time>
      </trkpt>
      <trkpt lat="42.417247" lon="-8.466478">
        <ele>394.316</ele>
        <time>2018-07-20T14:55:55Z</time>
      </trkpt>
      <trkpt lat="42.417429" lon="-8.466330">
        <ele>396.271</ele>
        <time>2018-07-20T14:56:15Z</time>
      </trkpt>
      <trkpt lat="42.417587" lon="-8.466090">
        <ele>398.777</ele>
        <time>2018-07-20T14:56:35Z</time>
      </trkpt>
      <trkpt lat="42.417614" lon="-8.465894">
        <ele>400.893</ele>
        <time>2018-07-20T14:56:55Z</time>
      </trkpt>
      <trkpt lat="42.417672" lon="-8.465563">
        <ele>403.865</ele>
        <time>2018-07-20T14:57:15Z</time>
      </trkpt>
      <trkpt lat="42.417735" lon="-8.465219">
        <ele>403.921</ele>
        <time>2018-07-20T14:57:35Z</time>
      </trkpt>
      <trkpt lat="42.417961" lon="-8.465043">
        <ele>402.408</ele>
        <time>2018-07-20T14:57:55Z</time>
      </trkpt>
      <trkpt lat="42.418211" lon="-8.464905">
        <ele>401.731</ele>
        <time>2018-07-20T14:58:15Z</time>
      </trkpt>
      <trkpt lat="42.418474" lon="-8.464900">
        <ele>402.375</ele>
        <time>2018-07-20T14:58:35Z</time>
      </trkpt>
      <trkpt lat="42.418731" lon="-8.464787">
        <ele>403.096</ele>
        <time>2018-07-20T14:58:55Z</time>
      </trkpt>
      <trkpt lat="42.419094" lon="-8.464699">
        <ele>405.513</ele>
        <time>2018-07-20T14:59:15Z</time>
      </trkpt>
      <trkpt lat="42.419271" lon="-8.464507">
        <ele>406.428</ele>
        <time>2018-07-20T14:59:35Z</time>
      </trkpt>
      <trkpt lat="42.419400" lon="-8.464153">
        <ele>407.548</ele>
        <time>2018-07-20T14:59:55Z</time>
      </trkpt>
      <trkpt lat="42.419430" lon="-8.464073">
        <ele>407.823</ele>
        <time>2018-07-20T15:00:15Z</time>
      </trkpt>
      <trkpt lat="42.419529" lon="-8.463725">
        <ele>409.639</ele>
        <time>2018-07-20T15:00:35Z</time>
      </trkpt>
      <trkpt lat="42.419540" lon="-8.463675">
        <ele>410.086</ele>
        <time>2018-07-20T15:00:55Z</time>
      </trkpt>
      <trkpt lat="42.419664" lon="-8.463139">
        <ele>415.260</ele>
        <time>2018-07-20T15:01:15Z</time>
      </trkpt>
      <trkpt lat="42.419680" lon="-8.463120">
        <ele>415.526</ele>
        <time>2018-07-20T15:01:35Z</time>
      </trkpt>
      <trkpt lat="42.419732" lon="-8.462769">
        <ele>416.108</ele>
        <time>2018-07-20T15:01:55Z</time>
      </trkpt>
      <trkpt lat="42.419888" lon="-8.462774">
        <ele>417.850</ele>
        <time>2018-07-20T15:02:15Z</time>
      </trkpt>
      <trkpt lat="42.420052" lon="-8.462789">
        <ele>419.624</ele>
        <time>2018-07-20T15:02:35Z</time>
      </trkpt>
      <trkpt lat="42.420085" lon="-8.462904">
        <ele>420.145</ele>
        <time>2018-07-20T15:02:55Z</time>
      </trkpt>
      <trkpt lat="42.420064" lon="-8.463034">
        <ele>420.242</ele>
        <time>2018-07-20T15:03:15Z</time>
      </trkpt>
      <trkpt lat="42.420060" lon="-8.463215">
        <ele>420.137</ele>
        <time>2018-07-20T15:03:35Z</time>
      </trkpt>
      <trkpt lat="42.420186" lon="-8.463308">
        <ele>420.167</ele>
        <time>2018-07-20T15:03:55Z</time>
      </trkpt>
      <trkpt lat="42.420422" lon="-8.463657">
        <ele>414.732</ele>
        <time>2018-07-20T15:04:15Z</time>
      </trkpt>
      <trkpt lat="42.420718" lon="-8.463739">
        <ele>410.718</ele>
        <time>2018-07-20T15:04:35Z</time>
      </trkpt>
      <trkpt lat="42.421058" lon="-8.463990">
        <ele>404.837</ele>
        <time>2018-07-20T15:04:55Z</time>
      </trkpt>
      <trkpt lat="42.421253" lon="-8.464096">
        <ele>401.349</ele>
        <time>2018-07-20T15:05:15Z</time>
      </trkpt>
      <trkpt lat="42.421416" lon="-8.463731">
        <ele>401.113</ele>
        <time>2018-07-20T15:05:35Z</time>
      </trkpt>
      <trkpt lat="42.421440" lon="-8.463105">
        <ele>405.908</ele>
        <time>2018-07-20T15:05:55Z</time>
      </trkpt>
      <trkpt lat="42.421540" lon="-8.462430">
        <ele>410.535</ele>
        <time>2018-07-20T15:06:15Z</time>
      </trkpt>
      <trkpt lat="42.421666" lon="-8.461733">
        <ele>416.349</ele>
        <time>2018-07-20T15:06:35Z</time>
      </trkpt>
      <trkpt lat="42.421753" lon="-8.461118">
        <ele>423.090</ele>
        <time>2018-07-20T15:06:55Z</time>
      </trkpt>
      <trkpt lat="42.421775" lon="-8.460510">
        <ele>427.057</ele>
        <time>2018-07-20T15:07:15Z</time>
      </trkpt>
      <trkpt lat="42.421952" lon="-8.459800">
        <ele>429.062</ele>
        <time>2018-07-20T15:07:35Z</time>
      </trkpt>
      <trkpt lat="42.421995" lon="-8.459255">
        <ele>429.732</ele>
        <time>2018-07-20T15:07:55Z</time>
      </trkpt>
      <trkpt lat="42.422172" lon="-8.458687">
        <ele>437.587</ele>
        <time>2018-07-20T15:08:15Z</time>
      </trkpt>
      <trkpt lat="42.422112" lon="-8.458156">
        <ele>446.833</ele>
        <time>2018-07-20T15:08:35Z</time>
      </trkpt>
      <trkpt lat="42.422173" lon="-8.457437">
        <ele>459.476</ele>
        <time>2018-07-20T15:08:55Z</time>
      </trkpt>
      <trkpt lat="42.422225" lon="-8.457090">
        <ele>464.490</ele>
        <time>2018-07-20T15:09:15Z</time>
      </trkpt>
      <trkpt lat="42.422237" lon="-8.456677">
        <ele>469.119</ele>
        <time>2018-07-20T15:09:35Z</time>
      </trkpt>
      <trkpt lat="42.422328" lon="-8.456377">
        <ele>473.508</ele>
        <time>2018-07-20T15:09:55Z</time>
      </trkpt>
      <trkpt lat="42.422410" lon="-8.456150">
        <ele>479.759</ele>
        <time>2018-07-20T15:10:15Z</time>
      </trkpt>
      <trkpt lat="42.422563" lon="-8.455740">
        <ele>491.743</ele>
        <time>2018-07-20T15:10:35Z</time>
      </trkpt>
      <trkpt lat="42.422738" lon="-8.455364">
        <ele>502.084</ele>
        <time>2018-07-20T15:10:55Z</time>
      </trkpt>
      <trkpt lat="42.422890" lon="-8.455063">
        <ele>507.571</ele>
        <time>2018-07-20T15:11:15Z</time>
      </trkpt>
      <trkpt lat="42.422872" lon="-8.454810">
        <ele>508.966</ele>
        <time>2018-07-20T15:11:35Z</time>
      </trkpt>
      <trkpt lat="42.422796" lon="-8.454420">
        <ele>512.536</ele>
        <time>2018-07-20T15:11:55Z</time>
      </trkpt>
      <trkpt lat="42.422649" lon="-8.454086">
        <ele>513.861</ele>
        <time>2018-07-20T15:12:15Z</time>
      </trkpt>
      <trkpt lat="42.422504" lon="-8.453632">
        <ele>516.867</ele>
        <time>2018-07-20T15:12:35Z</time>
      </trkpt>
      <trkpt lat="42.422338" lon="-8.453080">
        <ele>520.824</ele>
        <time>2018-07-20T15:12:55Z</time>
      </trkpt>
      <trkpt lat="42.422330" lon="-8.452683">
        <ele>522.804</ele>
        <time>2018-07-20T15:13:15Z</time>
      </trkpt>
      <trkpt lat="42.422327" lon="-8.452346">
        <ele>523.914</ele>
        <time>2018-07-20T15:13:35Z</time>
      </trkpt>
      <trkpt lat="42.422238" lon="-8.452205">
        <ele>523.208</ele>
        <time>2018-07-20T15:13:55Z</time>
      </trkpt>
      <trkpt lat="42.422068" lon="-8.451825">
        <ele>520.874</ele>
        <time>2018-07-20T15:14:15Z</time>
      </trkpt>
      <trkpt lat="42.421802" lon="-8.451130">
        <ele>517.028</ele>
        <time>2018-07-20T15:14:35Z</time>
      </trkpt>
      <trkpt lat="42.421612" lon="-8.450651">
        <ele>512.339</ele>
        <time>2018-07-20T15:14:55Z</time>
      </trkpt>
      <trkpt lat="42.421445" lon="-8.449981">
        <ele>506.036</ele>
        <time>2018-07-20T15:15:15Z</time>
      </trkpt>
      <trkpt lat="42.421261" lon="-8.449514">
        <ele>499.341</ele>
        <time>2018-07-20T15:15:35Z</time>
      </trkpt>
      <trkpt lat="42.421079" lon="-8.449168">
        <ele>492.231</ele>
        <time>2018-07-20T15:15:55Z</time>
      </trkpt>
      <trkpt lat="42.420935" lon="-8.448773">
        <ele>480.296</ele>
        <time>2018-07-20T15:16:15Z</time>
      </trkpt>
      <trkpt lat="42.420866" lon="-8.448418">
        <ele>472.872</ele>
        <time>2018-07-20T15:16:35Z</time>
      </trkpt>
      <trkpt lat="42.420771" lon="-8.448011">
        <ele>467.769</ele>
        <time>2018-07-20T15:16:55Z</time>
      </trkpt>
      <trkpt lat="42.420773" lon="-8.447995">
        <ele>467.504</ele>
        <time>2018-07-20T15:17:15Z</time>
      </trkpt>
      <trkpt lat="42.420575" lon="-8.447607">
        <ele>462.024</ele>
        <time>2018-07-20T15:17:35Z</time>
      </trkpt>
      <trkpt lat="42.420410" lon="-8.447413">
        <ele>457.608</ele>
        <time>2018-07-20T15:17:55Z</time>
      </trkpt>
      <trkpt lat="42.420088" lon="-8.447411">
        <ele>453.368</ele>
        <time>2018-07-20T15:18:15Z</time>
      </trkpt>
      <trkpt lat="42.419791" lon="-8.447455">
        <ele>449.362</ele>
        <time>2018-07-20T15:18:35Z</time>
      </trkpt>
      <trkpt lat="42.419579" lon="-8.447500">
        <ele>445.963</ele>
        <time>2018-07-20T15:18:55Z</time>
      </trkpt>
      <trkpt lat="42.419381" lon="-8.447519">
        <ele>443.320</ele>
        <time>2018-07-20T15:19:15Z</time>
      </trkpt>
      <trkpt lat="42.419067" lon="-8.447502">
        <ele>440.375</ele>
        <time>2018-07-20T15:19:35Z</time>
      </trkpt>
      <trkpt lat="42.418860" lon="-8.447376">
        <ele>439.455</ele>
        <time>2018-07-20T15:19:55Z</time>
      </trkpt>
      <trkpt lat="42.418735" lon="-8.447216">
        <ele>438.870</ele>
        <time>2018-07-20T15:20:15Z</time>
      </trkpt>
      <trkpt lat="42.418650" lon="-8.446940">
        <ele>439.496</ele>
        <time>2018-07-20T15:20:35Z</time>
      </trkpt>
      <trkpt lat="42.418615" lon="-8.446751">
        <ele>439.712</ele>
        <time>2018-07-20T15:20:55Z</time>
      </trkpt>
      <trkpt lat="42.418522" lon="-8.446669">
        <ele>438.732</ele>
        <time>2018-07-20T15:21:15Z</time>
      </trkpt>
      <trkpt lat="42.418418" lon="-8.446665">
        <ele>437.205</ele>
        <time>2018-07-20T15:21:35Z</time>
      </trkpt>
      <trkpt lat="42.418380" lon="-8.446716">
        <ele>436.208</ele>
        <time>2018-07-20T15:21:55Z</time>
      </trkpt>
      <trkpt lat="42.418305" lon="-8.446792">
        <ele>434.263</ele>
        <time>2018-07-20T15:22:15Z</time>
      </trkpt>
      <trkpt lat="42.418256" lon="-8.446843">
        <ele>433.017</ele>
        <time>2018-07-20T15:22:35Z</time>
      </trkpt>
      <trkpt lat="42.418164" lon="-8.446841">
        <ele>431.768</ele>
        <time>2018-07-20T15:22:55Z</time>
      </trkpt>
      <trkpt lat="42.418006" lon="-8.446789">
        <ele>429.825</ele>
        <time>2018-07-20T15:23:15Z</time>
      </trkpt>
      <trkpt lat="42.417795" lon="-8.446868">
        <ele>426.220</ele>
        <time>2018-07-20T15:23:35Z</time>
      </trkpt>
      <trkpt lat="42.417571" lon="-8.446830">
        <ele>423.980</ele>
        <time>2018-07-20T15:23:55Z</time>
      </trkpt>
      <trkpt lat="42.417525" lon="-8.446691">
        <ele>422.515</ele>
        <time>2018-07-20T15:24:15Z</time>
      </trkpt>
      <trkpt lat="42.417499" lon="-8.446468">
        <ele>419.841</ele>
        <time>2018-07-20T15:24:35Z</time>
      </trkpt>
      <trkpt lat="42.417507" lon="-8.446237">
        <ele>417.547</ele>
        <time>2018-07-20T15:24:55Z</time>
      </trkpt>
      <trkpt lat="42.417483" lon="-8.446049">
        <ele>414.729</ele>
        <time>2018-07-20T15:25:15Z</time>
      </trkpt>
      <trkpt lat="42.417345" lon="-8.446023">
        <ele>411.221</ele>
        <time>2018-07-20T15:25:35Z</time>
      </trkpt>
      <trkpt lat="42.417228" lon="-8.446035">
        <ele>408.808</ele>
        <time>2018-07-20T15:25:55Z</time>
      </trkpt>
      <trkpt lat="42.417092" lon="-8.446044">
        <ele>407.726</ele>
        <time>2018-07-20T15:26:15Z</time>
      </trkpt>
      <trkpt lat="42.416989" lon="-8.445963">
        <ele>405.270</ele>
        <time>2018-07-20T15:26:35Z</time>
      </trkpt>
      <trkpt lat="42.416907" lon="-8.445899">
        <ele>403.131</ele>
        <time>2018-07-20T15:26:55Z</time>
      </trkpt>
      <trkpt lat="42.416847" lon="-8.445768">
        <ele>400.068</ele>
        <time>2018-07-20T15:27:15Z</time>
      </trkpt>
      <trkpt lat="42.416837" lon="-8.445491">
        <ele>394.083</ele>
        <time>2018-07-20T15:27:35Z</time>
      </trkpt>
      <trkpt lat="42.416752" lon="-8.445383">
        <ele>390.133</ele>
        <time>2018-07-20T15:27:55Z</time>
      </trkpt>
      <trkpt lat="42.416593" lon="-8.445354">
        <ele>386.948</ele>
        <time>2018-07-20T15:28:15Z</time>
      </trkpt>
      <trkpt lat="42.416431" lon="-8.445384">
        <ele>385.234</ele>
        <time>2018-07-20T15:28:35Z</time>
      </trkpt>
      <trkpt lat="42.416279" lon="-8.445486">
        <ele>384.638</ele>
        <time>2018-07-20T15:28:55Z</time>
      </trkpt>
      <trkpt lat="42.416057" lon="-8.445629">
        <ele>383.270</ele>
        <time>2018-07-20T15:29:15Z</time>
      </trkpt>
      <trkpt lat="42.415818" lon="-8.445834">
        <ele>381.917</ele>
        <time>2018-07-20T15:29:35Z</time>
      </trkpt>
      <trkpt lat="42.415754" lon="-8.445955">
        <ele>382.508</ele>
        <time>2018-07-20T15:29:55Z</time>
      </trkpt>
      <trkpt lat="42.415583" lon="-8.446067">
        <ele>382.075</ele>
        <time>2018-07-20T15:30:15Z</time>
      </trkpt>
      <trkpt lat="42.415506" lon="-8.445946">
        <ele>381.779</ele>
        <time>2018-07-20T15:30:35Z</time>
      </trkpt>
      <trkpt lat="42.415447" lon="-8.445674">
        <ele>381.210</ele>
        <time>2018-07-20T15:30:55Z</time>
      </trkpt>
      <trkpt lat="42.415375" lon="-8.445461">
        <ele>379.967</ele>
        <time>2018-07-20T15:31:15Z</time>
      </trkpt>
      <trkpt lat="42.415328" lon="-8.445211">
        <ele>376.712</ele>
        <time>2018-07-20T15:31:35Z</time>
      </trkpt>
      <trkpt lat="42.415081" lon="-8.445171">
        <ele>376.582</ele>
        <time>2018-07-20T15:31:55Z</time>
      </trkpt>
      <trkpt lat="42.414920" lon="-8.445151">
        <ele>375.997</ele>
        <time>2018-07-20T15:32:15Z</time>
      </trkpt>
      <trkpt lat="42.414723" lon="-8.445133">
        <ele>375.053</ele>
        <time>2018-07-20T15:32:35Z</time>
      </trkpt>
      <trkpt lat="42.414528" lon="-8.445113">
        <ele>372.034</ele>
        <time>2018-07-20T15:32:55Z</time>
      </trkpt>
      <trkpt lat="42.414243" lon="-8.445064">
        <ele>368.155</ele>
        <time>2018-07-20T15:33:15Z</time>
      </trkpt>
      <trkpt lat="42.414040" lon="-8.445064">
        <ele>367.710</ele>
        <time>2018-07-20T15:33:35Z</time>
      </trkpt>
      <trkpt lat="42.413819" lon="-8.445042">
        <ele>368.508</ele>
        <time>2018-07-20T15:33:55Z</time>
      </trkpt>
      <trkpt lat="42.413717" lon="-8.444933">
        <ele>369.775</ele>
        <time>2018-07-20T15:34:15Z</time>
      </trkpt>
      <trkpt lat="42.413659" lon="-8.444655">
        <ele>373.239</ele>
        <time>2018-07-20T15:34:35Z</time>
      </trkpt>
      <trkpt lat="42.413692" lon="-8.444338">
        <ele>377.060</ele>
        <time>2018-07-20T15:34:55Z</time>
      </trkpt>
      <trkpt lat="42.413743" lon="-8.444054">
        <ele>377.937</ele>
        <time>2018-07-20T15:35:15Z</time>
      </trkpt>
      <trkpt lat="42.413851" lon="-8.443807">
        <ele>375.332</ele>
        <time>2018-07-20T15:35:35Z</time>
      </trkpt>
      <trkpt lat="42.413879" lon="-8.443791">
        <ele>374.422</ele>
        <time>2018-07-20T15:35:55Z</time>
      </trkpt>
      <trkpt lat="42.414015" lon="-8.443734">
        <ele>372.437</ele>
        <time>2018-07-20T15:36:15Z</time>
      </trkpt>
      <trkpt lat="42.414173" lon="-8.443718">
        <ele>369.973</ele>
        <time>2018-07-20T15:36:35Z</time>
      </trkpt>
      <trkpt lat="42.414220" lon="-8.443691">
        <ele>370.559</ele>
        <time>2018-07-20T15:36:55Z</time>
      </trkpt>
      <trkpt lat="42.414367" lon="-8.443671">
        <ele>371.803</ele>
        <time>2018-07-20T15:37:15Z</time>
      </trkpt>
      <trkpt lat="42.414446" lon="-8.443471">
        <ele>374.023</ele>
        <time>2018-07-20T15:37:35Z</time>
      </trkpt>
      <trkpt lat="42.414521" lon="-8.443154">
        <ele>375.608</ele>
        <time>2018-07-20T15:37:55Z</time>
      </trkpt>
      <trkpt lat="42.414651" lon="-8.443026">
        <ele>376.317</ele>
        <time>2018-07-20T15:38:15Z</time>
      </trkpt>
      <trkpt lat="42.414776" lon="-8.443038">
        <ele>377.651</ele>
        <time>2018-07-20T15:38:35Z</time>
      </trkpt>
      <trkpt lat="42.414785" lon="-8.443042">
        <ele>377.822</ele>
        <time>2018-07-20T15:38:55Z</time>
      </trkpt>
      <trkpt lat="42.414933" lon="-8.443043">
        <ele>379.959</ele>
        <time>2018-07-20T15:39:15Z</time>
      </trkpt>
      <trkpt lat="42.414942" lon="-8.443038">
        <ele>380.024</ele>
        <time>2018-07-20T15:39:35Z</time>
      </trkpt>
      <trkpt lat="42.415011" lon="-8.443012">
        <ele>380.984</ele>
        <time>2018-07-20T15:39:55Z</time>
      </trkpt>
      <trkpt lat="42.415223" lon="-8.442884">
        <ele>383.549</ele>
        <time>2018-07-20T15:40:15Z</time>
      </trkpt>
      <trkpt lat="42.415426" lon="-8.442757">
        <ele>386.155</ele>
        <time>2018-07-20T15:40:35Z</time>
      </trkpt>
      <trkpt lat="42.415436" lon="-8.442745">
        <ele>386.298</ele>
        <time>2018-07-20T15:40:55Z</time>
      </trkpt>
      <trkpt lat="42.415623" lon="-8.442515">
        <ele>387.715</ele>
        <time>2018-07-20T15:41:15Z</time>
      </trkpt>
      <trkpt lat="42.415723" lon="-8.442386">
        <ele>389.726</ele>
        <time>2018-07-20T15:41:35Z</time>
      </trkpt>
      <trkpt lat="42.415914" lon="-8.442100">
        <ele>396.308</ele>
        <time>2018-07-20T15:41:55Z</time>
      </trkpt>
      <trkpt lat="42.416171" lon="-8.441979">
        <ele>404.471</ele>
        <time>2018-07-20T15:42:15Z</time>
      </trkpt>
      <trkpt lat="42.416462" lon="-8.441767">
        <ele>412.225</ele>
        <time>2018-07-20T15:42:35Z</time>
      </trkpt>
      <trkpt lat="42.416764" lon="-8.441607">
        <ele>415.926</ele>
        <time>2018-07-20T15:42:55Z</time>
      </trkpt>
      <trkpt lat="42.417150" lon="-8.441411">
        <ele>418.443</ele>
        <time>2018-07-20T15:43:15Z</time>
      </trkpt>
      <trkpt lat="42.417188" lon="-8.441375">
        <ele>418.558</ele>
        <time>2018-07-20T15:43:35Z</time>
      </trkpt>
      <trkpt lat="42.417420" lon="-8.441208">
        <ele>419.528</ele>
        <time>2018-07-20T15:43:55Z</time>
      </trkpt>
      <trkpt lat="42.417522" lon="-8.441034">
        <ele>421.973</ele>
        <time>2018-07-20T15:44:15Z</time>
      </trkpt>
      <trkpt lat="42.417679" lon="-8.440761">
        <ele>425.249</ele>
        <time>2018-07-20T15:44:35Z</time>
      </trkpt>
      <trkpt lat="42.417859" lon="-8.440414">
        <ele>427.435</ele>
        <time>2018-07-20T15:44:55Z</time>
      </trkpt>
      <trkpt lat="42.417986" lon="-8.440120">
        <ele>428.786</ele>
        <time>2018-07-20T15:45:15Z</time>
      </trkpt>
      <trkpt lat="42.418277" lon="-8.439821">
        <ele>429.214</ele>
        <time>2018-07-20T15:45:35Z</time>
      </trkpt>
      <trkpt lat="42.418434" lon="-8.439789">
        <ele>430.208</ele>
        <time>2018-07-20T15:45:55Z</time>
      </trkpt>
      <trkpt lat="42.418755" lon="-8.439692">
        <ele>433.065</ele>
        <time>2018-07-20T15:46:15Z</time>
      </trkpt>
      <trkpt lat="42.419063" lon="-8.439612">
        <ele>435.359</ele>
        <time>2018-07-20T15:46:35Z</time>
      </trkpt>
      <trkpt lat="42.419441" lon="-8.439396">
        <ele>438.330</ele>
        <time>2018-07-20T15:46:55Z</time>
      </trkpt>
      <trkpt lat="42.419614" lon="-8.439147">
        <ele>439.697</ele>
        <time>2018-07-20T15:47:15Z</time>
      </trkpt>
      <trkpt lat="42.419675" lon="-8.438810">
        <ele>442.572</ele>
        <time>2018-07-20T15:47:35Z</time>
      </trkpt>
      <trkpt lat="42.419761" lon="-8.438550">
        <ele>443.272</ele>
        <time>2018-07-20T15:47:55Z</time>
      </trkpt>
      <trkpt lat="42.419705" lon="-8.438323">
        <ele>443.937</ele>
        <time>2018-07-20T15:48:15Z</time>
      </trkpt>
      <trkpt lat="42.419693" lon="-8.438106">
        <ele>443.913</ele>
        <time>2018-07-20T15:48:35Z</time>
      </trkpt>
      <trkpt lat="42.419705" lon="-8.438068">
        <ele>443.916</ele>
        <time>2018-07-20T15:48:55Z</time>
      </trkpt>
      <trkpt lat="42.419767" lon="-8.437703">
        <ele>446.376</ele>
        <time>2018-07-20T15:49:15Z</time>
      </trkpt>
      <trkpt lat="42.419755" lon="-8.437464">
        <ele>448.013</ele>
        <time>2018-07-20T15:49:35Z</time>
      </trkpt>
      <trkpt lat="42.419775" lon="-8.437433">
        <ele>448.708</ele>
        <time>2018-07-20T15:49:55Z</time>
      </trkpt>
      <trkpt lat="42.419863" lon="-8.437362">
        <ele>451.583</ele>
        <time>2018-07-20T15:50:15Z</time>
      </trkpt>
      <trkpt lat="42.420016" lon="-8.437440">
        <ele>454.177</ele>
        <time>2018-07-20T15:50:35Z</time>
      </trkpt>
      <trkpt lat="42.420026" lon="-8.437444">
        <ele>454.218</ele>
        <time>2018-07-20T15:50:55Z</time>
      </trkpt>
      <trkpt lat="42.420165" lon="-8.437467">
        <ele>455.875</ele>
        <time>2018-07-20T15:51:15Z</time>
      </trkpt>
      <trkpt lat="42.420212" lon="-8.437466">
        <ele>456.460</ele>
        <time>2018-07-20T15:51:35Z</time>
      </trkpt>
      <trkpt lat="42.420480" lon="-8.437424">
        <ele>458.480</ele>
        <time>2018-07-20T15:51:55Z</time>
      </trkpt>
      <trkpt lat="42.420766" lon="-8.437241">
        <ele>458.425</ele>
        <time>2018-07-20T15:52:15Z</time>
      </trkpt>
      <trkpt lat="42.420910" lon="-8.436998">
        <ele>457.691</ele>
        <time>2018-07-20T15:52:35Z</time>
      </trkpt>
      <trkpt lat="42.421039" lon="-8.436819">
        <ele>458.099</ele>
        <time>2018-07-20T15:52:55Z</time>
      </trkpt>
      <trkpt lat="42.421185" lon="-8.436798">
        <ele>458.507</ele>
        <time>2018-07-20T15:53:15Z</time>
      </trkpt>
      <trkpt lat="42.421343" lon="-8.436896">
        <ele>458.327</ele>
        <time>2018-07-20T15:53:35Z</time>
      </trkpt>
      <trkpt lat="42.421526" lon="-8.436993">
        <ele>458.108</ele>
        <time>2018-07-20T15:53:55Z</time>
      </trkpt>
      <trkpt lat="42.421573" lon="-8.437005">
        <ele>458.291</ele>
        <time>2018-07-20T15:54:15Z</time>
      </trkpt>
      <trkpt lat="42.421796" lon="-8.437193">
        <ele>456.975</ele>
        <time>2018-07-20T15:54:35Z</time>
      </trkpt>
      <trkpt lat="42.422141" lon="-8.437280">
        <ele>458.136</ele>
        <time>2018-07-20T15:54:55Z</time>
      </trkpt>
      <trkpt lat="42.422203" lon="-8.437279">
        <ele>458.343</ele>
        <time>2018-07-20T15:55:15Z</time>
      </trkpt>
      <trkpt lat="42.422574" lon="-8.437238">
        <ele>458.138</ele>
        <time>2018-07-20T15:55:35Z</time>
      </trkpt>
      <trkpt lat="42.422876" lon="-8.437176">
        <ele>460.398</ele>
        <time>2018-07-20T15:55:55Z</time>
      </trkpt>
      <trkpt lat="42.423047" lon="-8.437239">
        <ele>460.663</ele>
        <time>2018-07-20T15:56:15Z</time>
      </trkpt>
      <trkpt lat="42.423338" lon="-8.437340">
        <ele>461.019</ele>
        <time>2018-07-20T15:56:35Z</time>
      </trkpt>
      <trkpt lat="42.423568" lon="-8.437664">
        <ele>453.063</ele>
        <time>2018-07-20T15:56:55Z</time>
      </trkpt>
      <trkpt lat="42.423810" lon="-8.437720">
        <ele>451.344</ele>
        <time>2018-07-20T15:57:15Z</time>
      </trkpt>
      <trkpt lat="42.423892" lon="-8.437882">
        <ele>449.218</ele>
        <time>2018-07-20T15:57:35Z</time>
      </trkpt>
      <trkpt lat="42.423949" lon="-8.438031">
        <ele>447.508</ele>
        <time>2018-07-20T15:57:55Z</time>
      </trkpt>
      <trkpt lat="42.424019" lon="-8.438167">
        <ele>446.048</ele>
        <time>2018-07-20T15:58:15Z</time>
      </trkpt>
      <trkpt lat="42.424177" lon="-8.438316">
        <ele>444.042</ele>
        <time>2018-07-20T15:58:35Z</time>
      </trkpt>
      <trkpt lat="42.424364" lon="-8.438281">
        <ele>442.873</ele>
        <time>2018-07-20T15:58:55Z</time>
      </trkpt>
      <trkpt lat="42.424504" lon="-8.438223">
        <ele>442.150</ele>
        <time>2018-07-20T15:59:15Z</time>
      </trkpt>
      <trkpt lat="42.424651" lon="-8.438244">
        <ele>441.315</ele>
        <time>2018-07-20T15:59:35Z</time>
      </trkpt>
      <trkpt lat="42.424832" lon="-8.438176">
        <ele>440.855</ele>
        <time>2018-07-20T15:59:55Z</time>
      </trkpt>
      <trkpt lat="42.425005" lon="-8.438242">
        <ele>440.610</ele>
        <time>2018-07-20T16:00:15Z</time>
      </trkpt>
      <trkpt lat="42.425187" lon="-8.438197">
        <ele>438.816</ele>
        <time>2018-07-20T16:00:35Z</time>
      </trkpt>
      <trkpt lat="42.425384" lon="-8.438129">
        <ele>437.396</ele>
        <time>2018-07-20T16:00:55Z</time>
      </trkpt>
      <trkpt lat="42.425542" lon="-8.438029">
        <ele>436.131</ele>
        <time>2018-07-20T16:01:15Z</time>
      </trkpt>
      <trkpt lat="42.425763" lon="-8.437947">
        <ele>436.024</ele>
        <time>2018-07-20T16:01:35Z</time>
      </trkpt>
      <trkpt lat="42.425892" lon="-8.437838">
        <ele>436.208</ele>
        <time>2018-07-20T16:01:55Z</time>
      </trkpt>
      <trkpt lat="42.425983" lon="-8.437712">
        <ele>436.951</ele>
        <time>2018-07-20T16:02:15Z</time>
      </trkpt>
      <trkpt lat="42.426096" lon="-8.437615">
        <ele>437.635</ele>
        <time>2018-07-20T16:02:35Z</time>
      </trkpt>
      <trkpt lat="42.426240" lon="-8.437565">
        <ele>436.836</ele>
        <time>2018-07-20T16:02:55Z</time>
      </trkpt>
      <trkpt lat="42.426613" lon="-8.437417">
        <ele>434.253</ele>
        <time>2018-07-20T16:03:15Z</time>
      </trkpt>
      <trkpt lat="42.426845" lon="-8.437259">
        <ele>434.038</ele>
        <time>2018-07-20T16:03:35Z</time>
      </trkpt>
      <trkpt lat="42.426975" lon="-8.437223">
        <ele>433.968</ele>
        <time>2018-07-20T16:03:55Z</time>
      </trkpt>
      <trkpt lat="42.427156" lon="-8.437170">
        <ele>433.633</ele>
        <time>2018-07-20T16:04:15Z</time>
      </trkpt>
      <trkpt lat="42.427272" lon="-8.437096">
        <ele>433.739</ele>
        <time>2018-07-20T16:04:35Z</time>
      </trkpt>
      <trkpt lat="42.427421" lon="-8.437042">
        <ele>433.672</ele>
        <time>2018-07-20T16:04:55Z</time>
      </trkpt>
      <trkpt lat="42.427624" lon="-8.437020">
        <ele>432.613</ele>
        <time>2018-07-20T16:05:15Z</time>
      </trkpt>
      <trkpt lat="42.427837" lon="-8.436893">
        <ele>432.514</ele>
        <time>2018-07-20T16:05:35Z</time>
      </trkpt>
      <trkpt lat="42.427994" lon="-8.436799">
        <ele>432.908</ele>
        <time>2018-07-20T16:05:55Z</time>
      </trkpt>
      <trkpt lat="42.428166" lon="-8.436808">
        <ele>432.349</ele>
        <time>2018-07-20T16:06:15Z</time>
      </trkpt>
      <trkpt lat="42.428347" lon="-8.436837">
        <ele>431.483</ele>
        <time>2018-07-20T16:06:35Z</time>
      </trkpt>
      <trkpt lat="42.428479" lon="-8.436909">
        <ele>429.474</ele>
        <time>2018-07-20T16:06:55Z</time>
      </trkpt>
      <trkpt lat="42.428683" lon="-8.436993">
        <ele>426.491</ele>
        <time>2018-07-20T16:07:15Z</time>
      </trkpt>
      <trkpt lat="42.428920" lon="-8.436912">
        <ele>425.446</ele>
        <time>2018-07-20T16:07:35Z</time>
      </trkpt>
      <trkpt lat="42.429097" lon="-8.436924">
        <ele>424.526</ele>
        <time>2018-07-20T16:07:55Z</time>
      </trkpt>
      <trkpt lat="42.429132" lon="-8.436825">
        <ele>425.581</ele>
        <time>2018-07-20T16:08:15Z</time>
      </trkpt>
      <trkpt lat="42.429319" lon="-8.436743">
        <ele>425.897</ele>
        <time>2018-07-20T16:08:35Z</time>
      </trkpt>
      <trkpt lat="42.429381" lon="-8.436862">
        <ele>424.731</ele>
        <time>2018-07-20T16:08:55Z</time>
      </trkpt>
      <trkpt lat="42.429390" lon="-8.436866">
        <ele>424.661</ele>
        <time>2018-07-20T16:09:15Z</time>
      </trkpt>
      <trkpt lat="42.429476" lon="-8.436986">
        <ele>424.007</ele>
        <time>2018-07-20T16:09:35Z</time>
      </trkpt>
      <trkpt lat="42.429592" lon="-8.437120">
        <ele>423.608</ele>
        <time>2018-07-20T16:09:55Z</time>
      </trkpt>
      <trkpt lat="42.429705" lon="-8.437222">
        <ele>422.945</ele>
        <time>2018-07-20T16:10:15Z</time>
      </trkpt>
      <trkpt lat="42.429851" lon="-8.437192">
        <ele>426.059</ele>
        <time>2018-07-20T16:10:35Z</time>
      </trkpt>
      <trkpt lat="42.429987" lon="-8.437169">
        <ele>429.160</ele>
        <time>2018-07-20T16:10:55Z</time>
      </trkpt>
      <trkpt lat="42.430111" lon="-8.437160">
        <ele>431.167</ele>
        <time>2018-07-20T16:11:15Z</time>
      </trkpt>
      <trkpt lat="42.430200" lon="-8.437166">
        <ele>432.242</ele>
        <time>2018-07-20T16:11:35Z</time>
      </trkpt>
      <trkpt lat="42.430272" lon="-8.437254">
        <ele>431.162</ele>
        <time>2018-07-20T16:11:55Z</time>
      </trkpt>
      <trkpt lat="42.430366" lon="-8.437332">
        <ele>429.987</ele>
        <time>2018-07-20T16:12:15Z</time>
      </trkpt>
      <trkpt lat="42.430512" lon="-8.437434">
        <ele>428.423</ele>
        <time>2018-07-20T16:12:35Z</time>
      </trkpt>
      <trkpt lat="42.430736" lon="-8.437515">
        <ele>425.926</ele>
        <time>2018-07-20T16:12:55Z</time>
      </trkpt>
      <trkpt lat="42.430904" lon="-8.437481">
        <ele>425.347</ele>
        <time>2018-07-20T16:13:15Z</time>
      </trkpt>
      <trkpt lat="42.430952" lon="-8.437464">
        <ele>424.911</ele>
        <time>2018-07-20T16:13:35Z</time>
      </trkpt>
      <trkpt lat="42.431197" lon="-8.437349">
        <ele>422.408</ele>
        <time>2018-07-20T16:13:55Z</time>
      </trkpt>
      <trkpt lat="42.431515" lon="-8.437095">
        <ele>419.834</ele>
        <time>2018-07-20T16:14:15Z</time>
      </trkpt>
      <trkpt lat="42.431547" lon="-8.437072">
        <ele>419.678</ele>
        <time>2018-07-20T16:14:35Z</time>
      </trkpt>
      <trkpt lat="42.431878" lon="-8.436751">
        <ele>421.469</ele>
        <time>2018-07-20T16:14:55Z</time>
      </trkpt>
      <trkpt lat="42.432249" lon="-8.436480">
        <ele>422.626</ele>
        <time>2018-07-20T16:15:15Z</time>
      </trkpt>
      <trkpt lat="42.432692" lon="-8.436190">
        <ele>425.671</ele>
        <time>2018-07-20T16:15:35Z</time>
      </trkpt>
      <trkpt lat="42.433095" lon="-8.435931">
        <ele>428.611</ele>
        <time>2018-07-20T16:15:55Z</time>
      </trkpt>
      <trkpt lat="42.433453" lon="-8.435763">
        <ele>428.786</ele>
        <time>2018-07-20T16:16:15Z</time>
      </trkpt>
      <trkpt lat="42.433849" lon="-8.435608">
        <ele>428.792</ele>
        <time>2018-07-20T16:16:35Z</time>
      </trkpt>
      <trkpt lat="42.434387" lon="-8.435429">
        <ele>423.686</ele>
        <time>2018-07-20T16:16:55Z</time>
      </trkpt>
      <trkpt lat="42.434761" lon="-8.435340">
        <ele>425.360</ele>
        <time>2018-07-20T16:17:15Z</time>
      </trkpt>
      <trkpt lat="42.435116" lon="-8.435285">
        <ele>424.226</ele>
        <time>2018-07-20T16:17:35Z</time>
      </trkpt>
      <trkpt lat="42.435591" lon="-8.435188">
        <ele>421.208</ele>
        <time>2018-07-20T16:17:55Z</time>
      </trkpt>
      <trkpt lat="42.435791" lon="-8.435002">
        <ele>423.140</ele>
        <time>2018-07-20T16:18:15Z</time>
      </trkpt>
      <trkpt lat="42.436197" lon="-8.434673">
        <ele>428.314</ele>
        <time>2018-07-20T16:18:35Z</time>
      </trkpt>
      <trkpt lat="42.436458" lon="-8.434421">
        <ele>432.735</ele>
        <time>2018-07-20T16:18:55Z</time>
      </trkpt>
      <trkpt lat="42.436735" lon="-8.434206">
        <ele>437.372</ele>
        <time>2018-07-20T16:19:15Z</time>
      </trkpt>
      <trkpt lat="42.437007" lon="-8.434063">
        <ele>439.857</ele>
        <time>2018-07-20T16:19:35Z</time>
      </trkpt>
      <trkpt lat="42.437278" lon="-8.433963">
        <ele>441.787</ele>
        <time>2018-07-20T16:19:55Z</time>
      </trkpt>
      <trkpt lat="42.437441" lon="-8.433907">
        <ele>442.742</ele>
        <time>2018-07-20T16:20:15Z</time>
      </trkpt>
      <trkpt lat="42.437524" lon="-8.433734">
        <ele>444.748</ele>
        <time>2018-07-20T16:20:35Z</time>
      </trkpt>
      <trkpt lat="42.437623" lon="-8.433582">
        <ele>446.412</ele>
        <time>2018-07-20T16:20:55Z</time>
      </trkpt>
      <trkpt lat="42.437680" lon="-8.433386">
        <ele>449.232</ele>
        <time>2018-07-20T16:21:15Z</time>
      </trkpt>
      <trkpt lat="42.437717" lon="-8.433295">
        <ele>450.605</ele>
        <time>2018-07-20T16:21:35Z</time>
      </trkpt>
      <trkpt lat="42.437874" lon="-8.433313">
        <ele>450.608</ele>
        <time>2018-07-20T16:21:55Z</time>
      </trkpt>
      <trkpt lat="42.437888" lon="-8.433363">
        <ele>450.133</ele>
        <time>2018-07-20T16:22:15Z</time>
      </trkpt>
      <trkpt lat="42.437910" lon="-8.433488">
        <ele>448.857</ele>
        <time>2018-07-20T16:22:35Z</time>
      </trkpt>
      <trkpt lat="42.437978" lon="-8.433630">
        <ele>448.118</ele>
        <time>2018-07-20T16:22:55Z</time>
      </trkpt>
      <trkpt lat="42.438056" lon="-8.433758">
        <ele>448.555</ele>
        <time>2018-07-20T16:23:15Z</time>
      </trkpt>
      <trkpt lat="42.438136" lon="-8.433904">
        <ele>448.780</ele>
        <time>2018-07-20T16:23:35Z</time>
      </trkpt>
      <trkpt lat="42.438188" lon="-8.434003">
        <ele>448.220</ele>
        <time>2018-07-20T16:23:55Z</time>
      </trkpt>
      <trkpt lat="42.438285" lon="-8.434072">
        <ele>448.545</ele>
        <time>2018-07-20T16:24:15Z</time>
      </trkpt>
      <trkpt lat="42.438435" lon="-8.434087">
        <ele>448.961</ele>
        <time>2018-07-20T16:24:35Z</time>
      </trkpt>
      <trkpt lat="42.438614" lon="-8.434007">
        <ele>449.776</ele>
        <time>2018-07-20T16:24:55Z</time>
      </trkpt>
      <trkpt lat="42.438977" lon="-8.433736">
        <ele>451.690</ele>
        <time>2018-07-20T16:25:15Z</time>
      </trkpt>
      <trkpt lat="42.439242" lon="-8.433588">
        <ele>449.819</ele>
        <time>2018-07-20T16:25:35Z</time>
      </trkpt>
      <trkpt lat="42.439438" lon="-8.433519">
        <ele>446.508</ele>
        <time>2018-07-20T16:25:55Z</time>
      </trkpt>
      <trkpt lat="42.439587" lon="-8.433523">
        <ele>444.179</ele>
        <time>2018-07-20T16:26:15Z</time>
      </trkpt>
      <trkpt lat="42.439756" lon="-8.433424">
        <ele>441.753</ele>
        <time>2018-07-20T16:26:35Z</time>
      </trkpt>
      <trkpt lat="42.439867" lon="-8.433325">
        <ele>441.154</ele>
        <time>2018-07-20T16:26:55Z</time>
      </trkpt>
      <trkpt lat="42.440036" lon="-8.433325">
        <ele>440.381</ele>
        <time>2018-07-20T16:27:15Z</time>
      </trkpt>
      <trkpt lat="42.440148" lon="-8.433337">
        <ele>440.526</ele>
        <time>2018-07-20T16:27:35Z</time>
      </trkpt>
      <trkpt lat="42.440315" lon="-8.433254">
        <ele>442.146</ele>
        <time>2018-07-20T16:27:55Z</time>
      </trkpt>
      <trkpt lat="42.440508" lon="-8.433173">
        <ele>442.861</ele>
        <time>2018-07-20T16:28:15Z</time>
      </trkpt>
      <trkpt lat="42.440813" lon="-8.433048">
        <ele>447.017</ele>
        <time>2018-07-20T16:28:35Z</time>
      </trkpt>
      <trkpt lat="42.441187" lon="-8.432880">
        <ele>452.499</ele>
        <time>2018-07-20T16:28:55Z</time>
      </trkpt>
      <trkpt lat="42.441403" lon="-8.432791">
        <ele>454.807</ele>
        <time>2018-07-20T16:29:15Z</time>
      </trkpt>
      <trkpt lat="42.441494" lon="-8.432614">
        <ele>459.527</ele>
        <time>2018-07-20T16:29:35Z</time>
      </trkpt>
      <trkpt lat="42.441642" lon="-8.432436">
        <ele>463.908</ele>
        <time>2018-07-20T16:29:55Z</time>
      </trkpt>
      <trkpt lat="42.441805" lon="-8.432289">
        <ele>467.221</ele>
        <time>2018-07-20T16:30:15Z</time>
      </trkpt>
      <trkpt lat="42.442068" lon="-8.432154">
        <ele>468.125</ele>
        <time>2018-07-20T16:30:35Z</time>
      </trkpt>
      <trkpt lat="42.442360" lon="-8.432083">
        <ele>465.016</ele>
        <time>2018-07-20T16:30:55Z</time>
      </trkpt>
      <trkpt lat="42.442862" lon="-8.431855">
        <ele>453.863</ele>
        <time>2018-07-20T16:31:15Z</time>
      </trkpt>
      <trkpt lat="42.443141" lon="-8.431599">
        <ele>456.628</ele>
        <time>2018-07-20T16:31:35Z</time>
      </trkpt>
      <trkpt lat="42.443527" lon="-8.431419">
        <ele>459.578</ele>
        <time>2018-07-20T16:31:55Z</time>
      </trkpt>
      <trkpt lat="42.443856" lon="-8.431150">
        <ele>460.233</ele>
        <time>2018-07-20T16:32:15Z</time>
      </trkpt>
      <trkpt lat="42.444012" lon="-8.431002">
        <ele>462.389</ele>
        <time>2018-07-20T16:32:35Z</time>
      </trkpt>
      <trkpt lat="42.444339" lon="-8.430799">
        <ele>466.317</ele>
        <time>2018-07-20T16:32:55Z</time>
      </trkpt>
      <trkpt lat="42.444702" lon="-8.430635">
        <ele>468.087</ele>
        <time>2018-07-20T16:33:15Z</time>
      </trkpt>
      <trkpt lat="42.445068" lon="-8.430536">
        <ele>467.915</ele>
        <time>2018-07-20T16:33:35Z</time>
      </trkpt>
      <trkpt lat="42.445196" lon="-8.430333">
        <ele>468.108</ele>
        <time>2018-07-20T16:33:55Z</time>
      </trkpt>
      <trkpt lat="42.445513" lon="-8.430103">
        <ele>471.373</ele>
        <time>2018-07-20T16:34:15Z</time>
      </trkpt>
      <trkpt lat="42.445935" lon="-8.429830">
        <ele>472.287</ele>
        <time>2018-07-20T16:34:35Z</time>
      </trkpt>
      <trkpt lat="42.446461" lon="-8.429597">
        <ele>472.848</ele>
        <time>2018-07-20T16:34:55Z</time>
      </trkpt>
      <trkpt lat="42.446490" lon="-8.429584">
        <ele>473.125</ele>
        <time>2018-07-20T16:35:15Z</time>
      </trkpt>
      <trkpt lat="42.447160" lon="-8.429332">
        <ele>479.130</ele>
        <time>2018-07-20T16:35:35Z</time>
      </trkpt>
      <trkpt lat="42.447187" lon="-8.429340">
        <ele>479.650</ele>
        <time>2018-07-20T16:35:55Z</time>
      </trkpt>
      <trkpt lat="42.447385" lon="-8.429168">
        <ele>479.475</ele>
        <time>2018-07-20T16:36:15Z</time>
      </trkpt>
      <trkpt lat="42.447458" lon="-8.428766">
        <ele>475.121</ele>
        <time>2018-07-20T16:36:35Z</time>
      </trkpt>
      <trkpt lat="42.447478" lon="-8.428745">
        <ele>475.071</ele>
        <time>2018-07-20T16:36:55Z</time>
      </trkpt>
      <trkpt lat="42.447721" lon="-8.428215">
        <ele>479.641</ele>
        <time>2018-07-20T16:37:15Z</time>
      </trkpt>
      <trkpt lat="42.447772" lon="-8.428124">
        <ele>481.515</ele>
        <time>2018-07-20T16:37:35Z</time>
      </trkpt>
      <trkpt lat="42.447781" lon="-8.428109">
        <ele>481.808</ele>
        <time>2018-07-20T16:37:55Z</time>
      </trkpt>
      <trkpt lat="42.447820" lon="-8.427867">
        <ele>487.619</ele>
        <time>2018-07-20T16:38:15Z</time>
      </trkpt>
      <trkpt lat="42.448379" lon="-8.427424">
        <ele>484.293</ele>
        <time>2018-07-20T16:38:35Z</time>
      </trkpt>
      <trkpt lat="42.448839" lon="-8.427135">
        <ele>484.494</ele>
        <time>2018-07-20T16:38:55Z</time>
      </trkpt>
      <trkpt lat="42.448917" lon="-8.427098">
        <ele>484.641</ele>
        <time>2018-07-20T16:39:15Z</time>
      </trkpt>
      <trkpt lat="42.449461" lon="-8.426833">
        <ele>486.276</ele>
        <time>2018-07-20T16:39:35Z</time>
      </trkpt>
      <trkpt lat="42.450055" lon="-8.426584">
        <ele>488.196</ele>
        <time>2018-07-20T16:39:55Z</time>
      </trkpt>
      <trkpt lat="42.450839" lon="-8.426311">
        <ele>489.081</ele>
        <time>2018-07-20T16:40:15Z</time>
      </trkpt>
      <trkpt lat="42.451592" lon="-8.426007">
        <ele>496.787</ele>
        <time>2018-07-20T16:40:35Z</time>
      </trkpt>
      <trkpt lat="42.452109" lon="-8.425777">
        <ele>499.639</ele>
        <time>2018-07-20T16:40:55Z</time>
      </trkpt>
      <trkpt lat="42.452493" lon="-8.425601">
        <ele>497.401</ele>
        <time>2018-07-20T16:41:15Z</time>
      </trkpt>
      <trkpt lat="42.452890" lon="-8.425381">
        <ele>499.021</ele>
        <time>2018-07-20T16:41:35Z</time>
      </trkpt>
      <trkpt lat="42.453305" lon="-8.425051">
        <ele>501.108</ele>
        <time>2018-07-20T16:41:55Z</time>
      </trkpt>
      <trkpt lat="42.453579" lon="-8.424709">
        <ele>502.275</ele>
        <time>2018-07-20T16:42:15Z</time>
      </trkpt>
      <trkpt lat="42.453773" lon="-8.424350">
        <ele>505.119</ele>
        <time>2018-07-20T16:42:35Z</time>
      </trkpt>
      <trkpt lat="42.453836" lon="-8.423958">
        <ele>507.820</ele>
        <time>2018-07-20T16:42:55Z</time>
      </trkpt>
      <trkpt lat="42.453859" lon="-8.423460">
        <ele>517.377</ele>
        <time>2018-07-20T16:43:15Z</time>
      </trkpt>
      <trkpt lat="42.453808" lon="-8.423017">
        <ele>522.142</ele>
        <time>2018-07-20T16:43:35Z</time>
      </trkpt>
      <trkpt lat="42.453915" lon="-8.422452">
        <ele>523.072</ele>
        <time>2018-07-20T16:43:55Z</time>
      </trkpt>
      <trkpt lat="42.453715" lon="-8.422009">
        <ele>527.197</ele>
        <time>2018-07-20T16:44:15Z</time>
      </trkpt>
      <trkpt lat="42.453619" lon="-8.421736">
        <ele>531.163</ele>
        <time>2018-07-20T16:44:35Z</time>
      </trkpt>
      <trkpt lat="42.453363" lon="-8.421607">
        <ele>539.471</ele>
        <time>2018-07-20T16:44:55Z</time>
      </trkpt>
      <trkpt lat="42.452850" lon="-8.421667">
        <ele>554.941</ele>
        <time>2018-07-20T16:45:15Z</time>
      </trkpt>
      <trkpt lat="42.452620" lon="-8.421614">
        <ele>563.215</ele>
        <time>2018-07-20T16:45:35Z</time>
      </trkpt>
      <trkpt lat="42.452354" lon="-8.421650">
        <ele>574.508</ele>
        <time>2018-07-20T16:45:55Z</time>
      </trkpt>
      <trkpt lat="42.452137" lon="-8.421524">
        <ele>579.929</ele>
        <time>2018-07-20T16:46:15Z</time>
      </trkpt>
      <trkpt lat="42.451834" lon="-8.421514">
        <ele>587.873</ele>
        <time>2018-07-20T16:46:35Z</time>
      </trkpt>
      <trkpt lat="42.451586" lon="-8.421648">
        <ele>592.584</ele>
        <time>2018-07-20T16:46:55Z</time>
      </trkpt>
      <trkpt lat="42.451410" lon="-8.421841">
        <ele>595.281</ele>
        <time>2018-07-20T16:47:15Z</time>
      </trkpt>
      <trkpt lat="42.451275" lon="-8.422020">
        <ele>596.786</ele>
        <time>2018-07-20T16:47:35Z</time>
      </trkpt>
      <trkpt lat="42.451216" lon="-8.422134">
        <ele>597.866</ele>
        <time>2018-07-20T16:47:55Z</time>
      </trkpt>
      <trkpt lat="42.451197" lon="-8.422160">
        <ele>598.111</ele>
        <time>2018-07-20T16:48:15Z</time>
      </trkpt>
      <trkpt lat="42.451140" lon="-8.422295">
        <ele>599.217</ele>
        <time>2018-07-20T16:48:35Z</time>
      </trkpt>
      <trkpt lat="42.451123" lon="-8.422360">
        <ele>599.593</ele>
        <time>2018-07-20T16:48:55Z</time>
      </trkpt>
      <trkpt lat="42.451130" lon="-8.422415">
        <ele>599.765</ele>
        <time>2018-07-20T16:49:15Z</time>
      </trkpt>
      <trkpt lat="42.451056" lon="-8.422428">
        <ele>600.721</ele>
        <time>2018-07-20T16:49:35Z</time>
      </trkpt>
      <trkpt lat="42.450918" lon="-8.422433">
        <ele>603.108</ele>
        <time>2018-07-20T16:49:55Z</time>
      </trkpt>
      <trkpt lat="42.450911" lon="-8.422436">
        <ele>603.261</ele>
        <time>2018-07-20T16:50:15Z</time>
      </trkpt>
      <trkpt lat="42.450751" lon="-8.422490">
        <ele>607.345</ele>
        <time>2018-07-20T16:50:35Z</time>
      </trkpt>
      <trkpt lat="42.450595" lon="-8.422551">
        <ele>611.526</ele>
        <time>2018-07-20T16:50:55Z</time>
      </trkpt>
      <trkpt lat="42.450460" lon="-8.422630">
        <ele>615.443</ele>
        <time>2018-07-20T16:51:15Z</time>
      </trkpt>
      <trkpt lat="42.450454" lon="-8.422634">
        <ele>615.578</ele>
        <time>2018-07-20T16:51:35Z</time>
      </trkpt>
      <trkpt lat="42.450343" lon="-8.422704">
        <ele>618.338</ele>
        <time>2018-07-20T16:51:55Z</time>
      </trkpt>
      <trkpt lat="42.450218" lon="-8.422762">
        <ele>620.413</ele>
        <time>2018-07-20T16:52:15Z</time>
      </trkpt>
      <trkpt lat="42.450097" lon="-8.422756">
        <ele>622.869</ele>
        <time>2018-07-20T16:52:35Z</time>
      </trkpt>
      <trkpt lat="42.449961" lon="-8.422734">
        <ele>625.817</ele>
        <time>2018-07-20T16:52:55Z</time>
      </trkpt>
      <trkpt lat="42.449860" lon="-8.422683">
        <ele>628.487</ele>
        <time>2018-07-20T16:53:15Z</time>
      </trkpt>
      <trkpt lat="42.449724" lon="-8.422621">
        <ele>631.415</ele>
        <time>2018-07-20T16:53:35Z</time>
      </trkpt>
      <trkpt lat="42.449723" lon="-8.422616">
        <ele>631.508</ele>
        <time>2018-07-20T16:53:55Z</time>
      </trkpt>
      <trkpt lat="42.449730" lon="-8.422515">
        <ele>633.623</ele>
        <time>2018-07-20T16:54:15Z</time>
      </trkpt>
      <trkpt lat="42.449737" lon="-8.422497">
        <ele>633.997</ele>
        <time>2018-07-20T16:54:35Z</time>
      </trkpt>
      <trkpt lat="42.449741" lon="-8.422484">
        <ele>634.148</ele>
        <time>2018-07-20T16:54:55Z</time>
      </trkpt>
      <trkpt lat="42.449768" lon="-8.422410">
        <ele>634.875</ele>
        <time>2018-07-20T16:55:15Z</time>
      </trkpt>
      <trkpt lat="42.449772" lon="-8.422393">
        <ele>635.090</ele>
        <time>2018-07-20T16:55:35Z</time>
      </trkpt>
      <trkpt lat="42.449809" lon="-8.422263">
        <ele>636.070</ele>
        <time>2018-07-20T16:55:55Z</time>
      </trkpt>
      <trkpt lat="42.449814" lon="-8.422245">
        <ele>636.165</ele>
        <time>2018-07-20T16:56:15Z</time>
      </trkpt>
      <trkpt lat="42.449820" lon="-8.422233">
        <ele>636.121</ele>
        <time>2018-07-20T16:56:35Z</time>
      </trkpt>
      <trkpt lat="42.449834" lon="-8.422139">
        <ele>636.264</ele>
        <time>2018-07-20T16:56:55Z</time>
      </trkpt>
      <trkpt lat="42.449834" lon="-8.422136">
        <ele>636.206</ele>
        <time>2018-07-20T16:57:15Z</time>
      </trkpt>
      <trkpt lat="42.449785" lon="-8.422091">
        <ele>637.516</ele>
        <time>2018-07-20T16:57:35Z</time>
      </trkpt>
      <trkpt lat="42.449693" lon="-8.422019">
        <ele>639.908</ele>
        <time>2018-07-20T16:57:55Z</time>
      </trkpt>
      <trkpt lat="42.449614" lon="-8.421969">
        <ele>641.438</ele>
        <time>2018-07-20T16:58:15Z</time>
      </trkpt>
      <trkpt lat="42.449516" lon="-8.421886">
        <ele>642.812</ele>
        <time>2018-07-20T16:58:35Z</time>
      </trkpt>
      <trkpt lat="42.449520" lon="-8.421860">
        <ele>642.643</ele>
        <time>2018-07-20T16:58:55Z</time>
      </trkpt>
      <trkpt lat="42.449520" lon="-8.421856">
        <ele>642.650</ele>
        <time>2018-07-20T16:59:15Z</time>
      </trkpt>
      <trkpt lat="42.449435" lon="-8.421758">
        <ele>643.435</ele>
        <time>2018-07-20T16:59:35Z</time>
      </trkpt>
      <trkpt lat="42.449333" lon="-8.421741">
        <ele>644.415</ele>
        <time>2018-07-20T16:59:55Z</time>
      </trkpt>
      <trkpt lat="42.449212" lon="-8.421716">
        <ele>645.570</ele>
        <time>2018-07-20T17:00:15Z</time>
      </trkpt>
      <trkpt lat="42.449148" lon="-8.421661">
        <ele>646.256</ele>
        <time>2018-07-20T17:00:35Z</time>
      </trkpt>
      <trkpt lat="42.449142" lon="-8.421660">
        <ele>646.293</ele>
        <time>2018-07-20T17:00:55Z</time>
      </trkpt>
      <trkpt lat="42.448879" lon="-8.421453">
        <ele>650.765</ele>
        <time>2018-07-20T17:01:15Z</time>
      </trkpt>
      <trkpt lat="42.448697" lon="-8.421298">
        <ele>654.821</ele>
        <time>2018-07-20T17:01:35Z</time>
      </trkpt>
      <trkpt lat="42.448574" lon="-8.421205">
        <ele>658.208</ele>
        <time>2018-07-20T17:01:55Z</time>
      </trkpt>
      <trkpt lat="42.448464" lon="-8.421090">
        <ele>661.271</ele>
        <time>2018-07-20T17:02:15Z</time>
      </trkpt>
      <trkpt lat="42.448367" lon="-8.420969">
        <ele>663.525</ele>
        <time>2018-07-20T17:02:35Z</time>
      </trkpt>
      <trkpt lat="42.448243" lon="-8.420800">
        <ele>665.636</ele>
        <time>2018-07-20T17:02:55Z</time>
      </trkpt>
      <trkpt lat="42.448177" lon="-8.420693">
        <ele>666.113</ele>
        <time>2018-07-20T17:03:15Z</time>
      </trkpt>
      <trkpt lat="42.448095" lon="-8.420609">
        <ele>666.718</ele>
        <time>2018-07-20T17:03:35Z</time>
      </trkpt>
      <trkpt lat="42.447993" lon="-8.420542">
        <ele>666.488</ele>
        <time>2018-07-20T17:03:55Z</time>
      </trkpt>
      <trkpt lat="42.447876" lon="-8.420499">
        <ele>665.193</ele>
        <time>2018-07-20T17:04:15Z</time>
      </trkpt>
      <trkpt lat="42.447757" lon="-8.420438">
        <ele>663.559</ele>
        <time>2018-07-20T17:04:35Z</time>
      </trkpt>
      <trkpt lat="42.447531" lon="-8.420410">
        <ele>660.384</ele>
        <time>2018-07-20T17:04:55Z</time>
      </trkpt>
      <trkpt lat="42.447366" lon="-8.420393">
        <ele>658.007</ele>
        <time>2018-07-20T17:05:15Z</time>
      </trkpt>
      <trkpt lat="42.447159" lon="-8.420371">
        <ele>655.617</ele>
        <time>2018-07-20T17:05:35Z</time>
      </trkpt>
      <trkpt lat="42.447010" lon="-8.420389">
        <ele>654.808</ele>
        <time>2018-07-20T17:05:55Z</time>
      </trkpt>
      <trkpt lat="42.446847" lon="-8.420407">
        <ele>654.630</ele>
        <time>2018-07-20T17:06:15Z</time>
      </trkpt>
      <trkpt lat="42.446774" lon="-8.420449">
        <ele>655.084</ele>
        <time>2018-07-20T17:06:35Z</time>
      </trkpt>
      <trkpt lat="42.446767" lon="-8.420457">
        <ele>655.135</ele>
        <time>2018-07-20T17:06:55Z</time>
      </trkpt>
      <trkpt lat="42.446712" lon="-8.420525">
        <ele>655.692</ele>
        <time>2018-07-20T17:07:15Z</time>
      </trkpt>
      <trkpt lat="42.446647" lon="-8.420622">
        <ele>656.077</ele>
        <time>2018-07-20T17:07:35Z</time>
      </trkpt>
      <trkpt lat="42.446600" lon="-8.420662">
        <ele>656.587</ele>
        <time>2018-07-20T17:07:55Z</time>
      </trkpt>
      <trkpt lat="42.446543" lon="-8.420675">
        <ele>657.312</ele>
        <time>2018-07-20T17:08:15Z</time>
      </trkpt>
      <trkpt lat="42.446537" lon="-8.420676">
        <ele>657.478</ele>
        <time>2018-07-20T17:08:35Z</time>
      </trkpt>
      <trkpt lat="42.446478" lon="-8.420689">
        <ele>658.212</ele>
        <time>2018-07-20T17:08:55Z</time>
      </trkpt>
      <trkpt lat="42.446261" lon="-8.420673">
        <ele>662.432</ele>
        <time>2018-07-20T17:09:15Z</time>
      </trkpt>
      <trkpt lat="42.446256" lon="-8.420670">
        <ele>662.505</ele>
        <time>2018-07-20T17:09:35Z</time>
      </trkpt>
      <trkpt lat="42.446055" lon="-8.420635">
        <ele>666.708</ele>
        <time>2018-07-20T17:09:55Z</time>
      </trkpt>
      <trkpt lat="42.445945" lon="-8.420555">
        <ele>668.083</ele>
        <time>2018-07-20T17:10:15Z</time>
      </trkpt>
      <trkpt lat="42.445820" lon="-8.420456">
        <ele>668.277</ele>
        <time>2018-07-20T17:10:35Z</time>
      </trkpt>
      <trkpt lat="42.445708" lon="-8.420423">
        <ele>670.558</ele>
        <time>2018-07-20T17:10:55Z</time>
      </trkpt>
      <trkpt lat="42.445591" lon="-8.420361">
        <ele>672.255</ele>
        <time>2018-07-20T17:11:15Z</time>
      </trkpt>
      <trkpt lat="42.445436" lon="-8.420270">
        <ele>674.340</ele>
        <time>2018-07-20T17:11:35Z</time>
      </trkpt>
      <trkpt lat="42.445186" lon="-8.420190">
        <ele>677.340</ele>
        <time>2018-07-20T17:11:55Z</time>
      </trkpt>
      <trkpt lat="42.444991" lon="-8.420086">
        <ele>675.165</ele>
        <time>2018-07-20T17:12:15Z</time>
      </trkpt>
      <trkpt lat="42.444855" lon="-8.420103">
        <ele>676.251</ele>
        <time>2018-07-20T17:12:35Z</time>
      </trkpt>
      <trkpt lat="42.444719" lon="-8.420169">
        <ele>678.285</ele>
        <time>2018-07-20T17:12:55Z</time>
      </trkpt>
      <trkpt lat="42.444476" lon="-8.420378">
        <ele>680.589</ele>
        <time>2018-07-20T17:13:15Z</time>
      </trkpt>
      <trkpt lat="42.444262" lon="-8.420497">
        <ele>680.817</ele>
        <time>2018-07-20T17:13:35Z</time>
      </trkpt>
      <trkpt lat="42.444070" lon="-8.420617">
        <ele>682.308</ele>
        <time>2018-07-20T17:13:55Z</time>
      </trkpt>
      <trkpt lat="42.443935" lon="-8.420674">
        <ele>683.570</ele>
        <time>2018-07-20T17:14:15Z</time>
      </trkpt>
      <trkpt lat="42.443740" lon="-8.420732">
        <ele>686.314</ele>
        <time>2018-07-20T17:14:35Z</time>
      </trkpt>
      <trkpt lat="42.443508" lon="-8.420783">
        <ele>688.775</ele>
        <time>2018-07-20T17:14:55Z</time>
      </trkpt>
      <trkpt lat="42.443274" lon="-8.420765">
        <ele>688.162</ele>
        <time>2018-07-20T17:15:15Z</time>
      </trkpt>
      <trkpt lat="42.443084" lon="-8.420755">
        <ele>687.117</ele>
        <time>2018-07-20T17:15:35Z</time>
      </trkpt>
      <trkpt lat="42.442907" lon="-8.420728">
        <ele>688.097</ele>
        <time>2018-07-20T17:15:55Z</time>
      </trkpt>
      <trkpt lat="42.442519" lon="-8.420605">
        <ele>691.812</ele>
        <time>2018-07-20T17:16:15Z</time>
      </trkpt>
      <trkpt lat="42.442277" lon="-8.420481">
        <ele>692.298</ele>
        <time>2018-07-20T17:16:35Z</time>
      </trkpt>
      <trkpt lat="42.442062" lon="-8.420448">
        <ele>693.742</ele>
        <time>2018-07-20T17:16:55Z</time>
      </trkpt>
      <trkpt lat="42.441871" lon="-8.420474">
        <ele>695.622</ele>
        <time>2018-07-20T17:17:15Z</time>
      </trkpt>
      <trkpt lat="42.441660" lon="-8.420617">
        <ele>699.414</ele>
        <time>2018-07-20T17:17:35Z</time>
      </trkpt>
      <trkpt lat="42.441530" lon="-8.420737">
        <ele>703.208</ele>
        <time>2018-07-20T17:17:55Z</time>
      </trkpt>
      <trkpt lat="42.441421" lon="-8.420782">
        <ele>705.046</ele>
        <time>2018-07-20T17:18:15Z</time>
      </trkpt>
      <trkpt lat="42.441311" lon="-8.420722">
        <ele>705.680</ele>
        <time>2018-07-20T17:18:35Z</time>
      </trkpt>
      <trkpt lat="42.441204" lon="-8.420626">
        <ele>706.221</ele>
        <time>2018-07-20T17:18:55Z</time>
      </trkpt>
      <trkpt lat="42.441074" lon="-8.420496">
        <ele>706.488</ele>
        <time>2018-07-20T17:19:15Z</time>
      </trkpt>
      <trkpt lat="42.441007" lon="-8.420379">
        <ele>705.173</ele>
        <time>2018-07-20T17:19:35Z</time>
      </trkpt>
      <trkpt lat="42.440900" lon="-8.420274">
        <ele>704.283</ele>
        <time>2018-07-20T17:19:55Z</time>
      </trkpt>
      <trkpt lat="42.440670" lon="-8.420260">
        <ele>705.258</ele>
        <time>2018-07-20T17:20:15Z</time>
      </trkpt>
      <trkpt lat="42.440494" lon="-8.420316">
        <ele>707.864</ele>
        <time>2018-07-20T17:20:35Z</time>
      </trkpt>
      <trkpt lat="42.440315" lon="-8.420387">
        <ele>711.573</ele>
        <time>2018-07-20T17:20:55Z</time>
      </trkpt>
      <trkpt lat="42.440057" lon="-8.420409">
        <ele>714.485</ele>
        <time>2018-07-20T17:21:15Z</time>
      </trkpt>
      <trkpt lat="42.439791" lon="-8.420452">
        <ele>717.013</ele>
        <time>2018-07-20T17:21:35Z</time>
      </trkpt>
      <trkpt lat="42.439603" lon="-8.420497">
        <ele>718.808</ele>
        <time>2018-07-20T17:21:55Z</time>
      </trkpt>
      <trkpt lat="42.439598" lon="-8.420494">
        <ele>718.829</ele>
        <time>2018-07-20T17:22:15Z</time>
      </trkpt>
      <trkpt lat="42.439423" lon="-8.420506">
        <ele>719.723</ele>
        <time>2018-07-20T17:22:35Z</time>
      </trkpt>
      <trkpt lat="42.439287" lon="-8.420502">
        <ele>719.764</ele>
        <time>2018-07-20T17:22:55Z</time>
      </trkpt>
      <trkpt lat="42.439170" lon="-8.420494">
        <ele>719.841</ele>
        <time>2018-07-20T17:23:15Z</time>
      </trkpt>
      <trkpt lat="42.438977" lon="-8.420458">
        <ele>720.626</ele>
        <time>2018-07-20T17:23:35Z</time>
      </trkpt>
      <trkpt lat="42.438825" lon="-8.420350">
        <ele>721.256</ele>
        <time>2018-07-20T17:23:55Z</time>
      </trkpt>
      <trkpt lat="42.438778" lon="-8.420180">
        <ele>722.121</ele>
        <time>2018-07-20T17:24:15Z</time>
      </trkpt>
      <trkpt lat="42.438744" lon="-8.420041">
        <ele>723.257</ele>
        <time>2018-07-20T17:24:35Z</time>
      </trkpt>
      <trkpt lat="42.438742" lon="-8.419848">
        <ele>724.432</ele>
        <time>2018-07-20T17:24:55Z</time>
      </trkpt>
      <trkpt lat="42.438742" lon="-8.419841">
        <ele>724.492</ele>
        <time>2018-07-20T17:25:15Z</time>
      </trkpt>
      <trkpt lat="42.438730" lon="-8.419636">
        <ele>725.611</ele>
        <time>2018-07-20T17:25:35Z</time>
      </trkpt>
      <trkpt lat="42.438729" lon="-8.419423">
        <ele>726.708</ele>
        <time>2018-07-20T17:25:55Z</time>
      </trkpt>
      <trkpt lat="42.438728" lon="-8.419212">
        <ele>728.315</ele>
        <time>2018-07-20T17:26:15Z</time>
      </trkpt>
      <trkpt lat="42.438712" lon="-8.419032">
        <ele>729.579</ele>
        <time>2018-07-20T17:26:35Z</time>
      </trkpt>
      <trkpt lat="42.438702" lon="-8.418792">
        <ele>730.770</ele>
        <time>2018-07-20T17:26:55Z</time>
      </trkpt>
      <trkpt lat="42.438705" lon="-8.418597">
        <ele>731.497</ele>
        <time>2018-07-20T17:27:15Z</time>
      </trkpt>
      <trkpt lat="42.438705" lon="-8.418595">
        <ele>731.412</ele>
        <time>2018-07-20T17:27:35Z</time>
      </trkpt>
      <trkpt lat="42.438677" lon="-8.418390">
        <ele>731.852</ele>
        <time>2018-07-20T17:27:55Z</time>
      </trkpt>
      <trkpt lat="42.438653" lon="-8.418151">
        <ele>732.897</ele>
        <time>2018-07-20T17:28:15Z</time>
      </trkpt>
      <trkpt lat="42.438669" lon="-8.417902">
        <ele>734.843</ele>
        <time>2018-07-20T17:28:35Z</time>
      </trkpt>
      <trkpt lat="42.438694" lon="-8.417685">
        <ele>736.728</ele>
        <time>2018-07-20T17:28:55Z</time>
      </trkpt>
      <trkpt lat="42.438704" lon="-8.417512">
        <ele>737.989</ele>
        <time>2018-07-20T17:29:15Z</time>
      </trkpt>
      <trkpt lat="42.438687" lon="-8.417267">
        <ele>739.117</ele>
        <time>2018-07-20T17:29:35Z</time>
      </trkpt>
      <trkpt lat="42.438682" lon="-8.417095">
        <ele>739.608</ele>
        <time>2018-07-20T17:29:55Z</time>
      </trkpt>
      <trkpt lat="42.438661" lon="-8.416885">
        <ele>740.474</ele>
        <time>2018-07-20T17:30:15Z</time>
      </trkpt>
      <trkpt lat="42.438646" lon="-8.416690">
        <ele>741.748</ele>
        <time>2018-07-20T17:30:35Z</time>
      </trkpt>
      <trkpt lat="42.438603" lon="-8.416390">
        <ele>742.069</ele>
        <time>2018-07-20T17:30:55Z</time>
      </trkpt>
      <trkpt lat="42.438569" lon="-8.416155">
        <ele>742.736</ele>
        <time>2018-07-20T17:31:15Z</time>
      </trkpt>
      <trkpt lat="42.438582" lon="-8.415959">
        <ele>742.981</ele>
        <time>2018-07-20T17:31:35Z</time>
      </trkpt>
      <trkpt lat="42.438615" lon="-8.415799">
        <ele>742.821</ele>
        <time>2018-07-20T17:31:55Z</time>
      </trkpt>
      <trkpt lat="42.438615" lon="-8.415794">
        <ele>742.866</ele>
        <time>2018-07-20T17:32:15Z</time>
      </trkpt>
      <trkpt lat="42.438621" lon="-8.415776">
        <ele>742.712</ele>
        <time>2018-07-20T17:32:35Z</time>
      </trkpt>
      <trkpt lat="42.438696" lon="-8.415587">
        <ele>741.522</ele>
        <time>2018-07-20T17:32:55Z</time>
      </trkpt>
      <trkpt lat="42.438701" lon="-8.415573">
        <ele>741.462</ele>
        <time>2018-07-20T17:33:15Z</time>
      </trkpt>
      <trkpt lat="42.438765" lon="-8.415449">
        <ele>740.508</ele>
        <time>2018-07-20T17:33:35Z</time>
      </trkpt>
      <trkpt lat="42.438857" lon="-8.415339">
        <ele>740.108</ele>
        <time>2018-07-20T17:33:55Z</time>
      </trkpt>
      <trkpt lat="42.438868" lon="-8.415333">
        <ele>740.064</ele>
        <time>2018-07-20T17:34:15Z</time>
      </trkpt>
      <trkpt lat="42.438975" lon="-8.415292">
        <ele>738.788</ele>
        <time>2018-07-20T17:34:35Z</time>
      </trkpt>
      <trkpt lat="42.438984" lon="-8.415287">
        <ele>738.649</ele>
        <time>2018-07-20T17:34:55Z</time>
      </trkpt>
      <trkpt lat="42.439153" lon="-8.415204">
        <ele>737.026</ele>
        <time>2018-07-20T17:35:15Z</time>
      </trkpt>
      <trkpt lat="42.439362" lon="-8.415098">
        <ele>736.351</ele>
        <time>2018-07-20T17:35:35Z</time>
      </trkpt>
      <trkpt lat="42.439378" lon="-8.415089">
        <ele>736.371</ele>
        <time>2018-07-20T17:35:55Z</time>
      </trkpt>
      <trkpt lat="42.439687" lon="-8.414940">
        <ele>736.126</ele>
        <time>2018-07-20T17:36:15Z</time>
      </trkpt>
      <trkpt lat="42.439942" lon="-8.414806">
        <ele>734.342</ele>
        <time>2018-07-20T17:36:35Z</time>
      </trkpt>
      <trkpt lat="42.439959" lon="-8.414784">
        <ele>734.233</ele>
        <time>2018-07-20T17:36:55Z</time>
      </trkpt>
      <trkpt lat="42.440093" lon="-8.414622">
        <ele>733.323</ele>
        <time>2018-07-20T17:37:15Z</time>
      </trkpt>
      <trkpt lat="42.440080" lon="-8.414511">
        <ele>735.015</ele>
        <time>2018-07-20T17:37:35Z</time>
      </trkpt>
      <trkpt lat="42.440102" lon="-8.414363">
        <ele>737.908</ele>
        <time>2018-07-20T17:37:55Z</time>
      </trkpt>
      <trkpt lat="42.440167" lon="-8.414295">
        <ele>738.935</ele>
        <time>2018-07-20T17:38:15Z</time>
      </trkpt>
      <trkpt lat="42.440260" lon="-8.414298">
        <ele>737.599</ele>
        <time>2018-07-20T17:38:35Z</time>
      </trkpt>
      <trkpt lat="42.440378" lon="-8.414299">
        <ele>735.920</ele>
        <time>2018-07-20T17:38:55Z</time>
      </trkpt>
      <trkpt lat="42.440393" lon="-8.414301">
        <ele>735.747</ele>
        <time>2018-07-20T17:39:15Z</time>
      </trkpt>
      <trkpt lat="42.440583" lon="-8.414261">
        <ele>734.022</ele>
        <time>2018-07-20T17:39:35Z</time>
      </trkpt>
      <trkpt lat="42.440890" lon="-8.414176">
        <ele>730.392</ele>
        <time>2018-07-20T17:39:55Z</time>
      </trkpt>
      <trkpt lat="42.441109" lon="-8.414154">
        <ele>729.467</ele>
        <time>2018-07-20T17:40:15Z</time>
      </trkpt>
      <trkpt lat="42.441343" lon="-8.414087">
        <ele>732.463</ele>
        <time>2018-07-20T17:40:35Z</time>
      </trkpt>
      <trkpt lat="42.441468" lon="-8.414080">
        <ele>733.814</ele>
        <time>2018-07-20T17:40:55Z</time>
      </trkpt>
      <trkpt lat="42.441592" lon="-8.414129">
        <ele>733.954</ele>
        <time>2018-07-20T17:41:15Z</time>
      </trkpt>
      <trkpt lat="42.441765" lon="-8.414128">
        <ele>735.709</ele>
        <time>2018-07-20T17:41:35Z</time>
      </trkpt>
      <trkpt lat="42.441790" lon="-8.414119">
        <ele>736.108</ele>
        <time>2018-07-20T17:41:55Z</time>
      </trkpt>
      <trkpt lat="42.441974" lon="-8.414115">
        <ele>737.393</ele>
        <time>2018-07-20T17:42:15Z</time>
      </trkpt>
      <trkpt lat="42.442163" lon="-8.414080">
        <ele>738.247</ele>
        <time>2018-07-20T17:42:35Z</time>
      </trkpt>
      <trkpt lat="42.442356" lon="-8.413979">
        <ele>739.278</ele>
        <time>2018-07-20T17:42:55Z</time>
      </trkpt>
      <trkpt lat="42.442583" lon="-8.413886">
        <ele>739.745</ele>
        <time>2018-07-20T17:43:15Z</time>
      </trkpt>
      <trkpt lat="42.442794" lon="-8.413814">
        <ele>739.760</ele>
        <time>2018-07-20T17:43:35Z</time>
      </trkpt>
      <trkpt lat="42.442895" lon="-8.413752">
        <ele>739.860</ele>
        <time>2018-07-20T17:43:55Z</time>
      </trkpt>
      <trkpt lat="42.442932" lon="-8.413661">
        <ele>740.555</ele>
        <time>2018-07-20T17:44:15Z</time>
      </trkpt>
      <trkpt lat="42.442950" lon="-8.413480">
        <ele>742.811</ele>
        <time>2018-07-20T17:44:35Z</time>
      </trkpt>
      <trkpt lat="42.442955" lon="-8.413289">
        <ele>745.688</ele>
        <time>2018-07-20T17:44:55Z</time>
      </trkpt>
      <trkpt lat="42.442966" lon="-8.413111">
        <ele>747.924</ele>
        <time>2018-07-20T17:45:15Z</time>
      </trkpt>
      <trkpt lat="42.443021" lon="-8.412931">
        <ele>751.426</ele>
        <time>2018-07-20T17:45:35Z</time>
      </trkpt>
      <trkpt lat="42.443052" lon="-8.412824">
        <ele>753.908</ele>
        <time>2018-07-20T17:45:55Z</time>
      </trkpt>
      <trkpt lat="42.443123" lon="-8.412783">
        <ele>754.430</ele>
        <time>2018-07-20T17:46:15Z</time>
      </trkpt>
      <trkpt lat="42.443134" lon="-8.412782">
        <ele>754.314</ele>
        <time>2018-07-20T17:46:35Z</time>
      </trkpt>
      <trkpt lat="42.443262" lon="-8.412766">
        <ele>753.955</ele>
        <time>2018-07-20T17:46:55Z</time>
      </trkpt>
      <trkpt lat="42.443274" lon="-8.412763">
        <ele>753.912</ele>
        <time>2018-07-20T17:47:15Z</time>
      </trkpt>
      <trkpt lat="42.443397" lon="-8.412735">
        <ele>754.317</ele>
        <time>2018-07-20T17:47:35Z</time>
      </trkpt>
      <trkpt lat="42.443409" lon="-8.412730">
        <ele>754.437</ele>
        <time>2018-07-20T17:47:55Z</time>
      </trkpt>
      <trkpt lat="42.443417" lon="-8.412726">
        <ele>754.552</ele>
        <time>2018-07-20T17:48:15Z</time>
      </trkpt>
      <trkpt lat="42.443648" lon="-8.412617">
        <ele>758.298</ele>
        <time>2018-07-20T17:48:35Z</time>
      </trkpt>
      <trkpt lat="42.443657" lon="-8.412613">
        <ele>758.498</ele>
        <time>2018-07-20T17:48:55Z</time>
      </trkpt>
      <trkpt lat="42.443830" lon="-8.412488">
        <ele>763.115</ele>
        <time>2018-07-20T17:49:15Z</time>
      </trkpt>
      <trkpt lat="42.444006" lon="-8.412363">
        <ele>765.026</ele>
        <time>2018-07-20T17:49:35Z</time>
      </trkpt>
      <trkpt lat="42.444222" lon="-8.412228">
        <ele>766.408</ele>
        <time>2018-07-20T17:49:55Z</time>
      </trkpt>
      <trkpt lat="42.444486" lon="-8.412063">
        <ele>769.411</ele>
        <time>2018-07-20T17:50:15Z</time>
      </trkpt>
      <trkpt lat="42.444730" lon="-8.411825">
        <ele>771.995</ele>
        <time>2018-07-20T17:50:35Z</time>
      </trkpt>
      <trkpt lat="42.444707" lon="-8.411765">
        <ele>773.596</ele>
        <time>2018-07-20T17:50:55Z</time>
      </trkpt>
      <trkpt lat="42.444708" lon="-8.411615">
        <ele>775.843</ele>
        <time>2018-07-20T17:51:15Z</time>
      </trkpt>
      <trkpt lat="42.444710" lon="-8.411606">
        <ele>775.928</ele>
        <time>2018-07-20T17:51:35Z</time>
      </trkpt>
      <trkpt lat="42.444707" lon="-8.411445">
        <ele>777.768</ele>
        <time>2018-07-20T17:51:55Z</time>
      </trkpt>
      <trkpt lat="42.444766" lon="-8.411314">
        <ele>777.363</ele>
        <time>2018-07-20T17:52:15Z</time>
      </trkpt>
      <trkpt lat="42.444749" lon="-8.411242">
        <ele>778.739</ele>
        <time>2018-07-20T17:52:35Z</time>
      </trkpt>
      <trkpt lat="42.444747" lon="-8.411235">
        <ele>778.973</ele>
        <time>2018-07-20T17:52:55Z</time>
      </trkpt>
      <trkpt lat="42.444749" lon="-8.411069">
        <ele>781.185</ele>
        <time>2018-07-20T17:53:15Z</time>
      </trkpt>
      <trkpt lat="42.444747" lon="-8.411064">
        <ele>781.313</ele>
        <time>2018-07-20T17:53:35Z</time>
      </trkpt>
      <trkpt lat="42.444737" lon="-8.410917">
        <ele>784.708</ele>
        <time>2018-07-20T17:53:55Z</time>
      </trkpt>
      <trkpt lat="42.444734" lon="-8.410860">
        <ele>786.079</ele>
        <time>2018-07-20T17:54:15Z</time>
      </trkpt>
      <trkpt lat="42.444735" lon="-8.410856">
        <ele>786.163</ele>
        <time>2018-07-20T17:54:35Z</time>
      </trkpt>
      <trkpt lat="42.444785" lon="-8.410769">
        <ele>786.554</ele>
        <time>2018-07-20T17:54:55Z</time>
      </trkpt>
      <trkpt lat="42.444794" lon="-8.410762">
        <ele>786.471</ele>
        <time>2018-07-20T17:55:15Z</time>
      </trkpt>
      <trkpt lat="42.444887" lon="-8.410688">
        <ele>785.086</ele>
        <time>2018-07-20T17:55:35Z</time>
      </trkpt>
      <trkpt lat="42.444900" lon="-8.410679">
        <ele>784.816</ele>
        <time>2018-07-20T17:55:55Z</time>
      </trkpt>
      <trkpt lat="42.445054" lon="-8.410582">
        <ele>783.181</ele>
        <time>2018-07-20T17:56:15Z</time>
      </trkpt>
      <trkpt lat="42.445067" lon="-8.410574">
        <ele>783.147</ele>
        <time>2018-07-20T17:56:35Z</time>
      </trkpt>
      <trkpt lat="42.445076" lon="-8.410566">
        <ele>783.267</ele>
        <time>2018-07-20T17:56:55Z</time>
      </trkpt>
      <trkpt lat="42.445184" lon="-8.410499">
        <ele>784.081</ele>
        <time>2018-07-20T17:57:15Z</time>
      </trkpt>
      <trkpt lat="42.445195" lon="-8.410490">
        <ele>784.119</ele>
        <time>2018-07-20T17:57:35Z</time>
      </trkpt>
      <trkpt lat="42.445155" lon="-8.410427">
        <ele>786.208</ele>
        <time>2018-07-20T17:57:55Z</time>
      </trkpt>
      <trkpt lat="42.445055" lon="-8.410397">
        <ele>788.768</ele>
        <time>2018-07-20T17:58:15Z</time>
      </trkpt>
      <trkpt lat="42.444959" lon="-8.410381">
        <ele>791.692</ele>
        <time>2018-07-20T17:58:35Z</time>
      </trkpt>
      <trkpt lat="42.444896" lon="-8.410345">
        <ele>794.883</ele>
        <time>2018-07-20T17:58:55Z</time>
      </trkpt>
      <trkpt lat="42.444847" lon="-8.410297">
        <ele>797.890</ele>
        <time>2018-07-20T17:59:15Z</time>
      </trkpt>
      <trkpt lat="42.444851" lon="-8.410290">
        <ele>797.975</ele>
        <time>2018-07-20T17:59:35Z</time>
      </trkpt>
      <trkpt lat="42.444804" lon="-8.410282">
        <ele>799.585</ele>
        <time>2018-07-20T17:59:55Z</time>
      </trkpt>
      <trkpt lat="42.444686" lon="-8.410308">
        <ele>801.840</ele>
        <time>2018-07-20T18:00:15Z</time>
      </trkpt>
      <trkpt lat="42.444602" lon="-8.410331">
        <ele>803.086</ele>
        <time>2018-07-20T18:00:35Z</time>
      </trkpt>
      <trkpt lat="42.444523" lon="-8.410357">
        <ele>804.186</ele>
        <time>2018-07-20T18:00:55Z</time>
      </trkpt>
      <trkpt lat="42.444447" lon="-8.410418">
        <ele>804.960</ele>
        <time>2018-07-20T18:01:15Z</time>
      </trkpt>
      <trkpt lat="42.444382" lon="-8.410524">
        <ele>804.926</ele>
        <time>2018-07-20T18:01:35Z</time>
      </trkpt>
      <trkpt lat="42.444266" lon="-8.410640">
        <ele>804.908</ele>
        <time>2018-07-20T18:01:55Z</time>
      </trkpt>
      <trkpt lat="42.444211" lon="-8.410702">
        <ele>804.590</ele>
        <time>2018-07-20T18:02:15Z</time>
      </trkpt>
      <trkpt lat="42.444142" lon="-8.410743">
        <ele>804.814</ele>
        <time>2018-07-20T18:02:35Z</time>
      </trkpt>
      <trkpt lat="42.444065" lon="-8.410772">
        <ele>805.885</ele>
        <time>2018-07-20T18:02:55Z</time>
      </trkpt>
      <trkpt lat="42.444033" lon="-8.410782">
        <ele>806.352</ele>
        <time>2018-07-20T18:03:15Z</time>
      </trkpt>
      <trkpt lat="42.443971" lon="-8.410742">
        <ele>808.837</ele>
        <time>2018-07-20T18:03:35Z</time>
      </trkpt>
      <trkpt lat="42.443838" lon="-8.410687">
        <ele>812.677</ele>
        <time>2018-07-20T18:03:55Z</time>
      </trkpt>
      <trkpt lat="42.443721" lon="-8.410641">
        <ele>814.512</ele>
        <time>2018-07-20T18:04:15Z</time>
      </trkpt>
      <trkpt lat="42.443625" lon="-8.410632">
        <ele>815.358</ele>
        <time>2018-07-20T18:04:35Z</time>
      </trkpt>
      <trkpt lat="42.443490" lon="-8.410611">
        <ele>815.559</ele>
        <time>2018-07-20T18:04:55Z</time>
      </trkpt>
      <trkpt lat="42.443391" lon="-8.410576">
        <ele>815.803</ele>
        <time>2018-07-20T18:05:15Z</time>
      </trkpt>
      <trkpt lat="42.443327" lon="-8.410536">
        <ele>816.423</ele>
        <time>2018-07-20T18:05:35Z</time>
      </trkpt>
      <trkpt lat="42.443324" lon="-8.410533">
        <ele>816.508</ele>
        <time>2018-07-20T18:05:55Z</time>
      </trkpt>
      <trkpt lat="42.443274" lon="-8.410498">
        <ele>817.037</ele>
        <time>2018-07-20T18:06:15Z</time>
      </trkpt>
      <trkpt lat="42.443216" lon="-8.410405">
        <ele>818.751</ele>
        <time>2018-07-20T18:06:35Z</time>
      </trkpt>
      <trkpt lat="42.443214" lon="-8.410398">
        <ele>818.942</ele>
        <time>2018-07-20T18:06:55Z</time>
      </trkpt>
      <trkpt lat="42.443214" lon="-8.410395">
        <ele>818.969</ele>
        <time>2018-07-20T18:07:15Z</time>
      </trkpt>
      <trkpt lat="42.443123" lon="-8.410309">
        <ele>820.084</ele>
        <time>2018-07-20T18:07:35Z</time>
      </trkpt>
      <trkpt lat="42.443051" lon="-8.410263">
        <ele>820.624</ele>
        <time>2018-07-20T18:07:55Z</time>
      </trkpt>
      <trkpt lat="42.442915" lon="-8.410308">
        <ele>821.989</ele>
        <time>2018-07-20T18:08:15Z</time>
      </trkpt>
      <trkpt lat="42.442828" lon="-8.410351">
        <ele>822.585</ele>
        <time>2018-07-20T18:08:35Z</time>
      </trkpt>
      <trkpt lat="42.442827" lon="-8.410352">
        <ele>822.523</ele>
        <time>2018-07-20T18:08:55Z</time>
      </trkpt>
      <trkpt lat="42.442764" lon="-8.410384">
        <ele>822.983</ele>
        <time>2018-07-20T18:09:15Z</time>
      </trkpt>
      <trkpt lat="42.442588" lon="-8.410438">
        <ele>825.111</ele>
        <time>2018-07-20T18:09:35Z</time>
      </trkpt>
      <trkpt lat="42.442432" lon="-8.410470">
        <ele>828.208</ele>
        <time>2018-07-20T18:09:55Z</time>
      </trkpt>
      <trkpt lat="42.442314" lon="-8.410541">
        <ele>830.664</ele>
        <time>2018-07-20T18:10:15Z</time>
      </trkpt>
      <trkpt lat="42.442233" lon="-8.410577">
        <ele>832.288</ele>
        <time>2018-07-20T18:10:35Z</time>
      </trkpt>
      <trkpt lat="42.442076" lon="-8.410641">
        <ele>834.819</ele>
        <time>2018-07-20T18:10:55Z</time>
      </trkpt>
      <trkpt lat="42.441898" lon="-8.410744">
        <ele>837.126</ele>
        <time>2018-07-20T18:11:15Z</time>
      </trkpt>
      <trkpt lat="42.441749" lon="-8.410801">
        <ele>839.651</ele>
        <time>2018-07-20T18:11:35Z</time>
      </trkpt>
      <trkpt lat="42.441559" lon="-8.410889">
        <ele>840.981</ele>
        <time>2018-07-20T18:11:55Z</time>
      </trkpt>
      <trkpt lat="42.441423" lon="-8.410908">
        <ele>841.826</ele>
        <time>2018-07-20T18:12:15Z</time>
      </trkpt>
      <trkpt lat="42.441321" lon="-8.410868">
        <ele>843.952</ele>
        <time>2018-07-20T18:12:35Z</time>
      </trkpt>
      <trkpt lat="42.441172" lon="-8.410806">
        <ele>847.249</ele>
        <time>2018-07-20T18:12:55Z</time>
      </trkpt>
      <trkpt lat="42.441007" lon="-8.410765">
        <ele>851.102</ele>
        <time>2018-07-20T18:13:15Z</time>
      </trkpt>
      <trkpt lat="42.440920" lon="-8.410767">
        <ele>852.622</ele>
        <time>2018-07-20T18:13:35Z</time>
      </trkpt>
      <trkpt lat="42.440806" lon="-8.410780">
        <ele>853.908</ele>
        <time>2018-07-20T18:13:55Z</time>
      </trkpt>
      <trkpt lat="42.440620" lon="-8.410750">
        <ele>856.036</ele>
        <time>2018-07-20T18:14:15Z</time>
      </trkpt>
      <trkpt lat="42.440338" lon="-8.410676">
        <ele>860.530</ele>
        <time>2018-07-20T18:14:35Z</time>
      </trkpt>
      <trkpt lat="42.440072" lon="-8.410557">
        <ele>866.481</ele>
        <time>2018-07-20T18:14:55Z</time>
      </trkpt>
      <trkpt lat="42.439781" lon="-8.410467">
        <ele>871.518</ele>
        <time>2018-07-20T18:15:15Z</time>
      </trkpt>
      <trkpt lat="42.439362" lon="-8.410287">
        <ele>878.593</ele>
        <time>2018-07-20T18:15:35Z</time>
      </trkpt>
      <trkpt lat="42.439104" lon="-8.410145">
        <ele>878.763</ele>
        <time>2018-07-20T18:15:55Z</time>
      </trkpt>
      <trkpt lat="42.438923" lon="-8.409893">
        <ele>882.018</ele>
        <time>2018-07-20T18:16:15Z</time>
      </trkpt>
      <trkpt lat="42.438832" lon="-8.409626">
        <ele>886.114</ele>
        <time>2018-07-20T18:16:35Z</time>
      </trkpt>
      <trkpt lat="42.438802" lon="-8.409402">
        <ele>890.738</ele>
        <time>2018-07-20T18:16:55Z</time>
      </trkpt>
      <trkpt lat="42.438831" lon="-8.409179">
        <ele>896.170</ele>
        <time>2018-07-20T18:17:15Z</time>
      </trkpt>
      <trkpt lat="42.438856" lon="-8.408995">
        <ele>898.817</ele>
        <time>2018-07-20T18:17:35Z</time>
      </trkpt>
      <trkpt lat="42.438930" lon="-8.408775">
        <ele>902.408</ele>
        <time>2018-07-20T18:17:55Z</time>
      </trkpt>
      <trkpt lat="42.439019" lon="-8.408529">
        <ele>905.375</ele>
        <time>2018-07-20T18:18:15Z</time>
      </trkpt>
      <trkpt lat="42.439021" lon="-8.408525">
        <ele>905.319</ele>
        <time>2018-07-20T18:18:35Z</time>
      </trkpt>
      <trkpt lat="42.439128" lon="-8.408271">
        <ele>908.060</ele>
        <time>2018-07-20T18:18:55Z</time>
      </trkpt>
      <trkpt lat="42.439133" lon="-8.408261">
        <ele>908.217</ele>
        <time>2018-07-20T18:19:15Z</time>
      </trkpt>
      <trkpt lat="42.439235" lon="-8.408110">
        <ele>910.772</ele>
        <time>2018-07-20T18:19:35Z</time>
      </trkpt>
      <trkpt lat="42.439240" lon="-8.408102">
        <ele>910.812</ele>
        <time>2018-07-20T18:19:55Z</time>
      </trkpt>
      <trkpt lat="42.439385" lon="-8.407934">
        <ele>914.167</ele>
        <time>2018-07-20T18:20:15Z</time>
      </trkpt>
      <trkpt lat="42.439391" lon="-8.407929">
        <ele>914.223</ele>
        <time>2018-07-20T18:20:35Z</time>
      </trkpt>
      <trkpt lat="42.439551" lon="-8.407858">
        <ele>916.813</ele>
        <time>2018-07-20T18:20:55Z</time>
      </trkpt>
      <trkpt lat="42.439562" lon="-8.407860">
        <ele>917.043</ele>
        <time>2018-07-20T18:21:15Z</time>
      </trkpt>
      <trkpt lat="42.439705" lon="-8.407864">
        <ele>919.107</ele>
        <time>2018-07-20T18:21:35Z</time>
      </trkpt>
      <trkpt lat="42.439808" lon="-8.407903">
        <ele>919.908</ele>
        <time>2018-07-20T18:21:55Z</time>
      </trkpt>
      <trkpt lat="42.439816" lon="-8.407907">
        <ele>920.083</ele>
        <time>2018-07-20T18:22:15Z</time>
      </trkpt>
      <trkpt lat="42.439903" lon="-8.407955">
        <ele>920.577</ele>
        <time>2018-07-20T18:22:35Z</time>
      </trkpt>
      <trkpt lat="42.440062" lon="-8.407959">
        <ele>921.588</ele>
        <time>2018-07-20T18:22:55Z</time>
      </trkpt>
      <trkpt lat="42.440073" lon="-8.407955">
        <ele>921.665</ele>
        <time>2018-07-20T18:23:15Z</time>
      </trkpt>
      <trkpt lat="42.440308" lon="-8.407772">
        <ele>924.450</ele>
        <time>2018-07-20T18:23:35Z</time>
      </trkpt>
      <trkpt lat="42.440321" lon="-8.407755">
        <ele>924.550</ele>
        <time>2018-07-20T18:23:55Z</time>
      </trkpt>
      <trkpt lat="42.440573" lon="-8.407557">
        <ele>926.615</ele>
        <time>2018-07-20T18:24:15Z</time>
      </trkpt>
      <trkpt lat="42.440800" lon="-8.407247">
        <ele>926.711</ele>
        <time>2018-07-20T18:24:35Z</time>
      </trkpt>
      <trkpt lat="42.441042" lon="-8.406887">
        <ele>926.324</ele>
        <time>2018-07-20T18:24:55Z</time>
      </trkpt>
      <trkpt lat="42.441064" lon="-8.406863">
        <ele>926.404</ele>
        <time>2018-07-20T18:25:15Z</time>
      </trkpt>
      <trkpt lat="42.441068" lon="-8.406858">
        <ele>926.414</ele>
        <time>2018-07-20T18:25:35Z</time>
      </trkpt>
      <trkpt lat="42.441235" lon="-8.406708">
        <ele>926.708</ele>
        <time>2018-07-20T18:25:55Z</time>
      </trkpt>
      <trkpt lat="42.441264" lon="-8.406692">
        <ele>926.914</ele>
        <time>2018-07-20T18:26:15Z</time>
      </trkpt>
      <trkpt lat="42.441533" lon="-8.406555">
        <ele>926.918</ele>
        <time>2018-07-20T18:26:35Z</time>
      </trkpt>
      <trkpt lat="42.441544" lon="-8.406553">
        <ele>926.969</ele>
        <time>2018-07-20T18:26:55Z</time>
      </trkpt>
      <trkpt lat="42.441839" lon="-8.406476">
        <ele>924.996</ele>
        <time>2018-07-20T18:27:15Z</time>
      </trkpt>
      <trkpt lat="42.441855" lon="-8.406471">
        <ele>924.881</ele>
        <time>2018-07-20T18:27:35Z</time>
      </trkpt>
      <trkpt lat="42.442245" lon="-8.406326">
        <ele>923.281</ele>
        <time>2018-07-20T18:27:55Z</time>
      </trkpt>
      <trkpt lat="42.442283" lon="-8.406306">
        <ele>923.466</ele>
        <time>2018-07-20T18:28:15Z</time>
      </trkpt>
      <trkpt lat="42.442488" lon="-8.406140">
        <ele>924.892</ele>
        <time>2018-07-20T18:28:35Z</time>
      </trkpt>
      <trkpt lat="42.442501" lon="-8.405985">
        <ele>925.099</ele>
        <time>2018-07-20T18:28:55Z</time>
      </trkpt>
      <trkpt lat="42.442585" lon="-8.405660">
        <ele>923.807</ele>
        <time>2018-07-20T18:29:15Z</time>
      </trkpt>
      <trkpt lat="42.442756" lon="-8.405381">
        <ele>922.927</ele>
        <time>2018-07-20T18:29:35Z</time>
      </trkpt>
      <trkpt lat="42.443066" lon="-8.405235">
        <ele>921.608</ele>
        <time>2018-07-20T18:29:55Z</time>
      </trkpt>
      <trkpt lat="42.443281" lon="-8.405273">
        <ele>920.391</ele>
        <time>2018-07-20T18:30:15Z</time>
      </trkpt>
      <trkpt lat="42.443496" lon="-8.405337">
        <ele>920.155</ele>
        <time>2018-07-20T18:30:35Z</time>
      </trkpt>
      <trkpt lat="42.443661" lon="-8.405432">
        <ele>920.326</ele>
        <time>2018-07-20T18:30:55Z</time>
      </trkpt>
      <trkpt lat="42.444188" lon="-8.405732">
        <ele>916.493</ele>
        <time>2018-07-20T18:31:15Z</time>
      </trkpt>
      <trkpt lat="42.444565" lon="-8.405936">
        <ele>911.228</ele>
        <time>2018-07-20T18:31:35Z</time>
      </trkpt>
      <trkpt lat="42.444878" lon="-8.405967">
        <ele>912.218</ele>
        <time>2018-07-20T18:31:55Z</time>
      </trkpt>
      <trkpt lat="42.445386" lon="-8.405795">
        <ele>913.913</ele>
        <time>2018-07-20T18:32:15Z</time>
      </trkpt>
      <trkpt lat="42.445711" lon="-8.405707">
        <ele>915.619</ele>
        <time>2018-07-20T18:32:35Z</time>
      </trkpt>
      <trkpt lat="42.445910" lon="-8.405504">
        <ele>920.255</ele>
        <time>2018-07-20T18:32:55Z</time>
      </trkpt>
      <trkpt lat="42.445971" lon="-8.405310">
        <ele>922.807</ele>
        <time>2018-07-20T18:33:15Z</time>
      </trkpt>
      <trkpt lat="42.446111" lon="-8.405079">
        <ele>926.317</ele>
        <time>2018-07-20T18:33:35Z</time>
      </trkpt>
      <trkpt lat="42.446310" lon="-8.404862">
        <ele>931.308</ele>
        <time>2018-07-20T18:33:55Z</time>
      </trkpt>
      <trkpt lat="42.446470" lon="-8.404684">
        <ele>934.587</ele>
        <time>2018-07-20T18:34:15Z</time>
      </trkpt>
      <trkpt lat="42.446595" lon="-8.404528">
        <ele>935.931</ele>
        <time>2018-07-20T18:34:35Z</time>
      </trkpt>
      <trkpt lat="42.446604" lon="-8.404519">
        <ele>936.142</ele>
        <time>2018-07-20T18:34:55Z</time>
      </trkpt>
      <trkpt lat="42.446762" lon="-8.404341">
        <ele>936.699</ele>
        <time>2018-07-20T18:35:15Z</time>
      </trkpt>
      <trkpt lat="42.446769" lon="-8.404339">
        <ele>936.744</ele>
        <time>2018-07-20T18:35:35Z</time>
      </trkpt>
      <trkpt lat="42.446932" lon="-8.404259">
        <ele>938.154</ele>
        <time>2018-07-20T18:35:55Z</time>
      </trkpt>
      <trkpt lat="42.446945" lon="-8.404254">
        <ele>938.349</ele>
        <time>2018-07-20T18:36:15Z</time>
      </trkpt>
      <trkpt lat="42.447088" lon="-8.404240">
        <ele>940.325</ele>
        <time>2018-07-20T18:36:35Z</time>
      </trkpt>
      <trkpt lat="42.447101" lon="-8.404242">
        <ele>940.566</ele>
        <time>2018-07-20T18:36:55Z</time>
      </trkpt>
      <trkpt lat="42.447393" lon="-8.404203">
        <ele>945.329</ele>
        <time>2018-07-20T18:37:15Z</time>
      </trkpt>
      <trkpt lat="42.447404" lon="-8.404198">
        <ele>945.421</ele>
        <time>2018-07-20T18:37:35Z</time>
      </trkpt>
      <trkpt lat="42.447611" lon="-8.404240">
        <ele>949.708</ele>
        <time>2018-07-20T18:37:55Z</time>
      </trkpt>
      <trkpt lat="42.447858" lon="-8.404191">
        <ele>951.628</ele>
        <time>2018-07-20T18:38:15Z</time>
      </trkpt>
      <trkpt lat="42.448147" lon="-8.404177">
        <ele>950.542</ele>
        <time>2018-07-20T18:38:35Z</time>
      </trkpt>
      <trkpt lat="42.448328" lon="-8.404219">
        <ele>947.863</ele>
        <time>2018-07-20T18:38:55Z</time>
      </trkpt>
      <trkpt lat="42.448298" lon="-8.404381">
        <ele>950.550</ele>
        <time>2018-07-20T18:39:15Z</time>
      </trkpt>
      <trkpt lat="42.448456" lon="-8.404450">
        <ele>950.755</ele>
        <time>2018-07-20T18:39:35Z</time>
      </trkpt>
      <trkpt lat="42.448646" lon="-8.404531">
        <ele>952.035</ele>
        <time>2018-07-20T18:39:55Z</time>
      </trkpt>
      <trkpt lat="42.448889" lon="-8.404620">
        <ele>953.950</ele>
        <time>2018-07-20T18:40:15Z</time>
      </trkpt>
      <trkpt lat="42.449115" lon="-8.404684">
        <ele>949.626</ele>
        <time>2018-07-20T18:40:35Z</time>
      </trkpt>
      <trkpt lat="42.449635" lon="-8.404874">
        <ele>947.559</ele>
        <time>2018-07-20T18:40:55Z</time>
      </trkpt>
      <trkpt lat="42.450013" lon="-8.404935">
        <ele>948.703</ele>
        <time>2018-07-20T18:41:15Z</time>
      </trkpt>
      <trkpt lat="42.450247" lon="-8.404944">
        <ele>947.923</ele>
        <time>2018-07-20T18:41:35Z</time>
      </trkpt>
      <trkpt lat="42.450405" lon="-8.404970">
        <ele>946.908</ele>
        <time>2018-07-20T18:41:55Z</time>
      </trkpt>
      <trkpt lat="42.450658" lon="-8.405109">
        <ele>944.977</ele>
        <time>2018-07-20T18:42:15Z</time>
      </trkpt>
      <trkpt lat="42.450876" lon="-8.405247">
        <ele>942.631</ele>
        <time>2018-07-20T18:42:35Z</time>
      </trkpt>
      <trkpt lat="42.451170" lon="-8.405223">
        <ele>938.332</ele>
        <time>2018-07-20T18:42:55Z</time>
      </trkpt>
      <trkpt lat="42.451309" lon="-8.405069">
        <ele>934.349</ele>
        <time>2018-07-20T18:43:15Z</time>
      </trkpt>
      <trkpt lat="42.451445" lon="-8.404897">
        <ele>930.014</ele>
        <time>2018-07-20T18:43:35Z</time>
      </trkpt>
      <trkpt lat="42.451466" lon="-8.404681">
        <ele>928.224</ele>
        <time>2018-07-20T18:43:55Z</time>
      </trkpt>
      <trkpt lat="42.451535" lon="-8.404455">
        <ele>925.049</ele>
        <time>2018-07-20T18:44:15Z</time>
      </trkpt>
      <trkpt lat="42.451538" lon="-8.404436">
        <ele>924.855</ele>
        <time>2018-07-20T18:44:35Z</time>
      </trkpt>
      <trkpt lat="42.451682" lon="-8.404129">
        <ele>921.755</ele>
        <time>2018-07-20T18:44:55Z</time>
      </trkpt>
      <trkpt lat="42.452025" lon="-8.403804">
        <ele>918.807</ele>
        <time>2018-07-20T18:45:15Z</time>
      </trkpt>
      <trkpt lat="42.452265" lon="-8.403598">
        <ele>915.917</ele>
        <time>2018-07-20T18:45:35Z</time>
      </trkpt>
      <trkpt lat="42.452277" lon="-8.403588">
        <ele>915.808</ele>
        <time>2018-07-20T18:45:55Z</time>
      </trkpt>
      <trkpt lat="42.452586" lon="-8.403393">
        <ele>916.477</ele>
        <time>2018-07-20T18:46:15Z</time>
      </trkpt>
      <trkpt lat="42.452849" lon="-8.403126">
        <ele>918.211</ele>
        <time>2018-07-20T18:46:35Z</time>
      </trkpt>
      <trkpt lat="42.453089" lon="-8.402896">
        <ele>915.832</ele>
        <time>2018-07-20T18:46:55Z</time>
      </trkpt>
      <trkpt lat="42.453399" lon="-8.402603">
        <ele>913.479</ele>
        <time>2018-07-20T18:47:15Z</time>
      </trkpt>
      <trkpt lat="42.453416" lon="-8.402589">
        <ele>913.424</ele>
        <time>2018-07-20T18:47:35Z</time>
      </trkpt>
      <trkpt lat="42.453643" lon="-8.402298">
        <ele>910.144</ele>
        <time>2018-07-20T18:47:55Z</time>
      </trkpt>
      <trkpt lat="42.453784" lon="-8.402159">
        <ele>908.469</ele>
        <time>2018-07-20T18:48:15Z</time>
      </trkpt>
      <trkpt lat="42.453953" lon="-8.401978">
        <ele>906.355</ele>
        <time>2018-07-20T18:48:35Z</time>
      </trkpt>
      <trkpt lat="42.454104" lon="-8.401800">
        <ele>906.542</ele>
        <time>2018-07-20T18:48:55Z</time>
      </trkpt>
      <trkpt lat="42.454089" lon="-8.401657">
        <ele>907.122</ele>
        <time>2018-07-20T18:49:15Z</time>
      </trkpt>
      <trkpt lat="42.454002" lon="-8.401494">
        <ele>908.614</ele>
        <time>2018-07-20T18:49:35Z</time>
      </trkpt>
      <trkpt lat="42.453765" lon="-8.401485">
        <ele>908.108</ele>
        <time>2018-07-20T18:49:55Z</time>
      </trkpt>
      <trkpt lat="42.453552" lon="-8.401470">
        <ele>906.446</ele>
        <time>2018-07-20T18:50:15Z</time>
      </trkpt>
      <trkpt lat="42.453317" lon="-8.401368">
        <ele>903.920</ele>
        <time>2018-07-20T18:50:35Z</time>
      </trkpt>
      <trkpt lat="42.453165" lon="-8.401282">
        <ele>902.641</ele>
        <time>2018-07-20T18:50:55Z</time>
      </trkpt>
      <trkpt lat="42.452966" lon="-8.401185">
        <ele>900.568</ele>
        <time>2018-07-20T18:51:15Z</time>
      </trkpt>
      <trkpt lat="42.452712" lon="-8.401074">
        <ele>898.563</ele>
        <time>2018-07-20T18:51:35Z</time>
      </trkpt>
      <trkpt lat="42.452395" lon="-8.400947">
        <ele>895.983</ele>
        <time>2018-07-20T18:51:55Z</time>
      </trkpt>
      <trkpt lat="42.452214" lon="-8.400867">
        <ele>893.918</ele>
        <time>2018-07-20T18:52:15Z</time>
      </trkpt>
      <trkpt lat="42.451781" lon="-8.400636">
        <ele>890.794</ele>
        <time>2018-07-20T18:52:35Z</time>
      </trkpt>
      <trkpt lat="42.451520" lon="-8.400520">
        <ele>888.229</ele>
        <time>2018-07-20T18:52:55Z</time>
      </trkpt>
      <trkpt lat="42.451255" lon="-8.400492">
        <ele>884.300</ele>
        <time>2018-07-20T18:53:15Z</time>
      </trkpt>
      <trkpt lat="42.451061" lon="-8.400358">
        <ele>881.920</ele>
        <time>2018-07-20T18:53:35Z</time>
      </trkpt>
      <trkpt lat="42.451059" lon="-8.400344">
        <ele>882.008</ele>
        <time>2018-07-20T18:53:55Z</time>
      </trkpt>
      <trkpt lat="42.450935" lon="-8.400163">
        <ele>880.594</ele>
        <time>2018-07-20T18:54:15Z</time>
      </trkpt>
      <trkpt lat="42.450877" lon="-8.399963">
        <ele>880.388</ele>
        <time>2018-07-20T18:54:35Z</time>
      </trkpt>
      <trkpt lat="42.450748" lon="-8.399693">
        <ele>877.789</ele>
        <time>2018-07-20T18:54:55Z</time>
      </trkpt>
      <trkpt lat="42.450554" lon="-8.399362">
        <ele>873.376</ele>
        <time>2018-07-20T18:55:15Z</time>
      </trkpt>
      <trkpt lat="42.450329" lon="-8.399027">
        <ele>872.721</ele>
        <time>2018-07-20T18:55:35Z</time>
      </trkpt>
      <trkpt lat="42.450152" lon="-8.398769">
        <ele>873.241</ele>
        <time>2018-07-20T18:55:55Z</time>
      </trkpt>
      <trkpt lat="42.449933" lon="-8.398506">
        <ele>874.026</ele>
        <time>2018-07-20T18:56:15Z</time>
      </trkpt>
      <trkpt lat="42.449611" lon="-8.398379">
        <ele>874.342</ele>
        <time>2018-07-20T18:56:35Z</time>
      </trkpt>
      <trkpt lat="42.449401" lon="-8.398290">
        <ele>872.765</ele>
        <time>2018-07-20T18:56:55Z</time>
      </trkpt>
      <trkpt lat="42.449267" lon="-8.398075">
        <ele>871.468</ele>
        <time>2018-07-20T18:57:15Z</time>
      </trkpt>
      <trkpt lat="42.449268" lon="-8.398068">
        <ele>871.414</ele>
        <time>2018-07-20T18:57:35Z</time>
      </trkpt>
      <trkpt lat="42.448997" lon="-8.397750">
        <ele>868.008</ele>
        <time>2018-07-20T18:57:55Z</time>
      </trkpt>
      <trkpt lat="42.448740" lon="-8.397604">
        <ele>864.928</ele>
        <time>2018-07-20T18:58:15Z</time>
      </trkpt>
      <trkpt lat="42.448531" lon="-8.397514">
        <ele>861.932</ele>
        <time>2018-07-20T18:58:35Z</time>
      </trkpt>
      <trkpt lat="42.448229" lon="-8.397622">
        <ele>858.173</ele>
        <time>2018-07-20T18:58:55Z</time>
      </trkpt>
      <trkpt lat="42.448013" lon="-8.397717">
        <ele>855.570</ele>
        <time>2018-07-20T18:59:15Z</time>
      </trkpt>
      <trkpt lat="42.447742" lon="-8.397843">
        <ele>851.295</ele>
        <time>2018-07-20T18:59:35Z</time>
      </trkpt>
      <trkpt lat="42.447413" lon="-8.397972">
        <ele>847.295</ele>
        <time>2018-07-20T18:59:55Z</time>
      </trkpt>
      <trkpt lat="42.447117" lon="-8.398060">
        <ele>842.460</ele>
        <time>2018-07-20T19:00:15Z</time>
      </trkpt>
      <trkpt lat="42.446810" lon="-8.397992">
        <ele>838.896</ele>
        <time>2018-07-20T19:00:35Z</time>
      </trkpt>
      <trkpt lat="42.446552" lon="-8.397859">
        <ele>835.163</ele>
        <time>2018-07-20T19:00:55Z</time>
      </trkpt>
      <trkpt lat="42.446434" lon="-8.397707">
        <ele>833.744</ele>
        <time>2018-07-20T19:01:15Z</time>
      </trkpt>
      <trkpt lat="42.446265" lon="-8.397433">
        <ele>829.518</ele>
        <time>2018-07-20T19:01:35Z</time>
      </trkpt>
      <trkpt lat="42.446213" lon="-8.397185">
        <ele>826.708</ele>
        <time>2018-07-20T19:01:55Z</time>
      </trkpt>
      <trkpt lat="42.446171" lon="-8.396903">
        <ele>821.718</ele>
        <time>2018-07-20T19:02:15Z</time>
      </trkpt>
      <trkpt lat="42.446172" lon="-8.396895">
        <ele>821.692</ele>
        <time>2018-07-20T19:02:35Z</time>
      </trkpt>
      <trkpt lat="42.446250" lon="-8.396630">
        <ele>819.093</ele>
        <time>2018-07-20T19:02:55Z</time>
      </trkpt>
      <trkpt lat="42.446262" lon="-8.396616">
        <ele>819.180</ele>
        <time>2018-07-20T19:03:15Z</time>
      </trkpt>
      <trkpt lat="42.446382" lon="-8.396404">
        <ele>818.165</ele>
        <time>2018-07-20T19:03:35Z</time>
      </trkpt>
      <trkpt lat="42.446530" lon="-8.396222">
        <ele>817.915</ele>
        <time>2018-07-20T19:03:55Z</time>
      </trkpt>
      <trkpt lat="42.446644" lon="-8.395985">
        <ele>815.610</ele>
        <time>2018-07-20T19:04:15Z</time>
      </trkpt>
      <trkpt lat="42.446539" lon="-8.395801">
        <ele>812.166</ele>
        <time>2018-07-20T19:04:35Z</time>
      </trkpt>
      <trkpt lat="42.446359" lon="-8.395729">
        <ele>810.451</ele>
        <time>2018-07-20T19:04:55Z</time>
      </trkpt>
      <trkpt lat="42.446179" lon="-8.395637">
        <ele>809.301</ele>
        <time>2018-07-20T19:05:15Z</time>
      </trkpt>
      <trkpt lat="42.446025" lon="-8.395430">
        <ele>808.411</ele>
        <time>2018-07-20T19:05:35Z</time>
      </trkpt>
      <trkpt lat="42.445906" lon="-8.395324">
        <ele>807.008</ele>
        <time>2018-07-20T19:05:55Z</time>
      </trkpt>
      <trkpt lat="42.445794" lon="-8.395179">
        <ele>804.837</ele>
        <time>2018-07-20T19:06:15Z</time>
      </trkpt>
      <trkpt lat="42.445635" lon="-8.395116">
        <ele>802.331</ele>
        <time>2018-07-20T19:06:35Z</time>
      </trkpt>
      <trkpt lat="42.445351" lon="-8.395158">
        <ele>798.842</ele>
        <time>2018-07-20T19:06:55Z</time>
      </trkpt>
      <trkpt lat="42.445094" lon="-8.395161">
        <ele>794.799</ele>
        <time>2018-07-20T19:07:15Z</time>
      </trkpt>
      <trkpt lat="42.444798" lon="-8.395218">
        <ele>790.354</ele>
        <time>2018-07-20T19:07:35Z</time>
      </trkpt>
      <trkpt lat="42.444551" lon="-8.395370">
        <ele>789.314</ele>
        <time>2018-07-20T19:07:55Z</time>
      </trkpt>
      <trkpt lat="42.444307" lon="-8.395487">
        <ele>787.389</ele>
        <time>2018-07-20T19:08:15Z</time>
      </trkpt>
      <trkpt lat="42.444145" lon="-8.395349">
        <ele>783.675</ele>
        <time>2018-07-20T19:08:35Z</time>
      </trkpt>
      <trkpt lat="42.443945" lon="-8.395182">
        <ele>779.717</ele>
        <time>2018-07-20T19:08:55Z</time>
      </trkpt>
      <trkpt lat="42.443767" lon="-8.395095">
        <ele>777.487</ele>
        <time>2018-07-20T19:09:15Z</time>
      </trkpt>
      <trkpt lat="42.443639" lon="-8.395004">
        <ele>775.215</ele>
        <time>2018-07-20T19:09:35Z</time>
      </trkpt>
      <trkpt lat="42.443170" lon="-8.394927">
        <ele>773.308</ele>
        <time>2018-07-20T19:09:55Z</time>
      </trkpt>
      <trkpt lat="42.442849" lon="-8.394882">
        <ele>769.563</ele>
        <time>2018-07-20T19:10:15Z</time>
      </trkpt>
      <trkpt lat="42.442542" lon="-8.394847">
        <ele>766.727</ele>
        <time>2018-07-20T19:10:35Z</time>
      </trkpt>
      <trkpt lat="42.442340" lon="-8.394663">
        <ele>763.388</ele>
        <time>2018-07-20T19:10:55Z</time>
      </trkpt>
      <trkpt lat="42.442342" lon="-8.394651">
        <ele>763.275</ele>
        <time>2018-07-20T19:11:15Z</time>
      </trkpt>
      <trkpt lat="42.441977" lon="-8.394573">
        <ele>757.460</ele>
        <time>2018-07-20T19:11:35Z</time>
      </trkpt>
      <trkpt lat="42.441692" lon="-8.394517">
        <ele>754.750</ele>
        <time>2018-07-20T19:11:55Z</time>
      </trkpt>
      <trkpt lat="42.441454" lon="-8.394402">
        <ele>752.215</ele>
        <time>2018-07-20T19:12:15Z</time>
      </trkpt>
      <trkpt lat="42.441248" lon="-8.394218">
        <ele>747.261</ele>
        <time>2018-07-20T19:12:35Z</time>
      </trkpt>
      <trkpt lat="42.441013" lon="-8.394004">
        <ele>741.359</ele>
        <time>2018-07-20T19:12:55Z</time>
      </trkpt>
      <trkpt lat="42.440727" lon="-8.393879">
        <ele>736.403</ele>
        <time>2018-07-20T19:13:15Z</time>
      </trkpt>
      <trkpt lat="42.440373" lon="-8.393891">
        <ele>732.723</ele>
        <time>2018-07-20T19:13:35Z</time>
      </trkpt>
      <trkpt lat="42.440094" lon="-8.394026">
        <ele>731.808</ele>
        <time>2018-07-20T19:13:55Z</time>
      </trkpt>
      <trkpt lat="42.439967" lon="-8.394217">
        <ele>731.867</ele>
        <time>2018-07-20T19:14:15Z</time>
      </trkpt>
      <trkpt lat="42.439820" lon="-8.394443">
        <ele>730.431</ele>
        <time>2018-07-20T19:14:35Z</time>
      </trkpt>
      <trkpt lat="42.439766" lon="-8.394640">
        <ele>728.812</ele>
        <time>2018-07-20T19:14:55Z</time>
      </trkpt>
      <trkpt lat="42.439652" lon="-8.394805">
        <ele>726.479</ele>
        <time>2018-07-20T19:15:15Z</time>
      </trkpt>
      <trkpt lat="42.439449" lon="-8.394957">
        <ele>722.494</ele>
        <time>2018-07-20T19:15:35Z</time>
      </trkpt>
      <trkpt lat="42.439173" lon="-8.395074">
        <ele>719.594</ele>
        <time>2018-07-20T19:15:55Z</time>
      </trkpt>
      <trkpt lat="42.438955" lon="-8.395170">
        <ele>718.089</ele>
        <time>2018-07-20T19:16:15Z</time>
      </trkpt>
      <trkpt lat="42.438781" lon="-8.395136">
        <ele>717.435</ele>
        <time>2018-07-20T19:16:35Z</time>
      </trkpt>
      <trkpt lat="42.438518" lon="-8.394980">
        <ele>716.692</ele>
        <time>2018-07-20T19:16:55Z</time>
      </trkpt>
      <trkpt lat="42.438220" lon="-8.394907">
        <ele>714.273</ele>
        <time>2018-07-20T19:17:15Z</time>
      </trkpt>
      <trkpt lat="42.437877" lon="-8.394844">
        <ele>709.120</ele>
        <time>2018-07-20T19:17:35Z</time>
      </trkpt>
      <trkpt lat="42.437559" lon="-8.394830">
        <ele>705.608</ele>
        <time>2018-07-20T19:17:55Z</time>
      </trkpt>
      <trkpt lat="42.437313" lon="-8.394779">
        <ele>701.551</ele>
        <time>2018-07-20T19:18:15Z</time>
      </trkpt>
      <trkpt lat="42.437090" lon="-8.394775">
        <ele>696.545</ele>
        <time>2018-07-20T19:18:35Z</time>
      </trkpt>
      <trkpt lat="42.436831" lon="-8.394791">
        <ele>690.376</ele>
        <time>2018-07-20T19:18:55Z</time>
      </trkpt>
      <trkpt lat="42.436636" lon="-8.394882">
        <ele>685.493</ele>
        <time>2018-07-20T19:19:15Z</time>
      </trkpt>
      <trkpt lat="42.436463" lon="-8.394906">
        <ele>679.368</ele>
        <time>2018-07-20T19:19:35Z</time>
      </trkpt>
      <trkpt lat="42.436370" lon="-8.394782">
        <ele>676.978</ele>
        <time>2018-07-20T19:19:55Z</time>
      </trkpt>
      <trkpt lat="42.436349" lon="-8.394532">
        <ele>677.633</ele>
        <time>2018-07-20T19:20:15Z</time>
      </trkpt>
      <trkpt lat="42.436344" lon="-8.394527">
        <ele>677.579</ele>
        <time>2018-07-20T19:20:35Z</time>
      </trkpt>
      <trkpt lat="42.436223" lon="-8.394384">
        <ele>674.861</ele>
        <time>2018-07-20T19:20:55Z</time>
      </trkpt>
      <trkpt lat="42.436038" lon="-8.394210">
        <ele>669.721</ele>
        <time>2018-07-20T19:21:15Z</time>
      </trkpt>
      <trkpt lat="42.435831" lon="-8.394258">
        <ele>663.613</ele>
        <time>2018-07-20T19:21:35Z</time>
      </trkpt>
      <trkpt lat="42.435625" lon="-8.394397">
        <ele>658.008</ele>
        <time>2018-07-20T19:21:55Z</time>
      </trkpt>
      <trkpt lat="42.435502" lon="-8.394481">
        <ele>654.148</ele>
        <time>2018-07-20T19:22:15Z</time>
      </trkpt>
      <trkpt lat="42.435493" lon="-8.394483">
        <ele>653.872</ele>
        <time>2018-07-20T19:22:35Z</time>
      </trkpt>
      <trkpt lat="42.435392" lon="-8.394484">
        <ele>650.943</ele>
        <time>2018-07-20T19:22:55Z</time>
      </trkpt>
      <trkpt lat="42.435187" lon="-8.394325">
        <ele>645.560</ele>
        <time>2018-07-20T19:23:15Z</time>
      </trkpt>
      <trkpt lat="42.434982" lon="-8.394162">
        <ele>641.485</ele>
        <time>2018-07-20T19:23:35Z</time>
      </trkpt>
      <trkpt lat="42.434904" lon="-8.393848">
        <ele>637.045</ele>
        <time>2018-07-20T19:23:55Z</time>
      </trkpt>
      <trkpt lat="42.434844" lon="-8.393569">
        <ele>633.470</ele>
        <time>2018-07-20T19:24:15Z</time>
      </trkpt>
      <trkpt lat="42.434938" lon="-8.393283">
        <ele>631.816</ele>
        <time>2018-07-20T19:24:35Z</time>
      </trkpt>
      <trkpt lat="42.435059" lon="-8.393001">
        <ele>631.145</ele>
        <time>2018-07-20T19:24:55Z</time>
      </trkpt>
      <trkpt lat="42.435066" lon="-8.392856">
        <ele>630.747</ele>
        <time>2018-07-20T19:25:15Z</time>
      </trkpt>
      <trkpt lat="42.435018" lon="-8.392683">
        <ele>628.511</ele>
        <time>2018-07-20T19:25:35Z</time>
      </trkpt>
      <trkpt lat="42.435026" lon="-8.392419">
        <ele>625.808</ele>
        <time>2018-07-20T19:25:55Z</time>
      </trkpt>
      <trkpt lat="42.435040" lon="-8.392399">
        <ele>626.086</ele>
        <time>2018-07-20T19:26:15Z</time>
      </trkpt>
      <trkpt lat="42.435129" lon="-8.392160">
        <ele>626.190</ele>
        <time>2018-07-20T19:26:35Z</time>
      </trkpt>
      <trkpt lat="42.435200" lon="-8.391948">
        <ele>624.891</ele>
        <time>2018-07-20T19:26:55Z</time>
      </trkpt>
      <trkpt lat="42.435176" lon="-8.391526">
        <ele>620.718</ele>
        <time>2018-07-20T19:27:15Z</time>
      </trkpt>
      <trkpt lat="42.435002" lon="-8.391020">
        <ele>619.073</ele>
        <time>2018-07-20T19:27:35Z</time>
      </trkpt>
      <trkpt lat="42.434723" lon="-8.390827">
        <ele>616.113</ele>
        <time>2018-07-20T19:27:55Z</time>
      </trkpt>
      <trkpt lat="42.434339" lon="-8.390809">
        <ele>608.128</ele>
        <time>2018-07-20T19:28:15Z</time>
      </trkpt>
      <trkpt lat="42.434077" lon="-8.390837">
        <ele>605.764</ele>
        <time>2018-07-20T19:28:35Z</time>
      </trkpt>
      <trkpt lat="42.433923" lon="-8.390680">
        <ele>605.318</ele>
        <time>2018-07-20T19:28:55Z</time>
      </trkpt>
      <trkpt lat="42.433762" lon="-8.390649">
        <ele>604.298</ele>
        <time>2018-07-20T19:29:15Z</time>
      </trkpt>
      <trkpt lat="42.433699" lon="-8.390825">
        <ele>604.317</ele>
        <time>2018-07-20T19:29:35Z</time>
      </trkpt>
      <trkpt lat="42.433592" lon="-8.390896">
        <ele>604.408</ele>
        <time>2018-07-20T19:29:55Z</time>
      </trkpt>
      <trkpt lat="42.433411" lon="-8.390690">
        <ele>603.543</ele>
        <time>2018-07-20T19:30:15Z</time>
      </trkpt>
      <trkpt lat="42.432889" lon="-8.390315">
        <ele>603.547</ele>
        <time>2018-07-20T19:30:35Z</time>
      </trkpt>
      <trkpt lat="42.432425" lon="-8.389841">
        <ele>603.468</ele>
        <time>2018-07-20T19:30:55Z</time>
      </trkpt>
      <trkpt lat="42.432086" lon="-8.389464">
        <ele>601.875</ele>
        <time>2018-07-20T19:31:15Z</time>
      </trkpt>
      <trkpt lat="42.432088" lon="-8.389110">
        <ele>602.720</ele>
        <time>2018-07-20T19:31:35Z</time>
      </trkpt>
      <trkpt lat="42.432237" lon="-8.388969">
        <ele>604.130</ele>
        <time>2018-07-20T19:31:55Z</time>
      </trkpt>
      <trkpt lat="42.432493" lon="-8.388754">
        <ele>605.465</ele>
        <time>2018-07-20T19:32:15Z</time>
      </trkpt>
      <trkpt lat="42.432785" lon="-8.388639">
        <ele>607.321</ele>
        <time>2018-07-20T19:32:35Z</time>
      </trkpt>
      <trkpt lat="42.433203" lon="-8.388539">
        <ele>604.469</ele>
        <time>2018-07-20T19:32:55Z</time>
      </trkpt>
      <trkpt lat="42.433744" lon="-8.388465">
        <ele>603.104</ele>
        <time>2018-07-20T19:33:15Z</time>
      </trkpt>
      <trkpt lat="42.434144" lon="-8.388358">
        <ele>603.324</ele>
        <time>2018-07-20T19:33:35Z</time>
      </trkpt>
      <trkpt lat="42.434230" lon="-8.388260">
        <ele>601.808</ele>
        <time>2018-07-20T19:33:55Z</time>
      </trkpt>
      <trkpt lat="42.433983" lon="-8.388304">
        <ele>601.978</ele>
        <time>2018-07-20T19:34:15Z</time>
      </trkpt>
      <trkpt lat="42.433738" lon="-8.388324">
        <ele>600.812</ele>
        <time>2018-07-20T19:34:35Z</time>
      </trkpt>
      <trkpt lat="42.433517" lon="-8.388192">
        <ele>598.333</ele>
        <time>2018-07-20T19:34:55Z</time>
      </trkpt>
      <trkpt lat="42.433200" lon="-8.387913">
        <ele>597.280</ele>
        <time>2018-07-20T19:35:15Z</time>
      </trkpt>
      <trkpt lat="42.432868" lon="-8.387811">
        <ele>595.055</ele>
        <time>2018-07-20T19:35:35Z</time>
      </trkpt>
      <trkpt lat="42.432581" lon="-8.387644">
        <ele>591.885</ele>
        <time>2018-07-20T19:35:55Z</time>
      </trkpt>
      <trkpt lat="42.432288" lon="-8.387496">
        <ele>588.420</ele>
        <time>2018-07-20T19:36:15Z</time>
      </trkpt>
      <trkpt lat="42.432051" lon="-8.387405">
        <ele>585.336</ele>
        <time>2018-07-20T19:36:35Z</time>
      </trkpt>
      <trkpt lat="42.431922" lon="-8.387137">
        <ele>582.891</ele>
        <time>2018-07-20T19:36:55Z</time>
      </trkpt>
      <trkpt lat="42.431909" lon="-8.387110">
        <ele>582.781</ele>
        <time>2018-07-20T19:37:15Z</time>
      </trkpt>
      <trkpt lat="42.431825" lon="-8.386931">
        <ele>582.119</ele>
        <time>2018-07-20T19:37:35Z</time>
      </trkpt>
      <trkpt lat="42.431609" lon="-8.386759">
        <ele>582.108</ele>
        <time>2018-07-20T19:37:55Z</time>
      </trkpt>
      <trkpt lat="42.431388" lon="-8.386548">
        <ele>582.051</ele>
        <time>2018-07-20T19:38:15Z</time>
      </trkpt>
      <trkpt lat="42.431132" lon="-8.386453">
        <ele>580.155</ele>
        <time>2018-07-20T19:38:35Z</time>
      </trkpt>
      <trkpt lat="42.430866" lon="-8.386292">
        <ele>578.566</ele>
        <time>2018-07-20T19:38:55Z</time>
      </trkpt>
      <trkpt lat="42.430706" lon="-8.386119">
        <ele>577.593</ele>
        <time>2018-07-20T19:39:15Z</time>
      </trkpt>
      <trkpt lat="42.430528" lon="-8.385976">
        <ele>576.698</ele>
        <time>2018-07-20T19:39:35Z</time>
      </trkpt>
      <trkpt lat="42.430265" lon="-8.386114">
        <ele>578.918</ele>
        <time>2018-07-20T19:39:55Z</time>
      </trkpt>
      <trkpt lat="42.430115" lon="-8.386295">
        <ele>579.263</ele>
        <time>2018-07-20T19:40:15Z</time>
      </trkpt>
      <trkpt lat="42.429813" lon="-8.386647">
        <ele>577.629</ele>
        <time>2018-07-20T19:40:35Z</time>
      </trkpt>
      <trkpt lat="42.429609" lon="-8.386799">
        <ele>575.295</ele>
        <time>2018-07-20T19:40:55Z</time>
      </trkpt>
      <trkpt lat="42.429448" lon="-8.386959">
        <ele>572.949</ele>
        <time>2018-07-20T19:41:15Z</time>
      </trkpt>
      <trkpt lat="42.429045" lon="-8.387317">
        <ele>565.823</ele>
        <time>2018-07-20T19:41:35Z</time>
      </trkpt>
      <trkpt lat="42.428865" lon="-8.387427">
        <ele>564.008</ele>
        <time>2018-07-20T19:41:55Z</time>
      </trkpt>
      <trkpt lat="42.428732" lon="-8.387361">
        <ele>562.571</ele>
        <time>2018-07-20T19:42:15Z</time>
      </trkpt>
      <trkpt lat="42.428566" lon="-8.387252">
        <ele>559.165</ele>
        <time>2018-07-20T19:42:35Z</time>
      </trkpt>
      <trkpt lat="42.428499" lon="-8.386985">
        <ele>554.446</ele>
        <time>2018-07-20T19:42:55Z</time>
      </trkpt>
      <trkpt lat="42.428511" lon="-8.386962">
        <ele>554.643</ele>
        <time>2018-07-20T19:43:15Z</time>
      </trkpt>
      <trkpt lat="42.428608" lon="-8.386506">
        <ele>550.498</ele>
        <time>2018-07-20T19:43:35Z</time>
      </trkpt>
      <trkpt lat="42.428740" lon="-8.386168">
        <ele>545.988</ele>
        <time>2018-07-20T19:43:55Z</time>
      </trkpt>
      <trkpt lat="42.428981" lon="-8.385684">
        <ele>543.863</ele>
        <time>2018-07-20T19:44:15Z</time>
      </trkpt>
      <trkpt lat="42.429298" lon="-8.385176">
        <ele>541.399</ele>
        <time>2018-07-20T19:44:35Z</time>
      </trkpt>
      <trkpt lat="42.429496" lon="-8.384900">
        <ele>540.528</ele>
        <time>2018-07-20T19:44:55Z</time>
      </trkpt>
      <trkpt lat="42.429498" lon="-8.384890">
        <ele>540.389</ele>
        <time>2018-07-20T19:45:15Z</time>
      </trkpt>
      <trkpt lat="42.429763" lon="-8.384648">
        <ele>539.817</ele>
        <time>2018-07-20T19:45:35Z</time>
      </trkpt>
      <trkpt lat="42.429783" lon="-8.384639">
        <ele>540.008</ele>
        <time>2018-07-20T19:45:55Z</time>
      </trkpt>
      <trkpt lat="42.430028" lon="-8.384543">
        <ele>541.424</ele>
        <time>2018-07-20T19:46:15Z</time>
      </trkpt>
      <trkpt lat="42.430291" lon="-8.384316">
        <ele>538.368</ele>
        <time>2018-07-20T19:46:35Z</time>
      </trkpt>
      <trkpt lat="42.430335" lon="-8.384038">
        <ele>533.379</ele>
        <time>2018-07-20T19:46:55Z</time>
      </trkpt>
      <trkpt lat="42.430208" lon="-8.383852">
        <ele>533.176</ele>
        <time>2018-07-20T19:47:15Z</time>
      </trkpt>
      <trkpt lat="42.429975" lon="-8.383689">
        <ele>538.311</ele>
        <time>2018-07-20T19:47:35Z</time>
      </trkpt>
      <trkpt lat="42.429632" lon="-8.383686">
        <ele>543.431</ele>
        <time>2018-07-20T19:47:55Z</time>
      </trkpt>
      <trkpt lat="42.429174" lon="-8.383961">
        <ele>542.426</ele>
        <time>2018-07-20T19:48:15Z</time>
      </trkpt>
      <trkpt lat="42.428826" lon="-8.384235">
        <ele>544.042</ele>
        <time>2018-07-20T19:48:35Z</time>
      </trkpt>
      <trkpt lat="42.428408" lon="-8.384655">
        <ele>546.048</ele>
        <time>2018-07-20T19:48:55Z</time>
      </trkpt>
      <trkpt lat="42.428142" lon="-8.384944">
        <ele>547.361</ele>
        <time>2018-07-20T19:49:15Z</time>
      </trkpt>
      <trkpt lat="42.428123" lon="-8.384960">
        <ele>547.517</ele>
        <time>2018-07-20T19:49:35Z</time>
      </trkpt>
      <trkpt lat="42.427618" lon="-8.385312">
        <ele>554.808</ele>
        <time>2018-07-20T19:49:55Z</time>
      </trkpt>
      <trkpt lat="42.427200" lon="-8.385600">
        <ele>557.756</ele>
        <time>2018-07-20T19:50:15Z</time>
      </trkpt>
      <trkpt lat="42.426588" lon="-8.385906">
        <ele>567.190</ele>
        <time>2018-07-20T19:50:35Z</time>
      </trkpt>
      <trkpt lat="42.425848" lon="-8.386285">
        <ele>571.071</ele>
        <time>2018-07-20T19:50:55Z</time>
      </trkpt>
      <trkpt lat="42.425338" lon="-8.386579">
        <ele>571.788</ele>
        <time>2018-07-20T19:51:15Z</time>
      </trkpt>
      <trkpt lat="42.424935" lon="-8.386679">
        <ele>572.873</ele>
        <time>2018-07-20T19:51:35Z</time>
      </trkpt>
      <trkpt lat="42.424647" lon="-8.386675">
        <ele>573.233</ele>
        <time>2018-07-20T19:51:55Z</time>
      </trkpt>
      <trkpt lat="42.424499" lon="-8.386262">
        <ele>577.828</ele>
        <time>2018-07-20T19:52:15Z</time>
      </trkpt>
      <trkpt lat="42.424498" lon="-8.386248">
        <ele>578.064</ele>
        <time>2018-07-20T19:52:35Z</time>
      </trkpt>
      <trkpt lat="42.424437" lon="-8.385861">
        <ele>581.621</ele>
        <time>2018-07-20T19:52:55Z</time>
      </trkpt>
      <trkpt lat="42.424433" lon="-8.385827">
        <ele>581.941</ele>
        <time>2018-07-20T19:53:15Z</time>
      </trkpt>
      <trkpt lat="42.424441" lon="-8.385295">
        <ele>586.905</ele>
        <time>2018-07-20T19:53:35Z</time>
      </trkpt>
      <trkpt lat="42.424450" lon="-8.385257">
        <ele>587.208</ele>
        <time>2018-07-20T19:53:55Z</time>
      </trkpt>
      <trkpt lat="42.424511" lon="-8.384753">
        <ele>591.024</ele>
        <time>2018-07-20T19:54:15Z</time>
      </trkpt>
      <trkpt lat="42.424510" lon="-8.384746">
        <ele>591.098</ele>
        <time>2018-07-20T19:54:35Z</time>
      </trkpt>
      <trkpt lat="42.424548" lon="-8.384433">
        <ele>591.829</ele>
        <time>2018-07-20T19:54:55Z</time>
      </trkpt>
      <trkpt lat="42.424729" lon="-8.384226">
        <ele>594.376</ele>
        <time>2018-07-20T19:55:15Z</time>
      </trkpt>
      <trkpt lat="42.424918" lon="-8.383803">
        <ele>594.091</ele>
        <time>2018-07-20T19:55:35Z</time>
      </trkpt>
      <trkpt lat="42.424919" lon="-8.383773">
        <ele>593.811</ele>
        <time>2018-07-20T19:55:55Z</time>
      </trkpt>
      <trkpt lat="42.424826" lon="-8.383214">
        <ele>593.346</ele>
        <time>2018-07-20T19:56:15Z</time>
      </trkpt>
      <trkpt lat="42.424824" lon="-8.383192">
        <ele>593.572</ele>
        <time>2018-07-20T19:56:35Z</time>
      </trkpt>
      <trkpt lat="42.424653" lon="-8.382824">
        <ele>594.749</ele>
        <time>2018-07-20T19:56:55Z</time>
      </trkpt>
      <trkpt lat="42.424517" lon="-8.382713">
        <ele>595.802</ele>
        <time>2018-07-20T19:57:15Z</time>
      </trkpt>
      <trkpt lat="42.424311" lon="-8.382497">
        <ele>599.522</ele>
        <time>2018-07-20T19:57:35Z</time>
      </trkpt>
      <trkpt lat="42.424025" lon="-8.382384">
        <ele>602.308</ele>
        <time>2018-07-20T19:57:55Z</time>
      </trkpt>
      <trkpt lat="42.423850" lon="-8.382282">
        <ele>603.656</ele>
        <time>2018-07-20T19:58:15Z</time>
      </trkpt>
      <trkpt lat="42.423797" lon="-8.382139">
        <ele>604.530</ele>
        <time>2018-07-20T19:58:35Z</time>
      </trkpt>
      <trkpt lat="42.423929" lon="-8.381976">
        <ele>605.871</ele>
        <time>2018-07-20T19:58:55Z</time>
      </trkpt>
      <trkpt lat="42.423973" lon="-8.381700">
        <ele>607.868</ele>
        <time>2018-07-20T19:59:15Z</time>
      </trkpt>
      <trkpt lat="42.424105" lon="-8.381471">
        <ele>610.083</ele>
        <time>2018-07-20T19:59:35Z</time>
      </trkpt>
      <trkpt lat="42.424272" lon="-8.381289">
        <ele>612.153</ele>
        <time>2018-07-20T19:59:55Z</time>
      </trkpt>
      <trkpt lat="42.424277" lon="-8.381163">
        <ele>613.938</ele>
        <time>2018-07-20T20:00:15Z</time>
      </trkpt>
      <trkpt lat="42.424237" lon="-8.381009">
        <ele>616.744</ele>
        <time>2018-07-20T20:00:35Z</time>
      </trkpt>
      <trkpt lat="42.424202" lon="-8.380887">
        <ele>619.086</ele>
        <time>2018-07-20T20:00:55Z</time>
      </trkpt>
      <trkpt lat="42.424292" lon="-8.380746">
        <ele>621.660</ele>
        <time>2018-07-20T20:01:15Z</time>
      </trkpt>
      <trkpt lat="42.424383" lon="-8.380609">
        <ele>624.026</ele>
        <time>2018-07-20T20:01:35Z</time>
      </trkpt>
      <trkpt lat="42.424456" lon="-8.380408">
        <ele>627.108</ele>
        <time>2018-07-20T20:01:55Z</time>
      </trkpt>
      <trkpt lat="42.424584" lon="-8.380241">
        <ele>629.590</ele>
        <time>2018-07-20T20:02:15Z</time>
      </trkpt>
      <trkpt lat="42.424681" lon="-8.380030">
        <ele>631.884</ele>
        <time>2018-07-20T20:02:35Z</time>
      </trkpt>
      <trkpt lat="42.424753" lon="-8.379909">
        <ele>632.255</ele>
        <time>2018-07-20T20:02:55Z</time>
      </trkpt>
      <trkpt lat="42.424761" lon="-8.379786">
        <ele>632.662</ele>
        <time>2018-07-20T20:03:15Z</time>
      </trkpt>
      <trkpt lat="42.424719" lon="-8.379638">
        <ele>633.987</ele>
        <time>2018-07-20T20:03:35Z</time>
      </trkpt>
      <trkpt lat="42.424549" lon="-8.379706">
        <ele>635.147</ele>
        <time>2018-07-20T20:03:55Z</time>
      </trkpt>
      <trkpt lat="42.424261" lon="-8.379868">
        <ele>637.382</ele>
        <time>2018-07-20T20:04:15Z</time>
      </trkpt>
      <trkpt lat="42.423987" lon="-8.379995">
        <ele>638.078</ele>
        <time>2018-07-20T20:04:35Z</time>
      </trkpt>
      <trkpt lat="42.423886" lon="-8.379993">
        <ele>639.165</ele>
        <time>2018-07-20T20:04:55Z</time>
      </trkpt>
      <trkpt lat="42.423757" lon="-8.379849">
        <ele>641.568</ele>
        <time>2018-07-20T20:05:15Z</time>
      </trkpt>
      <trkpt lat="42.423646" lon="-8.379695">
        <ele>644.314</ele>
        <time>2018-07-20T20:05:35Z</time>
      </trkpt>
      <trkpt lat="42.423517" lon="-8.379465">
        <ele>645.808</ele>
        <time>2018-07-20T20:05:55Z</time>
      </trkpt>
      <trkpt lat="42.423490" lon="-8.379249">
        <ele>647.158</ele>
        <time>2018-07-20T20:06:15Z</time>
      </trkpt>
      <trkpt lat="42.423368" lon="-8.378994">
        <ele>646.392</ele>
        <time>2018-07-20T20:06:35Z</time>
      </trkpt>
      <trkpt lat="42.423295" lon="-8.378712">
        <ele>647.393</ele>
        <time>2018-07-20T20:06:55Z</time>
      </trkpt>
      <trkpt lat="42.423142" lon="-8.378512">
        <ele>650.520</ele>
        <time>2018-07-20T20:07:15Z</time>
      </trkpt>
      <trkpt lat="42.422948" lon="-8.378481">
        <ele>652.685</ele>
        <time>2018-07-20T20:07:35Z</time>
      </trkpt>
      <trkpt lat="42.422790" lon="-8.378434">
        <ele>654.755</ele>
        <time>2018-07-20T20:07:55Z</time>
      </trkpt>
      <trkpt lat="42.422617" lon="-8.378382">
        <ele>656.290</ele>
        <time>2018-07-20T20:08:15Z</time>
      </trkpt>
      <trkpt lat="42.422427" lon="-8.378276">
        <ele>658.136</ele>
        <time>2018-07-20T20:08:35Z</time>
      </trkpt>
      <trkpt lat="42.422178" lon="-8.378124">
        <ele>661.264</ele>
        <time>2018-07-20T20:08:55Z</time>
      </trkpt>
      <trkpt lat="42.421974" lon="-8.377976">
        <ele>662.906</ele>
        <time>2018-07-20T20:09:15Z</time>
      </trkpt>
      <trkpt lat="42.421757" lon="-8.377809">
        <ele>665.716</ele>
        <time>2018-07-20T20:09:35Z</time>
      </trkpt>
      <trkpt lat="42.421580" lon="-8.377637">
        <ele>668.208</ele>
        <time>2018-07-20T20:09:55Z</time>
      </trkpt>
      <trkpt lat="42.421356" lon="-8.377476">
        <ele>671.028</ele>
        <time>2018-07-20T20:10:15Z</time>
      </trkpt>
      <trkpt lat="42.421349" lon="-8.377466">
        <ele>671.032</ele>
        <time>2018-07-20T20:10:35Z</time>
      </trkpt>
      <trkpt lat="42.421241" lon="-8.377271">
        <ele>671.713</ele>
        <time>2018-07-20T20:10:55Z</time>
      </trkpt>
      <trkpt lat="42.421130" lon="-8.377169">
        <ele>672.450</ele>
        <time>2018-07-20T20:11:15Z</time>
      </trkpt>
      <trkpt lat="42.420900" lon="-8.377152">
        <ele>673.345</ele>
        <time>2018-07-20T20:11:35Z</time>
      </trkpt>
      <trkpt lat="42.420675" lon="-8.377189">
        <ele>673.235</ele>
        <time>2018-07-20T20:11:55Z</time>
      </trkpt>
      <trkpt lat="42.420562" lon="-8.377072">
        <ele>674.140</ele>
        <time>2018-07-20T20:12:15Z</time>
      </trkpt>
      <trkpt lat="42.420471" lon="-8.376915">
        <ele>675.596</ele>
        <time>2018-07-20T20:12:35Z</time>
      </trkpt>
      <trkpt lat="42.420392" lon="-8.376710">
        <ele>676.846</ele>
        <time>2018-07-20T20:12:55Z</time>
      </trkpt>
      <trkpt lat="42.420298" lon="-8.376548">
        <ele>677.588</ele>
        <time>2018-07-20T20:13:15Z</time>
      </trkpt>
      <trkpt lat="42.420272" lon="-8.376434">
        <ele>677.816</ele>
        <time>2018-07-20T20:13:35Z</time>
      </trkpt>
      <trkpt lat="42.420023" lon="-8.376246">
        <ele>676.708</ele>
        <time>2018-07-20T20:13:55Z</time>
      </trkpt>
      <trkpt lat="42.419801" lon="-8.376036">
        <ele>676.486</ele>
        <time>2018-07-20T20:14:15Z</time>
      </trkpt>
      <trkpt lat="42.419488" lon="-8.375828">
        <ele>678.530</ele>
        <time>2018-07-20T20:14:35Z</time>
      </trkpt>
      <trkpt lat="42.419242" lon="-8.375530">
        <ele>682.031</ele>
        <time>2018-07-20T20:14:55Z</time>
      </trkpt>
      <trkpt lat="42.419100" lon="-8.375302">
        <ele>683.468</ele>
        <time>2018-07-20T20:15:15Z</time>
      </trkpt>
      <trkpt lat="42.418990" lon="-8.375074">
        <ele>684.733</ele>
        <time>2018-07-20T20:15:35Z</time>
      </trkpt>
      <trkpt lat="42.418897" lon="-8.374848">
        <ele>687.073</ele>
        <time>2018-07-20T20:15:55Z</time>
      </trkpt>
      <trkpt lat="42.418785" lon="-8.374482">
        <ele>691.988</ele>
        <time>2018-07-20T20:16:15Z</time>
      </trkpt>
      <trkpt lat="42.418783" lon="-8.374466">
        <ele>692.184</ele>
        <time>2018-07-20T20:16:35Z</time>
      </trkpt>
      <trkpt lat="42.418781" lon="-8.374450">
        <ele>692.373</ele>
        <time>2018-07-20T20:16:55Z</time>
      </trkpt>
      <trkpt lat="42.418720" lon="-8.374152">
        <ele>697.885</ele>
        <time>2018-07-20T20:17:15Z</time>
      </trkpt>
      <trkpt lat="42.418692" lon="-8.373853">
        <ele>702.013</ele>
        <time>2018-07-20T20:17:35Z</time>
      </trkpt>
      <trkpt lat="42.418697" lon="-8.373836">
        <ele>702.108</ele>
        <time>2018-07-20T20:17:55Z</time>
      </trkpt>
      <trkpt lat="42.418701" lon="-8.373825">
        <ele>702.119</ele>
        <time>2018-07-20T20:18:15Z</time>
      </trkpt>
      <trkpt lat="42.418702" lon="-8.373475">
        <ele>704.883</ele>
        <time>2018-07-20T20:18:35Z</time>
      </trkpt>
      <trkpt lat="42.418701" lon="-8.373470">
        <ele>704.964</ele>
        <time>2018-07-20T20:18:55Z</time>
      </trkpt>
      <trkpt lat="42.418690" lon="-8.373020">
        <ele>709.361</ele>
        <time>2018-07-20T20:19:15Z</time>
      </trkpt>
      <trkpt lat="42.418694" lon="-8.373003">
        <ele>709.426</ele>
        <time>2018-07-20T20:19:35Z</time>
      </trkpt>
      <trkpt lat="42.418743" lon="-8.372737">
        <ele>712.136</ele>
        <time>2018-07-20T20:19:55Z</time>
      </trkpt>
      <trkpt lat="42.418742" lon="-8.372727">
        <ele>712.261</ele>
        <time>2018-07-20T20:20:15Z</time>
      </trkpt>
      <trkpt lat="42.418818" lon="-8.372561">
        <ele>713.347</ele>
        <time>2018-07-20T20:20:35Z</time>
      </trkpt>
      <trkpt lat="42.419007" lon="-8.372186">
        <ele>714.286</ele>
        <time>2018-07-20T20:20:55Z</time>
      </trkpt>
      <trkpt lat="42.419203" lon="-8.371961">
        <ele>711.860</ele>
        <time>2018-07-20T20:21:15Z</time>
      </trkpt>
      <trkpt lat="42.419213" lon="-8.371940">
        <ele>711.926</ele>
        <time>2018-07-20T20:21:35Z</time>
      </trkpt>
      <trkpt lat="42.419419" lon="-8.371671">
        <ele>714.208</ele>
        <time>2018-07-20T20:21:55Z</time>
      </trkpt>
      <trkpt lat="42.419422" lon="-8.371653">
        <ele>714.780</ele>
        <time>2018-07-20T20:22:15Z</time>
      </trkpt>
      <trkpt lat="42.419484" lon="-8.371505">
        <ele>718.164</ele>
        <time>2018-07-20T20:22:35Z</time>
      </trkpt>
      <trkpt lat="42.419496" lon="-8.371493">
        <ele>718.495</ele>
        <time>2018-07-20T20:22:55Z</time>
      </trkpt>
      <trkpt lat="42.419549" lon="-8.371315">
        <ele>722.262</ele>
        <time>2018-07-20T20:23:15Z</time>
      </trkpt>
      <trkpt lat="42.419627" lon="-8.371369">
        <ele>721.357</ele>
        <time>2018-07-20T20:23:35Z</time>
      </trkpt>
      <trkpt lat="42.419641" lon="-8.371365">
        <ele>721.457</ele>
        <time>2018-07-20T20:23:55Z</time>
      </trkpt>
      <trkpt lat="42.419766" lon="-8.371374">
        <ele>721.432</ele>
        <time>2018-07-20T20:24:15Z</time>
      </trkpt>
      <trkpt lat="42.419892" lon="-8.371360">
        <ele>722.218</ele>
        <time>2018-07-20T20:24:35Z</time>
      </trkpt>
      <trkpt lat="42.420009" lon="-8.371362">
        <ele>722.743</ele>
        <time>2018-07-20T20:24:55Z</time>
      </trkpt>
      <trkpt lat="42.420139" lon="-8.371439">
        <ele>722.464</ele>
        <time>2018-07-20T20:25:15Z</time>
      </trkpt>
      <trkpt lat="42.420307" lon="-8.371504">
        <ele>723.310</ele>
        <time>2018-07-20T20:25:35Z</time>
      </trkpt>
      <trkpt lat="42.420318" lon="-8.371406">
        <ele>725.308</ele>
        <time>2018-07-20T20:25:55Z</time>
      </trkpt>
      <trkpt lat="42.420252" lon="-8.371320">
        <ele>726.286</ele>
        <time>2018-07-20T20:26:15Z</time>
      </trkpt>
      <trkpt lat="42.420131" lon="-8.371178">
        <ele>728.010</ele>
        <time>2018-07-20T20:26:35Z</time>
      </trkpt>
      <trkpt lat="42.420025" lon="-8.370985">
        <ele>731.061</ele>
        <time>2018-07-20T20:26:55Z</time>
      </trkpt>
      <trkpt lat="42.419856" lon="-8.370829">
        <ele>732.518</ele>
        <time>2018-07-20T20:27:15Z</time>
      </trkpt>
      <trkpt lat="42.419654" lon="-8.370625">
        <ele>734.893</ele>
        <time>2018-07-20T20:27:35Z</time>
      </trkpt>
      <trkpt lat="42.419523" lon="-8.370501">
        <ele>735.993</ele>
        <time>2018-07-20T20:27:55Z</time>
      </trkpt>
      <trkpt lat="42.419531" lon="-8.370359">
        <ele>738.798</ele>
        <time>2018-07-20T20:28:15Z</time>
      </trkpt>
      <trkpt lat="42.419646" lon="-8.370303">
        <ele>741.484</ele>
        <time>2018-07-20T20:28:35Z</time>
      </trkpt>
      <trkpt lat="42.419798" lon="-8.370332">
        <ele>742.467</ele>
        <time>2018-07-20T20:28:55Z</time>
      </trkpt>
      <trkpt lat="42.419854" lon="-8.370189">
        <ele>745.481</ele>
        <time>2018-07-20T20:29:15Z</time>
      </trkpt>
      <trkpt lat="42.419802" lon="-8.369953">
        <ele>748.419</ele>
        <time>2018-07-20T20:29:35Z</time>
      </trkpt>
      <trkpt lat="42.419742" lon="-8.369655">
        <ele>750.708</ele>
        <time>2018-07-20T20:29:55Z</time>
      </trkpt>
      <trkpt lat="42.419781" lon="-8.369569">
        <ele>751.758</ele>
        <time>2018-07-20T20:30:15Z</time>
      </trkpt>
      <trkpt lat="42.419857" lon="-8.369462">
        <ele>753.332</ele>
        <time>2018-07-20T20:30:35Z</time>
      </trkpt>
      <trkpt lat="42.419881" lon="-8.369471">
        <ele>753.533</ele>
        <time>2018-07-20T20:30:55Z</time>
      </trkpt>
      <trkpt lat="42.419996" lon="-8.369421">
        <ele>755.220</ele>
        <time>2018-07-20T20:31:15Z</time>
      </trkpt>
      <trkpt lat="42.420007" lon="-8.369419">
        <ele>755.495</ele>
        <time>2018-07-20T20:31:35Z</time>
      </trkpt>
      <trkpt lat="42.420119" lon="-8.369394">
        <ele>758.385</ele>
        <time>2018-07-20T20:31:55Z</time>
      </trkpt>
      <trkpt lat="42.420137" lon="-8.369389">
        <ele>758.860</ele>
        <time>2018-07-20T20:32:15Z</time>
      </trkpt>
      <trkpt lat="42.420304" lon="-8.369412">
        <ele>762.026</ele>
        <time>2018-07-20T20:32:35Z</time>
      </trkpt>
      <trkpt lat="42.420430" lon="-8.369407">
        <ele>764.314</ele>
        <time>2018-07-20T20:32:55Z</time>
      </trkpt>
      <trkpt lat="42.420713" lon="-8.369588">
        <ele>765.054</ele>
        <time>2018-07-20T20:33:15Z</time>
      </trkpt>
      <trkpt lat="42.421030" lon="-8.369730">
        <ele>765.009</ele>
        <time>2018-07-20T20:33:35Z</time>
      </trkpt>
      <trkpt lat="42.421439" lon="-8.369954">
        <ele>763.508</ele>
        <time>2018-07-20T20:33:55Z</time>
      </trkpt>
      <trkpt lat="42.421678" lon="-8.370056">
        <ele>760.993</ele>
        <time>2018-07-20T20:34:15Z</time>
      </trkpt>
      <trkpt lat="42.421838" lon="-8.369978">
        <ele>761.147</ele>
        <time>2018-07-20T20:34:35Z</time>
      </trkpt>
      <trkpt lat="42.422045" lon="-8.369928">
        <ele>760.988</ele>
        <time>2018-07-20T20:34:55Z</time>
      </trkpt>
      <trkpt lat="42.422207" lon="-8.369764">
        <ele>762.645</ele>
        <time>2018-07-20T20:35:15Z</time>
      </trkpt>
      <trkpt lat="42.422451" lon="-8.369633">
        <ele>760.650</ele>
        <time>2018-07-20T20:35:35Z</time>
      </trkpt>
      <trkpt lat="42.422597" lon="-8.369474">
        <ele>760.430</ele>
        <time>2018-07-20T20:35:55Z</time>
      </trkpt>
      <trkpt lat="42.422578" lon="-8.369270">
        <ele>762.125</ele>
        <time>2018-07-20T20:36:15Z</time>
      </trkpt>
      <trkpt lat="42.422434" lon="-8.369237">
        <ele>764.211</ele>
        <time>2018-07-20T20:36:35Z</time>
      </trkpt>
      <trkpt lat="42.422272" lon="-8.369254">
        <ele>765.861</ele>
        <time>2018-07-20T20:36:55Z</time>
      </trkpt>
      <trkpt lat="42.421923" lon="-8.369028">
        <ele>771.221</ele>
        <time>2018-07-20T20:37:15Z</time>
      </trkpt>
      <trkpt lat="42.421621" lon="-8.368841">
        <ele>776.013</ele>
        <time>2018-07-20T20:37:35Z</time>
      </trkpt>
      <trkpt lat="42.421503" lon="-8.368658">
        <ele>779.308</ele>
        <time>2018-07-20T20:37:55Z</time>
      </trkpt>
      <trkpt lat="42.421244" lon="-8.368303">
        <ele>783.148</ele>
        <time>2018-07-20T20:38:15Z</time>
      </trkpt>
      <trkpt lat="42.421243" lon="-8.368295">
        <ele>783.152</ele>
        <time>2018-07-20T20:38:35Z</time>
      </trkpt>
      <trkpt lat="42.421162" lon="-8.368030">
        <ele>784.253</ele>
        <time>2018-07-20T20:38:55Z</time>
      </trkpt>
      <trkpt lat="42.420991" lon="-8.367736">
        <ele>787.740</ele>
        <time>2018-07-20T20:39:15Z</time>
      </trkpt>
      <trkpt lat="42.420989" lon="-8.367723">
        <ele>787.945</ele>
        <time>2018-07-20T20:39:35Z</time>
      </trkpt>
      <trkpt lat="42.420776" lon="-8.367315">
        <ele>793.395</ele>
        <time>2018-07-20T20:39:55Z</time>
      </trkpt>
      <trkpt lat="42.420642" lon="-8.367094">
        <ele>795.930</ele>
        <time>2018-07-20T20:40:15Z</time>
      </trkpt>
      <trkpt lat="42.420387" lon="-8.366880">
        <ele>799.316</ele>
        <time>2018-07-20T20:40:35Z</time>
      </trkpt>
      <trkpt lat="42.420385" lon="-8.366869">
        <ele>799.542</ele>
        <time>2018-07-20T20:40:55Z</time>
      </trkpt>
      <trkpt lat="42.420107" lon="-8.366621">
        <ele>804.622</ele>
        <time>2018-07-20T20:41:15Z</time>
      </trkpt>
      <trkpt lat="42.419725" lon="-8.366387">
        <ele>808.014</ele>
        <time>2018-07-20T20:41:35Z</time>
      </trkpt>
      <trkpt lat="42.419525" lon="-8.366259">
        <ele>805.908</ele>
        <time>2018-07-20T20:41:55Z</time>
      </trkpt>
      <trkpt lat="42.419423" lon="-8.365994">
        <ele>808.046</ele>
        <time>2018-07-20T20:42:15Z</time>
      </trkpt>
      <trkpt lat="42.419197" lon="-8.365719">
        <ele>810.220</ele>
        <time>2018-07-20T20:42:35Z</time>
      </trkpt>
      <trkpt lat="42.419195" lon="-8.365709">
        <ele>810.461</ele>
        <time>2018-07-20T20:42:55Z</time>
      </trkpt>
      <trkpt lat="42.418985" lon="-8.365493">
        <ele>814.428</ele>
        <time>2018-07-20T20:43:15Z</time>
      </trkpt>
      <trkpt lat="42.418696" lon="-8.365360">
        <ele>815.133</ele>
        <time>2018-07-20T20:43:35Z</time>
      </trkpt>
      <trkpt lat="42.418370" lon="-8.365307">
        <ele>815.313</ele>
        <time>2018-07-20T20:43:55Z</time>
      </trkpt>
      <trkpt lat="42.418087" lon="-8.365269">
        <ele>818.928</ele>
        <time>2018-07-20T20:44:15Z</time>
      </trkpt>
      <trkpt lat="42.417745" lon="-8.365189">
        <ele>824.794</ele>
        <time>2018-07-20T20:44:35Z</time>
      </trkpt>
      <trkpt lat="42.417357" lon="-8.365128">
        <ele>828.078</ele>
        <time>2018-07-20T20:44:55Z</time>
      </trkpt>
      <trkpt lat="42.417015" lon="-8.364991">
        <ele>833.733</ele>
        <time>2018-07-20T20:45:15Z</time>
      </trkpt>
      <trkpt lat="42.417009" lon="-8.364984">
        <ele>833.826</ele>
        <time>2018-07-20T20:45:35Z</time>
      </trkpt>
      <trkpt lat="42.416740" lon="-8.364857">
        <ele>837.708</ele>
        <time>2018-07-20T20:45:55Z</time>
      </trkpt>
      <trkpt lat="42.416579" lon="-8.364649">
        <ele>842.349</ele>
        <time>2018-07-20T20:46:15Z</time>
      </trkpt>
      <trkpt lat="42.416460" lon="-8.364470">
        <ele>843.933</ele>
        <time>2018-07-20T20:46:35Z</time>
      </trkpt>
      <trkpt lat="42.416244" lon="-8.364334">
        <ele>847.254</ele>
        <time>2018-07-20T20:46:55Z</time>
      </trkpt>
      <trkpt lat="42.415996" lon="-8.364284">
        <ele>850.681</ele>
        <time>2018-07-20T20:47:15Z</time>
      </trkpt>
      <trkpt lat="42.415725" lon="-8.364270">
        <ele>853.336</ele>
        <time>2018-07-20T20:47:35Z</time>
      </trkpt>
      <trkpt lat="42.415552" lon="-8.364221">
        <ele>855.776</ele>
        <time>2018-07-20T20:47:55Z</time>
      </trkpt>
      <trkpt lat="42.415211" lon="-8.364145">
        <ele>862.031</ele>
        <time>2018-07-20T20:48:15Z</time>
      </trkpt>
      <trkpt lat="42.414861" lon="-8.364061">
        <ele>865.877</ele>
        <time>2018-07-20T20:48:35Z</time>
      </trkpt>
      <trkpt lat="42.414537" lon="-8.363927">
        <ele>869.554</ele>
        <time>2018-07-20T20:48:55Z</time>
      </trkpt>
      <trkpt lat="42.414529" lon="-8.363926">
        <ele>869.656</ele>
        <time>2018-07-20T20:49:15Z</time>
      </trkpt>
      <trkpt lat="42.414368" lon="-8.363841">
        <ele>872.911</ele>
        <time>2018-07-20T20:49:35Z</time>
      </trkpt>
      <trkpt lat="42.414294" lon="-8.363717">
        <ele>876.308</ele>
        <time>2018-07-20T20:49:55Z</time>
      </trkpt>
      <trkpt lat="42.414285" lon="-8.363518">
        <ele>879.967</ele>
        <time>2018-07-20T20:50:15Z</time>
      </trkpt>
      <trkpt lat="42.414290" lon="-8.363503">
        <ele>880.141</ele>
        <time>2018-07-20T20:50:35Z</time>
      </trkpt>
      <trkpt lat="42.414293" lon="-8.363346">
        <ele>882.592</ele>
        <time>2018-07-20T20:50:55Z</time>
      </trkpt>
      <trkpt lat="42.414291" lon="-8.363335">
        <ele>882.799</ele>
        <time>2018-07-20T20:51:15Z</time>
      </trkpt>
      <trkpt lat="42.414315" lon="-8.363038">
        <ele>885.114</ele>
        <time>2018-07-20T20:51:35Z</time>
      </trkpt>
      <trkpt lat="42.414328" lon="-8.362927">
        <ele>886.374</ele>
        <time>2018-07-20T20:51:55Z</time>
      </trkpt>
      <trkpt lat="42.414333" lon="-8.362718">
        <ele>889.179</ele>
        <time>2018-07-20T20:52:15Z</time>
      </trkpt>
      <trkpt lat="42.414332" lon="-8.362712">
        <ele>889.285</ele>
        <time>2018-07-20T20:52:35Z</time>
      </trkpt>
      <trkpt lat="42.414319" lon="-8.362464">
        <ele>892.836</ele>
        <time>2018-07-20T20:52:55Z</time>
      </trkpt>
      <trkpt lat="42.414319" lon="-8.362458">
        <ele>892.817</ele>
        <time>2018-07-20T20:53:15Z</time>
      </trkpt>
      <trkpt lat="42.414273" lon="-8.362254">
        <ele>894.918</ele>
        <time>2018-07-20T20:53:35Z</time>
      </trkpt>
      <trkpt lat="42.414249" lon="-8.362039">
        <ele>897.208</ele>
        <time>2018-07-20T20:53:55Z</time>
      </trkpt>
      <trkpt lat="42.414204" lon="-8.361753">
        <ele>899.945</ele>
        <time>2018-07-20T20:54:15Z</time>
      </trkpt>
      <trkpt lat="42.414207" lon="-8.361741">
        <ele>899.979</ele>
        <time>2018-07-20T20:54:35Z</time>
      </trkpt>
      <trkpt lat="42.414207" lon="-8.361736">
        <ele>900.050</ele>
        <time>2018-07-20T20:54:55Z</time>
      </trkpt>
      <trkpt lat="42.414153" lon="-8.361530">
        <ele>901.687</ele>
        <time>2018-07-20T20:55:15Z</time>
      </trkpt>
      <trkpt lat="42.414153" lon="-8.361527">
        <ele>901.622</ele>
        <time>2018-07-20T20:55:35Z</time>
      </trkpt>
      <trkpt lat="42.414102" lon="-8.361350">
        <ele>902.522</ele>
        <time>2018-07-20T20:55:55Z</time>
      </trkpt>
      <trkpt lat="42.414043" lon="-8.361193">
        <ele>902.937</ele>
        <time>2018-07-20T20:56:15Z</time>
      </trkpt>
      <trkpt lat="42.414001" lon="-8.361144">
        <ele>903.293</ele>
        <time>2018-07-20T20:56:35Z</time>
      </trkpt>
      <trkpt lat="42.414001" lon="-8.361141">
        <ele>903.239</ele>
        <time>2018-07-20T20:56:55Z</time>
      </trkpt>
      <trkpt lat="42.413839" lon="-8.361048">
        <ele>904.101</ele>
        <time>2018-07-20T20:57:15Z</time>
      </trkpt>
      <trkpt lat="42.413830" lon="-8.361042">
        <ele>904.221</ele>
        <time>2018-07-20T20:57:35Z</time>
      </trkpt>
      <trkpt lat="42.413628" lon="-8.360995">
        <ele>904.508</ele>
        <time>2018-07-20T20:57:55Z</time>
      </trkpt>
      <trkpt lat="42.413620" lon="-8.360990">
        <ele>904.575</ele>
        <time>2018-07-20T20:58:15Z</time>
      </trkpt>
      <trkpt lat="42.413519" lon="-8.360945">
        <ele>904.419</ele>
        <time>2018-07-20T20:58:35Z</time>
      </trkpt>
      <trkpt lat="42.413512" lon="-8.360936">
        <ele>904.470</ele>
        <time>2018-07-20T20:58:55Z</time>
      </trkpt>
      <trkpt lat="42.413402" lon="-8.360899">
        <ele>904.247</ele>
        <time>2018-07-20T20:59:15Z</time>
      </trkpt>
      <trkpt lat="42.413237" lon="-8.360803">
        <ele>904.232</ele>
        <time>2018-07-20T20:59:35Z</time>
      </trkpt>
      <trkpt lat="42.413044" lon="-8.360676">
        <ele>903.932</ele>
        <time>2018-07-20T20:59:55Z</time>
      </trkpt>
      <trkpt lat="42.412797" lon="-8.360520">
        <ele>902.677</ele>
        <time>2018-07-20T21:00:15Z</time>
      </trkpt>
      <trkpt lat="42.412580" lon="-8.360309">
        <ele>901.163</ele>
        <time>2018-07-20T21:00:35Z</time>
      </trkpt>
      <trkpt lat="42.412373" lon="-8.360278">
        <ele>901.571</ele>
        <time>2018-07-20T21:00:55Z</time>
      </trkpt>
      <trkpt lat="42.412210" lon="-8.360107">
        <ele>900.741</ele>
        <time>2018-07-20T21:01:15Z</time>
      </trkpt>
      <trkpt lat="42.412223" lon="-8.359830">
        <ele>900.015</ele>
        <time>2018-07-20T21:01:35Z</time>
      </trkpt>
      <trkpt lat="42.412222" lon="-8.359542">
        <ele>901.308</ele>
        <time>2018-07-20T21:01:55Z</time>
      </trkpt>
      <trkpt lat="42.412257" lon="-8.359383">
        <ele>901.489</ele>
        <time>2018-07-20T21:02:15Z</time>
      </trkpt>
      <trkpt lat="42.412261" lon="-8.359157">
        <ele>901.463</ele>
        <time>2018-07-20T21:02:35Z</time>
      </trkpt>
      <trkpt lat="42.412283" lon="-8.358966">
        <ele>901.114</ele>
        <time>2018-07-20T21:02:55Z</time>
      </trkpt>
      <trkpt lat="42.412297" lon="-8.358816">
        <ele>901.151</ele>
        <time>2018-07-20T21:03:15Z</time>
      </trkpt>
      <trkpt lat="42.412248" lon="-8.358629">
        <ele>902.516</ele>
        <time>2018-07-20T21:03:35Z</time>
      </trkpt>
      <trkpt lat="42.412184" lon="-8.358340">
        <ele>902.776</ele>
        <time>2018-07-20T21:03:55Z</time>
      </trkpt>
      <trkpt lat="42.412109" lon="-8.358083">
        <ele>902.821</ele>
        <time>2018-07-20T21:04:15Z</time>
      </trkpt>
      <trkpt lat="42.412108" lon="-8.357822">
        <ele>903.157</ele>
        <time>2018-07-20T21:04:35Z</time>
      </trkpt>
      <trkpt lat="42.412188" lon="-8.357723">
        <ele>902.761</ele>
        <time>2018-07-20T21:04:55Z</time>
      </trkpt>
      <trkpt lat="42.412319" lon="-8.357687">
        <ele>902.921</ele>
        <time>2018-07-20T21:05:15Z</time>
      </trkpt>
      <trkpt lat="42.412447" lon="-8.357726">
        <ele>902.713</ele>
        <time>2018-07-20T21:05:35Z</time>
      </trkpt>
      <trkpt lat="42.412596" lon="-8.357837">
        <ele>902.608</ele>
        <time>2018-07-20T21:05:55Z</time>
      </trkpt>
      <trkpt lat="42.412609" lon="-8.357834">
        <ele>902.848</ele>
        <time>2018-07-20T21:06:15Z</time>
      </trkpt>
      <trkpt lat="42.412774" lon="-8.357880">
        <ele>904.172</ele>
        <time>2018-07-20T21:06:35Z</time>
      </trkpt>
      <trkpt lat="42.412934" lon="-8.357963">
        <ele>902.963</ele>
        <time>2018-07-20T21:06:55Z</time>
      </trkpt>
      <trkpt lat="42.413140" lon="-8.358010">
        <ele>901.380</ele>
        <time>2018-07-20T21:07:15Z</time>
      </trkpt>
      <trkpt lat="42.413398" lon="-8.357965">
        <ele>899.975</ele>
        <time>2018-07-20T21:07:35Z</time>
      </trkpt>
      <trkpt lat="42.413621" lon="-8.357735">
        <ele>902.345</ele>
        <time>2018-07-20T21:07:55Z</time>
      </trkpt>
      <trkpt lat="42.413629" lon="-8.357712">
        <ele>902.430</ele>
        <time>2018-07-20T21:08:15Z</time>
      </trkpt>
      <trkpt lat="42.413747" lon="-8.357462">
        <ele>902.856</ele>
        <time>2018-07-20T21:08:35Z</time>
      </trkpt>
      <trkpt lat="42.413744" lon="-8.357433">
        <ele>903.139</ele>
        <time>2018-07-20T21:08:55Z</time>
      </trkpt>
      <trkpt lat="42.413893" lon="-8.356991">
        <ele>902.501</ele>
        <time>2018-07-20T21:09:15Z</time>
      </trkpt>
      <trkpt lat="42.413828" lon="-8.356497">
        <ele>906.221</ele>
        <time>2018-07-20T21:09:35Z</time>
      </trkpt>
      <trkpt lat="42.413828" lon="-8.356203">
        <ele>905.008</ele>
        <time>2018-07-20T21:09:55Z</time>
      </trkpt>
      <trkpt lat="42.413832" lon="-8.356166">
        <ele>904.715</ele>
        <time>2018-07-20T21:10:15Z</time>
      </trkpt>
      <trkpt lat="42.413853" lon="-8.355994">
        <ele>902.559</ele>
        <time>2018-07-20T21:10:35Z</time>
      </trkpt>
      <trkpt lat="42.413720" lon="-8.355697">
        <ele>902.480</ele>
        <time>2018-07-20T21:10:55Z</time>
      </trkpt>
      <trkpt lat="42.413707" lon="-8.355697">
        <ele>902.667</ele>
        <time>2018-07-20T21:11:15Z</time>
      </trkpt>
      <trkpt lat="42.413609" lon="-8.355365">
        <ele>901.732</ele>
        <time>2018-07-20T21:11:35Z</time>
      </trkpt>
      <trkpt lat="42.413448" lon="-8.355041">
        <ele>903.392</ele>
        <time>2018-07-20T21:11:55Z</time>
      </trkpt>
      <trkpt lat="42.413347" lon="-8.354813">
        <ele>904.167</ele>
        <time>2018-07-20T21:12:15Z</time>
      </trkpt>
      <trkpt lat="42.413276" lon="-8.354503">
        <ele>902.683</ele>
        <time>2018-07-20T21:12:35Z</time>
      </trkpt>
      <trkpt lat="42.413278" lon="-8.354453">
        <ele>902.171</ele>
        <time>2018-07-20T21:12:55Z</time>
      </trkpt>
      <trkpt lat="42.413385" lon="-8.354091">
        <ele>897.941</ele>
        <time>2018-07-20T21:13:15Z</time>
      </trkpt>
      <trkpt lat="42.413395" lon="-8.354074">
        <ele>897.715</ele>
        <time>2018-07-20T21:13:35Z</time>
      </trkpt>
      <trkpt lat="42.413541" lon="-8.353827">
        <ele>894.108</ele>
        <time>2018-07-20T21:13:55Z</time>
      </trkpt>
      <trkpt lat="42.413568" lon="-8.353806">
        <ele>893.739</ele>
        <time>2018-07-20T21:14:15Z</time>
      </trkpt>
      <trkpt lat="42.413587" lon="-8.353778">
        <ele>893.453</ele>
        <time>2018-07-20T21:14:35Z</time>
      </trkpt>
      <trkpt lat="42.413812" lon="-8.353604">
        <ele>892.644</ele>
        <time>2018-07-20T21:14:55Z</time>
      </trkpt>
      <trkpt lat="42.413832" lon="-8.353583">
        <ele>892.521</ele>
        <time>2018-07-20T21:15:15Z</time>
      </trkpt>
      <trkpt lat="42.414200" lon="-8.353401">
        <ele>891.686</ele>
        <time>2018-07-20T21:15:35Z</time>
      </trkpt>
      <trkpt lat="42.414443" lon="-8.353351">
        <ele>890.346</ele>
        <time>2018-07-20T21:15:55Z</time>
      </trkpt>
      <trkpt lat="42.414615" lon="-8.353414">
        <ele>889.871</ele>
        <time>2018-07-20T21:16:15Z</time>
      </trkpt>
      <trkpt lat="42.414929" lon="-8.353564">
        <ele>887.567</ele>
        <time>2018-07-20T21:16:35Z</time>
      </trkpt>
      <trkpt lat="42.415205" lon="-8.353695">
        <ele>883.052</ele>
        <time>2018-07-20T21:16:55Z</time>
      </trkpt>
      <trkpt lat="42.415439" lon="-8.353674">
        <ele>878.653</ele>
        <time>2018-07-20T21:17:15Z</time>
      </trkpt>
      <trkpt lat="42.415558" lon="-8.353515">
        <ele>875.608</ele>
        <time>2018-07-20T21:17:35Z</time>
      </trkpt>
      <trkpt lat="42.415555" lon="-8.353355">
        <ele>875.108</ele>
        <time>2018-07-20T21:17:55Z</time>
      </trkpt>
      <trkpt lat="42.415400" lon="-8.353192">
        <ele>876.267</ele>
        <time>2018-07-20T21:18:15Z</time>
      </trkpt>
      <trkpt lat="42.415253" lon="-8.353020">
        <ele>876.671</ele>
        <time>2018-07-20T21:18:35Z</time>
      </trkpt>
      <trkpt lat="42.415261" lon="-8.352998">
        <ele>876.282</ele>
        <time>2018-07-20T21:18:55Z</time>
      </trkpt>
      <trkpt lat="42.415142" lon="-8.352807">
        <ele>874.919</ele>
        <time>2018-07-20T21:19:15Z</time>
      </trkpt>
      <trkpt lat="42.415010" lon="-8.352485">
        <ele>872.774</ele>
        <time>2018-07-20T21:19:35Z</time>
      </trkpt>
      <trkpt lat="42.414903" lon="-8.352316">
        <ele>872.574</ele>
        <time>2018-07-20T21:19:55Z</time>
      </trkpt>
      <trkpt lat="42.414811" lon="-8.352176">
        <ele>872.089</ele>
        <time>2018-07-20T21:20:15Z</time>
      </trkpt>
      <trkpt lat="42.414813" lon="-8.351925">
        <ele>870.345</ele>
        <time>2018-07-20T21:20:35Z</time>
      </trkpt>
      <trkpt lat="42.414809" lon="-8.351882">
        <ele>870.246</ele>
        <time>2018-07-20T21:20:55Z</time>
      </trkpt>
      <trkpt lat="42.414817" lon="-8.351829">
        <ele>870.188</ele>
        <time>2018-07-20T21:21:15Z</time>
      </trkpt>
      <trkpt lat="42.414794" lon="-8.351472">
        <ele>871.116</ele>
        <time>2018-07-20T21:21:35Z</time>
      </trkpt>
      <trkpt lat="42.414831" lon="-8.351218">
        <ele>873.208</ele>
        <time>2018-07-20T21:21:55Z</time>
      </trkpt>
      <trkpt lat="42.414894" lon="-8.350903">
        <ele>874.556</ele>
        <time>2018-07-20T21:22:15Z</time>
      </trkpt>
      <trkpt lat="42.415056" lon="-8.350591">
        <ele>873.980</ele>
        <time>2018-07-20T21:22:35Z</time>
      </trkpt>
      <trkpt lat="42.415227" lon="-8.350294">
        <ele>871.881</ele>
        <time>2018-07-20T21:22:55Z</time>
      </trkpt>
      <trkpt lat="42.415410" lon="-8.349992">
        <ele>872.178</ele>
        <time>2018-07-20T21:23:15Z</time>
      </trkpt>
      <trkpt lat="42.415608" lon="-8.349648">
        <ele>872.893</ele>
        <time>2018-07-20T21:23:35Z</time>
      </trkpt>
      <trkpt lat="42.415639" lon="-8.349599">
        <ele>872.613</ele>
        <time>2018-07-20T21:23:55Z</time>
      </trkpt>
      <trkpt lat="42.415697" lon="-8.349075">
        <ele>872.048</ele>
        <time>2018-07-20T21:24:15Z</time>
      </trkpt>
      <trkpt lat="42.415698" lon="-8.349065">
        <ele>871.984</ele>
        <time>2018-07-20T21:24:35Z</time>
      </trkpt>
      <trkpt lat="42.415727" lon="-8.348551">
        <ele>871.258</ele>
        <time>2018-07-20T21:24:55Z</time>
      </trkpt>
      <trkpt lat="42.415604" lon="-8.348128">
        <ele>870.152</ele>
        <time>2018-07-20T21:25:15Z</time>
      </trkpt>
      <trkpt lat="42.415455" lon="-8.347790">
        <ele>871.117</ele>
        <time>2018-07-20T21:25:35Z</time>
      </trkpt>
      <trkpt lat="42.415491" lon="-8.347729">
        <ele>870.808</ele>
        <time>2018-07-20T21:25:55Z</time>
      </trkpt>
      <trkpt lat="42.415491" lon="-8.347719">
        <ele>870.837</ele>
        <time>2018-07-20T21:26:15Z</time>
      </trkpt>
      <trkpt lat="42.415202" lon="-8.347507">
        <ele>872.991</ele>
        <time>2018-07-20T21:26:35Z</time>
      </trkpt>
      <trkpt lat="42.415082" lon="-8.347191">
        <ele>872.582</ele>
        <time>2018-07-20T21:26:55Z</time>
      </trkpt>
      <trkpt lat="42.414893" lon="-8.347112">
        <ele>873.969</ele>
        <time>2018-07-20T21:27:15Z</time>
      </trkpt>
      <trkpt lat="42.414787" lon="-8.346829">
        <ele>874.434</ele>
        <time>2018-07-20T21:27:35Z</time>
      </trkpt>
      <trkpt lat="42.414893" lon="-8.346741">
        <ele>875.064</ele>
        <time>2018-07-20T21:27:55Z</time>
      </trkpt>
      <trkpt lat="42.415068" lon="-8.346775">
        <ele>874.829</ele>
        <time>2018-07-20T21:28:15Z</time>
      </trkpt>
      <trkpt lat="42.415304" lon="-8.346811">
        <ele>874.465</ele>
        <time>2018-07-20T21:28:35Z</time>
      </trkpt>
      <trkpt lat="42.415588" lon="-8.346898">
        <ele>873.442</ele>
        <time>2018-07-20T21:28:55Z</time>
      </trkpt>
      <trkpt lat="42.415798" lon="-8.347011">
        <ele>871.722</ele>
        <time>2018-07-20T21:29:15Z</time>
      </trkpt>
      <trkpt lat="42.415953" lon="-8.346984">
        <ele>871.214</ele>
        <time>2018-07-20T21:29:35Z</time>
      </trkpt>
      <trkpt lat="42.416348" lon="-8.347074">
        <ele>869.608</ele>
        <time>2018-07-20T21:29:55Z</time>
      </trkpt>
      <trkpt lat="42.416559" lon="-8.347030">
        <ele>870.136</ele>
        <time>2018-07-20T21:30:15Z</time>
      </trkpt>
      <trkpt lat="42.416858" lon="-8.346950">
        <ele>870.290</ele>
        <time>2018-07-20T21:30:35Z</time>
      </trkpt>
      <trkpt lat="42.417240" lon="-8.346873">
        <ele>867.271</ele>
        <time>2018-07-20T21:30:55Z</time>
      </trkpt>
      <trkpt lat="42.417654" lon="-8.346849">
        <ele>866.298</ele>
        <time>2018-07-20T21:31:15Z</time>
      </trkpt>
      <trkpt lat="42.418225" lon="-8.346739">
        <ele>866.843</ele>
        <time>2018-07-20T21:31:35Z</time>
      </trkpt>
      <trkpt lat="42.418752" lon="-8.346668">
        <ele>864.563</ele>
        <time>2018-07-20T21:31:55Z</time>
      </trkpt>
      <trkpt lat="42.419201" lon="-8.346521">
        <ele>863.238</ele>
        <time>2018-07-20T21:32:15Z</time>
      </trkpt>
      <trkpt lat="42.419568" lon="-8.346292">
        <ele>861.924</ele>
        <time>2018-07-20T21:32:35Z</time>
      </trkpt>
      <trkpt lat="42.419703" lon="-8.345950">
        <ele>863.525</ele>
        <time>2018-07-20T21:32:55Z</time>
      </trkpt>
      <trkpt lat="42.419649" lon="-8.345670">
        <ele>866.826</ele>
        <time>2018-07-20T21:33:15Z</time>
      </trkpt>
      <trkpt lat="42.419699" lon="-8.345398">
        <ele>867.908</ele>
        <time>2018-07-20T21:33:35Z</time>
      </trkpt>
      <trkpt lat="42.419729" lon="-8.345358">
        <ele>867.608</ele>
        <time>2018-07-20T21:33:55Z</time>
      </trkpt>
      <trkpt lat="42.419802" lon="-8.345099">
        <ele>867.854</ele>
        <time>2018-07-20T21:34:15Z</time>
      </trkpt>
      <trkpt lat="42.419973" lon="-8.344736">
        <ele>866.438</ele>
        <time>2018-07-20T21:34:35Z</time>
      </trkpt>
      <trkpt lat="42.420123" lon="-8.344456">
        <ele>865.619</ele>
        <time>2018-07-20T21:34:55Z</time>
      </trkpt>
      <trkpt lat="42.420421" lon="-8.344232">
        <ele>863.756</ele>
        <time>2018-07-20T21:35:15Z</time>
      </trkpt>
      <trkpt lat="42.420686" lon="-8.343846">
        <ele>858.751</ele>
        <time>2018-07-20T21:35:35Z</time>
      </trkpt>
      <trkpt lat="42.420607" lon="-8.343639">
        <ele>857.741</ele>
        <time>2018-07-20T21:35:55Z</time>
      </trkpt>
      <trkpt lat="42.420572" lon="-8.343301">
        <ele>856.646</ele>
        <time>2018-07-20T21:36:15Z</time>
      </trkpt>
      <trkpt lat="42.420358" lon="-8.343080">
        <ele>858.212</ele>
        <time>2018-07-20T21:36:35Z</time>
      </trkpt>
      <trkpt lat="42.420217" lon="-8.342891">
        <ele>860.618</ele>
        <time>2018-07-20T21:36:55Z</time>
      </trkpt>
      <trkpt lat="42.420157" lon="-8.342434">
        <ele>860.398</ele>
        <time>2018-07-20T21:37:15Z</time>
      </trkpt>
      <trkpt lat="42.420184" lon="-8.341969">
        <ele>859.717</ele>
        <time>2018-07-20T21:37:35Z</time>
      </trkpt>
      <trkpt lat="42.420242" lon="-8.341575">
        <ele>859.808</ele>
        <time>2018-07-20T21:37:55Z</time>
      </trkpt>
      <trkpt lat="42.420424" lon="-8.341237">
        <ele>858.273</ele>
        <time>2018-07-20T21:38:15Z</time>
      </trkpt>
      <trkpt lat="42.420551" lon="-8.341019">
        <ele>857.037</ele>
        <time>2018-07-20T21:38:35Z</time>
      </trkpt>
      <trkpt lat="42.420658" lon="-8.340708">
        <ele>857.238</ele>
        <time>2018-07-20T21:38:55Z</time>
      </trkpt>
      <trkpt lat="42.420815" lon="-8.340341">
        <ele>857.775</ele>
        <time>2018-07-20T21:39:15Z</time>
      </trkpt>
      <trkpt lat="42.420925" lon="-8.339941">
        <ele>856.960</ele>
        <time>2018-07-20T21:39:35Z</time>
      </trkpt>
      <trkpt lat="42.421023" lon="-8.339480">
        <ele>856.610</ele>
        <time>2018-07-20T21:39:55Z</time>
      </trkpt>
      <trkpt lat="42.421159" lon="-8.339123">
        <ele>859.145</ele>
        <time>2018-07-20T21:40:15Z</time>
      </trkpt>
      <trkpt lat="42.421264" lon="-8.338895">
        <ele>860.871</ele>
        <time>2018-07-20T21:40:35Z</time>
      </trkpt>
      <trkpt lat="42.421282" lon="-8.338601">
        <ele>862.867</ele>
        <time>2018-07-20T21:40:55Z</time>
      </trkpt>
      <trkpt lat="42.421175" lon="-8.338141">
        <ele>865.281</ele>
        <time>2018-07-20T21:41:15Z</time>
      </trkpt>
      <trkpt lat="42.421164" lon="-8.337638">
        <ele>865.919</ele>
        <time>2018-07-20T21:41:35Z</time>
      </trkpt>
      <trkpt lat="42.421162" lon="-8.337609">
        <ele>865.908</ele>
        <time>2018-07-20T21:41:55Z</time>
      </trkpt>
      <trkpt lat="42.421295" lon="-8.337310">
        <ele>866.798</ele>
        <time>2018-07-20T21:42:15Z</time>
      </trkpt>
      <trkpt lat="42.421558" lon="-8.337212">
        <ele>867.122</ele>
        <time>2018-07-20T21:42:35Z</time>
      </trkpt>
      <trkpt lat="42.421875" lon="-8.337261">
        <ele>867.013</ele>
        <time>2018-07-20T21:42:55Z</time>
      </trkpt>
      <trkpt lat="42.422163" lon="-8.337140">
        <ele>867.450</ele>
        <time>2018-07-20T21:43:15Z</time>
      </trkpt>
      <trkpt lat="42.422533" lon="-8.336876">
        <ele>868.235</ele>
        <time>2018-07-20T21:43:35Z</time>
      </trkpt>
      <trkpt lat="42.422552" lon="-8.336865">
        <ele>868.245</ele>
        <time>2018-07-20T21:43:55Z</time>
      </trkpt>
      <trkpt lat="42.422939" lon="-8.336643">
        <ele>869.250</ele>
        <time>2018-07-20T21:44:15Z</time>
      </trkpt>
      <trkpt lat="42.423275" lon="-8.336507">
        <ele>869.046</ele>
        <time>2018-07-20T21:44:35Z</time>
      </trkpt>
      <trkpt lat="42.423743" lon="-8.336386">
        <ele>869.564</ele>
        <time>2018-07-20T21:44:55Z</time>
      </trkpt>
      <trkpt lat="42.424158" lon="-8.336299">
        <ele>871.006</ele>
        <time>2018-07-20T21:45:15Z</time>
      </trkpt>
      <trkpt lat="42.424509" lon="-8.336221">
        <ele>870.616</ele>
        <time>2018-07-20T21:45:35Z</time>
      </trkpt>
      <trkpt lat="42.424889" lon="-8.336173">
        <ele>871.208</ele>
        <time>2018-07-20T21:45:55Z</time>
      </trkpt>
      <trkpt lat="42.425178" lon="-8.336099">
        <ele>872.158</ele>
        <time>2018-07-20T21:46:15Z</time>
      </trkpt>
      <trkpt lat="42.425407" lon="-8.335977">
        <ele>873.062</ele>
        <time>2018-07-20T21:46:35Z</time>
      </trkpt>
      <trkpt lat="42.425750" lon="-8.335790">
        <ele>874.383</ele>
        <time>2018-07-20T21:46:55Z</time>
      </trkpt>
      <trkpt lat="42.426179" lon="-8.335632">
        <ele>876.930</ele>
        <time>2018-07-20T21:47:15Z</time>
      </trkpt>
      <trkpt lat="42.426567" lon="-8.335421">
        <ele>879.875</ele>
        <time>2018-07-20T21:47:35Z</time>
      </trkpt>
      <trkpt lat="42.427188" lon="-8.335136">
        <ele>882.445</ele>
        <time>2018-07-20T21:47:55Z</time>
      </trkpt>
      <trkpt lat="42.427815" lon="-8.334806">
        <ele>884.050</ele>
        <time>2018-07-20T21:48:15Z</time>
      </trkpt>
      <trkpt lat="42.427788" lon="-8.334707">
        <ele>884.016</ele>
        <time>2018-07-20T21:48:35Z</time>
      </trkpt>
      <trkpt lat="42.427278" lon="-8.334390">
        <ele>885.439</ele>
        <time>2018-07-20T21:48:55Z</time>
      </trkpt>
      <trkpt lat="42.426906" lon="-8.334071">
        <ele>887.201</ele>
        <time>2018-07-20T21:49:15Z</time>
      </trkpt>
      <trkpt lat="42.426536" lon="-8.333808">
        <ele>886.921</ele>
        <time>2018-07-20T21:49:35Z</time>
      </trkpt>
      <trkpt lat="42.426057" lon="-8.333468">
        <ele>886.608</ele>
        <time>2018-07-20T21:49:55Z</time>
      </trkpt>
      <trkpt lat="42.425675" lon="-8.333227">
        <ele>887.645</ele>
        <time>2018-07-20T21:50:15Z</time>
      </trkpt>
      <trkpt lat="42.425129" lon="-8.333055">
        <ele>893.159</ele>
        <time>2018-07-20T21:50:35Z</time>
      </trkpt>
      <trkpt lat="42.424576" lon="-8.333014">
        <ele>896.030</ele>
        <time>2018-07-20T21:50:55Z</time>
      </trkpt>
      <trkpt lat="42.423913" lon="-8.332850">
        <ele>895.087</ele>
        <time>2018-07-20T21:51:15Z</time>
      </trkpt>
      <trkpt lat="42.423582" lon="-8.332679">
        <ele>894.472</ele>
        <time>2018-07-20T21:51:35Z</time>
      </trkpt>
      <trkpt lat="42.423321" lon="-8.332495">
        <ele>895.072</ele>
        <time>2018-07-20T21:51:55Z</time>
      </trkpt>
      <trkpt lat="42.423020" lon="-8.332288">
        <ele>895.967</ele>
        <time>2018-07-20T21:52:15Z</time>
      </trkpt>
      <trkpt lat="42.422646" lon="-8.332190">
        <ele>897.753</ele>
        <time>2018-07-20T21:52:35Z</time>
      </trkpt>
      <trkpt lat="42.422212" lon="-8.332286">
        <ele>898.652</ele>
        <time>2018-07-20T21:52:55Z</time>
      </trkpt>
      <trkpt lat="42.421911" lon="-8.332407">
        <ele>898.853</ele>
        <time>2018-07-20T21:53:15Z</time>
      </trkpt>
      <trkpt lat="42.421442" lon="-8.332565">
        <ele>900.208</ele>
        <time>2018-07-20T21:53:35Z</time>
      </trkpt>
      <trkpt lat="42.421042" lon="-8.332670">
        <ele>901.208</ele>
        <time>2018-07-20T21:53:55Z</time>
      </trkpt>
      <trkpt lat="42.420796" lon="-8.332560">
        <ele>902.597</ele>
        <time>2018-07-20T21:54:15Z</time>
      </trkpt>
      <trkpt lat="42.420599" lon="-8.332392">
        <ele>904.751</ele>
        <time>2018-07-20T21:54:35Z</time>
      </trkpt>
      <trkpt lat="42.420295" lon="-8.332164">
        <ele>907.232</ele>
        <time>2018-07-20T21:54:55Z</time>
      </trkpt>
      <trkpt lat="42.420072" lon="-8.331954">
        <ele>907.269</ele>
        <time>2018-07-20T21:55:15Z</time>
      </trkpt>
      <trkpt lat="42.419538" lon="-8.331611">
        <ele>906.744</ele>
        <time>2018-07-20T21:55:35Z</time>
      </trkpt>
      <trkpt lat="42.419061" lon="-8.331338">
        <ele>909.744</ele>
        <time>2018-07-20T21:55:55Z</time>
      </trkpt>
      <trkpt lat="42.418693" lon="-8.331137">
        <ele>909.419</ele>
        <time>2018-07-20T21:56:15Z</time>
      </trkpt>
      <trkpt lat="42.418380" lon="-8.330973">
        <ele>910.475</ele>
        <time>2018-07-20T21:56:35Z</time>
      </trkpt>
      <trkpt lat="42.417828" lon="-8.330633">
        <ele>911.776</ele>
        <time>2018-07-20T21:56:55Z</time>
      </trkpt>
      <trkpt lat="42.417293" lon="-8.330404">
        <ele>910.190</ele>
        <time>2018-07-20T21:57:15Z</time>
      </trkpt>
      <trkpt lat="42.416882" lon="-8.330277">
        <ele>909.019</ele>
        <time>2018-07-20T21:57:35Z</time>
      </trkpt>
      <trkpt lat="42.416535" lon="-8.330115">
        <ele>909.908</ele>
        <time>2018-07-20T21:57:55Z</time>
      </trkpt>
      <trkpt lat="42.416027" lon="-8.329864">
        <ele>912.269</ele>
        <time>2018-07-20T21:58:15Z</time>
      </trkpt>
      <trkpt lat="42.415756" lon="-8.329728">
        <ele>912.093</ele>
        <time>2018-07-20T21:58:35Z</time>
      </trkpt>
      <trkpt lat="42.415401" lon="-8.329650">
        <ele>911.844</ele>
        <time>2018-07-20T21:58:55Z</time>
      </trkpt>
      <trkpt lat="42.415071" lon="-8.329666">
        <ele>910.881</ele>
        <time>2018-07-20T21:59:15Z</time>
      </trkpt>
      <trkpt lat="42.414830" lon="-8.329799">
        <ele>909.986</ele>
        <time>2018-07-20T21:59:35Z</time>
      </trkpt>
      <trkpt lat="42.414813" lon="-8.329813">
        <ele>909.816</ele>
        <time>2018-07-20T21:59:55Z</time>
      </trkpt>
      <trkpt lat="42.414606" lon="-8.329883">
        <ele>908.831</ele>
        <time>2018-07-20T22:00:15Z</time>
      </trkpt>
      <trkpt lat="42.414378" lon="-8.329980">
        <ele>907.017</ele>
        <time>2018-07-20T22:00:35Z</time>
      </trkpt>
      <trkpt lat="42.414166" lon="-8.329978">
        <ele>906.255</ele>
        <time>2018-07-20T22:00:55Z</time>
      </trkpt>
      <trkpt lat="42.414034" lon="-8.329923">
        <ele>906.707</ele>
        <time>2018-07-20T22:01:15Z</time>
      </trkpt>
      <trkpt lat="42.413833" lon="-8.329845">
        <ele>906.917</ele>
        <time>2018-07-20T22:01:35Z</time>
      </trkpt>
      <trkpt lat="42.413653" lon="-8.329694">
        <ele>908.008</ele>
        <time>2018-07-20T22:01:55Z</time>
      </trkpt>
      <trkpt lat="42.413482" lon="-8.329527">
        <ele>908.387</ele>
        <time>2018-07-20T22:02:15Z</time>
      </trkpt>
      <trkpt lat="42.413192" lon="-8.329360">
        <ele>910.571</ele>
        <time>2018-07-20T22:02:35Z</time>
      </trkpt>
      <trkpt lat="42.412926" lon="-8.329189">
        <ele>911.522</ele>
        <time>2018-07-20T22:02:55Z</time>
      </trkpt>
      <trkpt lat="42.412727" lon="-8.329126">
        <ele>911.749</ele>
        <time>2018-07-20T22:03:15Z</time>
      </trkpt>
      <trkpt lat="42.412544" lon="-8.329077">
        <ele>910.824</ele>
        <time>2018-07-20T22:03:35Z</time>
      </trkpt>
      <trkpt lat="42.412431" lon="-8.329006">
        <ele>909.154</ele>
        <time>2018-07-20T22:03:55Z</time>
      </trkpt>
      <trkpt lat="42.412243" lon="-8.328809">
        <ele>905.669</ele>
        <time>2018-07-20T22:04:15Z</time>
      </trkpt>
      <trkpt lat="42.412007" lon="-8.328572">
        <ele>904.025</ele>
        <time>2018-07-20T22:04:35Z</time>
      </trkpt>
      <trkpt lat="42.411817" lon="-8.328351">
        <ele>903.968</ele>
        <time>2018-07-20T22:04:55Z</time>
      </trkpt>
      <trkpt lat="42.411639" lon="-8.328180">
        <ele>904.042</ele>
        <time>2018-07-20T22:05:15Z</time>
      </trkpt>
      <trkpt lat="42.411445" lon="-8.328069">
        <ele>904.126</ele>
        <time>2018-07-20T22:05:35Z</time>
      </trkpt>
      <trkpt lat="42.411072" lon="-8.327769">
        <ele>905.208</ele>
        <time>2018-07-20T22:05:55Z</time>
      </trkpt>
      <trkpt lat="42.410851" lon="-8.327487">
        <ele>907.098</ele>
        <time>2018-07-20T22:06:15Z</time>
      </trkpt>
      <trkpt lat="42.410519" lon="-8.327256">
        <ele>906.912</ele>
        <time>2018-07-20T22:06:35Z</time>
      </trkpt>
      <trkpt lat="42.410249" lon="-8.327039">
        <ele>905.233</ele>
        <time>2018-07-20T22:06:55Z</time>
      </trkpt>
      <trkpt lat="42.410059" lon="-8.326840">
        <ele>904.210</ele>
        <time>2018-07-20T22:07:15Z</time>
      </trkpt>
      <trkpt lat="42.409758" lon="-8.326595">
        <ele>904.365</ele>
        <time>2018-07-20T22:07:35Z</time>
      </trkpt>
      <trkpt lat="42.409547" lon="-8.326377">
        <ele>905.095</ele>
        <time>2018-07-20T22:07:55Z</time>
      </trkpt>
      <trkpt lat="42.409411" lon="-8.326199">
        <ele>905.670</ele>
        <time>2018-07-20T22:08:15Z</time>
      </trkpt>
      <trkpt lat="42.409202" lon="-8.325883">
        <ele>905.146</ele>
        <time>2018-07-20T22:08:35Z</time>
      </trkpt>
      <trkpt lat="42.408822" lon="-8.325392">
        <ele>906.061</ele>
        <time>2018-07-20T22:08:55Z</time>
      </trkpt>
      <trkpt lat="42.408511" lon="-8.324759">
        <ele>903.121</ele>
        <time>2018-07-20T22:09:15Z</time>
      </trkpt>
      <trkpt lat="42.408022" lon="-8.324191">
        <ele>897.613</ele>
        <time>2018-07-20T22:09:35Z</time>
      </trkpt>
      <trkpt lat="42.407859" lon="-8.323779">
        <ele>895.908</ele>
        <time>2018-07-20T22:09:55Z</time>
      </trkpt>
      <trkpt lat="42.407486" lon="-8.323237">
        <ele>897.348</ele>
        <time>2018-07-20T22:10:15Z</time>
      </trkpt>
      <trkpt lat="42.406797" lon="-8.321689">
        <ele>892.882</ele>
        <time>2018-07-20T22:10:35Z</time>
      </trkpt>
      <trkpt lat="42.406458" lon="-8.320989">
        <ele>881.993</ele>
        <time>2018-07-20T22:10:55Z</time>
      </trkpt>
      <trkpt lat="42.406119" lon="-8.320298">
        <ele>872.370</ele>
        <time>2018-07-20T22:11:15Z</time>
      </trkpt>
      <trkpt lat="42.406125" lon="-8.320265">
        <ele>871.485</ele>
        <time>2018-07-20T22:11:35Z</time>
      </trkpt>
      <trkpt lat="42.405619" lon="-8.319338">
        <ele>862.955</ele>
        <time>2018-07-20T22:11:55Z</time>
      </trkpt>
      <trkpt lat="42.404850" lon="-8.317883">
        <ele>854.890</ele>
        <time>2018-07-20T22:12:15Z</time>
      </trkpt>
      <trkpt lat="42.404258" lon="-8.317001">
        <ele>848.076</ele>
        <time>2018-07-20T22:12:35Z</time>
      </trkpt>
      <trkpt lat="42.403735" lon="-8.316153">
        <ele>844.677</ele>
        <time>2018-07-20T22:12:55Z</time>
      </trkpt>
      <trkpt lat="42.403319" lon="-8.315635">
        <ele>846.361</ele>
        <time>2018-07-20T22:13:15Z</time>
      </trkpt>
      <trkpt lat="42.402467" lon="-8.314562">
        <ele>851.827</ele>
        <time>2018-07-20T22:13:35Z</time>
      </trkpt>
      <trkpt lat="42.402127" lon="-8.314106">
        <ele>855.608</ele>
        <time>2018-07-20T22:13:55Z</time>
      </trkpt>
      <trkpt lat="42.402159" lon="-8.313958">
        <ele>855.059</ele>
        <time>2018-07-20T22:14:15Z</time>
      </trkpt>
      <trkpt lat="42.402164" lon="-8.313773">
        <ele>854.113</ele>
        <time>2018-07-20T22:14:35Z</time>
      </trkpt>
      <trkpt lat="42.402177" lon="-8.313270">
        <ele>851.234</ele>
        <time>2018-07-20T22:14:55Z</time>
      </trkpt>
      <trkpt lat="42.402165" lon="-8.312789">
        <ele>847.761</ele>
        <time>2018-07-20T22:15:15Z</time>
      </trkpt>
      <trkpt lat="42.402167" lon="-8.312202">
        <ele>840.556</ele>
        <time>2018-07-20T22:15:35Z</time>
      </trkpt>
      <trkpt lat="42.402190" lon="-8.311676">
        <ele>831.766</ele>
        <time>2018-07-20T22:15:55Z</time>
      </trkpt>
      <trkpt lat="42.402194" lon="-8.311663">
        <ele>831.371</ele>
        <time>2018-07-20T22:16:15Z</time>
      </trkpt>
      <trkpt lat="42.402191" lon="-8.311124">
        <ele>817.987</ele>
        <time>2018-07-20T22:16:35Z</time>
      </trkpt>
      <trkpt lat="42.402206" lon="-8.311098">
        <ele>817.086</ele>
        <time>2018-07-20T22:16:55Z</time>
      </trkpt>
      <trkpt lat="42.402222" lon="-8.311072">
        <ele>816.260</ele>
        <time>2018-07-20T22:17:15Z</time>
      </trkpt>
      <trkpt lat="42.402222" lon="-8.310590">
        <ele>810.126</ele>
        <time>2018-07-20T22:17:35Z</time>
      </trkpt>
      <trkpt lat="42.402239" lon="-8.310160">
        <ele>814.808</ele>
        <time>2018-07-20T22:17:55Z</time>
      </trkpt>
      <trkpt lat="42.402243" lon="-8.310131">
        <ele>815.530</ele>
        <time>2018-07-20T22:18:15Z</time>
      </trkpt>
      <trkpt lat="42.402261" lon="-8.309575">
        <ele>832.334</ele>
        <time>2018-07-20T22:18:35Z</time>
      </trkpt>
      <trkpt lat="42.402309" lon="-8.309214">
        <ele>841.385</ele>
        <time>2018-07-20T22:18:55Z</time>
      </trkpt>
      <trkpt lat="42.402299" lon="-8.308787">
        <ele>849.212</ele>
        <time>2018-07-20T22:19:15Z</time>
      </trkpt>
      <trkpt lat="42.402307" lon="-8.308772">
        <ele>849.317</ele>
        <time>2018-07-20T22:19:35Z</time>
      </trkpt>
      <trkpt lat="42.402312" lon="-8.308739">
        <ele>849.797</ele>
        <time>2018-07-20T22:19:55Z</time>
      </trkpt>
      <trkpt lat="42.402358" lon="-8.308130">
        <ele>855.432</ele>
        <time>2018-07-20T22:20:15Z</time>
      </trkpt>
      <trkpt lat="42.402357" lon="-8.307710">
        <ele>859.778</ele>
        <time>2018-07-20T22:20:35Z</time>
      </trkpt>
      <trkpt lat="42.402263" lon="-8.307453">
        <ele>864.291</ele>
        <time>2018-07-20T22:20:55Z</time>
      </trkpt>
      <trkpt lat="42.401993" lon="-8.307076">
        <ele>869.081</ele>
        <time>2018-07-20T22:21:15Z</time>
      </trkpt>
      <trkpt lat="42.401648" lon="-8.306530">
        <ele>875.119</ele>
        <time>2018-07-20T22:21:35Z</time>
      </trkpt>
      <trkpt lat="42.401395" lon="-8.306160">
        <ele>878.608</ele>
        <time>2018-07-20T22:21:55Z</time>
      </trkpt>
      <trkpt lat="42.401202" lon="-8.305888">
        <ele>882.631</ele>
        <time>2018-07-20T22:22:15Z</time>
      </trkpt>
      <trkpt lat="42.400939" lon="-8.305437">
        <ele>887.655</ele>
        <time>2018-07-20T22:22:35Z</time>
      </trkpt>
      <trkpt lat="42.400829" lon="-8.304988">
        <ele>888.096</ele>
        <time>2018-07-20T22:22:55Z</time>
      </trkpt>
      <trkpt lat="42.400719" lon="-8.304701">
        <ele>889.213</ele>
        <time>2018-07-20T22:23:15Z</time>
      </trkpt>
      <trkpt lat="42.400552" lon="-8.304483">
        <ele>890.778</ele>
        <time>2018-07-20T22:23:35Z</time>
      </trkpt>
      <trkpt lat="42.400425" lon="-8.304353">
        <ele>892.888</ele>
        <time>2018-07-20T22:23:55Z</time>
      </trkpt>
      <trkpt lat="42.400513" lon="-8.304213">
        <ele>893.763</ele>
        <time>2018-07-20T22:24:15Z</time>
      </trkpt>
      <trkpt lat="42.400840" lon="-8.303926">
        <ele>894.729</ele>
        <time>2018-07-20T22:24:35Z</time>
      </trkpt>
      <trkpt lat="42.401071" lon="-8.303743">
        <ele>895.988</ele>
        <time>2018-07-20T22:24:55Z</time>
      </trkpt>
      <trkpt lat="42.401276" lon="-8.303538">
        <ele>897.824</ele>
        <time>2018-07-20T22:25:15Z</time>
      </trkpt>
      <trkpt lat="42.401478" lon="-8.303289">
        <ele>898.926</ele>
        <time>2018-07-20T22:25:35Z</time>
      </trkpt>
      <trkpt lat="42.401744" lon="-8.302954">
        <ele>899.808</ele>
        <time>2018-07-20T22:25:55Z</time>
      </trkpt>
      <trkpt lat="42.402018" lon="-8.302695">
        <ele>899.760</ele>
        <time>2018-07-20T22:26:15Z</time>
      </trkpt>
      <trkpt lat="42.402410" lon="-8.302461">
        <ele>898.354</ele>
        <time>2018-07-20T22:26:35Z</time>
      </trkpt>
      <trkpt lat="42.402462" lon="-8.302424">
        <ele>898.275</ele>
        <time>2018-07-20T22:26:55Z</time>
      </trkpt>
      <trkpt lat="42.402791" lon="-8.302224">
        <ele>896.082</ele>
        <time>2018-07-20T22:27:15Z</time>
      </trkpt>
      <trkpt lat="42.402959" lon="-8.302023">
        <ele>895.547</ele>
        <time>2018-07-20T22:27:35Z</time>
      </trkpt>
      <trkpt lat="42.403170" lon="-8.301833">
        <ele>896.257</ele>
        <time>2018-07-20T22:27:55Z</time>
      </trkpt>
      <trkpt lat="42.403368" lon="-8.301619">
        <ele>897.062</ele>
        <time>2018-07-20T22:28:15Z</time>
      </trkpt>
      <trkpt lat="42.403429" lon="-8.301442">
        <ele>897.368</ele>
        <time>2018-07-20T22:28:35Z</time>
      </trkpt>
      <trkpt lat="42.403505" lon="-8.301212">
        <ele>897.038</ele>
        <time>2018-07-20T22:28:55Z</time>
      </trkpt>
      <trkpt lat="42.403504" lon="-8.300941">
        <ele>896.670</ele>
        <time>2018-07-20T22:29:15Z</time>
      </trkpt>
      <trkpt lat="42.403413" lon="-8.300622">
        <ele>896.117</ele>
        <time>2018-07-20T22:29:35Z</time>
      </trkpt>
      <trkpt lat="42.403415" lon="-8.300598">
        <ele>896.008</ele>
        <time>2018-07-20T22:29:55Z</time>
      </trkpt>
      <trkpt lat="42.403352" lon="-8.300426">
        <ele>896.065</ele>
        <time>2018-07-20T22:30:15Z</time>
      </trkpt>
      <trkpt lat="42.403353" lon="-8.300402">
        <ele>896.059</ele>
        <time>2018-07-20T22:30:35Z</time>
      </trkpt>
      <trkpt lat="42.403103" lon="-8.300177">
        <ele>894.640</ele>
        <time>2018-07-20T22:30:55Z</time>
      </trkpt>
      <trkpt lat="42.402921" lon="-8.300009">
        <ele>894.077</ele>
        <time>2018-07-20T22:31:15Z</time>
      </trkpt>
      <trkpt lat="42.402774" lon="-8.299783">
        <ele>893.822</ele>
        <time>2018-07-20T22:31:35Z</time>
      </trkpt>
      <trkpt lat="42.402781" lon="-8.299729">
        <ele>894.012</ele>
        <time>2018-07-20T22:31:55Z</time>
      </trkpt>
      <trkpt lat="42.402602" lon="-8.299538">
        <ele>893.257</ele>
        <time>2018-07-20T22:32:15Z</time>
      </trkpt>
      <trkpt lat="42.402428" lon="-8.299298">
        <ele>892.443</ele>
        <time>2018-07-20T22:32:35Z</time>
      </trkpt>
      <trkpt lat="42.402428" lon="-8.299288">
        <ele>892.497</ele>
        <time>2018-07-20T22:32:55Z</time>
      </trkpt>
      <trkpt lat="42.402136" lon="-8.299187">
        <ele>889.723</ele>
        <time>2018-07-20T22:33:15Z</time>
      </trkpt>
      <trkpt lat="42.401903" lon="-8.299092">
        <ele>886.225</ele>
        <time>2018-07-20T22:33:35Z</time>
      </trkpt>
      <trkpt lat="42.401735" lon="-8.298819">
        <ele>883.308</ele>
        <time>2018-07-20T22:33:55Z</time>
      </trkpt>
      <trkpt lat="42.401726" lon="-8.298802">
        <ele>883.111</ele>
        <time>2018-07-20T22:34:15Z</time>
      </trkpt>
      <trkpt lat="42.401621" lon="-8.298542">
        <ele>880.545</ele>
        <time>2018-07-20T22:34:35Z</time>
      </trkpt>
      <trkpt lat="42.401397" lon="-8.298192">
        <ele>878.126</ele>
        <time>2018-07-20T22:34:55Z</time>
      </trkpt>
      <trkpt lat="42.401243" lon="-8.297804">
        <ele>873.733</ele>
        <time>2018-07-20T22:35:15Z</time>
      </trkpt>
      <trkpt lat="42.401168" lon="-8.297461">
        <ele>870.218</ele>
        <time>2018-07-20T22:35:35Z</time>
      </trkpt>
      <trkpt lat="42.401130" lon="-8.297158">
        <ele>867.748</ele>
        <time>2018-07-20T22:35:55Z</time>
      </trkpt>
      <trkpt lat="42.401157" lon="-8.296844">
        <ele>865.253</ele>
        <time>2018-07-20T22:36:15Z</time>
      </trkpt>
      <trkpt lat="42.401197" lon="-8.296620">
        <ele>863.359</ele>
        <time>2018-07-20T22:36:35Z</time>
      </trkpt>
      <trkpt lat="42.401301" lon="-8.296539">
        <ele>863.427</ele>
        <time>2018-07-20T22:36:55Z</time>
      </trkpt>
      <trkpt lat="42.401403" lon="-8.296562">
        <ele>863.568</ele>
        <time>2018-07-20T22:37:15Z</time>
      </trkpt>
      <trkpt lat="42.401510" lon="-8.296572">
        <ele>862.814</ele>
        <time>2018-07-20T22:37:35Z</time>
      </trkpt>
      <trkpt lat="42.401648" lon="-8.296484">
        <ele>860.608</ele>
        <time>2018-07-20T22:37:55Z</time>
      </trkpt>
      <trkpt lat="42.401667" lon="-8.296355">
        <ele>858.454</ele>
        <time>2018-07-20T22:38:15Z</time>
      </trkpt>
      <trkpt lat="42.401671" lon="-8.296340">
        <ele>858.148</ele>
        <time>2018-07-20T22:38:35Z</time>
      </trkpt>
      <trkpt lat="42.401697" lon="-8.296092">
        <ele>853.349</ele>
        <time>2018-07-20T22:38:55Z</time>
      </trkpt>
      <trkpt lat="42.401638" lon="-8.295877">
        <ele>851.226</ele>
        <time>2018-07-20T22:39:15Z</time>
      </trkpt>
      <trkpt lat="42.401612" lon="-8.295872">
        <ele>851.711</ele>
        <time>2018-07-20T22:39:35Z</time>
      </trkpt>
      <trkpt lat="42.401721" lon="-8.295529">
        <ele>847.371</ele>
        <time>2018-07-20T22:39:55Z</time>
      </trkpt>
      <trkpt lat="42.401726" lon="-8.295507">
        <ele>847.296</ele>
        <time>2018-07-20T22:40:15Z</time>
      </trkpt>
      <trkpt lat="42.401834" lon="-8.295225">
        <ele>845.452</ele>
        <time>2018-07-20T22:40:35Z</time>
      </trkpt>
      <trkpt lat="42.401836" lon="-8.295209">
        <ele>845.454</ele>
        <time>2018-07-20T22:40:55Z</time>
      </trkpt>
      <trkpt lat="42.402013" lon="-8.294986">
        <ele>839.356</ele>
        <time>2018-07-20T22:41:15Z</time>
      </trkpt>
      <trkpt lat="42.402060" lon="-8.294925">
        <ele>837.511</ele>
        <time>2018-07-20T22:41:35Z</time>
      </trkpt>
      <trkpt lat="42.402240" lon="-8.294627">
        <ele>828.508</ele>
        <time>2018-07-20T22:41:55Z</time>
      </trkpt>
      <trkpt lat="42.402268" lon="-8.294582">
        <ele>827.087</ele>
        <time>2018-07-20T22:42:15Z</time>
      </trkpt>
      <trkpt lat="42.402349" lon="-8.294345">
        <ele>823.011</ele>
        <time>2018-07-20T22:42:35Z</time>
      </trkpt>
      <trkpt lat="42.402340" lon="-8.294065">
        <ele>823.172</ele>
        <time>2018-07-20T22:42:55Z</time>
      </trkpt>
      <trkpt lat="42.402431" lon="-8.293584">
        <ele>818.829</ele>
        <time>2018-07-20T22:43:15Z</time>
      </trkpt>
      <trkpt lat="42.402432" lon="-8.293572">
        <ele>818.754</ele>
        <time>2018-07-20T22:43:35Z</time>
      </trkpt>
      <trkpt lat="42.402535" lon="-8.293113">
        <ele>817.944</ele>
        <time>2018-07-20T22:43:55Z</time>
      </trkpt>
      <trkpt lat="42.402533" lon="-8.293098">
        <ele>818.299</ele>
        <time>2018-07-20T22:44:15Z</time>
      </trkpt>
      <trkpt lat="42.402767" lon="-8.292895">
        <ele>813.325</ele>
        <time>2018-07-20T22:44:35Z</time>
      </trkpt>
      <trkpt lat="42.402835" lon="-8.292828">
        <ele>812.085</ele>
        <time>2018-07-20T22:44:55Z</time>
      </trkpt>
      <trkpt lat="42.403201" lon="-8.292527">
        <ele>804.289</ele>
        <time>2018-07-20T22:45:15Z</time>
      </trkpt>
      <trkpt lat="42.403568" lon="-8.292234">
        <ele>797.317</ele>
        <time>2018-07-20T22:45:35Z</time>
      </trkpt>
      <trkpt lat="42.403818" lon="-8.291991">
        <ele>794.208</ele>
        <time>2018-07-20T22:45:55Z</time>
      </trkpt>
      <trkpt lat="42.404288" lon="-8.291752">
        <ele>786.940</ele>
        <time>2018-07-20T22:46:15Z</time>
      </trkpt>
      <trkpt lat="42.405037" lon="-8.291240">
        <ele>776.344</ele>
        <time>2018-07-20T22:46:35Z</time>
      </trkpt>
      <trkpt lat="42.405348" lon="-8.290928">
        <ele>769.245</ele>
        <time>2018-07-20T22:46:55Z</time>
      </trkpt>
      <trkpt lat="42.405421" lon="-8.290844">
        <ele>767.472</ele>
        <time>2018-07-20T22:47:15Z</time>
      </trkpt>
      <trkpt lat="42.405471" lon="-8.290659">
        <ele>766.747</ele>
        <time>2018-07-20T22:47:35Z</time>
      </trkpt>
      <trkpt lat="42.405564" lon="-8.290567">
        <ele>764.857</ele>
        <time>2018-07-20T22:47:55Z</time>
      </trkpt>
      <trkpt lat="42.405629" lon="-8.290454">
        <ele>763.732</ele>
        <time>2018-07-20T22:48:15Z</time>
      </trkpt>
      <trkpt lat="42.405694" lon="-8.290235">
        <ele>762.468</ele>
        <time>2018-07-20T22:48:35Z</time>
      </trkpt>
      <trkpt lat="42.405695" lon="-8.290225">
        <ele>762.461</ele>
        <time>2018-07-20T22:48:55Z</time>
      </trkpt>
      <trkpt lat="42.405809" lon="-8.289889">
        <ele>759.221</ele>
        <time>2018-07-20T22:49:15Z</time>
      </trkpt>
      <trkpt lat="42.405928" lon="-8.289603">
        <ele>754.413</ele>
        <time>2018-07-20T22:49:35Z</time>
      </trkpt>
      <trkpt lat="42.405942" lon="-8.289573">
        <ele>753.708</ele>
        <time>2018-07-20T22:49:55Z</time>
      </trkpt>
      <trkpt lat="42.406023" lon="-8.289272">
        <ele>748.188</ele>
        <time>2018-07-20T22:50:15Z</time>
      </trkpt>
      <trkpt lat="42.406003" lon="-8.288928">
        <ele>743.752</ele>
        <time>2018-07-20T22:50:35Z</time>
      </trkpt>
      <trkpt lat="42.405908" lon="-8.288583">
        <ele>742.243</ele>
        <time>2018-07-20T22:50:55Z</time>
      </trkpt>
      <trkpt lat="42.405808" lon="-8.288055">
        <ele>735.390</ele>
        <time>2018-07-20T22:51:15Z</time>
      </trkpt>
      <trkpt lat="42.405621" lon="-8.287496">
        <ele>732.375</ele>
        <time>2018-07-20T22:51:35Z</time>
      </trkpt>
      <trkpt lat="42.405497" lon="-8.287078">
        <ele>726.055</ele>
        <time>2018-07-20T22:51:55Z</time>
      </trkpt>
      <trkpt lat="42.405348" lon="-8.287065">
        <ele>727.040</ele>
        <time>2018-07-20T22:52:15Z</time>
      </trkpt>
      <trkpt lat="42.404806" lon="-8.287086">
        <ele>724.436</ele>
        <time>2018-07-20T22:52:35Z</time>
      </trkpt>
      <trkpt lat="42.404183" lon="-8.287246">
        <ele>720.244</ele>
        <time>2018-07-20T22:52:55Z</time>
      </trkpt>
      <trkpt lat="42.403870" lon="-8.287321">
        <ele>720.005</ele>
        <time>2018-07-20T22:53:15Z</time>
      </trkpt>
      <trkpt lat="42.403731" lon="-8.287303">
        <ele>716.915</ele>
        <time>2018-07-20T22:53:35Z</time>
      </trkpt>
      <trkpt lat="42.403718" lon="-8.287294">
        <ele>716.308</ele>
        <time>2018-07-20T22:53:55Z</time>
      </trkpt>
      <trkpt lat="42.403206" lon="-8.287434">
        <ele>719.616</ele>
        <time>2018-07-20T22:54:15Z</time>
      </trkpt>
      <trkpt lat="42.403299" lon="-8.287208">
        <ele>708.460</ele>
        <time>2018-07-20T22:54:35Z</time>
      </trkpt>
      <trkpt lat="42.403367" lon="-8.286650">
        <ele>693.131</ele>
        <time>2018-07-20T22:54:55Z</time>
      </trkpt>
      <trkpt lat="42.403378" lon="-8.286603">
        <ele>692.618</ele>
        <time>2018-07-20T22:55:15Z</time>
      </trkpt>
      <trkpt lat="42.403451" lon="-8.286092">
        <ele>687.773</ele>
        <time>2018-07-20T22:55:35Z</time>
      </trkpt>
      <trkpt lat="42.403561" lon="-8.285267">
        <ele>683.893</ele>
        <time>2018-07-20T22:55:55Z</time>
      </trkpt>
      <trkpt lat="42.403645" lon="-8.284868">
        <ele>683.798</ele>
        <time>2018-07-20T22:56:15Z</time>
      </trkpt>
      <trkpt lat="42.403741" lon="-8.284280">
        <ele>687.934</ele>
        <time>2018-07-20T22:56:35Z</time>
      </trkpt>
      <trkpt lat="42.403774" lon="-8.283894">
        <ele>688.974</ele>
        <time>2018-07-20T22:56:55Z</time>
      </trkpt>
      <trkpt lat="42.403774" lon="-8.283880">
        <ele>688.956</ele>
        <time>2018-07-20T22:57:15Z</time>
      </trkpt>
      <trkpt lat="42.403671" lon="-8.283362">
        <ele>684.221</ele>
        <time>2018-07-20T22:57:35Z</time>
      </trkpt>
      <trkpt lat="42.403521" lon="-8.282890">
        <ele>677.108</ele>
        <time>2018-07-20T22:57:55Z</time>
      </trkpt>
      <trkpt lat="42.403358" lon="-8.282368">
        <ele>672.559</ele>
        <time>2018-07-20T22:58:15Z</time>
      </trkpt>
      <trkpt lat="42.403167" lon="-8.281807">
        <ele>668.813</ele>
        <time>2018-07-20T22:58:35Z</time>
      </trkpt>
      <trkpt lat="42.402963" lon="-8.281362">
        <ele>664.164</ele>
        <time>2018-07-20T22:58:55Z</time>
      </trkpt>
      <trkpt lat="42.402964" lon="-8.281343">
        <ele>664.051</ele>
        <time>2018-07-20T22:59:15Z</time>
      </trkpt>
      <trkpt lat="42.402702" lon="-8.280793">
        <ele>657.856</ele>
        <time>2018-07-20T22:59:35Z</time>
      </trkpt>
      <trkpt lat="42.402542" lon="-8.280168">
        <ele>652.386</ele>
        <time>2018-07-20T22:59:55Z</time>
      </trkpt>
      <trkpt lat="42.402484" lon="-8.279388">
        <ele>645.091</ele>
        <time>2018-07-20T23:00:15Z</time>
      </trkpt>
      <trkpt lat="42.402297" lon="-8.278819">
        <ele>636.237</ele>
        <time>2018-07-20T23:00:35Z</time>
      </trkpt>
      <trkpt lat="42.401946" lon="-8.277717">
        <ele>616.196</ele>
        <time>2018-07-20T23:00:55Z</time>
      </trkpt>
      <trkpt lat="42.401814" lon="-8.277202">
        <ele>604.531</ele>
        <time>2018-07-20T23:01:15Z</time>
      </trkpt>
      <trkpt lat="42.402035" lon="-8.277185">
        <ele>605.324</ele>
        <time>2018-07-20T23:01:35Z</time>
      </trkpt>
      <trkpt lat="42.402268" lon="-8.277122">
        <ele>605.008</ele>
        <time>2018-07-20T23:01:55Z</time>
      </trkpt>
      <trkpt lat="42.402537" lon="-8.277071">
        <ele>607.031</ele>
        <time>2018-07-20T23:02:15Z</time>
      </trkpt>
      <trkpt lat="42.402896" lon="-8.276951">
        <ele>606.715</ele>
        <time>2018-07-20T23:02:35Z</time>
      </trkpt>
      <trkpt lat="42.403128" lon="-8.276991">
        <ele>605.416</ele>
        <time>2018-07-20T23:02:55Z</time>
      </trkpt>
      <trkpt lat="42.403310" lon="-8.277193">
        <ele>605.993</ele>
        <time>2018-07-20T23:03:15Z</time>
      </trkpt>
      <trkpt lat="42.403375" lon="-8.277377">
        <ele>607.198</ele>
        <time>2018-07-20T23:03:35Z</time>
      </trkpt>
      <trkpt lat="42.403525" lon="-8.277719">
        <ele>608.148</ele>
        <time>2018-07-20T23:03:55Z</time>
      </trkpt>
      <trkpt lat="42.403720" lon="-8.277857">
        <ele>607.113</ele>
        <time>2018-07-20T23:04:15Z</time>
      </trkpt>
      <trkpt lat="42.403875" lon="-8.277945">
        <ele>606.689</ele>
        <time>2018-07-20T23:04:35Z</time>
      </trkpt>
      <trkpt lat="42.404074" lon="-8.278025">
        <ele>603.687</ele>
        <time>2018-07-20T23:04:55Z</time>
      </trkpt>
      <trkpt lat="42.404224" lon="-8.278232">
        <ele>603.742</ele>
        <time>2018-07-20T23:05:15Z</time>
      </trkpt>
      <trkpt lat="42.404374" lon="-8.278421">
        <ele>605.126</ele>
        <time>2018-07-20T23:05:35Z</time>
      </trkpt>
      <trkpt lat="42.404538" lon="-8.278533">
        <ele>607.708</ele>
        <time>2018-07-20T23:05:55Z</time>
      </trkpt>
      <trkpt lat="42.404690" lon="-8.278425">
        <ele>606.130</ele>
        <time>2018-07-20T23:06:15Z</time>
      </trkpt>
      <trkpt lat="42.404784" lon="-8.278228">
        <ele>602.864</ele>
        <time>2018-07-20T23:06:35Z</time>
      </trkpt>
      <trkpt lat="42.405055" lon="-8.278066">
        <ele>604.085</ele>
        <time>2018-07-20T23:06:55Z</time>
      </trkpt>
      <trkpt lat="42.405350" lon="-8.277959">
        <ele>605.542</ele>
        <time>2018-07-20T23:07:15Z</time>
      </trkpt>
      <trkpt lat="42.405549" lon="-8.277986">
        <ele>608.917</ele>
        <time>2018-07-20T23:07:35Z</time>
      </trkpt>
      <trkpt lat="42.405870" lon="-8.277990">
        <ele>611.617</ele>
        <time>2018-07-20T23:07:55Z</time>
      </trkpt>
      <trkpt lat="42.406072" lon="-8.277992">
        <ele>614.192</ele>
        <time>2018-07-20T23:08:15Z</time>
      </trkpt>
      <trkpt lat="42.406222" lon="-8.277807">
        <ele>613.338</ele>
        <time>2018-07-20T23:08:35Z</time>
      </trkpt>
      <trkpt lat="42.406300" lon="-8.277537">
        <ele>611.619</ele>
        <time>2018-07-20T23:08:55Z</time>
      </trkpt>
      <trkpt lat="42.406370" lon="-8.277184">
        <ele>609.809</ele>
        <time>2018-07-20T23:09:15Z</time>
      </trkpt>
      <trkpt lat="42.406603" lon="-8.276815">
        <ele>609.819</ele>
        <time>2018-07-20T23:09:35Z</time>
      </trkpt>
      <trkpt lat="42.406606" lon="-8.276801">
        <ele>609.608</ele>
        <time>2018-07-20T23:09:55Z</time>
      </trkpt>
      <trkpt lat="42.406877" lon="-8.276583">
        <ele>609.883</ele>
        <time>2018-07-20T23:10:15Z</time>
      </trkpt>
      <trkpt lat="42.407265" lon="-8.276576">
        <ele>610.737</ele>
        <time>2018-07-20T23:10:35Z</time>
      </trkpt>
      <trkpt lat="42.407436" lon="-8.276781">
        <ele>613.868</ele>
        <time>2018-07-20T23:10:55Z</time>
      </trkpt>
      <trkpt lat="42.407829" lon="-8.276901">
        <ele>614.245</ele>
        <time>2018-07-20T23:11:15Z</time>
      </trkpt>
      <trkpt lat="42.408156" lon="-8.276926">
        <ele>614.420</ele>
        <time>2018-07-20T23:11:35Z</time>
      </trkpt>
      <trkpt lat="42.408244" lon="-8.276719">
        <ele>612.750</ele>
        <time>2018-07-20T23:11:55Z</time>
      </trkpt>
      <trkpt lat="42.408295" lon="-8.276311">
        <ele>611.165</ele>
        <time>2018-07-20T23:12:15Z</time>
      </trkpt>
      <trkpt lat="42.408253" lon="-8.275756">
        <ele>607.521</ele>
        <time>2018-07-20T23:12:35Z</time>
      </trkpt>
      <trkpt lat="42.408152" lon="-8.275258">
        <ele>600.695</ele>
        <time>2018-07-20T23:12:55Z</time>
      </trkpt>
      <trkpt lat="42.407948" lon="-8.274602">
        <ele>594.049</ele>
        <time>2018-07-20T23:13:15Z</time>
      </trkpt>
      <trkpt lat="42.407807" lon="-8.274159">
        <ele>590.223</ele>
        <time>2018-07-20T23:13:35Z</time>
      </trkpt>
      <trkpt lat="42.407637" lon="-8.273854">
        <ele>585.208</ele>
        <time>2018-07-20T23:13:55Z</time>
      </trkpt>
      <trkpt lat="42.407438" lon="-8.273300">
        <ele>579.271</ele>
        <time>2018-07-20T23:14:15Z</time>
      </trkpt>
      <trkpt lat="42.407248" lon="-8.272788">
        <ele>573.555</ele>
        <time>2018-07-20T23:14:35Z</time>
      </trkpt>
      <trkpt lat="42.407074" lon="-8.272157">
        <ele>565.436</ele>
        <time>2018-07-20T23:14:55Z</time>
      </trkpt>
      <trkpt lat="42.407183" lon="-8.271401">
        <ele>561.893</ele>
        <time>2018-07-20T23:15:15Z</time>
      </trkpt>
      <trkpt lat="42.407394" lon="-8.271074">
        <ele>559.318</ele>
        <time>2018-07-20T23:15:35Z</time>
      </trkpt>
      <trkpt lat="42.407534" lon="-8.270812">
        <ele>556.988</ele>
        <time>2018-07-20T23:15:55Z</time>
      </trkpt>
      <trkpt lat="42.407549" lon="-8.270240">
        <ele>548.383</ele>
        <time>2018-07-20T23:16:15Z</time>
      </trkpt>
      <trkpt lat="42.407562" lon="-8.269681">
        <ele>544.179</ele>
        <time>2018-07-20T23:16:35Z</time>
      </trkpt>
      <trkpt lat="42.407574" lon="-8.269660">
        <ele>544.123</ele>
        <time>2018-07-20T23:16:55Z</time>
      </trkpt>
      <trkpt lat="42.407664" lon="-8.269306">
        <ele>542.483</ele>
        <time>2018-07-20T23:17:15Z</time>
      </trkpt>
      <trkpt lat="42.407921" lon="-8.268795">
        <ele>537.111</ele>
        <time>2018-07-20T23:17:35Z</time>
      </trkpt>
      <trkpt lat="42.408091" lon="-8.268552">
        <ele>534.408</ele>
        <time>2018-07-20T23:17:55Z</time>
      </trkpt>
      <trkpt lat="42.408237" lon="-8.268323">
        <ele>531.684</ele>
        <time>2018-07-20T23:18:15Z</time>
      </trkpt>
      <trkpt lat="42.408221" lon="-8.268082">
        <ele>530.448</ele>
        <time>2018-07-20T23:18:35Z</time>
      </trkpt>
      <trkpt lat="42.408087" lon="-8.267702">
        <ele>530.479</ele>
        <time>2018-07-20T23:18:55Z</time>
      </trkpt>
      <trkpt lat="42.408126" lon="-8.267369">
        <ele>529.146</ele>
        <time>2018-07-20T23:19:15Z</time>
      </trkpt>
      <trkpt lat="42.408164" lon="-8.267080">
        <ele>528.131</ele>
        <time>2018-07-20T23:19:35Z</time>
      </trkpt>
      <trkpt lat="42.408298" lon="-8.266526">
        <ele>522.191</ele>
        <time>2018-07-20T23:19:55Z</time>
      </trkpt>
      <trkpt lat="42.408444" lon="-8.266226">
        <ele>516.136</ele>
        <time>2018-07-20T23:20:15Z</time>
      </trkpt>
      <trkpt lat="42.408704" lon="-8.265980">
        <ele>510.692</ele>
        <time>2018-07-20T23:20:35Z</time>
      </trkpt>
      <trkpt lat="42.408879" lon="-8.265746">
        <ele>506.214</ele>
        <time>2018-07-20T23:20:55Z</time>
      </trkpt>
      <trkpt lat="42.408947" lon="-8.265485">
        <ele>503.254</ele>
        <time>2018-07-20T23:21:15Z</time>
      </trkpt>
      <trkpt lat="42.408828" lon="-8.265299">
        <ele>501.509</ele>
        <time>2018-07-20T23:21:35Z</time>
      </trkpt>
      <trkpt lat="42.408764" lon="-8.264997">
        <ele>499.408</ele>
        <time>2018-07-20T23:21:55Z</time>
      </trkpt>
      <trkpt lat="42.408685" lon="-8.264593">
        <ele>497.273</ele>
        <time>2018-07-20T23:22:15Z</time>
      </trkpt>
      <trkpt lat="42.408525" lon="-8.263878">
        <ele>489.797</ele>
        <time>2018-07-20T23:22:35Z</time>
      </trkpt>
      <trkpt lat="42.408416" lon="-8.263393">
        <ele>488.248</ele>
        <time>2018-07-20T23:22:55Z</time>
      </trkpt>
      <trkpt lat="42.408370" lon="-8.262892">
        <ele>485.665</ele>
        <time>2018-07-20T23:23:15Z</time>
      </trkpt>
      <trkpt lat="42.408447" lon="-8.262682">
        <ele>485.150</ele>
        <time>2018-07-20T23:23:35Z</time>
      </trkpt>
      <trkpt lat="42.408574" lon="-8.262585">
        <ele>485.350</ele>
        <time>2018-07-20T23:23:55Z</time>
      </trkpt>
      <trkpt lat="42.408689" lon="-8.262612">
        <ele>485.425</ele>
        <time>2018-07-20T23:24:15Z</time>
      </trkpt>
      <trkpt lat="42.408819" lon="-8.262712">
        <ele>485.221</ele>
        <time>2018-07-20T23:24:35Z</time>
      </trkpt>
      <trkpt lat="42.409051" lon="-8.262835">
        <ele>482.886</ele>
        <time>2018-07-20T23:24:55Z</time>
      </trkpt>
      <trkpt lat="42.409209" lon="-8.262846">
        <ele>479.960</ele>
        <time>2018-07-20T23:25:15Z</time>
      </trkpt>
      <trkpt lat="42.409277" lon="-8.262966">
        <ele>477.926</ele>
        <time>2018-07-20T23:25:35Z</time>
      </trkpt>
      <trkpt lat="42.409341" lon="-8.262740">
        <ele>476.608</ele>
        <time>2018-07-20T23:25:55Z</time>
      </trkpt>
      <trkpt lat="42.409332" lon="-8.262317">
        <ele>476.880</ele>
        <time>2018-07-20T23:26:15Z</time>
      </trkpt>
      <trkpt lat="42.409200" lon="-8.261975">
        <ele>479.544</ele>
        <time>2018-07-20T23:26:35Z</time>
      </trkpt>
      <trkpt lat="42.409128" lon="-8.261684">
        <ele>479.995</ele>
        <time>2018-07-20T23:26:55Z</time>
      </trkpt>
      <trkpt lat="42.409061" lon="-8.261424">
        <ele>477.592</ele>
        <time>2018-07-20T23:27:15Z</time>
      </trkpt>
      <trkpt lat="42.408808" lon="-8.261378">
        <ele>473.557</ele>
        <time>2018-07-20T23:27:35Z</time>
      </trkpt>
      <trkpt lat="42.408583" lon="-8.261476">
        <ele>468.687</ele>
        <time>2018-07-20T23:27:55Z</time>
      </trkpt>
      <trkpt lat="42.408466" lon="-8.261679">
        <ele>469.192</ele>
        <time>2018-07-20T23:28:15Z</time>
      </trkpt>
      <trkpt lat="42.408273" lon="-8.261854">
        <ele>468.818</ele>
        <time>2018-07-20T23:28:35Z</time>
      </trkpt>
      <trkpt lat="42.407952" lon="-8.261958">
        <ele>467.272</ele>
        <time>2018-07-20T23:28:55Z</time>
      </trkpt>
      <trkpt lat="42.407614" lon="-8.262017">
        <ele>464.413</ele>
        <time>2018-07-20T23:29:15Z</time>
      </trkpt>
      <trkpt lat="42.407202" lon="-8.262200">
        <ele>458.914</ele>
        <time>2018-07-20T23:29:35Z</time>
      </trkpt>
      <trkpt lat="42.406889" lon="-8.262370">
        <ele>452.708</ele>
        <time>2018-07-20T23:29:55Z</time>
      </trkpt>
      <trkpt lat="42.406827" lon="-8.262010">
        <ele>447.179</ele>
        <time>2018-07-20T23:30:15Z</time>
      </trkpt>
      <trkpt lat="42.406729" lon="-8.261362">
        <ele>438.973</ele>
        <time>2018-07-20T23:30:35Z</time>
      </trkpt>
      <trkpt lat="42.406594" lon="-8.260468">
        <ele>416.984</ele>
        <time>2018-07-20T23:30:55Z</time>
      </trkpt>
      <trkpt lat="42.406532" lon="-8.260129">
        <ele>407.861</ele>
        <time>2018-07-20T23:31:15Z</time>
      </trkpt>
      <trkpt lat="42.406440" lon="-8.259675">
        <ele>397.836</ele>
        <time>2018-07-20T23:31:35Z</time>
      </trkpt>
      <trkpt lat="42.406403" lon="-8.259343">
        <ele>394.086</ele>
        <time>2018-07-20T23:31:55Z</time>
      </trkpt>
      <trkpt lat="42.406351" lon="-8.259014">
        <ele>390.371</ele>
        <time>2018-07-20T23:32:15Z</time>
      </trkpt>
      <trkpt lat="42.406272" lon="-8.258649">
        <ele>385.347</ele>
        <time>2018-07-20T23:32:35Z</time>
      </trkpt>
      <trkpt lat="42.406205" lon="-8.258321">
        <ele>379.943</ele>
        <time>2018-07-20T23:32:55Z</time>
      </trkpt>
      <trkpt lat="42.406216" lon="-8.258016">
        <ele>376.164</ele>
        <time>2018-07-20T23:33:15Z</time>
      </trkpt>
      <trkpt lat="42.406231" lon="-8.257637">
        <ele>372.410</ele>
        <time>2018-07-20T23:33:35Z</time>
      </trkpt>
      <trkpt lat="42.406257" lon="-8.257267">
        <ele>366.908</ele>
        <time>2018-07-20T23:33:55Z</time>
      </trkpt>
      <trkpt lat="42.406256" lon="-8.257254">
        <ele>366.666</ele>
        <time>2018-07-20T23:34:15Z</time>
      </trkpt>
      <trkpt lat="42.406250" lon="-8.256767">
        <ele>359.640</ele>
        <time>2018-07-20T23:34:35Z</time>
      </trkpt>
      <trkpt lat="42.406237" lon="-8.256752">
        <ele>359.491</ele>
        <time>2018-07-20T23:34:55Z</time>
      </trkpt>
      <trkpt lat="42.406228" lon="-8.256222">
        <ele>354.118</ele>
        <time>2018-07-20T23:35:15Z</time>
      </trkpt>
      <trkpt lat="42.406227" lon="-8.256209">
        <ele>354.013</ele>
        <time>2018-07-20T23:35:35Z</time>
      </trkpt>
      <trkpt lat="42.406245" lon="-8.255684">
        <ele>345.413</ele>
        <time>2018-07-20T23:35:55Z</time>
      </trkpt>
      <trkpt lat="42.406240" lon="-8.255147">
        <ele>343.998</ele>
        <time>2018-07-20T23:36:15Z</time>
      </trkpt>
      <trkpt lat="42.406240" lon="-8.255134">
        <ele>343.994</ele>
        <time>2018-07-20T23:36:35Z</time>
      </trkpt>
      <trkpt lat="42.406301" lon="-8.254500">
        <ele>340.094</ele>
        <time>2018-07-20T23:36:55Z</time>
      </trkpt>
      <trkpt lat="42.406300" lon="-8.254480">
        <ele>339.757</ele>
        <time>2018-07-20T23:37:15Z</time>
      </trkpt>
      <trkpt lat="42.406474" lon="-8.254109">
        <ele>333.122</ele>
        <time>2018-07-20T23:37:35Z</time>
      </trkpt>
      <trkpt lat="42.406486" lon="-8.254100">
        <ele>332.908</ele>
        <time>2018-07-20T23:37:55Z</time>
      </trkpt>
      <trkpt lat="42.406641" lon="-8.253756">
        <ele>329.151</ele>
        <time>2018-07-20T23:38:15Z</time>
      </trkpt>
      <trkpt lat="42.406748" lon="-8.253288">
        <ele>323.095</ele>
        <time>2018-07-20T23:38:35Z</time>
      </trkpt>
      <trkpt lat="42.406666" lon="-8.252890">
        <ele>321.426</ele>
        <time>2018-07-20T23:38:55Z</time>
      </trkpt>
      <trkpt lat="42.406665" lon="-8.252876">
        <ele>321.413</ele>
        <time>2018-07-20T23:39:15Z</time>
      </trkpt>
      <trkpt lat="42.406542" lon="-8.252426">
        <ele>335.758</ele>
        <time>2018-07-20T23:39:35Z</time>
      </trkpt>
      <trkpt lat="42.406580" lon="-8.251966">
        <ele>350.298</ele>
        <time>2018-07-20T23:39:55Z</time>
      </trkpt>
      <trkpt lat="42.406552" lon="-8.251654">
        <ele>358.573</ele>
        <time>2018-07-20T23:40:15Z</time>
      </trkpt>
      <trkpt lat="42.406646" lon="-8.251502">
        <ele>361.259</ele>
        <time>2018-07-20T23:40:35Z</time>
      </trkpt>
      <trkpt lat="42.406662" lon="-8.251184">
        <ele>371.519</ele>
        <time>2018-07-20T23:40:55Z</time>
      </trkpt>
      <trkpt lat="42.406845" lon="-8.251086">
        <ele>372.909</ele>
        <time>2018-07-20T23:41:15Z</time>
      </trkpt>
      <trkpt lat="42.407178" lon="-8.250797">
        <ele>380.419</ele>
        <time>2018-07-20T23:41:35Z</time>
      </trkpt>
      <trkpt lat="42.407184" lon="-8.250772">
        <ele>381.008</ele>
        <time>2018-07-20T23:41:55Z</time>
      </trkpt>
      <trkpt lat="42.407358" lon="-8.250451">
        <ele>387.563</ele>
        <time>2018-07-20T23:42:15Z</time>
      </trkpt>
      <trkpt lat="42.407464" lon="-8.250276">
        <ele>390.437</ele>
        <time>2018-07-20T23:42:35Z</time>
      </trkpt>
      <trkpt lat="42.407571" lon="-8.250105">
        <ele>392.768</ele>
        <time>2018-07-20T23:42:55Z</time>
      </trkpt>
      <trkpt lat="42.407649" lon="-8.249939">
        <ele>395.175</ele>
        <time>2018-07-20T23:43:15Z</time>
      </trkpt>
      <trkpt lat="42.407817" lon="-8.249793">
        <ele>397.840</ele>
        <time>2018-07-20T23:43:35Z</time>
      </trkpt>
      <trkpt lat="42.407825" lon="-8.249768">
        <ele>398.440</ele>
        <time>2018-07-20T23:43:55Z</time>
      </trkpt>
      <trkpt lat="42.407905" lon="-8.249628">
        <ele>402.085</ele>
        <time>2018-07-20T23:44:15Z</time>
      </trkpt>
      <trkpt lat="42.408062" lon="-8.249638">
        <ele>402.931</ele>
        <time>2018-07-20T23:44:35Z</time>
      </trkpt>
      <trkpt lat="42.408285" lon="-8.249620">
        <ele>404.947</ele>
        <time>2018-07-20T23:44:55Z</time>
      </trkpt>
      <trkpt lat="42.408348" lon="-8.249535">
        <ele>407.129</ele>
        <time>2018-07-20T23:45:15Z</time>
      </trkpt>
      <trkpt lat="42.408239" lon="-8.249398">
        <ele>409.121</ele>
        <time>2018-07-20T23:45:35Z</time>
      </trkpt>
      <trkpt lat="42.408082" lon="-8.249184">
        <ele>411.008</ele>
        <time>2018-07-20T23:45:55Z</time>
      </trkpt>
      <trkpt lat="42.407945" lon="-8.248890">
        <ele>414.636</ele>
        <time>2018-07-20T23:46:15Z</time>
      </trkpt>
      <trkpt lat="42.407748" lon="-8.248628">
        <ele>416.760</ele>
        <time>2018-07-20T23:46:35Z</time>
      </trkpt>
      <trkpt lat="42.407579" lon="-8.248338">
        <ele>418.881</ele>
        <time>2018-07-20T23:46:55Z</time>
      </trkpt>
      <trkpt lat="42.407471" lon="-8.247982">
        <ele>419.198</ele>
        <time>2018-07-20T23:47:15Z</time>
      </trkpt>
      <trkpt lat="42.407469" lon="-8.247873">
        <ele>419.953</ele>
        <time>2018-07-20T23:47:35Z</time>
      </trkpt>
      <trkpt lat="42.407514" lon="-8.247688">
        <ele>421.993</ele>
        <time>2018-07-20T23:47:55Z</time>
      </trkpt>
      <trkpt lat="42.407603" lon="-8.247418">
        <ele>424.598</ele>
        <time>2018-07-20T23:48:15Z</time>
      </trkpt>
      <trkpt lat="42.407603" lon="-8.247407">
        <ele>424.474</ele>
        <time>2018-07-20T23:48:35Z</time>
      </trkpt>
      <trkpt lat="42.407650" lon="-8.247130">
        <ele>425.042</ele>
        <time>2018-07-20T23:48:55Z</time>
      </trkpt>
      <trkpt lat="42.407749" lon="-8.246947">
        <ele>428.222</ele>
        <time>2018-07-20T23:49:15Z</time>
      </trkpt>
      <trkpt lat="42.407792" lon="-8.246795">
        <ele>429.514</ele>
        <time>2018-07-20T23:49:35Z</time>
      </trkpt>
      <trkpt lat="42.407759" lon="-8.246639">
        <ele>428.608</ele>
        <time>2018-07-20T23:49:55Z</time>
      </trkpt>
      <trkpt lat="42.407648" lon="-8.246377">
        <ele>426.466</ele>
        <time>2018-07-20T23:50:15Z</time>
      </trkpt>
      <trkpt lat="42.407523" lon="-8.246108">
        <ele>423.090</ele>
        <time>2018-07-20T23:50:35Z</time>
      </trkpt>
      <trkpt lat="42.407393" lon="-8.245638">
        <ele>422.681</ele>
        <time>2018-07-20T23:50:55Z</time>
      </trkpt>
      <trkpt lat="42.407340" lon="-8.245341">
        <ele>424.958</ele>
        <time>2018-07-20T23:51:15Z</time>
      </trkpt>
      <trkpt lat="42.407299" lon="-8.245183">
        <ele>425.483</ele>
        <time>2018-07-20T23:51:35Z</time>
      </trkpt>
      <trkpt lat="42.407256" lon="-8.245030">
        <ele>425.123</ele>
        <time>2018-07-20T23:51:55Z</time>
      </trkpt>
      <trkpt lat="42.407167" lon="-8.244835">
        <ele>424.458</ele>
        <time>2018-07-20T23:52:15Z</time>
      </trkpt>
      <trkpt lat="42.407117" lon="-8.244644">
        <ele>424.474</ele>
        <time>2018-07-20T23:52:35Z</time>
      </trkpt>
      <trkpt lat="42.407045" lon="-8.244346">
        <ele>423.211</ele>
        <time>2018-07-20T23:52:55Z</time>
      </trkpt>
      <trkpt lat="42.407052" lon="-8.244324">
        <ele>423.521</ele>
        <time>2018-07-20T23:53:15Z</time>
      </trkpt>
      <trkpt lat="42.406943" lon="-8.244105">
        <ele>419.903</ele>
        <time>2018-07-20T23:53:35Z</time>
      </trkpt>
      <trkpt lat="42.406784" lon="-8.243978">
        <ele>414.008</ele>
        <time>2018-07-20T23:53:55Z</time>
      </trkpt>
      <trkpt lat="42.406711" lon="-8.244053">
        <ele>411.123</ele>
        <time>2018-07-20T23:54:15Z</time>
      </trkpt>
      <trkpt lat="42.406789" lon="-8.244257">
        <ele>413.317</ele>
        <time>2018-07-20T23:54:35Z</time>
      </trkpt>
      <trkpt lat="42.406815" lon="-8.244484">
        <ele>413.178</ele>
        <time>2018-07-20T23:54:55Z</time>
      </trkpt>
      <trkpt lat="42.406880" lon="-8.244691">
        <ele>414.435</ele>
        <time>2018-07-20T23:55:15Z</time>
      </trkpt>
      <trkpt lat="42.406976" lon="-8.245201">
        <ele>414.610</ele>
        <time>2018-07-20T23:55:35Z</time>
      </trkpt>
      <trkpt lat="42.406939" lon="-8.245495">
        <ele>410.410</ele>
        <time>2018-07-20T23:55:55Z</time>
      </trkpt>
      <trkpt lat="42.406968" lon="-8.245829">
        <ele>405.945</ele>
        <time>2018-07-20T23:56:15Z</time>
      </trkpt>
      <trkpt lat="42.406969" lon="-8.246357">
        <ele>401.841</ele>
        <time>2018-07-20T23:56:35Z</time>
      </trkpt>
      <trkpt lat="42.406859" lon="-8.246176">
        <ele>399.262</ele>
        <time>2018-07-20T23:56:55Z</time>
      </trkpt>
      <trkpt lat="42.406720" lon="-8.245867">
        <ele>397.583</ele>
        <time>2018-07-20T23:57:15Z</time>
      </trkpt>
      <trkpt lat="42.406573" lon="-8.245592">
        <ele>394.411</ele>
        <time>2018-07-20T23:57:35Z</time>
      </trkpt>
      <trkpt lat="42.406568" lon="-8.245559">
        <ele>394.408</ele>
        <time>2018-07-20T23:57:55Z</time>
      </trkpt>
      <trkpt lat="42.406494" lon="-8.245444">
        <ele>393.128</ele>
        <time>2018-07-20T23:58:15Z</time>
      </trkpt>
      <trkpt lat="42.406379" lon="-8.245212">
        <ele>391.252</ele>
        <time>2018-07-20T23:58:35Z</time>
      </trkpt>
      <trkpt lat="42.406377" lon="-8.245201">
        <ele>391.243</ele>
        <time>2018-07-20T23:58:55Z</time>
      </trkpt>
      <trkpt lat="42.406288" lon="-8.244821">
        <ele>389.230</ele>
        <time>2018-07-20T23:59:15Z</time>
      </trkpt>
      <trkpt lat="42.406277" lon="-8.244780">
        <ele>388.855</ele>
        <time>2018-07-20T23:59:35Z</time>
      </trkpt>
      <trkpt lat="42.406276" lon="-8.244769">
        <ele>388.785</ele>
        <time>2018-07-20T23:59:55Z</time>
      </trkpt>
      <trkpt lat="42.406201" lon="-8.244489">
        <ele>387.110</ele>
        <time>2018-07-21T00:00:15Z</time>
      </trkpt>
      <trkpt lat="42.406129" lon="-8.244087">
        <ele>387.516</ele>
        <time>2018-07-21T00:00:35Z</time>
      </trkpt>
      <trkpt lat="42.406014" lon="-8.243771">
        <ele>378.894</ele>
        <time>2018-07-21T00:00:55Z</time>
      </trkpt>
      <trkpt lat="42.406012" lon="-8.243760">
        <ele>378.757</ele>
        <time>2018-07-21T00:01:15Z</time>
      </trkpt>
      <trkpt lat="42.405945" lon="-8.243344">
        <ele>372.522</ele>
        <time>2018-07-21T00:01:35Z</time>
      </trkpt>
      <trkpt lat="42.405973" lon="-8.243291">
        <ele>372.508</ele>
        <time>2018-07-21T00:01:55Z</time>
      </trkpt>
      <trkpt lat="42.406119" lon="-8.243129">
        <ele>374.871</ele>
        <time>2018-07-21T00:02:15Z</time>
      </trkpt>
      <trkpt lat="42.406131" lon="-8.243128">
        <ele>375.285</ele>
        <time>2018-07-21T00:02:35Z</time>
      </trkpt>
      <trkpt lat="42.406370" lon="-8.243039">
        <ele>380.146</ele>
        <time>2018-07-21T00:02:55Z</time>
      </trkpt>
      <trkpt lat="42.406574" lon="-8.242766">
        <ele>380.743</ele>
        <time>2018-07-21T00:03:15Z</time>
      </trkpt>
      <trkpt lat="42.406578" lon="-8.242755">
        <ele>380.618</ele>
        <time>2018-07-21T00:03:35Z</time>
      </trkpt>
      <trkpt lat="42.406728" lon="-8.242453">
        <ele>380.278</ele>
        <time>2018-07-21T00:03:55Z</time>
      </trkpt>
      <trkpt lat="42.406759" lon="-8.242383">
        <ele>380.633</ele>
        <time>2018-07-21T00:04:15Z</time>
      </trkpt>
      <trkpt lat="42.406831" lon="-8.242046">
        <ele>380.499</ele>
        <time>2018-07-21T00:04:35Z</time>
      </trkpt>
      <trkpt lat="42.406561" lon="-8.241942">
        <ele>369.854</ele>
        <time>2018-07-21T00:04:55Z</time>
      </trkpt>
      <trkpt lat="42.406139" lon="-8.241786">
        <ele>367.956</ele>
        <time>2018-07-21T00:05:15Z</time>
      </trkpt>
      <trkpt lat="42.406135" lon="-8.241776">
        <ele>368.211</ele>
        <time>2018-07-21T00:05:35Z</time>
      </trkpt>
      <trkpt lat="42.405733" lon="-8.241552">
        <ele>371.008</ele>
        <time>2018-07-21T00:05:55Z</time>
      </trkpt>
      <trkpt lat="42.405418" lon="-8.241339">
        <ele>373.677</ele>
        <time>2018-07-21T00:06:15Z</time>
      </trkpt>
      <trkpt lat="42.405139" lon="-8.241084">
        <ele>372.861</ele>
        <time>2018-07-21T00:06:35Z</time>
      </trkpt>
      <trkpt lat="42.404922" lon="-8.240761">
        <ele>371.332</ele>
        <time>2018-07-21T00:06:55Z</time>
      </trkpt>
      <trkpt lat="42.404924" lon="-8.240412">
        <ele>371.919</ele>
        <time>2018-07-21T00:07:15Z</time>
      </trkpt>
      <trkpt lat="42.405021" lon="-8.240122">
        <ele>374.624</ele>
        <time>2018-07-21T00:07:35Z</time>
      </trkpt>
      <trkpt lat="42.404963" lon="-8.239801">
        <ele>373.764</ele>
        <time>2018-07-21T00:07:55Z</time>
      </trkpt>
      <trkpt lat="42.404730" lon="-8.239472">
        <ele>369.149</ele>
        <time>2018-07-21T00:08:15Z</time>
      </trkpt>
      <trkpt lat="42.404588" lon="-8.239229">
        <ele>365.345</ele>
        <time>2018-07-21T00:08:35Z</time>
      </trkpt>
      <trkpt lat="42.404582" lon="-8.239107">
        <ele>365.735</ele>
        <time>2018-07-21T00:08:55Z</time>
      </trkpt>
      <trkpt lat="42.404750" lon="-8.238961">
        <ele>369.686</ele>
        <time>2018-07-21T00:09:15Z</time>
      </trkpt>
      <trkpt lat="42.404715" lon="-8.238797">
        <ele>369.914</ele>
        <time>2018-07-21T00:09:35Z</time>
      </trkpt>
      <trkpt lat="42.404559" lon="-8.238588">
        <ele>369.708</ele>
        <time>2018-07-21T00:09:55Z</time>
      </trkpt>
      <trkpt lat="42.404264" lon="-8.238445">
        <ele>369.435</ele>
        <time>2018-07-21T00:10:15Z</time>
      </trkpt>
      <trkpt lat="42.403990" lon="-8.238461">
        <ele>367.219</ele>
        <time>2018-07-21T00:10:35Z</time>
      </trkpt>
      <trkpt lat="42.403865" lon="-8.238547">
        <ele>363.980</ele>
        <time>2018-07-21T00:10:55Z</time>
      </trkpt>
      <trkpt lat="42.403652" lon="-8.238622">
        <ele>359.967</ele>
        <time>2018-07-21T00:11:15Z</time>
      </trkpt>
      <trkpt lat="42.403508" lon="-8.238608">
        <ele>359.022</ele>
        <time>2018-07-21T00:11:35Z</time>
      </trkpt>
      <trkpt lat="42.403314" lon="-8.238611">
        <ele>356.962</ele>
        <time>2018-07-21T00:11:55Z</time>
      </trkpt>
      <trkpt lat="42.403092" lon="-8.238630">
        <ele>354.697</ele>
        <time>2018-07-21T00:12:15Z</time>
      </trkpt>
      <trkpt lat="42.402910" lon="-8.238575">
        <ele>355.253</ele>
        <time>2018-07-21T00:12:35Z</time>
      </trkpt>
      <trkpt lat="42.402758" lon="-8.238588">
        <ele>354.686</ele>
        <time>2018-07-21T00:12:55Z</time>
      </trkpt>
      <trkpt lat="42.402723" lon="-8.238726">
        <ele>352.460</ele>
        <time>2018-07-21T00:13:15Z</time>
      </trkpt>
      <trkpt lat="42.402522" lon="-8.239092">
        <ele>346.826</ele>
        <time>2018-07-21T00:13:35Z</time>
      </trkpt>
      <trkpt lat="42.402363" lon="-8.239320">
        <ele>344.008</ele>
        <time>2018-07-21T00:13:55Z</time>
      </trkpt>
      <trkpt lat="42.402150" lon="-8.239599">
        <ele>339.550</ele>
        <time>2018-07-21T00:14:15Z</time>
      </trkpt>
      <trkpt lat="42.401865" lon="-8.239900">
        <ele>334.024</ele>
        <time>2018-07-21T00:14:35Z</time>
      </trkpt>
      <trkpt lat="42.401694" lon="-8.239976">
        <ele>333.315</ele>
        <time>2018-07-21T00:14:55Z</time>
      </trkpt>
      <trkpt lat="42.401516" lon="-8.239939">
        <ele>333.562</ele>
        <time>2018-07-21T00:15:15Z</time>
      </trkpt>
      <trkpt lat="42.401508" lon="-8.239942">
        <ele>333.457</ele>
        <time>2018-07-21T00:15:35Z</time>
      </trkpt>
      <trkpt lat="42.401293" lon="-8.239871">
        <ele>332.857</ele>
        <time>2018-07-21T00:15:55Z</time>
      </trkpt>
      <trkpt lat="42.401261" lon="-8.239834">
        <ele>332.982</ele>
        <time>2018-07-21T00:16:15Z</time>
      </trkpt>
      <trkpt lat="42.401075" lon="-8.239562">
        <ele>332.198</ele>
        <time>2018-07-21T00:16:35Z</time>
      </trkpt>
      <trkpt lat="42.400853" lon="-8.239278">
        <ele>329.328</ele>
        <time>2018-07-21T00:16:55Z</time>
      </trkpt>
      <trkpt lat="42.400614" lon="-8.239035">
        <ele>326.389</ele>
        <time>2018-07-21T00:17:15Z</time>
      </trkpt>
      <trkpt lat="42.400256" lon="-8.238871">
        <ele>318.817</ele>
        <time>2018-07-21T00:17:35Z</time>
      </trkpt>
      <trkpt lat="42.399934" lon="-8.238653">
        <ele>315.008</ele>
        <time>2018-07-21T00:17:55Z</time>
      </trkpt>
      <trkpt lat="42.399722" lon="-8.238453">
        <ele>310.964</ele>
        <time>2018-07-21T00:18:15Z</time>
      </trkpt>
      <trkpt lat="42.399725" lon="-8.238354">
        <ele>310.228</ele>
        <time>2018-07-21T00:18:35Z</time>
      </trkpt>
      <trkpt lat="42.399785" lon="-8.238171">
        <ele>310.549</ele>
        <time>2018-07-21T00:18:55Z</time>
      </trkpt>
      <trkpt lat="42.399827" lon="-8.238046">
        <ele>310.936</ele>
        <time>2018-07-21T00:19:15Z</time>
      </trkpt>
      <trkpt lat="42.399846" lon="-8.238007">
        <ele>311.331</ele>
        <time>2018-07-21T00:19:35Z</time>
      </trkpt>
      <trkpt lat="42.399853" lon="-8.237911">
        <ele>311.631</ele>
        <time>2018-07-21T00:19:55Z</time>
      </trkpt>
      <trkpt lat="42.399807" lon="-8.237861">
        <ele>311.066</ele>
        <time>2018-07-21T00:20:15Z</time>
      </trkpt>
      <trkpt lat="42.399759" lon="-8.237871">
        <ele>310.222</ele>
        <time>2018-07-21T00:20:35Z</time>
      </trkpt>
      <trkpt lat="42.399717" lon="-8.237863">
        <ele>309.749</ele>
        <time>2018-07-21T00:20:55Z</time>
      </trkpt>
      <trkpt lat="42.399713" lon="-8.237789">
        <ele>309.902</ele>
        <time>2018-07-21T00:21:15Z</time>
      </trkpt>
      <trkpt lat="42.399699" lon="-8.237663">
        <ele>311.922</ele>
        <time>2018-07-21T00:21:35Z</time>
      </trkpt>
      <trkpt lat="42.399650" lon="-8.237579">
        <ele>312.908</ele>
        <time>2018-07-21T00:21:55Z</time>
      </trkpt>
      <trkpt lat="42.399639" lon="-8.237575">
        <ele>312.986</ele>
        <time>2018-07-21T00:22:15Z</time>
      </trkpt>
      <trkpt lat="42.399536" lon="-8.237548">
        <ele>312.480</ele>
        <time>2018-07-21T00:22:35Z</time>
      </trkpt>
      <trkpt lat="42.399415" lon="-8.237515">
        <ele>311.571</ele>
        <time>2018-07-21T00:22:55Z</time>
      </trkpt>
      <trkpt lat="42.399236" lon="-8.237468">
        <ele>310.198</ele>
        <time>2018-07-21T00:23:15Z</time>
      </trkpt>
      <trkpt lat="42.399051" lon="-8.237397">
        <ele>308.943</ele>
        <time>2018-07-21T00:23:35Z</time>
      </trkpt>
      <trkpt lat="42.398918" lon="-8.237244">
        <ele>309.153</ele>
        <time>2018-07-21T00:23:55Z</time>
      </trkpt>
      <trkpt lat="42.398800" lon="-8.237076">
        <ele>309.818</ele>
        <time>2018-07-21T00:24:15Z</time>
      </trkpt>
      <trkpt lat="42.398663" lon="-8.236880">
        <ele>309.654</ele>
        <time>2018-07-21T00:24:35Z</time>
      </trkpt>
      <trkpt lat="42.398551" lon="-8.236656">
        <ele>309.485</ele>
        <time>2018-07-21T00:24:55Z</time>
      </trkpt>
      <trkpt lat="42.398384" lon="-8.236328">
        <ele>307.589</ele>
        <time>2018-07-21T00:25:15Z</time>
      </trkpt>
      <trkpt lat="42.398296" lon="-8.235931">
        <ele>306.417</ele>
        <time>2018-07-21T00:25:35Z</time>
      </trkpt>
      <trkpt lat="42.398287" lon="-8.235907">
        <ele>306.208</ele>
        <time>2018-07-21T00:25:55Z</time>
      </trkpt>
      <trkpt lat="42.398204" lon="-8.235577">
        <ele>302.870</ele>
        <time>2018-07-21T00:26:15Z</time>
      </trkpt>
      <trkpt lat="42.398209" lon="-8.235264">
        <ele>300.534</ele>
        <time>2018-07-21T00:26:35Z</time>
      </trkpt>
      <trkpt lat="42.398219" lon="-8.235258">
        <ele>300.525</ele>
        <time>2018-07-21T00:26:55Z</time>
      </trkpt>
      <trkpt lat="42.398317" lon="-8.235150">
        <ele>299.632</ele>
        <time>2018-07-21T00:27:15Z</time>
      </trkpt>
      <trkpt lat="42.398346" lon="-8.235137">
        <ele>299.527</ele>
        <time>2018-07-21T00:27:35Z</time>
      </trkpt>
      <trkpt lat="42.398509" lon="-8.235080">
        <ele>298.247</ele>
        <time>2018-07-21T00:27:55Z</time>
      </trkpt>
      <trkpt lat="42.398534" lon="-8.235067">
        <ele>297.822</ele>
        <time>2018-07-21T00:28:15Z</time>
      </trkpt>
      <trkpt lat="42.398690" lon="-8.234975">
        <ele>295.438</ele>
        <time>2018-07-21T00:28:35Z</time>
      </trkpt>
      <trkpt lat="42.398872" lon="-8.234754">
        <ele>289.832</ele>
        <time>2018-07-21T00:28:55Z</time>
      </trkpt>
      <trkpt lat="42.398879" lon="-8.234746">
        <ele>289.692</ele>
        <time>2018-07-21T00:29:15Z</time>
      </trkpt>
      <trkpt lat="42.398940" lon="-8.234588">
        <ele>290.011</ele>
        <time>2018-07-21T00:29:35Z</time>
      </trkpt>
      <trkpt lat="42.398944" lon="-8.234553">
        <ele>289.908</ele>
        <time>2018-07-21T00:29:55Z</time>
      </trkpt>
      <trkpt lat="42.398997" lon="-8.234200">
        <ele>289.955</ele>
        <time>2018-07-21T00:30:15Z</time>
      </trkpt>
      <trkpt lat="42.398994" lon="-8.234144">
        <ele>289.569</ele>
        <time>2018-07-21T00:30:35Z</time>
      </trkpt>
      <trkpt lat="42.398999" lon="-8.234079">
        <ele>289.810</ele>
        <time>2018-07-21T00:30:55Z</time>
      </trkpt>
      <trkpt lat="42.398978" lon="-8.233627">
        <ele>290.447</ele>
        <time>2018-07-21T00:31:15Z</time>
      </trkpt>
      <trkpt lat="42.398976" lon="-8.233613">
        <ele>290.442</ele>
        <time>2018-07-21T00:31:35Z</time>
      </trkpt>
      <trkpt lat="42.399026" lon="-8.233247">
        <ele>292.352</ele>
        <time>2018-07-21T00:31:55Z</time>
      </trkpt>
      <trkpt lat="42.399030" lon="-8.233224">
        <ele>292.237</ele>
        <time>2018-07-21T00:32:15Z</time>
      </trkpt>
      <trkpt lat="42.399119" lon="-8.232971">
        <ele>291.023</ele>
        <time>2018-07-21T00:32:35Z</time>
      </trkpt>
      <trkpt lat="42.399335" lon="-8.232711">
        <ele>290.269</ele>
        <time>2018-07-21T00:32:55Z</time>
      </trkpt>
      <trkpt lat="42.399352" lon="-8.232680">
        <ele>289.704</ele>
        <time>2018-07-21T00:33:15Z</time>
      </trkpt>
      <trkpt lat="42.399636" lon="-8.232400">
        <ele>286.424</ele>
        <time>2018-07-21T00:33:35Z</time>
      </trkpt>
      <trkpt lat="42.399787" lon="-8.232193">
        <ele>281.008</ele>
        <time>2018-07-21T00:33:55Z</time>
      </trkpt>
      <trkpt lat="42.399791" lon="-8.232187">
        <ele>280.858</ele>
        <time>2018-07-21T00:34:15Z</time>
      </trkpt>
      <trkpt lat="42.400056" lon="-8.231926">
        <ele>276.922</ele>
        <time>2018-07-21T00:34:35Z</time>
      </trkpt>
      <trkpt lat="42.400267" lon="-8.231892">
        <ele>282.093</ele>
        <time>2018-07-21T00:34:55Z</time>
      </trkpt>
      <trkpt lat="42.400385" lon="-8.231776">
        <ele>281.920</ele>
        <time>2018-07-21T00:35:15Z</time>
      </trkpt>
      <trkpt lat="42.400456" lon="-8.231525">
        <ele>276.675</ele>
        <time>2018-07-21T00:35:35Z</time>
      </trkpt>
      <trkpt lat="42.400610" lon="-8.231233">
        <ele>272.495</ele>
        <time>2018-07-21T00:35:55Z</time>
      </trkpt>
      <trkpt lat="42.400731" lon="-8.231300">
        <ele>278.350</ele>
        <time>2018-07-21T00:36:15Z</time>
      </trkpt>
      <trkpt lat="42.400763" lon="-8.231287">
        <ele>279.136</ele>
        <time>2018-07-21T00:36:35Z</time>
      </trkpt>
      <trkpt lat="42.400984" lon="-8.231414">
        <ele>290.681</ele>
        <time>2018-07-21T00:36:55Z</time>
      </trkpt>
      <trkpt lat="42.400986" lon="-8.231424">
        <ele>290.961</ele>
        <time>2018-07-21T00:37:15Z</time>
      </trkpt>
      <trkpt lat="42.401114" lon="-8.231438">
        <ele>296.317</ele>
        <time>2018-07-21T00:37:35Z</time>
      </trkpt>
      <trkpt lat="42.401121" lon="-8.231419">
        <ele>296.008</ele>
        <time>2018-07-21T00:37:55Z</time>
      </trkpt>
      <trkpt lat="42.401195" lon="-8.231150">
        <ele>291.540</ele>
        <time>2018-07-21T00:38:15Z</time>
      </trkpt>
      <trkpt lat="42.401197" lon="-8.231138">
        <ele>291.324</ele>
        <time>2018-07-21T00:38:35Z</time>
      </trkpt>
      <trkpt lat="42.401465" lon="-8.230681">
        <ele>291.345</ele>
        <time>2018-07-21T00:38:55Z</time>
      </trkpt>
      <trkpt lat="42.401691" lon="-8.230565">
        <ele>299.382</ele>
        <time>2018-07-21T00:39:15Z</time>
      </trkpt>
      <trkpt lat="42.401956" lon="-8.230382">
        <ele>304.957</ele>
        <time>2018-07-21T00:39:35Z</time>
      </trkpt>
      <trkpt lat="42.402158" lon="-8.230327">
        <ele>311.277</ele>
        <time>2018-07-21T00:39:55Z</time>
      </trkpt>
      <trkpt lat="42.402283" lon="-8.230323">
        <ele>314.972</ele>
        <time>2018-07-21T00:40:15Z</time>
      </trkpt>
      <trkpt lat="42.402189" lon="-8.230585">
        <ele>320.928</ele>
        <time>2018-07-21T00:40:35Z</time>
      </trkpt>
      <trkpt lat="42.402188" lon="-8.230593">
        <ele>321.071</ele>
        <time>2018-07-21T00:40:55Z</time>
      </trkpt>
      <trkpt lat="42.402034" lon="-8.230812">
        <ele>318.541</ele>
        <time>2018-07-21T00:41:15Z</time>
      </trkpt>
      <trkpt lat="42.402057" lon="-8.230924">
        <ele>320.615</ele>
        <time>2018-07-21T00:41:35Z</time>
      </trkpt>
      <trkpt lat="42.402065" lon="-8.230918">
        <ele>320.808</ele>
        <time>2018-07-21T00:41:55Z</time>
      </trkpt>
      <trkpt lat="42.402086" lon="-8.230893">
        <ele>321.229</ele>
        <time>2018-07-21T00:42:15Z</time>
      </trkpt>
      <trkpt lat="42.402215" lon="-8.230779">
        <ele>324.223</ele>
        <time>2018-07-21T00:42:35Z</time>
      </trkpt>
      <trkpt lat="42.402237" lon="-8.230774">
        <ele>324.814</ele>
        <time>2018-07-21T00:42:55Z</time>
      </trkpt>
      <trkpt lat="42.402245" lon="-8.230776">
        <ele>325.041</ele>
        <time>2018-07-21T00:43:15Z</time>
      </trkpt>
      <trkpt lat="42.402420" lon="-8.230681">
        <ele>328.376</ele>
        <time>2018-07-21T00:43:35Z</time>
      </trkpt>
      <trkpt lat="42.402868" lon="-8.230741">
        <ele>334.796</ele>
        <time>2018-07-21T00:43:55Z</time>
      </trkpt>
      <trkpt lat="42.403064" lon="-8.230723">
        <ele>338.181</ele>
        <time>2018-07-21T00:44:15Z</time>
      </trkpt>
      <trkpt lat="42.403141" lon="-8.230532">
        <ele>335.747</ele>
        <time>2018-07-21T00:44:35Z</time>
      </trkpt>
      <trkpt lat="42.403181" lon="-8.230197">
        <ele>332.179</ele>
        <time>2018-07-21T00:44:55Z</time>
      </trkpt>
      <trkpt lat="42.403195" lon="-8.230171">
        <ele>332.405</ele>
        <time>2018-07-21T00:45:15Z</time>
      </trkpt>
      <trkpt lat="42.403239" lon="-8.230024">
        <ele>332.525</ele>
        <time>2018-07-21T00:45:35Z</time>
      </trkpt>
      <trkpt lat="42.403356" lon="-8.229741">
        <ele>335.908</ele>
        <time>2018-07-21T00:45:55Z</time>
      </trkpt>
      <trkpt lat="42.403363" lon="-8.229730">
        <ele>336.159</ele>
        <time>2018-07-21T00:46:15Z</time>
      </trkpt>
      <trkpt lat="42.403475" lon="-8.229433">
        <ele>339.893</ele>
        <time>2018-07-21T00:46:35Z</time>
      </trkpt>
      <trkpt lat="42.403487" lon="-8.229421">
        <ele>340.464</ele>
        <time>2018-07-21T00:46:55Z</time>
      </trkpt>
      <trkpt lat="42.403276" lon="-8.229129">
        <ele>341.061</ele>
        <time>2018-07-21T00:47:15Z</time>
      </trkpt>
      <trkpt lat="42.402921" lon="-8.228826">
        <ele>340.356</ele>
        <time>2018-07-21T00:47:35Z</time>
      </trkpt>
      <trkpt lat="42.402895" lon="-8.228802">
        <ele>340.366</ele>
        <time>2018-07-21T00:47:55Z</time>
      </trkpt>
      <trkpt lat="42.402893" lon="-8.228797">
        <ele>340.441</ele>
        <time>2018-07-21T00:48:15Z</time>
      </trkpt>
      <trkpt lat="42.402620" lon="-8.228530">
        <ele>338.467</ele>
        <time>2018-07-21T00:48:35Z</time>
      </trkpt>
      <trkpt lat="42.402547" lon="-8.228068">
        <ele>344.358</ele>
        <time>2018-07-21T00:48:55Z</time>
      </trkpt>
      <trkpt lat="42.402527" lon="-8.227685">
        <ele>351.652</ele>
        <time>2018-07-21T00:49:15Z</time>
      </trkpt>
      <trkpt lat="42.402525" lon="-8.227665">
        <ele>351.817</ele>
        <time>2018-07-21T00:49:35Z</time>
      </trkpt>
      <trkpt lat="42.402527" lon="-8.227644">
        <ele>352.008</ele>
        <time>2018-07-21T00:49:55Z</time>
      </trkpt>
      <trkpt lat="42.402583" lon="-8.227131">
        <ele>353.197</ele>
        <time>2018-07-21T00:50:15Z</time>
      </trkpt>
      <trkpt lat="42.402847" lon="-8.226993">
        <ele>356.971</ele>
        <time>2018-07-21T00:50:35Z</time>
      </trkpt>
      <trkpt lat="42.402868" lon="-8.226989">
        <ele>357.092</ele>
        <time>2018-07-21T00:50:55Z</time>
      </trkpt>
      <trkpt lat="42.403172" lon="-8.226993">
        <ele>358.619</ele>
        <time>2018-07-21T00:51:15Z</time>
      </trkpt>
      <trkpt lat="42.403197" lon="-8.226982">
        <ele>358.514</ele>
        <time>2018-07-21T00:51:35Z</time>
      </trkpt>
      <trkpt lat="42.403618" lon="-8.226815">
        <ele>356.154</ele>
        <time>2018-07-21T00:51:55Z</time>
      </trkpt>
      <trkpt lat="42.403817" lon="-8.226560">
        <ele>357.489</ele>
        <time>2018-07-21T00:52:15Z</time>
      </trkpt>
      <trkpt lat="42.403816" lon="-8.226553">
        <ele>357.375</ele>
        <time>2018-07-21T00:52:35Z</time>
      </trkpt>
      <trkpt lat="42.403809" lon="-8.226167">
        <ele>355.087</ele>
        <time>2018-07-21T00:52:55Z</time>
      </trkpt>
      <trkpt lat="42.403816" lon="-8.226150">
        <ele>355.342</ele>
        <time>2018-07-21T00:53:15Z</time>
      </trkpt>
      <trkpt lat="42.403826" lon="-8.226118">
        <ele>355.526</ele>
        <time>2018-07-21T00:53:35Z</time>
      </trkpt>
      <trkpt lat="42.404054" lon="-8.225770">
        <ele>360.608</ele>
        <time>2018-07-21T00:53:55Z</time>
      </trkpt>
      <trkpt lat="42.404083" lon="-8.225741">
        <ele>361.210</ele>
        <time>2018-07-21T00:54:15Z</time>
      </trkpt>
      <trkpt lat="42.404367" lon="-8.225360">
        <ele>365.874</ele>
        <time>2018-07-21T00:54:35Z</time>
      </trkpt>
      <trkpt lat="42.404377" lon="-8.225352">
        <ele>366.055</ele>
        <time>2018-07-21T00:54:55Z</time>
      </trkpt>
      <trkpt lat="42.404432" lon="-8.225147">
        <ele>367.242</ele>
        <time>2018-07-21T00:55:15Z</time>
      </trkpt>
      <trkpt lat="42.404286" lon="-8.224942">
        <ele>366.527</ele>
        <time>2018-07-21T00:55:35Z</time>
      </trkpt>
      <trkpt lat="42.403829" lon="-8.224812">
        <ele>360.917</ele>
        <time>2018-07-21T00:55:55Z</time>
      </trkpt>
      <trkpt lat="42.403436" lon="-8.224677">
        <ele>357.262</ele>
        <time>2018-07-21T00:56:15Z</time>
      </trkpt>
      <trkpt lat="42.403016" lon="-8.224554">
        <ele>355.138</ele>
        <time>2018-07-21T00:56:35Z</time>
      </trkpt>
      <trkpt lat="42.402673" lon="-8.224284">
        <ele>349.718</ele>
        <time>2018-07-21T00:56:55Z</time>
      </trkpt>
      <trkpt lat="42.402679" lon="-8.224260">
        <ele>350.198</ele>
        <time>2018-07-21T00:57:15Z</time>
      </trkpt>
      <trkpt lat="42.402643" lon="-8.223949">
        <ele>352.117</ele>
        <time>2018-07-21T00:57:35Z</time>
      </trkpt>
      <trkpt lat="42.402652" lon="-8.223923">
        <ele>352.508</ele>
        <time>2018-07-21T00:57:55Z</time>
      </trkpt>
      <trkpt lat="42.402652" lon="-8.223918">
        <ele>352.643</ele>
        <time>2018-07-21T00:58:15Z</time>
      </trkpt>
      <trkpt lat="42.402657" lon="-8.223532">
        <ele>357.597</ele>
        <time>2018-07-21T00:58:35Z</time>
      </trkpt>
      <trkpt lat="42.402657" lon="-8.223515">
        <ele>357.878</ele>
        <time>2018-07-21T00:58:55Z</time>
      </trkpt>
      <trkpt lat="42.402463" lon="-8.222965">
        <ele>361.255</ele>
        <time>2018-07-21T00:59:15Z</time>
      </trkpt>
      <trkpt lat="42.402458" lon="-8.222952">
        <ele>361.290</ele>
        <time>2018-07-21T00:59:35Z</time>
      </trkpt>
      <trkpt lat="42.402341" lon="-8.222696">
        <ele>361.310</ele>
        <time>2018-07-21T00:59:55Z</time>
      </trkpt>
      <trkpt lat="42.402013" lon="-8.222112">
        <ele>356.155</ele>
        <time>2018-07-21T01:00:15Z</time>
      </trkpt>
      <trkpt lat="42.401836" lon="-8.221931">
        <ele>351.021</ele>
        <time>2018-07-21T01:00:35Z</time>
      </trkpt>
      <trkpt lat="42.401886" lon="-8.221609">
        <ele>351.138</ele>
        <time>2018-07-21T01:00:55Z</time>
      </trkpt>
      <trkpt lat="42.401886" lon="-8.221594">
        <ele>350.970</ele>
        <time>2018-07-21T01:01:15Z</time>
      </trkpt>
      <trkpt lat="42.401895" lon="-8.221572">
        <ele>351.017</ele>
        <time>2018-07-21T01:01:35Z</time>
      </trkpt>
      <trkpt lat="42.402006" lon="-8.221085">
        <ele>353.008</ele>
        <time>2018-07-21T01:01:55Z</time>
      </trkpt>
      <trkpt lat="42.402017" lon="-8.221066">
        <ele>353.585</ele>
        <time>2018-07-21T01:02:15Z</time>
      </trkpt>
      <trkpt lat="42.402018" lon="-8.221056">
        <ele>353.599</ele>
        <time>2018-07-21T01:02:35Z</time>
      </trkpt>
      <trkpt lat="42.402108" lon="-8.220624">
        <ele>353.880</ele>
        <time>2018-07-21T01:02:55Z</time>
      </trkpt>
      <trkpt lat="42.402090" lon="-8.220285">
        <ele>350.287</ele>
        <time>2018-07-21T01:03:15Z</time>
      </trkpt>
      <trkpt lat="42.402036" lon="-8.219683">
        <ele>344.952</ele>
        <time>2018-07-21T01:03:35Z</time>
      </trkpt>
      <trkpt lat="42.402061" lon="-8.219514">
        <ele>344.952</ele>
        <time>2018-07-21T01:03:55Z</time>
      </trkpt>
      <trkpt lat="42.401972" lon="-8.219556">
        <ele>343.567</ele>
        <time>2018-07-21T01:04:15Z</time>
      </trkpt>
      <trkpt lat="42.401932" lon="-8.219812">
        <ele>342.823</ele>
        <time>2018-07-21T01:04:35Z</time>
      </trkpt>
      <trkpt lat="42.401870" lon="-8.220023">
        <ele>340.492</ele>
        <time>2018-07-21T01:04:55Z</time>
      </trkpt>
      <trkpt lat="42.401833" lon="-8.220334">
        <ele>339.973</ele>
        <time>2018-07-21T01:05:15Z</time>
      </trkpt>
      <trkpt lat="42.401780" lon="-8.220639">
        <ele>339.320</ele>
        <time>2018-07-21T01:05:35Z</time>
      </trkpt>
      <trkpt lat="42.401725" lon="-8.220998">
        <ele>339.508</ele>
        <time>2018-07-21T01:05:55Z</time>
      </trkpt>
      <trkpt lat="42.401627" lon="-8.221005">
        <ele>334.551</ele>
        <time>2018-07-21T01:06:15Z</time>
      </trkpt>
      <trkpt lat="42.401599" lon="-8.220711">
        <ele>329.635</ele>
        <time>2018-07-21T01:06:35Z</time>
      </trkpt>
      <trkpt lat="42.401553" lon="-8.220370">
        <ele>324.946</ele>
        <time>2018-07-21T01:06:55Z</time>
      </trkpt>
      <trkpt lat="42.401550" lon="-8.220356">
        <ele>324.763</ele>
        <time>2018-07-21T01:07:15Z</time>
      </trkpt>
      <trkpt lat="42.401483" lon="-8.220110">
        <ele>322.248</ele>
        <time>2018-07-21T01:07:35Z</time>
      </trkpt>
      <trkpt lat="42.401480" lon="-8.220095">
        <ele>322.158</ele>
        <time>2018-07-21T01:07:55Z</time>
      </trkpt>
      <trkpt lat="42.401385" lon="-8.219886">
        <ele>318.993</ele>
        <time>2018-07-21T01:08:15Z</time>
      </trkpt>
      <trkpt lat="42.401382" lon="-8.219871">
        <ele>318.899</ele>
        <time>2018-07-21T01:08:35Z</time>
      </trkpt>
      <trkpt lat="42.401280" lon="-8.219690">
        <ele>316.062</ele>
        <time>2018-07-21T01:08:55Z</time>
      </trkpt>
      <trkpt lat="42.401040" lon="-8.219442">
        <ele>309.783</ele>
        <time>2018-07-21T01:09:15Z</time>
      </trkpt>
      <trkpt lat="42.401029" lon="-8.219415">
        <ele>309.311</ele>
        <time>2018-07-21T01:09:35Z</time>
      </trkpt>
      <trkpt lat="42.400829" lon="-8.219293">
        <ele>304.008</ele>
        <time>2018-07-21T01:09:55Z</time>
      </trkpt>
      <trkpt lat="42.400700" lon="-8.219170">
        <ele>303.158</ele>
        <time>2018-07-21T01:10:15Z</time>
      </trkpt>
      <trkpt lat="42.400358" lon="-8.218958">
        <ele>298.992</ele>
        <time>2018-07-21T01:10:35Z</time>
      </trkpt>
      <trkpt lat="42.400072" lon="-8.218721">
        <ele>295.653</ele>
        <time>2018-07-21T01:10:55Z</time>
      </trkpt>
      <trkpt lat="42.399866" lon="-8.218637">
        <ele>294.620</ele>
        <time>2018-07-21T01:11:15Z</time>
      </trkpt>
      <trkpt lat="42.399854" lon="-8.218609">
        <ele>294.495</ele>
        <time>2018-07-21T01:11:35Z</time>
      </trkpt>
      <trkpt lat="42.399839" lon="-8.218575">
        <ele>293.965</ele>
        <time>2018-07-21T01:11:55Z</time>
      </trkpt>
      <trkpt lat="42.399800" lon="-8.218434">
        <ele>291.850</ele>
        <time>2018-07-21T01:12:15Z</time>
      </trkpt>
      <trkpt lat="42.399532" lon="-8.217970">
        <ele>291.616</ele>
        <time>2018-07-21T01:12:35Z</time>
      </trkpt>
      <trkpt lat="42.399382" lon="-8.217424">
        <ele>291.958</ele>
        <time>2018-07-21T01:12:55Z</time>
      </trkpt>
      <trkpt lat="42.399324" lon="-8.216456">
        <ele>285.552</ele>
        <time>2018-07-21T01:13:15Z</time>
      </trkpt>
      <trkpt lat="42.399354" lon="-8.215473">
        <ele>272.517</ele>
        <time>2018-07-21T01:13:35Z</time>
      </trkpt>
      <trkpt lat="42.399280" lon="-8.215418">
        <ele>274.808</ele>
        <time>2018-07-21T01:13:55Z</time>
      </trkpt>
      <trkpt lat="42.399255" lon="-8.215307">
        <ele>274.557</ele>
        <time>2018-07-21T01:14:15Z</time>
      </trkpt>
      <trkpt lat="42.399044" lon="-8.214575">
        <ele>266.311</ele>
        <time>2018-07-21T01:14:35Z</time>
      </trkpt>
      <trkpt lat="42.398790" lon="-8.214449">
        <ele>262.762</ele>
        <time>2018-07-21T01:14:55Z</time>
      </trkpt>
      <trkpt lat="42.398399" lon="-8.214719">
        <ele>261.839</ele>
        <time>2018-07-21T01:15:15Z</time>
      </trkpt>
      <trkpt lat="42.397972" lon="-8.215149">
        <ele>254.364</ele>
        <time>2018-07-21T01:15:35Z</time>
      </trkpt>
      <trkpt lat="42.397805" lon="-8.215351">
        <ele>251.174</ele>
        <time>2018-07-21T01:15:55Z</time>
      </trkpt>
      <trkpt lat="42.397752" lon="-8.215502">
        <ele>250.439</ele>
        <time>2018-07-21T01:16:15Z</time>
      </trkpt>
      <trkpt lat="42.397705" lon="-8.215754">
        <ele>250.515</ele>
        <time>2018-07-21T01:16:35Z</time>
      </trkpt>
      <trkpt lat="42.397674" lon="-8.216137">
        <ele>249.785</ele>
        <time>2018-07-21T01:16:55Z</time>
      </trkpt>
      <trkpt lat="42.397621" lon="-8.216429">
        <ele>248.489</ele>
        <time>2018-07-21T01:17:15Z</time>
      </trkpt>
      <trkpt lat="42.397559" lon="-8.216801">
        <ele>249.317</ele>
        <time>2018-07-21T01:17:35Z</time>
      </trkpt>
      <trkpt lat="42.397515" lon="-8.216937">
        <ele>249.308</ele>
        <time>2018-07-21T01:17:55Z</time>
      </trkpt>
      <trkpt lat="42.397412" lon="-8.216983">
        <ele>248.610</ele>
        <time>2018-07-21T01:18:15Z</time>
      </trkpt>
      <trkpt lat="42.397275" lon="-8.216985">
        <ele>248.074</ele>
        <time>2018-07-21T01:18:35Z</time>
      </trkpt>
      <trkpt lat="42.397171" lon="-8.216973">
        <ele>249.645</ele>
        <time>2018-07-21T01:18:55Z</time>
      </trkpt>
      <trkpt lat="42.396767" lon="-8.217016">
        <ele>265.542</ele>
        <time>2018-07-21T01:19:15Z</time>
      </trkpt>
      <trkpt lat="42.396560" lon="-8.216660">
        <ele>279.527</ele>
        <time>2018-07-21T01:19:35Z</time>
      </trkpt>
      <trkpt lat="42.396172" lon="-8.216452">
        <ele>303.957</ele>
        <time>2018-07-21T01:19:55Z</time>
      </trkpt>
      <trkpt lat="42.395874" lon="-8.216184">
        <ele>325.592</ele>
        <time>2018-07-21T01:20:15Z</time>
      </trkpt>
      <trkpt lat="42.395771" lon="-8.215849">
        <ele>329.828</ele>
        <time>2018-07-21T01:20:35Z</time>
      </trkpt>
      <trkpt lat="42.395687" lon="-8.215588">
        <ele>331.896</ele>
        <time>2018-07-21T01:20:55Z</time>
      </trkpt>
      <trkpt lat="42.395660" lon="-8.215579">
        <ele>332.931</ele>
        <time>2018-07-21T01:21:15Z</time>
      </trkpt>
      <trkpt lat="42.395615" lon="-8.215563">
        <ele>334.624</ele>
        <time>2018-07-21T01:21:35Z</time>
      </trkpt>
      <trkpt lat="42.395799" lon="-8.214737">
        <ele>323.808</ele>
        <time>2018-07-21T01:21:55Z</time>
      </trkpt>
      <trkpt lat="42.395859" lon="-8.214392">
        <ele>324.511</ele>
        <time>2018-07-21T01:22:15Z</time>
      </trkpt>
      <trkpt lat="42.396111" lon="-8.213890">
        <ele>326.075</ele>
        <time>2018-07-21T01:22:35Z</time>
      </trkpt>
      <trkpt lat="42.396306" lon="-8.213555">
        <ele>322.116</ele>
        <time>2018-07-21T01:22:55Z</time>
      </trkpt>
      <trkpt lat="42.396132" lon="-8.213394">
        <ele>333.143</ele>
        <time>2018-07-21T01:23:15Z</time>
      </trkpt>
      <trkpt lat="42.395692" lon="-8.213535">
        <ele>353.518</ele>
        <time>2018-07-21T01:23:35Z</time>
      </trkpt>
      <trkpt lat="42.395678" lon="-8.213544">
        <ele>353.978</ele>
        <time>2018-07-21T01:23:55Z</time>
      </trkpt>
      <trkpt lat="42.395290" lon="-8.213777">
        <ele>363.683</ele>
        <time>2018-07-21T01:24:15Z</time>
      </trkpt>
      <trkpt lat="42.394983" lon="-8.213970">
        <ele>368.329</ele>
        <time>2018-07-21T01:24:35Z</time>
      </trkpt>
      <trkpt lat="42.394710" lon="-8.214041">
        <ele>371.511</ele>
        <time>2018-07-21T01:24:55Z</time>
      </trkpt>
      <trkpt lat="42.394593" lon="-8.213980">
        <ele>371.821</ele>
        <time>2018-07-21T01:25:15Z</time>
      </trkpt>
      <trkpt lat="42.394679" lon="-8.213823">
        <ele>371.703</ele>
        <time>2018-07-21T01:25:35Z</time>
      </trkpt>
      <trkpt lat="42.394693" lon="-8.213807">
        <ele>371.708</ele>
        <time>2018-07-21T01:25:55Z</time>
      </trkpt>
      <trkpt lat="42.394776" lon="-8.213629">
        <ele>371.063</ele>
        <time>2018-07-21T01:26:15Z</time>
      </trkpt>
      <trkpt lat="42.395002" lon="-8.213238">
        <ele>370.027</ele>
        <time>2018-07-21T01:26:35Z</time>
      </trkpt>
      <trkpt lat="42.395370" lon="-8.212453">
        <ele>371.658</ele>
        <time>2018-07-21T01:26:55Z</time>
      </trkpt>
      <trkpt lat="42.395371" lon="-8.212437">
        <ele>371.515</ele>
        <time>2018-07-21T01:27:15Z</time>
      </trkpt>
      <trkpt lat="42.395366" lon="-8.212413">
        <ele>371.420</ele>
        <time>2018-07-21T01:27:35Z</time>
      </trkpt>
      <trkpt lat="42.395914" lon="-8.211385">
        <ele>375.080</ele>
        <time>2018-07-21T01:27:55Z</time>
      </trkpt>
      <trkpt lat="42.395915" lon="-8.211351">
        <ele>374.985</ele>
        <time>2018-07-21T01:28:15Z</time>
      </trkpt>
      <trkpt lat="42.396497" lon="-8.210572">
        <ele>370.521</ele>
        <time>2018-07-21T01:28:35Z</time>
      </trkpt>
      <trkpt lat="42.396544" lon="-8.210524">
        <ele>370.517</ele>
        <time>2018-07-21T01:28:55Z</time>
      </trkpt>
      <trkpt lat="42.397062" lon="-8.210120">
        <ele>368.587</ele>
        <time>2018-07-21T01:29:15Z</time>
      </trkpt>
      <trkpt lat="42.397099" lon="-8.210083">
        <ele>368.215</ele>
        <time>2018-07-21T01:29:35Z</time>
      </trkpt>
      <trkpt lat="42.398024" lon="-8.209528">
        <ele>364.008</ele>
        <time>2018-07-21T01:29:55Z</time>
      </trkpt>
      <trkpt lat="42.398424" lon="-8.209406">
        <ele>364.233</ele>
        <time>2018-07-21T01:30:15Z</time>
      </trkpt>
      <trkpt lat="42.398911" lon="-8.209063">
        <ele>365.787</ele>
        <time>2018-07-21T01:30:35Z</time>
      </trkpt>
      <trkpt lat="42.399352" lon="-8.208786">
        <ele>368.428</ele>
        <time>2018-07-21T01:30:55Z</time>
      </trkpt>
      <trkpt lat="42.399859" lon="-8.208630">
        <ele>367.795</ele>
        <time>2018-07-21T01:31:15Z</time>
      </trkpt>
      <trkpt lat="42.400390" lon="-8.208395">
        <ele>363.150</ele>
        <time>2018-07-21T01:31:35Z</time>
      </trkpt>
      <trkpt lat="42.400911" lon="-8.208358">
        <ele>363.390</ele>
        <time>2018-07-21T01:31:55Z</time>
      </trkpt>
      <trkpt lat="42.401394" lon="-8.208094">
        <ele>361.225</ele>
        <time>2018-07-21T01:32:15Z</time>
      </trkpt>
      <trkpt lat="42.401727" lon="-8.207771">
        <ele>356.031</ele>
        <time>2018-07-21T01:32:35Z</time>
      </trkpt>
      <trkpt lat="42.402228" lon="-8.207216">
        <ele>348.072</ele>
        <time>2018-07-21T01:32:55Z</time>
      </trkpt>
      <trkpt lat="42.402518" lon="-8.206807">
        <ele>348.513</ele>
        <time>2018-07-21T01:33:15Z</time>
      </trkpt>
      <trkpt lat="42.403090" lon="-8.206279">
        <ele>346.814</ele>
        <time>2018-07-21T01:33:35Z</time>
      </trkpt>
      <trkpt lat="42.403352" lon="-8.206001">
        <ele>348.808</ele>
        <time>2018-07-21T01:33:55Z</time>
      </trkpt>
      <trkpt lat="42.403498" lon="-8.205359">
        <ele>351.129</ele>
        <time>2018-07-21T01:34:15Z</time>
      </trkpt>
      <trkpt lat="42.403691" lon="-8.204699">
        <ele>352.173</ele>
        <time>2018-07-21T01:34:35Z</time>
      </trkpt>
      <trkpt lat="42.403835" lon="-8.204560">
        <ele>353.964</ele>
        <time>2018-07-21T01:34:55Z</time>
      </trkpt>
      <trkpt lat="42.404092" lon="-8.204368">
        <ele>356.091</ele>
        <time>2018-07-21T01:35:15Z</time>
      </trkpt>
      <trkpt lat="42.404181" lon="-8.204341">
        <ele>357.966</ele>
        <time>2018-07-21T01:35:35Z</time>
      </trkpt>
      <trkpt lat="42.404294" lon="-8.204031">
        <ele>356.246</ele>
        <time>2018-07-21T01:35:55Z</time>
      </trkpt>
      <trkpt lat="42.404389" lon="-8.203705">
        <ele>356.971</ele>
        <time>2018-07-21T01:36:15Z</time>
      </trkpt>
      <trkpt lat="42.404413" lon="-8.203663">
        <ele>357.827</ele>
        <time>2018-07-21T01:36:35Z</time>
      </trkpt>
      <trkpt lat="42.404530" lon="-8.203370">
        <ele>361.634</ele>
        <time>2018-07-21T01:36:55Z</time>
      </trkpt>
      <trkpt lat="42.404689" lon="-8.203063">
        <ele>364.955</ele>
        <time>2018-07-21T01:37:15Z</time>
      </trkpt>
      <trkpt lat="42.404900" lon="-8.202635">
        <ele>366.910</ele>
        <time>2018-07-21T01:37:35Z</time>
      </trkpt>
      <trkpt lat="42.405122" lon="-8.202227">
        <ele>364.308</ele>
        <time>2018-07-21T01:37:55Z</time>
      </trkpt>
      <trkpt lat="42.405337" lon="-8.202172">
        <ele>365.415</ele>
        <time>2018-07-21T01:38:15Z</time>
      </trkpt>
      <trkpt lat="42.405382" lon="-8.202463">
        <ele>373.459</ele>
        <time>2018-07-21T01:38:35Z</time>
      </trkpt>
      <trkpt lat="42.405493" lon="-8.202794">
        <ele>382.780</ele>
        <time>2018-07-21T01:38:55Z</time>
      </trkpt>
      <trkpt lat="42.406001" lon="-8.202541">
        <ele>377.267</ele>
        <time>2018-07-21T01:39:15Z</time>
      </trkpt>
      <trkpt lat="42.406133" lon="-8.202624">
        <ele>380.192</ele>
        <time>2018-07-21T01:39:35Z</time>
      </trkpt>
      <trkpt lat="42.406411" lon="-8.202232">
        <ele>380.722</ele>
        <time>2018-07-21T01:39:55Z</time>
      </trkpt>
      <trkpt lat="42.406630" lon="-8.201809">
        <ele>381.487</ele>
        <time>2018-07-21T01:40:15Z</time>
      </trkpt>
      <trkpt lat="42.406794" lon="-8.201665">
        <ele>383.733</ele>
        <time>2018-07-21T01:40:35Z</time>
      </trkpt>
      <trkpt lat="42.407044" lon="-8.201471">
        <ele>386.137</ele>
        <time>2018-07-21T01:40:55Z</time>
      </trkpt>
      <trkpt lat="42.407307" lon="-8.201502">
        <ele>391.649</ele>
        <time>2018-07-21T01:41:15Z</time>
      </trkpt>
      <trkpt lat="42.407509" lon="-8.201282">
        <ele>392.413</ele>
        <time>2018-07-21T01:41:35Z</time>
      </trkpt>
      <trkpt lat="42.407615" lon="-8.201049">
        <ele>393.408</ele>
        <time>2018-07-21T01:41:55Z</time>
      </trkpt>
      <trkpt lat="42.407695" lon="-8.200875">
        <ele>394.645</ele>
        <time>2018-07-21T01:42:15Z</time>
      </trkpt>
      <trkpt lat="42.407799" lon="-8.200872">
        <ele>396.559</ele>
        <time>2018-07-21T01:42:35Z</time>
      </trkpt>
      <trkpt lat="42.407812" lon="-8.200869">
        <ele>396.870</ele>
        <time>2018-07-21T01:42:55Z</time>
      </trkpt>
      <trkpt lat="42.407979" lon="-8.200784">
        <ele>399.587</ele>
        <time>2018-07-21T01:43:15Z</time>
      </trkpt>
      <trkpt lat="42.408079" lon="-8.200714">
        <ele>400.972</ele>
        <time>2018-07-21T01:43:35Z</time>
      </trkpt>
      <trkpt lat="42.408135" lon="-8.200461">
        <ele>401.692</ele>
        <time>2018-07-21T01:43:55Z</time>
      </trkpt>
      <trkpt lat="42.407936" lon="-8.200330">
        <ele>399.917</ele>
        <time>2018-07-21T01:44:15Z</time>
      </trkpt>
      <trkpt lat="42.407720" lon="-8.200042">
        <ele>401.313</ele>
        <time>2018-07-21T01:44:35Z</time>
      </trkpt>
      <trkpt lat="42.407611" lon="-8.199844">
        <ele>401.917</ele>
        <time>2018-07-21T01:44:55Z</time>
      </trkpt>
      <trkpt lat="42.407498" lon="-8.199608">
        <ele>401.087</ele>
        <time>2018-07-21T01:45:15Z</time>
      </trkpt>
      <trkpt lat="42.407608" lon="-8.199288">
        <ele>401.615</ele>
        <time>2018-07-21T01:45:35Z</time>
      </trkpt>
      <trkpt lat="42.407784" lon="-8.199119">
        <ele>403.708</ele>
        <time>2018-07-21T01:45:55Z</time>
      </trkpt>
      <trkpt lat="42.407993" lon="-8.198881">
        <ele>406.333</ele>
        <time>2018-07-21T01:46:15Z</time>
      </trkpt>
      <trkpt lat="42.408217" lon="-8.198578">
        <ele>408.157</ele>
        <time>2018-07-21T01:46:35Z</time>
      </trkpt>
      <trkpt lat="42.408439" lon="-8.198305">
        <ele>409.428</ele>
        <time>2018-07-21T01:46:55Z</time>
      </trkpt>
      <trkpt lat="42.408468" lon="-8.198275">
        <ele>409.695</ele>
        <time>2018-07-21T01:47:15Z</time>
      </trkpt>
      <trkpt lat="42.408678" lon="-8.198084">
        <ele>410.480</ele>
        <time>2018-07-21T01:47:35Z</time>
      </trkpt>
      <trkpt lat="42.408948" lon="-8.198017">
        <ele>412.480</ele>
        <time>2018-07-21T01:47:55Z</time>
      </trkpt>
      <trkpt lat="42.409109" lon="-8.198089">
        <ele>416.775</ele>
        <time>2018-07-21T01:48:15Z</time>
      </trkpt>
      <trkpt lat="42.409260" lon="-8.198006">
        <ele>416.441</ele>
        <time>2018-07-21T01:48:35Z</time>
      </trkpt>
      <trkpt lat="42.409484" lon="-8.198047">
        <ele>417.688</ele>
        <time>2018-07-21T01:48:55Z</time>
      </trkpt>
      <trkpt lat="42.409724" lon="-8.198140">
        <ele>417.524</ele>
        <time>2018-07-21T01:49:15Z</time>
      </trkpt>
      <trkpt lat="42.410044" lon="-8.198082">
        <ele>418.726</ele>
        <time>2018-07-21T01:49:35Z</time>
      </trkpt>
      <trkpt lat="42.410448" lon="-8.197927">
        <ele>418.908</ele>
        <time>2018-07-21T01:49:55Z</time>
      </trkpt>
      <trkpt lat="42.410729" lon="-8.197912">
        <ele>421.060</ele>
        <time>2018-07-21T01:50:15Z</time>
      </trkpt>
      <trkpt lat="42.411008" lon="-8.197984">
        <ele>425.664</ele>
        <time>2018-07-21T01:50:35Z</time>
      </trkpt>
      <trkpt lat="42.411322" lon="-8.197837">
        <ele>426.165</ele>
        <time>2018-07-21T01:50:55Z</time>
      </trkpt>
      <trkpt lat="42.411630" lon="-8.197559">
        <ele>426.622</ele>
        <time>2018-07-21T01:51:15Z</time>
      </trkpt>
      <trkpt lat="42.411524" lon="-8.197583">
        <ele>425.567</ele>
        <time>2018-07-21T01:51:35Z</time>
      </trkpt>
      <trkpt lat="42.411580" lon="-8.197455">
        <ele>425.597</ele>
        <time>2018-07-21T01:51:55Z</time>
      </trkpt>
      <trkpt lat="42.411454" lon="-8.197344">
        <ele>425.082</ele>
        <time>2018-07-21T01:52:15Z</time>
      </trkpt>
      <trkpt lat="42.411437" lon="-8.197331">
        <ele>424.898</ele>
        <time>2018-07-21T01:52:35Z</time>
      </trkpt>
      <trkpt lat="42.411210" lon="-8.197244">
        <ele>425.432</ele>
        <time>2018-07-21T01:52:55Z</time>
      </trkpt>
      <trkpt lat="42.410915" lon="-8.197088">
        <ele>426.292</ele>
        <time>2018-07-21T01:53:15Z</time>
      </trkpt>
      <trkpt lat="42.410913" lon="-8.197083">
        <ele>426.311</ele>
        <time>2018-07-21T01:53:35Z</time>
      </trkpt>
      <trkpt lat="42.410598" lon="-8.196842">
        <ele>426.708</ele>
        <time>2018-07-21T01:53:55Z</time>
      </trkpt>
      <trkpt lat="42.410393" lon="-8.196566">
        <ele>432.345</ele>
        <time>2018-07-21T01:54:15Z</time>
      </trkpt>
      <trkpt lat="42.410392" lon="-8.196551">
        <ele>432.629</ele>
        <time>2018-07-21T01:54:35Z</time>
      </trkpt>
      <trkpt lat="42.410288" lon="-8.196338">
        <ele>434.580</ele>
        <time>2018-07-21T01:54:55Z</time>
      </trkpt>
      <trkpt lat="42.410286" lon="-8.196333">
        <ele>434.527</ele>
        <time>2018-07-21T01:55:15Z</time>
      </trkpt>
      <trkpt lat="42.410300" lon="-8.196166">
        <ele>436.192</ele>
        <time>2018-07-21T01:55:35Z</time>
      </trkpt>
      <trkpt lat="42.410381" lon="-8.195974">
        <ele>437.932</ele>
        <time>2018-07-21T01:55:55Z</time>
      </trkpt>
      <trkpt lat="42.410487" lon="-8.195674">
        <ele>439.157</ele>
        <time>2018-07-21T01:56:15Z</time>
      </trkpt>
      <trkpt lat="42.410578" lon="-8.195281">
        <ele>440.743</ele>
        <time>2018-07-21T01:56:35Z</time>
      </trkpt>
      <trkpt lat="42.410682" lon="-8.194918">
        <ele>444.828</ele>
        <time>2018-07-21T01:56:55Z</time>
      </trkpt>
      <trkpt lat="42.410822" lon="-8.194591">
        <ele>450.589</ele>
        <time>2018-07-21T01:57:15Z</time>
      </trkpt>
      <trkpt lat="42.410954" lon="-8.194455">
        <ele>454.017</ele>
        <time>2018-07-21T01:57:35Z</time>
      </trkpt>
      <trkpt lat="42.411047" lon="-8.194177">
        <ele>456.208</ele>
        <time>2018-07-21T01:57:55Z</time>
      </trkpt>
      <trkpt lat="42.411052" lon="-8.194156">
        <ele>456.374</ele>
        <time>2018-07-21T01:58:15Z</time>
      </trkpt>
      <trkpt lat="42.411023" lon="-8.193937">
        <ele>456.698</ele>
        <time>2018-07-21T01:58:35Z</time>
      </trkpt>
      <trkpt lat="42.411018" lon="-8.193917">
        <ele>456.599</ele>
        <time>2018-07-21T01:58:55Z</time>
      </trkpt>
      <trkpt lat="42.410904" lon="-8.193626">
        <ele>458.076</ele>
        <time>2018-07-21T01:59:15Z</time>
      </trkpt>
      <trkpt lat="42.410901" lon="-8.193616">
        <ele>458.151</ele>
        <time>2018-07-21T01:59:35Z</time>
      </trkpt>
      <trkpt lat="42.410802" lon="-8.193407">
        <ele>460.911</ele>
        <time>2018-07-21T01:59:55Z</time>
      </trkpt>
      <trkpt lat="42.410793" lon="-8.193396">
        <ele>461.096</ele>
        <time>2018-07-21T02:00:15Z</time>
      </trkpt>
      <trkpt lat="42.410653" lon="-8.193327">
        <ele>460.552</ele>
        <time>2018-07-21T02:00:35Z</time>
      </trkpt>
      <trkpt lat="42.410655" lon="-8.193319">
        <ele>460.759</ele>
        <time>2018-07-21T02:00:55Z</time>
      </trkpt>
      <trkpt lat="42.410333" lon="-8.193147">
        <ele>461.303</ele>
        <time>2018-07-21T02:01:15Z</time>
      </trkpt>
      <trkpt lat="42.409945" lon="-8.192905">
        <ele>461.923</ele>
        <time>2018-07-21T02:01:35Z</time>
      </trkpt>
      <trkpt lat="42.409731" lon="-8.192683">
        <ele>463.108</ele>
        <time>2018-07-21T02:01:55Z</time>
      </trkpt>
      <trkpt lat="42.409545" lon="-8.192391">
        <ele>463.987</ele>
        <time>2018-07-21T02:02:15Z</time>
      </trkpt>
      <trkpt lat="42.409444" lon="-8.192096">
        <ele>465.411</ele>
        <time>2018-07-21T02:02:35Z</time>
      </trkpt>
      <trkpt lat="42.409402" lon="-8.191899">
        <ele>467.252</ele>
        <time>2018-07-21T02:02:55Z</time>
      </trkpt>
      <trkpt lat="42.409431" lon="-8.191717">
        <ele>468.669</ele>
        <time>2018-07-21T02:03:15Z</time>
      </trkpt>
      <trkpt lat="42.409358" lon="-8.191668">
        <ele>468.774</ele>
        <time>2018-07-21T02:03:35Z</time>
      </trkpt>
      <trkpt lat="42.409248" lon="-8.191637">
        <ele>468.354</ele>
        <time>2018-07-21T02:03:55Z</time>
      </trkpt>
      <trkpt lat="42.409158" lon="-8.191670">
        <ele>468.019</ele>
        <time>2018-07-21T02:04:15Z</time>
      </trkpt>
      <trkpt lat="42.409099" lon="-8.191656">
        <ele>468.065</ele>
        <time>2018-07-21T02:04:35Z</time>
      </trkpt>
      <trkpt lat="42.409047" lon="-8.191627">
        <ele>468.038</ele>
        <time>2018-07-21T02:04:55Z</time>
      </trkpt>
      <trkpt lat="42.408981" lon="-8.191572">
        <ele>468.070</ele>
        <time>2018-07-21T02:05:15Z</time>
      </trkpt>
      <trkpt lat="42.408909" lon="-8.191527">
        <ele>468.017</ele>
        <time>2018-07-21T02:05:35Z</time>
      </trkpt>
      <trkpt lat="42.408842" lon="-8.191514">
        <ele>467.708</ele>
        <time>2018-07-21T02:05:55Z</time>
      </trkpt>
      <trkpt lat="42.408817" lon="-8.191581">
        <ele>467.745</ele>
        <time>2018-07-21T02:06:15Z</time>
      </trkpt>
      <trkpt lat="42.408793" lon="-8.191672">
        <ele>467.689</ele>
        <time>2018-07-21T02:06:35Z</time>
      </trkpt>
      <trkpt lat="42.408737" lon="-8.191769">
        <ele>466.990</ele>
        <time>2018-07-21T02:06:55Z</time>
      </trkpt>
      <trkpt lat="42.408642" lon="-8.191875">
        <ele>465.747</ele>
        <time>2018-07-21T02:07:15Z</time>
      </trkpt>
      <trkpt lat="42.408547" lon="-8.191983">
        <ele>464.412</ele>
        <time>2018-07-21T02:07:35Z</time>
      </trkpt>
      <trkpt lat="42.408507" lon="-8.192058">
        <ele>463.472</ele>
        <time>2018-07-21T02:07:55Z</time>
      </trkpt>
      <trkpt lat="42.408403" lon="-8.192198">
        <ele>461.557</ele>
        <time>2018-07-21T02:08:15Z</time>
      </trkpt>
      <trkpt lat="42.408362" lon="-8.192280">
        <ele>460.593</ele>
        <time>2018-07-21T02:08:35Z</time>
      </trkpt>
      <trkpt lat="42.408348" lon="-8.192400">
        <ele>459.174</ele>
        <time>2018-07-21T02:08:55Z</time>
      </trkpt>
      <trkpt lat="42.408316" lon="-8.192561">
        <ele>456.956</ele>
        <time>2018-07-21T02:09:15Z</time>
      </trkpt>
      <trkpt lat="42.408294" lon="-8.192708">
        <ele>454.521</ele>
        <time>2018-07-21T02:09:35Z</time>
      </trkpt>
      <trkpt lat="42.408251" lon="-8.192843">
        <ele>452.308</ele>
        <time>2018-07-21T02:09:55Z</time>
      </trkpt>
      <trkpt lat="42.408216" lon="-8.192971">
        <ele>450.559</ele>
        <time>2018-07-21T02:10:15Z</time>
      </trkpt>
      <trkpt lat="42.408147" lon="-8.193126">
        <ele>448.553</ele>
        <time>2018-07-21T02:10:35Z</time>
      </trkpt>
      <trkpt lat="42.408104" lon="-8.193186">
        <ele>447.754</ele>
        <time>2018-07-21T02:10:55Z</time>
      </trkpt>
      <trkpt lat="42.408030" lon="-8.193208">
        <ele>447.011</ele>
        <time>2018-07-21T02:11:15Z</time>
      </trkpt>
      <trkpt lat="42.407960" lon="-8.193174">
        <ele>446.566</ele>
        <time>2018-07-21T02:11:35Z</time>
      </trkpt>
      <trkpt lat="42.407876" lon="-8.193036">
        <ele>446.696</ele>
        <time>2018-07-21T02:11:55Z</time>
      </trkpt>
      <trkpt lat="42.407856" lon="-8.192901">
        <ele>447.271</ele>
        <time>2018-07-21T02:12:15Z</time>
      </trkpt>
      <trkpt lat="42.407763" lon="-8.192830">
        <ele>446.317</ele>
        <time>2018-07-21T02:12:35Z</time>
      </trkpt>
      <trkpt lat="42.407592" lon="-8.192785">
        <ele>442.934</ele>
        <time>2018-07-21T02:12:55Z</time>
      </trkpt>
      <trkpt lat="42.407420" lon="-8.192781">
        <ele>438.655</ele>
        <time>2018-07-21T02:13:15Z</time>
      </trkpt>
      <trkpt lat="42.407184" lon="-8.192853">
        <ele>431.110</ele>
        <time>2018-07-21T02:13:35Z</time>
      </trkpt>
      <trkpt lat="42.407176" lon="-8.192858">
        <ele>430.908</ele>
        <time>2018-07-21T02:13:55Z</time>
      </trkpt>
      <trkpt lat="42.406993" lon="-8.192933">
        <ele>426.935</ele>
        <time>2018-07-21T02:14:15Z</time>
      </trkpt>
      <trkpt lat="42.406749" lon="-8.192969">
        <ele>423.029</ele>
        <time>2018-07-21T02:14:35Z</time>
      </trkpt>
      <trkpt lat="42.406435" lon="-8.193101">
        <ele>415.750</ele>
        <time>2018-07-21T02:14:55Z</time>
      </trkpt>
      <trkpt lat="42.406018" lon="-8.193174">
        <ele>407.977</ele>
        <time>2018-07-21T02:15:15Z</time>
      </trkpt>
      <trkpt lat="42.405639" lon="-8.193316">
        <ele>400.822</ele>
        <time>2018-07-21T02:15:35Z</time>
      </trkpt>
      <trkpt lat="42.405211" lon="-8.193407">
        <ele>387.962</ele>
        <time>2018-07-21T02:15:55Z</time>
      </trkpt>
      <trkpt lat="42.405059" lon="-8.193348">
        <ele>383.747</ele>
        <time>2018-07-21T02:16:15Z</time>
      </trkpt>
      <trkpt lat="42.405111" lon="-8.193065">
        <ele>387.553</ele>
        <time>2018-07-21T02:16:35Z</time>
      </trkpt>
      <trkpt lat="42.405140" lon="-8.192807">
        <ele>389.972</ele>
        <time>2018-07-21T02:16:55Z</time>
      </trkpt>
      <trkpt lat="42.405070" lon="-8.192694">
        <ele>388.813</ele>
        <time>2018-07-21T02:17:15Z</time>
      </trkpt>
      <trkpt lat="42.404891" lon="-8.192756">
        <ele>384.314</ele>
        <time>2018-07-21T02:17:35Z</time>
      </trkpt>
      <trkpt lat="42.404668" lon="-8.192798">
        <ele>380.208</ele>
        <time>2018-07-21T02:17:55Z</time>
      </trkpt>
      <trkpt lat="42.404662" lon="-8.192801">
        <ele>380.169</ele>
        <time>2018-07-21T02:18:15Z</time>
      </trkpt>
      <trkpt lat="42.404490" lon="-8.192929">
        <ele>376.933</ele>
        <time>2018-07-21T02:18:35Z</time>
      </trkpt>
      <trkpt lat="42.404359" lon="-8.193074">
        <ele>374.684</ele>
        <time>2018-07-21T02:18:55Z</time>
      </trkpt>
      <trkpt lat="42.404134" lon="-8.193269">
        <ele>367.791</ele>
        <time>2018-07-21T02:19:15Z</time>
      </trkpt>
      <trkpt lat="42.403963" lon="-8.193593">
        <ele>353.396</ele>
        <time>2018-07-21T02:19:35Z</time>
      </trkpt>
      <trkpt lat="42.403949" lon="-8.193872">
        <ele>343.896</ele>
        <time>2018-07-21T02:19:55Z</time>
      </trkpt>
      <trkpt lat="42.404028" lon="-8.194007">
        <ele>341.891</ele>
        <time>2018-07-21T02:20:15Z</time>
      </trkpt>
      <trkpt lat="42.404158" lon="-8.194010">
        <ele>343.967</ele>
        <time>2018-07-21T02:20:35Z</time>
      </trkpt>
      <trkpt lat="42.404317" lon="-8.194091">
        <ele>345.148</ele>
        <time>2018-07-21T02:20:55Z</time>
      </trkpt>
      <trkpt lat="42.404471" lon="-8.194415">
        <ele>340.761</ele>
        <time>2018-07-21T02:21:15Z</time>
      </trkpt>
      <trkpt lat="42.404458" lon="-8.194600">
        <ele>337.317</ele>
        <time>2018-07-21T02:21:35Z</time>
      </trkpt>
      <trkpt lat="42.404184" lon="-8.194680">
        <ele>327.508</ele>
        <time>2018-07-21T02:21:55Z</time>
      </trkpt>
      <trkpt lat="42.403948" lon="-8.194872">
        <ele>318.946</ele>
        <time>2018-07-21T02:22:15Z</time>
      </trkpt>
      <trkpt lat="42.403907" lon="-8.194889">
        <ele>317.820</ele>
        <time>2018-07-21T02:22:35Z</time>
      </trkpt>
      <trkpt lat="42.403516" lon="-8.195125">
        <ele>308.341</ele>
        <time>2018-07-21T02:22:55Z</time>
      </trkpt>
      <trkpt lat="42.403267" lon="-8.195173">
        <ele>307.038</ele>
        <time>2018-07-21T02:23:15Z</time>
      </trkpt>
      <trkpt lat="42.403247" lon="-8.195181">
        <ele>306.893</ele>
        <time>2018-07-21T02:23:35Z</time>
      </trkpt>
      <trkpt lat="42.403006" lon="-8.195255">
        <ele>304.553</ele>
        <time>2018-07-21T02:23:55Z</time>
      </trkpt>
      <trkpt lat="42.402986" lon="-8.195263">
        <ele>304.228</ele>
        <time>2018-07-21T02:24:15Z</time>
      </trkpt>
      <trkpt lat="42.402745" lon="-8.195416">
        <ele>297.534</ele>
        <time>2018-07-21T02:24:35Z</time>
      </trkpt>
      <trkpt lat="42.402742" lon="-8.195426">
        <ele>297.192</ele>
        <time>2018-07-21T02:24:55Z</time>
      </trkpt>
      <trkpt lat="42.402583" lon="-8.195507">
        <ele>294.373</ele>
        <time>2018-07-21T02:25:15Z</time>
      </trkpt>
      <trkpt lat="42.402220" lon="-8.195625">
        <ele>288.920</ele>
        <time>2018-07-21T02:25:35Z</time>
      </trkpt>
      <trkpt lat="42.401884" lon="-8.195717">
        <ele>276.408</ele>
        <time>2018-07-21T02:25:55Z</time>
      </trkpt>
      <trkpt lat="42.401801" lon="-8.195557">
        <ele>275.291</ele>
        <time>2018-07-21T02:26:15Z</time>
      </trkpt>
      <trkpt lat="42.401665" lon="-8.195313">
        <ele>271.495</ele>
        <time>2018-07-21T02:26:35Z</time>
      </trkpt>
      <trkpt lat="42.401713" lon="-8.195077">
        <ele>275.096</ele>
        <time>2018-07-21T02:26:55Z</time>
      </trkpt>
      <trkpt lat="42.401790" lon="-8.194812">
        <ele>279.383</ele>
        <time>2018-07-21T02:27:15Z</time>
      </trkpt>
      <trkpt lat="42.401655" lon="-8.194597">
        <ele>274.088</ele>
        <time>2018-07-21T02:27:35Z</time>
      </trkpt>
      <trkpt lat="42.401469" lon="-8.193794">
        <ele>285.798</ele>
        <time>2018-07-21T02:27:55Z</time>
      </trkpt>
      <trkpt lat="42.401276" lon="-8.193181">
        <ele>299.943</ele>
        <time>2018-07-21T02:28:15Z</time>
      </trkpt>
      <trkpt lat="42.401154" lon="-8.192593">
        <ele>295.839</ele>
        <time>2018-07-21T02:28:35Z</time>
      </trkpt>
      <trkpt lat="42.401184" lon="-8.192062">
        <ele>287.643</ele>
        <time>2018-07-21T02:28:55Z</time>
      </trkpt>
      <trkpt lat="42.401206" lon="-8.191419">
        <ele>279.164</ele>
        <time>2018-07-21T02:29:15Z</time>
      </trkpt>
      <trkpt lat="42.401066" lon="-8.190541">
        <ele>270.810</ele>
        <time>2018-07-21T02:29:35Z</time>
      </trkpt>
      <trkpt lat="42.400887" lon="-8.190264">
        <ele>263.308</ele>
        <time>2018-07-21T02:29:55Z</time>
      </trkpt>
      <trkpt lat="42.400906" lon="-8.190097">
        <ele>264.416</ele>
        <time>2018-07-21T02:30:15Z</time>
      </trkpt>
      <trkpt lat="42.400906" lon="-8.189849">
        <ele>265.040</ele>
        <time>2018-07-21T02:30:35Z</time>
      </trkpt>
      <trkpt lat="42.400823" lon="-8.189661">
        <ele>260.741</ele>
        <time>2018-07-21T02:30:55Z</time>
      </trkpt>
      <trkpt lat="42.400733" lon="-8.189710">
        <ele>258.568</ele>
        <time>2018-07-21T02:31:15Z</time>
      </trkpt>
      <trkpt lat="42.400543" lon="-8.189938">
        <ele>249.983</ele>
        <time>2018-07-21T02:31:35Z</time>
      </trkpt>
      <trkpt lat="42.400438" lon="-8.190074">
        <ele>240.063</ele>
        <time>2018-07-21T02:31:55Z</time>
      </trkpt>
      <trkpt lat="42.400358" lon="-8.190171">
        <ele>230.718</ele>
        <time>2018-07-21T02:32:15Z</time>
      </trkpt>
      <trkpt lat="42.400303" lon="-8.190243">
        <ele>223.534</ele>
        <time>2018-07-21T02:32:35Z</time>
      </trkpt>
      <trkpt lat="42.400163" lon="-8.190342">
        <ele>215.854</ele>
        <time>2018-07-21T02:32:55Z</time>
      </trkpt>
      <trkpt lat="42.399939" lon="-8.190479">
        <ele>209.756</ele>
        <time>2018-07-21T02:33:15Z</time>
      </trkpt>
      <trkpt lat="42.399930" lon="-8.190482">
        <ele>209.911</ele>
        <time>2018-07-21T02:33:35Z</time>
      </trkpt>
      <trkpt lat="42.399716" lon="-8.190553">
        <ele>214.508</ele>
        <time>2018-07-21T02:33:55Z</time>
      </trkpt>
      <trkpt lat="42.399452" lon="-8.190556">
        <ele>232.547</ele>
        <time>2018-07-21T02:34:15Z</time>
      </trkpt>
      <trkpt lat="42.399395" lon="-8.190423">
        <ele>236.161</ele>
        <time>2018-07-21T02:34:35Z</time>
      </trkpt>
      <trkpt lat="42.399373" lon="-8.190426">
        <ele>236.952</ele>
        <time>2018-07-21T02:34:55Z</time>
      </trkpt>
      <trkpt lat="42.399146" lon="-8.190340">
        <ele>245.059</ele>
        <time>2018-07-21T02:35:15Z</time>
      </trkpt>
      <trkpt lat="42.398991" lon="-8.190236">
        <ele>249.334</ele>
        <time>2018-07-21T02:35:35Z</time>
      </trkpt>
      <trkpt lat="42.398986" lon="-8.190234">
        <ele>249.494</ele>
        <time>2018-07-21T02:35:55Z</time>
      </trkpt>
      <trkpt lat="42.398922" lon="-8.190163">
        <ele>251.629</ele>
        <time>2018-07-21T02:36:15Z</time>
      </trkpt>
      <trkpt lat="42.398830" lon="-8.190030">
        <ele>256.415</ele>
        <time>2018-07-21T02:36:35Z</time>
      </trkpt>
      <trkpt lat="42.398734" lon="-8.189899">
        <ele>262.747</ele>
        <time>2018-07-21T02:36:55Z</time>
      </trkpt>
      <trkpt lat="42.398733" lon="-8.189890">
        <ele>262.829</ele>
        <time>2018-07-21T02:37:15Z</time>
      </trkpt>
      <trkpt lat="42.398722" lon="-8.189725">
        <ele>265.621</ele>
        <time>2018-07-21T02:37:35Z</time>
      </trkpt>
      <trkpt lat="42.398723" lon="-8.189407">
        <ele>269.308</ele>
        <time>2018-07-21T02:37:55Z</time>
      </trkpt>
      <trkpt lat="42.398617" lon="-8.189304">
        <ele>275.256</ele>
        <time>2018-07-21T02:38:15Z</time>
      </trkpt>
      <trkpt lat="42.398551" lon="-8.188987">
        <ele>280.370</ele>
        <time>2018-07-21T02:38:35Z</time>
      </trkpt>
      <trkpt lat="42.398641" lon="-8.188706">
        <ele>275.421</ele>
        <time>2018-07-21T02:38:55Z</time>
      </trkpt>
      <trkpt lat="42.398735" lon="-8.188235">
        <ele>273.928</ele>
        <time>2018-07-21T02:39:15Z</time>
      </trkpt>
      <trkpt lat="42.398769" lon="-8.187883">
        <ele>278.053</ele>
        <time>2018-07-21T02:39:35Z</time>
      </trkpt>
      <trkpt lat="42.398835" lon="-8.187596">
        <ele>280.413</ele>
        <time>2018-07-21T02:39:55Z</time>
      </trkpt>
      <trkpt lat="42.398971" lon="-8.187367">
        <ele>275.518</ele>
        <time>2018-07-21T02:40:15Z</time>
      </trkpt>
      <trkpt lat="42.398991" lon="-8.187340">
        <ele>274.694</ele>
        <time>2018-07-21T02:40:35Z</time>
      </trkpt>
      <trkpt lat="42.399078" lon="-8.187134">
        <ele>274.094</ele>
        <time>2018-07-21T02:40:55Z</time>
      </trkpt>
      <trkpt lat="42.399091" lon="-8.186954">
        <ele>277.757</ele>
        <time>2018-07-21T02:41:15Z</time>
      </trkpt>
      <trkpt lat="42.399091" lon="-8.186947">
        <ele>277.822</ele>
        <time>2018-07-21T02:41:35Z</time>
      </trkpt>
      <trkpt lat="42.399101" lon="-8.186743">
        <ele>282.708</ele>
        <time>2018-07-21T02:41:55Z</time>
      </trkpt>
      <trkpt lat="42.399102" lon="-8.186734">
        <ele>282.991</ele>
        <time>2018-07-21T02:42:15Z</time>
      </trkpt>
      <trkpt lat="42.399163" lon="-8.186503">
        <ele>285.345</ele>
        <time>2018-07-21T02:42:35Z</time>
      </trkpt>
      <trkpt lat="42.399268" lon="-8.186311">
        <ele>282.316</ele>
        <time>2018-07-21T02:42:55Z</time>
      </trkpt>
      <trkpt lat="42.399264" lon="-8.185904">
        <ele>289.263</ele>
        <time>2018-07-21T02:43:15Z</time>
      </trkpt>
      <trkpt lat="42.399258" lon="-8.185673">
        <ele>290.138</ele>
        <time>2018-07-21T02:43:35Z</time>
      </trkpt>
      <trkpt lat="42.399269" lon="-8.185320">
        <ele>291.148</ele>
        <time>2018-07-21T02:43:55Z</time>
      </trkpt>
      <trkpt lat="42.399277" lon="-8.185304">
        <ele>290.943</ele>
        <time>2018-07-21T02:44:15Z</time>
      </trkpt>
      <trkpt lat="42.399329" lon="-8.185070">
        <ele>292.569</ele>
        <time>2018-07-21T02:44:35Z</time>
      </trkpt>
      <trkpt lat="42.399334" lon="-8.185060">
        <ele>292.634</ele>
        <time>2018-07-21T02:44:55Z</time>
      </trkpt>
      <trkpt lat="42.399384" lon="-8.184963">
        <ele>293.655</ele>
        <time>2018-07-21T02:45:15Z</time>
      </trkpt>
      <trkpt lat="42.399386" lon="-8.184961">
        <ele>293.610</ele>
        <time>2018-07-21T02:45:35Z</time>
      </trkpt>
      <trkpt lat="42.399471" lon="-8.184926">
        <ele>292.908</ele>
        <time>2018-07-21T02:45:55Z</time>
      </trkpt>
      <trkpt lat="42.399476" lon="-8.184924">
        <ele>292.955</ele>
        <time>2018-07-21T02:46:15Z</time>
      </trkpt>
      <trkpt lat="42.399561" lon="-8.184932">
        <ele>291.359</ele>
        <time>2018-07-21T02:46:35Z</time>
      </trkpt>
      <trkpt lat="42.399568" lon="-8.184931">
        <ele>291.230</ele>
        <time>2018-07-21T02:46:55Z</time>
      </trkpt>
      <trkpt lat="42.399585" lon="-8.184930">
        <ele>291.087</ele>
        <time>2018-07-21T02:47:15Z</time>
      </trkpt>
      <trkpt lat="42.399705" lon="-8.184867">
        <ele>290.642</ele>
        <time>2018-07-21T02:47:35Z</time>
      </trkpt>
      <trkpt lat="42.399711" lon="-8.184858">
        <ele>290.772</ele>
        <time>2018-07-21T02:47:55Z</time>
      </trkpt>
      <trkpt lat="42.399725" lon="-8.184831">
        <ele>291.217</ele>
        <time>2018-07-21T02:48:15Z</time>
      </trkpt>
      <trkpt lat="42.399822" lon="-8.184651">
        <ele>291.343</ele>
        <time>2018-07-21T02:48:35Z</time>
      </trkpt>
      <trkpt lat="42.399833" lon="-8.184636">
        <ele>291.021</ele>
        <time>2018-07-21T02:48:55Z</time>
      </trkpt>
      <trkpt lat="42.399833" lon="-8.184626">
        <ele>291.141</ele>
        <time>2018-07-21T02:49:15Z</time>
      </trkpt>
      <trkpt lat="42.399855" lon="-8.184425">
        <ele>291.705</ele>
        <time>2018-07-21T02:49:35Z</time>
      </trkpt>
      <trkpt lat="42.399859" lon="-8.184409">
        <ele>291.608</ele>
        <time>2018-07-21T02:49:55Z</time>
      </trkpt>
      <trkpt lat="42.399850" lon="-8.184395">
        <ele>291.934</ele>
        <time>2018-07-21T02:50:15Z</time>
      </trkpt>
      <trkpt lat="42.399840" lon="-8.184129">
        <ele>292.678</ele>
        <time>2018-07-21T02:50:35Z</time>
      </trkpt>
      <trkpt lat="42.399834" lon="-8.184122">
        <ele>292.959</ele>
        <time>2018-07-21T02:50:55Z</time>
      </trkpt>
      <trkpt lat="42.399723" lon="-8.184038">
        <ele>297.486</ele>
        <time>2018-07-21T02:51:15Z</time>
      </trkpt>
      <trkpt lat="42.399730" lon="-8.184012">
        <ele>297.461</ele>
        <time>2018-07-21T02:51:35Z</time>
      </trkpt>
      <trkpt lat="42.399711" lon="-8.183810">
        <ele>300.821</ele>
        <time>2018-07-21T02:51:55Z</time>
      </trkpt>
      <trkpt lat="42.399711" lon="-8.183789">
        <ele>301.196</ele>
        <time>2018-07-21T02:52:15Z</time>
      </trkpt>
      <trkpt lat="42.399709" lon="-8.183788">
        <ele>301.222</ele>
        <time>2018-07-21T02:52:35Z</time>
      </trkpt>
      <trkpt lat="42.399698" lon="-8.183708">
        <ele>303.037</ele>
        <time>2018-07-21T02:52:55Z</time>
      </trkpt>
      <trkpt lat="42.399697" lon="-8.183699">
        <ele>303.249</ele>
        <time>2018-07-21T02:53:15Z</time>
      </trkpt>
      <trkpt lat="42.399834" lon="-8.183451">
        <ele>306.413</ele>
        <time>2018-07-21T02:53:35Z</time>
      </trkpt>
      <trkpt lat="42.399849" lon="-8.183434">
        <ele>306.708</ele>
        <time>2018-07-21T02:53:55Z</time>
      </trkpt>
      <trkpt lat="42.399954" lon="-8.183357">
        <ele>307.155</ele>
        <time>2018-07-21T02:54:15Z</time>
      </trkpt>
      <trkpt lat="42.399967" lon="-8.183350">
        <ele>307.179</ele>
        <time>2018-07-21T02:54:35Z</time>
      </trkpt>
      <trkpt lat="42.399982" lon="-8.183340">
        <ele>307.120</ele>
        <time>2018-07-21T02:54:55Z</time>
      </trkpt>
      <trkpt lat="42.400268" lon="-8.183081">
        <ele>306.567</ele>
        <time>2018-07-21T02:55:15Z</time>
      </trkpt>
      <trkpt lat="42.400288" lon="-8.183058">
        <ele>306.572</ele>
        <time>2018-07-21T02:55:35Z</time>
      </trkpt>
      <trkpt lat="42.400426" lon="-8.182876">
        <ele>306.982</ele>
        <time>2018-07-21T02:55:55Z</time>
      </trkpt>
      <trkpt lat="42.400556" lon="-8.182699">
        <ele>307.597</ele>
        <time>2018-07-21T02:56:15Z</time>
      </trkpt>
      <trkpt lat="42.400692" lon="-8.182449">
        <ele>309.473</ele>
        <time>2018-07-21T02:56:35Z</time>
      </trkpt>
      <trkpt lat="42.400702" lon="-8.182438">
        <ele>309.396</ele>
        <time>2018-07-21T02:56:55Z</time>
      </trkpt>
      <trkpt lat="42.400850" lon="-8.182217">
        <ele>309.331</ele>
        <time>2018-07-21T02:57:15Z</time>
      </trkpt>
      <trkpt lat="42.400852" lon="-8.182215">
        <ele>309.324</ele>
        <time>2018-07-21T02:57:35Z</time>
      </trkpt>
      <trkpt lat="42.400870" lon="-8.182190">
        <ele>309.208</ele>
        <time>2018-07-21T02:57:55Z</time>
      </trkpt>
      <trkpt lat="42.401031" lon="-8.181953">
        <ele>309.461</ele>
        <time>2018-07-21T02:58:15Z</time>
      </trkpt>
      <trkpt lat="42.401040" lon="-8.181945">
        <ele>309.315</ele>
        <time>2018-07-21T02:58:35Z</time>
      </trkpt>
      <trkpt lat="42.401176" lon="-8.181634">
        <ele>313.466</ele>
        <time>2018-07-21T02:58:55Z</time>
      </trkpt>
      <trkpt lat="42.401238" lon="-8.181484">
        <ele>315.683</ele>
        <time>2018-07-21T02:59:15Z</time>
      </trkpt>
      <trkpt lat="42.401416" lon="-8.181167">
        <ele>314.568</ele>
        <time>2018-07-21T02:59:35Z</time>
      </trkpt>
      <trkpt lat="42.401416" lon="-8.181160">
        <ele>314.778</ele>
        <time>2018-07-21T02:59:55Z</time>
      </trkpt>
      <trkpt lat="42.401494" lon="-8.180949">
        <ele>313.353</ele>
        <time>2018-07-21T03:00:15Z</time>
      </trkpt>
      <trkpt lat="42.401486" lon="-8.180744">
        <ele>313.269</ele>
        <time>2018-07-21T03:00:35Z</time>
      </trkpt>
      <trkpt lat="42.401361" lon="-8.180633">
        <ele>318.893</ele>
        <time>2018-07-21T03:00:55Z</time>
      </trkpt>
      <trkpt lat="42.401233" lon="-8.180464">
        <ele>321.965</ele>
        <time>2018-07-21T03:01:15Z</time>
      </trkpt>
      <trkpt lat="42.400980" lon="-8.180363">
        <ele>332.821</ele>
        <time>2018-07-21T03:01:35Z</time>
      </trkpt>
      <trkpt lat="42.400982" lon="-8.180352">
        <ele>332.408</ele>
        <time>2018-07-21T03:01:55Z</time>
      </trkpt>
      <trkpt lat="42.401055" lon="-8.180133">
        <ele>324.181</ele>
        <time>2018-07-21T03:02:15Z</time>
      </trkpt>
      <trkpt lat="42.401048" lon="-8.180128">
        <ele>324.395</ele>
        <time>2018-07-21T03:02:35Z</time>
      </trkpt>
      <trkpt lat="42.400830" lon="-8.179978">
        <ele>330.846</ele>
        <time>2018-07-21T03:02:55Z</time>
      </trkpt>
      <trkpt lat="42.400692" lon="-8.179866">
        <ele>335.733</ele>
        <time>2018-07-21T03:03:15Z</time>
      </trkpt>
      <trkpt lat="42.400706" lon="-8.179826">
        <ele>334.278</ele>
        <time>2018-07-21T03:03:35Z</time>
      </trkpt>
      <trkpt lat="42.400581" lon="-8.179480">
        <ele>334.568</ele>
        <time>2018-07-21T03:03:55Z</time>
      </trkpt>
      <trkpt lat="42.400568" lon="-8.179159">
        <ele>335.343</ele>
        <time>2018-07-21T03:04:15Z</time>
      </trkpt>
      <trkpt lat="42.400525" lon="-8.178970">
        <ele>335.799</ele>
        <time>2018-07-21T03:04:35Z</time>
      </trkpt>
      <trkpt lat="42.400419" lon="-8.178810">
        <ele>336.929</ele>
        <time>2018-07-21T03:04:55Z</time>
      </trkpt>
      <trkpt lat="42.400003" lon="-8.178596">
        <ele>343.400</ele>
        <time>2018-07-21T03:05:15Z</time>
      </trkpt>
      <trkpt lat="42.399852" lon="-8.178446">
        <ele>339.920</ele>
        <time>2018-07-21T03:05:35Z</time>
      </trkpt>
      <trkpt lat="42.399548" lon="-8.178295">
        <ele>338.608</ele>
        <time>2018-07-21T03:05:55Z</time>
      </trkpt>
      <trkpt lat="42.399268" lon="-8.178171">
        <ele>341.744</ele>
        <time>2018-07-21T03:06:15Z</time>
      </trkpt>
      <trkpt lat="42.398781" lon="-8.177902">
        <ele>344.098</ele>
        <time>2018-07-21T03:06:35Z</time>
      </trkpt>
      <trkpt lat="42.398681" lon="-8.177789">
        <ele>342.489</ele>
        <time>2018-07-21T03:06:55Z</time>
      </trkpt>
      <trkpt lat="42.398242" lon="-8.177547">
        <ele>335.926</ele>
        <time>2018-07-21T03:07:15Z</time>
      </trkpt>
      <trkpt lat="42.397886" lon="-8.177600">
        <ele>342.031</ele>
        <time>2018-07-21T03:07:35Z</time>
      </trkpt>
      <trkpt lat="42.397505" lon="-8.177654">
        <ele>348.531</ele>
        <time>2018-07-21T03:07:55Z</time>
      </trkpt>
      <trkpt lat="42.397293" lon="-8.177548">
        <ele>347.456</ele>
        <time>2018-07-21T03:08:15Z</time>
      </trkpt>
      <trkpt lat="42.397023" lon="-8.177471">
        <ele>344.512</ele>
        <time>2018-07-21T03:08:35Z</time>
      </trkpt>
      <trkpt lat="42.396723" lon="-8.177538">
        <ele>348.394</ele>
        <time>2018-07-21T03:08:55Z</time>
      </trkpt>
      <trkpt lat="42.396410" lon="-8.177559">
        <ele>353.257</ele>
        <time>2018-07-21T03:09:15Z</time>
      </trkpt>
      <trkpt lat="42.396021" lon="-8.177507">
        <ele>354.522</ele>
        <time>2018-07-21T03:09:35Z</time>
      </trkpt>
      <trkpt lat="42.395744" lon="-8.177475">
        <ele>355.708</ele>
        <time>2018-07-21T03:09:55Z</time>
      </trkpt>
      <trkpt lat="42.395550" lon="-8.177297">
        <ele>357.441</ele>
        <time>2018-07-21T03:10:15Z</time>
      </trkpt>
      <trkpt lat="42.395419" lon="-8.177107">
        <ele>358.235</ele>
        <time>2018-07-21T03:10:35Z</time>
      </trkpt>
      <trkpt lat="42.395418" lon="-8.177104">
        <ele>358.216</ele>
        <time>2018-07-21T03:10:55Z</time>
      </trkpt>
      <trkpt lat="42.395347" lon="-8.176915">
        <ele>357.863</ele>
        <time>2018-07-21T03:11:15Z</time>
      </trkpt>
      <trkpt lat="42.395019" lon="-8.176631">
        <ele>363.998</ele>
        <time>2018-07-21T03:11:35Z</time>
      </trkpt>
      <trkpt lat="42.394693" lon="-8.176355">
        <ele>369.988</ele>
        <time>2018-07-21T03:11:55Z</time>
      </trkpt>
      <trkpt lat="42.394691" lon="-8.176349">
        <ele>369.823</ele>
        <time>2018-07-21T03:12:15Z</time>
      </trkpt>
      <trkpt lat="42.394685" lon="-8.176331">
        <ele>369.679</ele>
        <time>2018-07-21T03:12:35Z</time>
      </trkpt>
      <trkpt lat="42.394677" lon="-8.176304">
        <ele>369.232</ele>
        <time>2018-07-21T03:12:55Z</time>
      </trkpt>
      <trkpt lat="42.394675" lon="-8.176298">
        <ele>369.292</ele>
        <time>2018-07-21T03:13:15Z</time>
      </trkpt>
      <trkpt lat="42.394508" lon="-8.176193">
        <ele>371.511</ele>
        <time>2018-07-21T03:13:35Z</time>
      </trkpt>
      <trkpt lat="42.394452" lon="-8.176097">
        <ele>371.208</ele>
        <time>2018-07-21T03:13:55Z</time>
      </trkpt>
      <trkpt lat="42.394363" lon="-8.175998">
        <ele>370.185</ele>
        <time>2018-07-21T03:14:15Z</time>
      </trkpt>
      <trkpt lat="42.394362" lon="-8.175986">
        <ele>369.779</ele>
        <time>2018-07-21T03:14:35Z</time>
      </trkpt>
      <trkpt lat="42.394355" lon="-8.175977">
        <ele>369.610</ele>
        <time>2018-07-21T03:14:55Z</time>
      </trkpt>
      <trkpt lat="42.394259" lon="-8.175886">
        <ele>369.997</ele>
        <time>2018-07-21T03:15:15Z</time>
      </trkpt>
      <trkpt lat="42.394075" lon="-8.175900">
        <ele>376.792</ele>
        <time>2018-07-21T03:15:35Z</time>
      </trkpt>
      <trkpt lat="42.393953" lon="-8.175908">
        <ele>381.082</ele>
        <time>2018-07-21T03:15:55Z</time>
      </trkpt>
      <trkpt lat="42.393887" lon="-8.175892">
        <ele>382.957</ele>
        <time>2018-07-21T03:16:15Z</time>
      </trkpt>
      <trkpt lat="42.393737" lon="-8.175771">
        <ele>387.673</ele>
        <time>2018-07-21T03:16:35Z</time>
      </trkpt>
      <trkpt lat="42.393709" lon="-8.175674">
        <ele>387.487</ele>
        <time>2018-07-21T03:16:55Z</time>
      </trkpt>
      <trkpt lat="42.393661" lon="-8.175449">
        <ele>387.842</ele>
        <time>2018-07-21T03:17:15Z</time>
      </trkpt>
      <trkpt lat="42.393581" lon="-8.175220">
        <ele>392.526</ele>
        <time>2018-07-21T03:17:35Z</time>
      </trkpt>
      <trkpt lat="42.393537" lon="-8.175066">
        <ele>394.408</ele>
        <time>2018-07-21T03:17:55Z</time>
      </trkpt>
      <trkpt lat="42.393514" lon="-8.174875">
        <ele>395.470</ele>
        <time>2018-07-21T03:18:15Z</time>
      </trkpt>
      <trkpt lat="42.393486" lon="-8.174647">
        <ele>396.914</ele>
        <time>2018-07-21T03:18:35Z</time>
      </trkpt>
      <trkpt lat="42.393472" lon="-8.174504">
        <ele>397.615</ele>
        <time>2018-07-21T03:18:55Z</time>
      </trkpt>
      <trkpt lat="42.393458" lon="-8.174119">
        <ele>396.982</ele>
        <time>2018-07-21T03:19:15Z</time>
      </trkpt>
      <trkpt lat="42.393408" lon="-8.173882">
        <ele>400.127</ele>
        <time>2018-07-21T03:19:35Z</time>
      </trkpt>
      <trkpt lat="42.393406" lon="-8.173877">
        <ele>400.247</ele>
        <time>2018-07-21T03:19:55Z</time>
      </trkpt>
      <trkpt lat="42.393336" lon="-8.173520">
        <ele>403.422</ele>
        <time>2018-07-21T03:20:15Z</time>
      </trkpt>
      <trkpt lat="42.393325" lon="-8.173530">
        <ele>404.388</ele>
        <time>2018-07-21T03:20:35Z</time>
      </trkpt>
      <trkpt lat="42.393206" lon="-8.173509">
        <ele>409.086</ele>
        <time>2018-07-21T03:20:55Z</time>
      </trkpt>
      <trkpt lat="42.393080" lon="-8.173319">
        <ele>411.560</ele>
        <time>2018-07-21T03:21:15Z</time>
      </trkpt>
      <trkpt lat="42.392806" lon="-8.173106">
        <ele>422.426</ele>
        <time>2018-07-21T03:21:35Z</time>
      </trkpt>
      <trkpt lat="42.392721" lon="-8.172888">
        <ele>424.508</ele>
        <time>2018-07-21T03:21:55Z</time>
      </trkpt>
      <trkpt lat="42.392428" lon="-8.172522">
        <ele>440.420</ele>
        <time>2018-07-21T03:22:15Z</time>
      </trkpt>
      <trkpt lat="42.392518" lon="-8.171953">
        <ele>433.784</ele>
        <time>2018-07-21T03:22:35Z</time>
      </trkpt>
      <trkpt lat="42.392434" lon="-8.171707">
        <ele>439.725</ele>
        <time>2018-07-21T03:22:55Z</time>
      </trkpt>
      <trkpt lat="42.392661" lon="-8.171500">
        <ele>429.252</ele>
        <time>2018-07-21T03:23:15Z</time>
      </trkpt>
      <trkpt lat="42.392907" lon="-8.171266">
        <ele>420.417</ele>
        <time>2018-07-21T03:23:35Z</time>
      </trkpt>
      <trkpt lat="42.392907" lon="-8.171230">
        <ele>421.387</ele>
        <time>2018-07-21T03:23:55Z</time>
      </trkpt>
      <trkpt lat="42.393005" lon="-8.170975">
        <ele>424.012</ele>
        <time>2018-07-21T03:24:15Z</time>
      </trkpt>
      <trkpt lat="42.392993" lon="-8.170947">
        <ele>425.768</ele>
        <time>2018-07-21T03:24:35Z</time>
      </trkpt>
      <trkpt lat="42.393032" lon="-8.170693">
        <ele>432.737</ele>
        <time>2018-07-21T03:24:55Z</time>
      </trkpt>
      <trkpt lat="42.393022" lon="-8.170688">
        <ele>433.449</ele>
        <time>2018-07-21T03:25:15Z</time>
      </trkpt>
      <trkpt lat="42.392983" lon="-8.170048">
        <ele>441.413</ele>
        <time>2018-07-21T03:25:35Z</time>
      </trkpt>
      <trkpt lat="42.393227" lon="-8.169496">
        <ele>432.308</ele>
        <time>2018-07-21T03:25:55Z</time>
      </trkpt>
      <trkpt lat="42.393425" lon="-8.169127">
        <ele>425.275</ele>
        <time>2018-07-21T03:26:15Z</time>
      </trkpt>
      <trkpt lat="42.393801" lon="-8.168664">
        <ele>413.579</ele>
        <time>2018-07-21T03:26:35Z</time>
      </trkpt>
      <trkpt lat="42.393833" lon="-8.168607">
        <ele>413.340</ele>
        <time>2018-07-21T03:26:55Z</time>
      </trkpt>
      <trkpt lat="42.394068" lon="-8.168190">
        <ele>406.117</ele>
        <time>2018-07-21T03:27:15Z</time>
      </trkpt>
      <trkpt lat="42.394091" lon="-8.168082">
        <ele>407.442</ele>
        <time>2018-07-21T03:27:35Z</time>
      </trkpt>
      <trkpt lat="42.394123" lon="-8.168038">
        <ele>406.972</ele>
        <time>2018-07-21T03:27:55Z</time>
      </trkpt>
      <trkpt lat="42.394754" lon="-8.166946">
        <ele>411.087</ele>
        <time>2018-07-21T03:28:15Z</time>
      </trkpt>
      <trkpt lat="42.394834" lon="-8.166393">
        <ele>405.813</ele>
        <time>2018-07-21T03:28:35Z</time>
      </trkpt>
      <trkpt lat="42.394794" lon="-8.165541">
        <ele>391.875</ele>
        <time>2018-07-21T03:28:55Z</time>
      </trkpt>
      <trkpt lat="42.394272" lon="-8.164749">
        <ele>382.328</ele>
        <time>2018-07-21T03:29:15Z</time>
      </trkpt>
      <trkpt lat="42.393696" lon="-8.164002">
        <ele>388.220</ele>
        <time>2018-07-21T03:29:35Z</time>
      </trkpt>
      <trkpt lat="42.393687" lon="-8.163940">
        <ele>386.708</ele>
        <time>2018-07-21T03:29:55Z</time>
      </trkpt>
      <trkpt lat="42.393639" lon="-8.163024">
        <ele>368.179</ele>
        <time>2018-07-21T03:30:15Z</time>
      </trkpt>
      <trkpt lat="42.393627" lon="-8.162983">
        <ele>367.773</ele>
        <time>2018-07-21T03:30:35Z</time>
      </trkpt>
      <trkpt lat="42.393552" lon="-8.162009">
        <ele>353.294</ele>
        <time>2018-07-21T03:30:55Z</time>
      </trkpt>
      <trkpt lat="42.393586" lon="-8.161922">
        <ele>350.981</ele>
        <time>2018-07-21T03:31:15Z</time>
      </trkpt>
      <trkpt lat="42.393534" lon="-8.161019">
        <ele>355.046</ele>
        <time>2018-07-21T03:31:35Z</time>
      </trkpt>
      <trkpt lat="42.393569" lon="-8.160925">
        <ele>354.046</ele>
        <time>2018-07-21T03:31:55Z</time>
      </trkpt>
      <trkpt lat="42.393659" lon="-8.160124">
        <ele>347.681</ele>
        <time>2018-07-21T03:32:15Z</time>
      </trkpt>
      <trkpt lat="42.393735" lon="-8.159704">
        <ele>341.697</ele>
        <time>2018-07-21T03:32:35Z</time>
      </trkpt>
      <trkpt lat="42.393980" lon="-8.159253">
        <ele>333.821</ele>
        <time>2018-07-21T03:32:55Z</time>
      </trkpt>
      <trkpt lat="42.394281" lon="-8.158553">
        <ele>320.141</ele>
        <time>2018-07-21T03:33:15Z</time>
      </trkpt>
      <trkpt lat="42.394170" lon="-8.158137">
        <ele>325.405</ele>
        <time>2018-07-21T03:33:35Z</time>
      </trkpt>
      <trkpt lat="42.394103" lon="-8.157497">
        <ele>307.308</ele>
        <time>2018-07-21T03:33:55Z</time>
      </trkpt>
      <trkpt lat="42.394101" lon="-8.157486">
        <ele>306.964</ele>
        <time>2018-07-21T03:34:15Z</time>
      </trkpt>
      <trkpt lat="42.394236" lon="-8.157240">
        <ele>293.998</ele>
        <time>2018-07-21T03:34:35Z</time>
      </trkpt>
      <trkpt lat="42.394245" lon="-8.157291">
        <ele>295.599</ele>
        <time>2018-07-21T03:34:55Z</time>
      </trkpt>
      <trkpt lat="42.394323" lon="-8.157515">
        <ele>300.956</ele>
        <time>2018-07-21T03:35:15Z</time>
      </trkpt>
      <trkpt lat="42.394415" lon="-8.157672">
        <ele>302.221</ele>
        <time>2018-07-21T03:35:35Z</time>
      </trkpt>
      <trkpt lat="42.394568" lon="-8.157957">
        <ele>297.421</ele>
        <time>2018-07-21T03:35:55Z</time>
      </trkpt>
      <trkpt lat="42.394664" lon="-8.158312">
        <ele>290.826</ele>
        <time>2018-07-21T03:36:15Z</time>
      </trkpt>
      <trkpt lat="42.394691" lon="-8.158637">
        <ele>288.852</ele>
        <time>2018-07-21T03:36:35Z</time>
      </trkpt>
      <trkpt lat="42.394591" lon="-8.159230">
        <ele>296.829</ele>
        <time>2018-07-21T03:36:55Z</time>
      </trkpt>
      <trkpt lat="42.394678" lon="-8.159572">
        <ele>286.800</ele>
        <time>2018-07-21T03:37:15Z</time>
      </trkpt>
      <trkpt lat="42.394686" lon="-8.159601">
        <ele>285.820</ele>
        <time>2018-07-21T03:37:35Z</time>
      </trkpt>
      <trkpt lat="42.394785" lon="-8.159737">
        <ele>277.808</ele>
        <time>2018-07-21T03:37:55Z</time>
      </trkpt>
      <trkpt lat="42.394953" lon="-8.159420">
        <ele>272.334</ele>
        <time>2018-07-21T03:38:15Z</time>
      </trkpt>
      <trkpt lat="42.394965" lon="-8.159383">
        <ele>272.218</ele>
        <time>2018-07-21T03:38:35Z</time>
      </trkpt>
      <trkpt lat="42.395051" lon="-8.158746">
        <ele>268.559</ele>
        <time>2018-07-21T03:38:55Z</time>
      </trkpt>
      <trkpt lat="42.395027" lon="-8.158418">
        <ele>267.996</ele>
        <time>2018-07-21T03:39:15Z</time>
      </trkpt>
      <trkpt lat="42.395026" lon="-8.158391">
        <ele>268.021</ele>
        <time>2018-07-21T03:39:35Z</time>
      </trkpt>
      <trkpt lat="42.394988" lon="-8.157725">
        <ele>271.351</ele>
        <time>2018-07-21T03:39:55Z</time>
      </trkpt>
      <trkpt lat="42.395001" lon="-8.157635">
        <ele>269.926</ele>
        <time>2018-07-21T03:40:15Z</time>
      </trkpt>
      <trkpt lat="42.395002" lon="-8.156994">
        <ele>262.872</ele>
        <time>2018-07-21T03:40:35Z</time>
      </trkpt>
      <trkpt lat="42.395119" lon="-8.156813">
        <ele>253.073</ele>
        <time>2018-07-21T03:40:55Z</time>
      </trkpt>
      <trkpt lat="42.395281" lon="-8.156882">
        <ele>244.285</ele>
        <time>2018-07-21T03:41:15Z</time>
      </trkpt>
      <trkpt lat="42.395369" lon="-8.157054">
        <ele>242.413</ele>
        <time>2018-07-21T03:41:35Z</time>
      </trkpt>
      <trkpt lat="42.395521" lon="-8.157614">
        <ele>243.008</ele>
        <time>2018-07-21T03:41:55Z</time>
      </trkpt>
      <trkpt lat="42.395558" lon="-8.158066">
        <ele>244.989</ele>
        <time>2018-07-21T03:42:15Z</time>
      </trkpt>
      <trkpt lat="42.396049" lon="-8.158927">
        <ele>216.653</ele>
        <time>2018-07-21T03:42:35Z</time>
      </trkpt>
      <trkpt lat="42.395948" lon="-8.159342">
        <ele>224.634</ele>
        <time>2018-07-21T03:42:55Z</time>
      </trkpt>
      <trkpt lat="42.395947" lon="-8.159758">
        <ele>221.681</ele>
        <time>2018-07-21T03:43:15Z</time>
      </trkpt>
      <trkpt lat="42.395947" lon="-8.159813">
        <ele>221.196</ele>
        <time>2018-07-21T03:43:35Z</time>
      </trkpt>
      <trkpt lat="42.395980" lon="-8.160208">
        <ele>216.786</ele>
        <time>2018-07-21T03:43:55Z</time>
      </trkpt>
      <trkpt lat="42.395993" lon="-8.160252">
        <ele>215.811</ele>
        <time>2018-07-21T03:44:15Z</time>
      </trkpt>
      <trkpt lat="42.396040" lon="-8.160434">
        <ele>212.767</ele>
        <time>2018-07-21T03:44:35Z</time>
      </trkpt>
      <trkpt lat="42.396074" lon="-8.160409">
        <ele>211.511</ele>
        <time>2018-07-21T03:44:55Z</time>
      </trkpt>
      <trkpt lat="42.396276" lon="-8.160142">
        <ele>204.121</ele>
        <time>2018-07-21T03:45:15Z</time>
      </trkpt>
      <trkpt lat="42.396206" lon="-8.159847">
        <ele>208.503</ele>
        <time>2018-07-21T03:45:35Z</time>
      </trkpt>
      <trkpt lat="42.396279" lon="-8.159177">
        <ele>205.408</ele>
        <time>2018-07-21T03:45:55Z</time>
      </trkpt>
      <trkpt lat="42.396223" lon="-8.158831">
        <ele>205.663</ele>
        <time>2018-07-21T03:46:15Z</time>
      </trkpt>
      <trkpt lat="42.396290" lon="-8.158381">
        <ele>201.157</ele>
        <time>2018-07-21T03:46:35Z</time>
      </trkpt>
      <trkpt lat="42.396334" lon="-8.158307">
        <ele>198.078</ele>
        <time>2018-07-21T03:46:55Z</time>
      </trkpt>
      <trkpt lat="42.396587" lon="-8.157996">
        <ele>181.985</ele>
        <time>2018-07-21T03:47:15Z</time>
      </trkpt>
      <trkpt lat="42.396608" lon="-8.157515">
        <ele>181.530</ele>
        <time>2018-07-21T03:47:35Z</time>
      </trkpt>
      <trkpt lat="42.396518" lon="-8.156971">
        <ele>183.540</ele>
        <time>2018-07-21T03:47:55Z</time>
      </trkpt>
      <trkpt lat="42.396526" lon="-8.155950">
        <ele>178.795</ele>
        <time>2018-07-21T03:48:15Z</time>
      </trkpt>
      <trkpt lat="42.396531" lon="-8.155909">
        <ele>178.381</ele>
        <time>2018-07-21T03:48:35Z</time>
      </trkpt>
      <trkpt lat="42.396643" lon="-8.155549">
        <ele>171.616</ele>
        <time>2018-07-21T03:48:55Z</time>
      </trkpt>
      <trkpt lat="42.396821" lon="-8.155301">
        <ele>162.676</ele>
        <time>2018-07-21T03:49:15Z</time>
      </trkpt>
      <trkpt lat="42.396941" lon="-8.155452">
        <ele>159.413</ele>
        <time>2018-07-21T03:49:35Z</time>
      </trkpt>
      <trkpt lat="42.396947" lon="-8.155897">
        <ele>161.108</ele>
        <time>2018-07-21T03:49:55Z</time>
      </trkpt>
      <trkpt lat="42.396962" lon="-8.156269">
        <ele>161.553</ele>
        <time>2018-07-21T03:50:15Z</time>
      </trkpt>
      <trkpt lat="42.397127" lon="-8.156550">
        <ele>152.897</ele>
        <time>2018-07-21T03:50:35Z</time>
      </trkpt>
      <trkpt lat="42.397110" lon="-8.156586">
        <ele>154.018</ele>
        <time>2018-07-21T03:50:55Z</time>
      </trkpt>
      <trkpt lat="42.397203" lon="-8.157069">
        <ele>152.135</ele>
        <time>2018-07-21T03:51:15Z</time>
      </trkpt>
      <trkpt lat="42.397425" lon="-8.157455">
        <ele>143.350</ele>
        <time>2018-07-21T03:51:35Z</time>
      </trkpt>
      <trkpt lat="42.397455" lon="-8.157999">
        <ele>146.530</ele>
        <time>2018-07-21T03:51:55Z</time>
      </trkpt>
      <trkpt lat="42.397589" lon="-8.158333">
        <ele>140.825</ele>
        <time>2018-07-21T03:52:15Z</time>
      </trkpt>
      <trkpt lat="42.397782" lon="-8.158446">
        <ele>133.911</ele>
        <time>2018-07-21T03:52:35Z</time>
      </trkpt>
      <trkpt lat="42.397877" lon="-8.158087">
        <ele>131.528</ele>
        <time>2018-07-21T03:52:55Z</time>
      </trkpt>
      <trkpt lat="42.397737" lon="-8.157570">
        <ele>130.289</ele>
        <time>2018-07-21T03:53:15Z</time>
      </trkpt>
      <trkpt lat="42.397734" lon="-8.157485">
        <ele>128.717</ele>
        <time>2018-07-21T03:53:35Z</time>
      </trkpt>
      <trkpt lat="42.397737" lon="-8.156643">
        <ele>121.108</ele>
        <time>2018-07-21T03:53:55Z</time>
      </trkpt>
      <trkpt lat="42.397665" lon="-8.155894">
        <ele>123.164</ele>
        <time>2018-07-21T03:54:15Z</time>
      </trkpt>
      <trkpt lat="42.397599" lon="-8.155061">
        <ele>117.048</ele>
        <time>2018-07-21T03:54:35Z</time>
      </trkpt>
      <trkpt lat="42.397520" lon="-8.154266">
        <ele>114.269</ele>
        <time>2018-07-21T03:54:55Z</time>
      </trkpt>
      <trkpt lat="42.397646" lon="-8.153272">
        <ele>114.926</ele>
        <time>2018-07-21T03:55:15Z</time>
      </trkpt>
      <trkpt lat="42.397755" lon="-8.152672">
        <ele>116.031</ele>
        <time>2018-07-21T03:55:35Z</time>
      </trkpt>
      <trkpt lat="42.397790" lon="-8.151916">
        <ele>121.771</ele>
        <time>2018-07-21T03:55:55Z</time>
      </trkpt>
      <trkpt lat="42.397912" lon="-8.150802">
        <ele>110.826</ele>
        <time>2018-07-21T03:56:15Z</time>
      </trkpt>
      <trkpt lat="42.397699" lon="-8.150298">
        <ele>110.482</ele>
        <time>2018-07-21T03:56:35Z</time>
      </trkpt>
      <trkpt lat="42.397665" lon="-8.150276">
        <ele>110.638</ele>
        <time>2018-07-21T03:56:55Z</time>
      </trkpt>
      <trkpt lat="42.397500" lon="-8.149914">
        <ele>108.470</ele>
        <time>2018-07-21T03:57:15Z</time>
      </trkpt>
      <trkpt lat="42.397496" lon="-8.149896">
        <ele>108.317</ele>
        <time>2018-07-21T03:57:35Z</time>
      </trkpt>
      <trkpt lat="42.397476" lon="-8.149802">
        <ele>107.808</ele>
        <time>2018-07-21T03:57:55Z</time>
      </trkpt>
      <trkpt lat="42.397065" lon="-8.148784">
        <ele>106.935</ele>
        <time>2018-07-21T03:58:15Z</time>
      </trkpt>
      <trkpt lat="42.397083" lon="-8.148474">
        <ele>104.599</ele>
        <time>2018-07-21T03:58:35Z</time>
      </trkpt>
      <trkpt lat="42.397369" lon="-8.148083">
        <ele>102.560</ele>
        <time>2018-07-21T03:58:55Z</time>
      </trkpt>
      <trkpt lat="42.397486" lon="-8.148183">
        <ele>102.557</ele>
        <time>2018-07-21T03:59:15Z</time>
      </trkpt>
      <trkpt lat="42.397746" lon="-8.148388">
        <ele>102.782</ele>
        <time>2018-07-21T03:59:35Z</time>
      </trkpt>
      <trkpt lat="42.397933" lon="-8.148895">
        <ele>104.172</ele>
        <time>2018-07-21T03:59:55Z</time>
      </trkpt>
      <trkpt lat="42.398274" lon="-8.149191">
        <ele>109.287</ele>
        <time>2018-07-21T04:00:15Z</time>
      </trkpt>
      <trkpt lat="42.398563" lon="-8.149850">
        <ele>104.823</ele>
        <time>2018-07-21T04:00:35Z</time>
      </trkpt>
      <trkpt lat="42.398717" lon="-8.150381">
        <ele>103.278</ele>
        <time>2018-07-21T04:00:55Z</time>
      </trkpt>
      <trkpt lat="42.398812" lon="-8.151343">
        <ele>103.433</ele>
        <time>2018-07-21T04:01:15Z</time>
      </trkpt>
      <trkpt lat="42.398905" lon="-8.151883">
        <ele>106.926</ele>
        <time>2018-07-21T04:01:35Z</time>
      </trkpt>
      <trkpt lat="42.399089" lon="-8.152570">
        <ele>113.808</ele>
        <time>2018-07-21T04:01:55Z</time>
      </trkpt>
      <trkpt lat="42.399125" lon="-8.152684">
        <ele>115.329</ele>
        <time>2018-07-21T04:02:15Z</time>
      </trkpt>
      <trkpt lat="42.398731" lon="-8.153372">
        <ele>111.953</ele>
        <time>2018-07-21T04:02:35Z</time>
      </trkpt>
      <trkpt lat="42.398666" lon="-8.153735">
        <ele>113.834</ele>
        <time>2018-07-21T04:02:55Z</time>
      </trkpt>
      <trkpt lat="42.398786" lon="-8.154073">
        <ele>118.431</ele>
        <time>2018-07-21T04:03:15Z</time>
      </trkpt>
      <trkpt lat="42.398975" lon="-8.154220">
        <ele>122.216</ele>
        <time>2018-07-21T04:03:35Z</time>
      </trkpt>
      <trkpt lat="42.399233" lon="-8.154123">
        <ele>125.886</ele>
        <time>2018-07-21T04:03:55Z</time>
      </trkpt>
      <trkpt lat="42.399261" lon="-8.154097">
        <ele>126.291</ele>
        <time>2018-07-21T04:04:15Z</time>
      </trkpt>
      <trkpt lat="42.399478" lon="-8.153917">
        <ele>129.997</ele>
        <time>2018-07-21T04:04:35Z</time>
      </trkpt>
      <trkpt lat="42.399628" lon="-8.153633">
        <ele>133.713</ele>
        <time>2018-07-21T04:04:55Z</time>
      </trkpt>
      <trkpt lat="42.399776" lon="-8.153387">
        <ele>136.743</ele>
        <time>2018-07-21T04:05:15Z</time>
      </trkpt>
      <trkpt lat="42.399980" lon="-8.153414">
        <ele>142.207</ele>
        <time>2018-07-21T04:05:35Z</time>
      </trkpt>
      <trkpt lat="42.400078" lon="-8.153787">
        <ele>144.108</ele>
        <time>2018-07-21T04:05:55Z</time>
      </trkpt>
      <trkpt lat="42.400185" lon="-8.154593">
        <ele>147.113</ele>
        <time>2018-07-21T04:06:15Z</time>
      </trkpt>
      <trkpt lat="42.400309" lon="-8.155349">
        <ele>153.867</ele>
        <time>2018-07-21T04:06:35Z</time>
      </trkpt>
      <trkpt lat="42.400290" lon="-8.155884">
        <ele>152.438</ele>
        <time>2018-07-21T04:06:55Z</time>
      </trkpt>
      <trkpt lat="42.400221" lon="-8.156366">
        <ele>149.735</ele>
        <time>2018-07-21T04:07:15Z</time>
      </trkpt>
      <trkpt lat="42.400087" lon="-8.156774">
        <ele>146.890</ele>
        <time>2018-07-21T04:07:35Z</time>
      </trkpt>
      <trkpt lat="42.400001" lon="-8.157008">
        <ele>144.510</ele>
        <time>2018-07-21T04:07:55Z</time>
      </trkpt>
      <trkpt lat="42.399996" lon="-8.157292">
        <ele>145.165</ele>
        <time>2018-07-21T04:08:15Z</time>
      </trkpt>
      <trkpt lat="42.400143" lon="-8.157670">
        <ele>145.351</ele>
        <time>2018-07-21T04:08:35Z</time>
      </trkpt>
      <trkpt lat="42.400190" lon="-8.158151">
        <ele>138.565</ele>
        <time>2018-07-21T04:08:55Z</time>
      </trkpt>
      <trkpt lat="42.400432" lon="-8.158719">
        <ele>142.868</ele>
        <time>2018-07-21T04:09:15Z</time>
      </trkpt>
      <trkpt lat="42.400547" lon="-8.159343">
        <ele>145.714</ele>
        <time>2018-07-21T04:09:35Z</time>
      </trkpt>
      <trkpt lat="42.400605" lon="-8.159889">
        <ele>143.708</ele>
        <time>2018-07-21T04:09:55Z</time>
      </trkpt>
      <trkpt lat="42.400763" lon="-8.160388">
        <ele>149.468</ele>
        <time>2018-07-21T04:10:15Z</time>
      </trkpt>
      <trkpt lat="42.400974" lon="-8.161254">
        <ele>147.722</ele>
        <time>2018-07-21T04:10:35Z</time>
      </trkpt>
      <trkpt lat="42.401198" lon="-8.161934">
        <ele>135.953</ele>
        <time>2018-07-21T04:10:55Z</time>
      </trkpt>
      <trkpt lat="42.401571" lon="-8.162581">
        <ele>128.260</ele>
        <time>2018-07-21T04:11:15Z</time>
      </trkpt>
      <trkpt lat="42.401834" lon="-8.163228">
        <ele>125.955</ele>
        <time>2018-07-21T04:11:35Z</time>
      </trkpt>
      <trkpt lat="42.402012" lon="-8.163660">
        <ele>123.995</ele>
        <time>2018-07-21T04:11:55Z</time>
      </trkpt>
      <trkpt lat="42.402040" lon="-8.163717">
        <ele>124.020</ele>
        <time>2018-07-21T04:12:15Z</time>
      </trkpt>
      <trkpt lat="42.402243" lon="-8.164179">
        <ele>121.016</ele>
        <time>2018-07-21T04:12:35Z</time>
      </trkpt>
      <trkpt lat="42.402655" lon="-8.164690">
        <ele>112.629</ele>
        <time>2018-07-21T04:12:55Z</time>
      </trkpt>
      <trkpt lat="42.403132" lon="-8.165274">
        <ele>115.600</ele>
        <time>2018-07-21T04:13:15Z</time>
      </trkpt>
      <trkpt lat="42.403326" lon="-8.165213">
        <ele>118.720</ele>
        <time>2018-07-21T04:13:35Z</time>
      </trkpt>
      <trkpt lat="42.403589" lon="-8.165208">
        <ele>124.508</ele>
        <time>2018-07-21T04:13:55Z</time>
      </trkpt>
      <trkpt lat="42.403765" lon="-8.165356">
        <ele>130.424</ele>
        <time>2018-07-21T04:14:15Z</time>
      </trkpt>
      <trkpt lat="42.404018" lon="-8.165425">
        <ele>134.028</ele>
        <time>2018-07-21T04:14:35Z</time>
      </trkpt>
      <trkpt lat="42.404261" lon="-8.165273">
        <ele>127.269</ele>
        <time>2018-07-21T04:14:55Z</time>
      </trkpt>
      <trkpt lat="42.404755" lon="-8.164928">
        <ele>122.146</ele>
        <time>2018-07-21T04:15:15Z</time>
      </trkpt>
      <trkpt lat="42.405163" lon="-8.164483">
        <ele>126.551</ele>
        <time>2018-07-21T04:15:35Z</time>
      </trkpt>
      <trkpt lat="42.405425" lon="-8.164202">
        <ele>129.871</ele>
        <time>2018-07-21T04:15:55Z</time>
      </trkpt>
      <trkpt lat="42.405616" lon="-8.163605">
        <ele>129.116</ele>
        <time>2018-07-21T04:16:15Z</time>
      </trkpt>
      <trkpt lat="42.405622" lon="-8.163489">
        <ele>128.512</ele>
        <time>2018-07-21T04:16:35Z</time>
      </trkpt>
      <trkpt lat="42.405787" lon="-8.163178">
        <ele>127.787</ele>
        <time>2018-07-21T04:16:55Z</time>
      </trkpt>
      <trkpt lat="42.405784" lon="-8.163102">
        <ele>126.942</ele>
        <time>2018-07-21T04:17:15Z</time>
      </trkpt>
      <trkpt lat="42.405773" lon="-8.162639">
        <ele>133.026</ele>
        <time>2018-07-21T04:17:35Z</time>
      </trkpt>
      <trkpt lat="42.406500" lon="-8.161970">
        <ele>141.108</ele>
        <time>2018-07-21T04:17:55Z</time>
      </trkpt>
      <trkpt lat="42.406500" lon="-8.161950">
        <ele>140.940</ele>
        <time>2018-07-21T04:18:15Z</time>
      </trkpt>
      <trkpt lat="42.406808" lon="-8.161415">
        <ele>140.234</ele>
        <time>2018-07-21T04:18:35Z</time>
      </trkpt>
      <trkpt lat="42.407362" lon="-8.160672">
        <ele>146.955</ele>
        <time>2018-07-21T04:18:55Z</time>
      </trkpt>
      <trkpt lat="42.407783" lon="-8.160345">
        <ele>150.672</ele>
        <time>2018-07-21T04:19:15Z</time>
      </trkpt>
      <trkpt lat="42.408464" lon="-8.159998">
        <ele>159.497</ele>
        <time>2018-07-21T04:19:35Z</time>
      </trkpt>
      <trkpt lat="42.408521" lon="-8.159974">
        <ele>160.387</ele>
        <time>2018-07-21T04:19:55Z</time>
      </trkpt>
      <trkpt lat="42.409392" lon="-8.159743">
        <ele>162.222</ele>
        <time>2018-07-21T04:20:15Z</time>
      </trkpt>
      <trkpt lat="42.409708" lon="-8.160064">
        <ele>167.948</ele>
        <time>2018-07-21T04:20:35Z</time>
      </trkpt>
      <trkpt lat="42.409827" lon="-8.160769">
        <ele>175.037</ele>
        <time>2018-07-21T04:20:55Z</time>
      </trkpt>
      <trkpt lat="42.409951" lon="-8.161676">
        <ele>173.849</ele>
        <time>2018-07-21T04:21:15Z</time>
      </trkpt>
      <trkpt lat="42.410083" lon="-8.162609">
        <ele>178.513</ele>
        <time>2018-07-21T04:21:35Z</time>
      </trkpt>
      <trkpt lat="42.410190" lon="-8.163945">
        <ele>180.908</ele>
        <time>2018-07-21T04:21:55Z</time>
      </trkpt>
      <trkpt lat="42.410345" lon="-8.164817">
        <ele>182.045</ele>
        <time>2018-07-21T04:22:15Z</time>
      </trkpt>
      <trkpt lat="42.410326" lon="-8.165806">
        <ele>195.979</ele>
        <time>2018-07-21T04:22:35Z</time>
      </trkpt>
      <trkpt lat="42.410570" lon="-8.167149">
        <ele>195.010</ele>
        <time>2018-07-21T04:22:55Z</time>
      </trkpt>
      <trkpt lat="42.410618" lon="-8.167767">
        <ele>205.417</ele>
        <time>2018-07-21T04:23:15Z</time>
      </trkpt>
      <trkpt lat="42.410621" lon="-8.167783">
        <ele>205.932</ele>
        <time>2018-07-21T04:23:35Z</time>
      </trkpt>
      <trkpt lat="42.410565" lon="-8.168270">
        <ele>210.282</ele>
        <time>2018-07-21T04:23:55Z</time>
      </trkpt>
      <trkpt lat="42.410398" lon="-8.168764">
        <ele>205.947</ele>
        <time>2018-07-21T04:24:15Z</time>
      </trkpt>
      <trkpt lat="42.410510" lon="-8.169488">
        <ele>213.153</ele>
        <time>2018-07-21T04:24:35Z</time>
      </trkpt>
      <trkpt lat="42.410510" lon="-8.169520">
        <ele>214.155</ele>
        <time>2018-07-21T04:24:55Z</time>
      </trkpt>
      <trkpt lat="42.410662" lon="-8.170057">
        <ele>232.207</ele>
        <time>2018-07-21T04:25:15Z</time>
      </trkpt>
      <trkpt lat="42.411868" lon="-8.170516">
        <ele>216.917</ele>
        <time>2018-07-21T04:25:35Z</time>
      </trkpt>
      <trkpt lat="42.412380" lon="-8.171066">
        <ele>227.808</ele>
        <time>2018-07-21T04:25:55Z</time>
      </trkpt>
      <trkpt lat="42.413020" lon="-8.171286">
        <ele>226.557</ele>
        <time>2018-07-21T04:26:15Z</time>
      </trkpt>
      <trkpt lat="42.413705" lon="-8.171541">
        <ele>226.711</ele>
        <time>2018-07-21T04:26:35Z</time>
      </trkpt>
      <trkpt lat="42.414398" lon="-8.171753">
        <ele>227.942</ele>
        <time>2018-07-21T04:26:55Z</time>
      </trkpt>
      <trkpt lat="42.414975" lon="-8.172098">
        <ele>229.699</ele>
        <time>2018-07-21T04:27:15Z</time>
      </trkpt>
      <trkpt lat="42.415514" lon="-8.172434">
        <ele>236.234</ele>
        <time>2018-07-21T04:27:35Z</time>
      </trkpt>
      <trkpt lat="42.415862" lon="-8.171889">
        <ele>225.524</ele>
        <time>2018-07-21T04:27:55Z</time>
      </trkpt>
      <trkpt lat="42.416022" lon="-8.171174">
        <ele>228.829</ele>
        <time>2018-07-21T04:28:15Z</time>
      </trkpt>
      <trkpt lat="42.415979" lon="-8.171145">
        <ele>230.385</ele>
        <time>2018-07-21T04:28:35Z</time>
      </trkpt>
      <trkpt lat="42.415412" lon="-8.170004">
        <ele>271.511</ele>
        <time>2018-07-21T04:28:55Z</time>
      </trkpt>
      <trkpt lat="42.415442" lon="-8.169259">
        <ele>291.621</ele>
        <time>2018-07-21T04:29:15Z</time>
      </trkpt>
      <trkpt lat="42.415382" lon="-8.169220">
        <ele>293.003</ele>
        <time>2018-07-21T04:29:35Z</time>
      </trkpt>
      <trkpt lat="42.415579" lon="-8.168834">
        <ele>301.408</ele>
        <time>2018-07-21T04:29:55Z</time>
      </trkpt>
      <trkpt lat="42.415661" lon="-8.168233">
        <ele>315.653</ele>
        <time>2018-07-21T04:30:15Z</time>
      </trkpt>
      <trkpt lat="42.415608" lon="-8.167672">
        <ele>331.477</ele>
        <time>2018-07-21T04:30:35Z</time>
      </trkpt>
      <trkpt lat="42.415846" lon="-8.167281">
        <ele>341.598</ele>
        <time>2018-07-21T04:30:55Z</time>
      </trkpt>
      <trkpt lat="42.415862" lon="-8.167242">
        <ele>342.515</ele>
        <time>2018-07-21T04:31:15Z</time>
      </trkpt>
      <trkpt lat="42.416319" lon="-8.166927">
        <ele>348.020</ele>
        <time>2018-07-21T04:31:35Z</time>
      </trkpt>
      <trkpt lat="42.416838" lon="-8.166531">
        <ele>355.470</ele>
        <time>2018-07-21T04:31:55Z</time>
      </trkpt>
      <trkpt lat="42.416904" lon="-8.166468">
        <ele>356.455</ele>
        <time>2018-07-21T04:32:15Z</time>
      </trkpt>
      <trkpt lat="42.417529" lon="-8.165909">
        <ele>361.821</ele>
        <time>2018-07-21T04:32:35Z</time>
      </trkpt>
      <trkpt lat="42.417615" lon="-8.165851">
        <ele>361.519</ele>
        <time>2018-07-21T04:32:55Z</time>
      </trkpt>
      <trkpt lat="42.417911" lon="-8.165606">
        <ele>366.609</ele>
        <time>2018-07-21T04:33:15Z</time>
      </trkpt>
      <trkpt lat="42.418244" lon="-8.165594">
        <ele>369.519</ele>
        <time>2018-07-21T04:33:35Z</time>
      </trkpt>
      <trkpt lat="42.418534" lon="-8.165556">
        <ele>373.408</ele>
        <time>2018-07-21T04:33:55Z</time>
      </trkpt>
      <trkpt lat="42.418565" lon="-8.165539">
        <ele>374.143</ele>
        <time>2018-07-21T04:34:15Z</time>
      </trkpt>
      <trkpt lat="42.418733" lon="-8.165229">
        <ele>382.067</ele>
        <time>2018-07-21T04:34:35Z</time>
      </trkpt>
      <trkpt lat="42.418754" lon="-8.165181">
        <ele>383.388</ele>
        <time>2018-07-21T04:34:55Z</time>
      </trkpt>
      <trkpt lat="42.418807" lon="-8.165135">
        <ele>384.695</ele>
        <time>2018-07-21T04:35:15Z</time>
      </trkpt>
      <trkpt lat="42.419028" lon="-8.164695">
        <ele>395.340</ele>
        <time>2018-07-21T04:35:35Z</time>
      </trkpt>
      <trkpt lat="42.419293" lon="-8.164108">
        <ele>404.550</ele>
        <time>2018-07-21T04:35:55Z</time>
      </trkpt>
      <trkpt lat="42.419327" lon="-8.164033">
        <ele>404.875</ele>
        <time>2018-07-21T04:36:15Z</time>
      </trkpt>
      <trkpt lat="42.419668" lon="-8.163513">
        <ele>411.981</ele>
        <time>2018-07-21T04:36:35Z</time>
      </trkpt>
      <trkpt lat="42.419683" lon="-8.163443">
        <ele>412.662</ele>
        <time>2018-07-21T04:36:55Z</time>
      </trkpt>
      <trkpt lat="42.419785" lon="-8.163152">
        <ele>415.183</ele>
        <time>2018-07-21T04:37:15Z</time>
      </trkpt>
      <trkpt lat="42.419935" lon="-8.163195">
        <ele>417.411</ele>
        <time>2018-07-21T04:37:35Z</time>
      </trkpt>
      <trkpt lat="42.420043" lon="-8.163380">
        <ele>418.308</ele>
        <time>2018-07-21T04:37:55Z</time>
      </trkpt>
      <trkpt lat="42.420312" lon="-8.163585">
        <ele>422.648</ele>
        <time>2018-07-21T04:38:15Z</time>
      </trkpt>
      <trkpt lat="42.420793" lon="-8.163688">
        <ele>427.772</ele>
        <time>2018-07-21T04:38:35Z</time>
      </trkpt>
      <trkpt lat="42.421234" lon="-8.163559">
        <ele>427.293</ele>
        <time>2018-07-21T04:38:55Z</time>
      </trkpt>
      <trkpt lat="42.421383" lon="-8.163272">
        <ele>428.320</ele>
        <time>2018-07-21T04:39:15Z</time>
      </trkpt>
      <trkpt lat="42.421260" lon="-8.163071">
        <ele>430.825</ele>
        <time>2018-07-21T04:39:35Z</time>
      </trkpt>
      <trkpt lat="42.421120" lon="-8.162716">
        <ele>432.995</ele>
        <time>2018-07-21T04:39:55Z</time>
      </trkpt>
      <trkpt lat="42.421075" lon="-8.162473">
        <ele>432.670</ele>
        <time>2018-07-21T04:40:15Z</time>
      </trkpt>
      <trkpt lat="42.421280" lon="-8.162289">
        <ele>432.416</ele>
        <time>2018-07-21T04:40:35Z</time>
      </trkpt>
      <trkpt lat="42.421804" lon="-8.162391">
        <ele>431.526</ele>
        <time>2018-07-21T04:40:55Z</time>
      </trkpt>
      <trkpt lat="42.421882" lon="-8.162414">
        <ele>431.647</ele>
        <time>2018-07-21T04:41:15Z</time>
      </trkpt>
      <trkpt lat="42.422152" lon="-8.162575">
        <ele>431.111</ele>
        <time>2018-07-21T04:41:35Z</time>
      </trkpt>
      <trkpt lat="42.422346" lon="-8.162920">
        <ele>430.408</ele>
        <time>2018-07-21T04:41:55Z</time>
      </trkpt>
      <trkpt lat="42.422678" lon="-8.163684">
        <ele>434.374</ele>
        <time>2018-07-21T04:42:15Z</time>
      </trkpt>
      <trkpt lat="42.422505" lon="-8.163778">
        <ele>431.738</ele>
        <time>2018-07-21T04:42:35Z</time>
      </trkpt>
      <trkpt lat="42.422545" lon="-8.164043">
        <ele>432.249</ele>
        <time>2018-07-21T04:42:55Z</time>
      </trkpt>
      <trkpt lat="42.422656" lon="-8.164487">
        <ele>433.856</ele>
        <time>2018-07-21T04:43:15Z</time>
      </trkpt>
      <trkpt lat="42.422797" lon="-8.164892">
        <ele>436.231</ele>
        <time>2018-07-21T04:43:35Z</time>
      </trkpt>
      <trkpt lat="42.422838" lon="-8.164920">
        <ele>436.511</ele>
        <time>2018-07-21T04:43:55Z</time>
      </trkpt>
      <trkpt lat="42.423148" lon="-8.165047">
        <ele>437.396</ele>
        <time>2018-07-21T04:44:15Z</time>
      </trkpt>
      <trkpt lat="42.423449" lon="-8.164973">
        <ele>437.392</ele>
        <time>2018-07-21T04:44:35Z</time>
      </trkpt>
      <trkpt lat="42.423844" lon="-8.164930">
        <ele>438.072</ele>
        <time>2018-07-21T04:44:55Z</time>
      </trkpt>
      <trkpt lat="42.424508" lon="-8.164952">
        <ele>438.013</ele>
        <time>2018-07-21T04:45:15Z</time>
      </trkpt>
      <trkpt lat="42.424920" lon="-8.164999">
        <ele>436.314</ele>
        <time>2018-07-21T04:45:35Z</time>
      </trkpt>
      <trkpt lat="42.425611" lon="-8.165253">
        <ele>439.108</ele>
        <time>2018-07-21T04:45:55Z</time>
      </trkpt>
      <trkpt lat="42.426051" lon="-8.165965">
        <ele>427.429</ele>
        <time>2018-07-21T04:46:15Z</time>
      </trkpt>
      <trkpt lat="42.426541" lon="-8.166878">
        <ele>422.883</ele>
        <time>2018-07-21T04:46:35Z</time>
      </trkpt>
      <trkpt lat="42.426845" lon="-8.167619">
        <ele>419.954</ele>
        <time>2018-07-21T04:46:55Z</time>
      </trkpt>
      <trkpt lat="42.427233" lon="-8.168081">
        <ele>426.511</ele>
        <time>2018-07-21T04:47:15Z</time>
      </trkpt>
      <trkpt lat="42.427421" lon="-8.168239">
        <ele>425.016</ele>
        <time>2018-07-21T04:47:35Z</time>
      </trkpt>
      <trkpt lat="42.427933" lon="-8.168338">
        <ele>427.796</ele>
        <time>2018-07-21T04:47:55Z</time>
      </trkpt>
      <trkpt lat="42.427987" lon="-8.168367">
        <ele>428.151</ele>
        <time>2018-07-21T04:48:15Z</time>
      </trkpt>
      <trkpt lat="42.428215" lon="-8.168648">
        <ele>428.597</ele>
        <time>2018-07-21T04:48:35Z</time>
      </trkpt>
      <trkpt lat="42.428259" lon="-8.168697">
        <ele>428.936</ele>
        <time>2018-07-21T04:48:55Z</time>
      </trkpt>
      <trkpt lat="42.428368" lon="-8.168810">
        <ele>429.717</ele>
        <time>2018-07-21T04:49:15Z</time>
      </trkpt>
      <trkpt lat="42.428718" lon="-8.169182">
        <ele>426.818</ele>
        <time>2018-07-21T04:49:35Z</time>
      </trkpt>
      <trkpt lat="42.429133" lon="-8.169273">
        <ele>429.008</ele>
        <time>2018-07-21T04:49:55Z</time>
      </trkpt>
      <trkpt lat="42.429206" lon="-8.169291">
        <ele>429.135</ele>
        <time>2018-07-21T04:50:15Z</time>
      </trkpt>
      <trkpt lat="42.429802" lon="-8.169670">
        <ele>424.279</ele>
        <time>2018-07-21T04:50:35Z</time>
      </trkpt>
      <trkpt lat="42.430096" lon="-8.169950">
        <ele>421.550</ele>
        <time>2018-07-21T04:50:55Z</time>
      </trkpt>
      <trkpt lat="42.430339" lon="-8.170503">
        <ele>417.977</ele>
        <time>2018-07-21T04:51:15Z</time>
      </trkpt>
      <trkpt lat="42.430613" lon="-8.171083">
        <ele>416.552</ele>
        <time>2018-07-21T04:51:35Z</time>
      </trkpt>
      <trkpt lat="42.430830" lon="-8.171996">
        <ele>408.062</ele>
        <time>2018-07-21T04:51:55Z</time>
      </trkpt>
      <trkpt lat="42.431054" lon="-8.172233">
        <ele>403.337</ele>
        <time>2018-07-21T04:52:15Z</time>
      </trkpt>
      <trkpt lat="42.431543" lon="-8.172010">
        <ele>393.323</ele>
        <time>2018-07-21T04:52:35Z</time>
      </trkpt>
      <trkpt lat="42.431540" lon="-8.171971">
        <ele>393.824</ele>
        <time>2018-07-21T04:52:55Z</time>
      </trkpt>
      <trkpt lat="42.431547" lon="-8.171945">
        <ele>393.904</ele>
        <time>2018-07-21T04:53:15Z</time>
      </trkpt>
      <trkpt lat="42.432179" lon="-8.171350">
        <ele>387.914</ele>
        <time>2018-07-21T04:53:35Z</time>
      </trkpt>
      <trkpt lat="42.432195" lon="-8.171333">
        <ele>387.808</ele>
        <time>2018-07-21T04:53:55Z</time>
      </trkpt>
      <trkpt lat="42.432239" lon="-8.171284">
        <ele>387.534</ele>
        <time>2018-07-21T04:54:15Z</time>
      </trkpt>
      <trkpt lat="42.432687" lon="-8.171053">
        <ele>385.498</ele>
        <time>2018-07-21T04:54:35Z</time>
      </trkpt>
      <trkpt lat="42.432884" lon="-8.171212">
        <ele>381.939</ele>
        <time>2018-07-21T04:54:55Z</time>
      </trkpt>
      <trkpt lat="42.433431" lon="-8.171674">
        <ele>374.626</ele>
        <time>2018-07-21T04:55:15Z</time>
      </trkpt>
      <trkpt lat="42.433511" lon="-8.171732">
        <ele>374.321</ele>
        <time>2018-07-21T04:55:35Z</time>
      </trkpt>
      <trkpt lat="42.434138" lon="-8.172202">
        <ele>363.391</ele>
        <time>2018-07-21T04:55:55Z</time>
      </trkpt>
      <trkpt lat="42.434547" lon="-8.172328">
        <ele>361.616</ele>
        <time>2018-07-21T04:56:15Z</time>
      </trkpt>
      <trkpt lat="42.434991" lon="-8.172367">
        <ele>362.412</ele>
        <time>2018-07-21T04:56:35Z</time>
      </trkpt>
      <trkpt lat="42.435389" lon="-8.172531">
        <ele>358.254</ele>
        <time>2018-07-21T04:56:55Z</time>
      </trkpt>
      <trkpt lat="42.435741" lon="-8.172709">
        <ele>356.256</ele>
        <time>2018-07-21T04:57:15Z</time>
      </trkpt>
      <trkpt lat="42.435819" lon="-8.172883">
        <ele>355.411</ele>
        <time>2018-07-21T04:57:35Z</time>
      </trkpt>
      <trkpt lat="42.435774" lon="-8.173211">
        <ele>353.908</ele>
        <time>2018-07-21T04:57:55Z</time>
      </trkpt>
      <trkpt lat="42.435746" lon="-8.173608">
        <ele>353.227</ele>
        <time>2018-07-21T04:58:15Z</time>
      </trkpt>
      <trkpt lat="42.435780" lon="-8.174062">
        <ele>353.561</ele>
        <time>2018-07-21T04:58:35Z</time>
      </trkpt>
      <trkpt lat="42.435669" lon="-8.174330">
        <ele>349.952</ele>
        <time>2018-07-21T04:58:55Z</time>
      </trkpt>
      <trkpt lat="42.435571" lon="-8.173857">
        <ele>345.679</ele>
        <time>2018-07-21T04:59:15Z</time>
      </trkpt>
      <trkpt lat="42.435593" lon="-8.173431">
        <ele>347.744</ele>
        <time>2018-07-21T04:59:35Z</time>
      </trkpt>
      <trkpt lat="42.435585" lon="-8.173401">
        <ele>347.514</ele>
        <time>2018-07-21T04:59:55Z</time>
      </trkpt>
      <trkpt lat="42.435511" lon="-8.173205">
        <ele>347.989</ele>
        <time>2018-07-21T05:00:15Z</time>
      </trkpt>
      <trkpt lat="42.435155" lon="-8.173440">
        <ele>341.865</ele>
        <time>2018-07-21T05:00:35Z</time>
      </trkpt>
      <trkpt lat="42.434898" lon="-8.173875">
        <ele>332.326</ele>
        <time>2018-07-21T05:00:55Z</time>
      </trkpt>
      <trkpt lat="42.434885" lon="-8.174328">
        <ele>324.547</ele>
        <time>2018-07-21T05:01:15Z</time>
      </trkpt>
      <trkpt lat="42.434916" lon="-8.174756">
        <ele>318.811</ele>
        <time>2018-07-21T05:01:35Z</time>
      </trkpt>
      <trkpt lat="42.434941" lon="-8.175371">
        <ele>311.208</ele>
        <time>2018-07-21T05:01:55Z</time>
      </trkpt>
      <trkpt lat="42.435065" lon="-8.175959">
        <ele>308.654</ele>
        <time>2018-07-21T05:02:15Z</time>
      </trkpt>
      <trkpt lat="42.435324" lon="-8.176663">
        <ele>300.918</ele>
        <time>2018-07-21T05:02:35Z</time>
      </trkpt>
      <trkpt lat="42.435586" lon="-8.177171">
        <ele>300.289</ele>
        <time>2018-07-21T05:02:55Z</time>
      </trkpt>
      <trkpt lat="42.435586" lon="-8.177372">
        <ele>303.226</ele>
        <time>2018-07-21T05:03:15Z</time>
      </trkpt>
      <trkpt lat="42.434938" lon="-8.177277">
        <ele>309.381</ele>
        <time>2018-07-21T05:03:35Z</time>
      </trkpt>
      <trkpt lat="42.434767" lon="-8.177087">
        <ele>309.421</ele>
        <time>2018-07-21T05:03:55Z</time>
      </trkpt>
      <trkpt lat="42.434643" lon="-8.176835">
        <ele>308.376</ele>
        <time>2018-07-21T05:04:15Z</time>
      </trkpt>
      <trkpt lat="42.434196" lon="-8.176482">
        <ele>312.692</ele>
        <time>2018-07-21T05:04:35Z</time>
      </trkpt>
      <trkpt lat="42.433851" lon="-8.176364">
        <ele>311.732</ele>
        <time>2018-07-21T05:04:55Z</time>
      </trkpt>
      <trkpt lat="42.433775" lon="-8.176483">
        <ele>311.692</ele>
        <time>2018-07-21T05:05:15Z</time>
      </trkpt>
      <trkpt lat="42.433662" lon="-8.176716">
        <ele>313.611</ele>
        <time>2018-07-21T05:05:35Z</time>
      </trkpt>
      <trkpt lat="42.433468" lon="-8.176863">
        <ele>314.408</ele>
        <time>2018-07-21T05:05:55Z</time>
      </trkpt>
      <trkpt lat="42.433259" lon="-8.177022">
        <ele>317.475</ele>
        <time>2018-07-21T05:06:15Z</time>
      </trkpt>
      <trkpt lat="42.432954" lon="-8.177202">
        <ele>322.959</ele>
        <time>2018-07-21T05:06:35Z</time>
      </trkpt>
      <trkpt lat="42.432777" lon="-8.177441">
        <ele>329.320</ele>
        <time>2018-07-21T05:06:55Z</time>
      </trkpt>
      <trkpt lat="42.432793" lon="-8.177535">
        <ele>332.277</ele>
        <time>2018-07-21T05:07:15Z</time>
      </trkpt>
      <trkpt lat="42.433107" lon="-8.177486">
        <ele>334.412</ele>
        <time>2018-07-21T05:07:35Z</time>
      </trkpt>
      <trkpt lat="42.433167" lon="-8.177471">
        <ele>334.922</ele>
        <time>2018-07-21T05:07:55Z</time>
      </trkpt>
      <trkpt lat="42.433388" lon="-8.177514">
        <ele>339.997</ele>
        <time>2018-07-21T05:08:15Z</time>
      </trkpt>
      <trkpt lat="42.433665" lon="-8.177586">
        <ele>343.673</ele>
        <time>2018-07-21T05:08:35Z</time>
      </trkpt>
      <trkpt lat="42.433837" lon="-8.177775">
        <ele>349.197</ele>
        <time>2018-07-21T05:08:55Z</time>
      </trkpt>
      <trkpt lat="42.433875" lon="-8.177803">
        <ele>350.023</ele>
        <time>2018-07-21T05:09:15Z</time>
      </trkpt>
      <trkpt lat="42.434182" lon="-8.178018">
        <ele>356.225</ele>
        <time>2018-07-21T05:09:35Z</time>
      </trkpt>
      <trkpt lat="42.434500" lon="-8.178330">
        <ele>364.608</ele>
        <time>2018-07-21T05:09:55Z</time>
      </trkpt>
      <trkpt lat="42.434605" lon="-8.178523">
        <ele>369.421</ele>
        <time>2018-07-21T05:10:15Z</time>
      </trkpt>
      <trkpt lat="42.434755" lon="-8.178575">
        <ele>367.945</ele>
        <time>2018-07-21T05:10:35Z</time>
      </trkpt>
      <trkpt lat="42.435133" lon="-8.178717">
        <ele>363.886</ele>
        <time>2018-07-21T05:10:55Z</time>
      </trkpt>
      <trkpt lat="42.435336" lon="-8.178885">
        <ele>365.213</ele>
        <time>2018-07-21T05:11:15Z</time>
      </trkpt>
      <trkpt lat="42.435571" lon="-8.179055">
        <ele>370.828</ele>
        <time>2018-07-21T05:11:35Z</time>
      </trkpt>
      <trkpt lat="42.435870" lon="-8.179228">
        <ele>377.658</ele>
        <time>2018-07-21T05:11:55Z</time>
      </trkpt>
      <trkpt lat="42.436166" lon="-8.179358">
        <ele>378.623</ele>
        <time>2018-07-21T05:12:15Z</time>
      </trkpt>
      <trkpt lat="42.436355" lon="-8.179517">
        <ele>382.859</ele>
        <time>2018-07-21T05:12:35Z</time>
      </trkpt>
      <trkpt lat="42.436574" lon="-8.179765">
        <ele>387.445</ele>
        <time>2018-07-21T05:12:55Z</time>
      </trkpt>
      <trkpt lat="42.436766" lon="-8.179960">
        <ele>387.247</ele>
        <time>2018-07-21T05:13:15Z</time>
      </trkpt>
      <trkpt lat="42.436733" lon="-8.180465">
        <ele>402.711</ele>
        <time>2018-07-21T05:13:35Z</time>
      </trkpt>
      <trkpt lat="42.437134" lon="-8.180937">
        <ele>394.908</ele>
        <time>2018-07-21T05:13:55Z</time>
      </trkpt>
      <trkpt lat="42.437226" lon="-8.181354">
        <ele>397.536</ele>
        <time>2018-07-21T05:14:15Z</time>
      </trkpt>
      <trkpt lat="42.437497" lon="-8.181841">
        <ele>396.230</ele>
        <time>2018-07-21T05:14:35Z</time>
      </trkpt>
      <trkpt lat="42.437524" lon="-8.182273">
        <ele>403.961</ele>
        <time>2018-07-21T05:14:55Z</time>
      </trkpt>
      <trkpt lat="42.437633" lon="-8.182780">
        <ele>412.388</ele>
        <time>2018-07-21T05:15:15Z</time>
      </trkpt>
      <trkpt lat="42.437814" lon="-8.183229">
        <ele>416.713</ele>
        <time>2018-07-21T05:15:35Z</time>
      </trkpt>
      <trkpt lat="42.438081" lon="-8.183584">
        <ele>419.723</ele>
        <time>2018-07-21T05:15:55Z</time>
      </trkpt>
      <trkpt lat="42.438189" lon="-8.184121">
        <ele>423.938</ele>
        <time>2018-07-21T05:16:15Z</time>
      </trkpt>
      <trkpt lat="42.438460" lon="-8.184798">
        <ele>423.844</ele>
        <time>2018-07-21T05:16:35Z</time>
      </trkpt>
      <trkpt lat="42.438723" lon="-8.185222">
        <ele>426.686</ele>
        <time>2018-07-21T05:16:55Z</time>
      </trkpt>
      <trkpt lat="42.438978" lon="-8.185464">
        <ele>427.760</ele>
        <time>2018-07-21T05:17:15Z</time>
      </trkpt>
      <trkpt lat="42.439349" lon="-8.185696">
        <ele>429.426</ele>
        <time>2018-07-21T05:17:35Z</time>
      </trkpt>
      <trkpt lat="42.439759" lon="-8.185881">
        <ele>430.508</ele>
        <time>2018-07-21T05:17:55Z</time>
      </trkpt>
      <trkpt lat="42.440124" lon="-8.185986">
        <ele>438.440</ele>
        <time>2018-07-21T05:18:15Z</time>
      </trkpt>
      <trkpt lat="42.440328" lon="-8.186226">
        <ele>441.084</ele>
        <time>2018-07-21T05:18:35Z</time>
      </trkpt>
      <trkpt lat="42.440471" lon="-8.186365">
        <ele>441.965</ele>
        <time>2018-07-21T05:18:55Z</time>
      </trkpt>
      <trkpt lat="42.440520" lon="-8.186593">
        <ele>440.512</ele>
        <time>2018-07-21T05:19:15Z</time>
      </trkpt>
      <trkpt lat="42.440618" lon="-8.186749">
        <ele>441.297</ele>
        <time>2018-07-21T05:19:35Z</time>
      </trkpt>
      <trkpt lat="42.440855" lon="-8.186854">
        <ele>444.967</ele>
        <time>2018-07-21T05:19:55Z</time>
      </trkpt>
      <trkpt lat="42.441170" lon="-8.187020">
        <ele>446.092</ele>
        <time>2018-07-21T05:20:15Z</time>
      </trkpt>
      <trkpt lat="42.441370" lon="-8.187321">
        <ele>445.668</ele>
        <time>2018-07-21T05:20:35Z</time>
      </trkpt>
      <trkpt lat="42.441481" lon="-8.188032">
        <ele>449.629</ele>
        <time>2018-07-21T05:20:55Z</time>
      </trkpt>
      <trkpt lat="42.441546" lon="-8.188339">
        <ele>451.200</ele>
        <time>2018-07-21T05:21:15Z</time>
      </trkpt>
      <trkpt lat="42.441641" lon="-8.188683">
        <ele>452.820</ele>
        <time>2018-07-21T05:21:35Z</time>
      </trkpt>
      <trkpt lat="42.441616" lon="-8.188971">
        <ele>452.008</ele>
        <time>2018-07-21T05:21:55Z</time>
      </trkpt>
      <trkpt lat="42.441617" lon="-8.189487">
        <ele>449.084</ele>
        <time>2018-07-21T05:22:15Z</time>
      </trkpt>
      <trkpt lat="42.441624" lon="-8.189520">
        <ele>449.018</ele>
        <time>2018-07-21T05:22:35Z</time>
      </trkpt>
      <trkpt lat="42.441613" lon="-8.190190">
        <ele>450.679</ele>
        <time>2018-07-21T05:22:55Z</time>
      </trkpt>
      <trkpt lat="42.441590" lon="-8.190537">
        <ele>452.926</ele>
        <time>2018-07-21T05:23:15Z</time>
      </trkpt>
      <trkpt lat="42.441681" lon="-8.190908">
        <ele>455.151</ele>
        <time>2018-07-21T05:23:35Z</time>
      </trkpt>
      <trkpt lat="42.441883" lon="-8.191320">
        <ele>455.231</ele>
        <time>2018-07-21T05:23:55Z</time>
      </trkpt>
      <trkpt lat="42.441896" lon="-8.191352">
        <ele>455.166</ele>
        <time>2018-07-21T05:24:15Z</time>
      </trkpt>
      <trkpt lat="42.442009" lon="-8.191724">
        <ele>455.652</ele>
        <time>2018-07-21T05:24:35Z</time>
      </trkpt>
      <trkpt lat="42.442157" lon="-8.192081">
        <ele>456.877</ele>
        <time>2018-07-21T05:24:55Z</time>
      </trkpt>
      <trkpt lat="42.442286" lon="-8.192396">
        <ele>458.561</ele>
        <time>2018-07-21T05:25:15Z</time>
      </trkpt>
      <trkpt lat="42.442443" lon="-8.192904">
        <ele>460.727</ele>
        <time>2018-07-21T05:25:35Z</time>
      </trkpt>
      <trkpt lat="42.442291" lon="-8.193363">
        <ele>459.208</ele>
        <time>2018-07-21T05:25:55Z</time>
      </trkpt>
      <trkpt lat="42.442070" lon="-8.193683">
        <ele>458.619</ele>
        <time>2018-07-21T05:26:15Z</time>
      </trkpt>
      <trkpt lat="42.441855" lon="-8.193972">
        <ele>458.053</ele>
        <time>2018-07-21T05:26:35Z</time>
      </trkpt>
      <trkpt lat="42.441646" lon="-8.194323">
        <ele>459.244</ele>
        <time>2018-07-21T05:26:55Z</time>
      </trkpt>
      <trkpt lat="42.441421" lon="-8.194654">
        <ele>462.461</ele>
        <time>2018-07-21T05:27:15Z</time>
      </trkpt>
      <trkpt lat="42.441269" lon="-8.194949">
        <ele>463.456</ele>
        <time>2018-07-21T05:27:35Z</time>
      </trkpt>
      <trkpt lat="42.441277" lon="-8.194977">
        <ele>463.576</ele>
        <time>2018-07-21T05:27:55Z</time>
      </trkpt>
      <trkpt lat="42.441182" lon="-8.195250">
        <ele>463.571</ele>
        <time>2018-07-21T05:28:15Z</time>
      </trkpt>
      <trkpt lat="42.441144" lon="-8.195555">
        <ele>463.297</ele>
        <time>2018-07-21T05:28:35Z</time>
      </trkpt>
      <trkpt lat="42.441103" lon="-8.195952">
        <ele>464.449</ele>
        <time>2018-07-21T05:28:55Z</time>
      </trkpt>
      <trkpt lat="42.441169" lon="-8.196315">
        <ele>465.602</ele>
        <time>2018-07-21T05:29:15Z</time>
      </trkpt>
      <trkpt lat="42.441361" lon="-8.196728">
        <ele>468.622</ele>
        <time>2018-07-21T05:29:35Z</time>
      </trkpt>
      <trkpt lat="42.441560" lon="-8.197221">
        <ele>471.508</ele>
        <time>2018-07-21T05:29:55Z</time>
      </trkpt>
      <trkpt lat="42.441866" lon="-8.197680">
        <ele>473.546</ele>
        <time>2018-07-21T05:30:15Z</time>
      </trkpt>
      <trkpt lat="42.442085" lon="-8.197850">
        <ele>474.480</ele>
        <time>2018-07-21T05:30:35Z</time>
      </trkpt>
      <trkpt lat="42.442235" lon="-8.198046">
        <ele>473.131</ele>
        <time>2018-07-21T05:30:55Z</time>
      </trkpt>
      <trkpt lat="42.442455" lon="-8.198197">
        <ele>472.888</ele>
        <time>2018-07-21T05:31:15Z</time>
      </trkpt>
      <trkpt lat="42.442547" lon="-8.198399">
        <ele>471.743</ele>
        <time>2018-07-21T05:31:35Z</time>
      </trkpt>
      <trkpt lat="42.442550" lon="-8.198408">
        <ele>471.753</ele>
        <time>2018-07-21T05:31:55Z</time>
      </trkpt>
      <trkpt lat="42.442605" lon="-8.198904">
        <ele>469.228</ele>
        <time>2018-07-21T05:32:15Z</time>
      </trkpt>
      <trkpt lat="42.442788" lon="-8.199576">
        <ele>464.644</ele>
        <time>2018-07-21T05:32:35Z</time>
      </trkpt>
      <trkpt lat="42.442892" lon="-8.200064">
        <ele>464.732</ele>
        <time>2018-07-21T05:32:55Z</time>
      </trkpt>
      <trkpt lat="42.442969" lon="-8.200510">
        <ele>464.692</ele>
        <time>2018-07-21T05:33:15Z</time>
      </trkpt>
      <trkpt lat="42.443057" lon="-8.201053">
        <ele>465.011</ele>
        <time>2018-07-21T05:33:35Z</time>
      </trkpt>
      <trkpt lat="42.443073" lon="-8.201556">
        <ele>464.608</ele>
        <time>2018-07-21T05:33:55Z</time>
      </trkpt>
      <trkpt lat="42.442980" lon="-8.202166">
        <ele>467.945</ele>
        <time>2018-07-21T05:34:15Z</time>
      </trkpt>
      <trkpt lat="42.442864" lon="-8.203109">
        <ele>470.669</ele>
        <time>2018-07-21T05:34:35Z</time>
      </trkpt>
      <trkpt lat="42.442686" lon="-8.204452">
        <ele>468.780</ele>
        <time>2018-07-21T05:34:55Z</time>
      </trkpt>
      <trkpt lat="42.442691" lon="-8.204467">
        <ele>468.767</ele>
        <time>2018-07-21T05:35:15Z</time>
      </trkpt>
      <trkpt lat="42.442550" lon="-8.205371">
        <ele>469.052</ele>
        <time>2018-07-21T05:35:35Z</time>
      </trkpt>
      <trkpt lat="42.442514" lon="-8.205680">
        <ele>469.482</ele>
        <time>2018-07-21T05:35:55Z</time>
      </trkpt>
      <trkpt lat="42.442521" lon="-8.205697">
        <ele>469.557</ele>
        <time>2018-07-21T05:36:15Z</time>
      </trkpt>
      <trkpt lat="42.442494" lon="-8.206288">
        <ele>473.363</ele>
        <time>2018-07-21T05:36:35Z</time>
      </trkpt>
      <trkpt lat="42.442312" lon="-8.207123">
        <ele>478.389</ele>
        <time>2018-07-21T05:36:55Z</time>
      </trkpt>
      <trkpt lat="42.442154" lon="-8.207240">
        <ele>479.006</ele>
        <time>2018-07-21T05:37:15Z</time>
      </trkpt>
      <trkpt lat="42.442015" lon="-8.207505">
        <ele>479.326</ele>
        <time>2018-07-21T05:37:35Z</time>
      </trkpt>
      <trkpt lat="42.442043" lon="-8.207689">
        <ele>480.508</ele>
        <time>2018-07-21T05:37:55Z</time>
      </trkpt>
      <trkpt lat="42.442087" lon="-8.208060">
        <ele>483.610</ele>
        <time>2018-07-21T05:38:15Z</time>
      </trkpt>
      <trkpt lat="42.442097" lon="-8.208606">
        <ele>489.034</ele>
        <time>2018-07-21T05:38:35Z</time>
      </trkpt>
      <trkpt lat="42.442192" lon="-8.208828">
        <ele>491.435</ele>
        <time>2018-07-21T05:38:55Z</time>
      </trkpt>
      <trkpt lat="42.442406" lon="-8.209100">
        <ele>492.892</ele>
        <time>2018-07-21T05:39:15Z</time>
      </trkpt>
      <trkpt lat="42.442467" lon="-8.209362">
        <ele>494.497</ele>
        <time>2018-07-21T05:39:35Z</time>
      </trkpt>
      <trkpt lat="42.442405" lon="-8.209692">
        <ele>496.887</ele>
        <time>2018-07-21T05:39:55Z</time>
      </trkpt>
      <trkpt lat="42.442329" lon="-8.209954">
        <ele>498.752</ele>
        <time>2018-07-21T05:40:15Z</time>
      </trkpt>
      <trkpt lat="42.442212" lon="-8.210215">
        <ele>501.338</ele>
        <time>2018-07-21T05:40:35Z</time>
      </trkpt>
      <trkpt lat="42.442093" lon="-8.210594">
        <ele>505.157</ele>
        <time>2018-07-21T05:40:55Z</time>
      </trkpt>
      <trkpt lat="42.442087" lon="-8.210603">
        <ele>505.300</ele>
        <time>2018-07-21T05:41:15Z</time>
      </trkpt>
      <trkpt lat="42.441960" lon="-8.210907">
        <ele>510.720</ele>
        <time>2018-07-21T05:41:35Z</time>
      </trkpt>
      <trkpt lat="42.441815" lon="-8.211062">
        <ele>512.308</ele>
        <time>2018-07-21T05:41:55Z</time>
      </trkpt>
      <trkpt lat="42.441787" lon="-8.211374">
        <ele>515.867</ele>
        <time>2018-07-21T05:42:15Z</time>
      </trkpt>
      <trkpt lat="42.441808" lon="-8.211495">
        <ele>516.851</ele>
        <time>2018-07-21T05:42:35Z</time>
      </trkpt>
      <trkpt lat="42.441644" lon="-8.211741">
        <ele>519.042</ele>
        <time>2018-07-21T05:42:55Z</time>
      </trkpt>
      <trkpt lat="42.441361" lon="-8.212036">
        <ele>522.879</ele>
        <time>2018-07-21T05:43:15Z</time>
      </trkpt>
      <trkpt lat="42.441187" lon="-8.212323">
        <ele>526.624</ele>
        <time>2018-07-21T05:43:35Z</time>
      </trkpt>
      <trkpt lat="42.440972" lon="-8.212658">
        <ele>529.824</ele>
        <time>2018-07-21T05:43:55Z</time>
      </trkpt>
      <trkpt lat="42.440967" lon="-8.212678">
        <ele>530.199</ele>
        <time>2018-07-21T05:44:15Z</time>
      </trkpt>
      <trkpt lat="42.440836" lon="-8.213047">
        <ele>533.975</ele>
        <time>2018-07-21T05:44:35Z</time>
      </trkpt>
      <trkpt lat="42.440839" lon="-8.213063">
        <ele>534.246</ele>
        <time>2018-07-21T05:44:55Z</time>
      </trkpt>
      <trkpt lat="42.440876" lon="-8.213291">
        <ele>538.588</ele>
        <time>2018-07-21T05:45:15Z</time>
      </trkpt>
      <trkpt lat="42.440891" lon="-8.213284">
        <ele>538.716</ele>
        <time>2018-07-21T05:45:35Z</time>
      </trkpt>
      <trkpt lat="42.441157" lon="-8.213369">
        <ele>546.208</ele>
        <time>2018-07-21T05:45:55Z</time>
      </trkpt>
      <trkpt lat="42.441334" lon="-8.213405">
        <ele>549.056</ele>
        <time>2018-07-21T05:46:15Z</time>
      </trkpt>
      <trkpt lat="42.441520" lon="-8.213618">
        <ele>551.670</ele>
        <time>2018-07-21T05:46:35Z</time>
      </trkpt>
      <trkpt lat="42.441750" lon="-8.213975">
        <ele>554.721</ele>
        <time>2018-07-21T05:46:55Z</time>
      </trkpt>
      <trkpt lat="42.441757" lon="-8.214005">
        <ele>555.298</ele>
        <time>2018-07-21T05:47:15Z</time>
      </trkpt>
      <trkpt lat="42.442048" lon="-8.214453">
        <ele>561.723</ele>
        <time>2018-07-21T05:47:35Z</time>
      </trkpt>
      <trkpt lat="42.442192" lon="-8.214765">
        <ele>565.233</ele>
        <time>2018-07-21T05:47:55Z</time>
      </trkpt>
      <trkpt lat="42.442208" lon="-8.214778">
        <ele>565.298</ele>
        <time>2018-07-21T05:48:15Z</time>
      </trkpt>
      <trkpt lat="42.442307" lon="-8.215018">
        <ele>568.864</ele>
        <time>2018-07-21T05:48:35Z</time>
      </trkpt>
      <trkpt lat="42.442264" lon="-8.215243">
        <ele>573.916</ele>
        <time>2018-07-21T05:48:55Z</time>
      </trkpt>
      <trkpt lat="42.442316" lon="-8.215252">
        <ele>573.876</ele>
        <time>2018-07-21T05:49:15Z</time>
      </trkpt>
      <trkpt lat="42.442615" lon="-8.215444">
        <ele>576.413</ele>
        <time>2018-07-21T05:49:35Z</time>
      </trkpt>
      <trkpt lat="42.443014" lon="-8.215764">
        <ele>579.408</ele>
        <time>2018-07-21T05:49:55Z</time>
      </trkpt>
      <trkpt lat="42.443341" lon="-8.216101">
        <ele>582.883</ele>
        <time>2018-07-21T05:50:15Z</time>
      </trkpt>
      <trkpt lat="42.443342" lon="-8.216109">
        <ele>582.977</ele>
        <time>2018-07-21T05:50:35Z</time>
      </trkpt>
      <trkpt lat="42.443709" lon="-8.216351">
        <ele>589.878</ele>
        <time>2018-07-21T05:50:55Z</time>
      </trkpt>
      <trkpt lat="42.443747" lon="-8.216356">
        <ele>589.975</ele>
        <time>2018-07-21T05:51:15Z</time>
      </trkpt>
      <trkpt lat="42.444392" lon="-8.216486">
        <ele>596.570</ele>
        <time>2018-07-21T05:51:35Z</time>
      </trkpt>
      <trkpt lat="42.444430" lon="-8.216475">
        <ele>596.410</ele>
        <time>2018-07-21T05:51:55Z</time>
      </trkpt>
      <trkpt lat="42.444509" lon="-8.216479">
        <ele>597.145</ele>
        <time>2018-07-21T05:52:15Z</time>
      </trkpt>
      <trkpt lat="42.444537" lon="-8.216489">
        <ele>597.591</ele>
        <time>2018-07-21T05:52:35Z</time>
      </trkpt>
      <trkpt lat="42.445353" lon="-8.216880">
        <ele>609.042</ele>
        <time>2018-07-21T05:52:55Z</time>
      </trkpt>
      <trkpt lat="42.446032" lon="-8.217004">
        <ele>613.422</ele>
        <time>2018-07-21T05:53:15Z</time>
      </trkpt>
      <trkpt lat="42.446065" lon="-8.217016">
        <ele>614.014</ele>
        <time>2018-07-21T05:53:35Z</time>
      </trkpt>
      <trkpt lat="42.446462" lon="-8.217121">
        <ele>619.208</ele>
        <time>2018-07-21T05:53:55Z</time>
      </trkpt>
      <trkpt lat="42.446512" lon="-8.217121">
        <ele>619.536</ele>
        <time>2018-07-21T05:54:15Z</time>
      </trkpt>
      <trkpt lat="42.447109" lon="-8.217114">
        <ele>625.290</ele>
        <time>2018-07-21T05:54:35Z</time>
      </trkpt>
      <trkpt lat="42.447139" lon="-8.217107">
        <ele>625.311</ele>
        <time>2018-07-21T05:54:55Z</time>
      </trkpt>
      <trkpt lat="42.447350" lon="-8.217185">
        <ele>630.758</ele>
        <time>2018-07-21T05:55:15Z</time>
      </trkpt>
      <trkpt lat="42.447150" lon="-8.217507">
        <ele>635.483</ele>
        <time>2018-07-21T05:55:35Z</time>
      </trkpt>
      <trkpt lat="42.446913" lon="-8.217561">
        <ele>634.353</ele>
        <time>2018-07-21T05:55:55Z</time>
      </trkpt>
      <trkpt lat="42.446520" lon="-8.217778">
        <ele>638.158</ele>
        <time>2018-07-21T05:56:15Z</time>
      </trkpt>
      <trkpt lat="42.446598" lon="-8.217968">
        <ele>640.774</ele>
        <time>2018-07-21T05:56:35Z</time>
      </trkpt>
      <trkpt lat="42.446680" lon="-8.218101">
        <ele>642.429</ele>
        <time>2018-07-21T05:56:55Z</time>
      </trkpt>
      <trkpt lat="42.447050" lon="-8.218140">
        <ele>646.100</ele>
        <time>2018-07-21T05:57:15Z</time>
      </trkpt>
      <trkpt lat="42.447399" lon="-8.217947">
        <ele>647.820</ele>
        <time>2018-07-21T05:57:35Z</time>
      </trkpt>
      <trkpt lat="42.447420" lon="-8.217926">
        <ele>647.808</ele>
        <time>2018-07-21T05:57:55Z</time>
      </trkpt>
      <trkpt lat="42.447805" lon="-8.217758">
        <ele>649.114</ele>
        <time>2018-07-21T05:58:15Z</time>
      </trkpt>
      <trkpt lat="42.448167" lon="-8.217799">
        <ele>654.468</ele>
        <time>2018-07-21T05:58:35Z</time>
      </trkpt>
      <trkpt lat="42.448562" lon="-8.217843">
        <ele>657.739</ele>
        <time>2018-07-21T05:58:55Z</time>
      </trkpt>
      <trkpt lat="42.448821" lon="-8.217839">
        <ele>660.666</ele>
        <time>2018-07-21T05:59:15Z</time>
      </trkpt>
      <trkpt lat="42.449287" lon="-8.218085">
        <ele>670.131</ele>
        <time>2018-07-21T05:59:35Z</time>
      </trkpt>
      <trkpt lat="42.449823" lon="-8.218399">
        <ele>669.221</ele>
        <time>2018-07-21T05:59:55Z</time>
      </trkpt>
      <trkpt lat="42.450472" lon="-8.218553">
        <ele>667.256</ele>
        <time>2018-07-21T06:00:15Z</time>
      </trkpt>
      <trkpt lat="42.451257" lon="-8.218704">
        <ele>666.082</ele>
        <time>2018-07-21T06:00:35Z</time>
      </trkpt>
      <trkpt lat="42.452675" lon="-8.218843">
        <ele>660.948</ele>
        <time>2018-07-21T06:00:55Z</time>
      </trkpt>
      <trkpt lat="42.453788" lon="-8.219045">
        <ele>664.761</ele>
        <time>2018-07-21T06:01:15Z</time>
      </trkpt>
      <trkpt lat="42.454400" lon="-8.219488">
        <ele>664.117</ele>
        <time>2018-07-21T06:01:35Z</time>
      </trkpt>
      <trkpt lat="42.455094" lon="-8.220029">
        <ele>659.808</ele>
        <time>2018-07-21T06:01:55Z</time>
      </trkpt>
      <trkpt lat="42.455720" lon="-8.220005">
        <ele>662.956</ele>
        <time>2018-07-21T06:02:15Z</time>
      </trkpt>
      <trkpt lat="42.455833" lon="-8.219966">
        <ele>663.750</ele>
        <time>2018-07-21T06:02:35Z</time>
      </trkpt>
      <trkpt lat="42.456463" lon="-8.220225">
        <ele>666.491</ele>
        <time>2018-07-21T06:02:55Z</time>
      </trkpt>
      <trkpt lat="42.456900" lon="-8.220429">
        <ele>668.368</ele>
        <time>2018-07-21T06:03:15Z</time>
      </trkpt>
      <trkpt lat="42.457462" lon="-8.220756">
        <ele>665.313</ele>
        <time>2018-07-21T06:03:35Z</time>
      </trkpt>
      <trkpt lat="42.458003" lon="-8.220849">
        <ele>668.763</ele>
        <time>2018-07-21T06:03:55Z</time>
      </trkpt>
      <trkpt lat="42.458679" lon="-8.221192">
        <ele>673.638</ele>
        <time>2018-07-21T06:04:15Z</time>
      </trkpt>
      <trkpt lat="42.459136" lon="-8.221954">
        <ele>681.664</ele>
        <time>2018-07-21T06:04:35Z</time>
      </trkpt>
      <trkpt lat="42.459713" lon="-8.223000">
        <ele>695.732</ele>
        <time>2018-07-21T06:04:55Z</time>
      </trkpt>
      <trkpt lat="42.460092" lon="-8.223792">
        <ele>706.992</ele>
        <time>2018-07-21T06:05:15Z</time>
      </trkpt>
      <trkpt lat="42.460041" lon="-8.224433">
        <ele>709.111</ele>
        <time>2018-07-21T06:05:35Z</time>
      </trkpt>
      <trkpt lat="42.459793" lon="-8.225026">
        <ele>708.908</ele>
        <time>2018-07-21T06:05:55Z</time>
      </trkpt>
      <trkpt lat="42.459740" lon="-8.226236">
        <ele>723.855</ele>
        <time>2018-07-21T06:06:15Z</time>
      </trkpt>
      <trkpt lat="42.459779" lon="-8.226753">
        <ele>730.049</ele>
        <time>2018-07-21T06:06:35Z</time>
      </trkpt>
      <trkpt lat="42.459515" lon="-8.227692">
        <ele>733.360</ele>
        <time>2018-07-21T06:06:55Z</time>
      </trkpt>
      <trkpt lat="42.459511" lon="-8.228303">
        <ele>739.447</ele>
        <time>2018-07-21T06:07:15Z</time>
      </trkpt>
      <trkpt lat="42.459694" lon="-8.229353">
        <ele>749.382</ele>
        <time>2018-07-21T06:07:35Z</time>
      </trkpt>
      <trkpt lat="42.459744" lon="-8.230025">
        <ele>749.762</ele>
        <time>2018-07-21T06:07:55Z</time>
      </trkpt>
      <trkpt lat="42.460305" lon="-8.230637">
        <ele>762.627</ele>
        <time>2018-07-21T06:08:15Z</time>
      </trkpt>
      <trkpt lat="42.461104" lon="-8.231416">
        <ele>781.833</ele>
        <time>2018-07-21T06:08:35Z</time>
      </trkpt>
      <trkpt lat="42.461176" lon="-8.231851">
        <ele>784.128</ele>
        <time>2018-07-21T06:08:55Z</time>
      </trkpt>
      <trkpt lat="42.461063" lon="-8.232451">
        <ele>789.589</ele>
        <time>2018-07-21T06:09:15Z</time>
      </trkpt>
      <trkpt lat="42.460637" lon="-8.232790">
        <ele>789.717</ele>
        <time>2018-07-21T06:09:35Z</time>
      </trkpt>
      <trkpt lat="42.460269" lon="-8.233559">
        <ele>794.708</ele>
        <time>2018-07-21T06:09:55Z</time>
      </trkpt>
      <trkpt lat="42.460169" lon="-8.234436">
        <ele>799.324</ele>
        <time>2018-07-21T06:10:15Z</time>
      </trkpt>
      <trkpt lat="42.459647" lon="-8.234944">
        <ele>800.188</ele>
        <time>2018-07-21T06:10:35Z</time>
      </trkpt>
      <trkpt lat="42.459091" lon="-8.235030">
        <ele>796.539</ele>
        <time>2018-07-21T06:10:55Z</time>
      </trkpt>
      <trkpt lat="42.458693" lon="-8.235034">
        <ele>793.046</ele>
        <time>2018-07-21T06:11:15Z</time>
      </trkpt>
      <trkpt lat="42.458086" lon="-8.235169">
        <ele>788.471</ele>
        <time>2018-07-21T06:11:35Z</time>
      </trkpt>
      <trkpt lat="42.457837" lon="-8.235596">
        <ele>787.891</ele>
        <time>2018-07-21T06:11:55Z</time>
      </trkpt>
      <trkpt lat="42.457571" lon="-8.236141">
        <ele>786.366</ele>
        <time>2018-07-21T06:12:15Z</time>
      </trkpt>
      <trkpt lat="42.457226" lon="-8.236767">
        <ele>786.272</ele>
        <time>2018-07-21T06:12:35Z</time>
      </trkpt>
      <trkpt lat="42.456988" lon="-8.237627">
        <ele>781.211</ele>
        <time>2018-07-21T06:12:55Z</time>
      </trkpt>
      <trkpt lat="42.456629" lon="-8.238088">
        <ele>778.821</ele>
        <time>2018-07-21T06:13:15Z</time>
      </trkpt>
      <trkpt lat="42.456070" lon="-8.238586">
        <ele>775.403</ele>
        <time>2018-07-21T06:13:35Z</time>
      </trkpt>
      <trkpt lat="42.455563" lon="-8.239506">
        <ele>768.608</ele>
        <time>2018-07-21T06:13:55Z</time>
      </trkpt>
      <trkpt lat="42.455492" lon="-8.239724">
        <ele>766.843</ele>
        <time>2018-07-21T06:14:15Z</time>
      </trkpt>
      <trkpt lat="42.455726" lon="-8.239817">
        <ele>766.147</ele>
        <time>2018-07-21T06:14:35Z</time>
      </trkpt>
      <trkpt lat="42.456317" lon="-8.239704">
        <ele>764.848</ele>
        <time>2018-07-21T06:14:55Z</time>
      </trkpt>
      <trkpt lat="42.456360" lon="-8.239688">
        <ele>764.775</ele>
        <time>2018-07-21T06:15:15Z</time>
      </trkpt>
      <trkpt lat="42.456870" lon="-8.239630">
        <ele>761.770</ele>
        <time>2018-07-21T06:15:35Z</time>
      </trkpt>
      <trkpt lat="42.457745" lon="-8.239347">
        <ele>754.140</ele>
        <time>2018-07-21T06:15:55Z</time>
      </trkpt>
      <trkpt lat="42.457845" lon="-8.239310">
        <ele>753.065</ele>
        <time>2018-07-21T06:16:15Z</time>
      </trkpt>
      <trkpt lat="42.458247" lon="-8.239226">
        <ele>748.721</ele>
        <time>2018-07-21T06:16:35Z</time>
      </trkpt>
      <trkpt lat="42.458816" lon="-8.239932">
        <ele>743.788</ele>
        <time>2018-07-21T06:16:55Z</time>
      </trkpt>
      <trkpt lat="42.459146" lon="-8.240497">
        <ele>738.724</ele>
        <time>2018-07-21T06:17:15Z</time>
      </trkpt>
      <trkpt lat="42.459447" lon="-8.240917">
        <ele>736.926</ele>
        <time>2018-07-21T06:17:35Z</time>
      </trkpt>
      <trkpt lat="42.460187" lon="-8.240748">
        <ele>729.608</ele>
        <time>2018-07-21T06:17:55Z</time>
      </trkpt>
      <trkpt lat="42.460544" lon="-8.240652">
        <ele>721.030</ele>
        <time>2018-07-21T06:18:15Z</time>
      </trkpt>
      <trkpt lat="42.460879" lon="-8.240756">
        <ele>716.314</ele>
        <time>2018-07-21T06:18:35Z</time>
      </trkpt>
      <trkpt lat="42.461360" lon="-8.240816">
        <ele>712.625</ele>
        <time>2018-07-21T06:18:55Z</time>
      </trkpt>
      <trkpt lat="42.461814" lon="-8.240602">
        <ele>711.942</ele>
        <time>2018-07-21T06:19:15Z</time>
      </trkpt>
      <trkpt lat="42.462732" lon="-8.240541">
        <ele>701.417</ele>
        <time>2018-07-21T06:19:35Z</time>
      </trkpt>
      <trkpt lat="42.463339" lon="-8.240988">
        <ele>693.167</ele>
        <time>2018-07-21T06:19:55Z</time>
      </trkpt>
      <trkpt lat="42.463705" lon="-8.241072">
        <ele>691.722</ele>
        <time>2018-07-21T06:20:15Z</time>
      </trkpt>
      <trkpt lat="42.463823" lon="-8.241201">
        <ele>688.838</ele>
        <time>2018-07-21T06:20:35Z</time>
      </trkpt>
      <trkpt lat="42.463474" lon="-8.241407">
        <ele>686.433</ele>
        <time>2018-07-21T06:20:55Z</time>
      </trkpt>
      <trkpt lat="42.463357" lon="-8.241540">
        <ele>685.023</ele>
        <time>2018-07-21T06:21:15Z</time>
      </trkpt>
      <trkpt lat="42.463062" lon="-8.241429">
        <ele>681.115</ele>
        <time>2018-07-21T06:21:35Z</time>
      </trkpt>
      <trkpt lat="42.462736" lon="-8.241499">
        <ele>678.508</ele>
        <time>2018-07-21T06:21:55Z</time>
      </trkpt>
      <trkpt lat="42.462455" lon="-8.241708">
        <ele>680.795</ele>
        <time>2018-07-21T06:22:15Z</time>
      </trkpt>
      <trkpt lat="42.462147" lon="-8.241890">
        <ele>680.489</ele>
        <time>2018-07-21T06:22:35Z</time>
      </trkpt>
      <trkpt lat="42.462044" lon="-8.242081">
        <ele>681.060</ele>
        <time>2018-07-21T06:22:55Z</time>
      </trkpt>
      <trkpt lat="42.461904" lon="-8.242650">
        <ele>691.067</ele>
        <time>2018-07-21T06:23:15Z</time>
      </trkpt>
      <trkpt lat="42.461513" lon="-8.243093">
        <ele>696.412</ele>
        <time>2018-07-21T06:23:35Z</time>
      </trkpt>
      <trkpt lat="42.461310" lon="-8.243365">
        <ele>695.232</ele>
        <time>2018-07-21T06:23:55Z</time>
      </trkpt>
      <trkpt lat="42.461237" lon="-8.243666">
        <ele>695.717</ele>
        <time>2018-07-21T06:24:15Z</time>
      </trkpt>
      <trkpt lat="42.461141" lon="-8.244326">
        <ele>697.393</ele>
        <time>2018-07-21T06:24:35Z</time>
      </trkpt>
      <trkpt lat="42.461233" lon="-8.244602">
        <ele>697.684</ele>
        <time>2018-07-21T06:24:55Z</time>
      </trkpt>
      <trkpt lat="42.461883" lon="-8.245009">
        <ele>706.707</ele>
        <time>2018-07-21T06:25:15Z</time>
      </trkpt>
      <trkpt lat="42.462432" lon="-8.245104">
        <ele>715.317</ele>
        <time>2018-07-21T06:25:35Z</time>
      </trkpt>
      <trkpt lat="42.462753" lon="-8.245114">
        <ele>719.508</ele>
        <time>2018-07-21T06:25:55Z</time>
      </trkpt>
      <trkpt lat="42.462623" lon="-8.244441">
        <ele>724.930</ele>
        <time>2018-07-21T06:26:15Z</time>
      </trkpt>
      <trkpt lat="42.462635" lon="-8.243740">
        <ele>729.234</ele>
        <time>2018-07-21T06:26:35Z</time>
      </trkpt>
      <trkpt lat="42.462634" lon="-8.243376">
        <ele>728.145</ele>
        <time>2018-07-21T06:26:55Z</time>
      </trkpt>
      <trkpt lat="42.463075" lon="-8.243335">
        <ele>734.122</ele>
        <time>2018-07-21T06:27:15Z</time>
      </trkpt>
      <trkpt lat="42.463276" lon="-8.243516">
        <ele>737.247</ele>
        <time>2018-07-21T06:27:35Z</time>
      </trkpt>
      <trkpt lat="42.463497" lon="-8.243747">
        <ele>740.837</ele>
        <time>2018-07-21T06:27:55Z</time>
      </trkpt>
      <trkpt lat="42.463951" lon="-8.244213">
        <ele>743.582</ele>
        <time>2018-07-21T06:28:15Z</time>
      </trkpt>
      <trkpt lat="42.464406" lon="-8.244459">
        <ele>752.888</ele>
        <time>2018-07-21T06:28:35Z</time>
      </trkpt>
      <trkpt lat="42.464536" lon="-8.244067">
        <ele>758.554</ele>
        <time>2018-07-21T06:28:55Z</time>
      </trkpt>
      <trkpt lat="42.464714" lon="-8.243573">
        <ele>762.256</ele>
        <time>2018-07-21T06:29:15Z</time>
      </trkpt>
      <trkpt lat="42.464954" lon="-8.243249">
        <ele>763.311</ele>
        <time>2018-07-21T06:29:35Z</time>
      </trkpt>
      <trkpt lat="42.464999" lon="-8.243215">
        <ele>763.808</ele>
        <time>2018-07-21T06:29:55Z</time>
      </trkpt>
      <trkpt lat="42.465410" lon="-8.242989">
        <ele>771.567</ele>
        <time>2018-07-21T06:30:15Z</time>
      </trkpt>
      <trkpt lat="42.466189" lon="-8.242556">
        <ele>777.541</ele>
        <time>2018-07-21T06:30:35Z</time>
      </trkpt>
      <trkpt lat="42.466754" lon="-8.242904">
        <ele>788.882</ele>
        <time>2018-07-21T06:30:55Z</time>
      </trkpt>
      <trkpt lat="42.467144" lon="-8.242969">
        <ele>785.389</ele>
        <time>2018-07-21T06:31:15Z</time>
      </trkpt>
      <trkpt lat="42.467639" lon="-8.243541">
        <ele>790.994</ele>
        <time>2018-07-21T06:31:35Z</time>
      </trkpt>
      <trkpt lat="42.468218" lon="-8.243704">
        <ele>789.294</ele>
        <time>2018-07-21T06:31:55Z</time>
      </trkpt>
      <trkpt lat="42.468254" lon="-8.243712">
        <ele>788.989</ele>
        <time>2018-07-21T06:32:15Z</time>
      </trkpt>
      <trkpt lat="42.468807" lon="-8.243950">
        <ele>786.015</ele>
        <time>2018-07-21T06:32:35Z</time>
      </trkpt>
      <trkpt lat="42.470209" lon="-8.244679">
        <ele>788.047</ele>
        <time>2018-07-21T06:32:55Z</time>
      </trkpt>
      <trkpt lat="42.470328" lon="-8.244697">
        <ele>786.329</ele>
        <time>2018-07-21T06:33:15Z</time>
      </trkpt>
      <trkpt lat="42.471387" lon="-8.245394">
        <ele>790.121</ele>
        <time>2018-07-21T06:33:35Z</time>
      </trkpt>
      <trkpt lat="42.471454" lon="-8.246074">
        <ele>798.808</ele>
        <time>2018-07-21T06:33:55Z</time>
      </trkpt>
      <trkpt lat="42.471715" lon="-8.246672">
        <ele>802.626</ele>
        <time>2018-07-21T06:34:15Z</time>
      </trkpt>
      <trkpt lat="42.472183" lon="-8.246800">
        <ele>801.070</ele>
        <time>2018-07-21T06:34:35Z</time>
      </trkpt>
      <trkpt lat="42.472227" lon="-8.246816">
        <ele>801.231</ele>
        <time>2018-07-21T06:34:55Z</time>
      </trkpt>
      <trkpt lat="42.472314" lon="-8.246813">
        <ele>801.238</ele>
        <time>2018-07-21T06:35:15Z</time>
      </trkpt>
      <trkpt lat="42.473387" lon="-8.246711">
        <ele>799.093</ele>
        <time>2018-07-21T06:35:35Z</time>
      </trkpt>
      <trkpt lat="42.473437" lon="-8.246690">
        <ele>798.033</ele>
        <time>2018-07-21T06:35:55Z</time>
      </trkpt>
      <trkpt lat="42.474120" lon="-8.247041">
        <ele>801.358</ele>
        <time>2018-07-21T06:36:15Z</time>
      </trkpt>
      <trkpt lat="42.474755" lon="-8.247007">
        <ele>800.354</ele>
        <time>2018-07-21T06:36:35Z</time>
      </trkpt>
      <trkpt lat="42.474829" lon="-8.246978">
        <ele>799.451</ele>
        <time>2018-07-21T06:36:55Z</time>
      </trkpt>
      <trkpt lat="42.475178" lon="-8.247141">
        <ele>801.501</ele>
        <time>2018-07-21T06:37:15Z</time>
      </trkpt>
      <trkpt lat="42.475976" lon="-8.247739">
        <ele>804.311</ele>
        <time>2018-07-21T06:37:35Z</time>
      </trkpt>
      <trkpt lat="42.476007" lon="-8.247710">
        <ele>803.508</ele>
        <time>2018-07-21T06:37:55Z</time>
      </trkpt>
      <trkpt lat="42.476960" lon="-8.247195">
        <ele>798.757</ele>
        <time>2018-07-21T06:38:15Z</time>
      </trkpt>
      <trkpt lat="42.477540" lon="-8.247031">
        <ele>799.831</ele>
        <time>2018-07-21T06:38:35Z</time>
      </trkpt>
      <trkpt lat="42.477576" lon="-8.247062">
        <ele>800.252</ele>
        <time>2018-07-21T06:38:55Z</time>
      </trkpt>
      <trkpt lat="42.478149" lon="-8.247389">
        <ele>798.799</ele>
        <time>2018-07-21T06:39:15Z</time>
      </trkpt>
      <trkpt lat="42.478811" lon="-8.248011">
        <ele>800.024</ele>
        <time>2018-07-21T06:39:35Z</time>
      </trkpt>
      <trkpt lat="42.479297" lon="-8.247761">
        <ele>797.894</ele>
        <time>2018-07-21T06:39:55Z</time>
      </trkpt>
      <trkpt lat="42.479603" lon="-8.247558">
        <ele>795.829</ele>
        <time>2018-07-21T06:40:15Z</time>
      </trkpt>
      <trkpt lat="42.480337" lon="-8.248041">
        <ele>792.515</ele>
        <time>2018-07-21T06:40:35Z</time>
      </trkpt>
      <trkpt lat="42.480935" lon="-8.248937">
        <ele>791.623</ele>
        <time>2018-07-21T06:40:55Z</time>
      </trkpt>
      <trkpt lat="42.481134" lon="-8.249290">
        <ele>799.583</ele>
        <time>2018-07-21T06:41:15Z</time>
      </trkpt>
      <trkpt lat="42.481515" lon="-8.248973">
        <ele>797.811</ele>
        <time>2018-07-21T06:41:35Z</time>
      </trkpt>
      <trkpt lat="42.482002" lon="-8.248952">
        <ele>797.308</ele>
        <time>2018-07-21T06:41:55Z</time>
      </trkpt>
      <trkpt lat="42.482333" lon="-8.249411">
        <ele>798.044</ele>
        <time>2018-07-21T06:42:15Z</time>
      </trkpt>
      <trkpt lat="42.482540" lon="-8.250085">
        <ele>797.938</ele>
        <time>2018-07-21T06:42:35Z</time>
      </trkpt>
      <trkpt lat="42.483041" lon="-8.250493">
        <ele>796.419</ele>
        <time>2018-07-21T06:42:55Z</time>
      </trkpt>
      <trkpt lat="42.483474" lon="-8.250395">
        <ele>798.596</ele>
        <time>2018-07-21T06:43:15Z</time>
      </trkpt>
      <trkpt lat="42.483470" lon="-8.250372">
        <ele>798.291</ele>
        <time>2018-07-21T06:43:35Z</time>
      </trkpt>
      <trkpt lat="42.484112" lon="-8.249579">
        <ele>795.821</ele>
        <time>2018-07-21T06:43:55Z</time>
      </trkpt>
      <trkpt lat="42.484566" lon="-8.249230">
        <ele>797.556</ele>
        <time>2018-07-21T06:44:15Z</time>
      </trkpt>
      <trkpt lat="42.484800" lon="-8.249163">
        <ele>798.292</ele>
        <time>2018-07-21T06:44:35Z</time>
      </trkpt>
      <trkpt lat="42.485002" lon="-8.249337">
        <ele>799.629</ele>
        <time>2018-07-21T06:44:55Z</time>
      </trkpt>
      <trkpt lat="42.485192" lon="-8.249594">
        <ele>798.100</ele>
        <time>2018-07-21T06:45:15Z</time>
      </trkpt>
      <trkpt lat="42.485319" lon="-8.249928">
        <ele>797.020</ele>
        <time>2018-07-21T06:45:35Z</time>
      </trkpt>
      <trkpt lat="42.485574" lon="-8.250580">
        <ele>799.908</ele>
        <time>2018-07-21T06:45:55Z</time>
      </trkpt>
      <trkpt lat="42.485995" lon="-8.250770">
        <ele>797.934</ele>
        <time>2018-07-21T06:46:15Z</time>
      </trkpt>
      <trkpt lat="42.486354" lon="-8.250833">
        <ele>797.168</ele>
        <time>2018-07-21T06:46:35Z</time>
      </trkpt>
      <trkpt lat="42.486504" lon="-8.250682">
        <ele>794.429</ele>
        <time>2018-07-21T06:46:55Z</time>
      </trkpt>
      <trkpt lat="42.486768" lon="-8.250628">
        <ele>792.976</ele>
        <time>2018-07-21T06:47:15Z</time>
      </trkpt>
      <trkpt lat="42.487084" lon="-8.250749">
        <ele>791.141</ele>
        <time>2018-07-21T06:47:35Z</time>
      </trkpt>
      <trkpt lat="42.487275" lon="-8.250956">
        <ele>791.721</ele>
        <time>2018-07-21T06:47:55Z</time>
      </trkpt>
      <trkpt lat="42.487432" lon="-8.251252">
        <ele>795.036</ele>
        <time>2018-07-21T06:48:15Z</time>
      </trkpt>
      <trkpt lat="42.487676" lon="-8.251460">
        <ele>794.682</ele>
        <time>2018-07-21T06:48:35Z</time>
      </trkpt>
      <trkpt lat="42.488145" lon="-8.251696">
        <ele>795.076</ele>
        <time>2018-07-21T06:48:55Z</time>
      </trkpt>
      <trkpt lat="42.488205" lon="-8.251688">
        <ele>794.390</ele>
        <time>2018-07-21T06:49:15Z</time>
      </trkpt>
      <trkpt lat="42.489420" lon="-8.252355">
        <ele>798.019</ele>
        <time>2018-07-21T06:49:35Z</time>
      </trkpt>
      <trkpt lat="42.490034" lon="-8.252640">
        <ele>798.608</ele>
        <time>2018-07-21T06:49:55Z</time>
      </trkpt>
      <trkpt lat="42.490493" lon="-8.253047">
        <ele>799.679</ele>
        <time>2018-07-21T06:50:15Z</time>
      </trkpt>
      <trkpt lat="42.491058" lon="-8.253319">
        <ele>799.373</ele>
        <time>2018-07-21T06:50:35Z</time>
      </trkpt>
      <trkpt lat="42.491889" lon="-8.253707">
        <ele>800.094</ele>
        <time>2018-07-21T06:50:55Z</time>
      </trkpt>
      <trkpt lat="42.492732" lon="-8.254063">
        <ele>801.971</ele>
        <time>2018-07-21T06:51:15Z</time>
      </trkpt>
      <trkpt lat="42.493338" lon="-8.254292">
        <ele>803.446</ele>
        <time>2018-07-21T06:51:35Z</time>
      </trkpt>
      <trkpt lat="42.493763" lon="-8.253678">
        <ele>801.086</ele>
        <time>2018-07-21T06:51:55Z</time>
      </trkpt>
      <trkpt lat="42.493845" lon="-8.253638">
        <ele>800.431</ele>
        <time>2018-07-21T06:52:15Z</time>
      </trkpt>
      <trkpt lat="42.494288" lon="-8.253075">
        <ele>800.427</ele>
        <time>2018-07-21T06:52:35Z</time>
      </trkpt>
      <trkpt lat="42.494910" lon="-8.252807">
        <ele>803.673</ele>
        <time>2018-07-21T06:52:55Z</time>
      </trkpt>
      <trkpt lat="42.495465" lon="-8.252689">
        <ele>806.785</ele>
        <time>2018-07-21T06:53:15Z</time>
      </trkpt>
      <trkpt lat="42.496201" lon="-8.252109">
        <ele>808.013</ele>
        <time>2018-07-21T06:53:35Z</time>
      </trkpt>
      <trkpt lat="42.496912" lon="-8.251450">
        <ele>807.008</ele>
        <time>2018-07-21T06:53:55Z</time>
      </trkpt>
      <trkpt lat="42.497576" lon="-8.251126">
        <ele>806.949</ele>
        <time>2018-07-21T06:54:15Z</time>
      </trkpt>
      <trkpt lat="42.497918" lon="-8.251022">
        <ele>807.783</ele>
        <time>2018-07-21T06:54:35Z</time>
      </trkpt>
      <trkpt lat="42.498247" lon="-8.251306">
        <ele>808.914</ele>
        <time>2018-07-21T06:54:55Z</time>
      </trkpt>
      <trkpt lat="42.498823" lon="-8.251779">
        <ele>811.871</ele>
        <time>2018-07-21T06:55:15Z</time>
      </trkpt>
      <trkpt lat="42.499516" lon="-8.252339">
        <ele>814.016</ele>
        <time>2018-07-21T06:55:35Z</time>
      </trkpt>
      <trkpt lat="42.500061" lon="-8.252272">
        <ele>814.226</ele>
        <time>2018-07-21T06:55:55Z</time>
      </trkpt>
      <trkpt lat="42.500732" lon="-8.252357">
        <ele>812.591</ele>
        <time>2018-07-21T06:56:15Z</time>
      </trkpt>
      <trkpt lat="42.500800" lon="-8.252344">
        <ele>813.037</ele>
        <time>2018-07-21T06:56:35Z</time>
      </trkpt>
      <trkpt lat="42.501632" lon="-8.252609">
        <ele>811.774</ele>
        <time>2018-07-21T06:56:55Z</time>
      </trkpt>
      <trkpt lat="42.502404" lon="-8.253204">
        <ele>814.756</ele>
        <time>2018-07-21T06:57:15Z</time>
      </trkpt>
      <trkpt lat="42.503128" lon="-8.253897">
        <ele>818.821</ele>
        <time>2018-07-21T06:57:35Z</time>
      </trkpt>
      <trkpt lat="42.503460" lon="-8.254079">
        <ele>821.708</ele>
        <time>2018-07-21T06:57:55Z</time>
      </trkpt>
      <trkpt lat="42.503920" lon="-8.254398">
        <ele>823.759</ele>
        <time>2018-07-21T06:58:15Z</time>
      </trkpt>
      <trkpt lat="42.504181" lon="-8.255009">
        <ele>825.053</ele>
        <time>2018-07-21T06:58:35Z</time>
      </trkpt>
      <trkpt lat="42.504338" lon="-8.255578">
        <ele>824.834</ele>
        <time>2018-07-21T06:58:55Z</time>
      </trkpt>
      <trkpt lat="42.504791" lon="-8.255968">
        <ele>820.081</ele>
        <time>2018-07-21T06:59:15Z</time>
      </trkpt>
      <trkpt lat="42.505215" lon="-8.256271">
        <ele>820.716</ele>
        <time>2018-07-21T06:59:35Z</time>
      </trkpt>
      <trkpt lat="42.505799" lon="-8.256638">
        <ele>822.746</ele>
        <time>2018-07-21T06:59:55Z</time>
      </trkpt>
      <trkpt lat="42.505839" lon="-8.256403">
        <ele>825.981</ele>
        <time>2018-07-21T07:00:15Z</time>
      </trkpt>
      <trkpt lat="42.505473" lon="-8.256198">
        <ele>824.097</ele>
        <time>2018-07-21T07:00:35Z</time>
      </trkpt>
      <trkpt lat="42.505288" lon="-8.255845">
        <ele>826.988</ele>
        <time>2018-07-21T07:00:55Z</time>
      </trkpt>
      <trkpt lat="42.505256" lon="-8.255820">
        <ele>826.824</ele>
        <time>2018-07-21T07:01:15Z</time>
      </trkpt>
      <trkpt lat="42.504938" lon="-8.255573">
        <ele>825.626</ele>
        <time>2018-07-21T07:01:35Z</time>
      </trkpt>
      <trkpt lat="42.504665" lon="-8.255214">
        <ele>826.108</ele>
        <time>2018-07-21T07:01:55Z</time>
      </trkpt>
      <trkpt lat="42.504639" lon="-8.254762">
        <ele>826.450</ele>
        <time>2018-07-21T07:02:15Z</time>
      </trkpt>
      <trkpt lat="42.504744" lon="-8.254475">
        <ele>827.024</ele>
        <time>2018-07-21T07:02:35Z</time>
      </trkpt>
      <trkpt lat="42.505010" lon="-8.254302">
        <ele>825.555</ele>
        <time>2018-07-21T07:02:55Z</time>
      </trkpt>
      <trkpt lat="42.505638" lon="-8.254036">
        <ele>823.782</ele>
        <time>2018-07-21T07:03:15Z</time>
      </trkpt>
      <trkpt lat="42.506004" lon="-8.253791">
        <ele>823.257</ele>
        <time>2018-07-21T07:03:35Z</time>
      </trkpt>
      <trkpt lat="42.506085" lon="-8.253517">
        <ele>821.887</ele>
        <time>2018-07-21T07:03:55Z</time>
      </trkpt>
      <trkpt lat="42.506088" lon="-8.253192">
        <ele>821.872</ele>
        <time>2018-07-21T07:04:15Z</time>
      </trkpt>
      <trkpt lat="42.505995" lon="-8.252961">
        <ele>822.548</ele>
        <time>2018-07-21T07:04:35Z</time>
      </trkpt>
      <trkpt lat="42.506100" lon="-8.252772">
        <ele>825.035</ele>
        <time>2018-07-21T07:04:55Z</time>
      </trkpt>
      <trkpt lat="42.506264" lon="-8.253010">
        <ele>823.086</ele>
        <time>2018-07-21T07:05:15Z</time>
      </trkpt>
      <trkpt lat="42.506554" lon="-8.253298">
        <ele>822.114</ele>
        <time>2018-07-21T07:05:35Z</time>
      </trkpt>
      <trkpt lat="42.506708" lon="-8.253527">
        <ele>821.908</ele>
        <time>2018-07-21T07:05:55Z</time>
      </trkpt>
      <trkpt lat="42.506715" lon="-8.253545">
        <ele>821.995</ele>
        <time>2018-07-21T07:06:15Z</time>
      </trkpt>
      <trkpt lat="42.507052" lon="-8.253932">
        <ele>822.529</ele>
        <time>2018-07-21T07:06:35Z</time>
      </trkpt>
      <trkpt lat="42.507512" lon="-8.253963">
        <ele>817.350</ele>
        <time>2018-07-21T07:06:55Z</time>
      </trkpt>
      <trkpt lat="42.507553" lon="-8.253989">
        <ele>817.747</ele>
        <time>2018-07-21T07:07:15Z</time>
      </trkpt>
      <trkpt lat="42.508187" lon="-8.253771">
        <ele>815.732</ele>
        <time>2018-07-21T07:07:35Z</time>
      </trkpt>
      <trkpt lat="42.508273" lon="-8.253754">
        <ele>815.262</ele>
        <time>2018-07-21T07:07:55Z</time>
      </trkpt>
      <trkpt lat="42.508729" lon="-8.253659">
        <ele>813.637</ele>
        <time>2018-07-21T07:08:15Z</time>
      </trkpt>
      <trkpt lat="42.509272" lon="-8.253535">
        <ele>814.543</ele>
        <time>2018-07-21T07:08:35Z</time>
      </trkpt>
      <trkpt lat="42.509569" lon="-8.253616">
        <ele>814.866</ele>
        <time>2018-07-21T07:08:55Z</time>
      </trkpt>
      <trkpt lat="42.510163" lon="-8.253703">
        <ele>809.529</ele>
        <time>2018-07-21T07:09:15Z</time>
      </trkpt>
      <trkpt lat="42.510716" lon="-8.253816">
        <ele>808.221</ele>
        <time>2018-07-21T07:09:35Z</time>
      </trkpt>
      <trkpt lat="42.511428" lon="-8.253840">
        <ele>802.508</ele>
        <time>2018-07-21T07:09:55Z</time>
      </trkpt>
      <trkpt lat="42.511876" lon="-8.253840">
        <ele>799.848</ele>
        <time>2018-07-21T07:10:15Z</time>
      </trkpt>
      <trkpt lat="42.512459" lon="-8.253469">
        <ele>795.532</ele>
        <time>2018-07-21T07:10:35Z</time>
      </trkpt>
      <trkpt lat="42.512911" lon="-8.253224">
        <ele>792.593</ele>
        <time>2018-07-21T07:10:55Z</time>
      </trkpt>
      <trkpt lat="42.513248" lon="-8.253328">
        <ele>792.880</ele>
        <time>2018-07-21T07:11:15Z</time>
      </trkpt>
      <trkpt lat="42.513490" lon="-8.253419">
        <ele>793.265</ele>
        <time>2018-07-21T07:11:35Z</time>
      </trkpt>
      <trkpt lat="42.513892" lon="-8.253223">
        <ele>785.635</ele>
        <time>2018-07-21T07:11:55Z</time>
      </trkpt>
      <trkpt lat="42.514559" lon="-8.252810">
        <ele>775.880</ele>
        <time>2018-07-21T07:12:15Z</time>
      </trkpt>
      <trkpt lat="42.514867" lon="-8.252418">
        <ele>773.546</ele>
        <time>2018-07-21T07:12:35Z</time>
      </trkpt>
      <trkpt lat="42.515038" lon="-8.251720">
        <ele>773.381</ele>
        <time>2018-07-21T07:12:55Z</time>
      </trkpt>
      <trkpt lat="42.515297" lon="-8.250970">
        <ele>769.661</ele>
        <time>2018-07-21T07:13:15Z</time>
      </trkpt>
      <trkpt lat="42.515653" lon="-8.250213">
        <ele>765.117</ele>
        <time>2018-07-21T07:13:35Z</time>
      </trkpt>
      <trkpt lat="42.516044" lon="-8.249449">
        <ele>762.608</ele>
        <time>2018-07-21T07:13:55Z</time>
      </trkpt>
      <trkpt lat="42.516458" lon="-8.248781">
        <ele>759.570</ele>
        <time>2018-07-21T07:14:15Z</time>
      </trkpt>
      <trkpt lat="42.516742" lon="-8.248423">
        <ele>756.764</ele>
        <time>2018-07-21T07:14:35Z</time>
      </trkpt>
      <trkpt lat="42.516773" lon="-8.248351">
        <ele>755.845</ele>
        <time>2018-07-21T07:14:55Z</time>
      </trkpt>
      <trkpt lat="42.517241" lon="-8.248291">
        <ele>752.782</ele>
        <time>2018-07-21T07:15:15Z</time>
      </trkpt>
      <trkpt lat="42.517532" lon="-8.248532">
        <ele>749.397</ele>
        <time>2018-07-21T07:15:35Z</time>
      </trkpt>
      <trkpt lat="42.517685" lon="-8.248853">
        <ele>746.957</ele>
        <time>2018-07-21T07:15:55Z</time>
      </trkpt>
      <trkpt lat="42.517695" lon="-8.249163">
        <ele>745.512</ele>
        <time>2018-07-21T07:16:15Z</time>
      </trkpt>
      <trkpt lat="42.517526" lon="-8.249547">
        <ele>746.028</ele>
        <time>2018-07-21T07:16:35Z</time>
      </trkpt>
      <trkpt lat="42.517324" lon="-8.249995">
        <ele>748.583</ele>
        <time>2018-07-21T07:16:55Z</time>
      </trkpt>
      <trkpt lat="42.517241" lon="-8.250726">
        <ele>748.125</ele>
        <time>2018-07-21T07:17:15Z</time>
      </trkpt>
      <trkpt lat="42.517298" lon="-8.251352">
        <ele>744.617</ele>
        <time>2018-07-21T07:17:35Z</time>
      </trkpt>
      <trkpt lat="42.517499" lon="-8.251573">
        <ele>742.308</ele>
        <time>2018-07-21T07:17:55Z</time>
      </trkpt>
      <trkpt lat="42.517992" lon="-8.251804">
        <ele>728.710</ele>
        <time>2018-07-21T07:18:15Z</time>
      </trkpt>
      <trkpt lat="42.518017" lon="-8.252673">
        <ele>727.894</ele>
        <time>2018-07-21T07:18:35Z</time>
      </trkpt>
      <trkpt lat="42.518101" lon="-8.253119">
        <ele>724.325</ele>
        <time>2018-07-21T07:18:55Z</time>
      </trkpt>
      <trkpt lat="42.518003" lon="-8.253537">
        <ele>727.932</ele>
        <time>2018-07-21T07:19:15Z</time>
      </trkpt>
      <trkpt lat="42.518173" lon="-8.253906">
        <ele>726.787</ele>
        <time>2018-07-21T07:19:35Z</time>
      </trkpt>
      <trkpt lat="42.518377" lon="-8.254046">
        <ele>727.717</ele>
        <time>2018-07-21T07:19:55Z</time>
      </trkpt>
      <trkpt lat="42.518580" lon="-8.253806">
        <ele>728.442</ele>
        <time>2018-07-21T07:20:15Z</time>
      </trkpt>
      <trkpt lat="42.518573" lon="-8.253502">
        <ele>723.988</ele>
        <time>2018-07-21T07:20:35Z</time>
      </trkpt>
      <trkpt lat="42.518691" lon="-8.253334">
        <ele>721.683</ele>
        <time>2018-07-21T07:20:55Z</time>
      </trkpt>
      <trkpt lat="42.518980" lon="-8.253169">
        <ele>721.825</ele>
        <time>2018-07-21T07:21:15Z</time>
      </trkpt>
      <trkpt lat="42.519388" lon="-8.252906">
        <ele>724.017</ele>
        <time>2018-07-21T07:21:35Z</time>
      </trkpt>
      <trkpt lat="42.519450" lon="-8.252873">
        <ele>724.508</ele>
        <time>2018-07-21T07:21:55Z</time>
      </trkpt>
      <trkpt lat="42.519915" lon="-8.252615">
        <ele>727.880</ele>
        <time>2018-07-21T07:22:15Z</time>
      </trkpt>
      <trkpt lat="42.520167" lon="-8.252409">
        <ele>728.934</ele>
        <time>2018-07-21T07:22:35Z</time>
      </trkpt>
      <trkpt lat="42.520234" lon="-8.252374">
        <ele>729.725</ele>
        <time>2018-07-21T07:22:55Z</time>
      </trkpt>
      <trkpt lat="42.520564" lon="-8.252167">
        <ele>730.562</ele>
        <time>2018-07-21T07:23:15Z</time>
      </trkpt>
      <trkpt lat="42.520818" lon="-8.252033">
        <ele>729.727</ele>
        <time>2018-07-21T07:23:35Z</time>
      </trkpt>
      <trkpt lat="42.521324" lon="-8.252044">
        <ele>733.957</ele>
        <time>2018-07-21T07:23:55Z</time>
      </trkpt>
      <trkpt lat="42.521703" lon="-8.252140">
        <ele>735.172</ele>
        <time>2018-07-21T07:24:15Z</time>
      </trkpt>
      <trkpt lat="42.521943" lon="-8.252327">
        <ele>738.078</ele>
        <time>2018-07-21T07:24:35Z</time>
      </trkpt>
      <trkpt lat="42.522394" lon="-8.252365">
        <ele>743.257</ele>
        <time>2018-07-21T07:24:55Z</time>
      </trkpt>
      <trkpt lat="42.522457" lon="-8.252006">
        <ele>738.900</ele>
        <time>2018-07-21T07:25:15Z</time>
      </trkpt>
      <trkpt lat="42.522422" lon="-8.251715">
        <ele>738.020</ele>
        <time>2018-07-21T07:25:35Z</time>
      </trkpt>
      <trkpt lat="42.522379" lon="-8.251173">
        <ele>741.208</ele>
        <time>2018-07-21T07:25:55Z</time>
      </trkpt>
      <trkpt lat="42.522335" lon="-8.251026">
        <ele>740.727</ele>
        <time>2018-07-21T07:26:15Z</time>
      </trkpt>
      <trkpt lat="42.522290" lon="-8.250879">
        <ele>740.271</ele>
        <time>2018-07-21T07:26:35Z</time>
      </trkpt>
      <trkpt lat="42.522370" lon="-8.250319">
        <ele>746.142</ele>
        <time>2018-07-21T07:26:55Z</time>
      </trkpt>
      <trkpt lat="42.522423" lon="-8.249392">
        <ele>747.399</ele>
        <time>2018-07-21T07:27:15Z</time>
      </trkpt>
      <trkpt lat="42.522620" lon="-8.248892">
        <ele>746.384</ele>
        <time>2018-07-21T07:27:35Z</time>
      </trkpt>
      <trkpt lat="42.522632" lon="-8.248277">
        <ele>744.014</ele>
        <time>2018-07-21T07:27:55Z</time>
      </trkpt>
      <trkpt lat="42.522707" lon="-8.248051">
        <ele>744.599</ele>
        <time>2018-07-21T07:28:15Z</time>
      </trkpt>
      <trkpt lat="42.523037" lon="-8.248302">
        <ele>746.725</ele>
        <time>2018-07-21T07:28:35Z</time>
      </trkpt>
      <trkpt lat="42.523376" lon="-8.248568">
        <ele>750.973</ele>
        <time>2018-07-21T07:28:55Z</time>
      </trkpt>
      <trkpt lat="42.523469" lon="-8.248921">
        <ele>754.485</ele>
        <time>2018-07-21T07:29:15Z</time>
      </trkpt>
      <trkpt lat="42.523434" lon="-8.249145">
        <ele>757.613</ele>
        <time>2018-07-21T07:29:35Z</time>
      </trkpt>
      <trkpt lat="42.523565" lon="-8.249296">
        <ele>759.508</ele>
        <time>2018-07-21T07:29:55Z</time>
      </trkpt>
      <trkpt lat="42.523722" lon="-8.249484">
        <ele>763.369</ele>
        <time>2018-07-21T07:30:15Z</time>
      </trkpt>
      <trkpt lat="42.523780" lon="-8.249700">
        <ele>767.863</ele>
        <time>2018-07-21T07:30:35Z</time>
      </trkpt>
      <trkpt lat="42.523646" lon="-8.249991">
        <ele>770.374</ele>
        <time>2018-07-21T07:30:55Z</time>
      </trkpt>
      <trkpt lat="42.523639" lon="-8.250316">
        <ele>773.671</ele>
        <time>2018-07-21T07:31:15Z</time>
      </trkpt>
      <trkpt lat="42.523712" lon="-8.250432">
        <ele>775.296</ele>
        <time>2018-07-21T07:31:35Z</time>
      </trkpt>
      <trkpt lat="42.524021" lon="-8.250342">
        <ele>778.156</ele>
        <time>2018-07-21T07:31:55Z</time>
      </trkpt>
      <trkpt lat="42.524631" lon="-8.250141">
        <ele>782.171</ele>
        <time>2018-07-21T07:32:15Z</time>
      </trkpt>
      <trkpt lat="42.524973" lon="-8.249906">
        <ele>784.047</ele>
        <time>2018-07-21T07:32:35Z</time>
      </trkpt>
      <trkpt lat="42.525348" lon="-8.249655">
        <ele>786.048</ele>
        <time>2018-07-21T07:32:55Z</time>
      </trkpt>
      <trkpt lat="42.525613" lon="-8.249602">
        <ele>789.261</ele>
        <time>2018-07-21T07:33:15Z</time>
      </trkpt>
      <trkpt lat="42.525910" lon="-8.249426">
        <ele>788.017</ele>
        <time>2018-07-21T07:33:35Z</time>
      </trkpt>
      <trkpt lat="42.526235" lon="-8.249789">
        <ele>800.908</ele>
        <time>2018-07-21T07:33:55Z</time>
      </trkpt>
      <trkpt lat="42.526614" lon="-8.250190">
        <ele>807.686</ele>
        <time>2018-07-21T07:34:15Z</time>
      </trkpt>
      <trkpt lat="42.527524" lon="-8.250040">
        <ele>803.110</ele>
        <time>2018-07-21T07:34:35Z</time>
      </trkpt>
      <trkpt lat="42.527643" lon="-8.249981">
        <ele>800.811</ele>
        <time>2018-07-21T07:34:55Z</time>
      </trkpt>
      <trkpt lat="42.528158" lon="-8.249656">
        <ele>799.318</ele>
        <time>2018-07-21T07:35:15Z</time>
      </trkpt>
      <trkpt lat="42.528199" lon="-8.249647">
        <ele>799.293</ele>
        <time>2018-07-21T07:35:35Z</time>
      </trkpt>
      <trkpt lat="42.529104" lon="-8.249231">
        <ele>796.843</ele>
        <time>2018-07-21T07:35:55Z</time>
      </trkpt>
      <trkpt lat="42.529218" lon="-8.249154">
        <ele>796.828</ele>
        <time>2018-07-21T07:36:15Z</time>
      </trkpt>
      <trkpt lat="42.530018" lon="-8.248768">
        <ele>787.994</ele>
        <time>2018-07-21T07:36:35Z</time>
      </trkpt>
      <trkpt lat="42.530522" lon="-8.248413">
        <ele>780.487</ele>
        <time>2018-07-21T07:36:55Z</time>
      </trkpt>
      <trkpt lat="42.530507" lon="-8.248693">
        <ele>779.542</ele>
        <time>2018-07-21T07:37:15Z</time>
      </trkpt>
      <trkpt lat="42.530098" lon="-8.249210">
        <ele>781.226</ele>
        <time>2018-07-21T07:37:35Z</time>
      </trkpt>
      <trkpt lat="42.529681" lon="-8.249813">
        <ele>778.208</ele>
        <time>2018-07-21T07:37:55Z</time>
      </trkpt>
      <trkpt lat="42.529525" lon="-8.250205">
        <ele>775.520</ele>
        <time>2018-07-21T07:38:15Z</time>
      </trkpt>
      <trkpt lat="42.529582" lon="-8.250558">
        <ele>773.544</ele>
        <time>2018-07-21T07:38:35Z</time>
      </trkpt>
      <trkpt lat="42.529676" lon="-8.250962">
        <ele>775.665</ele>
        <time>2018-07-21T07:38:55Z</time>
      </trkpt>
      <trkpt lat="42.529999" lon="-8.250900">
        <ele>774.722</ele>
        <time>2018-07-21T07:39:15Z</time>
      </trkpt>
      <trkpt lat="42.529502" lon="-8.251335">
        <ele>779.927</ele>
        <time>2018-07-21T07:39:35Z</time>
      </trkpt>
      <trkpt lat="42.529338" lon="-8.251697">
        <ele>785.247</ele>
        <time>2018-07-21T07:39:55Z</time>
      </trkpt>
      <trkpt lat="42.529194" lon="-8.252212">
        <ele>791.492</ele>
        <time>2018-07-21T07:40:15Z</time>
      </trkpt>
      <trkpt lat="42.529182" lon="-8.253121">
        <ele>794.468</ele>
        <time>2018-07-21T07:40:35Z</time>
      </trkpt>
      <trkpt lat="42.529091" lon="-8.253892">
        <ele>800.658</ele>
        <time>2018-07-21T07:40:55Z</time>
      </trkpt>
      <trkpt lat="42.528948" lon="-8.254598">
        <ele>798.952</ele>
        <time>2018-07-21T07:41:15Z</time>
      </trkpt>
      <trkpt lat="42.528721" lon="-8.255459">
        <ele>796.317</ele>
        <time>2018-07-21T07:41:35Z</time>
      </trkpt>
      <trkpt lat="42.528457" lon="-8.256135">
        <ele>793.908</ele>
        <time>2018-07-21T07:41:55Z</time>
      </trkpt>
      <trkpt lat="42.528244" lon="-8.256814">
        <ele>787.557</ele>
        <time>2018-07-21T07:42:15Z</time>
      </trkpt>
      <trkpt lat="42.528069" lon="-8.257403">
        <ele>780.551</ele>
        <time>2018-07-21T07:42:35Z</time>
      </trkpt>
      <trkpt lat="42.527696" lon="-8.258429">
        <ele>782.542</ele>
        <time>2018-07-21T07:42:55Z</time>
      </trkpt>
      <trkpt lat="42.527169" lon="-8.259561">
        <ele>806.089</ele>
        <time>2018-07-21T07:43:15Z</time>
      </trkpt>
      <trkpt lat="42.526953" lon="-8.260338">
        <ele>825.044</ele>
        <time>2018-07-21T07:43:35Z</time>
      </trkpt>
      <trkpt lat="42.526499" lon="-8.261830">
        <ele>861.674</ele>
        <time>2018-07-21T07:43:55Z</time>
      </trkpt>
      <trkpt lat="42.526109" lon="-8.262773">
        <ele>885.029</ele>
        <time>2018-07-21T07:44:15Z</time>
      </trkpt>
      <trkpt lat="42.525830" lon="-8.263448">
        <ele>898.375</ele>
        <time>2018-07-21T07:44:35Z</time>
      </trkpt>
      <trkpt lat="42.525319" lon="-8.263774">
        <ele>900.385</ele>
        <time>2018-07-21T07:44:55Z</time>
      </trkpt>
      <trkpt lat="42.524248" lon="-8.264316">
        <ele>897.489</ele>
        <time>2018-07-21T07:45:15Z</time>
      </trkpt>
      <trkpt lat="42.522821" lon="-8.265136">
        <ele>897.217</ele>
        <time>2018-07-21T07:45:35Z</time>
      </trkpt>
      <trkpt lat="42.522281" lon="-8.265641">
        <ele>904.808</ele>
        <time>2018-07-21T07:45:55Z</time>
      </trkpt>
      <trkpt lat="42.521849" lon="-8.266064">
        <ele>911.740</ele>
        <time>2018-07-21T07:46:15Z</time>
      </trkpt>
      <trkpt lat="42.521281" lon="-8.266711">
        <ele>921.814</ele>
        <time>2018-07-21T07:46:35Z</time>
      </trkpt>
      <trkpt lat="42.521105" lon="-8.266827">
        <ele>922.935</ele>
        <time>2018-07-21T07:46:55Z</time>
      </trkpt>
      <trkpt lat="42.520822" lon="-8.266910">
        <ele>926.092</ele>
        <time>2018-07-21T07:47:15Z</time>
      </trkpt>
      <trkpt lat="42.520726" lon="-8.267193">
        <ele>924.677</ele>
        <time>2018-07-21T07:47:35Z</time>
      </trkpt>
      <trkpt lat="42.520525" lon="-8.267734">
        <ele>918.687</ele>
        <time>2018-07-21T07:47:55Z</time>
      </trkpt>
      <trkpt lat="42.520217" lon="-8.268210">
        <ele>909.972</ele>
        <time>2018-07-21T07:48:15Z</time>
      </trkpt>
      <trkpt lat="42.519861" lon="-8.268836">
        <ele>899.778</ele>
        <time>2018-07-21T07:48:35Z</time>
      </trkpt>
      <trkpt lat="42.519409" lon="-8.269320">
        <ele>889.929</ele>
        <time>2018-07-21T07:48:55Z</time>
      </trkpt>
      <trkpt lat="42.518718" lon="-8.269777">
        <ele>876.700</ele>
        <time>2018-07-21T07:49:15Z</time>
      </trkpt>
      <trkpt lat="42.518251" lon="-8.270280">
        <ele>869.520</ele>
        <time>2018-07-21T07:49:35Z</time>
      </trkpt>
      <trkpt lat="42.518039" lon="-8.270795">
        <ele>863.908</ele>
        <time>2018-07-21T07:49:55Z</time>
      </trkpt>
      <trkpt lat="42.517829" lon="-8.271132">
        <ele>855.664</ele>
        <time>2018-07-21T07:50:15Z</time>
      </trkpt>
      <trkpt lat="42.517552" lon="-8.271256">
        <ele>851.758</ele>
        <time>2018-07-21T07:50:35Z</time>
      </trkpt>
      <trkpt lat="42.517122" lon="-8.271330">
        <ele>842.819</ele>
        <time>2018-07-21T07:50:55Z</time>
      </trkpt>
      <trkpt lat="42.516677" lon="-8.271363">
        <ele>834.116</ele>
        <time>2018-07-21T07:51:15Z</time>
      </trkpt>
      <trkpt lat="42.516281" lon="-8.271468">
        <ele>825.861</ele>
        <time>2018-07-21T07:51:35Z</time>
      </trkpt>
      <trkpt lat="42.515967" lon="-8.271393">
        <ele>819.441</ele>
        <time>2018-07-21T07:51:55Z</time>
      </trkpt>
      <trkpt lat="42.515646" lon="-8.271359">
        <ele>810.636</ele>
        <time>2018-07-21T07:52:15Z</time>
      </trkpt>
      <trkpt lat="42.515634" lon="-8.271731">
        <ele>810.942</ele>
        <time>2018-07-21T07:52:35Z</time>
      </trkpt>
      <trkpt lat="42.515611" lon="-8.272159">
        <ele>805.527</ele>
        <time>2018-07-21T07:52:55Z</time>
      </trkpt>
      <trkpt lat="42.515570" lon="-8.272304">
        <ele>802.568</ele>
        <time>2018-07-21T07:53:15Z</time>
      </trkpt>
      <trkpt lat="42.515394" lon="-8.272275">
        <ele>801.414</ele>
        <time>2018-07-21T07:53:35Z</time>
      </trkpt>
      <trkpt lat="42.515229" lon="-8.272292">
        <ele>800.108</ele>
        <time>2018-07-21T07:53:55Z</time>
      </trkpt>
      <trkpt lat="42.515270" lon="-8.272402">
        <ele>799.684</ele>
        <time>2018-07-21T07:54:15Z</time>
      </trkpt>
      <trkpt lat="42.515367" lon="-8.272602">
        <ele>798.368</ele>
        <time>2018-07-21T07:54:35Z</time>
      </trkpt>
      <trkpt lat="42.515550" lon="-8.272780">
        <ele>797.929</ele>
        <time>2018-07-21T07:54:55Z</time>
      </trkpt>
      <trkpt lat="42.515737" lon="-8.272902">
        <ele>798.416</ele>
        <time>2018-07-21T07:55:15Z</time>
      </trkpt>
      <trkpt lat="42.516001" lon="-8.273050">
        <ele>799.711</ele>
        <time>2018-07-21T07:55:35Z</time>
      </trkpt>
      <trkpt lat="42.516281" lon="-8.273247">
        <ele>799.331</ele>
        <time>2018-07-21T07:55:55Z</time>
      </trkpt>
      <trkpt lat="42.516718" lon="-8.273455">
        <ele>799.536</ele>
        <time>2018-07-21T07:56:15Z</time>
      </trkpt>
      <trkpt lat="42.517109" lon="-8.273524">
        <ele>802.922</ele>
        <time>2018-07-21T07:56:35Z</time>
      </trkpt>
      <trkpt lat="42.517451" lon="-8.273685">
        <ele>804.092</ele>
        <time>2018-07-21T07:56:55Z</time>
      </trkpt>
      <trkpt lat="42.517772" lon="-8.273757">
        <ele>804.873</ele>
        <time>2018-07-21T07:57:15Z</time>
      </trkpt>
      <trkpt lat="42.393204" lon="-8.173394">
        <ele>406.779</ele>
        <time>2018-07-20T09:28:35Z</time>
      </trkpt>
      <trkpt lat="42.393007" lon="-8.173174">
        <ele>412.805</ele>
        <time>2018-07-20T09:28:55Z</time>
      </trkpt>
      <trkpt lat="42.392763" lon="-8.172852">
        <ele>420.525</ele>
        <time>2018-07-20T09:29:15Z</time>
      </trkpt>
      <trkpt lat="42.392654" lon="-8.172388">
        <ele>421.408</ele>
        <time>2018-07-20T09:29:35Z</time>
      </trkpt>
      <trkpt lat="42.392397" lon="-8.171708">
        <ele>441.879</ele>
        <time>2018-07-20T09:29:55Z</time>
      </trkpt>
      <trkpt lat="42.392774" lon="-8.171454">
        <ele>424.063</ele>
        <time>2018-07-20T09:30:15Z</time>
      </trkpt>
      <trkpt lat="42.393026" lon="-8.171122">
        <ele>417.394</ele>
        <time>2018-07-20T09:30:35Z</time>
      </trkpt>
      <trkpt lat="42.393106" lon="-8.170096">
        <ele>434.972</ele>
        <time>2018-07-20T09:30:55Z</time>
      </trkpt>
      <trkpt lat="42.393325" lon="-8.169270">
        <ele>429.327</ele>
        <time>2018-07-20T09:31:15Z</time>
      </trkpt>
      <trkpt lat="42.393749" lon="-8.168717">
        <ele>415.678</ele>
        <time>2018-07-20T09:31:35Z</time>
      </trkpt>
      <trkpt lat="42.394173" lon="-8.168233">
        <ele>399.220</ele>
        <time>2018-07-20T09:31:55Z</time>
      </trkpt>
      <trkpt lat="42.394707" lon="-8.167251">
        <ele>407.870</ele>
        <time>2018-07-20T09:32:15Z</time>
      </trkpt>
      <trkpt lat="42.394993" lon="-8.166541">
        <ele>396.092</ele>
        <time>2018-07-20T09:32:35Z</time>
      </trkpt>
      <trkpt lat="42.394849" lon="-8.166001">
        <ele>401.473</ele>
        <time>2018-07-20T09:32:55Z</time>
      </trkpt>
      <trkpt lat="42.394693" lon="-8.165453">
        <ele>392.220</ele>
        <time>2018-07-20T09:33:15Z</time>
      </trkpt>
      <trkpt lat="42.394391" lon="-8.165065">
        <ele>388.408</ele>
        <time>2018-07-20T09:33:35Z</time>
      </trkpt>
      <trkpt lat="42.394154" lon="-8.164703">
        <ele>387.081</ele>
        <time>2018-07-20T09:33:55Z</time>
      </trkpt>
      <trkpt lat="42.393935" lon="-8.164316">
        <ele>387.195</ele>
        <time>2018-07-20T09:34:15Z</time>
      </trkpt>
      <trkpt lat="42.393694" lon="-8.163280">
        <ele>370.566</ele>
        <time>2018-07-20T09:34:35Z</time>
      </trkpt>
      <trkpt lat="42.393575" lon="-8.162589">
        <ele>361.064</ele>
        <time>2018-07-20T09:34:55Z</time>
      </trkpt>
      <trkpt lat="42.393471" lon="-8.161907">
        <ele>356.079</ele>
        <time>2018-07-20T09:35:15Z</time>
      </trkpt>
      <trkpt lat="42.393465" lon="-8.161295">
        <ele>357.550</ele>
        <time>2018-07-20T09:35:35Z</time>
      </trkpt>
      <trkpt lat="42.393536" lon="-8.160528">
        <ele>354.332</ele>
        <time>2018-07-20T09:35:55Z</time>
      </trkpt>
      <trkpt lat="42.393731" lon="-8.159956">
        <ele>343.182</ele>
        <time>2018-07-20T09:36:15Z</time>
      </trkpt>
      <trkpt lat="42.393949" lon="-8.159458">
        <ele>334.449</ele>
        <time>2018-07-20T09:36:35Z</time>
      </trkpt>
      <trkpt lat="42.394239" lon="-8.159043">
        <ele>321.802</ele>
        <time>2018-07-20T09:36:55Z</time>
      </trkpt>
      <trkpt lat="42.394249" lon="-8.158601">
        <ele>322.322</ele>
        <time>2018-07-20T09:37:15Z</time>
      </trkpt>
      <trkpt lat="42.394226" lon="-8.158212">
        <ele>322.308</ele>
        <time>2018-07-20T09:37:35Z</time>
      </trkpt>
      <trkpt lat="42.394141" lon="-8.157925">
        <ele>322.146</ele>
        <time>2018-07-20T09:37:55Z</time>
      </trkpt>
      <trkpt lat="42.394096" lon="-8.157417">
        <ele>304.350</ele>
        <time>2018-07-20T09:38:15Z</time>
      </trkpt>
      <trkpt lat="42.394194" lon="-8.157255">
        <ele>295.621</ele>
        <time>2018-07-20T09:38:35Z</time>
      </trkpt>
      <trkpt lat="42.394330" lon="-8.157518">
        <ele>300.789</ele>
        <time>2018-07-20T09:38:55Z</time>
      </trkpt>
      <trkpt lat="42.394446" lon="-8.157731">
        <ele>302.644</ele>
        <time>2018-07-20T09:39:15Z</time>
      </trkpt>
      <trkpt lat="42.394560" lon="-8.158049">
        <ele>298.635</ele>
        <time>2018-07-20T09:39:35Z</time>
      </trkpt>
      <trkpt lat="42.394679" lon="-8.158256">
        <ele>289.787</ele>
        <time>2018-07-20T09:39:55Z</time>
      </trkpt>
      <trkpt lat="42.394650" lon="-8.158744">
        <ele>292.717</ele>
        <time>2018-07-20T09:40:15Z</time>
      </trkpt>
      <trkpt lat="42.394677" lon="-8.159347">
        <ele>289.773</ele>
        <time>2018-07-20T09:40:35Z</time>
      </trkpt>
      <trkpt lat="42.394694" lon="-8.159797">
        <ele>283.185</ele>
        <time>2018-07-20T09:40:55Z</time>
      </trkpt>
      <trkpt lat="42.394924" lon="-8.159650">
        <ele>271.613</ele>
        <time>2018-07-20T09:41:15Z</time>
      </trkpt>
      <trkpt lat="42.394928" lon="-8.159599">
        <ele>271.908</ele>
        <time>2018-07-20T09:41:35Z</time>
      </trkpt>
      <trkpt lat="42.394961" lon="-8.159480">
        <ele>271.119</ele>
        <time>2018-07-20T09:41:55Z</time>
      </trkpt>
      <trkpt lat="42.395008" lon="-8.159345">
        <ele>270.463</ele>
        <time>2018-07-20T09:42:15Z</time>
      </trkpt>
      <trkpt lat="42.395123" lon="-8.158792">
        <ele>266.824</ele>
        <time>2018-07-20T09:42:35Z</time>
      </trkpt>
      <trkpt lat="42.395149" lon="-8.158168">
        <ele>264.272</ele>
        <time>2018-07-20T09:42:55Z</time>
      </trkpt>
      <trkpt lat="42.395123" lon="-8.157422">
        <ele>261.587</ele>
        <time>2018-07-20T09:43:15Z</time>
      </trkpt>
      <trkpt lat="42.395097" lon="-8.156834">
        <ele>254.688</ele>
        <time>2018-07-20T09:43:35Z</time>
      </trkpt>
      <trkpt lat="42.395291" lon="-8.156812">
        <ele>242.950</ele>
        <time>2018-07-20T09:43:55Z</time>
      </trkpt>
      <trkpt lat="42.395368" lon="-8.157106">
        <ele>243.420</ele>
        <time>2018-07-20T09:44:15Z</time>
      </trkpt>
      <trkpt lat="42.395576" lon="-8.157796">
        <ele>241.935</ele>
        <time>2018-07-20T09:44:35Z</time>
      </trkpt>
      <trkpt lat="42.395756" lon="-8.158317">
        <ele>234.686</ele>
        <time>2018-07-20T09:44:55Z</time>
      </trkpt>
      <trkpt lat="42.395927" lon="-8.159055">
        <ele>225.614</ele>
        <time>2018-07-20T09:45:15Z</time>
      </trkpt>
      <trkpt lat="42.396041" lon="-8.159405">
        <ele>219.108</ele>
        <time>2018-07-20T09:45:35Z</time>
      </trkpt>
      <trkpt lat="42.395957" lon="-8.160072">
        <ele>218.735</ele>
        <time>2018-07-20T09:45:55Z</time>
      </trkpt>
      <trkpt lat="42.395954" lon="-8.160479">
        <ele>215.869</ele>
        <time>2018-07-20T09:46:15Z</time>
      </trkpt>
      <trkpt lat="42.396106" lon="-8.160324">
        <ele>210.920</ele>
        <time>2018-07-20T09:46:35Z</time>
      </trkpt>
      <trkpt lat="42.396269" lon="-8.159971">
        <ele>205.328</ele>
        <time>2018-07-20T09:46:55Z</time>
      </trkpt>
      <trkpt lat="42.396350" lon="-8.159557">
        <ele>203.483</ele>
        <time>2018-07-20T09:47:15Z</time>
      </trkpt>
      <trkpt lat="42.396370" lon="-8.158879">
        <ele>197.124</ele>
        <time>2018-07-20T09:47:35Z</time>
      </trkpt>
      <trkpt lat="42.396412" lon="-8.158392">
        <ele>193.976</ele>
        <time>2018-07-20T09:47:55Z</time>
      </trkpt>
      <trkpt lat="42.396696" lon="-8.157973">
        <ele>176.926</ele>
        <time>2018-07-20T09:48:15Z</time>
      </trkpt>
      <trkpt lat="42.396736" lon="-8.157601">
        <ele>175.826</ele>
        <time>2018-07-20T09:48:35Z</time>
      </trkpt>
      <trkpt lat="42.396590" lon="-8.157058">
        <ele>181.347</ele>
        <time>2018-07-20T09:48:55Z</time>
      </trkpt>
      <trkpt lat="42.396598" lon="-8.156050">
        <ele>176.811</ele>
        <time>2018-07-20T09:49:15Z</time>
      </trkpt>
      <trkpt lat="42.396653" lon="-8.155481">
        <ele>170.608</ele>
        <time>2018-07-20T09:49:35Z</time>
      </trkpt>
      <trkpt lat="42.396809" lon="-8.155247">
        <ele>162.564</ele>
        <time>2018-07-20T09:49:55Z</time>
      </trkpt>
      <trkpt lat="42.396985" lon="-8.155392">
        <ele>157.068</ele>
        <time>2018-07-20T09:50:15Z</time>
      </trkpt>
      <trkpt lat="42.396973" lon="-8.155984">
        <ele>160.159</ele>
        <time>2018-07-20T09:50:35Z</time>
      </trkpt>
      <trkpt lat="42.397072" lon="-8.156368">
        <ele>155.277</ele>
        <time>2018-07-20T09:50:55Z</time>
      </trkpt>
      <trkpt lat="42.397239" lon="-8.156831">
        <ele>148.772</ele>
        <time>2018-07-20T09:51:15Z</time>
      </trkpt>
      <trkpt lat="42.397338" lon="-8.157378">
        <ele>146.833</ele>
        <time>2018-07-20T09:51:35Z</time>
      </trkpt>
      <trkpt lat="42.397335" lon="-8.157418">
        <ele>147.685</ele>
        <time>2018-07-20T09:51:55Z</time>
      </trkpt>
      <trkpt lat="42.397439" lon="-8.158122">
        <ele>146.855</ele>
        <time>2018-07-20T09:52:15Z</time>
      </trkpt>
      <trkpt lat="42.397648" lon="-8.158397">
        <ele>138.479</ele>
        <time>2018-07-20T09:52:35Z</time>
      </trkpt>
      <trkpt lat="42.397782" lon="-8.158419">
        <ele>133.905</ele>
        <time>2018-07-20T09:52:55Z</time>
      </trkpt>
      <trkpt lat="42.397796" lon="-8.158051">
        <ele>134.325</ele>
        <time>2018-07-20T09:53:15Z</time>
      </trkpt>
      <trkpt lat="42.397781" lon="-8.157221">
        <ele>120.908</ele>
        <time>2018-07-20T09:53:35Z</time>
      </trkpt>
      <trkpt lat="42.397627" lon="-8.156119">
        <ele>126.249</ele>
        <time>2018-07-20T09:53:55Z</time>
      </trkpt>
      <trkpt lat="42.397635" lon="-8.155269">
        <ele>118.173</ele>
        <time>2018-07-20T09:54:15Z</time>
      </trkpt>
      <trkpt lat="42.397447" lon="-8.154699">
        <ele>122.254</ele>
        <time>2018-07-20T09:54:35Z</time>
      </trkpt>
      <trkpt lat="42.397512" lon="-8.153966">
        <ele>113.022</ele>
        <time>2018-07-20T09:54:55Z</time>
      </trkpt>
      <trkpt lat="42.397612" lon="-8.153401">
        <ele>114.467</ele>
        <time>2018-07-20T09:55:15Z</time>
      </trkpt>
      <trkpt lat="42.397796" lon="-8.152816">
        <ele>114.348</ele>
        <time>2018-07-20T09:55:35Z</time>
      </trkpt>
      <trkpt lat="42.397893" lon="-8.151639">
        <ele>117.830</ele>
        <time>2018-07-20T09:55:55Z</time>
      </trkpt>
      <trkpt lat="42.397930" lon="-8.150898">
        <ele>111.060</ele>
        <time>2018-07-20T09:56:15Z</time>
      </trkpt>
      <trkpt lat="42.397822" lon="-8.150308">
        <ele>108.322</ele>
        <time>2018-07-20T09:56:35Z</time>
      </trkpt>
      <trkpt lat="42.397621" lon="-8.150178">
        <ele>110.162</ele>
        <time>2018-07-20T09:56:55Z</time>
      </trkpt>
      <trkpt lat="42.397399" lon="-8.149337">
        <ele>107.008</ele>
        <time>2018-07-20T09:57:15Z</time>
      </trkpt>
      <trkpt lat="42.397090" lon="-8.148799">
        <ele>106.608</ele>
        <time>2018-07-20T09:57:35Z</time>
      </trkpt>
      <trkpt lat="42.397004" lon="-8.148491">
        <ele>105.764</ele>
        <time>2018-07-20T09:57:55Z</time>
      </trkpt>
      <trkpt lat="42.397261" lon="-8.148272">
        <ele>102.028</ele>
        <time>2018-07-20T09:58:15Z</time>
      </trkpt>
      <trkpt lat="42.397418" lon="-8.148084">
        <ele>102.639</ele>
        <time>2018-07-20T09:58:35Z</time>
      </trkpt>
      <trkpt lat="42.397684" lon="-8.148347">
        <ele>102.677</ele>
        <time>2018-07-20T09:58:55Z</time>
      </trkpt>
      <trkpt lat="42.398006" lon="-8.148835">
        <ele>104.892</ele>
        <time>2018-07-20T09:59:15Z</time>
      </trkpt>
      <trkpt lat="42.398214" lon="-8.149191">
        <ele>107.893</ele>
        <time>2018-07-20T09:59:35Z</time>
      </trkpt>
      <trkpt lat="42.398610" lon="-8.149911">
        <ele>104.335</ele>
        <time>2018-07-20T09:59:55Z</time>
      </trkpt>
      <trkpt lat="42.398717" lon="-8.150595">
        <ele>103.295</ele>
        <time>2018-07-20T10:00:15Z</time>
      </trkpt>
      <trkpt lat="42.398781" lon="-8.151513">
        <ele>103.567</ele>
        <time>2018-07-20T10:00:35Z</time>
      </trkpt>
      <trkpt lat="42.398909" lon="-8.151911">
        <ele>107.281</ele>
        <time>2018-07-20T10:00:55Z</time>
      </trkpt>
      <trkpt lat="42.399201" lon="-8.152676">
        <ele>117.219</ele>
        <time>2018-07-20T10:01:15Z</time>
      </trkpt>
      <trkpt lat="42.399029" lon="-8.152883">
        <ele>114.508</ele>
        <time>2018-07-20T10:01:35Z</time>
      </trkpt>
      <trkpt lat="42.398772" lon="-8.153322">
        <ele>112.588</ele>
        <time>2018-07-20T10:01:55Z</time>
      </trkpt>
      <trkpt lat="42.398623" lon="-8.153555">
        <ele>110.752</ele>
        <time>2018-07-20T10:02:15Z</time>
      </trkpt>
      <trkpt lat="42.398688" lon="-8.154066">
        <ele>115.913</ele>
        <time>2018-07-20T10:02:35Z</time>
      </trkpt>
      <trkpt lat="42.398819" lon="-8.154290">
        <ele>119.211</ele>
        <time>2018-07-20T10:02:55Z</time>
      </trkpt>
      <trkpt lat="42.399279" lon="-8.154103">
        <ele>126.586</ele>
        <time>2018-07-20T10:03:15Z</time>
      </trkpt>
      <trkpt lat="42.399544" lon="-8.153807">
        <ele>131.877</ele>
        <time>2018-07-20T10:03:35Z</time>
      </trkpt>
      <trkpt lat="42.399684" lon="-8.153457">
        <ele>134.459</ele>
        <time>2018-07-20T10:03:55Z</time>
      </trkpt>
      <trkpt lat="42.399875" lon="-8.153336">
        <ele>139.469</ele>
        <time>2018-07-20T10:04:15Z</time>
      </trkpt>
      <trkpt lat="42.400004" lon="-8.153561">
        <ele>142.335</ele>
        <time>2018-07-20T10:04:35Z</time>
      </trkpt>
      <trkpt lat="42.400147" lon="-8.153931">
        <ele>145.786</ele>
        <time>2018-07-20T10:04:55Z</time>
      </trkpt>
      <trkpt lat="42.400194" lon="-8.154331">
        <ele>147.514</ele>
        <time>2018-07-20T10:05:15Z</time>
      </trkpt>
      <trkpt lat="42.400217" lon="-8.154931">
        <ele>148.508</ele>
        <time>2018-07-20T10:05:35Z</time>
      </trkpt>
      <trkpt lat="42.400245" lon="-8.155446">
        <ele>151.265</ele>
        <time>2018-07-20T10:05:55Z</time>
      </trkpt>
      <trkpt lat="42.400305" lon="-8.155784">
        <ele>153.549</ele>
        <time>2018-07-20T10:06:15Z</time>
      </trkpt>
      <trkpt lat="42.400197" lon="-8.156364">
        <ele>148.770</ele>
        <time>2018-07-20T10:06:35Z</time>
      </trkpt>
      <trkpt lat="42.399965" lon="-8.157146">
        <ele>144.088</ele>
        <time>2018-07-20T10:06:55Z</time>
      </trkpt>
      <trkpt lat="42.400132" lon="-8.157719">
        <ele>143.993</ele>
        <time>2018-07-20T10:07:15Z</time>
      </trkpt>
      <trkpt lat="42.400599" lon="-8.159640">
        <ele>145.244</ele>
        <time>2018-07-20T10:07:35Z</time>
      </trkpt>
      <trkpt lat="42.400803" lon="-8.160571">
        <ele>150.246</ele>
        <time>2018-07-20T10:07:55Z</time>
      </trkpt>
      <trkpt lat="42.400986" lon="-8.161496">
        <ele>143.846</ele>
        <time>2018-07-20T10:08:15Z</time>
      </trkpt>
      <trkpt lat="42.401469" lon="-8.162352">
        <ele>130.857</ele>
        <time>2018-07-20T10:08:35Z</time>
      </trkpt>
      <trkpt lat="42.401772" lon="-8.163100">
        <ele>126.000</ele>
        <time>2018-07-20T10:08:55Z</time>
      </trkpt>
      <trkpt lat="42.402266" lon="-8.164239">
        <ele>119.820</ele>
        <time>2018-07-20T10:09:15Z</time>
      </trkpt>
      <trkpt lat="42.402773" lon="-8.164824">
        <ele>111.308</ele>
        <time>2018-07-20T10:09:35Z</time>
      </trkpt>
      <trkpt lat="42.403126" lon="-8.165188">
        <ele>114.427</ele>
        <time>2018-07-20T10:09:55Z</time>
      </trkpt>
      <trkpt lat="42.403527" lon="-8.165110">
        <ele>120.621</ele>
        <time>2018-07-20T10:10:15Z</time>
      </trkpt>
      <trkpt lat="42.403960" lon="-8.165472">
        <ele>135.692</ele>
        <time>2018-07-20T10:10:35Z</time>
      </trkpt>
      <trkpt lat="42.404340" lon="-8.165158">
        <ele>123.830</ele>
        <time>2018-07-20T10:10:55Z</time>
      </trkpt>
      <trkpt lat="42.404913" lon="-8.164773">
        <ele>123.295</ele>
        <time>2018-07-20T10:11:15Z</time>
      </trkpt>
      <trkpt lat="42.405337" lon="-8.164333">
        <ele>129.066</ele>
        <time>2018-07-20T10:11:35Z</time>
      </trkpt>
      <trkpt lat="42.405497" lon="-8.163749">
        <ele>129.168</ele>
        <time>2018-07-20T10:11:55Z</time>
      </trkpt>
      <trkpt lat="42.405658" lon="-8.163013">
        <ele>127.998</ele>
        <time>2018-07-20T10:12:15Z</time>
      </trkpt>
      <trkpt lat="42.405969" lon="-8.162720">
        <ele>131.054</ele>
        <time>2018-07-20T10:12:35Z</time>
      </trkpt>
      <trkpt lat="42.406496" lon="-8.161892">
        <ele>140.256</ele>
        <time>2018-07-20T10:12:55Z</time>
      </trkpt>
      <trkpt lat="42.407010" lon="-8.161152">
        <ele>141.511</ele>
        <time>2018-07-20T10:13:15Z</time>
      </trkpt>
      <trkpt lat="42.407504" lon="-8.160645">
        <ele>146.808</ele>
        <time>2018-07-20T10:13:35Z</time>
      </trkpt>
      <trkpt lat="42.408056" lon="-8.160234">
        <ele>155.597</ele>
        <time>2018-07-20T10:13:55Z</time>
      </trkpt>
      <trkpt lat="42.408724" lon="-8.159948">
        <ele>161.851</ele>
        <time>2018-07-20T10:14:15Z</time>
      </trkpt>
      <trkpt lat="42.409316" lon="-8.159815">
        <ele>161.812</ele>
        <time>2018-07-20T10:14:35Z</time>
      </trkpt>
      <trkpt lat="42.409679" lon="-8.160118">
        <ele>167.770</ele>
        <time>2018-07-20T10:14:55Z</time>
      </trkpt>
      <trkpt lat="42.409784" lon="-8.160696">
        <ele>174.245</ele>
        <time>2018-07-20T10:15:15Z</time>
      </trkpt>
      <trkpt lat="42.409967" lon="-8.161653">
        <ele>173.166</ele>
        <time>2018-07-20T10:15:35Z</time>
      </trkpt>
      <trkpt lat="42.410056" lon="-8.162614">
        <ele>178.448</ele>
        <time>2018-07-20T10:15:55Z</time>
      </trkpt>
      <trkpt lat="42.410144" lon="-8.163732">
        <ele>180.458</ele>
        <time>2018-07-20T10:16:15Z</time>
      </trkpt>
      <trkpt lat="42.410350" lon="-8.164595">
        <ele>181.977</ele>
        <time>2018-07-20T10:16:35Z</time>
      </trkpt>
      <trkpt lat="42.410247" lon="-8.165367">
        <ele>186.861</ele>
        <time>2018-07-20T10:16:55Z</time>
      </trkpt>
      <trkpt lat="42.410438" lon="-8.166105">
        <ele>198.227</ele>
        <time>2018-07-20T10:17:15Z</time>
      </trkpt>
      <trkpt lat="42.410629" lon="-8.167191">
        <ele>197.208</ele>
        <time>2018-07-20T10:17:35Z</time>
      </trkpt>
      <trkpt lat="42.410581" lon="-8.168182">
        <ele>210.519</ele>
        <time>2018-07-20T10:17:55Z</time>
      </trkpt>
      <trkpt lat="42.410414" lon="-8.168785">
        <ele>206.083</ele>
        <time>2018-07-20T10:18:15Z</time>
      </trkpt>
      <trkpt lat="42.410560" lon="-8.169388">
        <ele>210.364</ele>
        <time>2018-07-20T10:18:35Z</time>
      </trkpt>
      <trkpt lat="42.411105" lon="-8.169983">
        <ele>215.922</ele>
        <time>2018-07-20T10:18:55Z</time>
      </trkpt>
      <trkpt lat="42.411974" lon="-8.170625">
        <ele>218.297</ele>
        <time>2018-07-20T10:19:15Z</time>
      </trkpt>
      <trkpt lat="42.412728" lon="-8.171238">
        <ele>228.078</ele>
        <time>2018-07-20T10:19:35Z</time>
      </trkpt>
      <trkpt lat="42.413632" lon="-8.171556">
        <ele>226.940</ele>
        <time>2018-07-20T10:19:55Z</time>
      </trkpt>
      <trkpt lat="42.414261" lon="-8.171646">
        <ele>227.080</ele>
        <time>2018-07-20T10:20:15Z</time>
      </trkpt>
      <trkpt lat="42.414783" lon="-8.172155">
        <ele>231.215</ele>
        <time>2018-07-20T10:20:35Z</time>
      </trkpt>
      <trkpt lat="42.415542" lon="-8.172434">
        <ele>236.165</ele>
        <time>2018-07-20T10:20:55Z</time>
      </trkpt>
      <trkpt lat="42.415583" lon="-8.172056">
        <ele>229.711</ele>
        <time>2018-07-20T10:21:15Z</time>
      </trkpt>
      <trkpt lat="42.415509" lon="-8.171457">
        <ele>239.408</ele>
        <time>2018-07-20T10:21:35Z</time>
      </trkpt>
      <trkpt lat="42.415608" lon="-8.171184">
        <ele>242.993</ele>
        <time>2018-07-20T10:21:55Z</time>
      </trkpt>
      <trkpt lat="42.415670" lon="-8.170675">
        <ele>250.917</ele>
        <time>2018-07-20T10:22:15Z</time>
      </trkpt>
      <trkpt lat="42.415680" lon="-8.170144">
        <ele>262.278</ele>
        <time>2018-07-20T10:22:35Z</time>
      </trkpt>
      <trkpt lat="42.415494" lon="-8.169625">
        <ele>280.746</ele>
        <time>2018-07-20T10:22:55Z</time>
      </trkpt>
      <trkpt lat="42.415627" lon="-8.169272">
        <ele>289.641</ele>
        <time>2018-07-20T10:23:15Z</time>
      </trkpt>
      <trkpt lat="42.415620" lon="-8.168646">
        <ele>306.312</ele>
        <time>2018-07-20T10:23:35Z</time>
      </trkpt>
      <trkpt lat="42.415545" lon="-8.167769">
        <ele>329.334</ele>
        <time>2018-07-20T10:23:55Z</time>
      </trkpt>
      <trkpt lat="42.415624" lon="-8.167465">
        <ele>337.194</ele>
        <time>2018-07-20T10:24:15Z</time>
      </trkpt>
      <trkpt lat="42.415783" lon="-8.167244">
        <ele>342.833</ele>
        <time>2018-07-20T10:24:35Z</time>
      </trkpt>
      <trkpt lat="42.416315" lon="-8.166949">
        <ele>347.423</ele>
        <time>2018-07-20T10:24:55Z</time>
      </trkpt>
      <trkpt lat="42.416707" lon="-8.166625">
        <ele>353.915</ele>
        <time>2018-07-20T10:25:15Z</time>
      </trkpt>
      <trkpt lat="42.416737" lon="-8.166591">
        <ele>354.608</ele>
        <time>2018-07-20T10:25:35Z</time>
      </trkpt>
      <trkpt lat="42.417339" lon="-8.166115">
        <ele>360.895</ele>
        <time>2018-07-20T10:25:55Z</time>
      </trkpt>
      <trkpt lat="42.417467" lon="-8.165800">
        <ele>365.759</ele>
        <time>2018-07-20T10:26:15Z</time>
      </trkpt>
      <trkpt lat="42.418073" lon="-8.165483">
        <ele>371.840</ele>
        <time>2018-07-20T10:26:35Z</time>
      </trkpt>
      <trkpt lat="42.418375" lon="-8.165653">
        <ele>368.538</ele>
        <time>2018-07-20T10:26:55Z</time>
      </trkpt>
      <trkpt lat="42.418754" lon="-8.165116">
        <ele>384.853</ele>
        <time>2018-07-20T10:27:15Z</time>
      </trkpt>
      <trkpt lat="42.419223" lon="-8.164381">
        <ele>400.564</ele>
        <time>2018-07-20T10:27:35Z</time>
      </trkpt>
      <trkpt lat="42.419550" lon="-8.163676">
        <ele>408.646</ele>
        <time>2018-07-20T10:27:55Z</time>
      </trkpt>
      <trkpt lat="42.419723" lon="-8.163280">
        <ele>414.026</ele>
        <time>2018-07-20T10:28:15Z</time>
      </trkpt>
      <trkpt lat="42.419816" lon="-8.163148">
        <ele>415.667</ele>
        <time>2018-07-20T10:28:35Z</time>
      </trkpt>
      <trkpt lat="42.420247" lon="-8.163553">
        <ele>421.481</ele>
        <time>2018-07-20T10:28:55Z</time>
      </trkpt>
      <trkpt lat="42.420842" lon="-8.163721">
        <ele>427.419</ele>
        <time>2018-07-20T10:29:15Z</time>
      </trkpt>
      <trkpt lat="42.421305" lon="-8.163490">
        <ele>427.208</ele>
        <time>2018-07-20T10:29:35Z</time>
      </trkpt>
      <trkpt lat="42.421282" lon="-8.163085">
        <ele>430.498</ele>
        <time>2018-07-20T10:29:55Z</time>
      </trkpt>
      <trkpt lat="42.420998" lon="-8.162564">
        <ele>431.982</ele>
        <time>2018-07-20T10:30:15Z</time>
      </trkpt>
      <trkpt lat="42.420978" lon="-8.162400">
        <ele>431.663</ele>
        <time>2018-07-20T10:30:35Z</time>
      </trkpt>
      <trkpt lat="42.421429" lon="-8.162324">
        <ele>431.941</ele>
        <time>2018-07-20T10:30:55Z</time>
      </trkpt>
      <trkpt lat="42.421879" lon="-8.162351">
        <ele>432.286</ele>
        <time>2018-07-20T10:31:15Z</time>
      </trkpt>
      <trkpt lat="42.422210" lon="-8.162769">
        <ele>430.067</ele>
        <time>2018-07-20T10:31:35Z</time>
      </trkpt>
      <trkpt lat="42.422427" lon="-8.163120">
        <ele>430.439</ele>
        <time>2018-07-20T10:31:55Z</time>
      </trkpt>
      <trkpt lat="42.422538" lon="-8.163523">
        <ele>431.629</ele>
        <time>2018-07-20T10:32:15Z</time>
      </trkpt>
      <trkpt lat="42.422568" lon="-8.164065">
        <ele>432.585</ele>
        <time>2018-07-20T10:32:35Z</time>
      </trkpt>
      <trkpt lat="42.422592" lon="-8.164529">
        <ele>432.789</ele>
        <time>2018-07-20T10:32:55Z</time>
      </trkpt>
      <trkpt lat="42.422727" lon="-8.164852">
        <ele>435.117</ele>
        <time>2018-07-20T10:33:15Z</time>
      </trkpt>
      <trkpt lat="42.423175" lon="-8.165028">
        <ele>437.408</ele>
        <time>2018-07-20T10:33:35Z</time>
      </trkpt>
      <trkpt lat="42.423592" lon="-8.164978">
        <ele>437.290</ele>
        <time>2018-07-20T10:33:55Z</time>
      </trkpt>
      <trkpt lat="42.423808" lon="-8.164951">
        <ele>437.784</ele>
        <time>2018-07-20T10:34:15Z</time>
      </trkpt>
      <trkpt lat="42.424461" lon="-8.164910">
        <ele>438.975</ele>
        <time>2018-07-20T10:34:35Z</time>
      </trkpt>
      <trkpt lat="42.424876" lon="-8.164989">
        <ele>436.723</ele>
        <time>2018-07-20T10:34:55Z</time>
      </trkpt>
      <trkpt lat="42.425375" lon="-8.165128">
        <ele>438.228</ele>
        <time>2018-07-20T10:35:15Z</time>
      </trkpt>
      <trkpt lat="42.425929" lon="-8.165591">
        <ele>433.969</ele>
        <time>2018-07-20T10:35:35Z</time>
      </trkpt>
      <trkpt lat="42.426109" lon="-8.166054">
        <ele>426.481</ele>
        <time>2018-07-20T10:35:55Z</time>
      </trkpt>
      <trkpt lat="42.426502" lon="-8.166615">
        <ele>425.911</ele>
        <time>2018-07-20T10:36:15Z</time>
      </trkpt>
      <trkpt lat="42.426863" lon="-8.167598">
        <ele>421.159</ele>
        <time>2018-07-20T10:36:35Z</time>
      </trkpt>
      <trkpt lat="42.427346" lon="-8.168187">
        <ele>425.203</ele>
        <time>2018-07-20T10:36:55Z</time>
      </trkpt>
      <trkpt lat="42.427770" lon="-8.168266">
        <ele>426.723</ele>
        <time>2018-07-20T10:37:15Z</time>
      </trkpt>
      <trkpt lat="42.428165" lon="-8.168654">
        <ele>427.108</ele>
        <time>2018-07-20T10:37:35Z</time>
      </trkpt>
      <trkpt lat="42.428573" lon="-8.169076">
        <ele>427.497</ele>
        <time>2018-07-20T10:37:55Z</time>
      </trkpt>
      <trkpt lat="42.429330" lon="-8.169373">
        <ele>428.011</ele>
        <time>2018-07-20T10:38:15Z</time>
      </trkpt>
      <trkpt lat="42.430096" lon="-8.169798">
        <ele>425.082</ele>
        <time>2018-07-20T10:38:35Z</time>
      </trkpt>
      <trkpt lat="42.430446" lon="-8.170850">
        <ele>415.560</ele>
        <time>2018-07-20T10:38:55Z</time>
      </trkpt>
      <trkpt lat="42.431059" lon="-8.172287">
        <ele>403.395</ele>
        <time>2018-07-20T10:39:15Z</time>
      </trkpt>
      <trkpt lat="42.431914" lon="-8.171868">
        <ele>386.156</ele>
        <time>2018-07-20T10:39:35Z</time>
      </trkpt>
      <trkpt lat="42.432459" lon="-8.171337">
        <ele>382.468</ele>
        <time>2018-07-20T10:39:55Z</time>
      </trkpt>
      <trkpt lat="42.432672" lon="-8.171085">
        <ele>384.678</ele>
        <time>2018-07-20T10:40:15Z</time>
      </trkpt>
      <trkpt lat="42.433050" lon="-8.171248">
        <ele>380.635</ele>
        <time>2018-07-20T10:40:35Z</time>
      </trkpt>
      <trkpt lat="42.433601" lon="-8.171640">
        <ele>378.586</ele>
        <time>2018-07-20T10:40:55Z</time>
      </trkpt>
      <trkpt lat="42.434228" lon="-8.172229">
        <ele>363.014</ele>
        <time>2018-07-20T10:41:15Z</time>
      </trkpt>
      <trkpt lat="42.434943" lon="-8.172423">
        <ele>361.208</ele>
        <time>2018-07-20T10:41:35Z</time>
      </trkpt>
      <trkpt lat="42.435501" lon="-8.172569">
        <ele>357.115</ele>
        <time>2018-07-20T10:41:55Z</time>
      </trkpt>
      <trkpt lat="42.435749" lon="-8.172691">
        <ele>356.719</ele>
        <time>2018-07-20T10:42:15Z</time>
      </trkpt>
      <trkpt lat="42.435803" lon="-8.173932">
        <ele>354.710</ele>
        <time>2018-07-20T10:42:35Z</time>
      </trkpt>
      <trkpt lat="42.435636" lon="-8.174303">
        <ele>348.778</ele>
        <time>2018-07-20T10:42:55Z</time>
      </trkpt>
      <trkpt lat="42.435572" lon="-8.173994">
        <ele>346.033</ele>
        <time>2018-07-20T10:43:15Z</time>
      </trkpt>
      <trkpt lat="42.435631" lon="-8.173680">
        <ele>348.294</ele>
        <time>2018-07-20T10:43:35Z</time>
      </trkpt>
      <trkpt lat="42.435629" lon="-8.173649">
        <ele>348.176</ele>
        <time>2018-07-20T10:43:55Z</time>
      </trkpt>
      <trkpt lat="42.435601" lon="-8.173227">
        <ele>349.166</ele>
        <time>2018-07-20T10:44:15Z</time>
      </trkpt>
      <trkpt lat="42.435361" lon="-8.173114">
        <ele>349.473</ele>
        <time>2018-07-20T10:44:35Z</time>
      </trkpt>
      <trkpt lat="42.435127" lon="-8.173450">
        <ele>341.385</ele>
        <time>2018-07-20T10:44:55Z</time>
      </trkpt>
      <trkpt lat="42.434878" lon="-8.173658">
        <ele>334.713</ele>
        <time>2018-07-20T10:45:15Z</time>
      </trkpt>
      <trkpt lat="42.434772" lon="-8.173826">
        <ele>330.808</ele>
        <time>2018-07-20T10:45:35Z</time>
      </trkpt>
      <trkpt lat="42.434896" lon="-8.174143">
        <ele>327.939</ele>
        <time>2018-07-20T10:45:55Z</time>
      </trkpt>
      <trkpt lat="42.434878" lon="-8.174806">
        <ele>316.843</ele>
        <time>2018-07-20T10:46:15Z</time>
      </trkpt>
      <trkpt lat="42.435049" lon="-8.175842">
        <ele>309.554</ele>
        <time>2018-07-20T10:46:35Z</time>
      </trkpt>
      <trkpt lat="42.435263" lon="-8.176581">
        <ele>301.552</ele>
        <time>2018-07-20T10:46:55Z</time>
      </trkpt>
      <trkpt lat="42.435645" lon="-8.177130">
        <ele>300.367</ele>
        <time>2018-07-20T10:47:15Z</time>
      </trkpt>
      <trkpt lat="42.435554" lon="-8.177338">
        <ele>302.578</ele>
        <time>2018-07-20T10:47:35Z</time>
      </trkpt>
      <trkpt lat="42.435336" lon="-8.177437">
        <ele>306.740</ele>
        <time>2018-07-20T10:47:55Z</time>
      </trkpt>
      <trkpt lat="42.434757" lon="-8.177198">
        <ele>311.730</ele>
        <time>2018-07-20T10:48:15Z</time>
      </trkpt>
      <trkpt lat="42.434454" lon="-8.176936">
        <ele>313.621</ele>
        <time>2018-07-20T10:48:35Z</time>
      </trkpt>
      <trkpt lat="42.434136" lon="-8.176553">
        <ele>314.541</ele>
        <time>2018-07-20T10:48:55Z</time>
      </trkpt>
      <trkpt lat="42.434087" lon="-8.176340">
        <ele>311.605</ele>
        <time>2018-07-20T10:49:15Z</time>
      </trkpt>
      <trkpt lat="42.433820" lon="-8.176359">
        <ele>310.908</ele>
        <time>2018-07-20T10:49:35Z</time>
      </trkpt>
      <trkpt lat="42.433722" lon="-8.176552">
        <ele>311.514</ele>
        <time>2018-07-20T10:49:55Z</time>
      </trkpt>
      <trkpt lat="42.433659" lon="-8.176735">
        <ele>314.238</ele>
        <time>2018-07-20T10:50:15Z</time>
      </trkpt>
      <trkpt lat="42.433436" lon="-8.176941">
        <ele>316.179</ele>
        <time>2018-07-20T10:50:35Z</time>
      </trkpt>
      <trkpt lat="42.433057" lon="-8.177125">
        <ele>320.287</ele>
        <time>2018-07-20T10:50:55Z</time>
      </trkpt>
      <trkpt lat="42.432840" lon="-8.177346">
        <ele>327.082</ele>
        <time>2018-07-20T10:51:15Z</time>
      </trkpt>
      <trkpt lat="42.432751" lon="-8.177437">
        <ele>328.843</ele>
        <time>2018-07-20T10:51:35Z</time>
      </trkpt>
      <trkpt lat="42.432774" lon="-8.177539">
        <ele>332.135</ele>
        <time>2018-07-20T10:51:55Z</time>
      </trkpt>
      <trkpt lat="42.433069" lon="-8.177468">
        <ele>333.155</ele>
        <time>2018-07-20T10:52:15Z</time>
      </trkpt>
      <trkpt lat="42.433518" lon="-8.177478">
        <ele>339.544</ele>
        <time>2018-07-20T10:52:35Z</time>
      </trkpt>
      <trkpt lat="42.433767" lon="-8.177533">
        <ele>341.505</ele>
        <time>2018-07-20T10:52:55Z</time>
      </trkpt>
      <trkpt lat="42.433914" lon="-8.177650">
        <ele>344.615</ele>
        <time>2018-07-20T10:53:15Z</time>
      </trkpt>
      <trkpt lat="42.434172" lon="-8.177885">
        <ele>351.108</ele>
        <time>2018-07-20T10:53:35Z</time>
      </trkpt>
      <trkpt lat="42.434437" lon="-8.177990">
        <ele>349.816</ele>
        <time>2018-07-20T10:53:55Z</time>
      </trkpt>
      <trkpt lat="42.434556" lon="-8.178411">
        <ele>366.410</ele>
        <time>2018-07-20T10:54:15Z</time>
      </trkpt>
      <trkpt lat="42.434890" lon="-8.178691">
        <ele>368.591</ele>
        <time>2018-07-20T10:54:35Z</time>
      </trkpt>
      <trkpt lat="42.435188" lon="-8.178798">
        <ele>365.239</ele>
        <time>2018-07-20T10:54:55Z</time>
      </trkpt>
      <trkpt lat="42.435496" lon="-8.179079">
        <ele>372.594</ele>
        <time>2018-07-20T10:55:15Z</time>
      </trkpt>
      <trkpt lat="42.435898" lon="-8.179233">
        <ele>377.575</ele>
        <time>2018-07-20T10:55:35Z</time>
      </trkpt>
      <trkpt lat="42.436448" lon="-8.179452">
        <ele>379.017</ele>
        <time>2018-07-20T10:55:55Z</time>
      </trkpt>
      <trkpt lat="42.436775" lon="-8.179855">
        <ele>383.897</ele>
        <time>2018-07-20T10:56:15Z</time>
      </trkpt>
      <trkpt lat="42.436741" lon="-8.180449">
        <ele>402.094</ele>
        <time>2018-07-20T10:56:35Z</time>
      </trkpt>
      <trkpt lat="42.437473" lon="-8.181626">
        <ele>393.557</ele>
        <time>2018-07-20T10:56:55Z</time>
      </trkpt>
      <trkpt lat="42.437647" lon="-8.182695">
        <ele>410.122</ele>
        <time>2018-07-20T10:57:15Z</time>
      </trkpt>
      <trkpt lat="42.438064" lon="-8.183570">
        <ele>419.408</ele>
        <time>2018-07-20T10:57:35Z</time>
      </trkpt>
      <trkpt lat="42.438345" lon="-8.184628">
        <ele>423.171</ele>
        <time>2018-07-20T10:57:55Z</time>
      </trkpt>
      <trkpt lat="42.438842" lon="-8.185340">
        <ele>427.485</ele>
        <time>2018-07-20T10:58:15Z</time>
      </trkpt>
      <trkpt lat="42.439380" lon="-8.185706">
        <ele>429.686</ele>
        <time>2018-07-20T10:58:35Z</time>
      </trkpt>
      <trkpt lat="42.440022" lon="-8.185950">
        <ele>436.014</ele>
        <time>2018-07-20T10:58:55Z</time>
      </trkpt>
      <trkpt lat="42.440420" lon="-8.186279">
        <ele>442.459</ele>
        <time>2018-07-20T10:59:15Z</time>
      </trkpt>
      <trkpt lat="42.440550" lon="-8.186708">
        <ele>440.080</ele>
        <time>2018-07-20T10:59:35Z</time>
      </trkpt>
      <trkpt lat="42.441118" lon="-8.186986">
        <ele>445.812</ele>
        <time>2018-07-20T10:59:55Z</time>
      </trkpt>
      <trkpt lat="42.441380" lon="-8.187307">
        <ele>445.612</ele>
        <time>2018-07-20T11:00:15Z</time>
      </trkpt>
      <trkpt lat="42.441449" lon="-8.187838">
        <ele>448.217</ele>
        <time>2018-07-20T11:00:35Z</time>
      </trkpt>
      <trkpt lat="42.441616" lon="-8.188659">
        <ele>452.687</ele>
        <time>2018-07-20T11:00:55Z</time>
      </trkpt>
      <trkpt lat="42.441593" lon="-8.189477">
        <ele>449.015</ele>
        <time>2018-07-20T11:01:15Z</time>
      </trkpt>
      <trkpt lat="42.441589" lon="-8.189537">
        <ele>449.008</ele>
        <time>2018-07-20T11:01:35Z</time>
      </trkpt>
      <trkpt lat="42.441561" lon="-8.189962">
        <ele>449.313</ele>
        <time>2018-07-20T11:01:55Z</time>
      </trkpt>
      <trkpt lat="42.441548" lon="-8.190575">
        <ele>453.127</ele>
        <time>2018-07-20T11:02:15Z</time>
      </trkpt>
      <trkpt lat="42.441729" lon="-8.191100">
        <ele>455.288</ele>
        <time>2018-07-20T11:02:35Z</time>
      </trkpt>
      <trkpt lat="42.441953" lon="-8.191567">
        <ele>455.196</ele>
        <time>2018-07-20T11:02:55Z</time>
      </trkpt>
      <trkpt lat="42.442350" lon="-8.192443">
        <ele>459.991</ele>
        <time>2018-07-20T11:03:15Z</time>
      </trkpt>
      <trkpt lat="42.442450" lon="-8.192952">
        <ele>460.742</ele>
        <time>2018-07-20T11:03:35Z</time>
      </trkpt>
      <trkpt lat="42.442197" lon="-8.193503">
        <ele>459.024</ele>
        <time>2018-07-20T11:03:55Z</time>
      </trkpt>
      <trkpt lat="42.441819" lon="-8.194084">
        <ele>458.384</ele>
        <time>2018-07-20T11:04:15Z</time>
      </trkpt>
      <trkpt lat="42.441403" lon="-8.194569">
        <ele>461.439</ele>
        <time>2018-07-20T11:04:35Z</time>
      </trkpt>
      <trkpt lat="42.441105" lon="-8.195348">
        <ele>463.001</ele>
        <time>2018-07-20T11:04:55Z</time>
      </trkpt>
      <trkpt lat="42.441171" lon="-8.196184">
        <ele>465.521</ele>
        <time>2018-07-20T11:05:15Z</time>
      </trkpt>
      <trkpt lat="42.441496" lon="-8.197063">
        <ele>470.808</ele>
        <time>2018-07-20T11:05:35Z</time>
      </trkpt>
      <trkpt lat="42.441849" lon="-8.197648">
        <ele>473.445</ele>
        <time>2018-07-20T11:05:55Z</time>
      </trkpt>
      <trkpt lat="42.442538" lon="-8.198235">
        <ele>472.889</ele>
        <time>2018-07-20T11:06:15Z</time>
      </trkpt>
      <trkpt lat="42.442634" lon="-8.198989">
        <ele>468.440</ele>
        <time>2018-07-20T11:06:35Z</time>
      </trkpt>
      <trkpt lat="42.442881" lon="-8.200121">
        <ele>464.978</ele>
        <time>2018-07-20T11:06:55Z</time>
      </trkpt>
      <trkpt lat="42.443090" lon="-8.201208">
        <ele>464.633</ele>
        <time>2018-07-20T11:07:15Z</time>
      </trkpt>
      <trkpt lat="42.443033" lon="-8.201899">
        <ele>466.044</ele>
        <time>2018-07-20T11:07:35Z</time>
      </trkpt>
      <trkpt lat="42.442886" lon="-8.202891">
        <ele>470.826</ele>
        <time>2018-07-20T11:07:55Z</time>
      </trkpt>
      <trkpt lat="42.442760" lon="-8.204480">
        <ele>468.926</ele>
        <time>2018-07-20T11:08:15Z</time>
      </trkpt>
      <trkpt lat="42.442392" lon="-8.205973">
        <ele>471.083</ele>
        <time>2018-07-20T11:08:35Z</time>
      </trkpt>
      <trkpt lat="42.442404" lon="-8.206688">
        <ele>476.125</ele>
        <time>2018-07-20T11:08:55Z</time>
      </trkpt>
      <trkpt lat="42.442087" lon="-8.207299">
        <ele>479.117</ele>
        <time>2018-07-20T11:09:15Z</time>
      </trkpt>
      <trkpt lat="42.442004" lon="-8.207513">
        <ele>479.308</ele>
        <time>2018-07-20T11:09:35Z</time>
      </trkpt>
      <trkpt lat="42.442115" lon="-8.208338">
        <ele>486.180</ele>
        <time>2018-07-20T11:09:55Z</time>
      </trkpt>
      <trkpt lat="42.442157" lon="-8.208776">
        <ele>490.934</ele>
        <time>2018-07-20T11:10:15Z</time>
      </trkpt>
      <trkpt lat="42.442407" lon="-8.209064">
        <ele>492.675</ele>
        <time>2018-07-20T11:10:35Z</time>
      </trkpt>
      <trkpt lat="42.442493" lon="-8.209328">
        <ele>494.253</ele>
        <time>2018-07-20T11:10:55Z</time>
      </trkpt>
      <trkpt lat="42.442339" lon="-8.209800">
        <ele>497.648</ele>
        <time>2018-07-20T11:11:15Z</time>
      </trkpt>
      <trkpt lat="42.442179" lon="-8.210259">
        <ele>501.699</ele>
        <time>2018-07-20T11:11:35Z</time>
      </trkpt>
      <trkpt lat="42.442007" lon="-8.210724">
        <ele>507.781</ele>
        <time>2018-07-20T11:11:55Z</time>
      </trkpt>
      <trkpt lat="42.441812" lon="-8.211048">
        <ele>512.141</ele>
        <time>2018-07-20T11:12:15Z</time>
      </trkpt>
      <trkpt lat="42.441798" lon="-8.211490">
        <ele>516.777</ele>
        <time>2018-07-20T11:12:35Z</time>
      </trkpt>
      <trkpt lat="42.441518" lon="-8.211856">
        <ele>520.261</ele>
        <time>2018-07-20T11:12:55Z</time>
      </trkpt>
      <trkpt lat="42.441282" lon="-8.212215">
        <ele>525.727</ele>
        <time>2018-07-20T11:13:15Z</time>
      </trkpt>
      <trkpt lat="42.440824" lon="-8.212874">
        <ele>531.108</ele>
        <time>2018-07-20T11:13:35Z</time>
      </trkpt>
      <trkpt lat="42.440820" lon="-8.212910">
        <ele>531.639</ele>
        <time>2018-07-20T11:13:55Z</time>
      </trkpt>
      <trkpt lat="42.440761" lon="-8.213342">
        <ele>536.363</ele>
        <time>2018-07-20T11:14:15Z</time>
      </trkpt>
      <trkpt lat="42.441091" lon="-8.213397">
        <ele>545.414</ele>
        <time>2018-07-20T11:14:35Z</time>
      </trkpt>
      <trkpt lat="42.441352" lon="-8.213506">
        <ele>550.442</ele>
        <time>2018-07-20T11:14:55Z</time>
      </trkpt>
      <trkpt lat="42.441575" lon="-8.213763">
        <ele>552.887</ele>
        <time>2018-07-20T11:15:15Z</time>
      </trkpt>
      <trkpt lat="42.441725" lon="-8.214030">
        <ele>555.738</ele>
        <time>2018-07-20T11:15:35Z</time>
      </trkpt>
      <trkpt lat="42.441944" lon="-8.214426">
        <ele>562.680</ele>
        <time>2018-07-20T11:15:55Z</time>
      </trkpt>
      <trkpt lat="42.442135" lon="-8.214784">
        <ele>566.340</ele>
        <time>2018-07-20T11:16:15Z</time>
      </trkpt>
      <trkpt lat="42.442372" lon="-8.215254">
        <ele>573.431</ele>
        <time>2018-07-20T11:16:35Z</time>
      </trkpt>
      <trkpt lat="42.443126" lon="-8.215867">
        <ele>580.161</ele>
        <time>2018-07-20T11:16:55Z</time>
      </trkpt>
      <trkpt lat="42.443471" lon="-8.216149">
        <ele>583.607</ele>
        <time>2018-07-20T11:17:15Z</time>
      </trkpt>
      <trkpt lat="42.444741" lon="-8.216620">
        <ele>602.808</ele>
        <time>2018-07-20T11:17:35Z</time>
      </trkpt>
      <trkpt lat="42.445795" lon="-8.217074">
        <ele>614.775</ele>
        <time>2018-07-20T11:17:55Z</time>
      </trkpt>
      <trkpt lat="42.446860" lon="-8.217164">
        <ele>623.639</ele>
        <time>2018-07-20T11:18:15Z</time>
      </trkpt>
      <trkpt lat="42.447301" lon="-8.217146">
        <ele>628.780</ele>
        <time>2018-07-20T11:18:35Z</time>
      </trkpt>
      <trkpt lat="42.446996" lon="-8.217643">
        <ele>637.268</ele>
        <time>2018-07-20T11:18:55Z</time>
      </trkpt>
      <trkpt lat="42.446538" lon="-8.217724">
        <ele>636.613</ele>
        <time>2018-07-20T11:19:15Z</time>
      </trkpt>
      <trkpt lat="42.446635" lon="-8.218131">
        <ele>642.654</ele>
        <time>2018-07-20T11:19:35Z</time>
      </trkpt>
      <trkpt lat="42.447151" lon="-8.218088">
        <ele>647.216</ele>
        <time>2018-07-20T11:19:55Z</time>
      </trkpt>
      <trkpt lat="42.447741" lon="-8.217729">
        <ele>648.026</ele>
        <time>2018-07-20T11:20:15Z</time>
      </trkpt>
      <trkpt lat="42.448372" lon="-8.217763">
        <ele>655.962</ele>
        <time>2018-07-20T11:20:35Z</time>
      </trkpt>
      <trkpt lat="42.449259" lon="-8.218036">
        <ele>669.783</ele>
        <time>2018-07-20T11:20:55Z</time>
      </trkpt>
      <trkpt lat="42.450205" lon="-8.218499">
        <ele>666.611</ele>
        <time>2018-07-20T11:21:15Z</time>
      </trkpt>
      <trkpt lat="42.451202" lon="-8.218671">
        <ele>666.808</ele>
        <time>2018-07-20T11:21:35Z</time>
      </trkpt>
      <trkpt lat="42.452400" lon="-8.218796">
        <ele>661.888</ele>
        <time>2018-07-20T11:21:55Z</time>
      </trkpt>
      <trkpt lat="42.453328" lon="-8.218869">
        <ele>664.662</ele>
        <time>2018-07-20T11:22:15Z</time>
      </trkpt>
      <trkpt lat="42.454055" lon="-8.219175">
        <ele>665.853</ele>
        <time>2018-07-20T11:22:35Z</time>
      </trkpt>
      <trkpt lat="42.454577" lon="-8.219668">
        <ele>662.781</ele>
        <time>2018-07-20T11:22:55Z</time>
      </trkpt>
      <trkpt lat="42.455123" lon="-8.220025">
        <ele>660.376</ele>
        <time>2018-07-20T11:23:15Z</time>
      </trkpt>
      <trkpt lat="42.455927" lon="-8.220107">
        <ele>662.257</ele>
        <time>2018-07-20T11:23:35Z</time>
      </trkpt>
      <trkpt lat="42.456522" lon="-8.220173">
        <ele>667.669</ele>
        <time>2018-07-20T11:23:55Z</time>
      </trkpt>
      <trkpt lat="42.457166" lon="-8.220669">
        <ele>665.819</ele>
        <time>2018-07-20T11:24:15Z</time>
      </trkpt>
      <trkpt lat="42.457974" lon="-8.220774">
        <ele>669.046</ele>
        <time>2018-07-20T11:24:35Z</time>
      </trkpt>
      <trkpt lat="42.458783" lon="-8.221292">
        <ele>675.888</ele>
        <time>2018-07-20T11:24:55Z</time>
      </trkpt>
      <trkpt lat="42.459127" lon="-8.221957">
        <ele>681.416</ele>
        <time>2018-07-20T11:25:15Z</time>
      </trkpt>
      <trkpt lat="42.459687" lon="-8.222981">
        <ele>694.908</ele>
        <time>2018-07-20T11:25:35Z</time>
      </trkpt>
      <trkpt lat="42.460019" lon="-8.223770">
        <ele>704.226</ele>
        <time>2018-07-20T11:25:55Z</time>
      </trkpt>
      <trkpt lat="42.459972" lon="-8.224553">
        <ele>708.550</ele>
        <time>2018-07-20T11:26:15Z</time>
      </trkpt>
      <trkpt lat="42.459642" lon="-8.225343">
        <ele>708.921</ele>
        <time>2018-07-20T11:26:35Z</time>
      </trkpt>
      <trkpt lat="42.459701" lon="-8.226324">
        <ele>722.489</ele>
        <time>2018-07-20T11:26:55Z</time>
      </trkpt>
      <trkpt lat="42.459731" lon="-8.226990">
        <ele>731.184</ele>
        <time>2018-07-20T11:27:15Z</time>
      </trkpt>
      <trkpt lat="42.459498" lon="-8.227721">
        <ele>733.145</ele>
        <time>2018-07-20T11:27:35Z</time>
      </trkpt>
      <trkpt lat="42.459557" lon="-8.228934">
        <ele>741.697</ele>
        <time>2018-07-20T11:27:55Z</time>
      </trkpt>
      <trkpt lat="42.459773" lon="-8.229968">
        <ele>751.257</ele>
        <time>2018-07-20T11:28:15Z</time>
      </trkpt>
      <trkpt lat="42.460575" lon="-8.230687">
        <ele>772.257</ele>
        <time>2018-07-20T11:28:35Z</time>
      </trkpt>
      <trkpt lat="42.461124" lon="-8.231324">
        <ele>782.300</ele>
        <time>2018-07-20T11:28:55Z</time>
      </trkpt>
      <trkpt lat="42.461427" lon="-8.231398">
        <ele>788.020</ele>
        <time>2018-07-20T11:29:15Z</time>
      </trkpt>
      <trkpt lat="42.461389" lon="-8.231552">
        <ele>788.008</ele>
        <time>2018-07-20T11:29:35Z</time>
      </trkpt>
      <trkpt lat="42.461112" lon="-8.232019">
        <ele>784.147</ele>
        <time>2018-07-20T11:29:55Z</time>
      </trkpt>
      <trkpt lat="42.460861" lon="-8.232311">
        <ele>782.851</ele>
        <time>2018-07-20T11:30:15Z</time>
      </trkpt>
      <trkpt lat="42.460392" lon="-8.233126">
        <ele>792.582</ele>
        <time>2018-07-20T11:30:35Z</time>
      </trkpt>
      <trkpt lat="42.460212" lon="-8.233903">
        <ele>795.490</ele>
        <time>2018-07-20T11:30:55Z</time>
      </trkpt>
      <trkpt lat="42.460196" lon="-8.234188">
        <ele>796.815</ele>
        <time>2018-07-20T11:31:15Z</time>
      </trkpt>
      <trkpt lat="42.459604" lon="-8.234594">
        <ele>795.936</ele>
        <time>2018-07-20T11:31:35Z</time>
      </trkpt>
      <trkpt lat="42.459129" lon="-8.234761">
        <ele>793.968</ele>
        <time>2018-07-20T11:31:55Z</time>
      </trkpt>
      <trkpt lat="42.458757" lon="-8.234798">
        <ele>790.318</ele>
        <time>2018-07-20T11:32:15Z</time>
      </trkpt>
      <trkpt lat="42.458148" lon="-8.235088">
        <ele>788.317</ele>
        <time>2018-07-20T11:32:35Z</time>
      </trkpt>
      <trkpt lat="42.458132" lon="-8.235088">
        <ele>788.287</ele>
        <time>2018-07-20T11:32:55Z</time>
      </trkpt>
      <trkpt lat="42.457934" lon="-8.235510">
        <ele>788.115</ele>
        <time>2018-07-20T11:33:15Z</time>
      </trkpt>
      <trkpt lat="42.457203" lon="-8.236960">
        <ele>785.208</ele>
        <time>2018-07-20T11:33:35Z</time>
      </trkpt>
      <trkpt lat="42.456660" lon="-8.238017">
        <ele>779.653</ele>
        <time>2018-07-20T11:33:55Z</time>
      </trkpt>
      <trkpt lat="42.456105" lon="-8.238523">
        <ele>776.097</ele>
        <time>2018-07-20T11:34:15Z</time>
      </trkpt>
      <trkpt lat="42.455415" lon="-8.239515">
        <ele>767.688</ele>
        <time>2018-07-20T11:34:35Z</time>
      </trkpt>
      <trkpt lat="42.456077" lon="-8.239562">
        <ele>768.456</ele>
        <time>2018-07-20T11:34:55Z</time>
      </trkpt>
      <trkpt lat="42.457278" lon="-8.239302">
        <ele>759.921</ele>
        <time>2018-07-20T11:35:15Z</time>
      </trkpt>
      <trkpt lat="42.457357" lon="-8.239324">
        <ele>758.912</ele>
        <time>2018-07-20T11:35:35Z</time>
      </trkpt>
      <trkpt lat="42.458144" lon="-8.239076">
        <ele>750.814</ele>
        <time>2018-07-20T11:35:55Z</time>
      </trkpt>
      <trkpt lat="42.458572" lon="-8.239538">
        <ele>746.454</ele>
        <time>2018-07-20T11:36:15Z</time>
      </trkpt>
      <trkpt lat="42.459266" lon="-8.240549">
        <ele>739.153</ele>
        <time>2018-07-20T11:36:35Z</time>
      </trkpt>
      <trkpt lat="42.460088" lon="-8.240735">
        <ele>732.804</ele>
        <time>2018-07-20T11:36:55Z</time>
      </trkpt>
      <trkpt lat="42.460697" lon="-8.240659">
        <ele>719.314</ele>
        <time>2018-07-20T11:37:15Z</time>
      </trkpt>
      <trkpt lat="42.461377" lon="-8.240628">
        <ele>717.208</ele>
        <time>2018-07-20T11:37:35Z</time>
      </trkpt>
      <trkpt lat="42.462308" lon="-8.240539">
        <ele>703.647</ele>
        <time>2018-07-20T11:37:55Z</time>
      </trkpt>
      <trkpt lat="42.462768" lon="-8.240554">
        <ele>701.051</ele>
        <time>2018-07-20T11:38:15Z</time>
      </trkpt>
      <trkpt lat="42.463424" lon="-8.241063">
        <ele>691.842</ele>
        <time>2018-07-20T11:38:35Z</time>
      </trkpt>
      <trkpt lat="42.463976" lon="-8.241167">
        <ele>688.550</ele>
        <time>2018-07-20T11:38:55Z</time>
      </trkpt>
      <trkpt lat="42.463400" lon="-8.241328">
        <ele>687.235</ele>
        <time>2018-07-20T11:39:15Z</time>
      </trkpt>
      <trkpt lat="42.463298" lon="-8.241603">
        <ele>684.046</ele>
        <time>2018-07-20T11:39:35Z</time>
      </trkpt>
      <trkpt lat="42.462738" lon="-8.241605">
        <ele>678.998</ele>
        <time>2018-07-20T11:39:55Z</time>
      </trkpt>
      <trkpt lat="42.462110" lon="-8.241956">
        <ele>680.288</ele>
        <time>2018-07-20T11:40:15Z</time>
      </trkpt>
      <trkpt lat="42.461975" lon="-8.242419">
        <ele>685.533</ele>
        <time>2018-07-20T11:40:35Z</time>
      </trkpt>
      <trkpt lat="42.461749" lon="-8.242923">
        <ele>697.023</ele>
        <time>2018-07-20T11:40:55Z</time>
      </trkpt>
      <trkpt lat="42.461308" lon="-8.243407">
        <ele>695.615</ele>
        <time>2018-07-20T11:41:15Z</time>
      </trkpt>
      <trkpt lat="42.461220" lon="-8.244173">
        <ele>700.508</ele>
        <time>2018-07-20T11:41:35Z</time>
      </trkpt>
      <trkpt lat="42.461289" lon="-8.244577">
        <ele>699.425</ele>
        <time>2018-07-20T11:41:55Z</time>
      </trkpt>
      <trkpt lat="42.462088" lon="-8.244850">
        <ele>712.579</ele>
        <time>2018-07-20T11:42:15Z</time>
      </trkpt>
      <trkpt lat="42.462736" lon="-8.245158">
        <ele>718.860</ele>
        <time>2018-07-20T11:42:35Z</time>
      </trkpt>
      <trkpt lat="42.462764" lon="-8.244727">
        <ele>722.998</ele>
        <time>2018-07-20T11:42:55Z</time>
      </trkpt>
      <trkpt lat="42.462686" lon="-8.244130">
        <ele>727.433</ele>
        <time>2018-07-20T11:43:15Z</time>
      </trkpt>
      <trkpt lat="42.462598" lon="-8.243393">
        <ele>727.544</ele>
        <time>2018-07-20T11:43:35Z</time>
      </trkpt>
      <trkpt lat="42.463039" lon="-8.243291">
        <ele>732.956</ele>
        <time>2018-07-20T11:43:55Z</time>
      </trkpt>
      <trkpt lat="42.463594" lon="-8.243792">
        <ele>741.826</ele>
        <time>2018-07-20T11:44:15Z</time>
      </trkpt>
      <trkpt lat="42.464437" lon="-8.244308">
        <ele>754.816</ele>
        <time>2018-07-20T11:44:35Z</time>
      </trkpt>
      <trkpt lat="42.464685" lon="-8.244139">
        <ele>762.176</ele>
        <time>2018-07-20T11:44:55Z</time>
      </trkpt>
      <trkpt lat="42.464732" lon="-8.243481">
        <ele>761.313</ele>
        <time>2018-07-20T11:45:15Z</time>
      </trkpt>
      <trkpt lat="42.465315" lon="-8.242861">
        <ele>766.008</ele>
        <time>2018-07-20T11:45:35Z</time>
      </trkpt>
      <trkpt lat="42.466126" lon="-8.242444">
        <ele>773.433</ele>
        <time>2018-07-20T11:45:55Z</time>
      </trkpt>
      <trkpt lat="42.466803" lon="-8.242761">
        <ele>785.657</ele>
        <time>2018-07-20T11:46:15Z</time>
      </trkpt>
      <trkpt lat="42.468212" lon="-8.243445">
        <ele>781.478</ele>
        <time>2018-07-20T11:46:35Z</time>
      </trkpt>
      <trkpt lat="42.468524" lon="-8.243815">
        <ele>787.466</ele>
        <time>2018-07-20T11:46:55Z</time>
      </trkpt>
      <trkpt lat="42.469642" lon="-8.244463">
        <ele>790.431</ele>
        <time>2018-07-20T11:47:15Z</time>
      </trkpt>
      <trkpt lat="42.469688" lon="-8.244501">
        <ele>790.972</ele>
        <time>2018-07-20T11:47:35Z</time>
      </trkpt>
      <trkpt lat="42.470770" lon="-8.245157">
        <ele>795.984</ele>
        <time>2018-07-20T11:47:55Z</time>
      </trkpt>
      <trkpt lat="42.471274" lon="-8.245460">
        <ele>793.574</ele>
        <time>2018-07-20T11:48:15Z</time>
      </trkpt>
      <trkpt lat="42.471605" lon="-8.246239">
        <ele>797.774</ele>
        <time>2018-07-20T11:48:35Z</time>
      </trkpt>
      <trkpt lat="42.471647" lon="-8.246617">
        <ele>802.656</ele>
        <time>2018-07-20T11:48:55Z</time>
      </trkpt>
      <trkpt lat="42.472254" lon="-8.246771">
        <ele>800.221</ele>
        <time>2018-07-20T11:49:15Z</time>
      </trkpt>
      <trkpt lat="42.473140" lon="-8.246692">
        <ele>798.808</ele>
        <time>2018-07-20T11:49:35Z</time>
      </trkpt>
      <trkpt lat="42.473711" lon="-8.246759">
        <ele>797.749</ele>
        <time>2018-07-20T11:49:55Z</time>
      </trkpt>
      <trkpt lat="42.474326" lon="-8.247033">
        <ele>801.123</ele>
        <time>2018-07-20T11:50:15Z</time>
      </trkpt>
      <trkpt lat="42.474853" lon="-8.247031">
        <ele>800.744</ele>
        <time>2018-07-20T11:50:35Z</time>
      </trkpt>
      <trkpt lat="42.475824" lon="-8.247530">
        <ele>798.972</ele>
        <time>2018-07-20T11:50:55Z</time>
      </trkpt>
      <trkpt lat="42.476261" lon="-8.247512">
        <ele>797.587</ele>
        <time>2018-07-20T11:51:15Z</time>
      </trkpt>
      <trkpt lat="42.476926" lon="-8.247121">
        <ele>796.558</ele>
        <time>2018-07-20T11:51:35Z</time>
      </trkpt>
      <trkpt lat="42.477415" lon="-8.246889">
        <ele>796.760</ele>
        <time>2018-07-20T11:51:55Z</time>
      </trkpt>
      <trkpt lat="42.477609" lon="-8.246968">
        <ele>797.790</ele>
        <time>2018-07-20T11:52:15Z</time>
      </trkpt>
      <trkpt lat="42.477911" lon="-8.247196">
        <ele>798.281</ele>
        <time>2018-07-20T11:52:35Z</time>
      </trkpt>
      <trkpt lat="42.477983" lon="-8.247203">
        <ele>797.061</ele>
        <time>2018-07-20T11:52:55Z</time>
      </trkpt>
      <trkpt lat="42.478388" lon="-8.247692">
        <ele>799.817</ele>
        <time>2018-07-20T11:53:15Z</time>
      </trkpt>
      <trkpt lat="42.478441" lon="-8.247706">
        <ele>799.008</ele>
        <time>2018-07-20T11:53:35Z</time>
      </trkpt>
      <trkpt lat="42.478739" lon="-8.248006">
        <ele>800.690</ele>
        <time>2018-07-20T11:53:55Z</time>
      </trkpt>
      <trkpt lat="42.478778" lon="-8.248015">
        <ele>800.434</ele>
        <time>2018-07-20T11:54:15Z</time>
      </trkpt>
      <trkpt lat="42.479044" lon="-8.248013">
        <ele>799.925</ele>
        <time>2018-07-20T11:54:35Z</time>
      </trkpt>
      <trkpt lat="42.479238" lon="-8.247600">
        <ele>795.953</ele>
        <time>2018-07-20T11:54:55Z</time>
      </trkpt>
      <trkpt lat="42.479502" lon="-8.247410">
        <ele>794.438</ele>
        <time>2018-07-20T11:55:15Z</time>
      </trkpt>
      <trkpt lat="42.479596" lon="-8.247564">
        <ele>795.929</ele>
        <time>2018-07-20T11:55:35Z</time>
      </trkpt>
      <trkpt lat="42.479608" lon="-8.247581">
        <ele>796.221</ele>
        <time>2018-07-20T11:55:55Z</time>
      </trkpt>
      <trkpt lat="42.479608" lon="-8.247591">
        <ele>796.321</ele>
        <time>2018-07-20T11:56:15Z</time>
      </trkpt>
      <trkpt lat="42.479973" lon="-8.247952">
        <ele>799.434</ele>
        <time>2018-07-20T11:56:35Z</time>
      </trkpt>
      <trkpt lat="42.480010" lon="-8.247982">
        <ele>799.455</ele>
        <time>2018-07-20T11:56:55Z</time>
      </trkpt>
      <trkpt lat="42.480456" lon="-8.248627">
        <ele>796.110</ele>
        <time>2018-07-20T11:57:15Z</time>
      </trkpt>
      <trkpt lat="42.480500" lon="-8.248659">
        <ele>795.208</ele>
        <time>2018-07-20T11:57:35Z</time>
      </trkpt>
      <trkpt lat="42.480525" lon="-8.248674">
        <ele>794.795</ele>
        <time>2018-07-20T11:57:55Z</time>
      </trkpt>
      <trkpt lat="42.480885" lon="-8.249169">
        <ele>796.069</ele>
        <time>2018-07-20T11:58:15Z</time>
      </trkpt>
      <trkpt lat="42.481240" lon="-8.249102">
        <ele>796.850</ele>
        <time>2018-07-20T11:58:35Z</time>
      </trkpt>
      <trkpt lat="42.481266" lon="-8.249090">
        <ele>797.048</ele>
        <time>2018-07-20T11:58:55Z</time>
      </trkpt>
      <trkpt lat="42.481579" lon="-8.248904">
        <ele>797.163</ele>
        <time>2018-07-20T11:59:15Z</time>
      </trkpt>
      <trkpt lat="42.481600" lon="-8.248903">
        <ele>797.474</ele>
        <time>2018-07-20T11:59:35Z</time>
      </trkpt>
      <trkpt lat="42.481845" lon="-8.248872">
        <ele>797.036</ele>
        <time>2018-07-20T11:59:55Z</time>
      </trkpt>
      <trkpt lat="42.482126" lon="-8.249092">
        <ele>797.616</ele>
        <time>2018-07-20T12:00:15Z</time>
      </trkpt>
      <trkpt lat="42.482141" lon="-8.249112">
        <ele>797.629</ele>
        <time>2018-07-20T12:00:35Z</time>
      </trkpt>
      <trkpt lat="42.482437" lon="-8.249601">
        <ele>797.500</ele>
        <time>2018-07-20T12:00:55Z</time>
      </trkpt>
      <trkpt lat="42.482451" lon="-8.249637">
        <ele>797.420</ele>
        <time>2018-07-20T12:01:15Z</time>
      </trkpt>
      <trkpt lat="42.482834" lon="-8.250360">
        <ele>796.508</ele>
        <time>2018-07-20T12:01:35Z</time>
      </trkpt>
      <trkpt lat="42.482963" lon="-8.250657">
        <ele>799.074</ele>
        <time>2018-07-20T12:01:55Z</time>
      </trkpt>
      <trkpt lat="42.483318" lon="-8.250514">
        <ele>798.478</ele>
        <time>2018-07-20T12:02:15Z</time>
      </trkpt>
      <trkpt lat="42.483333" lon="-8.250503">
        <ele>798.419</ele>
        <time>2018-07-20T12:02:35Z</time>
      </trkpt>
      <trkpt lat="42.483764" lon="-8.249957">
        <ele>794.887</ele>
        <time>2018-07-20T12:02:55Z</time>
      </trkpt>
      <trkpt lat="42.483781" lon="-8.249945">
        <ele>794.962</ele>
        <time>2018-07-20T12:03:15Z</time>
      </trkpt>
      <trkpt lat="42.484307" lon="-8.249346">
        <ele>796.073</ele>
        <time>2018-07-20T12:03:35Z</time>
      </trkpt>
      <trkpt lat="42.484617" lon="-8.249078">
        <ele>796.415</ele>
        <time>2018-07-20T12:03:55Z</time>
      </trkpt>
      <trkpt lat="42.484773" lon="-8.249131">
        <ele>797.845</ele>
        <time>2018-07-20T12:04:15Z</time>
      </trkpt>
      <trkpt lat="42.485085" lon="-8.249359">
        <ele>798.898</ele>
        <time>2018-07-20T12:04:35Z</time>
      </trkpt>
      <trkpt lat="42.485342" lon="-8.249865">
        <ele>796.215</ele>
        <time>2018-07-20T12:04:55Z</time>
      </trkpt>
      <trkpt lat="42.485465" lon="-8.250337">
        <ele>798.326</ele>
        <time>2018-07-20T12:05:15Z</time>
      </trkpt>
      <trkpt lat="42.485464" lon="-8.250358">
        <ele>798.608</ele>
        <time>2018-07-20T12:05:35Z</time>
      </trkpt>
      <trkpt lat="42.485671" lon="-8.250621">
        <ele>799.071</ele>
        <time>2018-07-20T12:05:55Z</time>
      </trkpt>
      <trkpt lat="42.485699" lon="-8.250633">
        <ele>798.875</ele>
        <time>2018-07-20T12:06:15Z</time>
      </trkpt>
      <trkpt lat="42.486101" lon="-8.250834">
        <ele>798.156</ele>
        <time>2018-07-20T12:06:35Z</time>
      </trkpt>
      <trkpt lat="42.486119" lon="-8.250837">
        <ele>798.094</ele>
        <time>2018-07-20T12:06:55Z</time>
      </trkpt>
      <trkpt lat="42.486416" lon="-8.250694">
        <ele>794.929</ele>
        <time>2018-07-20T12:07:15Z</time>
      </trkpt>
      <trkpt lat="42.486580" lon="-8.250571">
        <ele>793.110</ele>
        <time>2018-07-20T12:07:35Z</time>
      </trkpt>
      <trkpt lat="42.486762" lon="-8.250590">
        <ele>792.632</ele>
        <time>2018-07-20T12:07:55Z</time>
      </trkpt>
      <trkpt lat="42.487404" lon="-8.251087">
        <ele>792.742</ele>
        <time>2018-07-20T12:08:15Z</time>
      </trkpt>
      <trkpt lat="42.487414" lon="-8.251113">
        <ele>793.078</ele>
        <time>2018-07-20T12:08:35Z</time>
      </trkpt>
      <trkpt lat="42.487691" lon="-8.251487">
        <ele>794.833</ele>
        <time>2018-07-20T12:08:55Z</time>
      </trkpt>
      <trkpt lat="42.487705" lon="-8.251493">
        <ele>794.726</ele>
        <time>2018-07-20T12:09:15Z</time>
      </trkpt>
      <trkpt lat="42.488149" lon="-8.251626">
        <ele>793.608</ele>
        <time>2018-07-20T12:09:35Z</time>
      </trkpt>
      <trkpt lat="42.488400" lon="-8.251767">
        <ele>794.679</ele>
        <time>2018-07-20T12:09:55Z</time>
      </trkpt>
      <trkpt lat="42.489583" lon="-8.252499">
        <ele>799.533</ele>
        <time>2018-07-20T12:10:15Z</time>
      </trkpt>
      <trkpt lat="42.490091" lon="-8.252647">
        <ele>798.064</ele>
        <time>2018-07-20T12:10:35Z</time>
      </trkpt>
      <trkpt lat="42.490389" lon="-8.252945">
        <ele>799.462</ele>
        <time>2018-07-20T12:10:55Z</time>
      </trkpt>
      <trkpt lat="42.490712" lon="-8.253074">
        <ele>798.757</ele>
        <time>2018-07-20T12:11:15Z</time>
      </trkpt>
      <trkpt lat="42.491217" lon="-8.253294">
        <ele>798.778</ele>
        <time>2018-07-20T12:11:35Z</time>
      </trkpt>
      <trkpt lat="42.492071" lon="-8.253701">
        <ele>800.170</ele>
        <time>2018-07-20T12:11:55Z</time>
      </trkpt>
      <trkpt lat="42.493134" lon="-8.254175">
        <ele>803.010</ele>
        <time>2018-07-20T12:12:15Z</time>
      </trkpt>
      <trkpt lat="42.493166" lon="-8.254181">
        <ele>803.191</ele>
        <time>2018-07-20T12:12:35Z</time>
      </trkpt>
      <trkpt lat="42.493594" lon="-8.253844">
        <ele>802.181</ele>
        <time>2018-07-20T12:12:55Z</time>
      </trkpt>
      <trkpt lat="42.494291" lon="-8.253068">
        <ele>800.419</ele>
        <time>2018-07-20T12:13:15Z</time>
      </trkpt>
      <trkpt lat="42.494727" lon="-8.252876">
        <ele>802.708</ele>
        <time>2018-07-20T12:13:35Z</time>
      </trkpt>
      <trkpt lat="42.495340" lon="-8.252693">
        <ele>806.291</ele>
        <time>2018-07-20T12:13:55Z</time>
      </trkpt>
      <trkpt lat="42.495361" lon="-8.252688">
        <ele>806.325</ele>
        <time>2018-07-20T12:14:15Z</time>
      </trkpt>
      <trkpt lat="42.495825" lon="-8.252385">
        <ele>807.446</ele>
        <time>2018-07-20T12:14:35Z</time>
      </trkpt>
      <trkpt lat="42.496540" lon="-8.251780">
        <ele>809.044</ele>
        <time>2018-07-20T12:14:55Z</time>
      </trkpt>
      <trkpt lat="42.497270" lon="-8.251159">
        <ele>806.149</ele>
        <time>2018-07-20T12:15:15Z</time>
      </trkpt>
      <trkpt lat="42.497829" lon="-8.251067">
        <ele>807.220</ele>
        <time>2018-07-20T12:15:35Z</time>
      </trkpt>
      <trkpt lat="42.498281" lon="-8.251396">
        <ele>808.692</ele>
        <time>2018-07-20T12:15:55Z</time>
      </trkpt>
      <trkpt lat="42.498289" lon="-8.251403">
        <ele>808.612</ele>
        <time>2018-07-20T12:16:15Z</time>
      </trkpt>
      <trkpt lat="42.498790" lon="-8.251831">
        <ele>811.153</ele>
        <time>2018-07-20T12:16:35Z</time>
      </trkpt>
      <trkpt lat="42.499098" lon="-8.252121">
        <ele>813.004</ele>
        <time>2018-07-20T12:16:55Z</time>
      </trkpt>
      <trkpt lat="42.499580" lon="-8.252341">
        <ele>814.214</ele>
        <time>2018-07-20T12:17:15Z</time>
      </trkpt>
      <trkpt lat="42.500383" lon="-8.252339">
        <ele>812.408</ele>
        <time>2018-07-20T12:17:35Z</time>
      </trkpt>
      <trkpt lat="42.501412" lon="-8.252473">
        <ele>812.567</ele>
        <time>2018-07-20T12:17:55Z</time>
      </trkpt>
      <trkpt lat="42.501826" lon="-8.252744">
        <ele>811.471</ele>
        <time>2018-07-20T12:18:15Z</time>
      </trkpt>
      <trkpt lat="42.502289" lon="-8.253207">
        <ele>814.232</ele>
        <time>2018-07-20T12:18:35Z</time>
      </trkpt>
      <trkpt lat="42.503012" lon="-8.253730">
        <ele>817.780</ele>
        <time>2018-07-20T12:18:55Z</time>
      </trkpt>
      <trkpt lat="42.503295" lon="-8.254093">
        <ele>821.235</ele>
        <time>2018-07-20T12:19:15Z</time>
      </trkpt>
      <trkpt lat="42.503648" lon="-8.254333">
        <ele>823.266</ele>
        <time>2018-07-20T12:19:35Z</time>
      </trkpt>
      <trkpt lat="42.504026" lon="-8.254861">
        <ele>824.818</ele>
        <time>2018-07-20T12:19:55Z</time>
      </trkpt>
      <trkpt lat="42.504452" lon="-8.255652">
        <ele>823.968</ele>
        <time>2018-07-20T12:20:15Z</time>
      </trkpt>
      <trkpt lat="42.505094" lon="-8.256085">
        <ele>821.376</ele>
        <time>2018-07-20T12:20:35Z</time>
      </trkpt>
      <trkpt lat="42.505721" lon="-8.256553">
        <ele>822.490</ele>
        <time>2018-07-20T12:20:55Z</time>
      </trkpt>
      <trkpt lat="42.506231" lon="-8.256721">
        <ele>827.119</ele>
        <time>2018-07-20T12:21:15Z</time>
      </trkpt>
      <trkpt lat="42.505657" lon="-8.256372">
        <ele>823.708</ele>
        <time>2018-07-20T12:21:35Z</time>
      </trkpt>
      <trkpt lat="42.505528" lon="-8.256206">
        <ele>824.419</ele>
        <time>2018-07-20T12:21:55Z</time>
      </trkpt>
      <trkpt lat="42.505389" lon="-8.256122">
        <ele>824.153</ele>
        <time>2018-07-20T12:22:15Z</time>
      </trkpt>
      <trkpt lat="42.505064" lon="-8.255853">
        <ele>823.714</ele>
        <time>2018-07-20T12:22:35Z</time>
      </trkpt>
      <trkpt lat="42.504701" lon="-8.255468">
        <ele>825.362</ele>
        <time>2018-07-20T12:22:55Z</time>
      </trkpt>
      <trkpt lat="42.504537" lon="-8.255048">
        <ele>825.767</ele>
        <time>2018-07-20T12:23:15Z</time>
      </trkpt>
      <trkpt lat="42.504593" lon="-8.254741">
        <ele>826.158</ele>
        <time>2018-07-20T12:23:35Z</time>
      </trkpt>
      <trkpt lat="42.504792" lon="-8.254435">
        <ele>826.990</ele>
        <time>2018-07-20T12:23:55Z</time>
      </trkpt>
      <trkpt lat="42.505164" lon="-8.254219">
        <ele>825.280</ele>
        <time>2018-07-20T12:24:15Z</time>
      </trkpt>
      <trkpt lat="42.505587" lon="-8.254105">
        <ele>824.377</ele>
        <time>2018-07-20T12:24:35Z</time>
      </trkpt>
      <trkpt lat="42.505923" lon="-8.253961">
        <ele>824.761</ele>
        <time>2018-07-20T12:24:55Z</time>
      </trkpt>
      <trkpt lat="42.506007" lon="-8.253447">
        <ele>821.027</ele>
        <time>2018-07-20T12:25:15Z</time>
      </trkpt>
      <trkpt lat="42.505903" lon="-8.252878">
        <ele>822.708</ele>
        <time>2018-07-20T12:25:35Z</time>
      </trkpt>
      <trkpt lat="42.505970" lon="-8.252694">
        <ele>824.659</ele>
        <time>2018-07-20T12:25:55Z</time>
      </trkpt>
      <trkpt lat="42.506017" lon="-8.252738">
        <ele>824.633</ele>
        <time>2018-07-20T12:26:15Z</time>
      </trkpt>
      <trkpt lat="42.506211" lon="-8.252880">
        <ele>824.064</ele>
        <time>2018-07-20T12:26:35Z</time>
      </trkpt>
      <trkpt lat="42.506532" lon="-8.253364">
        <ele>822.122</ele>
        <time>2018-07-20T12:26:55Z</time>
      </trkpt>
      <trkpt lat="42.506838" lon="-8.253809">
        <ele>823.317</ele>
        <time>2018-07-20T12:27:15Z</time>
      </trkpt>
      <trkpt lat="42.507612" lon="-8.253926">
        <ele>816.478</ele>
        <time>2018-07-20T12:27:35Z</time>
      </trkpt>
      <trkpt lat="42.508733" lon="-8.253710">
        <ele>814.930</ele>
        <time>2018-07-20T12:27:55Z</time>
      </trkpt>
      <trkpt lat="42.509289" lon="-8.253444">
        <ele>812.770</ele>
        <time>2018-07-20T12:28:15Z</time>
      </trkpt>
      <trkpt lat="42.509891" lon="-8.253730">
        <ele>814.554</ele>
        <time>2018-07-20T12:28:35Z</time>
      </trkpt>
      <trkpt lat="42.510599" lon="-8.253761">
        <ele>807.256</ele>
        <time>2018-07-20T12:28:55Z</time>
      </trkpt>
      <trkpt lat="42.511245" lon="-8.253889">
        <ele>805.011</ele>
        <time>2018-07-20T12:29:15Z</time>
      </trkpt>
      <trkpt lat="42.511930" lon="-8.253864">
        <ele>800.408</ele>
        <time>2018-07-20T12:29:35Z</time>
      </trkpt>
      <trkpt lat="42.512522" lon="-8.253323">
        <ele>792.017</ele>
        <time>2018-07-20T12:29:55Z</time>
      </trkpt>
      <trkpt lat="42.512957" lon="-8.253169">
        <ele>791.191</ele>
        <time>2018-07-20T12:30:15Z</time>
      </trkpt>
      <trkpt lat="42.513271" lon="-8.253258">
        <ele>790.852</ele>
        <time>2018-07-20T12:30:35Z</time>
      </trkpt>
      <trkpt lat="42.513579" lon="-8.253397">
        <ele>792.570</ele>
        <time>2018-07-20T12:30:55Z</time>
      </trkpt>
      <trkpt lat="42.514007" lon="-8.253098">
        <ele>782.185</ele>
        <time>2018-07-20T12:31:15Z</time>
      </trkpt>
      <trkpt lat="42.514815" lon="-8.252720">
        <ele>774.786</ele>
        <time>2018-07-20T12:31:35Z</time>
      </trkpt>
      <trkpt lat="42.515031" lon="-8.251812">
        <ele>773.678</ele>
        <time>2018-07-20T12:31:55Z</time>
      </trkpt>
      <trkpt lat="42.515508" lon="-8.250860">
        <ele>770.768</ele>
        <time>2018-07-20T12:32:15Z</time>
      </trkpt>
      <trkpt lat="42.515952" lon="-8.249846">
        <ele>766.449</ele>
        <time>2018-07-20T12:32:35Z</time>
      </trkpt>
      <trkpt lat="42.516299" lon="-8.248872">
        <ele>759.602</ele>
        <time>2018-07-20T12:32:55Z</time>
      </trkpt>
      <trkpt lat="42.517006" lon="-8.248205">
        <ele>753.122</ele>
        <time>2018-07-20T12:33:15Z</time>
      </trkpt>
      <trkpt lat="42.517640" lon="-8.248314">
        <ele>743.508</ele>
        <time>2018-07-20T12:33:35Z</time>
      </trkpt>
      <trkpt lat="42.517852" lon="-8.248623">
        <ele>742.296</ele>
        <time>2018-07-20T12:33:55Z</time>
      </trkpt>
      <trkpt lat="42.517529" lon="-8.249112">
        <ele>748.970</ele>
        <time>2018-07-20T12:34:15Z</time>
      </trkpt>
      <trkpt lat="42.517390" lon="-8.249585">
        <ele>749.151</ele>
        <time>2018-07-20T12:34:35Z</time>
      </trkpt>
      <trkpt lat="42.517409" lon="-8.250553">
        <ele>747.069</ele>
        <time>2018-07-20T12:34:55Z</time>
      </trkpt>
      <trkpt lat="42.517567" lon="-8.251318">
        <ele>739.434</ele>
        <time>2018-07-20T12:35:15Z</time>
      </trkpt>
      <trkpt lat="42.518516" lon="-8.251626">
        <ele>709.685</ele>
        <time>2018-07-20T12:35:35Z</time>
      </trkpt>
      <trkpt lat="42.518057" lon="-8.252480">
        <ele>727.917</ele>
        <time>2018-07-20T12:35:55Z</time>
      </trkpt>
      <trkpt lat="42.518059" lon="-8.252713">
        <ele>725.627</ele>
        <time>2018-07-20T12:36:15Z</time>
      </trkpt>
      <trkpt lat="42.517944" lon="-8.253453">
        <ele>729.472</ele>
        <time>2018-07-20T12:36:35Z</time>
      </trkpt>
      <trkpt lat="42.518153" lon="-8.253802">
        <ele>726.413</ele>
        <time>2018-07-20T12:36:55Z</time>
      </trkpt>
      <trkpt lat="42.518290" lon="-8.253954">
        <ele>726.614</ele>
        <time>2018-07-20T12:37:15Z</time>
      </trkpt>
      <trkpt lat="42.518472" lon="-8.253830">
        <ele>727.408</ele>
        <time>2018-07-20T12:37:35Z</time>
      </trkpt>
      <trkpt lat="42.518478" lon="-8.253620">
        <ele>725.149</ele>
        <time>2018-07-20T12:37:55Z</time>
      </trkpt>
      <trkpt lat="42.518583" lon="-8.253325">
        <ele>720.933</ele>
        <time>2018-07-20T12:38:15Z</time>
      </trkpt>
      <trkpt lat="42.518853" lon="-8.253247">
        <ele>721.234</ele>
        <time>2018-07-20T12:38:35Z</time>
      </trkpt>
      <trkpt lat="42.519035" lon="-8.253215">
        <ele>723.842</ele>
        <time>2018-07-20T12:38:55Z</time>
      </trkpt>
      <trkpt lat="42.519305" lon="-8.253048">
        <ele>725.897</ele>
        <time>2018-07-20T12:39:15Z</time>
      </trkpt>
      <trkpt lat="42.519858" lon="-8.252583">
        <ele>725.598</ele>
        <time>2018-07-20T12:39:35Z</time>
      </trkpt>
      <trkpt lat="42.520353" lon="-8.252277">
        <ele>729.360</ele>
        <time>2018-07-20T12:39:55Z</time>
      </trkpt>
      <trkpt lat="42.520746" lon="-8.252029">
        <ele>728.760</ele>
        <time>2018-07-20T12:40:15Z</time>
      </trkpt>
      <trkpt lat="42.521164" lon="-8.252006">
        <ele>732.367</ele>
        <time>2018-07-20T12:40:35Z</time>
      </trkpt>
      <trkpt lat="42.521556" lon="-8.252109">
        <ele>735.281</ele>
        <time>2018-07-20T12:40:55Z</time>
      </trkpt>
      <trkpt lat="42.521819" lon="-8.252296">
        <ele>738.519</ele>
        <time>2018-07-20T12:41:15Z</time>
      </trkpt>
      <trkpt lat="42.522380" lon="-8.252421">
        <ele>744.308</ele>
        <time>2018-07-20T12:41:35Z</time>
      </trkpt>
      <trkpt lat="42.522603" lon="-8.252162">
        <ele>744.148</ele>
        <time>2018-07-20T12:41:55Z</time>
      </trkpt>
      <trkpt lat="42.522510" lon="-8.251786">
        <ele>739.942</ele>
        <time>2018-07-20T12:42:15Z</time>
      </trkpt>
      <trkpt lat="42.522383" lon="-8.251166">
        <ele>741.493</ele>
        <time>2018-07-20T12:42:35Z</time>
      </trkpt>
      <trkpt lat="42.522356" lon="-8.250243">
        <ele>745.951</ele>
        <time>2018-07-20T12:42:55Z</time>
      </trkpt>
      <trkpt lat="42.522494" lon="-8.249666">
        <ele>749.766</ele>
        <time>2018-07-20T12:43:15Z</time>
      </trkpt>
      <trkpt lat="42.522660" lon="-8.248871">
        <ele>746.677</ele>
        <time>2018-07-20T12:43:35Z</time>
      </trkpt>
      <trkpt lat="42.522656" lon="-8.248057">
        <ele>744.139</ele>
        <time>2018-07-20T12:43:55Z</time>
      </trkpt>
      <trkpt lat="42.523120" lon="-8.248413">
        <ele>747.849</ele>
        <time>2018-07-20T12:44:15Z</time>
      </trkpt>
      <trkpt lat="42.523490" lon="-8.248898">
        <ele>754.099</ele>
        <time>2018-07-20T12:44:35Z</time>
      </trkpt>
      <trkpt lat="42.523407" lon="-8.249157">
        <ele>758.107</ele>
        <time>2018-07-20T12:44:55Z</time>
      </trkpt>
      <trkpt lat="42.523667" lon="-8.249498">
        <ele>763.727</ele>
        <time>2018-07-20T12:45:15Z</time>
      </trkpt>
      <trkpt lat="42.523671" lon="-8.250081">
        <ele>771.508</ele>
        <time>2018-07-20T12:45:35Z</time>
      </trkpt>
      <trkpt lat="42.523680" lon="-8.250398">
        <ele>774.661</ele>
        <time>2018-07-20T12:45:55Z</time>
      </trkpt>
      <trkpt lat="42.524125" lon="-8.250352">
        <ele>779.545</ele>
        <time>2018-07-20T12:46:15Z</time>
      </trkpt>
      <trkpt lat="42.524750" lon="-8.250030">
        <ele>781.536</ele>
        <time>2018-07-20T12:46:35Z</time>
      </trkpt>
      <trkpt lat="42.525483" lon="-8.249579">
        <ele>786.784</ele>
        <time>2018-07-20T12:46:55Z</time>
      </trkpt>
      <trkpt lat="42.526017" lon="-8.249638">
        <ele>795.379</ele>
        <time>2018-07-20T12:47:15Z</time>
      </trkpt>
      <trkpt lat="42.526494" lon="-8.250000">
        <ele>804.740</ele>
        <time>2018-07-20T12:47:35Z</time>
      </trkpt>
      <trkpt lat="42.527743" lon="-8.250021">
        <ele>799.622</ele>
        <time>2018-07-20T12:47:55Z</time>
      </trkpt>
      <trkpt lat="42.529031" lon="-8.249136">
        <ele>798.422</ele>
        <time>2018-07-20T12:48:15Z</time>
      </trkpt>
      <trkpt lat="42.530162" lon="-8.248674">
        <ele>785.884</ele>
        <time>2018-07-20T12:48:35Z</time>
      </trkpt>
      <trkpt lat="42.530403" lon="-8.248224">
        <ele>783.307</ele>
        <time>2018-07-20T12:48:55Z</time>
      </trkpt>
      <trkpt lat="42.530550" lon="-8.248356">
        <ele>780.017</ele>
        <time>2018-07-20T12:49:15Z</time>
      </trkpt>
      <trkpt lat="42.530570" lon="-8.248598">
        <ele>778.908</ele>
        <time>2018-07-20T12:49:35Z</time>
      </trkpt>
      <trkpt lat="42.530421" lon="-8.248937">
        <ele>779.250</ele>
        <time>2018-07-20T12:49:55Z</time>
      </trkpt>
      <trkpt lat="42.530198" lon="-8.249280">
        <ele>779.594</ele>
        <time>2018-07-20T12:50:15Z</time>
      </trkpt>
      <trkpt lat="42.529889" lon="-8.249650">
        <ele>778.375</ele>
        <time>2018-07-20T12:50:35Z</time>
      </trkpt>
      <trkpt lat="42.529878" lon="-8.249664">
        <ele>778.293</ele>
        <time>2018-07-20T12:50:55Z</time>
      </trkpt>
      <trkpt lat="42.529566" lon="-8.250207">
        <ele>774.938</ele>
        <time>2018-07-20T12:51:15Z</time>
      </trkpt>
      <trkpt lat="42.529336" lon="-8.250743">
        <ele>775.769</ele>
        <time>2018-07-20T12:51:35Z</time>
      </trkpt>
      <trkpt lat="42.529394" lon="-8.250905">
        <ele>776.131</ele>
        <time>2018-07-20T12:51:55Z</time>
      </trkpt>
      <trkpt lat="42.529728" lon="-8.250873">
        <ele>774.421</ele>
        <time>2018-07-20T12:52:15Z</time>
      </trkpt>
      <trkpt lat="42.530002" lon="-8.250996">
        <ele>775.747</ele>
        <time>2018-07-20T12:52:35Z</time>
      </trkpt>
      <trkpt lat="42.529409" lon="-8.251453">
        <ele>781.929</ele>
        <time>2018-07-20T12:52:55Z</time>
      </trkpt>
      <trkpt lat="42.529236" lon="-8.252113">
        <ele>790.121</ele>
        <time>2018-07-20T12:53:15Z</time>
      </trkpt>
      <trkpt lat="42.529223" lon="-8.252943">
        <ele>792.108</ele>
        <time>2018-07-20T12:53:35Z</time>
      </trkpt>
      <trkpt lat="42.529244" lon="-8.253809">
        <ele>797.386</ele>
        <time>2018-07-20T12:53:55Z</time>
      </trkpt>
      <trkpt lat="42.528973" lon="-8.254481">
        <ele>799.540</ele>
        <time>2018-07-20T12:54:15Z</time>
      </trkpt>
      <trkpt lat="42.528597" lon="-8.255798">
        <ele>795.731</ele>
        <time>2018-07-20T12:54:35Z</time>
      </trkpt>
      <trkpt lat="42.528216" lon="-8.257106">
        <ele>783.259</ele>
        <time>2018-07-20T12:54:55Z</time>
      </trkpt>
      <trkpt lat="42.527558" lon="-8.258641">
        <ele>784.994</ele>
        <time>2018-07-20T12:55:15Z</time>
      </trkpt>
      <trkpt lat="42.526679" lon="-8.261370">
        <ele>849.335</ele>
        <time>2018-07-20T12:55:35Z</time>
      </trkpt>
      <trkpt lat="42.526168" lon="-8.262628">
        <ele>881.357</ele>
        <time>2018-07-20T12:55:55Z</time>
      </trkpt>
      <trkpt lat="42.525845" lon="-8.263438">
        <ele>898.027</ele>
        <time>2018-07-20T12:56:15Z</time>
      </trkpt>
      <trkpt lat="42.524437" lon="-8.264235">
        <ele>898.777</ele>
        <time>2018-07-20T12:56:35Z</time>
      </trkpt>
      <trkpt lat="42.522978" lon="-8.265150">
        <ele>896.161</ele>
        <time>2018-07-20T12:56:55Z</time>
      </trkpt>
      <trkpt lat="42.521781" lon="-8.266160">
        <ele>913.727</ele>
        <time>2018-07-20T12:57:15Z</time>
      </trkpt>
      <trkpt lat="42.521236" lon="-8.266764">
        <ele>922.008</ele>
        <time>2018-07-20T12:57:35Z</time>
      </trkpt>
      <trkpt lat="42.520922" lon="-8.266919">
        <ele>924.859</ele>
        <time>2018-07-20T12:57:55Z</time>
      </trkpt>
      <trkpt lat="42.520582" lon="-8.267664">
        <ele>919.963</ele>
        <time>2018-07-20T12:58:15Z</time>
      </trkpt>
      <trkpt lat="42.520146" lon="-8.268434">
        <ele>906.544</ele>
        <time>2018-07-20T12:58:35Z</time>
      </trkpt>
      <trkpt lat="42.519565" lon="-8.269238">
        <ele>893.612</ele>
        <time>2018-07-20T12:58:55Z</time>
      </trkpt>
      <trkpt lat="42.518894" lon="-8.269676">
        <ele>879.437</ele>
        <time>2018-07-20T12:59:15Z</time>
      </trkpt>
      <trkpt lat="42.518158" lon="-8.270320">
        <ele>867.828</ele>
        <time>2018-07-20T12:59:35Z</time>
      </trkpt>
      <trkpt lat="42.517843" lon="-8.271030">
        <ele>856.970</ele>
        <time>2018-07-20T12:59:55Z</time>
      </trkpt>
      <trkpt lat="42.517319" lon="-8.271397">
        <ele>846.650</ele>
        <time>2018-07-20T13:00:15Z</time>
      </trkpt>
      <trkpt lat="42.515968" lon="-8.271504">
        <ele>819.299</ele>
        <time>2018-07-20T13:00:35Z</time>
      </trkpt>
      <trkpt lat="42.515662" lon="-8.271295">
        <ele>810.407</ele>
        <time>2018-07-20T13:00:55Z</time>
      </trkpt>
      <trkpt lat="42.515587" lon="-8.271774">
        <ele>809.427</ele>
        <time>2018-07-20T13:01:15Z</time>
      </trkpt>
      <trkpt lat="42.515607" lon="-8.272143">
        <ele>805.708</ele>
        <time>2018-07-20T13:01:35Z</time>
      </trkpt>
      <trkpt lat="42.515584" lon="-8.272334">
        <ele>802.581</ele>
        <time>2018-07-20T13:01:55Z</time>
      </trkpt>
      <trkpt lat="42.515365" lon="-8.272203">
        <ele>801.815</ele>
        <time>2018-07-20T13:02:15Z</time>
      </trkpt>
      <trkpt lat="42.515232" lon="-8.272334">
        <ele>799.816</ele>
        <time>2018-07-20T13:02:35Z</time>
      </trkpt>
      <trkpt lat="42.515360" lon="-8.272475">
        <ele>799.564</ele>
        <time>2018-07-20T13:02:55Z</time>
      </trkpt>
      <trkpt lat="42.515756" lon="-8.272858">
        <ele>799.449</ele>
        <time>2018-07-20T13:03:15Z</time>
      </trkpt>
      <trkpt lat="42.516210" lon="-8.273111">
        <ele>801.870</ele>
        <time>2018-07-20T13:03:35Z</time>
      </trkpt>
      <trkpt lat="42.517074" lon="-8.273564">
        <ele>801.922</ele>
        <time>2018-07-20T13:03:55Z</time>
      </trkpt>
      <trkpt lat="42.517751" lon="-8.273753">
        <ele>804.882</ele>
        <time>2018-07-20T13:04:15Z</time>
      </trkpt>
      <trkpt lat="42.518211" lon="-8.273984">
        <ele>803.656</ele>
        <time>2018-07-20T13:04:35Z</time>
      </trkpt>
      <trkpt lat="42.518860" lon="-8.274277">
        <ele>809.859</ele>
        <time>2018-07-20T13:04:55Z</time>
      </trkpt>
      <trkpt lat="42.519439" lon="-8.274890">
        <ele>805.514</ele>
        <time>2018-07-20T13:05:15Z</time>
      </trkpt>
      <trkpt lat="42.519762" lon="-8.275427">
        <ele>801.008</ele>
        <time>2018-07-20T13:05:35Z</time>
      </trkpt>
      <trkpt lat="42.519901" lon="-8.275782">
        <ele>801.297</ele>
        <time>2018-07-20T13:05:55Z</time>
      </trkpt>
      <trkpt lat="42.520111" lon="-8.276360">
        <ele>803.551</ele>
        <time>2018-07-20T13:06:15Z</time>
      </trkpt>
      <trkpt lat="42.520328" lon="-8.276889">
        <ele>805.672</ele>
        <time>2018-07-20T13:06:35Z</time>
      </trkpt>
      <trkpt lat="42.520508" lon="-8.277208">
        <ele>809.350</ele>
        <time>2018-07-20T13:06:55Z</time>
      </trkpt>
      <trkpt lat="42.520928" lon="-8.277698">
        <ele>818.035</ele>
        <time>2018-07-20T13:07:15Z</time>
      </trkpt>
      <trkpt lat="42.521259" lon="-8.278006">
        <ele>825.126</ele>
        <time>2018-07-20T13:07:35Z</time>
      </trkpt>
      <trkpt lat="42.521507" lon="-8.278369">
        <ele>829.748</ele>
        <time>2018-07-20T13:07:55Z</time>
      </trkpt>
      <trkpt lat="42.521494" lon="-8.278635">
        <ele>830.748</ele>
        <time>2018-07-20T13:08:15Z</time>
      </trkpt>
      <trkpt lat="42.521382" lon="-8.278842">
        <ele>831.423</ele>
        <time>2018-07-20T13:08:35Z</time>
      </trkpt>
      <trkpt lat="42.521265" lon="-8.279026">
        <ele>832.283</ele>
        <time>2018-07-20T13:08:55Z</time>
      </trkpt>
      <trkpt lat="42.521318" lon="-8.279213">
        <ele>836.011</ele>
        <time>2018-07-20T13:09:15Z</time>
      </trkpt>
      <trkpt lat="42.521548" lon="-8.279354">
        <ele>841.208</ele>
        <time>2018-07-20T13:09:35Z</time>
      </trkpt>
      <trkpt lat="42.521935" lon="-8.279443">
        <ele>842.074</ele>
        <time>2018-07-20T13:09:55Z</time>
      </trkpt>
      <trkpt lat="42.522102" lon="-8.279119">
        <ele>839.878</ele>
        <time>2018-07-20T13:10:15Z</time>
      </trkpt>
      <trkpt lat="42.522112" lon="-8.279099">
        <ele>839.739</ele>
        <time>2018-07-20T13:10:35Z</time>
      </trkpt>
      <trkpt lat="42.522126" lon="-8.279081">
        <ele>839.687</ele>
        <time>2018-07-20T13:10:55Z</time>
      </trkpt>
      <trkpt lat="42.522376" lon="-8.278575">
        <ele>840.472</ele>
        <time>2018-07-20T13:11:15Z</time>
      </trkpt>
      <trkpt lat="42.522386" lon="-8.278562">
        <ele>840.593</ele>
        <time>2018-07-20T13:11:35Z</time>
      </trkpt>
      <trkpt lat="42.522601" lon="-8.278006">
        <ele>845.555</ele>
        <time>2018-07-20T13:11:55Z</time>
      </trkpt>
      <trkpt lat="42.522519" lon="-8.277623">
        <ele>849.075</ele>
        <time>2018-07-20T13:12:15Z</time>
      </trkpt>
      <trkpt lat="42.522227" lon="-8.277200">
        <ele>851.138</ele>
        <time>2018-07-20T13:12:35Z</time>
      </trkpt>
      <trkpt lat="42.522222" lon="-8.277199">
        <ele>851.170</ele>
        <time>2018-07-20T13:12:55Z</time>
      </trkpt>
      <trkpt lat="42.522005" lon="-8.276815">
        <ele>850.017</ele>
        <time>2018-07-20T13:13:15Z</time>
      </trkpt>
      <trkpt lat="42.521990" lon="-8.276755">
        <ele>850.108</ele>
        <time>2018-07-20T13:13:35Z</time>
      </trkpt>
      <trkpt lat="42.521845" lon="-8.276208">
        <ele>849.855</ele>
        <time>2018-07-20T13:13:55Z</time>
      </trkpt>
      <trkpt lat="42.521837" lon="-8.276154">
        <ele>849.859</ele>
        <time>2018-07-20T13:14:15Z</time>
      </trkpt>
      <trkpt lat="42.521547" lon="-8.275344">
        <ele>849.770</ele>
        <time>2018-07-20T13:14:35Z</time>
      </trkpt>
      <trkpt lat="42.521527" lon="-8.275295">
        <ele>849.548</ele>
        <time>2018-07-20T13:14:55Z</time>
      </trkpt>
      <trkpt lat="42.521493" lon="-8.275075">
        <ele>848.953</ele>
        <time>2018-07-20T13:15:15Z</time>
      </trkpt>
      <trkpt lat="42.521763" lon="-8.274790">
        <ele>851.794</ele>
        <time>2018-07-20T13:15:35Z</time>
      </trkpt>
      <trkpt lat="42.521789" lon="-8.274515">
        <ele>851.646</ele>
        <time>2018-07-20T13:15:55Z</time>
      </trkpt>
      <trkpt lat="42.521791" lon="-8.274489">
        <ele>851.646</ele>
        <time>2018-07-20T13:16:15Z</time>
      </trkpt>
      <trkpt lat="42.521789" lon="-8.274468">
        <ele>851.672</ele>
        <time>2018-07-20T13:16:35Z</time>
      </trkpt>
      <trkpt lat="42.521584" lon="-8.273428">
        <ele>860.213</ele>
        <time>2018-07-20T13:16:55Z</time>
      </trkpt>
      <trkpt lat="42.521580" lon="-8.273385">
        <ele>860.714</ele>
        <time>2018-07-20T13:17:15Z</time>
      </trkpt>
      <trkpt lat="42.521483" lon="-8.272797">
        <ele>867.808</ele>
        <time>2018-07-20T13:17:35Z</time>
      </trkpt>
      <trkpt lat="42.521470" lon="-8.271932">
        <ele>874.999</ele>
        <time>2018-07-20T13:17:55Z</time>
      </trkpt>
      <trkpt lat="42.521539" lon="-8.269959">
        <ele>870.813</ele>
        <time>2018-07-20T13:18:15Z</time>
      </trkpt>
      <trkpt lat="42.521983" lon="-8.268329">
        <ele>877.474</ele>
        <time>2018-07-20T13:18:35Z</time>
      </trkpt>
      <trkpt lat="42.522007" lon="-8.268283">
        <ele>878.312</ele>
        <time>2018-07-20T13:18:55Z</time>
      </trkpt>
      <trkpt lat="42.522395" lon="-8.267268">
        <ele>887.657</ele>
        <time>2018-07-20T13:19:15Z</time>
      </trkpt>
      <trkpt lat="42.523211" lon="-8.266326">
        <ele>879.428</ele>
        <time>2018-07-20T13:19:35Z</time>
      </trkpt>
      <trkpt lat="42.524530" lon="-8.265478">
        <ele>879.020</ele>
        <time>2018-07-20T13:19:55Z</time>
      </trkpt>
      <trkpt lat="42.524881" lon="-8.265363">
        <ele>881.040</ele>
        <time>2018-07-20T13:20:15Z</time>
      </trkpt>
      <trkpt lat="42.525584" lon="-8.266126">
        <ele>863.723</ele>
        <time>2018-07-20T13:20:35Z</time>
      </trkpt>
      <trkpt lat="42.526436" lon="-8.267036">
        <ele>844.983</ele>
        <time>2018-07-20T13:20:55Z</time>
      </trkpt>
      <trkpt lat="42.527478" lon="-8.267868">
        <ele>824.311</ele>
        <time>2018-07-20T13:21:15Z</time>
      </trkpt>
      <trkpt lat="42.527924" lon="-8.268422">
        <ele>813.708</ele>
        <time>2018-07-20T13:21:35Z</time>
      </trkpt>
      <trkpt lat="42.528198" lon="-8.268947">
        <ele>809.414</ele>
        <time>2018-07-20T13:21:55Z</time>
      </trkpt>
      <trkpt lat="42.528541" lon="-8.269464">
        <ele>806.938</ele>
        <time>2018-07-20T13:22:15Z</time>
      </trkpt>
      <trkpt lat="42.528758" lon="-8.269955">
        <ele>806.059</ele>
        <time>2018-07-20T13:22:35Z</time>
      </trkpt>
      <trkpt lat="42.529043" lon="-8.269917">
        <ele>803.037</ele>
        <time>2018-07-20T13:22:55Z</time>
      </trkpt>
      <trkpt lat="42.529068" lon="-8.269335">
        <ele>797.582</ele>
        <time>2018-07-20T13:23:15Z</time>
      </trkpt>
      <trkpt lat="42.528950" lon="-8.268219">
        <ele>793.783</ele>
        <time>2018-07-20T13:23:35Z</time>
      </trkpt>
      <trkpt lat="42.529249" lon="-8.268079">
        <ele>789.385</ele>
        <time>2018-07-20T13:23:55Z</time>
      </trkpt>
      <trkpt lat="42.530145" lon="-8.267616">
        <ele>773.485</ele>
        <time>2018-07-20T13:24:15Z</time>
      </trkpt>
      <trkpt lat="42.531094" lon="-8.267498">
        <ele>762.293</ele>
        <time>2018-07-20T13:24:35Z</time>
      </trkpt>
      <trkpt lat="42.531661" lon="-8.267397">
        <ele>757.165</ele>
        <time>2018-07-20T13:24:55Z</time>
      </trkpt>
      <trkpt lat="42.532041" lon="-8.267584">
        <ele>752.021</ele>
        <time>2018-07-20T13:25:15Z</time>
      </trkpt>
      <trkpt lat="42.532287" lon="-8.268072">
        <ele>747.908</ele>
        <time>2018-07-20T13:25:35Z</time>
      </trkpt>
      <trkpt lat="42.532195" lon="-8.268450">
        <ele>745.111</ele>
        <time>2018-07-20T13:25:55Z</time>
      </trkpt>
      <trkpt lat="42.532107" lon="-8.268890">
        <ele>738.825</ele>
        <time>2018-07-20T13:26:15Z</time>
      </trkpt>
      <trkpt lat="42.531782" lon="-8.269136">
        <ele>738.086</ele>
        <time>2018-07-20T13:26:35Z</time>
      </trkpt>
      <trkpt lat="42.531431" lon="-8.269248">
        <ele>739.614</ele>
        <time>2018-07-20T13:26:55Z</time>
      </trkpt>
      <trkpt lat="42.531288" lon="-8.269432">
        <ele>742.139</ele>
        <time>2018-07-20T13:27:15Z</time>
      </trkpt>
      <trkpt lat="42.531476" lon="-8.269772">
        <ele>738.820</ele>
        <time>2018-07-20T13:27:35Z</time>
      </trkpt>
      <trkpt lat="42.531693" lon="-8.270378">
        <ele>736.072</ele>
        <time>2018-07-20T13:27:55Z</time>
      </trkpt>
      <trkpt lat="42.532168" lon="-8.271208">
        <ele>730.842</ele>
        <time>2018-07-20T13:28:15Z</time>
      </trkpt>
      <trkpt lat="42.532214" lon="-8.271747">
        <ele>732.269</ele>
        <time>2018-07-20T13:28:35Z</time>
      </trkpt>
      <trkpt lat="42.532266" lon="-8.272450">
        <ele>726.504</ele>
        <time>2018-07-20T13:28:55Z</time>
      </trkpt>
      <trkpt lat="42.532516" lon="-8.272851">
        <ele>723.424</ele>
        <time>2018-07-20T13:29:15Z</time>
      </trkpt>
      <trkpt lat="42.533015" lon="-8.272713">
        <ele>726.408</ele>
        <time>2018-07-20T13:29:35Z</time>
      </trkpt>
      <trkpt lat="42.533743" lon="-8.272604">
        <ele>733.238</ele>
        <time>2018-07-20T13:29:55Z</time>
      </trkpt>
      <trkpt lat="42.534499" lon="-8.272933">
        <ele>739.772</ele>
        <time>2018-07-20T13:30:15Z</time>
      </trkpt>
      <trkpt lat="42.534893" lon="-8.273141">
        <ele>741.953</ele>
        <time>2018-07-20T13:30:35Z</time>
      </trkpt>
      <trkpt lat="42.535190" lon="-8.273536">
        <ele>744.951</ele>
        <time>2018-07-20T13:30:55Z</time>
      </trkpt>
      <trkpt lat="42.535647" lon="-8.273277">
        <ele>746.036</ele>
        <time>2018-07-20T13:31:15Z</time>
      </trkpt>
      <trkpt lat="42.536098" lon="-8.273387">
        <ele>753.777</ele>
        <time>2018-07-20T13:31:35Z</time>
      </trkpt>
      <trkpt lat="42.536678" lon="-8.273454">
        <ele>760.189</ele>
        <time>2018-07-20T13:31:55Z</time>
      </trkpt>
      <trkpt lat="42.538230" lon="-8.273589">
        <ele>762.199</ele>
        <time>2018-07-20T13:32:15Z</time>
      </trkpt>
      <trkpt lat="42.538909" lon="-8.273574">
        <ele>767.672</ele>
        <time>2018-07-20T13:32:35Z</time>
      </trkpt>
      <trkpt lat="42.538992" lon="-8.273449">
        <ele>766.113</ele>
        <time>2018-07-20T13:32:55Z</time>
      </trkpt>
      <trkpt lat="42.539650" lon="-8.273173">
        <ele>768.314</ele>
        <time>2018-07-20T13:33:15Z</time>
      </trkpt>
      <trkpt lat="42.539997" lon="-8.273163">
        <ele>772.508</ele>
        <time>2018-07-20T13:33:35Z</time>
      </trkpt>
      <trkpt lat="42.540309" lon="-8.272415">
        <ele>765.059</ele>
        <time>2018-07-20T13:33:55Z</time>
      </trkpt>
      <trkpt lat="42.541093" lon="-8.271599">
        <ele>765.583</ele>
        <time>2018-07-20T13:34:15Z</time>
      </trkpt>
      <trkpt lat="42.542324" lon="-8.271239">
        <ele>765.384</ele>
        <time>2018-07-20T13:34:35Z</time>
      </trkpt>
      <trkpt lat="42.543135" lon="-8.270953">
        <ele>766.322</ele>
        <time>2018-07-20T13:34:55Z</time>
      </trkpt>
      <trkpt lat="42.543019" lon="-8.270114">
        <ele>764.967</ele>
        <time>2018-07-20T13:35:15Z</time>
      </trkpt>
      <trkpt lat="42.543117" lon="-8.269754">
        <ele>768.588</ele>
        <time>2018-07-20T13:35:35Z</time>
      </trkpt>
      <trkpt lat="42.543523" lon="-8.268922">
        <ele>770.240</ele>
        <time>2018-07-20T13:35:55Z</time>
      </trkpt>
      <trkpt lat="42.543980" lon="-8.268348">
        <ele>768.830</ele>
        <time>2018-07-20T13:36:15Z</time>
      </trkpt>
      <trkpt lat="42.544737" lon="-8.267655">
        <ele>762.799</ele>
        <time>2018-07-20T13:36:35Z</time>
      </trkpt>
      <trkpt lat="42.545102" lon="-8.267992">
        <ele>765.507</ele>
        <time>2018-07-20T13:36:55Z</time>
      </trkpt>
      <trkpt lat="42.545545" lon="-8.267712">
        <ele>764.127</ele>
        <time>2018-07-20T13:37:15Z</time>
      </trkpt>
      <trkpt lat="42.545965" lon="-8.266949">
        <ele>765.908</ele>
        <time>2018-07-20T13:37:35Z</time>
      </trkpt>
      <trkpt lat="42.546330" lon="-8.266558">
        <ele>768.031</ele>
        <time>2018-07-20T13:37:55Z</time>
      </trkpt>
      <trkpt lat="42.547163" lon="-8.266145">
        <ele>757.375</ele>
        <time>2018-07-20T13:38:15Z</time>
      </trkpt>
      <trkpt lat="42.547955" lon="-8.265565">
        <ele>741.966</ele>
        <time>2018-07-20T13:38:35Z</time>
      </trkpt>
      <trkpt lat="42.548854" lon="-8.265417">
        <ele>735.124</ele>
        <time>2018-07-20T13:38:55Z</time>
      </trkpt>
      <trkpt lat="42.548954" lon="-8.264919">
        <ele>729.219</ele>
        <time>2018-07-20T13:39:15Z</time>
      </trkpt>
      <trkpt lat="42.549620" lon="-8.264410">
        <ele>725.260</ele>
        <time>2018-07-20T13:39:35Z</time>
      </trkpt>
      <trkpt lat="42.550745" lon="-8.263782">
        <ele>715.042</ele>
        <time>2018-07-20T13:39:55Z</time>
      </trkpt>
      <trkpt lat="42.551943" lon="-8.263093">
        <ele>702.462</ele>
        <time>2018-07-20T13:40:15Z</time>
      </trkpt>
      <trkpt lat="42.553184" lon="-8.262668">
        <ele>702.337</ele>
        <time>2018-07-20T13:40:35Z</time>
      </trkpt>
      <trkpt lat="42.553563" lon="-8.262317">
        <ele>697.949</ele>
        <time>2018-07-20T13:40:55Z</time>
      </trkpt>
      <trkpt lat="42.553653" lon="-8.261772">
        <ele>696.513</ele>
        <time>2018-07-20T13:41:15Z</time>
      </trkpt>
      <trkpt lat="42.553425" lon="-8.261132">
        <ele>701.408</ele>
        <time>2018-07-20T13:41:35Z</time>
      </trkpt>
      <trkpt lat="42.553757" lon="-8.260322">
        <ele>715.095</ele>
        <time>2018-07-20T13:41:55Z</time>
      </trkpt>
      <trkpt lat="42.554780" lon="-8.258985">
        <ele>748.819</ele>
        <time>2018-07-20T13:42:15Z</time>
      </trkpt>
      <trkpt lat="42.556158" lon="-8.257366">
        <ele>756.260</ele>
        <time>2018-07-20T13:42:35Z</time>
      </trkpt>
      <trkpt lat="42.556849" lon="-8.258064">
        <ele>786.658</ele>
        <time>2018-07-20T13:42:55Z</time>
      </trkpt>
      <trkpt lat="42.557576" lon="-8.257614">
        <ele>789.873</ele>
        <time>2018-07-20T13:43:15Z</time>
      </trkpt>
      <trkpt lat="42.558472" lon="-8.257896">
        <ele>809.324</ele>
        <time>2018-07-20T13:43:35Z</time>
      </trkpt>
      <trkpt lat="42.559000" lon="-8.258010">
        <ele>816.876</ele>
        <time>2018-07-20T13:43:55Z</time>
      </trkpt>
      <trkpt lat="42.559811" lon="-8.257378">
        <ele>819.236</ele>
        <time>2018-07-20T13:44:15Z</time>
      </trkpt>
      <trkpt lat="42.560525" lon="-8.256787">
        <ele>821.971</ele>
        <time>2018-07-20T13:44:35Z</time>
      </trkpt>
      <trkpt lat="42.560892" lon="-8.256048">
        <ele>822.941</ele>
        <time>2018-07-20T13:44:55Z</time>
      </trkpt>
      <trkpt lat="42.560709" lon="-8.255849">
        <ele>821.515</ele>
        <time>2018-07-20T13:45:15Z</time>
      </trkpt>
      <trkpt lat="42.560245" lon="-8.255714">
        <ele>813.608</ele>
        <time>2018-07-20T13:45:35Z</time>
      </trkpt>
      <trkpt lat="42.559768" lon="-8.254925">
        <ele>811.999</ele>
        <time>2018-07-20T13:45:55Z</time>
      </trkpt>
      <trkpt lat="42.559739" lon="-8.254861">
        <ele>812.613</ele>
        <time>2018-07-20T13:46:15Z</time>
      </trkpt>
      <trkpt lat="42.559529" lon="-8.253824">
        <ele>811.034</ele>
        <time>2018-07-20T13:46:35Z</time>
      </trkpt>
      <trkpt lat="42.559516" lon="-8.252934">
        <ele>815.872</ele>
        <time>2018-07-20T13:46:55Z</time>
      </trkpt>
      <trkpt lat="42.558855" lon="-8.252566">
        <ele>810.347</ele>
        <time>2018-07-20T13:47:15Z</time>
      </trkpt>
      <trkpt lat="42.557953" lon="-8.252581">
        <ele>799.778</ele>
        <time>2018-07-20T13:47:35Z</time>
      </trkpt>
      <trkpt lat="42.556825" lon="-8.252160">
        <ele>791.950</ele>
        <time>2018-07-20T13:47:55Z</time>
      </trkpt>
      <trkpt lat="42.556171" lon="-8.251271">
        <ele>785.480</ele>
        <time>2018-07-20T13:48:15Z</time>
      </trkpt>
      <trkpt lat="42.556047" lon="-8.251011">
        <ele>781.689</ele>
        <time>2018-07-20T13:48:35Z</time>
      </trkpt>
      <trkpt lat="42.556012" lon="-8.251402">
        <ele>781.806</ele>
        <time>2018-07-20T13:48:55Z</time>
      </trkpt>
      <trkpt lat="42.556003" lon="-8.251745">
        <ele>779.226</ele>
        <time>2018-07-20T13:49:15Z</time>
      </trkpt>
      <trkpt lat="42.555788" lon="-8.251507">
        <ele>776.108</ele>
        <time>2018-07-20T13:49:35Z</time>
      </trkpt>
      <trkpt lat="42.555684" lon="-8.251105">
        <ele>771.660</ele>
        <time>2018-07-20T13:49:55Z</time>
      </trkpt>
      <trkpt lat="42.555688" lon="-8.251075">
        <ele>771.444</ele>
        <time>2018-07-20T13:50:15Z</time>
      </trkpt>
      <trkpt lat="42.555805" lon="-8.250603">
        <ele>768.165</ele>
        <time>2018-07-20T13:50:35Z</time>
      </trkpt>
      <trkpt lat="42.555838" lon="-8.250524">
        <ele>767.653</ele>
        <time>2018-07-20T13:50:55Z</time>
      </trkpt>
      <trkpt lat="42.556055" lon="-8.250230">
        <ele>770.338</ele>
        <time>2018-07-20T13:51:15Z</time>
      </trkpt>
      <trkpt lat="42.556243" lon="-8.250023">
        <ele>775.519</ele>
        <time>2018-07-20T13:51:35Z</time>
      </trkpt>
      <trkpt lat="42.556319" lon="-8.249657">
        <ele>775.321</ele>
        <time>2018-07-20T13:51:55Z</time>
      </trkpt>
      <trkpt lat="42.556199" lon="-8.248947">
        <ele>764.721</ele>
        <time>2018-07-20T13:52:15Z</time>
      </trkpt>
      <trkpt lat="42.556204" lon="-8.248907">
        <ele>765.037</ele>
        <time>2018-07-20T13:52:35Z</time>
      </trkpt>
      <trkpt lat="42.556081" lon="-8.248399">
        <ele>762.149</ele>
        <time>2018-07-20T13:52:55Z</time>
      </trkpt>
      <trkpt lat="42.556012" lon="-8.247687">
        <ele>757.613</ele>
        <time>2018-07-20T13:53:15Z</time>
      </trkpt>
      <trkpt lat="42.556023" lon="-8.247622">
        <ele>758.008</ele>
        <time>2018-07-20T13:53:35Z</time>
      </trkpt>
      <trkpt lat="42.555926" lon="-8.247350">
        <ele>753.265</ele>
        <time>2018-07-20T13:53:55Z</time>
      </trkpt>
      <trkpt lat="42.555738" lon="-8.246638">
        <ele>740.019</ele>
        <time>2018-07-20T13:54:15Z</time>
      </trkpt>
      <trkpt lat="42.555590" lon="-8.245912">
        <ele>728.520</ele>
        <time>2018-07-20T13:54:35Z</time>
      </trkpt>
      <trkpt lat="42.555331" lon="-8.245355">
        <ele>718.778</ele>
        <time>2018-07-20T13:54:55Z</time>
      </trkpt>
      <trkpt lat="42.555224" lon="-8.244878">
        <ele>714.493</ele>
        <time>2018-07-20T13:55:15Z</time>
      </trkpt>
      <trkpt lat="42.555450" lon="-8.244550">
        <ele>710.194</ele>
        <time>2018-07-20T13:55:35Z</time>
      </trkpt>
      <trkpt lat="42.555484" lon="-8.244476">
        <ele>708.156</ele>
        <time>2018-07-20T13:55:55Z</time>
      </trkpt>
      <trkpt lat="42.555755" lon="-8.244466">
        <ele>706.216</ele>
        <time>2018-07-20T13:56:15Z</time>
      </trkpt>
      <trkpt lat="42.556022" lon="-8.244785">
        <ele>714.931</ele>
        <time>2018-07-20T13:56:35Z</time>
      </trkpt>
      <trkpt lat="42.556144" lon="-8.245495">
        <ele>735.661</ele>
        <time>2018-07-20T13:56:55Z</time>
      </trkpt>
      <trkpt lat="42.556426" lon="-8.244695">
        <ele>717.607</ele>
        <time>2018-07-20T13:57:15Z</time>
      </trkpt>
      <trkpt lat="42.556432" lon="-8.244397">
        <ele>712.708</ele>
        <time>2018-07-20T13:57:35Z</time>
      </trkpt>
      <trkpt lat="42.556674" lon="-8.243962">
        <ele>716.195</ele>
        <time>2018-07-20T13:57:55Z</time>
      </trkpt>
      <trkpt lat="42.556965" lon="-8.243444">
        <ele>714.879</ele>
        <time>2018-07-20T13:58:15Z</time>
      </trkpt>
      <trkpt lat="42.557283" lon="-8.242989">
        <ele>711.610</ele>
        <time>2018-07-20T13:58:35Z</time>
      </trkpt>
      <trkpt lat="42.557646" lon="-8.242459">
        <ele>716.648</ele>
        <time>2018-07-20T13:58:55Z</time>
      </trkpt>
      <trkpt lat="42.557517" lon="-8.241475">
        <ele>707.253</ele>
        <time>2018-07-20T13:59:15Z</time>
      </trkpt>
      <trkpt lat="42.557506" lon="-8.241463">
        <ele>706.934</ele>
        <time>2018-07-20T13:59:35Z</time>
      </trkpt>
      <trkpt lat="42.557319" lon="-8.239769">
        <ele>701.226</ele>
        <time>2018-07-20T13:59:55Z</time>
      </trkpt>
      <trkpt lat="42.557188" lon="-8.238811">
        <ele>696.516</ele>
        <time>2018-07-20T14:00:15Z</time>
      </trkpt>
      <trkpt lat="42.557395" lon="-8.237726">
        <ele>693.357</ele>
        <time>2018-07-20T14:00:35Z</time>
      </trkpt>
      <trkpt lat="42.557887" lon="-8.236524">
        <ele>683.900</ele>
        <time>2018-07-20T14:00:55Z</time>
      </trkpt>
      <trkpt lat="42.558183" lon="-8.235624">
        <ele>675.720</ele>
        <time>2018-07-20T14:01:15Z</time>
      </trkpt>
      <trkpt lat="42.557658" lon="-8.236171">
        <ele>672.808</ele>
        <time>2018-07-20T14:01:35Z</time>
      </trkpt>
      <trkpt lat="42.557140" lon="-8.236835">
        <ele>668.717</ele>
        <time>2018-07-20T14:01:55Z</time>
      </trkpt>
      <trkpt lat="42.556681" lon="-8.237258">
        <ele>664.941</ele>
        <time>2018-07-20T14:02:15Z</time>
      </trkpt>
      <trkpt lat="42.556237" lon="-8.237744">
        <ele>657.132</ele>
        <time>2018-07-20T14:02:35Z</time>
      </trkpt>
      <trkpt lat="42.555959" lon="-8.238668">
        <ele>651.140</ele>
        <time>2018-07-20T14:02:55Z</time>
      </trkpt>
      <trkpt lat="42.556012" lon="-8.239690">
        <ele>648.895</ele>
        <time>2018-07-20T14:03:15Z</time>
      </trkpt>
      <trkpt lat="42.555763" lon="-8.239050">
        <ele>641.736</ele>
        <time>2018-07-20T14:03:35Z</time>
      </trkpt>
      <trkpt lat="42.555435" lon="-8.238034">
        <ele>629.388</ele>
        <time>2018-07-20T14:03:55Z</time>
      </trkpt>
      <trkpt lat="42.555418" lon="-8.237962">
        <ele>628.738</ele>
        <time>2018-07-20T14:04:15Z</time>
      </trkpt>
      <trkpt lat="42.555394" lon="-8.237044">
        <ele>622.239</ele>
        <time>2018-07-20T14:04:35Z</time>
      </trkpt>
      <trkpt lat="42.555981" lon="-8.235828">
        <ele>607.201</ele>
        <time>2018-07-20T14:04:55Z</time>
      </trkpt>
      <trkpt lat="42.556223" lon="-8.236066">
        <ele>619.821</ele>
        <time>2018-07-20T14:05:15Z</time>
      </trkpt>
      <trkpt lat="42.556335" lon="-8.234991">
        <ele>610.408</ele>
        <time>2018-07-20T14:05:35Z</time>
      </trkpt>
      <trkpt lat="42.556610" lon="-8.233725">
        <ele>598.395</ele>
        <time>2018-07-20T14:05:55Z</time>
      </trkpt>
      <trkpt lat="42.556911" lon="-8.232704">
        <ele>590.919</ele>
        <time>2018-07-20T14:06:15Z</time>
      </trkpt>
      <trkpt lat="42.557145" lon="-8.232337">
        <ele>586.230</ele>
        <time>2018-07-20T14:06:35Z</time>
      </trkpt>
      <trkpt lat="42.556937" lon="-8.232154">
        <ele>580.148</ele>
        <time>2018-07-20T14:06:55Z</time>
      </trkpt>
      <trkpt lat="42.556540" lon="-8.232495">
        <ele>577.353</ele>
        <time>2018-07-20T14:07:15Z</time>
      </trkpt>
      <trkpt lat="42.556289" lon="-8.232886">
        <ele>573.034</ele>
        <time>2018-07-20T14:07:35Z</time>
      </trkpt>
      <trkpt lat="42.556195" lon="-8.233387">
        <ele>574.896</ele>
        <time>2018-07-20T14:07:55Z</time>
      </trkpt>
      <trkpt lat="42.555877" lon="-8.234128">
        <ele>574.596</ele>
        <time>2018-07-20T14:08:15Z</time>
      </trkpt>
      <trkpt lat="42.555842" lon="-8.233809">
        <ele>566.424</ele>
        <time>2018-07-20T14:08:35Z</time>
      </trkpt>
      <trkpt lat="42.555990" lon="-8.233242">
        <ele>561.704</ele>
        <time>2018-07-20T14:08:55Z</time>
      </trkpt>
      <trkpt lat="42.555872" lon="-8.231503">
        <ele>551.014</ele>
        <time>2018-07-20T14:09:15Z</time>
      </trkpt>
      <trkpt lat="42.555785" lon="-8.230160">
        <ele>539.208</ele>
        <time>2018-07-20T14:09:35Z</time>
      </trkpt>
      <trkpt lat="42.556048" lon="-8.229774">
        <ele>534.344</ele>
        <time>2018-07-20T14:09:55Z</time>
      </trkpt>
      <trkpt lat="42.556738" lon="-8.230221">
        <ele>529.468</ele>
        <time>2018-07-20T14:10:15Z</time>
      </trkpt>
      <trkpt lat="42.557454" lon="-8.230848">
        <ele>528.869</ele>
        <time>2018-07-20T14:10:35Z</time>
      </trkpt>
      <trkpt lat="42.557232" lon="-8.230362">
        <ele>522.117</ele>
        <time>2018-07-20T14:10:55Z</time>
      </trkpt>
      <trkpt lat="42.556979" lon="-8.229755">
        <ele>518.692</ele>
        <time>2018-07-20T14:11:15Z</time>
      </trkpt>
      <trkpt lat="42.556816" lon="-8.229232">
        <ele>515.313</ele>
        <time>2018-07-20T14:11:35Z</time>
      </trkpt>
      <trkpt lat="42.556517" lon="-8.228893">
        <ele>513.595</ele>
        <time>2018-07-20T14:11:55Z</time>
      </trkpt>
      <trkpt lat="42.556123" lon="-8.228600">
        <ele>510.155</ele>
        <time>2018-07-20T14:12:15Z</time>
      </trkpt>
      <trkpt lat="42.556217" lon="-8.228179">
        <ele>516.344</ele>
        <time>2018-07-20T14:12:35Z</time>
      </trkpt>
      <trkpt lat="42.556822" lon="-8.228080">
        <ele>527.105</ele>
        <time>2018-07-20T14:12:55Z</time>
      </trkpt>
      <trkpt lat="42.557334" lon="-8.228033">
        <ele>531.615</ele>
        <time>2018-07-20T14:13:15Z</time>
      </trkpt>
      <trkpt lat="42.557757" lon="-8.227680">
        <ele>541.708</ele>
        <time>2018-07-20T14:13:35Z</time>
      </trkpt>
      <trkpt lat="42.558119" lon="-8.227670">
        <ele>548.216</ele>
        <time>2018-07-20T14:13:55Z</time>
      </trkpt>
      <trkpt lat="42.559136" lon="-8.227998">
        <ele>553.370</ele>
        <time>2018-07-20T14:14:15Z</time>
      </trkpt>
      <trkpt lat="42.559803" lon="-8.228192">
        <ele>558.371</ele>
        <time>2018-07-20T14:14:35Z</time>
      </trkpt>
      <trkpt lat="42.559948" lon="-8.228121">
        <ele>561.289</ele>
        <time>2018-07-20T14:14:55Z</time>
      </trkpt>
      <trkpt lat="42.559677" lon="-8.227649">
        <ele>571.074</ele>
        <time>2018-07-20T14:15:15Z</time>
      </trkpt>
      <trkpt lat="42.559197" lon="-8.227114">
        <ele>577.035</ele>
        <time>2018-07-20T14:15:35Z</time>
      </trkpt>
      <trkpt lat="42.559056" lon="-8.226892">
        <ele>583.257</ele>
        <time>2018-07-20T14:15:55Z</time>
      </trkpt>
      <trkpt lat="42.559350" lon="-8.226780">
        <ele>592.287</ele>
        <time>2018-07-20T14:16:15Z</time>
      </trkpt>
      <trkpt lat="42.559801" lon="-8.226626">
        <ele>600.842</ele>
        <time>2018-07-20T14:16:35Z</time>
      </trkpt>
      <trkpt lat="42.560196" lon="-8.226401">
        <ele>604.922</ele>
        <time>2018-07-20T14:16:55Z</time>
      </trkpt>
      <trkpt lat="42.560588" lon="-8.226146">
        <ele>611.214</ele>
        <time>2018-07-20T14:17:15Z</time>
      </trkpt>
      <trkpt lat="42.560446" lon="-8.225896">
        <ele>625.008</ele>
        <time>2018-07-20T14:17:35Z</time>
      </trkpt>
      <trkpt lat="42.559795" lon="-8.225469">
        <ele>634.566</ele>
        <time>2018-07-20T14:17:55Z</time>
      </trkpt>
      <trkpt lat="42.558846" lon="-8.224174">
        <ele>665.910</ele>
        <time>2018-07-20T14:18:15Z</time>
      </trkpt>
      <trkpt lat="42.558067" lon="-8.223093">
        <ele>678.951</ele>
        <time>2018-07-20T14:18:35Z</time>
      </trkpt>
      <trkpt lat="42.557354" lon="-8.221872">
        <ele>700.799</ele>
        <time>2018-07-20T14:18:55Z</time>
      </trkpt>
      <trkpt lat="42.557057" lon="-8.221295">
        <ele>708.784</ele>
        <time>2018-07-20T14:19:15Z</time>
      </trkpt>
      <trkpt lat="42.557023" lon="-8.220481">
        <ele>720.675</ele>
        <time>2018-07-20T14:19:35Z</time>
      </trkpt>
      <trkpt lat="42.556618" lon="-8.219413">
        <ele>734.017</ele>
        <time>2018-07-20T14:19:55Z</time>
      </trkpt>
      <trkpt lat="42.555876" lon="-8.218163">
        <ele>749.097</ele>
        <time>2018-07-20T14:20:15Z</time>
      </trkpt>
      <trkpt lat="42.555391" lon="-8.216915">
        <ele>765.949</ele>
        <time>2018-07-20T14:20:35Z</time>
      </trkpt>
      <trkpt lat="42.555007" lon="-8.215262">
        <ele>776.302</ele>
        <time>2018-07-20T14:20:55Z</time>
      </trkpt>
      <trkpt lat="42.555069" lon="-8.214796">
        <ele>780.222</ele>
        <time>2018-07-20T14:21:15Z</time>
      </trkpt>
      <trkpt lat="42.555389" lon="-8.214147">
        <ele>788.508</ele>
        <time>2018-07-20T14:21:35Z</time>
      </trkpt>
      <trkpt lat="42.555621" lon="-8.214175">
        <ele>789.036</ele>
        <time>2018-07-20T14:21:55Z</time>
      </trkpt>
      <trkpt lat="42.555823" lon="-8.214745">
        <ele>791.130</ele>
        <time>2018-07-20T14:22:15Z</time>
      </trkpt>
      <trkpt lat="42.556280" lon="-8.215516">
        <ele>801.691</ele>
        <time>2018-07-20T14:22:35Z</time>
      </trkpt>
      <trkpt lat="42.557323" lon="-8.216265">
        <ele>804.299</ele>
        <time>2018-07-20T14:22:55Z</time>
      </trkpt>
      <trkpt lat="42.558378" lon="-8.217195">
        <ele>804.154</ele>
        <time>2018-07-20T14:23:15Z</time>
      </trkpt>
      <trkpt lat="42.559310" lon="-8.218171">
        <ele>809.345</ele>
        <time>2018-07-20T14:23:35Z</time>
      </trkpt>
      <trkpt lat="42.560362" lon="-8.218699">
        <ele>791.997</ele>
        <time>2018-07-20T14:23:55Z</time>
      </trkpt>
      <trkpt lat="42.561573" lon="-8.219353">
        <ele>773.597</ele>
        <time>2018-07-20T14:24:15Z</time>
      </trkpt>
      <trkpt lat="42.562472" lon="-8.219708">
        <ele>767.252</ele>
        <time>2018-07-20T14:24:35Z</time>
      </trkpt>
      <trkpt lat="42.562982" lon="-8.220523">
        <ele>757.553</ele>
        <time>2018-07-20T14:24:55Z</time>
      </trkpt>
      <trkpt lat="42.563109" lon="-8.221115">
        <ele>752.408</ele>
        <time>2018-07-20T14:25:15Z</time>
      </trkpt>
      <trkpt lat="42.563469" lon="-8.221367">
        <ele>744.808</ele>
        <time>2018-07-20T14:25:35Z</time>
      </trkpt>
      <trkpt lat="42.563878" lon="-8.221103">
        <ele>738.377</ele>
        <time>2018-07-20T14:25:55Z</time>
      </trkpt>
      <trkpt lat="42.564186" lon="-8.220529">
        <ele>725.381</ele>
        <time>2018-07-20T14:26:15Z</time>
      </trkpt>
      <trkpt lat="42.564408" lon="-8.221047">
        <ele>725.162</ele>
        <time>2018-07-20T14:26:35Z</time>
      </trkpt>
      <trkpt lat="42.565282" lon="-8.222243">
        <ele>710.130</ele>
        <time>2018-07-20T14:26:55Z</time>
      </trkpt>
      <trkpt lat="42.565718" lon="-8.223155">
        <ele>700.215</ele>
        <time>2018-07-20T14:27:15Z</time>
      </trkpt>
      <trkpt lat="42.566038" lon="-8.223675">
        <ele>692.996</ele>
        <time>2018-07-20T14:27:35Z</time>
      </trkpt>
      <trkpt lat="42.566750" lon="-8.224032">
        <ele>689.838</ele>
        <time>2018-07-20T14:27:55Z</time>
      </trkpt>
      <trkpt lat="42.567499" lon="-8.224154">
        <ele>685.078</ele>
        <time>2018-07-20T14:28:15Z</time>
      </trkpt>
      <trkpt lat="42.567689" lon="-8.224224">
        <ele>682.867</ele>
        <time>2018-07-20T14:28:35Z</time>
      </trkpt>
      <trkpt lat="42.568197" lon="-8.224242">
        <ele>674.481</ele>
        <time>2018-07-20T14:28:55Z</time>
      </trkpt>
      <trkpt lat="42.569051" lon="-8.224529">
        <ele>665.219</ele>
        <time>2018-07-20T14:29:15Z</time>
      </trkpt>
      <trkpt lat="42.569689" lon="-8.224765">
        <ele>657.008</ele>
        <time>2018-07-20T14:29:35Z</time>
      </trkpt>
      <trkpt lat="42.570260" lon="-8.224848">
        <ele>647.888</ele>
        <time>2018-07-20T14:29:55Z</time>
      </trkpt>
      <trkpt lat="42.570467" lon="-8.225318">
        <ele>645.352</ele>
        <time>2018-07-20T14:30:15Z</time>
      </trkpt>
      <trkpt lat="42.570224" lon="-8.226175">
        <ele>635.533</ele>
        <time>2018-07-20T14:30:35Z</time>
      </trkpt>
      <trkpt lat="42.570494" lon="-8.225742">
        <ele>641.581</ele>
        <time>2018-07-20T14:30:55Z</time>
      </trkpt>
      <trkpt lat="42.570902" lon="-8.225181">
        <ele>642.796</ele>
        <time>2018-07-20T14:31:15Z</time>
      </trkpt>
      <trkpt lat="42.570628" lon="-8.224160">
        <ele>628.817</ele>
        <time>2018-07-20T14:31:35Z</time>
      </trkpt>
      <trkpt lat="42.570602" lon="-8.224146">
        <ele>628.979</ele>
        <time>2018-07-20T14:31:55Z</time>
      </trkpt>
      <trkpt lat="42.570043" lon="-8.223197">
        <ele>618.339</ele>
        <time>2018-07-20T14:32:15Z</time>
      </trkpt>
      <trkpt lat="42.570011" lon="-8.223154">
        <ele>617.677</ele>
        <time>2018-07-20T14:32:35Z</time>
      </trkpt>
      <trkpt lat="42.569319" lon="-8.222636">
        <ele>623.561</ele>
        <time>2018-07-20T14:32:55Z</time>
      </trkpt>
      <trkpt lat="42.569258" lon="-8.222614">
        <ele>623.827</ele>
        <time>2018-07-20T14:33:15Z</time>
      </trkpt>
      <trkpt lat="42.568468" lon="-8.221426">
        <ele>622.408</ele>
        <time>2018-07-20T14:33:35Z</time>
      </trkpt>
      <trkpt lat="42.568274" lon="-8.220392">
        <ele>613.959</ele>
        <time>2018-07-20T14:33:55Z</time>
      </trkpt>
      <trkpt lat="42.567687" lon="-8.219326">
        <ele>615.213</ele>
        <time>2018-07-20T14:34:15Z</time>
      </trkpt>
      <trkpt lat="42.567372" lon="-8.218311">
        <ele>613.984</ele>
        <time>2018-07-20T14:34:35Z</time>
      </trkpt>
      <trkpt lat="42.566963" lon="-8.217293">
        <ele>613.762</ele>
        <time>2018-07-20T14:34:55Z</time>
      </trkpt>
      <trkpt lat="42.566423" lon="-8.216411">
        <ele>609.567</ele>
        <time>2018-07-20T14:35:15Z</time>
      </trkpt>
      <trkpt lat="42.566204" lon="-8.216187">
        <ele>610.158</ele>
        <time>2018-07-20T14:35:35Z</time>
      </trkpt>
      <trkpt lat="42.566162" lon="-8.215230">
        <ele>599.090</ele>
        <time>2018-07-20T14:35:55Z</time>
      </trkpt>
      <trkpt lat="42.565748" lon="-8.213963">
        <ele>592.240</ele>
        <time>2018-07-20T14:36:15Z</time>
      </trkpt>
      <trkpt lat="42.565778" lon="-8.213312">
        <ele>586.243</ele>
        <time>2018-07-20T14:36:35Z</time>
      </trkpt>
      <trkpt lat="42.566034" lon="-8.212681">
        <ele>585.564</ele>
        <time>2018-07-20T14:36:55Z</time>
      </trkpt>
      <trkpt lat="42.565968" lon="-8.211736">
        <ele>592.310</ele>
        <time>2018-07-20T14:37:15Z</time>
      </trkpt>
      <trkpt lat="42.566074" lon="-8.211239">
        <ele>596.108</ele>
        <time>2018-07-20T14:37:35Z</time>
      </trkpt>
      <trkpt lat="42.566210" lon="-8.211526">
        <ele>598.266</ele>
        <time>2018-07-20T14:37:55Z</time>
      </trkpt>
      <trkpt lat="42.566489" lon="-8.211839">
        <ele>603.940</ele>
        <time>2018-07-20T14:38:15Z</time>
      </trkpt>
      <trkpt lat="42.566683" lon="-8.212330">
        <ele>606.411</ele>
        <time>2018-07-20T14:38:35Z</time>
      </trkpt>
      <trkpt lat="42.566822" lon="-8.212948">
        <ele>605.069</ele>
        <time>2018-07-20T14:38:55Z</time>
      </trkpt>
      <trkpt lat="42.566944" lon="-8.213547">
        <ele>600.164</ele>
        <time>2018-07-20T14:39:15Z</time>
      </trkpt>
      <trkpt lat="42.567500" lon="-8.214176">
        <ele>597.975</ele>
        <time>2018-07-20T14:39:35Z</time>
      </trkpt>
      <trkpt lat="42.567862" lon="-8.214483">
        <ele>599.587</ele>
        <time>2018-07-20T14:39:55Z</time>
      </trkpt>
      <trkpt lat="42.568148" lon="-8.214911">
        <ele>598.377</ele>
        <time>2018-07-20T14:40:15Z</time>
      </trkpt>
      <trkpt lat="42.568109" lon="-8.215208">
        <ele>594.851</ele>
        <time>2018-07-20T14:40:35Z</time>
      </trkpt>
      <trkpt lat="42.568601" lon="-8.215989">
        <ele>597.901</ele>
        <time>2018-07-20T14:40:55Z</time>
      </trkpt>
      <trkpt lat="42.568943" lon="-8.216557">
        <ele>598.611</ele>
        <time>2018-07-20T14:41:15Z</time>
      </trkpt>
      <trkpt lat="42.569718" lon="-8.217778">
        <ele>598.908</ele>
        <time>2018-07-20T14:41:35Z</time>
      </trkpt>
      <trkpt lat="42.570030" lon="-8.217946">
        <ele>600.267</ele>
        <time>2018-07-20T14:41:55Z</time>
      </trkpt>
      <trkpt lat="42.569984" lon="-8.217584">
        <ele>610.251</ele>
        <time>2018-07-20T14:42:15Z</time>
      </trkpt>
      <trkpt lat="42.569565" lon="-8.216531">
        <ele>617.962</ele>
        <time>2018-07-20T14:42:35Z</time>
      </trkpt>
      <trkpt lat="42.569201" lon="-8.215103">
        <ele>629.120</ele>
        <time>2018-07-20T14:42:55Z</time>
      </trkpt>
      <trkpt lat="42.569231" lon="-8.214600">
        <ele>635.425</ele>
        <time>2018-07-20T14:43:15Z</time>
      </trkpt>
      <trkpt lat="42.569579" lon="-8.214486">
        <ele>643.836</ele>
        <time>2018-07-20T14:43:35Z</time>
      </trkpt>
      <trkpt lat="42.569869" lon="-8.214210">
        <ele>649.818</ele>
        <time>2018-07-20T14:43:55Z</time>
      </trkpt>
      <trkpt lat="42.569881" lon="-8.213867">
        <ele>651.378</ele>
        <time>2018-07-20T14:44:15Z</time>
      </trkpt>
      <trkpt lat="42.569404" lon="-8.213657">
        <ele>647.351</ele>
        <time>2018-07-20T14:44:35Z</time>
      </trkpt>
      <trkpt lat="42.568885" lon="-8.212798">
        <ele>653.601</ele>
        <time>2018-07-20T14:44:55Z</time>
      </trkpt>
      <trkpt lat="42.568876" lon="-8.212770">
        <ele>653.911</ele>
        <time>2018-07-20T14:45:15Z</time>
      </trkpt>
      <trkpt lat="42.568419" lon="-8.211299">
        <ele>671.008</ele>
        <time>2018-07-20T14:45:35Z</time>
      </trkpt>
      <trkpt lat="42.568355" lon="-8.210432">
        <ele>676.987</ele>
        <time>2018-07-20T14:45:55Z</time>
      </trkpt>
      <trkpt lat="42.568401" lon="-8.209708">
        <ele>679.461</ele>
        <time>2018-07-20T14:46:15Z</time>
      </trkpt>
      <trkpt lat="42.568865" lon="-8.209368">
        <ele>690.162</ele>
        <time>2018-07-20T14:46:35Z</time>
      </trkpt>
      <trkpt lat="42.568863" lon="-8.210158">
        <ele>691.360</ele>
        <time>2018-07-20T14:46:55Z</time>
      </trkpt>
      <trkpt lat="42.568961" lon="-8.211127">
        <ele>684.495</ele>
        <time>2018-07-20T14:47:15Z</time>
      </trkpt>
      <trkpt lat="42.569356" lon="-8.211695">
        <ele>684.926</ele>
        <time>2018-07-20T14:47:35Z</time>
      </trkpt>
      <trkpt lat="42.569817" lon="-8.212090">
        <ele>683.928</ele>
        <time>2018-07-20T14:47:55Z</time>
      </trkpt>
      <trkpt lat="42.570587" lon="-8.212660">
        <ele>681.888</ele>
        <time>2018-07-20T14:48:15Z</time>
      </trkpt>
      <trkpt lat="42.571150" lon="-8.213142">
        <ele>684.147</ele>
        <time>2018-07-20T14:48:35Z</time>
      </trkpt>
      <trkpt lat="42.571317" lon="-8.213207">
        <ele>687.429</ele>
        <time>2018-07-20T14:48:55Z</time>
      </trkpt>
      <trkpt lat="42.571427" lon="-8.213788">
        <ele>687.721</ele>
        <time>2018-07-20T14:49:15Z</time>
      </trkpt>
      <trkpt lat="42.571266" lon="-8.214359">
        <ele>684.308</ele>
        <time>2018-07-20T14:49:35Z</time>
      </trkpt>
      <trkpt lat="42.571719" lon="-8.214934">
        <ele>685.236</ele>
        <time>2018-07-20T14:49:55Z</time>
      </trkpt>
      <trkpt lat="42.572907" lon="-8.215190">
        <ele>680.540</ele>
        <time>2018-07-20T14:50:15Z</time>
      </trkpt>
      <trkpt lat="42.573882" lon="-8.215216">
        <ele>681.631</ele>
        <time>2018-07-20T14:50:35Z</time>
      </trkpt>
      <trkpt lat="42.574335" lon="-8.215647">
        <ele>683.149</ele>
        <time>2018-07-20T14:50:55Z</time>
      </trkpt>
      <trkpt lat="42.574206" lon="-8.216205">
        <ele>680.694</ele>
        <time>2018-07-20T14:51:15Z</time>
      </trkpt>
      <trkpt lat="42.574529" lon="-8.216606">
        <ele>682.875</ele>
        <time>2018-07-20T14:51:35Z</time>
      </trkpt>
      <trkpt lat="42.575316" lon="-8.216695">
        <ele>688.657</ele>
        <time>2018-07-20T14:51:55Z</time>
      </trkpt>
      <trkpt lat="42.575176" lon="-8.216176">
        <ele>696.247</ele>
        <time>2018-07-20T14:52:15Z</time>
      </trkpt>
      <trkpt lat="42.574822" lon="-8.215672">
        <ele>693.684</ele>
        <time>2018-07-20T14:52:35Z</time>
      </trkpt>
      <trkpt lat="42.574877" lon="-8.214723">
        <ele>703.007</ele>
        <time>2018-07-20T14:52:55Z</time>
      </trkpt>
      <trkpt lat="42.574506" lon="-8.214010">
        <ele>706.517</ele>
        <time>2018-07-20T14:53:15Z</time>
      </trkpt>
      <trkpt lat="42.574082" lon="-8.213862">
        <ele>708.508</ele>
        <time>2018-07-20T14:53:35Z</time>
      </trkpt>
      <trkpt lat="42.573030" lon="-8.214066">
        <ele>705.360</ele>
        <time>2018-07-20T14:53:55Z</time>
      </trkpt>
      <trkpt lat="42.572350" lon="-8.213710">
        <ele>711.114</ele>
        <time>2018-07-20T14:54:15Z</time>
      </trkpt>
      <trkpt lat="42.572211" lon="-8.213224">
        <ele>714.275</ele>
        <time>2018-07-20T14:54:35Z</time>
      </trkpt>
      <trkpt lat="42.572105" lon="-8.212466">
        <ele>716.743</ele>
        <time>2018-07-20T14:54:55Z</time>
      </trkpt>
      <trkpt lat="42.571416" lon="-8.211616">
        <ele>714.948</ele>
        <time>2018-07-20T14:55:15Z</time>
      </trkpt>
      <trkpt lat="42.571389" lon="-8.211573">
        <ele>715.029</ele>
        <time>2018-07-20T14:55:35Z</time>
      </trkpt>
      <trkpt lat="42.570436" lon="-8.210533">
        <ele>714.051</ele>
        <time>2018-07-20T14:55:55Z</time>
      </trkpt>
      <trkpt lat="42.570525" lon="-8.210076">
        <ele>715.591</ele>
        <time>2018-07-20T14:56:15Z</time>
      </trkpt>
      <trkpt lat="42.571034" lon="-8.209990">
        <ele>723.674</ele>
        <time>2018-07-20T14:56:35Z</time>
      </trkpt>
      <trkpt lat="42.571094" lon="-8.209993">
        <ele>724.756</ele>
        <time>2018-07-20T14:56:55Z</time>
      </trkpt>
      <trkpt lat="42.571862" lon="-8.210067">
        <ele>734.321</ele>
        <time>2018-07-20T14:57:15Z</time>
      </trkpt>
      <trkpt lat="42.573157" lon="-8.210593">
        <ele>749.408</ele>
        <time>2018-07-20T14:57:35Z</time>
      </trkpt>
      <trkpt lat="42.573754" lon="-8.210684">
        <ele>760.539</ele>
        <time>2018-07-20T14:57:55Z</time>
      </trkpt>
      <trkpt lat="42.574377" lon="-8.210768">
        <ele>770.573</ele>
        <time>2018-07-20T14:58:15Z</time>
      </trkpt>
      <trkpt lat="42.575524" lon="-8.210832">
        <ele>785.624</ele>
        <time>2018-07-20T14:58:35Z</time>
      </trkpt>
      <trkpt lat="42.576489" lon="-8.210686">
        <ele>803.232</ele>
        <time>2018-07-20T14:58:55Z</time>
      </trkpt>
      <trkpt lat="42.576611" lon="-8.210135">
        <ele>809.017</ele>
        <time>2018-07-20T14:59:15Z</time>
      </trkpt>
      <trkpt lat="42.576924" lon="-8.210499">
        <ele>809.828</ele>
        <time>2018-07-20T14:59:35Z</time>
      </trkpt>
      <trkpt lat="42.577308" lon="-8.210924">
        <ele>811.220</ele>
        <time>2018-07-20T14:59:55Z</time>
      </trkpt>
      <trkpt lat="42.577683" lon="-8.211579">
        <ele>811.050</ele>
        <time>2018-07-20T15:00:15Z</time>
      </trkpt>
      <trkpt lat="42.578183" lon="-8.212244">
        <ele>809.458</ele>
        <time>2018-07-20T15:00:35Z</time>
      </trkpt>
      <trkpt lat="42.578861" lon="-8.212422">
        <ele>798.052</ele>
        <time>2018-07-20T15:00:55Z</time>
      </trkpt>
      <trkpt lat="42.579360" lon="-8.212537">
        <ele>794.017</ele>
        <time>2018-07-20T15:01:15Z</time>
      </trkpt>
      <trkpt lat="42.579876" lon="-8.212435">
        <ele>790.808</ele>
        <time>2018-07-20T15:01:35Z</time>
      </trkpt>
      <trkpt lat="42.580286" lon="-8.212239">
        <ele>785.977</ele>
        <time>2018-07-20T15:01:55Z</time>
      </trkpt>
      <trkpt lat="42.580797" lon="-8.212088">
        <ele>778.611</ele>
        <time>2018-07-20T15:02:15Z</time>
      </trkpt>
      <trkpt lat="42.581216" lon="-8.212258">
        <ele>769.882</ele>
        <time>2018-07-20T15:02:35Z</time>
      </trkpt>
      <trkpt lat="42.581317" lon="-8.212688">
        <ele>767.690</ele>
        <time>2018-07-20T15:02:55Z</time>
      </trkpt>
      <trkpt lat="42.581548" lon="-8.212843">
        <ele>763.215</ele>
        <time>2018-07-20T15:03:15Z</time>
      </trkpt>
      <trkpt lat="42.581998" lon="-8.212586">
        <ele>758.276</ele>
        <time>2018-07-20T15:03:35Z</time>
      </trkpt>
      <trkpt lat="42.582534" lon="-8.212798">
        <ele>748.568</ele>
        <time>2018-07-20T15:03:55Z</time>
      </trkpt>
      <trkpt lat="42.582871" lon="-8.213583">
        <ele>744.428</ele>
        <time>2018-07-20T15:04:15Z</time>
      </trkpt>
      <trkpt lat="42.583422" lon="-8.214093">
        <ele>733.798</ele>
        <time>2018-07-20T15:04:35Z</time>
      </trkpt>
      <trkpt lat="42.584073" lon="-8.214333">
        <ele>724.815</ele>
        <time>2018-07-20T15:04:55Z</time>
      </trkpt>
      <trkpt lat="42.584626" lon="-8.214311">
        <ele>719.126</ele>
        <time>2018-07-20T15:05:15Z</time>
      </trkpt>
      <trkpt lat="42.585070" lon="-8.214392">
        <ele>710.208</ele>
        <time>2018-07-20T15:05:35Z</time>
      </trkpt>
      <trkpt lat="42.585292" lon="-8.214488">
        <ele>707.661</ele>
        <time>2018-07-20T15:05:55Z</time>
      </trkpt>
      <trkpt lat="42.585331" lon="-8.214790">
        <ele>705.565</ele>
        <time>2018-07-20T15:06:15Z</time>
      </trkpt>
      <trkpt lat="42.585417" lon="-8.215160">
        <ele>700.616</ele>
        <time>2018-07-20T15:06:35Z</time>
      </trkpt>
      <trkpt lat="42.585436" lon="-8.215194">
        <ele>699.934</ele>
        <time>2018-07-20T15:06:55Z</time>
      </trkpt>
      <trkpt lat="42.585441" lon="-8.215224">
        <ele>699.669</ele>
        <time>2018-07-20T15:07:15Z</time>
      </trkpt>
      <trkpt lat="42.585613" lon="-8.215690">
        <ele>693.390</ele>
        <time>2018-07-20T15:07:35Z</time>
      </trkpt>
      <trkpt lat="42.586049" lon="-8.216008">
        <ele>685.122</ele>
        <time>2018-07-20T15:07:55Z</time>
      </trkpt>
      <trkpt lat="42.586327" lon="-8.216072">
        <ele>680.162</ele>
        <time>2018-07-20T15:08:15Z</time>
      </trkpt>
      <trkpt lat="42.586447" lon="-8.216582">
        <ele>675.031</ele>
        <time>2018-07-20T15:08:35Z</time>
      </trkpt>
      <trkpt lat="42.586479" lon="-8.216963">
        <ele>671.161</ele>
        <time>2018-07-20T15:08:55Z</time>
      </trkpt>
      <trkpt lat="42.586612" lon="-8.217290">
        <ele>666.507</ele>
        <time>2018-07-20T15:09:15Z</time>
      </trkpt>
      <trkpt lat="42.586737" lon="-8.217169">
        <ele>667.508</ele>
        <time>2018-07-20T15:09:35Z</time>
      </trkpt>
      <trkpt lat="42.586947" lon="-8.217040">
        <ele>667.675</ele>
        <time>2018-07-20T15:09:55Z</time>
      </trkpt>
      <trkpt lat="42.587259" lon="-8.216570">
        <ele>663.269</ele>
        <time>2018-07-20T15:10:15Z</time>
      </trkpt>
      <trkpt lat="42.587134" lon="-8.215744">
        <ele>660.320</ele>
        <time>2018-07-20T15:10:35Z</time>
      </trkpt>
      <trkpt lat="42.586923" lon="-8.214679">
        <ele>651.428</ele>
        <time>2018-07-20T15:10:55Z</time>
      </trkpt>
      <trkpt lat="42.586902" lon="-8.213871">
        <ele>641.673</ele>
        <time>2018-07-20T15:11:15Z</time>
      </trkpt>
      <trkpt lat="42.586926" lon="-8.213776">
        <ele>639.574</ele>
        <time>2018-07-20T15:11:35Z</time>
      </trkpt>
      <trkpt lat="42.587030" lon="-8.212729">
        <ele>627.436</ele>
        <time>2018-07-20T15:11:55Z</time>
      </trkpt>
      <trkpt lat="42.587077" lon="-8.212367">
        <ele>623.746</ele>
        <time>2018-07-20T15:12:15Z</time>
      </trkpt>
      <trkpt lat="42.587083" lon="-8.212034">
        <ele>620.078</ele>
        <time>2018-07-20T15:12:35Z</time>
      </trkpt>
      <trkpt lat="42.586989" lon="-8.211730">
        <ele>618.833</ele>
        <time>2018-07-20T15:12:55Z</time>
      </trkpt>
      <trkpt lat="42.586771" lon="-8.211412">
        <ele>619.726</ele>
        <time>2018-07-20T15:13:15Z</time>
      </trkpt>
      <trkpt lat="42.586455" lon="-8.210775">
        <ele>612.708</ele>
        <time>2018-07-20T15:13:35Z</time>
      </trkpt>
      <trkpt lat="42.586403" lon="-8.210452">
        <ele>607.289</ele>
        <time>2018-07-20T15:13:55Z</time>
      </trkpt>
      <trkpt lat="42.586399" lon="-8.210433">
        <ele>607.013</ele>
        <time>2018-07-20T15:14:15Z</time>
      </trkpt>
      <trkpt lat="42.586242" lon="-8.210278">
        <ele>609.264</ele>
        <time>2018-07-20T15:14:35Z</time>
      </trkpt>
      <trkpt lat="42.586226" lon="-8.210258">
        <ele>609.542</ele>
        <time>2018-07-20T15:14:55Z</time>
      </trkpt>
      <trkpt lat="42.585943" lon="-8.209683">
        <ele>609.747</ele>
        <time>2018-07-20T15:15:15Z</time>
      </trkpt>
      <trkpt lat="42.585933" lon="-8.209498">
        <ele>606.548</ele>
        <time>2018-07-20T15:15:35Z</time>
      </trkpt>
      <trkpt lat="42.585789" lon="-8.209088">
        <ele>602.960</ele>
        <time>2018-07-20T15:15:55Z</time>
      </trkpt>
      <trkpt lat="42.585788" lon="-8.209084">
        <ele>602.920</ele>
        <time>2018-07-20T15:16:15Z</time>
      </trkpt>
      <trkpt lat="42.585488" lon="-8.208653">
        <ele>601.164</ele>
        <time>2018-07-20T15:16:35Z</time>
      </trkpt>
      <trkpt lat="42.585484" lon="-8.208647">
        <ele>601.006</ele>
        <time>2018-07-20T15:16:55Z</time>
      </trkpt>
      <trkpt lat="42.585242" lon="-8.208493">
        <ele>601.416</ele>
        <time>2018-07-20T15:17:15Z</time>
      </trkpt>
      <trkpt lat="42.585083" lon="-8.208366">
        <ele>599.408</ele>
        <time>2018-07-20T15:17:35Z</time>
      </trkpt>
      <trkpt lat="42.584917" lon="-8.208331">
        <ele>600.468</ele>
        <time>2018-07-20T15:17:55Z</time>
      </trkpt>
      <trkpt lat="42.584827" lon="-8.208197">
        <ele>599.242</ele>
        <time>2018-07-20T15:18:15Z</time>
      </trkpt>
      <trkpt lat="42.584832" lon="-8.207952">
        <ele>595.233</ele>
        <time>2018-07-20T15:18:35Z</time>
      </trkpt>
      <trkpt lat="42.584880" lon="-8.207759">
        <ele>592.561</ele>
        <time>2018-07-20T15:18:55Z</time>
      </trkpt>
      <trkpt lat="42.584992" lon="-8.207767">
        <ele>589.216</ele>
        <time>2018-07-20T15:19:15Z</time>
      </trkpt>
      <trkpt lat="42.585251" lon="-8.207812">
        <ele>586.047</ele>
        <time>2018-07-20T15:19:35Z</time>
      </trkpt>
      <trkpt lat="42.585639" lon="-8.207922">
        <ele>581.869</ele>
        <time>2018-07-20T15:19:55Z</time>
      </trkpt>
      <trkpt lat="42.585821" lon="-8.207950">
        <ele>579.549</ele>
        <time>2018-07-20T15:20:15Z</time>
      </trkpt>
      <trkpt lat="42.586153" lon="-8.207993">
        <ele>574.461</ele>
        <time>2018-07-20T15:20:35Z</time>
      </trkpt>
      <trkpt lat="42.586523" lon="-8.207959">
        <ele>564.521</ele>
        <time>2018-07-20T15:20:55Z</time>
      </trkpt>
      <trkpt lat="42.586798" lon="-8.208140">
        <ele>560.113</ele>
        <time>2018-07-20T15:21:15Z</time>
      </trkpt>
      <trkpt lat="42.586975" lon="-8.208463">
        <ele>558.908</ele>
        <time>2018-07-20T15:21:35Z</time>
      </trkpt>
      <trkpt lat="42.587160" lon="-8.208557">
        <ele>554.458</ele>
        <time>2018-07-20T15:21:55Z</time>
      </trkpt>
      <trkpt lat="42.587377" lon="-8.208281">
        <ele>546.272</ele>
        <time>2018-07-20T15:22:15Z</time>
      </trkpt>
      <trkpt lat="42.587536" lon="-8.208154">
        <ele>541.793</ele>
        <time>2018-07-20T15:22:35Z</time>
      </trkpt>
      <trkpt lat="42.587687" lon="-8.208215">
        <ele>538.121</ele>
        <time>2018-07-20T15:22:55Z</time>
      </trkpt>
      <trkpt lat="42.587793" lon="-8.208275">
        <ele>535.916</ele>
        <time>2018-07-20T15:23:15Z</time>
      </trkpt>
      <trkpt lat="42.587913" lon="-8.208371">
        <ele>533.627</ele>
        <time>2018-07-20T15:23:35Z</time>
      </trkpt>
      <trkpt lat="42.588037" lon="-8.208461">
        <ele>531.339</ele>
        <time>2018-07-20T15:23:55Z</time>
      </trkpt>
      <trkpt lat="42.588139" lon="-8.208226">
        <ele>526.169</ele>
        <time>2018-07-20T15:24:15Z</time>
      </trkpt>
      <trkpt lat="42.588105" lon="-8.208032">
        <ele>524.566</ele>
        <time>2018-07-20T15:24:35Z</time>
      </trkpt>
      <trkpt lat="42.587981" lon="-8.207694">
        <ele>523.429</ele>
        <time>2018-07-20T15:24:55Z</time>
      </trkpt>
      <trkpt lat="42.587881" lon="-8.207371">
        <ele>521.521</ele>
        <time>2018-07-20T15:25:15Z</time>
      </trkpt>
      <trkpt lat="42.587851" lon="-8.206942">
        <ele>517.408</ele>
        <time>2018-07-20T15:25:35Z</time>
      </trkpt>
      <trkpt lat="42.587850" lon="-8.206450">
        <ele>512.478</ele>
        <time>2018-07-20T15:25:55Z</time>
      </trkpt>
      <trkpt lat="42.587714" lon="-8.206143">
        <ele>511.972</ele>
        <time>2018-07-20T15:26:15Z</time>
      </trkpt>
      <trkpt lat="42.587703" lon="-8.206122">
        <ele>512.053</ele>
        <time>2018-07-20T15:26:35Z</time>
      </trkpt>
      <trkpt lat="42.587717" lon="-8.205967">
        <ele>511.541</ele>
        <time>2018-07-20T15:26:55Z</time>
      </trkpt>
      <trkpt lat="42.587878" lon="-8.205907">
        <ele>507.956</ele>
        <time>2018-07-20T15:27:15Z</time>
      </trkpt>
      <trkpt lat="42.587887" lon="-8.205907">
        <ele>507.787</ele>
        <time>2018-07-20T15:27:35Z</time>
      </trkpt>
      <trkpt lat="42.588092" lon="-8.205916">
        <ele>503.649</ele>
        <time>2018-07-20T15:27:55Z</time>
      </trkpt>
      <trkpt lat="42.588281" lon="-8.205793">
        <ele>500.139</ele>
        <time>2018-07-20T15:28:15Z</time>
      </trkpt>
      <trkpt lat="42.588443" lon="-8.205530">
        <ele>499.383</ele>
        <time>2018-07-20T15:28:35Z</time>
      </trkpt>
      <trkpt lat="42.588735" lon="-8.205479">
        <ele>497.125</ele>
        <time>2018-07-20T15:28:55Z</time>
      </trkpt>
      <trkpt lat="42.588959" lon="-8.205555">
        <ele>497.317</ele>
        <time>2018-07-20T15:29:15Z</time>
      </trkpt>
      <trkpt lat="42.589055" lon="-8.205330">
        <ele>500.408</ele>
        <time>2018-07-20T15:29:35Z</time>
      </trkpt>
      <trkpt lat="42.589280" lon="-8.205308">
        <ele>508.560</ele>
        <time>2018-07-20T15:29:55Z</time>
      </trkpt>
      <trkpt lat="42.589414" lon="-8.205248">
        <ele>515.124</ele>
        <time>2018-07-20T15:30:15Z</time>
      </trkpt>
      <trkpt lat="42.589546" lon="-8.205324">
        <ele>518.695</ele>
        <time>2018-07-20T15:30:35Z</time>
      </trkpt>
      <trkpt lat="42.589650" lon="-8.205423">
        <ele>520.233</ele>
        <time>2018-07-20T15:30:55Z</time>
      </trkpt>
      <trkpt lat="42.589688" lon="-8.205558">
        <ele>519.098</ele>
        <time>2018-07-20T15:31:15Z</time>
      </trkpt>
      <trkpt lat="42.589691" lon="-8.205675">
        <ele>517.729</ele>
        <time>2018-07-20T15:31:35Z</time>
      </trkpt>
      <trkpt lat="42.589767" lon="-8.205729">
        <ele>519.491</ele>
        <time>2018-07-20T15:31:55Z</time>
      </trkpt>
      <trkpt lat="42.589860" lon="-8.205765">
        <ele>521.531</ele>
        <time>2018-07-20T15:32:15Z</time>
      </trkpt>
      <trkpt lat="42.590016" lon="-8.205771">
        <ele>525.633</ele>
        <time>2018-07-20T15:32:35Z</time>
      </trkpt>
      <trkpt lat="42.590081" lon="-8.205729">
        <ele>528.223</ele>
        <time>2018-07-20T15:32:55Z</time>
      </trkpt>
      <trkpt lat="42.590156" lon="-8.205758">
        <ele>529.815</ele>
        <time>2018-07-20T15:33:15Z</time>
      </trkpt>
      <trkpt lat="42.590416" lon="-8.205860">
        <ele>534.808</ele>
        <time>2018-07-20T15:33:35Z</time>
      </trkpt>
      <trkpt lat="42.590588" lon="-8.205985">
        <ele>535.545</ele>
        <time>2018-07-20T15:33:55Z</time>
      </trkpt>
      <trkpt lat="42.590802" lon="-8.206172">
        <ele>536.159</ele>
        <time>2018-07-20T15:34:15Z</time>
      </trkpt>
      <trkpt lat="42.590971" lon="-8.206336">
        <ele>535.550</ele>
        <time>2018-07-20T15:34:35Z</time>
      </trkpt>
      <trkpt lat="42.591062" lon="-8.206264">
        <ele>539.958</ele>
        <time>2018-07-20T15:34:55Z</time>
      </trkpt>
      <trkpt lat="42.591050" lon="-8.206088">
        <ele>544.333</ele>
        <time>2018-07-20T15:35:15Z</time>
      </trkpt>
      <trkpt lat="42.591022" lon="-8.205983">
        <ele>546.644</ele>
        <time>2018-07-20T15:35:35Z</time>
      </trkpt>
      <trkpt lat="42.591129" lon="-8.205911">
        <ele>551.196</ele>
        <time>2018-07-20T15:35:55Z</time>
      </trkpt>
      <trkpt lat="42.591352" lon="-8.205857">
        <ele>556.826</ele>
        <time>2018-07-20T15:36:15Z</time>
      </trkpt>
      <trkpt lat="42.591359" lon="-8.205846">
        <ele>557.286</ele>
        <time>2018-07-20T15:36:35Z</time>
      </trkpt>
      <trkpt lat="42.591472" lon="-8.205607">
        <ele>565.860</ele>
        <time>2018-07-20T15:36:55Z</time>
      </trkpt>
      <trkpt lat="42.591488" lon="-8.205380">
        <ele>572.026</ele>
        <time>2018-07-20T15:37:15Z</time>
      </trkpt>
      <trkpt lat="42.591615" lon="-8.205116">
        <ele>578.408</ele>
        <time>2018-07-20T15:37:35Z</time>
      </trkpt>
      <trkpt lat="42.591801" lon="-8.204842">
        <ele>585.760</ele>
        <time>2018-07-20T15:37:55Z</time>
      </trkpt>
      <trkpt lat="42.592009" lon="-8.204675">
        <ele>591.644</ele>
        <time>2018-07-20T15:38:15Z</time>
      </trkpt>
      <trkpt lat="42.592103" lon="-8.204104">
        <ele>603.475</ele>
        <time>2018-07-20T15:38:35Z</time>
      </trkpt>
      <trkpt lat="42.592087" lon="-8.204087">
        <ele>603.563</ele>
        <time>2018-07-20T15:38:55Z</time>
      </trkpt>
      <trkpt lat="42.592082" lon="-8.204074">
        <ele>603.788</ele>
        <time>2018-07-20T15:39:15Z</time>
      </trkpt>
      <trkpt lat="42.591991" lon="-8.203579">
        <ele>612.669</ele>
        <time>2018-07-20T15:39:35Z</time>
      </trkpt>
      <trkpt lat="42.591847" lon="-8.203256">
        <ele>616.021</ele>
        <time>2018-07-20T15:39:55Z</time>
      </trkpt>
      <trkpt lat="42.591826" lon="-8.203246">
        <ele>615.841</ele>
        <time>2018-07-20T15:40:15Z</time>
      </trkpt>
      <trkpt lat="42.591644" lon="-8.202989">
        <ele>616.591</ele>
        <time>2018-07-20T15:40:35Z</time>
      </trkpt>
      <trkpt lat="42.591182" lon="-8.202646">
        <ele>614.981</ele>
        <time>2018-07-20T15:40:55Z</time>
      </trkpt>
      <trkpt lat="42.591178" lon="-8.202641">
        <ele>614.919</ele>
        <time>2018-07-20T15:41:15Z</time>
      </trkpt>
      <trkpt lat="42.591051" lon="-8.202385">
        <ele>615.508</ele>
        <time>2018-07-20T15:41:35Z</time>
      </trkpt>
      <trkpt lat="42.591153" lon="-8.202126">
        <ele>619.551</ele>
        <time>2018-07-20T15:41:55Z</time>
      </trkpt>
      <trkpt lat="42.591168" lon="-8.202105">
        <ele>620.025</ele>
        <time>2018-07-20T15:42:15Z</time>
      </trkpt>
      <trkpt lat="42.591389" lon="-8.201894">
        <ele>626.416</ele>
        <time>2018-07-20T15:42:35Z</time>
      </trkpt>
      <trkpt lat="42.591288" lon="-8.202000">
        <ele>623.344</ele>
        <time>2018-07-20T15:42:55Z</time>
      </trkpt>
      <trkpt lat="42.591511" lon="-8.201785">
        <ele>629.369</ele>
        <time>2018-07-20T15:43:15Z</time>
      </trkpt>
      <trkpt lat="42.591525" lon="-8.201769">
        <ele>629.740</ele>
        <time>2018-07-20T15:43:35Z</time>
      </trkpt>
      <trkpt lat="42.591784" lon="-8.201389">
        <ele>632.882</ele>
        <time>2018-07-20T15:43:55Z</time>
      </trkpt>
      <trkpt lat="42.591836" lon="-8.201281">
        <ele>633.042</ele>
        <time>2018-07-20T15:44:15Z</time>
      </trkpt>
      <trkpt lat="42.591684" lon="-8.200243">
        <ele>633.295</ele>
        <time>2018-07-20T15:44:35Z</time>
      </trkpt>
      <trkpt lat="42.591805" lon="-8.198886">
        <ele>633.549</ele>
        <time>2018-07-20T15:44:55Z</time>
      </trkpt>
      <trkpt lat="42.592040" lon="-8.197121">
        <ele>631.323</ele>
        <time>2018-07-20T15:45:15Z</time>
      </trkpt>
      <trkpt lat="42.592238" lon="-8.196681">
        <ele>631.908</ele>
        <time>2018-07-20T15:45:35Z</time>
      </trkpt>
      <trkpt lat="42.592862" lon="-8.195778">
        <ele>628.251</ele>
        <time>2018-07-20T15:45:55Z</time>
      </trkpt>
      <trkpt lat="42.592908" lon="-8.195713">
        <ele>627.455</ele>
        <time>2018-07-20T15:46:15Z</time>
      </trkpt>
      <trkpt lat="42.594329" lon="-8.194816">
        <ele>603.736</ele>
        <time>2018-07-20T15:46:35Z</time>
      </trkpt>
      <trkpt lat="42.595551" lon="-8.194928">
        <ele>593.824</ele>
        <time>2018-07-20T15:46:55Z</time>
      </trkpt>
      <trkpt lat="42.597100" lon="-8.196013">
        <ele>573.829</ele>
        <time>2018-07-20T15:47:15Z</time>
      </trkpt>
      <trkpt lat="42.597757" lon="-8.196963">
        <ele>563.060</ele>
        <time>2018-07-20T15:47:35Z</time>
      </trkpt>
      <trkpt lat="42.597837" lon="-8.196996">
        <ele>562.662</ele>
        <time>2018-07-20T15:47:55Z</time>
      </trkpt>
      <trkpt lat="42.599038" lon="-8.198171">
        <ele>549.022</ele>
        <time>2018-07-20T15:48:15Z</time>
      </trkpt>
      <trkpt lat="42.599585" lon="-8.198799">
        <ele>544.173</ele>
        <time>2018-07-20T15:48:35Z</time>
      </trkpt>
      <trkpt lat="42.600148" lon="-8.199091">
        <ele>536.585</ele>
        <time>2018-07-20T15:48:55Z</time>
      </trkpt>
      <trkpt lat="42.600585" lon="-8.198684">
        <ele>533.613</ele>
        <time>2018-07-20T15:49:15Z</time>
      </trkpt>
      <trkpt lat="42.601590" lon="-8.198122">
        <ele>541.408</ele>
        <time>2018-07-20T15:49:35Z</time>
      </trkpt>
      <trkpt lat="42.602083" lon="-8.197852">
        <ele>544.269</ele>
        <time>2018-07-20T15:49:55Z</time>
      </trkpt>
      <trkpt lat="42.602104" lon="-8.198562">
        <ele>542.283</ele>
        <time>2018-07-20T15:50:15Z</time>
      </trkpt>
      <trkpt lat="42.602641" lon="-8.199832">
        <ele>540.374</ele>
        <time>2018-07-20T15:50:35Z</time>
      </trkpt>
      <trkpt lat="42.603126" lon="-8.200855">
        <ele>542.322</ele>
        <time>2018-07-20T15:50:55Z</time>
      </trkpt>
      <trkpt lat="42.603352" lon="-8.200716">
        <ele>543.697</ele>
        <time>2018-07-20T15:51:15Z</time>
      </trkpt>
      <trkpt lat="42.603420" lon="-8.200559">
        <ele>544.938</ele>
        <time>2018-07-20T15:51:35Z</time>
      </trkpt>
      <trkpt lat="42.603766" lon="-8.199834">
        <ele>547.880</ele>
        <time>2018-07-20T15:51:55Z</time>
      </trkpt>
      <trkpt lat="42.603793" lon="-8.199808">
        <ele>547.980</ele>
        <time>2018-07-20T15:52:15Z</time>
      </trkpt>
      <trkpt lat="42.604144" lon="-8.199461">
        <ele>547.186</ele>
        <time>2018-07-20T15:52:35Z</time>
      </trkpt>
      <trkpt lat="42.604768" lon="-8.198948">
        <ele>547.260</ele>
        <time>2018-07-20T15:52:55Z</time>
      </trkpt>
      <trkpt lat="42.605334" lon="-8.198540">
        <ele>543.926</ele>
        <time>2018-07-20T15:53:15Z</time>
      </trkpt>
      <trkpt lat="42.605701" lon="-8.197716">
        <ele>535.308</ele>
        <time>2018-07-20T15:53:35Z</time>
      </trkpt>
      <trkpt lat="42.605977" lon="-8.198139">
        <ele>536.030</ele>
        <time>2018-07-20T15:53:55Z</time>
      </trkpt>
      <trkpt lat="42.606640" lon="-8.198332">
        <ele>525.634</ele>
        <time>2018-07-20T15:54:15Z</time>
      </trkpt>
      <trkpt lat="42.607520" lon="-8.198747">
        <ele>518.525</ele>
        <time>2018-07-20T15:54:35Z</time>
      </trkpt>
      <trkpt lat="42.608301" lon="-8.199367">
        <ele>509.923</ele>
        <time>2018-07-20T15:54:55Z</time>
      </trkpt>
      <trkpt lat="42.608424" lon="-8.200262">
        <ele>514.078</ele>
        <time>2018-07-20T15:55:15Z</time>
      </trkpt>
      <trkpt lat="42.609079" lon="-8.200616">
        <ele>505.459</ele>
        <time>2018-07-20T15:55:35Z</time>
      </trkpt>
      <trkpt lat="42.609440" lon="-8.200736">
        <ele>503.041</ele>
        <time>2018-07-20T15:55:55Z</time>
      </trkpt>
      <trkpt lat="42.609900" lon="-8.199968">
        <ele>486.691</ele>
        <time>2018-07-20T15:56:15Z</time>
      </trkpt>
      <trkpt lat="42.609929" lon="-8.199293">
        <ele>487.112</ele>
        <time>2018-07-20T15:56:35Z</time>
      </trkpt>
      <trkpt lat="42.609968" lon="-8.199232">
        <ele>487.532</ele>
        <time>2018-07-20T15:56:55Z</time>
      </trkpt>
      <trkpt lat="42.610489" lon="-8.198695">
        <ele>496.905</ele>
        <time>2018-07-20T15:57:15Z</time>
      </trkpt>
      <trkpt lat="42.611165" lon="-8.198510">
        <ele>504.408</ele>
        <time>2018-07-20T15:57:35Z</time>
      </trkpt>
      <trkpt lat="42.611694" lon="-8.198594">
        <ele>498.953</ele>
        <time>2018-07-20T15:57:55Z</time>
      </trkpt>
      <trkpt lat="42.612537" lon="-8.197698">
        <ele>496.377</ele>
        <time>2018-07-20T15:58:15Z</time>
      </trkpt>
      <trkpt lat="42.612689" lon="-8.196559">
        <ele>497.668</ele>
        <time>2018-07-20T15:58:35Z</time>
      </trkpt>
      <trkpt lat="42.612546" lon="-8.195196">
        <ele>500.476</ele>
        <time>2018-07-20T15:58:55Z</time>
      </trkpt>
      <trkpt lat="42.612290" lon="-8.194430">
        <ele>507.981</ele>
        <time>2018-07-20T15:59:15Z</time>
      </trkpt>
      <trkpt lat="42.612524" lon="-8.193751">
        <ele>507.432</ele>
        <time>2018-07-20T15:59:35Z</time>
      </trkpt>
      <trkpt lat="42.612898" lon="-8.193479">
        <ele>510.884</ele>
        <time>2018-07-20T15:59:55Z</time>
      </trkpt>
      <trkpt lat="42.613389" lon="-8.193957">
        <ele>518.924</ele>
        <time>2018-07-20T16:00:15Z</time>
      </trkpt>
      <trkpt lat="42.613780" lon="-8.194488">
        <ele>521.462</ele>
        <time>2018-07-20T16:00:35Z</time>
      </trkpt>
      <trkpt lat="42.614278" lon="-8.194075">
        <ele>529.183</ele>
        <time>2018-07-20T16:00:55Z</time>
      </trkpt>
      <trkpt lat="42.614296" lon="-8.194061">
        <ele>529.311</ele>
        <time>2018-07-20T16:01:15Z</time>
      </trkpt>
      <trkpt lat="42.614523" lon="-8.193778">
        <ele>530.408</ele>
        <time>2018-07-20T16:01:35Z</time>
      </trkpt>
      <trkpt lat="42.615026" lon="-8.193178">
        <ele>531.578</ele>
        <time>2018-07-20T16:01:55Z</time>
      </trkpt>
      <trkpt lat="42.616143" lon="-8.191667">
        <ele>531.012</ele>
        <time>2018-07-20T16:02:15Z</time>
      </trkpt>
      <trkpt lat="42.616851" lon="-8.191381">
        <ele>531.383</ele>
        <time>2018-07-20T16:02:35Z</time>
      </trkpt>
      <trkpt lat="42.614526" lon="-8.193780">
        <ele>530.458</ele>
        <time>2018-07-20T09:29:59Z</time>
      </trkpt>
      <trkpt lat="42.614481" lon="-8.193371">
        <ele>532.752</ele>
        <time>2018-07-20T09:30:19Z</time>
      </trkpt>
      <trkpt lat="42.614419" lon="-8.192768">
        <ele>534.117</ele>
        <time>2018-07-20T09:30:39Z</time>
      </trkpt>
      <trkpt lat="42.614374" lon="-8.192023">
        <ele>538.808</ele>
        <time>2018-07-20T09:30:59Z</time>
      </trkpt>
      <trkpt lat="42.614354" lon="-8.191328">
        <ele>540.577</ele>
        <time>2018-07-20T09:31:19Z</time>
      </trkpt>
      <trkpt lat="42.614397" lon="-8.190981">
        <ele>541.461</ele>
        <time>2018-07-20T09:31:39Z</time>
      </trkpt>
      <trkpt lat="42.614363" lon="-8.190343">
        <ele>541.312</ele>
        <time>2018-07-20T09:31:59Z</time>
      </trkpt>
      <trkpt lat="42.614274" lon="-8.189930">
        <ele>541.970</ele>
        <time>2018-07-20T09:32:19Z</time>
      </trkpt>
      <trkpt lat="42.614201" lon="-8.189568">
        <ele>543.115</ele>
        <time>2018-07-20T09:32:39Z</time>
      </trkpt>
      <trkpt lat="42.614035" lon="-8.189097">
        <ele>545.526</ele>
        <time>2018-07-20T09:32:59Z</time>
      </trkpt>
      <trkpt lat="42.613951" lon="-8.188715">
        <ele>545.271</ele>
        <time>2018-07-20T09:33:19Z</time>
      </trkpt>
      <trkpt lat="42.613725" lon="-8.188473">
        <ele>545.332</ele>
        <time>2018-07-20T09:33:39Z</time>
      </trkpt>
      <trkpt lat="42.613348" lon="-8.188230">
        <ele>546.852</ele>
        <time>2018-07-20T09:33:59Z</time>
      </trkpt>
      <trkpt lat="42.613261" lon="-8.188098">
        <ele>547.253</ele>
        <time>2018-07-20T09:34:19Z</time>
      </trkpt>
      <trkpt lat="42.613377" lon="-8.187980">
        <ele>548.708</ele>
        <time>2018-07-20T09:34:39Z</time>
      </trkpt>
      <trkpt lat="42.613523" lon="-8.187853">
        <ele>550.108</ele>
        <time>2018-07-20T09:34:59Z</time>
      </trkpt>
      <trkpt lat="42.613805" lon="-8.187774">
        <ele>549.647</ele>
        <time>2018-07-20T09:35:19Z</time>
      </trkpt>
      <trkpt lat="42.614132" lon="-8.187694">
        <ele>547.551</ele>
        <time>2018-07-20T09:35:39Z</time>
      </trkpt>
      <trkpt lat="42.614513" lon="-8.187527">
        <ele>546.032</ele>
        <time>2018-07-20T09:35:59Z</time>
      </trkpt>
      <trkpt lat="42.615010" lon="-8.187413">
        <ele>541.220</ele>
        <time>2018-07-20T09:36:19Z</time>
      </trkpt>
      <trkpt lat="42.615233" lon="-8.187327">
        <ele>538.175</ele>
        <time>2018-07-20T09:36:39Z</time>
      </trkpt>
      <trkpt lat="42.615349" lon="-8.187424">
        <ele>537.316</ele>
        <time>2018-07-20T09:36:59Z</time>
      </trkpt>
      <trkpt lat="42.615396" lon="-8.187912">
        <ele>538.471</ele>
        <time>2018-07-20T09:37:19Z</time>
      </trkpt>
      <trkpt lat="42.615615" lon="-8.188434">
        <ele>537.622</ele>
        <time>2018-07-20T09:37:39Z</time>
      </trkpt>
      <trkpt lat="42.615938" lon="-8.189431">
        <ele>535.843</ele>
        <time>2018-07-20T09:37:59Z</time>
      </trkpt>
      <trkpt lat="42.616347" lon="-8.190546">
        <ele>534.164</ele>
        <time>2018-07-20T09:38:19Z</time>
      </trkpt>
      <trkpt lat="42.616702" lon="-8.191674">
        <ele>530.810</ele>
        <time>2018-07-20T09:38:39Z</time>
      </trkpt>
      <trkpt lat="42.617100" lon="-8.192711">
        <ele>524.808</ele>
        <time>2018-07-20T09:38:59Z</time>
      </trkpt>
      <trkpt lat="42.617590" lon="-8.193913">
        <ele>520.626</ele>
        <time>2018-07-20T09:39:19Z</time>
      </trkpt>
      <trkpt lat="42.617798" lon="-8.194620">
        <ele>519.560</ele>
        <time>2018-07-20T09:39:39Z</time>
      </trkpt>
      <trkpt lat="42.617941" lon="-8.194956">
        <ele>518.761</ele>
        <time>2018-07-20T09:39:59Z</time>
      </trkpt>
      <trkpt lat="42.617455" lon="-8.195369">
        <ele>512.299</ele>
        <time>2018-07-20T09:40:19Z</time>
      </trkpt>
      <trkpt lat="42.617170" lon="-8.195474">
        <ele>509.494</ele>
        <time>2018-07-20T09:40:39Z</time>
      </trkpt>
      <trkpt lat="42.617038" lon="-8.195772">
        <ele>508.925</ele>
        <time>2018-07-20T09:40:59Z</time>
      </trkpt>
      <trkpt lat="42.616827" lon="-8.196244">
        <ele>508.030</ele>
        <time>2018-07-20T09:41:19Z</time>
      </trkpt>
      <trkpt lat="42.616668" lon="-8.196634">
        <ele>507.281</ele>
        <time>2018-07-20T09:41:39Z</time>
      </trkpt>
      <trkpt lat="42.616572" lon="-8.196925">
        <ele>506.992</ele>
        <time>2018-07-20T09:41:59Z</time>
      </trkpt>
      <trkpt lat="42.616505" lon="-8.197273">
        <ele>504.473</ele>
        <time>2018-07-20T09:42:19Z</time>
      </trkpt>
      <trkpt lat="42.616385" lon="-8.197813">
        <ele>499.720</ele>
        <time>2018-07-20T09:42:39Z</time>
      </trkpt>
      <trkpt lat="42.616304" lon="-8.197926">
        <ele>500.408</ele>
        <time>2018-07-20T09:42:59Z</time>
      </trkpt>
      <trkpt lat="42.616217" lon="-8.198273">
        <ele>497.151</ele>
        <time>2018-07-20T09:43:19Z</time>
      </trkpt>
      <trkpt lat="42.615863" lon="-8.198443">
        <ele>498.495</ele>
        <time>2018-07-20T09:43:39Z</time>
      </trkpt>
      <trkpt lat="42.615179" lon="-8.198931">
        <ele>488.726</ele>
        <time>2018-07-20T09:43:59Z</time>
      </trkpt>
      <trkpt lat="42.614691" lon="-8.199193">
        <ele>481.664</ele>
        <time>2018-07-20T09:44:19Z</time>
      </trkpt>
      <trkpt lat="42.614290" lon="-8.199374">
        <ele>480.279</ele>
        <time>2018-07-20T09:44:39Z</time>
      </trkpt>
      <trkpt lat="42.614146" lon="-8.199450">
        <ele>480.110</ele>
        <time>2018-07-20T09:44:59Z</time>
      </trkpt>
      <trkpt lat="42.614203" lon="-8.199714">
        <ele>479.585</ele>
        <time>2018-07-20T09:45:19Z</time>
      </trkpt>
      <trkpt lat="42.614527" lon="-8.200285">
        <ele>468.156</ele>
        <time>2018-07-20T09:45:39Z</time>
      </trkpt>
      <trkpt lat="42.614853" lon="-8.200963">
        <ele>457.098</ele>
        <time>2018-07-20T09:45:59Z</time>
      </trkpt>
      <trkpt lat="42.615044" lon="-8.201387">
        <ele>456.515</ele>
        <time>2018-07-20T09:46:19Z</time>
      </trkpt>
      <trkpt lat="42.615335" lon="-8.201788">
        <ele>459.426</ele>
        <time>2018-07-20T09:46:39Z</time>
      </trkpt>
      <trkpt lat="42.615527" lon="-8.202201">
        <ele>462.608</ele>
        <time>2018-07-20T09:46:59Z</time>
      </trkpt>
      <trkpt lat="42.615937" lon="-8.202912">
        <ele>457.961</ele>
        <time>2018-07-20T09:47:19Z</time>
      </trkpt>
      <trkpt lat="42.616125" lon="-8.203333">
        <ele>456.095</ele>
        <time>2018-07-20T09:47:39Z</time>
      </trkpt>
      <trkpt lat="42.615966" lon="-8.203863">
        <ele>448.876</ele>
        <time>2018-07-20T09:47:59Z</time>
      </trkpt>
      <trkpt lat="42.615716" lon="-8.204261">
        <ele>445.334</ele>
        <time>2018-07-20T09:48:19Z</time>
      </trkpt>
      <trkpt lat="42.615509" lon="-8.204701">
        <ele>442.399</ele>
        <time>2018-07-20T09:48:39Z</time>
      </trkpt>
      <trkpt lat="42.615303" lon="-8.205261">
        <ele>438.370</ele>
        <time>2018-07-20T09:48:59Z</time>
      </trkpt>
      <trkpt lat="42.615579" lon="-8.205820">
        <ele>432.365</ele>
        <time>2018-07-20T09:49:19Z</time>
      </trkpt>
      <trkpt lat="42.615813" lon="-8.206339">
        <ele>425.886</ele>
        <time>2018-07-20T09:49:39Z</time>
      </trkpt>
      <trkpt lat="42.616084" lon="-8.207119">
        <ele>416.841</ele>
        <time>2018-07-20T09:49:59Z</time>
      </trkpt>
      <trkpt lat="42.616381" lon="-8.207527">
        <ele>415.781</ele>
        <time>2018-07-20T09:50:19Z</time>
      </trkpt>
      <trkpt lat="42.616544" lon="-8.208219">
        <ele>410.809</ele>
        <time>2018-07-20T09:50:39Z</time>
      </trkpt>
      <trkpt lat="42.616536" lon="-8.208676">
        <ele>411.308</ele>
        <time>2018-07-20T09:50:59Z</time>
      </trkpt>
      <trkpt lat="42.616362" lon="-8.209026">
        <ele>416.086</ele>
        <time>2018-07-20T09:51:19Z</time>
      </trkpt>
      <trkpt lat="42.616091" lon="-8.209358">
        <ele>420.430</ele>
        <time>2018-07-20T09:51:39Z</time>
      </trkpt>
      <trkpt lat="42.615899" lon="-8.209532">
        <ele>425.521</ele>
        <time>2018-07-20T09:51:59Z</time>
      </trkpt>
      <trkpt lat="42.616012" lon="-8.210198">
        <ele>429.799</ele>
        <time>2018-07-20T09:52:19Z</time>
      </trkpt>
      <trkpt lat="42.615963" lon="-8.210633">
        <ele>432.674</ele>
        <time>2018-07-20T09:52:39Z</time>
      </trkpt>
      <trkpt lat="42.615707" lon="-8.211307">
        <ele>448.775</ele>
        <time>2018-07-20T09:52:59Z</time>
      </trkpt>
      <trkpt lat="42.615908" lon="-8.211669">
        <ele>448.490</ele>
        <time>2018-07-20T09:53:19Z</time>
      </trkpt>
      <trkpt lat="42.615787" lon="-8.212323">
        <ele>460.691</ele>
        <time>2018-07-20T09:53:39Z</time>
      </trkpt>
      <trkpt lat="42.615377" lon="-8.212953">
        <ele>472.473</ele>
        <time>2018-07-20T09:53:59Z</time>
      </trkpt>
      <trkpt lat="42.614964" lon="-8.213339">
        <ele>479.385</ele>
        <time>2018-07-20T09:54:19Z</time>
      </trkpt>
      <trkpt lat="42.614665" lon="-8.213712">
        <ele>487.213</ele>
        <time>2018-07-20T09:54:39Z</time>
      </trkpt>
      <trkpt lat="42.614408" lon="-8.214089">
        <ele>492.508</ele>
        <time>2018-07-20T09:54:59Z</time>
      </trkpt>
      <trkpt lat="42.614153" lon="-8.214463">
        <ele>493.119</ele>
        <time>2018-07-20T09:55:19Z</time>
      </trkpt>
      <trkpt lat="42.614300" lon="-8.214877">
        <ele>497.173</ele>
        <time>2018-07-20T09:55:39Z</time>
      </trkpt>
      <trkpt lat="42.614119" lon="-8.215579">
        <ele>502.084</ele>
        <time>2018-07-20T09:55:59Z</time>
      </trkpt>
      <trkpt lat="42.613786" lon="-8.216103">
        <ele>510.612</ele>
        <time>2018-07-20T09:56:19Z</time>
      </trkpt>
      <trkpt lat="42.613488" lon="-8.216328">
        <ele>517.737</ele>
        <time>2018-07-20T09:56:39Z</time>
      </trkpt>
      <trkpt lat="42.613282" lon="-8.216462">
        <ele>522.288</ele>
        <time>2018-07-20T09:56:59Z</time>
      </trkpt>
      <trkpt lat="42.613020" lon="-8.216432">
        <ele>525.963</ele>
        <time>2018-07-20T09:57:19Z</time>
      </trkpt>
      <trkpt lat="42.612763" lon="-8.216775">
        <ele>531.464</ele>
        <time>2018-07-20T09:57:39Z</time>
      </trkpt>
      <trkpt lat="42.612152" lon="-8.217191">
        <ele>529.554</ele>
        <time>2018-07-20T09:57:59Z</time>
      </trkpt>
      <trkpt lat="42.611897" lon="-8.217594">
        <ele>527.756</ele>
        <time>2018-07-20T09:58:19Z</time>
      </trkpt>
      <trkpt lat="42.611552" lon="-8.217882">
        <ele>526.111</ele>
        <time>2018-07-20T09:58:39Z</time>
      </trkpt>
      <trkpt lat="42.611357" lon="-8.218212">
        <ele>524.608</ele>
        <time>2018-07-20T09:58:59Z</time>
      </trkpt>
      <trkpt lat="42.611198" lon="-8.218552">
        <ele>521.247</ele>
        <time>2018-07-20T09:59:19Z</time>
      </trkpt>
      <trkpt lat="42.611038" lon="-8.218776">
        <ele>517.691</ele>
        <time>2018-07-20T09:59:39Z</time>
      </trkpt>
      <trkpt lat="42.611184" lon="-8.219089">
        <ele>516.682</ele>
        <time>2018-07-20T09:59:59Z</time>
      </trkpt>
      <trkpt lat="42.611581" lon="-8.219771">
        <ele>513.440</ele>
        <time>2018-07-20T10:00:19Z</time>
      </trkpt>
      <trkpt lat="42.611671" lon="-8.220160">
        <ele>512.075</ele>
        <time>2018-07-20T10:00:39Z</time>
      </trkpt>
      <trkpt lat="42.611523" lon="-8.220588">
        <ele>504.946</ele>
        <time>2018-07-20T10:00:59Z</time>
      </trkpt>
      <trkpt lat="42.611221" lon="-8.221056">
        <ele>492.881</ele>
        <time>2018-07-20T10:01:19Z</time>
      </trkpt>
      <trkpt lat="42.611031" lon="-8.221139">
        <ele>488.372</ele>
        <time>2018-07-20T10:01:39Z</time>
      </trkpt>
      <trkpt lat="42.610782" lon="-8.221605">
        <ele>477.244</ele>
        <time>2018-07-20T10:01:59Z</time>
      </trkpt>
      <trkpt lat="42.610639" lon="-8.221944">
        <ele>470.505</ele>
        <time>2018-07-20T10:02:19Z</time>
      </trkpt>
      <trkpt lat="42.610487" lon="-8.222282">
        <ele>463.115</ele>
        <time>2018-07-20T10:02:39Z</time>
      </trkpt>
      <trkpt lat="42.610302" lon="-8.222659">
        <ele>455.408</ele>
        <time>2018-07-20T10:02:59Z</time>
      </trkpt>
      <trkpt lat="42.610364" lon="-8.223086">
        <ele>455.566</ele>
        <time>2018-07-20T10:03:19Z</time>
      </trkpt>
      <trkpt lat="42.610332" lon="-8.223510">
        <ele>454.040</ele>
        <time>2018-07-20T10:03:39Z</time>
      </trkpt>
      <trkpt lat="42.609992" lon="-8.223368">
        <ele>453.641</ele>
        <time>2018-07-20T10:03:59Z</time>
      </trkpt>
      <trkpt lat="42.609807" lon="-8.222980">
        <ele>455.529</ele>
        <time>2018-07-20T10:04:19Z</time>
      </trkpt>
      <trkpt lat="42.609669" lon="-8.222680">
        <ele>457.424</ele>
        <time>2018-07-20T10:04:39Z</time>
      </trkpt>
      <trkpt lat="42.609415" lon="-8.222502">
        <ele>462.585</ele>
        <time>2018-07-20T10:04:59Z</time>
      </trkpt>
      <trkpt lat="42.609121" lon="-8.222657">
        <ele>469.230</ele>
        <time>2018-07-20T10:05:19Z</time>
      </trkpt>
      <trkpt lat="42.608919" lon="-8.222980">
        <ele>474.221</ele>
        <time>2018-07-20T10:05:39Z</time>
      </trkpt>
      <trkpt lat="42.608707" lon="-8.223257">
        <ele>482.319</ele>
        <time>2018-07-20T10:05:59Z</time>
      </trkpt>
      <trkpt lat="42.608878" lon="-8.223513">
        <ele>483.109</ele>
        <time>2018-07-20T10:06:19Z</time>
      </trkpt>
      <trkpt lat="42.608988" lon="-8.223766">
        <ele>485.119</ele>
        <time>2018-07-20T10:06:39Z</time>
      </trkpt>
      <trkpt lat="42.609135" lon="-8.224104">
        <ele>486.208</ele>
        <time>2018-07-20T10:06:59Z</time>
      </trkpt>
      <trkpt lat="42.609214" lon="-8.224520">
        <ele>488.513</ele>
        <time>2018-07-20T10:07:19Z</time>
      </trkpt>
      <trkpt lat="42.609106" lon="-8.224966">
        <ele>494.457</ele>
        <time>2018-07-20T10:07:39Z</time>
      </trkpt>
      <trkpt lat="42.608916" lon="-8.225281">
        <ele>498.528</ele>
        <time>2018-07-20T10:07:59Z</time>
      </trkpt>
      <trkpt lat="42.608709" lon="-8.225512">
        <ele>500.896</ele>
        <time>2018-07-20T10:08:19Z</time>
      </trkpt>
      <trkpt lat="42.608504" lon="-8.225743">
        <ele>501.551</ele>
        <time>2018-07-20T10:08:39Z</time>
      </trkpt>
      <trkpt lat="42.608212" lon="-8.225963">
        <ele>503.272</ele>
        <time>2018-07-20T10:08:59Z</time>
      </trkpt>
      <trkpt lat="42.607873" lon="-8.226054">
        <ele>503.997</ele>
        <time>2018-07-20T10:09:19Z</time>
      </trkpt>
      <trkpt lat="42.607496" lon="-8.226019">
        <ele>507.388</ele>
        <time>2018-07-20T10:09:39Z</time>
      </trkpt>
      <trkpt lat="42.606856" lon="-8.225798">
        <ele>514.593</ele>
        <time>2018-07-20T10:09:59Z</time>
      </trkpt>
      <trkpt lat="42.606318" lon="-8.225629">
        <ele>523.265</ele>
        <time>2018-07-20T10:10:19Z</time>
      </trkpt>
      <trkpt lat="42.605877" lon="-8.225590">
        <ele>529.321</ele>
        <time>2018-07-20T10:10:39Z</time>
      </trkpt>
      <trkpt lat="42.605583" lon="-8.225718">
        <ele>533.008</ele>
        <time>2018-07-20T10:10:59Z</time>
      </trkpt>
      <trkpt lat="42.605292" lon="-8.226038">
        <ele>538.761</ele>
        <time>2018-07-20T10:11:19Z</time>
      </trkpt>
      <trkpt lat="42.605003" lon="-8.226278">
        <ele>544.985</ele>
        <time>2018-07-20T10:11:39Z</time>
      </trkpt>
      <trkpt lat="42.604797" lon="-8.226563">
        <ele>548.796</ele>
        <time>2018-07-20T10:11:59Z</time>
      </trkpt>
      <trkpt lat="42.604655" lon="-8.226887">
        <ele>551.844</ele>
        <time>2018-07-20T10:12:19Z</time>
      </trkpt>
      <trkpt lat="42.604637" lon="-8.227265">
        <ele>552.889</ele>
        <time>2018-07-20T10:12:39Z</time>
      </trkpt>
      <trkpt lat="42.604580" lon="-8.227561">
        <ele>556.280</ele>
        <time>2018-07-20T10:12:59Z</time>
      </trkpt>
      <trkpt lat="42.604439" lon="-8.227975">
        <ele>560.165</ele>
        <time>2018-07-20T10:13:19Z</time>
      </trkpt>
      <trkpt lat="42.604410" lon="-8.228375">
        <ele>561.876</ele>
        <time>2018-07-20T10:13:39Z</time>
      </trkpt>
      <trkpt lat="42.604383" lon="-8.228750">
        <ele>563.354</ele>
        <time>2018-07-20T10:13:59Z</time>
      </trkpt>
      <trkpt lat="42.604317" lon="-8.229435">
        <ele>568.756</ele>
        <time>2018-07-20T10:14:19Z</time>
      </trkpt>
      <trkpt lat="42.604273" lon="-8.229650">
        <ele>569.911</ele>
        <time>2018-07-20T10:14:39Z</time>
      </trkpt>
      <trkpt lat="42.604071" lon="-8.230011">
        <ele>575.008</ele>
        <time>2018-07-20T10:14:59Z</time>
      </trkpt>
      <trkpt lat="42.603904" lon="-8.230316">
        <ele>576.217</ele>
        <time>2018-07-20T10:15:19Z</time>
      </trkpt>
      <trkpt lat="42.603692" lon="-8.230558">
        <ele>576.511</ele>
        <time>2018-07-20T10:15:39Z</time>
      </trkpt>
      <trkpt lat="42.603286" lon="-8.230945">
        <ele>580.112</ele>
        <time>2018-07-20T10:15:59Z</time>
      </trkpt>
      <trkpt lat="42.602931" lon="-8.231248">
        <ele>583.920</ele>
        <time>2018-07-20T10:16:19Z</time>
      </trkpt>
      <trkpt lat="42.602529" lon="-8.231574">
        <ele>589.855</ele>
        <time>2018-07-20T10:16:39Z</time>
      </trkpt>
      <trkpt lat="42.602312" lon="-8.231863">
        <ele>592.096</ele>
        <time>2018-07-20T10:16:59Z</time>
      </trkpt>
      <trkpt lat="42.602335" lon="-8.232132">
        <ele>588.681</ele>
        <time>2018-07-20T10:17:19Z</time>
      </trkpt>
      <trkpt lat="42.602392" lon="-8.232524">
        <ele>585.172</ele>
        <time>2018-07-20T10:17:39Z</time>
      </trkpt>
      <trkpt lat="42.602426" lon="-8.232921">
        <ele>583.547</ele>
        <time>2018-07-20T10:17:59Z</time>
      </trkpt>
      <trkpt lat="42.602364" lon="-8.233373">
        <ele>580.429</ele>
        <time>2018-07-20T10:18:19Z</time>
      </trkpt>
      <trkpt lat="42.602256" lon="-8.233806">
        <ele>579.421</ele>
        <time>2018-07-20T10:18:39Z</time>
      </trkpt>
      <trkpt lat="42.602238" lon="-8.234270">
        <ele>575.108</ele>
        <time>2018-07-20T10:18:59Z</time>
      </trkpt>
      <trkpt lat="42.602130" lon="-8.234592">
        <ele>572.126</ele>
        <time>2018-07-20T10:19:19Z</time>
      </trkpt>
      <trkpt lat="42.602013" lon="-8.235017">
        <ele>565.270</ele>
        <time>2018-07-20T10:19:39Z</time>
      </trkpt>
      <trkpt lat="42.601851" lon="-8.235442">
        <ele>560.811</ele>
        <time>2018-07-20T10:19:59Z</time>
      </trkpt>
      <trkpt lat="42.601710" lon="-8.235864">
        <ele>561.079</ele>
        <time>2018-07-20T10:20:19Z</time>
      </trkpt>
      <trkpt lat="42.601620" lon="-8.236116">
        <ele>564.434</ele>
        <time>2018-07-20T10:20:39Z</time>
      </trkpt>
      <trkpt lat="42.601882" lon="-8.236157">
        <ele>564.095</ele>
        <time>2018-07-20T10:20:59Z</time>
      </trkpt>
      <trkpt lat="42.602249" lon="-8.236156">
        <ele>563.740</ele>
        <time>2018-07-20T10:21:19Z</time>
      </trkpt>
      <trkpt lat="42.602651" lon="-8.236242">
        <ele>562.821</ele>
        <time>2018-07-20T10:21:39Z</time>
      </trkpt>
      <trkpt lat="42.602968" lon="-8.236307">
        <ele>560.647</ele>
        <time>2018-07-20T10:21:59Z</time>
      </trkpt>
      <trkpt lat="42.603306" lon="-8.236396">
        <ele>559.429</ele>
        <time>2018-07-20T10:22:19Z</time>
      </trkpt>
      <trkpt lat="42.603532" lon="-8.236420">
        <ele>560.321</ele>
        <time>2018-07-20T10:22:39Z</time>
      </trkpt>
      <trkpt lat="42.603673" lon="-8.236198">
        <ele>556.908</ele>
        <time>2018-07-20T10:22:59Z</time>
      </trkpt>
      <trkpt lat="42.603986" lon="-8.236017">
        <ele>555.486</ele>
        <time>2018-07-20T10:23:19Z</time>
      </trkpt>
      <trkpt lat="42.604219" lon="-8.235947">
        <ele>553.190</ele>
        <time>2018-07-20T10:23:39Z</time>
      </trkpt>
      <trkpt lat="42.604490" lon="-8.236036">
        <ele>549.191</ele>
        <time>2018-07-20T10:23:59Z</time>
      </trkpt>
      <trkpt lat="42.604771" lon="-8.236266">
        <ele>544.619</ele>
        <time>2018-07-20T10:24:19Z</time>
      </trkpt>
      <trkpt lat="42.604980" lon="-8.236476">
        <ele>543.094</ele>
        <time>2018-07-20T10:24:39Z</time>
      </trkpt>
      <trkpt lat="42.605344" lon="-8.236408">
        <ele>538.135</ele>
        <time>2018-07-20T10:24:59Z</time>
      </trkpt>
      <trkpt lat="42.605792" lon="-8.236267">
        <ele>534.020</ele>
        <time>2018-07-20T10:25:19Z</time>
      </trkpt>
      <trkpt lat="42.606291" lon="-8.236024">
        <ele>524.851</ele>
        <time>2018-07-20T10:25:39Z</time>
      </trkpt>
      <trkpt lat="42.606710" lon="-8.235774">
        <ele>515.343</ele>
        <time>2018-07-20T10:25:59Z</time>
      </trkpt>
      <trkpt lat="42.607024" lon="-8.235770">
        <ele>514.064</ele>
        <time>2018-07-20T10:26:19Z</time>
      </trkpt>
      <trkpt lat="42.607161" lon="-8.235869">
        <ele>516.810</ele>
        <time>2018-07-20T10:26:39Z</time>
      </trkpt>
      <trkpt lat="42.607424" lon="-8.235664">
        <ele>512.308</ele>
        <time>2018-07-20T10:26:59Z</time>
      </trkpt>
      <trkpt lat="42.607777" lon="-8.235402">
        <ele>508.176</ele>
        <time>2018-07-20T10:27:19Z</time>
      </trkpt>
      <trkpt lat="42.607824" lon="-8.235606">
        <ele>512.480</ele>
        <time>2018-07-20T10:27:39Z</time>
      </trkpt>
      <trkpt lat="42.608069" lon="-8.235834">
        <ele>512.891</ele>
        <time>2018-07-20T10:27:59Z</time>
      </trkpt>
      <trkpt lat="42.608147" lon="-8.236090">
        <ele>514.829</ele>
        <time>2018-07-20T10:28:19Z</time>
      </trkpt>
      <trkpt lat="42.608111" lon="-8.236399">
        <ele>518.884</ele>
        <time>2018-07-20T10:28:39Z</time>
      </trkpt>
      <trkpt lat="42.607929" lon="-8.236627">
        <ele>523.535</ele>
        <time>2018-07-20T10:28:59Z</time>
      </trkpt>
      <trkpt lat="42.607557" lon="-8.236723">
        <ele>532.380</ele>
        <time>2018-07-20T10:29:19Z</time>
      </trkpt>
      <trkpt lat="42.607379" lon="-8.236871">
        <ele>536.651</ele>
        <time>2018-07-20T10:29:39Z</time>
      </trkpt>
      <trkpt lat="42.607346" lon="-8.237095">
        <ele>540.175</ele>
        <time>2018-07-20T10:29:59Z</time>
      </trkpt>
      <trkpt lat="42.607319" lon="-8.237418">
        <ele>543.428</ele>
        <time>2018-07-20T10:30:19Z</time>
      </trkpt>
      <trkpt lat="42.607261" lon="-8.237688">
        <ele>547.020</ele>
        <time>2018-07-20T10:30:39Z</time>
      </trkpt>
      <trkpt lat="42.607108" lon="-8.237953">
        <ele>551.708</ele>
        <time>2018-07-20T10:30:59Z</time>
      </trkpt>
      <trkpt lat="42.606887" lon="-8.238162">
        <ele>555.759</ele>
        <time>2018-07-20T10:31:19Z</time>
      </trkpt>
      <trkpt lat="42.606500" lon="-8.238186">
        <ele>563.093</ele>
        <time>2018-07-20T10:31:39Z</time>
      </trkpt>
      <trkpt lat="42.606199" lon="-8.238406">
        <ele>569.544</ele>
        <time>2018-07-20T10:31:59Z</time>
      </trkpt>
      <trkpt lat="42.605975" lon="-8.238675">
        <ele>573.172</ele>
        <time>2018-07-20T10:32:19Z</time>
      </trkpt>
      <trkpt lat="42.605833" lon="-8.238947">
        <ele>575.037</ele>
        <time>2018-07-20T10:32:39Z</time>
      </trkpt>
      <trkpt lat="42.605725" lon="-8.239292">
        <ele>577.228</ele>
        <time>2018-07-20T10:32:59Z</time>
      </trkpt>
      <trkpt lat="42.605472" lon="-8.239523">
        <ele>582.113</ele>
        <time>2018-07-20T10:33:19Z</time>
      </trkpt>
      <trkpt lat="42.605229" lon="-8.239796">
        <ele>587.764</ele>
        <time>2018-07-20T10:33:39Z</time>
      </trkpt>
      <trkpt lat="42.605039" lon="-8.240098">
        <ele>589.725</ele>
        <time>2018-07-20T10:33:59Z</time>
      </trkpt>
      <trkpt lat="42.604871" lon="-8.240306">
        <ele>588.926</ele>
        <time>2018-07-20T10:34:19Z</time>
      </trkpt>
      <trkpt lat="42.604615" lon="-8.240429">
        <ele>591.808</ele>
        <time>2018-07-20T10:34:39Z</time>
      </trkpt>
      <trkpt lat="42.604270" lon="-8.240446">
        <ele>596.508</ele>
        <time>2018-07-20T10:34:59Z</time>
      </trkpt>
      <trkpt lat="42.603993" lon="-8.240586">
        <ele>600.234</ele>
        <time>2018-07-20T10:35:19Z</time>
      </trkpt>
      <trkpt lat="42.603815" lon="-8.240712">
        <ele>603.858</ele>
        <time>2018-07-20T10:35:39Z</time>
      </trkpt>
      <trkpt lat="42.603901" lon="-8.240950">
        <ele>601.529</ele>
        <time>2018-07-20T10:35:59Z</time>
      </trkpt>
      <trkpt lat="42.604021" lon="-8.241217">
        <ele>600.017</ele>
        <time>2018-07-20T10:36:19Z</time>
      </trkpt>
      <trkpt lat="42.604074" lon="-8.241605">
        <ele>599.962</ele>
        <time>2018-07-20T10:36:39Z</time>
      </trkpt>
      <trkpt lat="42.604159" lon="-8.241892">
        <ele>594.283</ele>
        <time>2018-07-20T10:36:59Z</time>
      </trkpt>
      <trkpt lat="42.604009" lon="-8.242157">
        <ele>594.498</ele>
        <time>2018-07-20T10:37:19Z</time>
      </trkpt>
      <trkpt lat="42.603935" lon="-8.242442">
        <ele>591.029</ele>
        <time>2018-07-20T10:37:39Z</time>
      </trkpt>
      <trkpt lat="42.603855" lon="-8.242747">
        <ele>586.344</ele>
        <time>2018-07-20T10:37:59Z</time>
      </trkpt>
      <trkpt lat="42.603749" lon="-8.243067">
        <ele>582.405</ele>
        <time>2018-07-20T10:38:19Z</time>
      </trkpt>
      <trkpt lat="42.603658" lon="-8.243321">
        <ele>581.615</ele>
        <time>2018-07-20T10:38:39Z</time>
      </trkpt>
      <trkpt lat="42.603494" lon="-8.243527">
        <ele>584.708</ele>
        <time>2018-07-20T10:38:59Z</time>
      </trkpt>
      <trkpt lat="42.603737" lon="-8.243668">
        <ele>583.646</ele>
        <time>2018-07-20T10:39:19Z</time>
      </trkpt>
      <trkpt lat="42.604015" lon="-8.243809">
        <ele>583.790</ele>
        <time>2018-07-20T10:39:39Z</time>
      </trkpt>
      <trkpt lat="42.604233" lon="-8.244013">
        <ele>586.231</ele>
        <time>2018-07-20T10:39:59Z</time>
      </trkpt>
      <trkpt lat="42.604469" lon="-8.244311">
        <ele>591.519</ele>
        <time>2018-07-20T10:40:19Z</time>
      </trkpt>
      <trkpt lat="42.604837" lon="-8.244603">
        <ele>595.294</ele>
        <time>2018-07-20T10:40:39Z</time>
      </trkpt>
      <trkpt lat="42.605098" lon="-8.244895">
        <ele>597.325</ele>
        <time>2018-07-20T10:40:59Z</time>
      </trkpt>
      <trkpt lat="42.605180" lon="-8.245164">
        <ele>599.280</ele>
        <time>2018-07-20T10:41:19Z</time>
      </trkpt>
      <trkpt lat="42.605341" lon="-8.245622">
        <ele>600.991</ele>
        <time>2018-07-20T10:41:39Z</time>
      </trkpt>
      <trkpt lat="42.605442" lon="-8.245973">
        <ele>601.981</ele>
        <time>2018-07-20T10:41:59Z</time>
      </trkpt>
      <trkpt lat="42.605582" lon="-8.246373">
        <ele>603.961</ele>
        <time>2018-07-20T10:42:19Z</time>
      </trkpt>
      <trkpt lat="42.605416" lon="-8.246539">
        <ele>606.517</ele>
        <time>2018-07-20T10:42:39Z</time>
      </trkpt>
      <trkpt lat="42.605153" lon="-8.246823">
        <ele>611.808</ele>
        <time>2018-07-20T10:42:59Z</time>
      </trkpt>
      <trkpt lat="42.604980" lon="-8.247037">
        <ele>615.460</ele>
        <time>2018-07-20T10:43:19Z</time>
      </trkpt>
      <trkpt lat="42.604950" lon="-8.247372">
        <ele>618.494</ele>
        <time>2018-07-20T10:43:39Z</time>
      </trkpt>
      <trkpt lat="42.604853" lon="-8.247765">
        <ele>628.025</ele>
        <time>2018-07-20T10:43:59Z</time>
      </trkpt>
      <trkpt lat="42.604930" lon="-8.248134">
        <ele>628.243</ele>
        <time>2018-07-20T10:44:19Z</time>
      </trkpt>
      <trkpt lat="42.604902" lon="-8.248464">
        <ele>629.648</ele>
        <time>2018-07-20T10:44:39Z</time>
      </trkpt>
      <trkpt lat="42.604739" lon="-8.248614">
        <ele>632.779</ele>
        <time>2018-07-20T10:44:59Z</time>
      </trkpt>
      <trkpt lat="42.604401" lon="-8.248653">
        <ele>639.714</ele>
        <time>2018-07-20T10:45:19Z</time>
      </trkpt>
      <trkpt lat="42.604128" lon="-8.248603">
        <ele>645.685</ele>
        <time>2018-07-20T10:45:39Z</time>
      </trkpt>
      <trkpt lat="42.603868" lon="-8.248683">
        <ele>648.548</ele>
        <time>2018-07-20T10:45:59Z</time>
      </trkpt>
      <trkpt lat="42.603654" lon="-8.248765">
        <ele>650.761</ele>
        <time>2018-07-20T10:46:19Z</time>
      </trkpt>
      <trkpt lat="42.603381" lon="-8.248959">
        <ele>654.517</ele>
        <time>2018-07-20T10:46:39Z</time>
      </trkpt>
      <trkpt lat="42.603036" lon="-8.249107">
        <ele>660.108</ele>
        <time>2018-07-20T10:46:59Z</time>
      </trkpt>
      <trkpt lat="42.602850" lon="-8.249336">
        <ele>663.796</ele>
        <time>2018-07-20T10:47:19Z</time>
      </trkpt>
      <trkpt lat="42.602557" lon="-8.249512">
        <ele>670.920</ele>
        <time>2018-07-20T10:47:39Z</time>
      </trkpt>
      <trkpt lat="42.602332" lon="-8.249751">
        <ele>675.061</ele>
        <time>2018-07-20T10:47:59Z</time>
      </trkpt>
      <trkpt lat="42.602032" lon="-8.249988">
        <ele>681.399</ele>
        <time>2018-07-20T10:48:19Z</time>
      </trkpt>
      <trkpt lat="42.601720" lon="-8.250190">
        <ele>687.354</ele>
        <time>2018-07-20T10:48:39Z</time>
      </trkpt>
      <trkpt lat="42.601313" lon="-8.250311">
        <ele>693.555</ele>
        <time>2018-07-20T10:48:59Z</time>
      </trkpt>
      <trkpt lat="42.600964" lon="-8.250496">
        <ele>697.440</ele>
        <time>2018-07-20T10:49:19Z</time>
      </trkpt>
      <trkpt lat="42.600617" lon="-8.250534">
        <ele>704.821</ele>
        <time>2018-07-20T10:49:39Z</time>
      </trkpt>
      <trkpt lat="42.600341" lon="-8.250662">
        <ele>706.424</ele>
        <time>2018-07-20T10:49:59Z</time>
      </trkpt>
      <trkpt lat="42.599923" lon="-8.250713">
        <ele>713.804</ele>
        <time>2018-07-20T10:50:19Z</time>
      </trkpt>
      <trkpt lat="42.599668" lon="-8.250786">
        <ele>720.214</ele>
        <time>2018-07-20T10:50:39Z</time>
      </trkpt>
      <trkpt lat="42.599306" lon="-8.250905">
        <ele>730.708</ele>
        <time>2018-07-20T10:50:59Z</time>
      </trkpt>
      <trkpt lat="42.599125" lon="-8.251018">
        <ele>734.274</ele>
        <time>2018-07-20T10:51:19Z</time>
      </trkpt>
      <trkpt lat="42.598872" lon="-8.251125">
        <ele>738.218</ele>
        <time>2018-07-20T10:51:39Z</time>
      </trkpt>
      <trkpt lat="42.598612" lon="-8.251313">
        <ele>743.549</ele>
        <time>2018-07-20T10:51:59Z</time>
      </trkpt>
      <trkpt lat="42.598336" lon="-8.251463">
        <ele>752.627</ele>
        <time>2018-07-20T10:52:19Z</time>
      </trkpt>
      <trkpt lat="42.598176" lon="-8.251626">
        <ele>756.472</ele>
        <time>2018-07-20T10:52:39Z</time>
      </trkpt>
      <trkpt lat="42.597986" lon="-8.251793">
        <ele>761.973</ele>
        <time>2018-07-20T10:52:59Z</time>
      </trkpt>
      <trkpt lat="42.598014" lon="-8.252048">
        <ele>763.268</ele>
        <time>2018-07-20T10:53:19Z</time>
      </trkpt>
      <trkpt lat="42.598107" lon="-8.252373">
        <ele>764.789</ele>
        <time>2018-07-20T10:53:39Z</time>
      </trkpt>
      <trkpt lat="42.598321" lon="-8.252641">
        <ele>760.092</ele>
        <time>2018-07-20T10:53:59Z</time>
      </trkpt>
      <trkpt lat="42.598447" lon="-8.252878">
        <ele>759.773</ele>
        <time>2018-07-20T10:54:19Z</time>
      </trkpt>
      <trkpt lat="42.598582" lon="-8.253253">
        <ele>760.920</ele>
        <time>2018-07-20T10:54:39Z</time>
      </trkpt>
      <trkpt lat="42.598838" lon="-8.253534">
        <ele>758.508</ele>
        <time>2018-07-20T10:54:59Z</time>
      </trkpt>
      <trkpt lat="42.598966" lon="-8.253707">
        <ele>757.091</ele>
        <time>2018-07-20T10:55:19Z</time>
      </trkpt>
      <trkpt lat="42.599027" lon="-8.253914">
        <ele>756.575</ele>
        <time>2018-07-20T10:55:39Z</time>
      </trkpt>
      <trkpt lat="42.599007" lon="-8.254171">
        <ele>756.496</ele>
        <time>2018-07-20T10:55:59Z</time>
      </trkpt>
      <trkpt lat="42.598921" lon="-8.254553">
        <ele>757.454</ele>
        <time>2018-07-20T10:56:19Z</time>
      </trkpt>
      <trkpt lat="42.598946" lon="-8.254848">
        <ele>760.319</ele>
        <time>2018-07-20T10:56:39Z</time>
      </trkpt>
      <trkpt lat="42.599175" lon="-8.254828">
        <ele>757.960</ele>
        <time>2018-07-20T10:56:59Z</time>
      </trkpt>
      <trkpt lat="42.599354" lon="-8.254707">
        <ele>755.125</ele>
        <time>2018-07-20T10:57:19Z</time>
      </trkpt>
      <trkpt lat="42.599734" lon="-8.254526">
        <ele>749.176</ele>
        <time>2018-07-20T10:57:39Z</time>
      </trkpt>
      <trkpt lat="42.600014" lon="-8.254296">
        <ele>743.829</ele>
        <time>2018-07-20T10:57:59Z</time>
      </trkpt>
      <trkpt lat="42.600245" lon="-8.254478">
        <ele>744.600</ele>
        <time>2018-07-20T10:58:19Z</time>
      </trkpt>
      <trkpt lat="42.600675" lon="-8.254662">
        <ele>742.020</ele>
        <time>2018-07-20T10:58:39Z</time>
      </trkpt>
      <trkpt lat="42.601057" lon="-8.254817">
        <ele>740.508</ele>
        <time>2018-07-20T10:58:59Z</time>
      </trkpt>
      <trkpt lat="42.601299" lon="-8.254769">
        <ele>741.074</ele>
        <time>2018-07-20T10:59:19Z</time>
      </trkpt>
      <trkpt lat="42.601557" lon="-8.254819">
        <ele>742.278</ele>
        <time>2018-07-20T10:59:39Z</time>
      </trkpt>
      <trkpt lat="42.601971" lon="-8.255098">
        <ele>747.259</ele>
        <time>2018-07-20T10:59:59Z</time>
      </trkpt>
      <trkpt lat="42.602397" lon="-8.255257">
        <ele>748.557</ele>
        <time>2018-07-20T11:00:19Z</time>
      </trkpt>
      <trkpt lat="42.602749" lon="-8.255347">
        <ele>749.642</ele>
        <time>2018-07-20T11:00:39Z</time>
      </trkpt>
      <trkpt lat="42.603126" lon="-8.255466">
        <ele>754.313</ele>
        <time>2018-07-20T11:00:59Z</time>
      </trkpt>
      <trkpt lat="42.603356" lon="-8.255368">
        <ele>754.088</ele>
        <time>2018-07-20T11:01:19Z</time>
      </trkpt>
      <trkpt lat="42.603704" lon="-8.255215">
        <ele>750.879</ele>
        <time>2018-07-20T11:01:39Z</time>
      </trkpt>
      <trkpt lat="42.603957" lon="-8.255258">
        <ele>752.831</ele>
        <time>2018-07-20T11:01:59Z</time>
      </trkpt>
      <trkpt lat="42.604291" lon="-8.255359">
        <ele>752.961</ele>
        <time>2018-07-20T11:02:19Z</time>
      </trkpt>
      <trkpt lat="42.604727" lon="-8.255708">
        <ele>748.507</ele>
        <time>2018-07-20T11:02:39Z</time>
      </trkpt>
      <trkpt lat="42.604703" lon="-8.256061">
        <ele>750.308</ele>
        <time>2018-07-20T11:02:59Z</time>
      </trkpt>
      <trkpt lat="42.604985" lon="-8.256582">
        <ele>747.355</ele>
        <time>2018-07-20T11:03:19Z</time>
      </trkpt>
      <trkpt lat="42.605058" lon="-8.257002">
        <ele>749.099</ele>
        <time>2018-07-20T11:03:39Z</time>
      </trkpt>
      <trkpt lat="42.605244" lon="-8.257252">
        <ele>748.870</ele>
        <time>2018-07-20T11:03:59Z</time>
      </trkpt>
      <trkpt lat="42.605742" lon="-8.257410">
        <ele>750.888</ele>
        <time>2018-07-20T11:04:19Z</time>
      </trkpt>
      <trkpt lat="42.606058" lon="-8.257587">
        <ele>751.513</ele>
        <time>2018-07-20T11:04:39Z</time>
      </trkpt>
      <trkpt lat="42.606444" lon="-8.257820">
        <ele>751.964</ele>
        <time>2018-07-20T11:04:59Z</time>
      </trkpt>
      <trkpt lat="42.606767" lon="-8.258035">
        <ele>750.289</ele>
        <time>2018-07-20T11:05:19Z</time>
      </trkpt>
      <trkpt lat="42.607356" lon="-8.258534">
        <ele>748.190</ele>
        <time>2018-07-20T11:05:39Z</time>
      </trkpt>
      <trkpt lat="42.607557" lon="-8.258935">
        <ele>749.261</ele>
        <time>2018-07-20T11:05:59Z</time>
      </trkpt>
      <trkpt lat="42.607595" lon="-8.259352">
        <ele>752.921</ele>
        <time>2018-07-20T11:06:19Z</time>
      </trkpt>
      <trkpt lat="42.607642" lon="-8.259687">
        <ele>757.013</ele>
        <time>2018-07-20T11:06:39Z</time>
      </trkpt>
      <trkpt lat="42.607567" lon="-8.259874">
        <ele>760.708</ele>
        <time>2018-07-20T11:06:59Z</time>
      </trkpt>
      <trkpt lat="42.607615" lon="-8.260057">
        <ele>764.178</ele>
        <time>2018-07-20T11:07:19Z</time>
      </trkpt>
      <trkpt lat="42.607922" lon="-8.259917">
        <ele>760.932</ele>
        <time>2018-07-20T11:07:39Z</time>
      </trkpt>
      <trkpt lat="42.608262" lon="-8.259838">
        <ele>761.173</ele>
        <time>2018-07-20T11:07:59Z</time>
      </trkpt>
      <trkpt lat="42.608653" lon="-8.259705">
        <ele>760.811</ele>
        <time>2018-07-20T11:08:19Z</time>
      </trkpt>
      <trkpt lat="42.608983" lon="-8.259708">
        <ele>763.076</ele>
        <time>2018-07-20T11:08:39Z</time>
      </trkpt>
      <trkpt lat="42.609275" lon="-8.259904">
        <ele>767.727</ele>
        <time>2018-07-20T11:08:59Z</time>
      </trkpt>
      <trkpt lat="42.609447" lon="-8.260207">
        <ele>773.912</ele>
        <time>2018-07-20T11:09:19Z</time>
      </trkpt>
      <trkpt lat="42.609724" lon="-8.260441">
        <ele>776.193</ele>
        <time>2018-07-20T11:09:39Z</time>
      </trkpt>
      <trkpt lat="42.610035" lon="-8.260567">
        <ele>780.989</ele>
        <time>2018-07-20T11:09:59Z</time>
      </trkpt>
      <trkpt lat="42.610300" lon="-8.260432">
        <ele>780.306</ele>
        <time>2018-07-20T11:10:19Z</time>
      </trkpt>
      <trkpt lat="42.610707" lon="-8.260417">
        <ele>785.226</ele>
        <time>2018-07-20T11:10:39Z</time>
      </trkpt>
      <trkpt lat="42.611135" lon="-8.260400">
        <ele>789.208</ele>
        <time>2018-07-20T11:10:59Z</time>
      </trkpt>
      <trkpt lat="42.611766" lon="-8.260467">
        <ele>791.430</ele>
        <time>2018-07-20T11:11:19Z</time>
      </trkpt>
      <trkpt lat="42.612123" lon="-8.260528">
        <ele>794.194</ele>
        <time>2018-07-20T11:11:39Z</time>
      </trkpt>
      <trkpt lat="42.612623" lon="-8.260729">
        <ele>797.115</ele>
        <time>2018-07-20T11:11:59Z</time>
      </trkpt>
      <trkpt lat="42.612402" lon="-8.260890">
        <ele>802.423</ele>
        <time>2018-07-20T11:12:19Z</time>
      </trkpt>
      <trkpt lat="42.612017" lon="-8.260869">
        <ele>801.398</ele>
        <time>2018-07-20T11:12:39Z</time>
      </trkpt>
      <trkpt lat="42.611790" lon="-8.261046">
        <ele>805.139</ele>
        <time>2018-07-20T11:12:59Z</time>
      </trkpt>
      <trkpt lat="42.611466" lon="-8.261126">
        <ele>806.734</ele>
        <time>2018-07-20T11:13:19Z</time>
      </trkpt>
      <trkpt lat="42.611156" lon="-8.261287">
        <ele>810.085</ele>
        <time>2018-07-20T11:13:39Z</time>
      </trkpt>
      <trkpt lat="42.610800" lon="-8.261372">
        <ele>809.541</ele>
        <time>2018-07-20T11:13:59Z</time>
      </trkpt>
      <trkpt lat="42.610375" lon="-8.261639">
        <ele>815.281</ele>
        <time>2018-07-20T11:14:19Z</time>
      </trkpt>
      <trkpt lat="42.609949" lon="-8.261761">
        <ele>819.509</ele>
        <time>2018-07-20T11:14:39Z</time>
      </trkpt>
      <trkpt lat="42.609328" lon="-8.261873">
        <ele>824.108</ele>
        <time>2018-07-20T11:14:59Z</time>
      </trkpt>
      <trkpt lat="42.608964" lon="-8.261891">
        <ele>824.386</ele>
        <time>2018-07-20T11:15:19Z</time>
      </trkpt>
      <trkpt lat="42.608660" lon="-8.262021">
        <ele>827.470</ele>
        <time>2018-07-20T11:15:39Z</time>
      </trkpt>
      <trkpt lat="42.608331" lon="-8.262163">
        <ele>832.181</ele>
        <time>2018-07-20T11:15:59Z</time>
      </trkpt>
      <trkpt lat="42.608016" lon="-8.262281">
        <ele>839.169</ele>
        <time>2018-07-20T11:16:19Z</time>
      </trkpt>
      <trkpt lat="42.607665" lon="-8.262266">
        <ele>838.844</ele>
        <time>2018-07-20T11:16:39Z</time>
      </trkpt>
      <trkpt lat="42.607351" lon="-8.262307">
        <ele>841.595</ele>
        <time>2018-07-20T11:16:59Z</time>
      </trkpt>
      <trkpt lat="42.607049" lon="-8.262372">
        <ele>845.380</ele>
        <time>2018-07-20T11:17:19Z</time>
      </trkpt>
      <trkpt lat="42.606772" lon="-8.262535">
        <ele>851.991</ele>
        <time>2018-07-20T11:17:39Z</time>
      </trkpt>
      <trkpt lat="42.606513" lon="-8.262745">
        <ele>858.314</ele>
        <time>2018-07-20T11:17:59Z</time>
      </trkpt>
      <trkpt lat="42.606261" lon="-8.262861">
        <ele>861.654</ele>
        <time>2018-07-20T11:18:19Z</time>
      </trkpt>
      <trkpt lat="42.606136" lon="-8.262975">
        <ele>865.509</ele>
        <time>2018-07-20T11:18:39Z</time>
      </trkpt>
      <trkpt lat="42.606420" lon="-8.263035">
        <ele>869.108</ele>
        <time>2018-07-20T11:18:59Z</time>
      </trkpt>
      <trkpt lat="42.606776" lon="-8.263207">
        <ele>874.613</ele>
        <time>2018-07-20T11:19:19Z</time>
      </trkpt>
      <trkpt lat="42.607223" lon="-8.263470">
        <ele>882.077</ele>
        <time>2018-07-20T11:19:39Z</time>
      </trkpt>
      <trkpt lat="42.607821" lon="-8.263751">
        <ele>890.188</ele>
        <time>2018-07-20T11:19:59Z</time>
      </trkpt>
      <trkpt lat="42.608402" lon="-8.264031">
        <ele>896.886</ele>
        <time>2018-07-20T11:20:19Z</time>
      </trkpt>
      <trkpt lat="42.608874" lon="-8.264245">
        <ele>898.371</ele>
        <time>2018-07-20T11:20:39Z</time>
      </trkpt>
      <trkpt lat="42.609044" lon="-8.264550">
        <ele>900.072</ele>
        <time>2018-07-20T11:20:59Z</time>
      </trkpt>
      <trkpt lat="42.609336" lon="-8.264934">
        <ele>896.337</ele>
        <time>2018-07-20T11:21:19Z</time>
      </trkpt>
      <trkpt lat="42.609294" lon="-8.265193">
        <ele>895.648</ele>
        <time>2018-07-20T11:21:39Z</time>
      </trkpt>
      <trkpt lat="42.608889" lon="-8.265257">
        <ele>901.119</ele>
        <time>2018-07-20T11:21:59Z</time>
      </trkpt>
      <trkpt lat="42.608656" lon="-8.265370">
        <ele>904.009</ele>
        <time>2018-07-20T11:22:19Z</time>
      </trkpt>
      <trkpt lat="42.608310" lon="-8.265449">
        <ele>908.019</ele>
        <time>2018-07-20T11:22:39Z</time>
      </trkpt>
      <trkpt lat="42.608042" lon="-8.265478">
        <ele>910.908</ele>
        <time>2018-07-20T11:22:59Z</time>
      </trkpt>
      <trkpt lat="42.607763" lon="-8.265567">
        <ele>915.313</ele>
        <time>2018-07-20T11:23:19Z</time>
      </trkpt>
      <trkpt lat="42.607758" lon="-8.265850">
        <ele>918.547</ele>
        <time>2018-07-20T11:23:39Z</time>
      </trkpt>
      <trkpt lat="42.607605" lon="-8.266229">
        <ele>923.698</ele>
        <time>2018-07-20T11:23:59Z</time>
      </trkpt>
      <trkpt lat="42.607826" lon="-8.266571">
        <ele>921.426</ele>
        <time>2018-07-20T11:24:19Z</time>
      </trkpt>
      <trkpt lat="42.607816" lon="-8.266878">
        <ele>923.971</ele>
        <time>2018-07-20T11:24:39Z</time>
      </trkpt>
      <trkpt lat="42.607514" lon="-8.267015">
        <ele>926.532</ele>
        <time>2018-07-20T11:24:59Z</time>
      </trkpt>
      <trkpt lat="42.607161" lon="-8.267021">
        <ele>928.437</ele>
        <time>2018-07-20T11:25:19Z</time>
      </trkpt>
      <trkpt lat="42.606847" lon="-8.266929">
        <ele>931.518</ele>
        <time>2018-07-20T11:25:39Z</time>
      </trkpt>
      <trkpt lat="42.606599" lon="-8.266693">
        <ele>935.945</ele>
        <time>2018-07-20T11:25:59Z</time>
      </trkpt>
      <trkpt lat="42.606457" lon="-8.266465">
        <ele>938.747</ele>
        <time>2018-07-20T11:26:19Z</time>
      </trkpt>
      <trkpt lat="42.606177" lon="-8.266283">
        <ele>942.611</ele>
        <time>2018-07-20T11:26:39Z</time>
      </trkpt>
      <trkpt lat="42.605793" lon="-8.266030">
        <ele>947.108</ele>
        <time>2018-07-20T11:26:59Z</time>
      </trkpt>
      <trkpt lat="42.605518" lon="-8.265880">
        <ele>950.046</ele>
        <time>2018-07-20T11:27:19Z</time>
      </trkpt>
      <trkpt lat="42.605278" lon="-8.266064">
        <ele>953.850</ele>
        <time>2018-07-20T11:27:39Z</time>
      </trkpt>
      <trkpt lat="42.604917" lon="-8.266195">
        <ele>954.961</ele>
        <time>2018-07-20T11:27:59Z</time>
      </trkpt>
      <trkpt lat="42.604461" lon="-8.266295">
        <ele>957.949</ele>
        <time>2018-07-20T11:28:19Z</time>
      </trkpt>
      <trkpt lat="42.604002" lon="-8.266279">
        <ele>961.394</ele>
        <time>2018-07-20T11:28:39Z</time>
      </trkpt>
      <trkpt lat="42.603472" lon="-8.266238">
        <ele>968.555</ele>
        <time>2018-07-20T11:28:59Z</time>
      </trkpt>
      <trkpt lat="42.602987" lon="-8.266025">
        <ele>976.660</ele>
        <time>2018-07-20T11:29:19Z</time>
      </trkpt>
      <trkpt lat="42.602535" lon="-8.265798">
        <ele>980.711</ele>
        <time>2018-07-20T11:29:39Z</time>
      </trkpt>
      <trkpt lat="42.602297" lon="-8.265624">
        <ele>981.744</ele>
        <time>2018-07-20T11:29:59Z</time>
      </trkpt>
      <trkpt lat="42.601815" lon="-8.265367">
        <ele>982.805</ele>
        <time>2018-07-20T11:30:19Z</time>
      </trkpt>
      <trkpt lat="42.601582" lon="-8.265242">
        <ele>984.015</ele>
        <time>2018-07-20T11:30:39Z</time>
      </trkpt>
      <trkpt lat="42.601359" lon="-8.265242">
        <ele>984.508</ele>
        <time>2018-07-20T11:30:59Z</time>
      </trkpt>
      <trkpt lat="42.601155" lon="-8.265324">
        <ele>984.346</ele>
        <time>2018-07-20T11:31:19Z</time>
      </trkpt>
      <trkpt lat="42.600946" lon="-8.265384">
        <ele>983.850</ele>
        <time>2018-07-20T11:31:39Z</time>
      </trkpt>
      <trkpt lat="42.600674" lon="-8.265403">
        <ele>984.341</ele>
        <time>2018-07-20T11:31:59Z</time>
      </trkpt>
      <trkpt lat="42.600442" lon="-8.265363">
        <ele>985.739</ele>
        <time>2018-07-20T11:32:19Z</time>
      </trkpt>
      <trkpt lat="42.600137" lon="-8.265342">
        <ele>987.444</ele>
        <time>2018-07-20T11:32:39Z</time>
      </trkpt>
      <trkpt lat="42.599844" lon="-8.265302">
        <ele>987.935</ele>
        <time>2018-07-20T11:32:59Z</time>
      </trkpt>
      <trkpt lat="42.599620" lon="-8.265417">
        <ele>990.180</ele>
        <time>2018-07-20T11:33:19Z</time>
      </trkpt>
      <trkpt lat="42.599217" lon="-8.265528">
        <ele>991.111</ele>
        <time>2018-07-20T11:33:39Z</time>
      </trkpt>
      <trkpt lat="42.598669" lon="-8.265671">
        <ele>993.362</ele>
        <time>2018-07-20T11:33:59Z</time>
      </trkpt>
      <trkpt lat="42.598496" lon="-8.265875">
        <ele>992.283</ele>
        <time>2018-07-20T11:34:19Z</time>
      </trkpt>
      <trkpt lat="42.598553" lon="-8.266070">
        <ele>990.711</ele>
        <time>2018-07-20T11:34:39Z</time>
      </trkpt>
      <trkpt lat="42.598633" lon="-8.266372">
        <ele>987.408</ele>
        <time>2018-07-20T11:34:59Z</time>
      </trkpt>
      <trkpt lat="42.598749" lon="-8.266733">
        <ele>985.018</ele>
        <time>2018-07-20T11:35:19Z</time>
      </trkpt>
      <trkpt lat="42.598828" lon="-8.267166">
        <ele>980.932</ele>
        <time>2018-07-20T11:35:39Z</time>
      </trkpt>
      <trkpt lat="42.598869" lon="-8.267586">
        <ele>976.733</ele>
        <time>2018-07-20T11:35:59Z</time>
      </trkpt>
      <trkpt lat="42.598931" lon="-8.268027">
        <ele>973.741</ele>
        <time>2018-07-20T11:36:19Z</time>
      </trkpt>
      <trkpt lat="42.598988" lon="-8.268427">
        <ele>969.736</ele>
        <time>2018-07-20T11:36:39Z</time>
      </trkpt>
      <trkpt lat="42.599061" lon="-8.269045">
        <ele>963.747</ele>
        <time>2018-07-20T11:36:59Z</time>
      </trkpt>
      <trkpt lat="42.599085" lon="-8.269994">
        <ele>952.632</ele>
        <time>2018-07-20T11:37:19Z</time>
      </trkpt>
      <trkpt lat="42.599215" lon="-8.270732">
        <ele>943.553</ele>
        <time>2018-07-20T11:37:39Z</time>
      </trkpt>
      <trkpt lat="42.599383" lon="-8.271305">
        <ele>938.855</ele>
        <time>2018-07-20T11:37:59Z</time>
      </trkpt>
      <trkpt lat="42.599400" lon="-8.271968">
        <ele>932.507</ele>
        <time>2018-07-20T11:38:19Z</time>
      </trkpt>
      <trkpt lat="42.599321" lon="-8.272539">
        <ele>928.117</ele>
        <time>2018-07-20T11:38:39Z</time>
      </trkpt>
      <trkpt lat="42.599198" lon="-8.273195">
        <ele>917.708</ele>
        <time>2018-07-20T11:38:59Z</time>
      </trkpt>
      <trkpt lat="42.599116" lon="-8.273785">
        <ele>912.277</ele>
        <time>2018-07-20T11:39:19Z</time>
      </trkpt>
      <trkpt lat="42.598979" lon="-8.274700">
        <ele>901.381</ele>
        <time>2018-07-20T11:39:39Z</time>
      </trkpt>
      <trkpt lat="42.598755" lon="-8.275196">
        <ele>896.992</ele>
        <time>2018-07-20T11:39:59Z</time>
      </trkpt>
      <trkpt lat="42.598604" lon="-8.275677">
        <ele>892.750</ele>
        <time>2018-07-20T11:40:19Z</time>
      </trkpt>
      <trkpt lat="42.598414" lon="-8.275992">
        <ele>889.785</ele>
        <time>2018-07-20T11:40:39Z</time>
      </trkpt>
      <trkpt lat="42.598236" lon="-8.276456">
        <ele>884.966</ele>
        <time>2018-07-20T11:40:59Z</time>
      </trkpt>
      <trkpt lat="42.597994" lon="-8.276813">
        <ele>881.251</ele>
        <time>2018-07-20T11:41:19Z</time>
      </trkpt>
      <trkpt lat="42.597896" lon="-8.277283">
        <ele>879.122</ele>
        <time>2018-07-20T11:41:39Z</time>
      </trkpt>
      <trkpt lat="42.597731" lon="-8.277689">
        <ele>880.525</ele>
        <time>2018-07-20T11:41:59Z</time>
      </trkpt>
      <trkpt lat="42.597595" lon="-8.277964">
        <ele>882.426</ele>
        <time>2018-07-20T11:42:19Z</time>
      </trkpt>
      <trkpt lat="42.597573" lon="-8.278206">
        <ele>884.008</ele>
        <time>2018-07-20T11:42:39Z</time>
      </trkpt>
      <trkpt lat="42.597769" lon="-8.278676">
        <ele>888.708</ele>
        <time>2018-07-20T11:42:59Z</time>
      </trkpt>
      <trkpt lat="42.597935" lon="-8.278950">
        <ele>889.574</ele>
        <time>2018-07-20T11:43:19Z</time>
      </trkpt>
      <trkpt lat="42.597987" lon="-8.279347">
        <ele>889.178</ele>
        <time>2018-07-20T11:43:39Z</time>
      </trkpt>
      <trkpt lat="42.597934" lon="-8.279715">
        <ele>887.899</ele>
        <time>2018-07-20T11:43:59Z</time>
      </trkpt>
      <trkpt lat="42.597764" lon="-8.279971">
        <ele>888.517</ele>
        <time>2018-07-20T11:44:19Z</time>
      </trkpt>
      <trkpt lat="42.597433" lon="-8.280163">
        <ele>892.962</ele>
        <time>2018-07-20T11:44:39Z</time>
      </trkpt>
      <trkpt lat="42.597073" lon="-8.280220">
        <ele>896.733</ele>
        <time>2018-07-20T11:44:59Z</time>
      </trkpt>
      <trkpt lat="42.596723" lon="-8.280255">
        <ele>898.788</ele>
        <time>2018-07-20T11:45:19Z</time>
      </trkpt>
      <trkpt lat="42.596368" lon="-8.280367">
        <ele>900.529</ele>
        <time>2018-07-20T11:45:39Z</time>
      </trkpt>
      <trkpt lat="42.596124" lon="-8.280492">
        <ele>902.152</ele>
        <time>2018-07-20T11:45:59Z</time>
      </trkpt>
      <trkpt lat="42.595649" lon="-8.280718">
        <ele>900.253</ele>
        <time>2018-07-20T11:46:19Z</time>
      </trkpt>
      <trkpt lat="42.595424" lon="-8.281014">
        <ele>897.208</ele>
        <time>2018-07-20T11:46:39Z</time>
      </trkpt>
      <trkpt lat="42.595038" lon="-8.281424">
        <ele>895.808</ele>
        <time>2018-07-20T11:46:59Z</time>
      </trkpt>
      <trkpt lat="42.594865" lon="-8.281710">
        <ele>896.687</ele>
        <time>2018-07-20T11:47:19Z</time>
      </trkpt>
      <trkpt lat="42.594504" lon="-8.282099">
        <ele>896.181</ele>
        <time>2018-07-20T11:47:39Z</time>
      </trkpt>
      <trkpt lat="42.594301" lon="-8.282388">
        <ele>894.132</ele>
        <time>2018-07-20T11:47:59Z</time>
      </trkpt>
      <trkpt lat="42.593819" lon="-8.282423">
        <ele>892.330</ele>
        <time>2018-07-20T11:48:19Z</time>
      </trkpt>
      <trkpt lat="42.593270" lon="-8.282463">
        <ele>893.255</ele>
        <time>2018-07-20T11:48:39Z</time>
      </trkpt>
      <trkpt lat="42.592316" lon="-8.282541">
        <ele>887.446</ele>
        <time>2018-07-20T11:48:59Z</time>
      </trkpt>
      <trkpt lat="42.591762" lon="-8.282614">
        <ele>886.221</ele>
        <time>2018-07-20T11:49:19Z</time>
      </trkpt>
      <trkpt lat="42.591380" lon="-8.282732">
        <ele>885.932</ele>
        <time>2018-07-20T11:49:39Z</time>
      </trkpt>
      <trkpt lat="42.590981" lon="-8.282843">
        <ele>887.214</ele>
        <time>2018-07-20T11:49:59Z</time>
      </trkpt>
      <trkpt lat="42.590624" lon="-8.282742">
        <ele>888.854</ele>
        <time>2018-07-20T11:50:19Z</time>
      </trkpt>
      <trkpt lat="42.590582" lon="-8.282509">
        <ele>888.909</ele>
        <time>2018-07-20T11:50:39Z</time>
      </trkpt>
      <trkpt lat="42.590202" lon="-8.281958">
        <ele>889.508</ele>
        <time>2018-07-20T11:50:59Z</time>
      </trkpt>
      <trkpt lat="42.590058" lon="-8.281615">
        <ele>892.463</ele>
        <time>2018-07-20T11:51:19Z</time>
      </trkpt>
      <trkpt lat="42.589807" lon="-8.281351">
        <ele>893.847</ele>
        <time>2018-07-20T11:51:39Z</time>
      </trkpt>
      <trkpt lat="42.589549" lon="-8.281110">
        <ele>895.018</ele>
        <time>2018-07-20T11:51:59Z</time>
      </trkpt>
      <trkpt lat="42.589237" lon="-8.280894">
        <ele>896.276</ele>
        <time>2018-07-20T11:52:19Z</time>
      </trkpt>
      <trkpt lat="42.588885" lon="-8.280686">
        <ele>901.111</ele>
        <time>2018-07-20T11:52:39Z</time>
      </trkpt>
      <trkpt lat="42.588637" lon="-8.280639">
        <ele>902.622</ele>
        <time>2018-07-20T11:52:59Z</time>
      </trkpt>
      <trkpt lat="42.588406" lon="-8.280732">
        <ele>903.197</ele>
        <time>2018-07-20T11:53:19Z</time>
      </trkpt>
      <trkpt lat="42.588072" lon="-8.280825">
        <ele>904.958</ele>
        <time>2018-07-20T11:53:39Z</time>
      </trkpt>
      <trkpt lat="42.587668" lon="-8.280764">
        <ele>904.085</ele>
        <time>2018-07-20T11:53:59Z</time>
      </trkpt>
      <trkpt lat="42.587350" lon="-8.280671">
        <ele>901.489</ele>
        <time>2018-07-20T11:54:19Z</time>
      </trkpt>
      <trkpt lat="42.587108" lon="-8.280775">
        <ele>900.817</ele>
        <time>2018-07-20T11:54:39Z</time>
      </trkpt>
      <trkpt lat="42.586899" lon="-8.280909">
        <ele>900.608</ele>
        <time>2018-07-20T11:54:59Z</time>
      </trkpt>
      <trkpt lat="42.586369" lon="-8.281223">
        <ele>898.790</ele>
        <time>2018-07-20T11:55:19Z</time>
      </trkpt>
      <trkpt lat="42.585914" lon="-8.281424">
        <ele>901.894</ele>
        <time>2018-07-20T11:55:39Z</time>
      </trkpt>
      <trkpt lat="42.585521" lon="-8.281621">
        <ele>904.865</ele>
        <time>2018-07-20T11:55:59Z</time>
      </trkpt>
      <trkpt lat="42.585140" lon="-8.281813">
        <ele>906.083</ele>
        <time>2018-07-20T11:56:19Z</time>
      </trkpt>
      <trkpt lat="42.584910" lon="-8.281753">
        <ele>904.388</ele>
        <time>2018-07-20T11:56:39Z</time>
      </trkpt>
      <trkpt lat="42.584650" lon="-8.281609">
        <ele>901.029</ele>
        <time>2018-07-20T11:56:59Z</time>
      </trkpt>
      <trkpt lat="42.584306" lon="-8.281439">
        <ele>896.214</ele>
        <time>2018-07-20T11:57:19Z</time>
      </trkpt>
      <trkpt lat="42.584105" lon="-8.281273">
        <ele>892.495</ele>
        <time>2018-07-20T11:57:39Z</time>
      </trkpt>
      <trkpt lat="42.583864" lon="-8.281108">
        <ele>888.791</ele>
        <time>2018-07-20T11:57:59Z</time>
      </trkpt>
      <trkpt lat="42.583828" lon="-8.280917">
        <ele>887.881</ele>
        <time>2018-07-20T11:58:19Z</time>
      </trkpt>
      <trkpt lat="42.583701" lon="-8.280700">
        <ele>886.519</ele>
        <time>2018-07-20T11:58:39Z</time>
      </trkpt>
      <trkpt lat="42.583488" lon="-8.280513">
        <ele>883.908</ele>
        <time>2018-07-20T11:58:59Z</time>
      </trkpt>
      <trkpt lat="42.583109" lon="-8.280332">
        <ele>877.261</ele>
        <time>2018-07-20T11:59:19Z</time>
      </trkpt>
      <trkpt lat="42.582828" lon="-8.280126">
        <ele>873.035</ele>
        <time>2018-07-20T11:59:39Z</time>
      </trkpt>
      <trkpt lat="42.582501" lon="-8.279636">
        <ele>865.176</ele>
        <time>2018-07-20T11:59:59Z</time>
      </trkpt>
      <trkpt lat="42.582339" lon="-8.279347">
        <ele>861.584</ele>
        <time>2018-07-20T12:00:19Z</time>
      </trkpt>
      <trkpt lat="42.582073" lon="-8.279068">
        <ele>857.949</ele>
        <time>2018-07-20T12:00:39Z</time>
      </trkpt>
      <trkpt lat="42.581634" lon="-8.278955">
        <ele>853.180</ele>
        <time>2018-07-20T12:00:59Z</time>
      </trkpt>
      <trkpt lat="42.581303" lon="-8.279144">
        <ele>846.265</ele>
        <time>2018-07-20T12:01:19Z</time>
      </trkpt>
      <trkpt lat="42.581041" lon="-8.279324">
        <ele>842.116</ele>
        <time>2018-07-20T12:01:39Z</time>
      </trkpt>
      <trkpt lat="42.580660" lon="-8.279629">
        <ele>835.887</ele>
        <time>2018-07-20T12:01:59Z</time>
      </trkpt>
      <trkpt lat="42.580561" lon="-8.279954">
        <ele>833.242</ele>
        <time>2018-07-20T12:02:19Z</time>
      </trkpt>
      <trkpt lat="42.580399" lon="-8.280139">
        <ele>830.526</ele>
        <time>2018-07-20T12:02:39Z</time>
      </trkpt>
      <trkpt lat="42.580256" lon="-8.280243">
        <ele>828.808</ele>
        <time>2018-07-20T12:02:59Z</time>
      </trkpt>
      <trkpt lat="42.579914" lon="-8.280061">
        <ele>826.470</ele>
        <time>2018-07-20T12:03:19Z</time>
      </trkpt>
      <trkpt lat="42.579694" lon="-8.279780">
        <ele>824.744</ele>
        <time>2018-07-20T12:03:39Z</time>
      </trkpt>
      <trkpt lat="42.579348" lon="-8.279223">
        <ele>817.635</ele>
        <time>2018-07-20T12:03:59Z</time>
      </trkpt>
      <trkpt lat="42.579269" lon="-8.278923">
        <ele>816.283</ele>
        <time>2018-07-20T12:04:19Z</time>
      </trkpt>
      <trkpt lat="42.578889" lon="-8.278735">
        <ele>816.918</ele>
        <time>2018-07-20T12:04:39Z</time>
      </trkpt>
      <trkpt lat="42.578449" lon="-8.278730">
        <ele>820.639</ele>
        <time>2018-07-20T12:04:59Z</time>
      </trkpt>
      <trkpt lat="42.578125" lon="-8.278912">
        <ele>826.074</ele>
        <time>2018-07-20T12:05:19Z</time>
      </trkpt>
      <trkpt lat="42.577698" lon="-8.279243">
        <ele>833.715</ele>
        <time>2018-07-20T12:05:39Z</time>
      </trkpt>
      <trkpt lat="42.577107" lon="-8.279490">
        <ele>844.158</ele>
        <time>2018-07-20T12:05:59Z</time>
      </trkpt>
      <trkpt lat="42.576584" lon="-8.279602">
        <ele>854.252</ele>
        <time>2018-07-20T12:06:19Z</time>
      </trkpt>
      <trkpt lat="42.576099" lon="-8.279739">
        <ele>863.117</ele>
        <time>2018-07-20T12:06:39Z</time>
      </trkpt>
      <trkpt lat="42.575540" lon="-8.279843">
        <ele>866.908</ele>
        <time>2018-07-20T12:06:59Z</time>
      </trkpt>
      <trkpt lat="42.575298" lon="-8.279828">
        <ele>865.717</ele>
        <time>2018-07-20T12:07:19Z</time>
      </trkpt>
      <trkpt lat="42.575308" lon="-8.280025">
        <ele>865.271</ele>
        <time>2018-07-20T12:07:39Z</time>
      </trkpt>
      <trkpt lat="42.575421" lon="-8.280301">
        <ele>865.912</ele>
        <time>2018-07-20T12:07:59Z</time>
      </trkpt>
      <trkpt lat="42.575489" lon="-8.280538">
        <ele>865.640</ele>
        <time>2018-07-20T12:08:19Z</time>
      </trkpt>
      <trkpt lat="42.575536" lon="-8.280774">
        <ele>864.365</ele>
        <time>2018-07-20T12:08:39Z</time>
      </trkpt>
      <trkpt lat="42.575547" lon="-8.281061">
        <ele>861.516</ele>
        <time>2018-07-20T12:08:59Z</time>
      </trkpt>
      <trkpt lat="42.575560" lon="-8.281223">
        <ele>860.671</ele>
        <time>2018-07-20T12:09:19Z</time>
      </trkpt>
      <trkpt lat="42.575555" lon="-8.281509">
        <ele>859.662</ele>
        <time>2018-07-20T12:09:39Z</time>
      </trkpt>
      <trkpt lat="42.575543" lon="-8.281703">
        <ele>858.819</ele>
        <time>2018-07-20T12:09:59Z</time>
      </trkpt>
      <trkpt lat="42.575512" lon="-8.281948">
        <ele>858.009</ele>
        <time>2018-07-20T12:10:19Z</time>
      </trkpt>
      <trkpt lat="42.575525" lon="-8.282074">
        <ele>858.519</ele>
        <time>2018-07-20T12:10:39Z</time>
      </trkpt>
      <trkpt lat="42.575379" lon="-8.282100">
        <ele>858.908</ele>
        <time>2018-07-20T12:10:59Z</time>
      </trkpt>
      <trkpt lat="42.575174" lon="-8.282220">
        <ele>858.923</ele>
        <time>2018-07-20T12:11:19Z</time>
      </trkpt>
      <trkpt lat="42.575010" lon="-8.282295">
        <ele>857.467</ele>
        <time>2018-07-20T12:11:39Z</time>
      </trkpt>
      <trkpt lat="42.574901" lon="-8.282448">
        <ele>856.088</ele>
        <time>2018-07-20T12:11:59Z</time>
      </trkpt>
      <trkpt lat="42.574832" lon="-8.282658">
        <ele>855.526</ele>
        <time>2018-07-20T12:12:19Z</time>
      </trkpt>
      <trkpt lat="42.574779" lon="-8.282837">
        <ele>855.441</ele>
        <time>2018-07-20T12:12:39Z</time>
      </trkpt>
      <trkpt lat="42.574707" lon="-8.282959">
        <ele>855.022</ele>
        <time>2018-07-20T12:12:59Z</time>
      </trkpt>
      <trkpt lat="42.574633" lon="-8.283096">
        <ele>854.737</ele>
        <time>2018-07-20T12:13:19Z</time>
      </trkpt>
      <trkpt lat="42.574564" lon="-8.283231">
        <ele>854.858</ele>
        <time>2018-07-20T12:13:39Z</time>
      </trkpt>
      <trkpt lat="42.574456" lon="-8.283324">
        <ele>854.139</ele>
        <time>2018-07-20T12:13:59Z</time>
      </trkpt>
      <trkpt lat="42.574281" lon="-8.283417">
        <ele>853.101</ele>
        <time>2018-07-20T12:14:19Z</time>
      </trkpt>
      <trkpt lat="42.574144" lon="-8.283467">
        <ele>852.421</ele>
        <time>2018-07-20T12:14:39Z</time>
      </trkpt>
      <trkpt lat="42.573963" lon="-8.283473">
        <ele>851.808</ele>
        <time>2018-07-20T12:14:59Z</time>
      </trkpt>
      <trkpt lat="42.573830" lon="-8.283522">
        <ele>851.745</ele>
        <time>2018-07-20T12:15:19Z</time>
      </trkpt>
      <trkpt lat="42.573697" lon="-8.283603">
        <ele>852.029</ele>
        <time>2018-07-20T12:15:39Z</time>
      </trkpt>
      <trkpt lat="42.573364" lon="-8.283518">
        <ele>848.460</ele>
        <time>2018-07-20T12:15:59Z</time>
      </trkpt>
      <trkpt lat="42.572877" lon="-8.283299">
        <ele>844.548</ele>
        <time>2018-07-20T12:16:19Z</time>
      </trkpt>
      <trkpt lat="42.572506" lon="-8.283244">
        <ele>841.453</ele>
        <time>2018-07-20T12:16:39Z</time>
      </trkpt>
      <trkpt lat="42.572128" lon="-8.283158">
        <ele>838.044</ele>
        <time>2018-07-20T12:16:59Z</time>
      </trkpt>
      <trkpt lat="42.571812" lon="-8.283183">
        <ele>833.199</ele>
        <time>2018-07-20T12:17:19Z</time>
      </trkpt>
      <trkpt lat="42.571461" lon="-8.283260">
        <ele>827.840</ele>
        <time>2018-07-20T12:17:39Z</time>
      </trkpt>
      <trkpt lat="42.571130" lon="-8.283404">
        <ele>825.117</ele>
        <time>2018-07-20T12:17:59Z</time>
      </trkpt>
      <trkpt lat="42.570928" lon="-8.283561">
        <ele>823.087</ele>
        <time>2018-07-20T12:18:19Z</time>
      </trkpt>
      <trkpt lat="42.570756" lon="-8.283815">
        <ele>820.215</ele>
        <time>2018-07-20T12:18:39Z</time>
      </trkpt>
      <trkpt lat="42.570517" lon="-8.283910">
        <ele>816.808</ele>
        <time>2018-07-20T12:18:59Z</time>
      </trkpt>
      <trkpt lat="42.570204" lon="-8.283870">
        <ele>815.613</ele>
        <time>2018-07-20T12:19:19Z</time>
      </trkpt>
      <trkpt lat="42.569862" lon="-8.283671">
        <ele>816.137</ele>
        <time>2018-07-20T12:19:39Z</time>
      </trkpt>
      <trkpt lat="42.569469" lon="-8.283959">
        <ele>818.498</ele>
        <time>2018-07-20T12:19:59Z</time>
      </trkpt>
      <trkpt lat="42.568958" lon="-8.284163">
        <ele>821.826</ele>
        <time>2018-07-20T12:20:19Z</time>
      </trkpt>
      <trkpt lat="42.568638" lon="-8.284260">
        <ele>821.951</ele>
        <time>2018-07-20T12:20:39Z</time>
      </trkpt>
      <trkpt lat="42.568132" lon="-8.284019">
        <ele>828.262</ele>
        <time>2018-07-20T12:20:59Z</time>
      </trkpt>
      <trkpt lat="42.567689" lon="-8.283750">
        <ele>831.997</ele>
        <time>2018-07-20T12:21:19Z</time>
      </trkpt>
      <trkpt lat="42.567330" lon="-8.283560">
        <ele>831.018</ele>
        <time>2018-07-20T12:21:39Z</time>
      </trkpt>
      <trkpt lat="42.566948" lon="-8.283372">
        <ele>829.714</ele>
        <time>2018-07-20T12:21:59Z</time>
      </trkpt>
      <trkpt lat="42.566577" lon="-8.283293">
        <ele>829.454</ele>
        <time>2018-07-20T12:22:19Z</time>
      </trkpt>
      <trkpt lat="42.566144" lon="-8.283389">
        <ele>826.709</ele>
        <time>2018-07-20T12:22:39Z</time>
      </trkpt>
      <trkpt lat="42.565703" lon="-8.283551">
        <ele>826.008</ele>
        <time>2018-07-20T12:22:59Z</time>
      </trkpt>
      <trkpt lat="42.565164" lon="-8.283707">
        <ele>824.533</ele>
        <time>2018-07-20T12:23:19Z</time>
      </trkpt>
      <trkpt lat="42.564921" lon="-8.284006">
        <ele>824.097</ele>
        <time>2018-07-20T12:23:39Z</time>
      </trkpt>
      <trkpt lat="42.564646" lon="-8.284334">
        <ele>825.458</ele>
        <time>2018-07-20T12:23:59Z</time>
      </trkpt>
      <trkpt lat="42.564515" lon="-8.284565">
        <ele>824.436</ele>
        <time>2018-07-20T12:24:19Z</time>
      </trkpt>
      <trkpt lat="42.564158" lon="-8.284547">
        <ele>826.121</ele>
        <time>2018-07-20T12:24:39Z</time>
      </trkpt>
      <trkpt lat="42.563790" lon="-8.284394">
        <ele>824.722</ele>
        <time>2018-07-20T12:24:59Z</time>
      </trkpt>
      <trkpt lat="42.563131" lon="-8.284231">
        <ele>827.527</ele>
        <time>2018-07-20T12:25:19Z</time>
      </trkpt>
      <trkpt lat="42.562556" lon="-8.283946">
        <ele>827.238</ele>
        <time>2018-07-20T12:25:39Z</time>
      </trkpt>
      <trkpt lat="42.562150" lon="-8.283578">
        <ele>826.127</ele>
        <time>2018-07-20T12:25:59Z</time>
      </trkpt>
      <trkpt lat="42.561884" lon="-8.283221">
        <ele>823.668</ele>
        <time>2018-07-20T12:26:19Z</time>
      </trkpt>
      <trkpt lat="42.561514" lon="-8.282612">
        <ele>820.114</ele>
        <time>2018-07-20T12:26:39Z</time>
      </trkpt>
      <trkpt lat="42.561087" lon="-8.282107">
        <ele>814.508</ele>
        <time>2018-07-20T12:26:59Z</time>
      </trkpt>
      <trkpt lat="42.560861" lon="-8.281578">
        <ele>810.534</ele>
        <time>2018-07-20T12:27:19Z</time>
      </trkpt>
      <trkpt lat="42.560564" lon="-8.281117">
        <ele>808.048</ele>
        <time>2018-07-20T12:27:39Z</time>
      </trkpt>
      <trkpt lat="42.560113" lon="-8.280454">
        <ele>805.219</ele>
        <time>2018-07-20T12:27:59Z</time>
      </trkpt>
      <trkpt lat="42.559696" lon="-8.280016">
        <ele>806.297</ele>
        <time>2018-07-20T12:28:19Z</time>
      </trkpt>
      <trkpt lat="42.559501" lon="-8.279785">
        <ele>808.492</ele>
        <time>2018-07-20T12:28:39Z</time>
      </trkpt>
      <trkpt lat="42.559274" lon="-8.279738">
        <ele>810.773</ele>
        <time>2018-07-20T12:28:59Z</time>
      </trkpt>
      <trkpt lat="42.558926" lon="-8.279760">
        <ele>814.358</ele>
        <time>2018-07-20T12:29:19Z</time>
      </trkpt>
      <trkpt lat="42.558392" lon="-8.279940">
        <ele>810.299</ele>
        <time>2018-07-20T12:29:39Z</time>
      </trkpt>
      <trkpt lat="42.558039" lon="-8.279959">
        <ele>808.669</ele>
        <time>2018-07-20T12:29:59Z</time>
      </trkpt>
      <trkpt lat="42.557591" lon="-8.279869">
        <ele>808.104</ele>
        <time>2018-07-20T12:30:19Z</time>
      </trkpt>
      <trkpt lat="42.557155" lon="-8.279808">
        <ele>806.824</ele>
        <time>2018-07-20T12:30:39Z</time>
      </trkpt>
      <trkpt lat="42.556593" lon="-8.279757">
        <ele>803.708</ele>
        <time>2018-07-20T12:30:59Z</time>
      </trkpt>
      <trkpt lat="42.556174" lon="-8.279699">
        <ele>800.118</ele>
        <time>2018-07-20T12:31:19Z</time>
      </trkpt>
      <trkpt lat="42.555712" lon="-8.279782">
        <ele>798.182</ele>
        <time>2018-07-20T12:31:39Z</time>
      </trkpt>
      <trkpt lat="42.555317" lon="-8.279967">
        <ele>793.783</ele>
        <time>2018-07-20T12:31:59Z</time>
      </trkpt>
      <trkpt lat="42.555044" lon="-8.280171">
        <ele>788.511</ele>
        <time>2018-07-20T12:32:19Z</time>
      </trkpt>
      <trkpt lat="42.554600" lon="-8.280354">
        <ele>783.326</ele>
        <time>2018-07-20T12:32:39Z</time>
      </trkpt>
      <trkpt lat="42.554240" lon="-8.280450">
        <ele>782.157</ele>
        <time>2018-07-20T12:32:59Z</time>
      </trkpt>
      <trkpt lat="42.553835" lon="-8.280441">
        <ele>777.182</ele>
        <time>2018-07-20T12:33:19Z</time>
      </trkpt>
      <trkpt lat="42.553481" lon="-8.280300">
        <ele>770.683</ele>
        <time>2018-07-20T12:33:39Z</time>
      </trkpt>
      <trkpt lat="42.553188" lon="-8.280081">
        <ele>766.477</ele>
        <time>2018-07-20T12:33:59Z</time>
      </trkpt>
      <trkpt lat="42.552885" lon="-8.279916">
        <ele>761.061</ele>
        <time>2018-07-20T12:34:19Z</time>
      </trkpt>
      <trkpt lat="42.552539" lon="-8.279885">
        <ele>757.027</ele>
        <time>2018-07-20T12:34:39Z</time>
      </trkpt>
      <trkpt lat="42.552238" lon="-8.279978">
        <ele>756.008</ele>
        <time>2018-07-20T12:34:59Z</time>
      </trkpt>
      <trkpt lat="42.552090" lon="-8.280237">
        <ele>751.079</ele>
        <time>2018-07-20T12:35:19Z</time>
      </trkpt>
      <trkpt lat="42.552054" lon="-8.280639">
        <ele>745.423</ele>
        <time>2018-07-20T12:35:39Z</time>
      </trkpt>
      <trkpt lat="42.552070" lon="-8.281065">
        <ele>739.254</ele>
        <time>2018-07-20T12:35:59Z</time>
      </trkpt>
      <trkpt lat="42.551927" lon="-8.281470">
        <ele>734.692</ele>
        <time>2018-07-20T12:36:19Z</time>
      </trkpt>
      <trkpt lat="42.551881" lon="-8.281712">
        <ele>730.697</ele>
        <time>2018-07-20T12:36:39Z</time>
      </trkpt>
      <trkpt lat="42.551760" lon="-8.282033">
        <ele>724.038</ele>
        <time>2018-07-20T12:36:59Z</time>
      </trkpt>
      <trkpt lat="42.551596" lon="-8.282260">
        <ele>719.093</ele>
        <time>2018-07-20T12:37:19Z</time>
      </trkpt>
      <trkpt lat="42.551407" lon="-8.282345">
        <ele>719.294</ele>
        <time>2018-07-20T12:37:39Z</time>
      </trkpt>
      <trkpt lat="42.551161" lon="-8.282130">
        <ele>723.469</ele>
        <time>2018-07-20T12:37:59Z</time>
      </trkpt>
      <trkpt lat="42.550864" lon="-8.281969">
        <ele>724.004</ele>
        <time>2018-07-20T12:38:19Z</time>
      </trkpt>
      <trkpt lat="42.550546" lon="-8.281605">
        <ele>726.624</ele>
        <time>2018-07-20T12:38:39Z</time>
      </trkpt>
      <trkpt lat="42.550287" lon="-8.281334">
        <ele>728.008</ele>
        <time>2018-07-20T12:38:59Z</time>
      </trkpt>
      <trkpt lat="42.550249" lon="-8.281111">
        <ele>727.548</ele>
        <time>2018-07-20T12:39:19Z</time>
      </trkpt>
      <trkpt lat="42.550138" lon="-8.280895">
        <ele>724.372</ele>
        <time>2018-07-20T12:39:39Z</time>
      </trkpt>
      <trkpt lat="42.550345" lon="-8.280617">
        <ele>725.613</ele>
        <time>2018-07-20T12:39:59Z</time>
      </trkpt>
      <trkpt lat="42.550587" lon="-8.280423">
        <ele>727.461</ele>
        <time>2018-07-20T12:40:19Z</time>
      </trkpt>
      <trkpt lat="42.550627" lon="-8.280181">
        <ele>726.666</ele>
        <time>2018-07-20T12:40:39Z</time>
      </trkpt>
      <trkpt lat="42.550431" lon="-8.279956">
        <ele>723.747</ele>
        <time>2018-07-20T12:40:59Z</time>
      </trkpt>
      <trkpt lat="42.550255" lon="-8.279957">
        <ele>721.112</ele>
        <time>2018-07-20T12:41:19Z</time>
      </trkpt>
      <trkpt lat="42.550086" lon="-8.279755">
        <ele>720.953</ele>
        <time>2018-07-20T12:41:39Z</time>
      </trkpt>
      <trkpt lat="42.549998" lon="-8.279567">
        <ele>722.839</ele>
        <time>2018-07-20T12:41:59Z</time>
      </trkpt>
      <trkpt lat="42.549934" lon="-8.279398">
        <ele>725.401</ele>
        <time>2018-07-20T12:42:19Z</time>
      </trkpt>
      <trkpt lat="42.549897" lon="-8.279162">
        <ele>729.721</ele>
        <time>2018-07-20T12:42:39Z</time>
      </trkpt>
      <trkpt lat="42.549709" lon="-8.279064">
        <ele>731.208</ele>
        <time>2018-07-20T12:42:59Z</time>
      </trkpt>
      <trkpt lat="42.549248" lon="-8.279003">
        <ele>735.175</ele>
        <time>2018-07-20T12:43:19Z</time>
      </trkpt>
      <trkpt lat="42.548606" lon="-8.279072">
        <ele>737.069</ele>
        <time>2018-07-20T12:43:39Z</time>
      </trkpt>
      <trkpt lat="42.548024" lon="-8.279121">
        <ele>735.950</ele>
        <time>2018-07-20T12:43:59Z</time>
      </trkpt>
      <trkpt lat="42.547596" lon="-8.279103">
        <ele>738.358</ele>
        <time>2018-07-20T12:44:19Z</time>
      </trkpt>
      <trkpt lat="42.547333" lon="-8.279077">
        <ele>743.723</ele>
        <time>2018-07-20T12:44:39Z</time>
      </trkpt>
      <trkpt lat="42.546921" lon="-8.279164">
        <ele>752.344</ele>
        <time>2018-07-20T12:44:59Z</time>
      </trkpt>
      <trkpt lat="42.546690" lon="-8.279295">
        <ele>752.949</ele>
        <time>2018-07-20T12:45:19Z</time>
      </trkpt>
      <trkpt lat="42.546389" lon="-8.279558">
        <ele>751.430</ele>
        <time>2018-07-20T12:45:39Z</time>
      </trkpt>
      <trkpt lat="42.546210" lon="-8.279768">
        <ele>750.177</ele>
        <time>2018-07-20T12:45:59Z</time>
      </trkpt>
      <trkpt lat="42.546128" lon="-8.280034">
        <ele>745.261</ele>
        <time>2018-07-20T12:46:19Z</time>
      </trkpt>
      <trkpt lat="42.546061" lon="-8.280392">
        <ele>737.527</ele>
        <time>2018-07-20T12:46:39Z</time>
      </trkpt>
      <trkpt lat="42.546048" lon="-8.280721">
        <ele>733.108</ele>
        <time>2018-07-20T12:46:59Z</time>
      </trkpt>
      <trkpt lat="42.546018" lon="-8.281153">
        <ele>727.679</ele>
        <time>2018-07-20T12:47:19Z</time>
      </trkpt>
      <trkpt lat="42.545924" lon="-8.281535">
        <ele>721.443</ele>
        <time>2018-07-20T12:47:39Z</time>
      </trkpt>
      <trkpt lat="42.545939" lon="-8.281863">
        <ele>717.854</ele>
        <time>2018-07-20T12:47:59Z</time>
      </trkpt>
      <trkpt lat="42.545870" lon="-8.282241">
        <ele>714.062</ele>
        <time>2018-07-20T12:48:19Z</time>
      </trkpt>
      <trkpt lat="42.545777" lon="-8.282366">
        <ele>711.977</ele>
        <time>2018-07-20T12:48:39Z</time>
      </trkpt>
      <trkpt lat="42.545545" lon="-8.282463">
        <ele>706.458</ele>
        <time>2018-07-20T12:48:59Z</time>
      </trkpt>
      <trkpt lat="42.545206" lon="-8.282662">
        <ele>701.573</ele>
        <time>2018-07-20T12:49:19Z</time>
      </trkpt>
      <trkpt lat="42.544875" lon="-8.282787">
        <ele>703.254</ele>
        <time>2018-07-20T12:49:39Z</time>
      </trkpt>
      <trkpt lat="42.543150" lon="-8.282361">
        <ele>746.391</ele>
        <time>2018-07-20T12:49:59Z</time>
      </trkpt>
      <trkpt lat="42.541872" lon="-8.281875">
        <ele>760.381</ele>
        <time>2018-07-20T12:50:19Z</time>
      </trkpt>
      <trkpt lat="42.540981" lon="-8.281445">
        <ele>760.219</ele>
        <time>2018-07-20T12:50:39Z</time>
      </trkpt>
      <trkpt lat="42.539491" lon="-8.281197">
        <ele>752.608</ele>
        <time>2018-07-20T12:50:59Z</time>
      </trkpt>
      <trkpt lat="42.537711" lon="-8.280867">
        <ele>778.071</ele>
        <time>2018-07-20T12:51:19Z</time>
      </trkpt>
      <trkpt lat="42.537106" lon="-8.280577">
        <ele>792.645</ele>
        <time>2018-07-20T12:51:39Z</time>
      </trkpt>
      <trkpt lat="42.536641" lon="-8.280555">
        <ele>796.196</ele>
        <time>2018-07-20T12:51:59Z</time>
      </trkpt>
      <trkpt lat="42.536342" lon="-8.280928">
        <ele>793.854</ele>
        <time>2018-07-20T12:52:19Z</time>
      </trkpt>
      <trkpt lat="42.535923" lon="-8.281115">
        <ele>791.679</ele>
        <time>2018-07-20T12:52:39Z</time>
      </trkpt>
      <trkpt lat="42.535309" lon="-8.281087">
        <ele>791.310</ele>
        <time>2018-07-20T12:52:59Z</time>
      </trkpt>
      <trkpt lat="42.534634" lon="-8.281074">
        <ele>791.475</ele>
        <time>2018-07-20T12:53:19Z</time>
      </trkpt>
      <trkpt lat="42.533660" lon="-8.281018">
        <ele>793.966</ele>
        <time>2018-07-20T12:53:39Z</time>
      </trkpt>
      <trkpt lat="42.532947" lon="-8.280866">
        <ele>792.989</ele>
        <time>2018-07-20T12:53:59Z</time>
      </trkpt>
      <trkpt lat="42.532290" lon="-8.280641">
        <ele>792.006</ele>
        <time>2018-07-20T12:54:19Z</time>
      </trkpt>
      <trkpt lat="42.531358" lon="-8.280584">
        <ele>792.326</ele>
        <time>2018-07-20T12:54:39Z</time>
      </trkpt>
      <trkpt lat="42.530815" lon="-8.280696">
        <ele>790.008</ele>
        <time>2018-07-20T12:54:59Z</time>
      </trkpt>
      <trkpt lat="42.530377" lon="-8.280718">
        <ele>788.650</ele>
        <time>2018-07-20T12:55:19Z</time>
      </trkpt>
      <trkpt lat="42.529557" lon="-8.280506">
        <ele>792.844</ele>
        <time>2018-07-20T12:55:39Z</time>
      </trkpt>
      <trkpt lat="42.528664" lon="-8.280261">
        <ele>799.085</ele>
        <time>2018-07-20T12:55:59Z</time>
      </trkpt>
      <trkpt lat="42.527782" lon="-8.280137">
        <ele>806.583</ele>
        <time>2018-07-20T12:56:19Z</time>
      </trkpt>
      <trkpt lat="42.527188" lon="-8.280041">
        <ele>811.658</ele>
        <time>2018-07-20T12:56:39Z</time>
      </trkpt>
      <trkpt lat="42.526381" lon="-8.280127">
        <ele>816.299</ele>
        <time>2018-07-20T12:56:59Z</time>
      </trkpt>
      <trkpt lat="42.525759" lon="-8.280511">
        <ele>808.084</ele>
        <time>2018-07-20T12:57:19Z</time>
      </trkpt>
      <trkpt lat="42.525411" lon="-8.280773">
        <ele>800.695</ele>
        <time>2018-07-20T12:57:39Z</time>
      </trkpt>
      <trkpt lat="42.524986" lon="-8.280991">
        <ele>789.235</ele>
        <time>2018-07-20T12:57:59Z</time>
      </trkpt>
      <trkpt lat="42.524593" lon="-8.280894">
        <ele>787.486</ele>
        <time>2018-07-20T12:58:19Z</time>
      </trkpt>
      <trkpt lat="42.523992" lon="-8.280725">
        <ele>802.714</ele>
        <time>2018-07-20T12:58:39Z</time>
      </trkpt>
      <trkpt lat="42.523737" lon="-8.280443">
        <ele>813.808</ele>
        <time>2018-07-20T12:58:59Z</time>
      </trkpt>
      <trkpt lat="42.523477" lon="-8.280698">
        <ele>814.665</ele>
        <time>2018-07-20T12:59:19Z</time>
      </trkpt>
      <trkpt lat="42.522764" lon="-8.280971">
        <ele>814.279</ele>
        <time>2018-07-20T12:59:39Z</time>
      </trkpt>
      <trkpt lat="42.522230" lon="-8.281058">
        <ele>814.730</ele>
        <time>2018-07-20T12:59:59Z</time>
      </trkpt>
      <trkpt lat="42.521834" lon="-8.281103">
        <ele>810.588</ele>
        <time>2018-07-20T13:00:19Z</time>
      </trkpt>
      <trkpt lat="42.521382" lon="-8.281200">
        <ele>807.753</ele>
        <time>2018-07-20T13:00:39Z</time>
      </trkpt>
      <trkpt lat="42.520929" lon="-8.281384">
        <ele>802.564</ele>
        <time>2018-07-20T13:00:59Z</time>
      </trkpt>
      <trkpt lat="42.520489" lon="-8.281629">
        <ele>798.819</ele>
        <time>2018-07-20T13:01:19Z</time>
      </trkpt>
      <trkpt lat="42.520198" lon="-8.282009">
        <ele>794.040</ele>
        <time>2018-07-20T13:01:39Z</time>
      </trkpt>
      <trkpt lat="42.519900" lon="-8.282410">
        <ele>790.755</ele>
        <time>2018-07-20T13:01:59Z</time>
      </trkpt>
      <trkpt lat="42.519656" lon="-8.282733">
        <ele>787.507</ele>
        <time>2018-07-20T13:02:19Z</time>
      </trkpt>
      <trkpt lat="42.519441" lon="-8.283045">
        <ele>786.017</ele>
        <time>2018-07-20T13:02:39Z</time>
      </trkpt>
      <trkpt lat="42.519296" lon="-8.283259">
        <ele>783.508</ele>
        <time>2018-07-20T13:02:59Z</time>
      </trkpt>
      <trkpt lat="42.519227" lon="-8.283481">
        <ele>781.927</ele>
        <time>2018-07-20T13:03:19Z</time>
      </trkpt>
      <trkpt lat="42.519163" lon="-8.283806">
        <ele>780.241</ele>
        <time>2018-07-20T13:03:39Z</time>
      </trkpt>
      <trkpt lat="42.519141" lon="-8.284208">
        <ele>778.532</ele>
        <time>2018-07-20T13:03:59Z</time>
      </trkpt>
      <trkpt lat="42.519109" lon="-8.284821">
        <ele>773.420</ele>
        <time>2018-07-20T13:04:19Z</time>
      </trkpt>
      <trkpt lat="42.519194" lon="-8.285234">
        <ele>770.195</ele>
        <time>2018-07-20T13:04:39Z</time>
      </trkpt>
      <trkpt lat="42.519327" lon="-8.285688">
        <ele>768.226</ele>
        <time>2018-07-20T13:04:59Z</time>
      </trkpt>
      <trkpt lat="42.519755" lon="-8.286082">
        <ele>763.621</ele>
        <time>2018-07-20T13:05:19Z</time>
      </trkpt>
      <trkpt lat="42.520207" lon="-8.286378">
        <ele>762.172</ele>
        <time>2018-07-20T13:05:39Z</time>
      </trkpt>
      <trkpt lat="42.520274" lon="-8.286572">
        <ele>762.742</ele>
        <time>2018-07-20T13:05:59Z</time>
      </trkpt>
      <trkpt lat="42.520153" lon="-8.286798">
        <ele>762.822</ele>
        <time>2018-07-20T13:06:19Z</time>
      </trkpt>
      <trkpt lat="42.519976" lon="-8.286916">
        <ele>761.014</ele>
        <time>2018-07-20T13:06:39Z</time>
      </trkpt>
      <trkpt lat="42.519797" lon="-8.286858">
        <ele>760.208</ele>
        <time>2018-07-20T13:06:59Z</time>
      </trkpt>
      <trkpt lat="42.519600" lon="-8.286652">
        <ele>760.776</ele>
        <time>2018-07-20T13:07:19Z</time>
      </trkpt>
      <trkpt lat="42.519411" lon="-8.286511">
        <ele>761.470</ele>
        <time>2018-07-20T13:07:39Z</time>
      </trkpt>
      <trkpt lat="42.519146" lon="-8.286399">
        <ele>760.681</ele>
        <time>2018-07-20T13:07:59Z</time>
      </trkpt>
      <trkpt lat="42.518877" lon="-8.286290">
        <ele>759.429</ele>
        <time>2018-07-20T13:08:19Z</time>
      </trkpt>
      <trkpt lat="42.518594" lon="-8.286143">
        <ele>759.634</ele>
        <time>2018-07-20T13:08:39Z</time>
      </trkpt>
      <trkpt lat="42.518357" lon="-8.285912">
        <ele>761.295</ele>
        <time>2018-07-20T13:08:59Z</time>
      </trkpt>
      <trkpt lat="42.518176" lon="-8.285824">
        <ele>763.730</ele>
        <time>2018-07-20T13:09:19Z</time>
      </trkpt>
      <trkpt lat="42.518006" lon="-8.286003">
        <ele>765.281</ele>
        <time>2018-07-20T13:09:39Z</time>
      </trkpt>
      <trkpt lat="42.517988" lon="-8.286311">
        <ele>764.859</ele>
        <time>2018-07-20T13:09:59Z</time>
      </trkpt>
      <trkpt lat="42.518020" lon="-8.286697">
        <ele>766.503</ele>
        <time>2018-07-20T13:10:19Z</time>
      </trkpt>
      <trkpt lat="42.518164" lon="-8.286956">
        <ele>765.523</ele>
        <time>2018-07-20T13:10:39Z</time>
      </trkpt>
      <trkpt lat="42.518393" lon="-8.287028">
        <ele>762.508</ele>
        <time>2018-07-20T13:10:59Z</time>
      </trkpt>
      <trkpt lat="42.518683" lon="-8.286951">
        <ele>759.617</ele>
        <time>2018-07-20T13:11:19Z</time>
      </trkpt>
      <trkpt lat="42.518866" lon="-8.287048">
        <ele>759.351</ele>
        <time>2018-07-20T13:11:39Z</time>
      </trkpt>
      <trkpt lat="42.519084" lon="-8.287250">
        <ele>756.932</ele>
        <time>2018-07-20T13:11:59Z</time>
      </trkpt>
      <trkpt lat="42.519196" lon="-8.287480">
        <ele>755.540</ele>
        <time>2018-07-20T13:12:19Z</time>
      </trkpt>
      <trkpt lat="42.519289" lon="-8.287691">
        <ele>754.485</ele>
        <time>2018-07-20T13:12:39Z</time>
      </trkpt>
      <trkpt lat="42.519481" lon="-8.287967">
        <ele>751.196</ele>
        <time>2018-07-20T13:12:59Z</time>
      </trkpt>
      <trkpt lat="42.519634" lon="-8.288248">
        <ele>750.281</ele>
        <time>2018-07-20T13:13:19Z</time>
      </trkpt>
      <trkpt lat="42.519819" lon="-8.288575">
        <ele>748.052</ele>
        <time>2018-07-20T13:13:39Z</time>
      </trkpt>
      <trkpt lat="42.519971" lon="-8.288884">
        <ele>743.076</ele>
        <time>2018-07-20T13:13:59Z</time>
      </trkpt>
      <trkpt lat="42.519998" lon="-8.289237">
        <ele>742.190</ele>
        <time>2018-07-20T13:14:19Z</time>
      </trkpt>
      <trkpt lat="42.520114" lon="-8.289793">
        <ele>743.019</ele>
        <time>2018-07-20T13:14:39Z</time>
      </trkpt>
      <trkpt lat="42.520281" lon="-8.290003">
        <ele>741.008</ele>
        <time>2018-07-20T13:14:59Z</time>
      </trkpt>
      <trkpt lat="42.520439" lon="-8.290235">
        <ele>742.289</ele>
        <time>2018-07-20T13:15:19Z</time>
      </trkpt>
      <trkpt lat="42.520880" lon="-8.290513">
        <ele>737.153</ele>
        <time>2018-07-20T13:15:39Z</time>
      </trkpt>
      <trkpt lat="42.521194" lon="-8.290696">
        <ele>732.244</ele>
        <time>2018-07-20T13:15:59Z</time>
      </trkpt>
      <trkpt lat="42.521257" lon="-8.290931">
        <ele>732.792</ele>
        <time>2018-07-20T13:16:19Z</time>
      </trkpt>
      <trkpt lat="42.521295" lon="-8.291303">
        <ele>731.497</ele>
        <time>2018-07-20T13:16:39Z</time>
      </trkpt>
      <trkpt lat="42.521191" lon="-8.291660">
        <ele>732.078</ele>
        <time>2018-07-20T13:16:59Z</time>
      </trkpt>
      <trkpt lat="42.521076" lon="-8.291921">
        <ele>733.143</ele>
        <time>2018-07-20T13:17:19Z</time>
      </trkpt>
      <trkpt lat="42.520966" lon="-8.292205">
        <ele>732.864</ele>
        <time>2018-07-20T13:17:39Z</time>
      </trkpt>
      <trkpt lat="42.520785" lon="-8.292588">
        <ele>733.467</ele>
        <time>2018-07-20T13:17:59Z</time>
      </trkpt>
      <trkpt lat="42.520429" lon="-8.293117">
        <ele>737.181</ele>
        <time>2018-07-20T13:18:19Z</time>
      </trkpt>
      <trkpt lat="42.520226" lon="-8.293417">
        <ele>738.319</ele>
        <time>2018-07-20T13:18:39Z</time>
      </trkpt>
      <trkpt lat="42.519763" lon="-8.293925">
        <ele>741.908</ele>
        <time>2018-07-20T13:18:59Z</time>
      </trkpt>
      <trkpt lat="42.519366" lon="-8.294382">
        <ele>742.148</ele>
        <time>2018-07-20T13:19:19Z</time>
      </trkpt>
      <trkpt lat="42.518826" lon="-8.294688">
        <ele>742.762</ele>
        <time>2018-07-20T13:19:39Z</time>
      </trkpt>
      <trkpt lat="42.518253" lon="-8.294895">
        <ele>740.993</ele>
        <time>2018-07-20T13:19:59Z</time>
      </trkpt>
      <trkpt lat="42.517356" lon="-8.294990">
        <ele>743.211</ele>
        <time>2018-07-20T13:20:19Z</time>
      </trkpt>
      <trkpt lat="42.516604" lon="-8.294773">
        <ele>747.216</ele>
        <time>2018-07-20T13:20:39Z</time>
      </trkpt>
      <trkpt lat="42.516159" lon="-8.294395">
        <ele>752.267</ele>
        <time>2018-07-20T13:20:59Z</time>
      </trkpt>
      <trkpt lat="42.515597" lon="-8.294284">
        <ele>756.692</ele>
        <time>2018-07-20T13:21:19Z</time>
      </trkpt>
      <trkpt lat="42.514622" lon="-8.293984">
        <ele>763.753</ele>
        <time>2018-07-20T13:21:39Z</time>
      </trkpt>
      <trkpt lat="42.514188" lon="-8.293797">
        <ele>767.788</ele>
        <time>2018-07-20T13:21:59Z</time>
      </trkpt>
      <trkpt lat="42.513691" lon="-8.293697">
        <ele>769.324</ele>
        <time>2018-07-20T13:22:19Z</time>
      </trkpt>
      <trkpt lat="42.513411" lon="-8.293773">
        <ele>768.726</ele>
        <time>2018-07-20T13:22:39Z</time>
      </trkpt>
      <trkpt lat="42.513314" lon="-8.294109">
        <ele>770.808</ele>
        <time>2018-07-20T13:22:59Z</time>
      </trkpt>
      <trkpt lat="42.513603" lon="-8.294544">
        <ele>769.610</ele>
        <time>2018-07-20T13:23:19Z</time>
      </trkpt>
      <trkpt lat="42.513902" lon="-8.294900">
        <ele>770.924</ele>
        <time>2018-07-20T13:23:39Z</time>
      </trkpt>
      <trkpt lat="42.514075" lon="-8.295380">
        <ele>773.675</ele>
        <time>2018-07-20T13:23:59Z</time>
      </trkpt>
      <trkpt lat="42.514354" lon="-8.295571">
        <ele>763.783</ele>
        <time>2018-07-20T13:24:19Z</time>
      </trkpt>
      <trkpt lat="42.514274" lon="-8.295866">
        <ele>768.088</ele>
        <time>2018-07-20T13:24:39Z</time>
      </trkpt>
      <trkpt lat="42.514131" lon="-8.296372">
        <ele>767.719</ele>
        <time>2018-07-20T13:24:59Z</time>
      </trkpt>
      <trkpt lat="42.514008" lon="-8.296621">
        <ele>766.754</ele>
        <time>2018-07-20T13:25:19Z</time>
      </trkpt>
      <trkpt lat="42.513724" lon="-8.296640">
        <ele>769.215</ele>
        <time>2018-07-20T13:25:39Z</time>
      </trkpt>
      <trkpt lat="42.513259" lon="-8.296645">
        <ele>770.622</ele>
        <time>2018-07-20T13:25:59Z</time>
      </trkpt>
      <trkpt lat="42.512750" lon="-8.296603">
        <ele>773.662</ele>
        <time>2018-07-20T13:26:19Z</time>
      </trkpt>
      <trkpt lat="42.512331" lon="-8.296485">
        <ele>776.008</ele>
        <time>2018-07-20T13:26:39Z</time>
      </trkpt>
      <trkpt lat="42.511919" lon="-8.296368">
        <ele>779.408</ele>
        <time>2018-07-20T13:26:59Z</time>
      </trkpt>
      <trkpt lat="42.511576" lon="-8.295969">
        <ele>783.214</ele>
        <time>2018-07-20T13:27:19Z</time>
      </trkpt>
      <trkpt lat="42.511196" lon="-8.295576">
        <ele>783.728</ele>
        <time>2018-07-20T13:27:39Z</time>
      </trkpt>
      <trkpt lat="42.510881" lon="-8.295271">
        <ele>783.299</ele>
        <time>2018-07-20T13:27:59Z</time>
      </trkpt>
      <trkpt lat="42.510603" lon="-8.294850">
        <ele>788.017</ele>
        <time>2018-07-20T13:28:19Z</time>
      </trkpt>
      <trkpt lat="42.510266" lon="-8.294714">
        <ele>787.282</ele>
        <time>2018-07-20T13:28:39Z</time>
      </trkpt>
      <trkpt lat="42.509981" lon="-8.294740">
        <ele>786.993</ele>
        <time>2018-07-20T13:28:59Z</time>
      </trkpt>
      <trkpt lat="42.509736" lon="-8.294886">
        <ele>787.538</ele>
        <time>2018-07-20T13:29:19Z</time>
      </trkpt>
      <trkpt lat="42.509664" lon="-8.295199">
        <ele>784.429</ele>
        <time>2018-07-20T13:29:39Z</time>
      </trkpt>
      <trkpt lat="42.509668" lon="-8.295598">
        <ele>778.734</ele>
        <time>2018-07-20T13:29:59Z</time>
      </trkpt>
      <trkpt lat="42.509504" lon="-8.296025">
        <ele>774.955</ele>
        <time>2018-07-20T13:30:19Z</time>
      </trkpt>
      <trkpt lat="42.509235" lon="-8.296202">
        <ele>774.710</ele>
        <time>2018-07-20T13:30:39Z</time>
      </trkpt>
      <trkpt lat="42.508893" lon="-8.296293">
        <ele>776.708</ele>
        <time>2018-07-20T13:30:59Z</time>
      </trkpt>
      <trkpt lat="42.508596" lon="-8.296348">
        <ele>776.085</ele>
        <time>2018-07-20T13:31:19Z</time>
      </trkpt>
      <trkpt lat="42.508215" lon="-8.296471">
        <ele>772.649</ele>
        <time>2018-07-20T13:31:39Z</time>
      </trkpt>
      <trkpt lat="42.507913" lon="-8.296561">
        <ele>771.850</ele>
        <time>2018-07-20T13:31:59Z</time>
      </trkpt>
      <trkpt lat="42.507494" lon="-8.296752">
        <ele>774.878</ele>
        <time>2018-07-20T13:32:19Z</time>
      </trkpt>
      <trkpt lat="42.507224" lon="-8.296919">
        <ele>773.423</ele>
        <time>2018-07-20T13:32:39Z</time>
      </trkpt>
      <trkpt lat="42.506903" lon="-8.296893">
        <ele>770.814</ele>
        <time>2018-07-20T13:32:59Z</time>
      </trkpt>
      <trkpt lat="42.506627" lon="-8.296567">
        <ele>771.259</ele>
        <time>2018-07-20T13:33:19Z</time>
      </trkpt>
      <trkpt lat="42.506285" lon="-8.296389">
        <ele>770.050</ele>
        <time>2018-07-20T13:33:39Z</time>
      </trkpt>
      <trkpt lat="42.505945" lon="-8.296246">
        <ele>776.636</ele>
        <time>2018-07-20T13:33:59Z</time>
      </trkpt>
      <trkpt lat="42.505775" lon="-8.296453">
        <ele>773.517</ele>
        <time>2018-07-20T13:34:19Z</time>
      </trkpt>
      <trkpt lat="42.505456" lon="-8.296570">
        <ele>774.818</ele>
        <time>2018-07-20T13:34:39Z</time>
      </trkpt>
      <trkpt lat="42.505046" lon="-8.296641">
        <ele>776.308</ele>
        <time>2018-07-20T13:34:59Z</time>
      </trkpt>
      <trkpt lat="42.504785" lon="-8.296834">
        <ele>777.855</ele>
        <time>2018-07-20T13:35:19Z</time>
      </trkpt>
      <trkpt lat="42.504549" lon="-8.297229">
        <ele>779.269</ele>
        <time>2018-07-20T13:35:39Z</time>
      </trkpt>
      <trkpt lat="42.504390" lon="-8.297706">
        <ele>779.660</ele>
        <time>2018-07-20T13:35:59Z</time>
      </trkpt>
      <trkpt lat="42.504116" lon="-8.298010">
        <ele>784.558</ele>
        <time>2018-07-20T13:36:19Z</time>
      </trkpt>
      <trkpt lat="42.503548" lon="-8.298203">
        <ele>786.413</ele>
        <time>2018-07-20T13:36:39Z</time>
      </trkpt>
      <trkpt lat="42.503080" lon="-8.298295">
        <ele>791.414</ele>
        <time>2018-07-20T13:36:59Z</time>
      </trkpt>
      <trkpt lat="42.502604" lon="-8.298459">
        <ele>795.169</ele>
        <time>2018-07-20T13:37:19Z</time>
      </trkpt>
      <trkpt lat="42.502145" lon="-8.298473">
        <ele>798.640</ele>
        <time>2018-07-20T13:37:39Z</time>
      </trkpt>
      <trkpt lat="42.501679" lon="-8.298594">
        <ele>795.527</ele>
        <time>2018-07-20T13:37:59Z</time>
      </trkpt>
      <trkpt lat="42.501282" lon="-8.298756">
        <ele>794.868</ele>
        <time>2018-07-20T13:38:19Z</time>
      </trkpt>
      <trkpt lat="42.500934" lon="-8.298953">
        <ele>797.414</ele>
        <time>2018-07-20T13:38:39Z</time>
      </trkpt>
      <trkpt lat="42.500778" lon="-8.299350">
        <ele>795.308</ele>
        <time>2018-07-20T13:38:59Z</time>
      </trkpt>
      <trkpt lat="42.500589" lon="-8.299704">
        <ele>798.244</ele>
        <time>2018-07-20T13:39:19Z</time>
      </trkpt>
      <trkpt lat="42.500327" lon="-8.300080">
        <ele>801.858</ele>
        <time>2018-07-20T13:39:39Z</time>
      </trkpt>
      <trkpt lat="42.500048" lon="-8.300485">
        <ele>802.019</ele>
        <time>2018-07-20T13:39:59Z</time>
      </trkpt>
      <trkpt lat="42.499724" lon="-8.301009">
        <ele>799.127</ele>
        <time>2018-07-20T13:40:19Z</time>
      </trkpt>
      <trkpt lat="42.499491" lon="-8.301382">
        <ele>798.472</ele>
        <time>2018-07-20T13:40:39Z</time>
      </trkpt>
      <trkpt lat="42.499287" lon="-8.301756">
        <ele>796.933</ele>
        <time>2018-07-20T13:40:59Z</time>
      </trkpt>
      <trkpt lat="42.499189" lon="-8.302080">
        <ele>794.678</ele>
        <time>2018-07-20T13:41:19Z</time>
      </trkpt>
      <trkpt lat="42.499129" lon="-8.302231">
        <ele>793.379</ele>
        <time>2018-07-20T13:41:39Z</time>
      </trkpt>
      <trkpt lat="42.499202" lon="-8.302461">
        <ele>792.447</ele>
        <time>2018-07-20T13:41:59Z</time>
      </trkpt>
      <trkpt lat="42.499229" lon="-8.302538">
        <ele>792.329</ele>
        <time>2018-07-20T13:42:19Z</time>
      </trkpt>
      <trkpt lat="42.499111" lon="-8.302465">
        <ele>791.121</ele>
        <time>2018-07-20T13:42:39Z</time>
      </trkpt>
      <trkpt lat="42.499025" lon="-8.302401">
        <ele>789.808</ele>
        <time>2018-07-20T13:42:59Z</time>
      </trkpt>
      <trkpt lat="42.498979" lon="-8.302438">
        <ele>788.526</ele>
        <time>2018-07-20T13:43:19Z</time>
      </trkpt>
      <trkpt lat="42.498975" lon="-8.302566">
        <ele>787.930</ele>
        <time>2018-07-20T13:43:39Z</time>
      </trkpt>
      <trkpt lat="42.499052" lon="-8.302787">
        <ele>789.521</ele>
        <time>2018-07-20T13:43:59Z</time>
      </trkpt>
      <trkpt lat="42.499146" lon="-8.303176">
        <ele>791.369</ele>
        <time>2018-07-20T13:44:19Z</time>
      </trkpt>
      <trkpt lat="42.499156" lon="-8.303376">
        <ele>790.924</ele>
        <time>2018-07-20T13:44:39Z</time>
      </trkpt>
      <trkpt lat="42.499209" lon="-8.303544">
        <ele>791.245</ele>
        <time>2018-07-20T13:44:59Z</time>
      </trkpt>
      <trkpt lat="42.499252" lon="-8.303888">
        <ele>791.630</ele>
        <time>2018-07-20T13:45:19Z</time>
      </trkpt>
      <trkpt lat="42.499336" lon="-8.304205">
        <ele>791.771</ele>
        <time>2018-07-20T13:45:39Z</time>
      </trkpt>
      <trkpt lat="42.499589" lon="-8.304489">
        <ele>791.611</ele>
        <time>2018-07-20T13:45:59Z</time>
      </trkpt>
      <trkpt lat="42.500064" lon="-8.304831">
        <ele>782.921</ele>
        <time>2018-07-20T13:46:19Z</time>
      </trkpt>
      <trkpt lat="42.500538" lon="-8.305257">
        <ele>767.603</ele>
        <time>2018-07-20T13:46:39Z</time>
      </trkpt>
      <trkpt lat="42.501015" lon="-8.305694">
        <ele>758.008</ele>
        <time>2018-07-20T13:46:59Z</time>
      </trkpt>
      <trkpt lat="42.501314" lon="-8.306069">
        <ele>749.673</ele>
        <time>2018-07-20T13:47:19Z</time>
      </trkpt>
      <trkpt lat="42.501648" lon="-8.306244">
        <ele>744.277</ele>
        <time>2018-07-20T13:47:39Z</time>
      </trkpt>
      <trkpt lat="42.501935" lon="-8.306411">
        <ele>741.698</ele>
        <time>2018-07-20T13:47:59Z</time>
      </trkpt>
      <trkpt lat="42.502119" lon="-8.306683">
        <ele>736.666</ele>
        <time>2018-07-20T13:48:19Z</time>
      </trkpt>
      <trkpt lat="42.502417" lon="-8.307023">
        <ele>728.661</ele>
        <time>2018-07-20T13:48:39Z</time>
      </trkpt>
      <trkpt lat="42.502775" lon="-8.307261">
        <ele>721.262</ele>
        <time>2018-07-20T13:48:59Z</time>
      </trkpt>
      <trkpt lat="42.503192" lon="-8.307577">
        <ele>715.437</ele>
        <time>2018-07-20T13:49:19Z</time>
      </trkpt>
      <trkpt lat="42.503529" lon="-8.307882">
        <ele>707.468</ele>
        <time>2018-07-20T13:49:39Z</time>
      </trkpt>
      <trkpt lat="42.503654" lon="-8.308187">
        <ele>706.964</ele>
        <time>2018-07-20T13:49:59Z</time>
      </trkpt>
      <trkpt lat="42.504041" lon="-8.308490">
        <ele>704.206</ele>
        <time>2018-07-20T13:50:19Z</time>
      </trkpt>
      <trkpt lat="42.504134" lon="-8.308737">
        <ele>704.516</ele>
        <time>2018-07-20T13:50:39Z</time>
      </trkpt>
      <trkpt lat="42.504335" lon="-8.309052">
        <ele>704.208</ele>
        <time>2018-07-20T13:50:59Z</time>
      </trkpt>
      <trkpt lat="42.504615" lon="-8.309378">
        <ele>704.058</ele>
        <time>2018-07-20T13:51:19Z</time>
      </trkpt>
      <trkpt lat="42.504999" lon="-8.309626">
        <ele>701.642</ele>
        <time>2018-07-20T13:51:39Z</time>
      </trkpt>
      <trkpt lat="42.505408" lon="-8.309865">
        <ele>700.653</ele>
        <time>2018-07-20T13:51:59Z</time>
      </trkpt>
      <trkpt lat="42.505794" lon="-8.309974">
        <ele>698.951</ele>
        <time>2018-07-20T13:52:19Z</time>
      </trkpt>
      <trkpt lat="42.506050" lon="-8.310017">
        <ele>698.526</ele>
        <time>2018-07-20T13:52:39Z</time>
      </trkpt>
      <trkpt lat="42.506316" lon="-8.310117">
        <ele>698.667</ele>
        <time>2018-07-20T13:52:59Z</time>
      </trkpt>
      <trkpt lat="42.506393" lon="-8.310293">
        <ele>700.072</ele>
        <time>2018-07-20T13:53:19Z</time>
      </trkpt>
      <trkpt lat="42.506493" lon="-8.310454">
        <ele>699.253</ele>
        <time>2018-07-20T13:53:39Z</time>
      </trkpt>
      <trkpt lat="42.506545" lon="-8.310669">
        <ele>698.355</ele>
        <time>2018-07-20T13:53:59Z</time>
      </trkpt>
      <trkpt lat="42.506442" lon="-8.310766">
        <ele>698.207</ele>
        <time>2018-07-20T13:54:19Z</time>
      </trkpt>
      <trkpt lat="42.506076" lon="-8.310727">
        <ele>703.017</ele>
        <time>2018-07-20T13:54:39Z</time>
      </trkpt>
      <trkpt lat="42.505517" lon="-8.310659">
        <ele>712.008</ele>
        <time>2018-07-20T13:54:59Z</time>
      </trkpt>
      <trkpt lat="42.505118" lon="-8.310629">
        <ele>718.667</ele>
        <time>2018-07-20T13:55:19Z</time>
      </trkpt>
      <trkpt lat="42.504844" lon="-8.310645">
        <ele>723.851</ele>
        <time>2018-07-20T13:55:39Z</time>
      </trkpt>
      <trkpt lat="42.504388" lon="-8.310616">
        <ele>733.612</ele>
        <time>2018-07-20T13:55:59Z</time>
      </trkpt>
      <trkpt lat="42.503916" lon="-8.310598">
        <ele>744.650</ele>
        <time>2018-07-20T13:56:19Z</time>
      </trkpt>
      <trkpt lat="42.503441" lon="-8.310520">
        <ele>754.515</ele>
        <time>2018-07-20T13:56:39Z</time>
      </trkpt>
      <trkpt lat="42.502804" lon="-8.310363">
        <ele>768.916</ele>
        <time>2018-07-20T13:56:59Z</time>
      </trkpt>
      <trkpt lat="42.502104" lon="-8.310116">
        <ele>781.291</ele>
        <time>2018-07-20T13:57:19Z</time>
      </trkpt>
      <trkpt lat="42.501663" lon="-8.309972">
        <ele>788.642</ele>
        <time>2018-07-20T13:57:39Z</time>
      </trkpt>
      <trkpt lat="42.501293" lon="-8.309854">
        <ele>794.733</ele>
        <time>2018-07-20T13:57:59Z</time>
      </trkpt>
      <trkpt lat="42.500897" lon="-8.309729">
        <ele>803.923</ele>
        <time>2018-07-20T13:58:19Z</time>
      </trkpt>
      <trkpt lat="42.500629" lon="-8.309635">
        <ele>806.315</ele>
        <time>2018-07-20T13:58:39Z</time>
      </trkpt>
      <trkpt lat="42.500331" lon="-8.309542">
        <ele>810.108</ele>
        <time>2018-07-20T13:58:59Z</time>
      </trkpt>
      <trkpt lat="42.500104" lon="-8.309490">
        <ele>813.285</ele>
        <time>2018-07-20T13:59:19Z</time>
      </trkpt>
      <trkpt lat="42.499901" lon="-8.309455">
        <ele>815.259</ele>
        <time>2018-07-20T13:59:39Z</time>
      </trkpt>
      <trkpt lat="42.499701" lon="-8.309449">
        <ele>817.140</ele>
        <time>2018-07-20T13:59:59Z</time>
      </trkpt>
      <trkpt lat="42.499599" lon="-8.309516">
        <ele>818.188</ele>
        <time>2018-07-20T14:00:19Z</time>
      </trkpt>
      <trkpt lat="42.499409" lon="-8.309586">
        <ele>819.933</ele>
        <time>2018-07-20T14:00:39Z</time>
      </trkpt>
      <trkpt lat="42.499147" lon="-8.309676">
        <ele>820.824</ele>
        <time>2018-07-20T14:00:59Z</time>
      </trkpt>
      <trkpt lat="42.498816" lon="-8.309832">
        <ele>823.849</ele>
        <time>2018-07-20T14:01:19Z</time>
      </trkpt>
      <trkpt lat="42.498658" lon="-8.309888">
        <ele>824.490</ele>
        <time>2018-07-20T14:01:39Z</time>
      </trkpt>
      <trkpt lat="42.498428" lon="-8.309974">
        <ele>825.049</ele>
        <time>2018-07-20T14:01:59Z</time>
      </trkpt>
      <trkpt lat="42.498229" lon="-8.310003">
        <ele>825.802</ele>
        <time>2018-07-20T14:02:19Z</time>
      </trkpt>
      <trkpt lat="42.498036" lon="-8.309991">
        <ele>827.122</ele>
        <time>2018-07-20T14:02:39Z</time>
      </trkpt>
      <trkpt lat="42.497788" lon="-8.309908">
        <ele>829.808</ele>
        <time>2018-07-20T14:02:59Z</time>
      </trkpt>
      <trkpt lat="42.497670" lon="-8.309757">
        <ele>829.556</ele>
        <time>2018-07-20T14:03:19Z</time>
      </trkpt>
      <trkpt lat="42.497573" lon="-8.309577">
        <ele>829.290</ele>
        <time>2018-07-20T14:03:39Z</time>
      </trkpt>
      <trkpt lat="42.497478" lon="-8.309310">
        <ele>828.951</ele>
        <time>2018-07-20T14:03:59Z</time>
      </trkpt>
      <trkpt lat="42.497321" lon="-8.309194">
        <ele>830.239</ele>
        <time>2018-07-20T14:04:19Z</time>
      </trkpt>
      <trkpt lat="42.497172" lon="-8.309219">
        <ele>832.474</ele>
        <time>2018-07-20T14:04:39Z</time>
      </trkpt>
      <trkpt lat="42.496841" lon="-8.309221">
        <ele>834.925</ele>
        <time>2018-07-20T14:04:59Z</time>
      </trkpt>
      <trkpt lat="42.496680" lon="-8.309256">
        <ele>834.720</ele>
        <time>2018-07-20T14:05:19Z</time>
      </trkpt>
      <trkpt lat="42.496507" lon="-8.309349">
        <ele>834.061</ele>
        <time>2018-07-20T14:05:39Z</time>
      </trkpt>
      <trkpt lat="42.496440" lon="-8.309453">
        <ele>835.778</ele>
        <time>2018-07-20T14:05:59Z</time>
      </trkpt>
      <trkpt lat="42.496335" lon="-8.309615">
        <ele>836.833</ele>
        <time>2018-07-20T14:06:19Z</time>
      </trkpt>
      <trkpt lat="42.496237" lon="-8.309711">
        <ele>837.726</ele>
        <time>2018-07-20T14:06:39Z</time>
      </trkpt>
      <trkpt lat="42.495610" lon="-8.310312">
        <ele>840.008</ele>
        <time>2018-07-20T14:06:59Z</time>
      </trkpt>
      <trkpt lat="42.495384" lon="-8.310468">
        <ele>837.399</ele>
        <time>2018-07-20T14:07:19Z</time>
      </trkpt>
      <trkpt lat="42.495135" lon="-8.310880">
        <ele>836.963</ele>
        <time>2018-07-20T14:07:39Z</time>
      </trkpt>
      <trkpt lat="42.494962" lon="-8.311218">
        <ele>837.514</ele>
        <time>2018-07-20T14:07:59Z</time>
      </trkpt>
      <trkpt lat="42.494723" lon="-8.311568">
        <ele>838.272</ele>
        <time>2018-07-20T14:08:19Z</time>
      </trkpt>
      <trkpt lat="42.494323" lon="-8.312134">
        <ele>840.287</ele>
        <time>2018-07-20T14:08:39Z</time>
      </trkpt>
      <trkpt lat="42.494096" lon="-8.312634">
        <ele>842.448</ele>
        <time>2018-07-20T14:08:59Z</time>
      </trkpt>
      <trkpt lat="42.493998" lon="-8.313085">
        <ele>842.533</ele>
        <time>2018-07-20T14:09:19Z</time>
      </trkpt>
      <trkpt lat="42.493981" lon="-8.313470">
        <ele>844.084</ele>
        <time>2018-07-20T14:09:39Z</time>
      </trkpt>
      <trkpt lat="42.493880" lon="-8.313970">
        <ele>843.118</ele>
        <time>2018-07-20T14:09:59Z</time>
      </trkpt>
      <trkpt lat="42.493825" lon="-8.314302">
        <ele>843.798</ele>
        <time>2018-07-20T14:10:19Z</time>
      </trkpt>
      <trkpt lat="42.493648" lon="-8.314560">
        <ele>843.617</ele>
        <time>2018-07-20T14:10:39Z</time>
      </trkpt>
      <trkpt lat="42.493388" lon="-8.314767">
        <ele>841.508</ele>
        <time>2018-07-20T14:10:59Z</time>
      </trkpt>
      <trkpt lat="42.493123" lon="-8.315077">
        <ele>837.283</ele>
        <time>2018-07-20T14:11:19Z</time>
      </trkpt>
      <trkpt lat="42.492970" lon="-8.315403">
        <ele>837.277</ele>
        <time>2018-07-20T14:11:39Z</time>
      </trkpt>
      <trkpt lat="42.492800" lon="-8.315648">
        <ele>836.658</ele>
        <time>2018-07-20T14:11:59Z</time>
      </trkpt>
      <trkpt lat="42.492734" lon="-8.315888">
        <ele>840.296</ele>
        <time>2018-07-20T14:12:19Z</time>
      </trkpt>
      <trkpt lat="42.492597" lon="-8.316050">
        <ele>840.811</ele>
        <time>2018-07-20T14:12:39Z</time>
      </trkpt>
      <trkpt lat="42.492269" lon="-8.316085">
        <ele>838.462</ele>
        <time>2018-07-20T14:12:59Z</time>
      </trkpt>
      <trkpt lat="42.491906" lon="-8.316172">
        <ele>838.937</ele>
        <time>2018-07-20T14:13:19Z</time>
      </trkpt>
      <trkpt lat="42.491542" lon="-8.316334">
        <ele>838.678</ele>
        <time>2018-07-20T14:13:39Z</time>
      </trkpt>
      <trkpt lat="42.491257" lon="-8.316465">
        <ele>838.433</ele>
        <time>2018-07-20T14:13:59Z</time>
      </trkpt>
      <trkpt lat="42.491044" lon="-8.316493">
        <ele>836.923</ele>
        <time>2018-07-20T14:14:19Z</time>
      </trkpt>
      <trkpt lat="42.490685" lon="-8.316450">
        <ele>833.715</ele>
        <time>2018-07-20T14:14:39Z</time>
      </trkpt>
      <trkpt lat="42.490439" lon="-8.316503">
        <ele>833.308</ele>
        <time>2018-07-20T14:14:59Z</time>
      </trkpt>
      <trkpt lat="42.490197" lon="-8.316604">
        <ele>832.965</ele>
        <time>2018-07-20T14:15:19Z</time>
      </trkpt>
      <trkpt lat="42.489858" lon="-8.316680">
        <ele>830.359</ele>
        <time>2018-07-20T14:15:39Z</time>
      </trkpt>
      <trkpt lat="42.489599" lon="-8.316611">
        <ele>826.920</ele>
        <time>2018-07-20T14:15:59Z</time>
      </trkpt>
      <trkpt lat="42.489214" lon="-8.316358">
        <ele>821.858</ele>
        <time>2018-07-20T14:16:19Z</time>
      </trkpt>
      <trkpt lat="42.488898" lon="-8.316203">
        <ele>816.513</ele>
        <time>2018-07-20T14:16:39Z</time>
      </trkpt>
      <trkpt lat="42.488627" lon="-8.316027">
        <ele>816.364</ele>
        <time>2018-07-20T14:16:59Z</time>
      </trkpt>
      <trkpt lat="42.488488" lon="-8.315895">
        <ele>816.359</ele>
        <time>2018-07-20T14:17:19Z</time>
      </trkpt>
      <trkpt lat="42.488501" lon="-8.316145">
        <ele>815.610</ele>
        <time>2018-07-20T14:17:39Z</time>
      </trkpt>
      <trkpt lat="42.488493" lon="-8.316351">
        <ele>815.635</ele>
        <time>2018-07-20T14:17:59Z</time>
      </trkpt>
      <trkpt lat="42.488470" lon="-8.316556">
        <ele>815.586</ele>
        <time>2018-07-20T14:18:19Z</time>
      </trkpt>
      <trkpt lat="42.488383" lon="-8.317042">
        <ele>813.114</ele>
        <time>2018-07-20T14:18:39Z</time>
      </trkpt>
      <trkpt lat="42.488239" lon="-8.317493">
        <ele>809.908</ele>
        <time>2018-07-20T14:18:59Z</time>
      </trkpt>
      <trkpt lat="42.488150" lon="-8.318107">
        <ele>807.995</ele>
        <time>2018-07-20T14:19:19Z</time>
      </trkpt>
      <trkpt lat="42.488057" lon="-8.318831">
        <ele>806.879</ele>
        <time>2018-07-20T14:19:39Z</time>
      </trkpt>
      <trkpt lat="42.488049" lon="-8.319512">
        <ele>808.180</ele>
        <time>2018-07-20T14:19:59Z</time>
      </trkpt>
      <trkpt lat="42.488010" lon="-8.320428">
        <ele>808.448</ele>
        <time>2018-07-20T14:20:19Z</time>
      </trkpt>
      <trkpt lat="42.488000" lon="-8.321053">
        <ele>811.643</ele>
        <time>2018-07-20T14:20:39Z</time>
      </trkpt>
      <trkpt lat="42.488258" lon="-8.321653">
        <ele>816.854</ele>
        <time>2018-07-20T14:20:59Z</time>
      </trkpt>
      <trkpt lat="42.488568" lon="-8.322256">
        <ele>823.319</ele>
        <time>2018-07-20T14:21:19Z</time>
      </trkpt>
      <trkpt lat="42.488796" lon="-8.322643">
        <ele>823.650</ele>
        <time>2018-07-20T14:21:39Z</time>
      </trkpt>
      <trkpt lat="42.489034" lon="-8.323092">
        <ele>824.429</ele>
        <time>2018-07-20T14:21:59Z</time>
      </trkpt>
      <trkpt lat="42.489274" lon="-8.323373">
        <ele>824.200</ele>
        <time>2018-07-20T14:22:19Z</time>
      </trkpt>
      <trkpt lat="42.489489" lon="-8.323599">
        <ele>824.020</ele>
        <time>2018-07-20T14:22:39Z</time>
      </trkpt>
      <trkpt lat="42.489656" lon="-8.323888">
        <ele>825.608</ele>
        <time>2018-07-20T14:22:59Z</time>
      </trkpt>
      <trkpt lat="42.489468" lon="-8.324215">
        <ele>819.364</ele>
        <time>2018-07-20T14:23:19Z</time>
      </trkpt>
      <trkpt lat="42.489303" lon="-8.324423">
        <ele>815.598</ele>
        <time>2018-07-20T14:23:39Z</time>
      </trkpt>
      <trkpt lat="42.489363" lon="-8.324832">
        <ele>815.669</ele>
        <time>2018-07-20T14:23:59Z</time>
      </trkpt>
      <trkpt lat="42.489600" lon="-8.325068">
        <ele>816.257</ele>
        <time>2018-07-20T14:24:19Z</time>
      </trkpt>
      <trkpt lat="42.489994" lon="-8.325250">
        <ele>814.592</ele>
        <time>2018-07-20T14:24:39Z</time>
      </trkpt>
      <trkpt lat="42.490344" lon="-8.325345">
        <ele>812.813</ele>
        <time>2018-07-20T14:24:59Z</time>
      </trkpt>
      <trkpt lat="42.490680" lon="-8.325532">
        <ele>810.738</ele>
        <time>2018-07-20T14:25:19Z</time>
      </trkpt>
      <trkpt lat="42.490871" lon="-8.325903">
        <ele>806.999</ele>
        <time>2018-07-20T14:25:39Z</time>
      </trkpt>
      <trkpt lat="42.491307" lon="-8.326195">
        <ele>804.128</ele>
        <time>2018-07-20T14:25:59Z</time>
      </trkpt>
      <trkpt lat="42.491636" lon="-8.326457">
        <ele>801.989</ele>
        <time>2018-07-20T14:26:19Z</time>
      </trkpt>
      <trkpt lat="42.491876" lon="-8.326815">
        <ele>796.517</ele>
        <time>2018-07-20T14:26:39Z</time>
      </trkpt>
      <trkpt lat="42.491935" lon="-8.327040">
        <ele>794.008</ele>
        <time>2018-07-20T14:26:59Z</time>
      </trkpt>
      <trkpt lat="42.491657" lon="-8.327243">
        <ele>790.774</ele>
        <time>2018-07-20T14:27:19Z</time>
      </trkpt>
      <trkpt lat="42.491464" lon="-8.327450">
        <ele>787.268</ele>
        <time>2018-07-20T14:27:39Z</time>
      </trkpt>
      <trkpt lat="42.491405" lon="-8.327946">
        <ele>782.669</ele>
        <time>2018-07-20T14:27:59Z</time>
      </trkpt>
      <trkpt lat="42.491363" lon="-8.328349">
        <ele>780.777</ele>
        <time>2018-07-20T14:28:19Z</time>
      </trkpt>
      <trkpt lat="42.491236" lon="-8.328556">
        <ele>778.982</ele>
        <time>2018-07-20T14:28:39Z</time>
      </trkpt>
      <trkpt lat="42.491108" lon="-8.328730">
        <ele>776.533</ele>
        <time>2018-07-20T14:28:59Z</time>
      </trkpt>
      <trkpt lat="42.490739" lon="-8.328817">
        <ele>774.388</ele>
        <time>2018-07-20T14:29:19Z</time>
      </trkpt>
      <trkpt lat="42.490684" lon="-8.328996">
        <ele>774.089</ele>
        <time>2018-07-20T14:29:39Z</time>
      </trkpt>
      <trkpt lat="42.490871" lon="-8.329263">
        <ele>774.092</ele>
        <time>2018-07-20T14:29:59Z</time>
      </trkpt>
      <trkpt lat="42.491020" lon="-8.329589">
        <ele>772.573</ele>
        <time>2018-07-20T14:30:19Z</time>
      </trkpt>
      <trkpt lat="42.491199" lon="-8.329955">
        <ele>767.920</ele>
        <time>2018-07-20T14:30:39Z</time>
      </trkpt>
      <trkpt lat="42.491381" lon="-8.330388">
        <ele>767.408</ele>
        <time>2018-07-20T14:30:59Z</time>
      </trkpt>
      <trkpt lat="42.491562" lon="-8.330605">
        <ele>768.031</ele>
        <time>2018-07-20T14:31:19Z</time>
      </trkpt>
      <trkpt lat="42.491341" lon="-8.330694">
        <ele>768.895</ele>
        <time>2018-07-20T14:31:39Z</time>
      </trkpt>
      <trkpt lat="42.491124" lon="-8.330969">
        <ele>771.926</ele>
        <time>2018-07-20T14:31:59Z</time>
      </trkpt>
      <trkpt lat="42.490803" lon="-8.331249">
        <ele>776.034</ele>
        <time>2018-07-20T14:32:19Z</time>
      </trkpt>
      <trkpt lat="42.490622" lon="-8.331399">
        <ele>777.179</ele>
        <time>2018-07-20T14:32:39Z</time>
      </trkpt>
      <trkpt lat="42.490595" lon="-8.331666">
        <ele>778.930</ele>
        <time>2018-07-20T14:32:59Z</time>
      </trkpt>
      <trkpt lat="42.490507" lon="-8.332132">
        <ele>783.925</ele>
        <time>2018-07-20T14:33:19Z</time>
      </trkpt>
      <trkpt lat="42.490395" lon="-8.332743">
        <ele>786.386</ele>
        <time>2018-07-20T14:33:39Z</time>
      </trkpt>
      <trkpt lat="42.490087" lon="-8.333126">
        <ele>790.117</ele>
        <time>2018-07-20T14:33:59Z</time>
      </trkpt>
      <trkpt lat="42.489778" lon="-8.333708">
        <ele>793.287</ele>
        <time>2018-07-20T14:34:19Z</time>
      </trkpt>
      <trkpt lat="42.489463" lon="-8.334217">
        <ele>795.715</ele>
        <time>2018-07-20T14:34:39Z</time>
      </trkpt>
      <trkpt lat="42.489138" lon="-8.334599">
        <ele>797.408</ele>
        <time>2018-07-20T14:34:59Z</time>
      </trkpt>
      <trkpt lat="42.488700" lon="-8.334797">
        <ele>795.933</ele>
        <time>2018-07-20T14:35:19Z</time>
      </trkpt>
      <trkpt lat="42.488226" lon="-8.335066">
        <ele>797.187</ele>
        <time>2018-07-20T14:35:39Z</time>
      </trkpt>
      <trkpt lat="42.487806" lon="-8.335415">
        <ele>801.438</ele>
        <time>2018-07-20T14:35:59Z</time>
      </trkpt>
      <trkpt lat="42.487226" lon="-8.335460">
        <ele>799.756</ele>
        <time>2018-07-20T14:36:19Z</time>
      </trkpt>
      <trkpt lat="42.486701" lon="-8.335571">
        <ele>799.421</ele>
        <time>2018-07-20T14:36:39Z</time>
      </trkpt>
      <trkpt lat="42.486172" lon="-8.335695">
        <ele>799.872</ele>
        <time>2018-07-20T14:36:59Z</time>
      </trkpt>
      <trkpt lat="42.485542" lon="-8.335905">
        <ele>802.497</ele>
        <time>2018-07-20T14:37:19Z</time>
      </trkpt>
      <trkpt lat="42.485101" lon="-8.335986">
        <ele>800.768</ele>
        <time>2018-07-20T14:37:39Z</time>
      </trkpt>
      <trkpt lat="42.485018" lon="-8.336260">
        <ele>802.124</ele>
        <time>2018-07-20T14:37:59Z</time>
      </trkpt>
      <trkpt lat="42.484913" lon="-8.336474">
        <ele>805.004</ele>
        <time>2018-07-20T14:38:19Z</time>
      </trkpt>
      <trkpt lat="42.484764" lon="-8.336542">
        <ele>808.014</ele>
        <time>2018-07-20T14:38:39Z</time>
      </trkpt>
      <trkpt lat="42.484390" lon="-8.336469">
        <ele>813.508</ele>
        <time>2018-07-20T14:38:59Z</time>
      </trkpt>
      <trkpt lat="42.484143" lon="-8.336371">
        <ele>814.984</ele>
        <time>2018-07-20T14:39:19Z</time>
      </trkpt>
      <trkpt lat="42.483990" lon="-8.336481">
        <ele>817.688</ele>
        <time>2018-07-20T14:39:39Z</time>
      </trkpt>
      <trkpt lat="42.483673" lon="-8.336725">
        <ele>820.399</ele>
        <time>2018-07-20T14:39:59Z</time>
      </trkpt>
      <trkpt lat="42.483399" lon="-8.336884">
        <ele>820.017</ele>
        <time>2018-07-20T14:40:19Z</time>
      </trkpt>
      <trkpt lat="42.483476" lon="-8.337055">
        <ele>822.352</ele>
        <time>2018-07-20T14:40:39Z</time>
      </trkpt>
      <trkpt lat="42.483732" lon="-8.337194">
        <ele>826.483</ele>
        <time>2018-07-20T14:40:59Z</time>
      </trkpt>
      <trkpt lat="42.484044" lon="-8.337439">
        <ele>830.488</ele>
        <time>2018-07-20T14:41:19Z</time>
      </trkpt>
      <trkpt lat="42.484097" lon="-8.337621">
        <ele>831.359</ele>
        <time>2018-07-20T14:41:39Z</time>
      </trkpt>
      <trkpt lat="42.484268" lon="-8.337946">
        <ele>831.148</ele>
        <time>2018-07-20T14:41:59Z</time>
      </trkpt>
      <trkpt lat="42.484392" lon="-8.338249">
        <ele>831.661</ele>
        <time>2018-07-20T14:42:19Z</time>
      </trkpt>
      <trkpt lat="42.484528" lon="-8.338564">
        <ele>832.117</ele>
        <time>2018-07-20T14:42:39Z</time>
      </trkpt>
      <trkpt lat="42.484739" lon="-8.339106">
        <ele>832.808</ele>
        <time>2018-07-20T14:42:59Z</time>
      </trkpt>
      <trkpt lat="42.484887" lon="-8.339669">
        <ele>835.346</ele>
        <time>2018-07-20T14:43:19Z</time>
      </trkpt>
      <trkpt lat="42.485081" lon="-8.339990">
        <ele>835.090</ele>
        <time>2018-07-20T14:43:39Z</time>
      </trkpt>
      <trkpt lat="42.485246" lon="-8.340201">
        <ele>833.681</ele>
        <time>2018-07-20T14:43:59Z</time>
      </trkpt>
      <trkpt lat="42.485377" lon="-8.340443">
        <ele>832.299</ele>
        <time>2018-07-20T14:44:19Z</time>
      </trkpt>
      <trkpt lat="42.485474" lon="-8.340678">
        <ele>830.154</ele>
        <time>2018-07-20T14:44:39Z</time>
      </trkpt>
      <trkpt lat="42.485348" lon="-8.340835">
        <ele>829.595</ele>
        <time>2018-07-20T14:44:59Z</time>
      </trkpt>
      <trkpt lat="42.484927" lon="-8.341116">
        <ele>828.210</ele>
        <time>2018-07-20T14:45:19Z</time>
      </trkpt>
      <trkpt lat="42.484587" lon="-8.341404">
        <ele>824.861</ele>
        <time>2018-07-20T14:45:39Z</time>
      </trkpt>
      <trkpt lat="42.484349" lon="-8.341774">
        <ele>820.146</ele>
        <time>2018-07-20T14:45:59Z</time>
      </trkpt>
      <trkpt lat="42.484123" lon="-8.342175">
        <ele>812.788</ele>
        <time>2018-07-20T14:46:19Z</time>
      </trkpt>
      <trkpt lat="42.483932" lon="-8.342543">
        <ele>805.416</ele>
        <time>2018-07-20T14:46:39Z</time>
      </trkpt>
      <trkpt lat="42.483747" lon="-8.342945">
        <ele>797.908</ele>
        <time>2018-07-20T14:46:59Z</time>
      </trkpt>
      <trkpt lat="42.483554" lon="-8.343323">
        <ele>791.916</ele>
        <time>2018-07-20T14:47:19Z</time>
      </trkpt>
      <trkpt lat="42.483434" lon="-8.343556">
        <ele>789.830</ele>
        <time>2018-07-20T14:47:39Z</time>
      </trkpt>
      <trkpt lat="42.483396" lon="-8.343736">
        <ele>788.271</ele>
        <time>2018-07-20T14:47:59Z</time>
      </trkpt>
      <trkpt lat="42.483627" lon="-8.343908">
        <ele>786.899</ele>
        <time>2018-07-20T14:48:19Z</time>
      </trkpt>
      <trkpt lat="42.484000" lon="-8.344040">
        <ele>785.994</ele>
        <time>2018-07-20T14:48:39Z</time>
      </trkpt>
      <trkpt lat="42.484511" lon="-8.343995">
        <ele>783.485</ele>
        <time>2018-07-20T14:48:59Z</time>
      </trkpt>
      <trkpt lat="42.484926" lon="-8.343683">
        <ele>783.860</ele>
        <time>2018-07-20T14:49:19Z</time>
      </trkpt>
      <trkpt lat="42.485323" lon="-8.343387">
        <ele>785.181</ele>
        <time>2018-07-20T14:49:39Z</time>
      </trkpt>
      <trkpt lat="42.485870" lon="-8.343285">
        <ele>783.678</ele>
        <time>2018-07-20T14:49:59Z</time>
      </trkpt>
      <trkpt lat="42.486555" lon="-8.343337">
        <ele>779.933</ele>
        <time>2018-07-20T14:50:19Z</time>
      </trkpt>
      <trkpt lat="42.487166" lon="-8.343319">
        <ele>779.426</ele>
        <time>2018-07-20T14:50:39Z</time>
      </trkpt>
      <trkpt lat="42.487873" lon="-8.343195">
        <ele>777.508</ele>
        <time>2018-07-20T14:50:59Z</time>
      </trkpt>
      <trkpt lat="42.488513" lon="-8.343134">
        <ele>776.059</ele>
        <time>2018-07-20T14:51:19Z</time>
      </trkpt>
      <trkpt lat="42.489030" lon="-8.343165">
        <ele>776.943</ele>
        <time>2018-07-20T14:51:39Z</time>
      </trkpt>
      <trkpt lat="42.489460" lon="-8.343237">
        <ele>773.014</ele>
        <time>2018-07-20T14:51:59Z</time>
      </trkpt>
      <trkpt lat="42.490069" lon="-8.343404">
        <ele>765.462</ele>
        <time>2018-07-20T14:52:19Z</time>
      </trkpt>
      <trkpt lat="42.490427" lon="-8.343445">
        <ele>757.947</ele>
        <time>2018-07-20T14:52:39Z</time>
      </trkpt>
      <trkpt lat="42.490323" lon="-8.343908">
        <ele>756.538</ele>
        <time>2018-07-20T14:52:59Z</time>
      </trkpt>
      <trkpt lat="42.490096" lon="-8.344337">
        <ele>759.163</ele>
        <time>2018-07-20T14:53:19Z</time>
      </trkpt>
      <trkpt lat="42.489936" lon="-8.344578">
        <ele>759.914</ele>
        <time>2018-07-20T14:53:39Z</time>
      </trkpt>
      <trkpt lat="42.489758" lon="-8.344939">
        <ele>759.879</ele>
        <time>2018-07-20T14:53:59Z</time>
      </trkpt>
      <trkpt lat="42.489787" lon="-8.345254">
        <ele>759.305</ele>
        <time>2018-07-20T14:54:19Z</time>
      </trkpt>
      <trkpt lat="42.489718" lon="-8.345630">
        <ele>761.025</ele>
        <time>2018-07-20T14:54:39Z</time>
      </trkpt>
      <trkpt lat="42.489788" lon="-8.345920">
        <ele>761.708</ele>
        <time>2018-07-20T14:54:59Z</time>
      </trkpt>
      <trkpt lat="42.489802" lon="-8.346313">
        <ele>766.069</ele>
        <time>2018-07-20T14:55:19Z</time>
      </trkpt>
      <trkpt lat="42.489662" lon="-8.346614">
        <ele>768.663</ele>
        <time>2018-07-20T14:55:39Z</time>
      </trkpt>
      <trkpt lat="42.489828" lon="-8.346779">
        <ele>772.054</ele>
        <time>2018-07-20T14:55:59Z</time>
      </trkpt>
      <trkpt lat="42.489907" lon="-8.347121">
        <ele>777.452</ele>
        <time>2018-07-20T14:56:19Z</time>
      </trkpt>
      <trkpt lat="42.490024" lon="-8.347389">
        <ele>781.897</ele>
        <time>2018-07-20T14:56:39Z</time>
      </trkpt>
      <trkpt lat="42.490124" lon="-8.347560">
        <ele>784.178</ele>
        <time>2018-07-20T14:56:59Z</time>
      </trkpt>
      <trkpt lat="42.490637" lon="-8.347702">
        <ele>789.293</ele>
        <time>2018-07-20T14:57:19Z</time>
      </trkpt>
      <trkpt lat="42.490500" lon="-8.347953">
        <ele>793.674</ele>
        <time>2018-07-20T14:57:39Z</time>
      </trkpt>
      <trkpt lat="42.490320" lon="-8.348152">
        <ele>796.687</ele>
        <time>2018-07-20T14:57:59Z</time>
      </trkpt>
      <trkpt lat="42.490147" lon="-8.348447">
        <ele>799.542</ele>
        <time>2018-07-20T14:58:19Z</time>
      </trkpt>
      <trkpt lat="42.489957" lon="-8.348837">
        <ele>800.726</ele>
        <time>2018-07-20T14:58:39Z</time>
      </trkpt>
      <trkpt lat="42.489796" lon="-8.349198">
        <ele>800.108</ele>
        <time>2018-07-20T14:58:59Z</time>
      </trkpt>
      <trkpt lat="42.489667" lon="-8.349580">
        <ele>800.420</ele>
        <time>2018-07-20T14:59:19Z</time>
      </trkpt>
      <trkpt lat="42.489540" lon="-8.349888">
        <ele>802.024</ele>
        <time>2018-07-20T14:59:39Z</time>
      </trkpt>
      <trkpt lat="42.489161" lon="-8.350102">
        <ele>805.665</ele>
        <time>2018-07-20T14:59:59Z</time>
      </trkpt>
      <trkpt lat="42.488852" lon="-8.350221">
        <ele>807.563</ele>
        <time>2018-07-20T15:00:19Z</time>
      </trkpt>
      <trkpt lat="42.488814" lon="-8.350407">
        <ele>808.938</ele>
        <time>2018-07-20T15:00:39Z</time>
      </trkpt>
      <trkpt lat="42.489070" lon="-8.350614">
        <ele>813.739</ele>
        <time>2018-07-20T15:00:59Z</time>
      </trkpt>
      <trkpt lat="42.489181" lon="-8.350812">
        <ele>816.814</ele>
        <time>2018-07-20T15:01:19Z</time>
      </trkpt>
      <trkpt lat="42.489380" lon="-8.351018">
        <ele>820.375</ele>
        <time>2018-07-20T15:01:39Z</time>
      </trkpt>
      <trkpt lat="42.489478" lon="-8.351194">
        <ele>823.184</ele>
        <time>2018-07-20T15:01:59Z</time>
      </trkpt>
      <trkpt lat="42.489637" lon="-8.351351">
        <ele>826.007</ele>
        <time>2018-07-20T15:02:19Z</time>
      </trkpt>
      <trkpt lat="42.489952" lon="-8.351528">
        <ele>829.617</ele>
        <time>2018-07-20T15:02:39Z</time>
      </trkpt>
      <trkpt lat="42.490361" lon="-8.351718">
        <ele>834.808</ele>
        <time>2018-07-20T15:02:59Z</time>
      </trkpt>
      <trkpt lat="42.490565" lon="-8.351812">
        <ele>838.780</ele>
        <time>2018-07-20T15:03:19Z</time>
      </trkpt>
      <trkpt lat="42.490584" lon="-8.352034">
        <ele>840.774</ele>
        <time>2018-07-20T15:03:39Z</time>
      </trkpt>
      <trkpt lat="42.490798" lon="-8.352057">
        <ele>843.725</ele>
        <time>2018-07-20T15:03:59Z</time>
      </trkpt>
      <trkpt lat="42.491017" lon="-8.351908">
        <ele>845.553</ele>
        <time>2018-07-20T15:04:19Z</time>
      </trkpt>
      <trkpt lat="42.491576" lon="-8.351639">
        <ele>851.948</ele>
        <time>2018-07-20T15:04:39Z</time>
      </trkpt>
      <trkpt lat="42.492118" lon="-8.351483">
        <ele>858.919</ele>
        <time>2018-07-20T15:04:59Z</time>
      </trkpt>
      <trkpt lat="42.492746" lon="-8.351333">
        <ele>868.974</ele>
        <time>2018-07-20T15:05:19Z</time>
      </trkpt>
      <trkpt lat="42.493455" lon="-8.351210">
        <ele>876.825</ele>
        <time>2018-07-20T15:05:39Z</time>
      </trkpt>
      <trkpt lat="42.494182" lon="-8.351190">
        <ele>884.176</ele>
        <time>2018-07-20T15:05:59Z</time>
      </trkpt>
      <trkpt lat="42.494830" lon="-8.351411">
        <ele>889.890</ele>
        <time>2018-07-20T15:06:19Z</time>
      </trkpt>
      <trkpt lat="42.495682" lon="-8.351801">
        <ele>892.519</ele>
        <time>2018-07-20T15:06:39Z</time>
      </trkpt>
      <trkpt lat="42.496035" lon="-8.352490">
        <ele>901.608</ele>
        <time>2018-07-20T15:06:59Z</time>
      </trkpt>
      <trkpt lat="42.496101" lon="-8.352923">
        <ele>907.739</ele>
        <time>2018-07-20T15:07:19Z</time>
      </trkpt>
      <trkpt lat="42.496074" lon="-8.353461">
        <ele>912.953</ele>
        <time>2018-07-20T15:07:39Z</time>
      </trkpt>
      <trkpt lat="42.496031" lon="-8.354080">
        <ele>915.324</ele>
        <time>2018-07-20T15:07:59Z</time>
      </trkpt>
      <trkpt lat="42.496011" lon="-8.354702">
        <ele>916.122</ele>
        <time>2018-07-20T15:08:19Z</time>
      </trkpt>
      <trkpt lat="42.495740" lon="-8.355243">
        <ele>920.877</ele>
        <time>2018-07-20T15:08:39Z</time>
      </trkpt>
      <trkpt lat="42.495545" lon="-8.355764">
        <ele>925.638</ele>
        <time>2018-07-20T15:08:59Z</time>
      </trkpt>
      <trkpt lat="42.495447" lon="-8.356327">
        <ele>927.863</ele>
        <time>2018-07-20T15:09:19Z</time>
      </trkpt>
      <trkpt lat="42.495381" lon="-8.356871">
        <ele>929.894</ele>
        <time>2018-07-20T15:09:39Z</time>
      </trkpt>
      <trkpt lat="42.495295" lon="-8.357458">
        <ele>934.519</ele>
        <time>2018-07-20T15:09:59Z</time>
      </trkpt>
      <trkpt lat="42.495189" lon="-8.358221">
        <ele>942.209</ele>
        <time>2018-07-20T15:10:19Z</time>
      </trkpt>
      <trkpt lat="42.495314" lon="-8.358667">
        <ele>943.919</ele>
        <time>2018-07-20T15:10:39Z</time>
      </trkpt>
      <trkpt lat="42.495757" lon="-8.359000">
        <ele>943.208</ele>
        <time>2018-07-20T15:10:59Z</time>
      </trkpt>
      <trkpt lat="42.496081" lon="-8.359562">
        <ele>940.293</ele>
        <time>2018-07-20T15:11:19Z</time>
      </trkpt>
      <trkpt lat="42.496572" lon="-8.359898">
        <ele>938.197</ele>
        <time>2018-07-20T15:11:39Z</time>
      </trkpt>
      <trkpt lat="42.496324" lon="-8.360243">
        <ele>939.118</ele>
        <time>2018-07-20T15:11:59Z</time>
      </trkpt>
      <trkpt lat="42.496233" lon="-8.360662">
        <ele>942.396</ele>
        <time>2018-07-20T15:12:19Z</time>
      </trkpt>
      <trkpt lat="42.496008" lon="-8.360944">
        <ele>944.891</ele>
        <time>2018-07-20T15:12:39Z</time>
      </trkpt>
      <trkpt lat="42.495561" lon="-8.361639">
        <ele>950.052</ele>
        <time>2018-07-20T15:12:59Z</time>
      </trkpt>
      <trkpt lat="42.495349" lon="-8.362062">
        <ele>951.967</ele>
        <time>2018-07-20T15:13:19Z</time>
      </trkpt>
      <trkpt lat="42.494795" lon="-8.362249">
        <ele>954.818</ele>
        <time>2018-07-20T15:13:39Z</time>
      </trkpt>
      <trkpt lat="42.494448" lon="-8.362378">
        <ele>956.418</ele>
        <time>2018-07-20T15:13:59Z</time>
      </trkpt>
      <trkpt lat="42.494246" lon="-8.362593">
        <ele>957.498</ele>
        <time>2018-07-20T15:14:19Z</time>
      </trkpt>
      <trkpt lat="42.494002" lon="-8.362727">
        <ele>958.517</ele>
        <time>2018-07-20T15:14:39Z</time>
      </trkpt>
      <trkpt lat="42.493951" lon="-8.363019">
        <ele>959.608</ele>
        <time>2018-07-20T15:14:59Z</time>
      </trkpt>
      <trkpt lat="42.494024" lon="-8.363316">
        <ele>961.473</ele>
        <time>2018-07-20T15:15:19Z</time>
      </trkpt>
      <trkpt lat="42.494145" lon="-8.363714">
        <ele>964.887</ele>
        <time>2018-07-20T15:15:39Z</time>
      </trkpt>
      <trkpt lat="42.493865" lon="-8.364059">
        <ele>966.538</ele>
        <time>2018-07-20T15:15:59Z</time>
      </trkpt>
      <trkpt lat="42.493534" lon="-8.364269">
        <ele>966.756</ele>
        <time>2018-07-20T15:16:19Z</time>
      </trkpt>
      <trkpt lat="42.493287" lon="-8.364521">
        <ele>966.921</ele>
        <time>2018-07-20T15:16:39Z</time>
      </trkpt>
      <trkpt lat="42.493034" lon="-8.364806">
        <ele>965.882</ele>
        <time>2018-07-20T15:16:59Z</time>
      </trkpt>
      <trkpt lat="42.492791" lon="-8.365084">
        <ele>964.117</ele>
        <time>2018-07-20T15:17:19Z</time>
      </trkpt>
      <trkpt lat="42.492590" lon="-8.365681">
        <ele>962.428</ele>
        <time>2018-07-20T15:17:39Z</time>
      </trkpt>
      <trkpt lat="42.492469" lon="-8.366492">
        <ele>961.953</ele>
        <time>2018-07-20T15:17:59Z</time>
      </trkpt>
      <trkpt lat="42.492339" lon="-8.367005">
        <ele>963.404</ele>
        <time>2018-07-20T15:18:19Z</time>
      </trkpt>
      <trkpt lat="42.492000" lon="-8.367190">
        <ele>962.914</ele>
        <time>2018-07-20T15:18:39Z</time>
      </trkpt>
      <trkpt lat="42.491384" lon="-8.367511">
        <ele>963.208</ele>
        <time>2018-07-20T15:18:59Z</time>
      </trkpt>
      <trkpt lat="42.490784" lon="-8.367866">
        <ele>961.477</ele>
        <time>2018-07-20T15:19:19Z</time>
      </trkpt>
      <trkpt lat="42.490214" lon="-8.368422">
        <ele>960.471</ele>
        <time>2018-07-20T15:19:39Z</time>
      </trkpt>
      <trkpt lat="42.489966" lon="-8.368886">
        <ele>961.932</ele>
        <time>2018-07-20T15:19:59Z</time>
      </trkpt>
      <trkpt lat="42.489950" lon="-8.369221">
        <ele>962.880</ele>
        <time>2018-07-20T15:20:19Z</time>
      </trkpt>
      <trkpt lat="42.489819" lon="-8.369471">
        <ele>962.325</ele>
        <time>2018-07-20T15:20:39Z</time>
      </trkpt>
      <trkpt lat="42.489496" lon="-8.369510">
        <ele>962.036</ele>
        <time>2018-07-20T15:20:59Z</time>
      </trkpt>
      <trkpt lat="42.489121" lon="-8.369795">
        <ele>962.921</ele>
        <time>2018-07-20T15:21:19Z</time>
      </trkpt>
      <trkpt lat="42.488666" lon="-8.370197">
        <ele>963.162</ele>
        <time>2018-07-20T15:21:39Z</time>
      </trkpt>
      <trkpt lat="42.488104" lon="-8.370469">
        <ele>963.969</ele>
        <time>2018-07-20T15:21:59Z</time>
      </trkpt>
      <trkpt lat="42.487556" lon="-8.370776">
        <ele>960.204</ele>
        <time>2018-07-20T15:22:19Z</time>
      </trkpt>
      <trkpt lat="42.486835" lon="-8.371109">
        <ele>957.424</ele>
        <time>2018-07-20T15:22:39Z</time>
      </trkpt>
      <trkpt lat="42.486367" lon="-8.371364">
        <ele>958.308</ele>
        <time>2018-07-20T15:22:59Z</time>
      </trkpt>
      <trkpt lat="42.485866" lon="-8.371925">
        <ele>956.088</ele>
        <time>2018-07-20T15:23:19Z</time>
      </trkpt>
      <trkpt lat="42.485353" lon="-8.372473">
        <ele>955.452</ele>
        <time>2018-07-20T15:23:39Z</time>
      </trkpt>
      <trkpt lat="42.484481" lon="-8.373174">
        <ele>950.393</ele>
        <time>2018-07-20T15:23:59Z</time>
      </trkpt>
      <trkpt lat="42.484004" lon="-8.373660">
        <ele>951.221</ele>
        <time>2018-07-20T15:24:19Z</time>
      </trkpt>
      <trkpt lat="42.483236" lon="-8.374623">
        <ele>951.126</ele>
        <time>2018-07-20T15:24:39Z</time>
      </trkpt>
      <trkpt lat="42.482867" lon="-8.374909">
        <ele>954.487</ele>
        <time>2018-07-20T15:24:59Z</time>
      </trkpt>
      <trkpt lat="42.482501" lon="-8.375597">
        <ele>954.022</ele>
        <time>2018-07-20T15:25:19Z</time>
      </trkpt>
      <trkpt lat="42.482238" lon="-8.375881">
        <ele>956.013</ele>
        <time>2018-07-20T15:25:39Z</time>
      </trkpt>
      <trkpt lat="42.482363" lon="-8.376175">
        <ele>954.654</ele>
        <time>2018-07-20T15:25:59Z</time>
      </trkpt>
      <trkpt lat="42.482537" lon="-8.376450">
        <ele>950.456</ele>
        <time>2018-07-20T15:26:19Z</time>
      </trkpt>
      <trkpt lat="42.482859" lon="-8.376934">
        <ele>946.711</ele>
        <time>2018-07-20T15:26:39Z</time>
      </trkpt>
      <trkpt lat="42.483003" lon="-8.377230">
        <ele>946.408</ele>
        <time>2018-07-20T15:26:59Z</time>
      </trkpt>
      <trkpt lat="42.483148" lon="-8.377637">
        <ele>944.267</ele>
        <time>2018-07-20T15:27:19Z</time>
      </trkpt>
      <trkpt lat="42.483331" lon="-8.378076">
        <ele>940.921</ele>
        <time>2018-07-20T15:27:39Z</time>
      </trkpt>
      <trkpt lat="42.483566" lon="-8.378446">
        <ele>939.842</ele>
        <time>2018-07-20T15:27:59Z</time>
      </trkpt>
      <trkpt lat="42.483780" lon="-8.378960">
        <ele>942.480</ele>
        <time>2018-07-20T15:28:19Z</time>
      </trkpt>
      <trkpt lat="42.484093" lon="-8.379195">
        <ele>940.325</ele>
        <time>2018-07-20T15:28:39Z</time>
      </trkpt>
      <trkpt lat="42.484479" lon="-8.379384">
        <ele>937.596</ele>
        <time>2018-07-20T15:28:59Z</time>
      </trkpt>
      <trkpt lat="42.484928" lon="-8.379383">
        <ele>937.121</ele>
        <time>2018-07-20T15:29:19Z</time>
      </trkpt>
      <trkpt lat="42.485381" lon="-8.379258">
        <ele>935.922</ele>
        <time>2018-07-20T15:29:39Z</time>
      </trkpt>
      <trkpt lat="42.485971" lon="-8.379032">
        <ele>938.074</ele>
        <time>2018-07-20T15:29:59Z</time>
      </trkpt>
      <trkpt lat="42.486575" lon="-8.379103">
        <ele>940.156</ele>
        <time>2018-07-20T15:30:19Z</time>
      </trkpt>
      <trkpt lat="42.487079" lon="-8.379171">
        <ele>939.021</ele>
        <time>2018-07-20T15:30:39Z</time>
      </trkpt>
      <trkpt lat="42.487622" lon="-8.379343">
        <ele>931.308</ele>
        <time>2018-07-20T15:30:59Z</time>
      </trkpt>
      <trkpt lat="42.488120" lon="-8.379634">
        <ele>923.039</ele>
        <time>2018-07-20T15:31:19Z</time>
      </trkpt>
      <trkpt lat="42.488398" lon="-8.379802">
        <ele>919.843</ele>
        <time>2018-07-20T15:31:39Z</time>
      </trkpt>
      <trkpt lat="42.488711" lon="-8.379888">
        <ele>920.784</ele>
        <time>2018-07-20T15:31:59Z</time>
      </trkpt>
      <trkpt lat="42.489004" lon="-8.380006">
        <ele>921.332</ele>
        <time>2018-07-20T15:32:19Z</time>
      </trkpt>
      <trkpt lat="42.489609" lon="-8.380350">
        <ele>918.667</ele>
        <time>2018-07-20T15:32:39Z</time>
      </trkpt>
      <trkpt lat="42.490139" lon="-8.380756">
        <ele>919.188</ele>
        <time>2018-07-20T15:32:59Z</time>
      </trkpt>
      <trkpt lat="42.490552" lon="-8.381156">
        <ele>917.353</ele>
        <time>2018-07-20T15:33:19Z</time>
      </trkpt>
      <trkpt lat="42.491184" lon="-8.381785">
        <ele>914.084</ele>
        <time>2018-07-20T15:33:39Z</time>
      </trkpt>
      <trkpt lat="42.492169" lon="-8.382581">
        <ele>903.661</ele>
        <time>2018-07-20T15:33:59Z</time>
      </trkpt>
      <trkpt lat="42.493012" lon="-8.383096">
        <ele>897.121</ele>
        <time>2018-07-20T15:34:19Z</time>
      </trkpt>
      <trkpt lat="42.493895" lon="-8.383615">
        <ele>887.913</ele>
        <time>2018-07-20T15:34:39Z</time>
      </trkpt>
      <trkpt lat="42.494891" lon="-8.384210">
        <ele>880.008</ele>
        <time>2018-07-20T15:34:59Z</time>
      </trkpt>
      <trkpt lat="42.495376" lon="-8.384450">
        <ele>878.998</ele>
        <time>2018-07-20T15:35:19Z</time>
      </trkpt>
      <trkpt lat="42.495848" lon="-8.384628">
        <ele>877.722</ele>
        <time>2018-07-20T15:35:39Z</time>
      </trkpt>
      <trkpt lat="42.496260" lon="-8.384455">
        <ele>878.513</ele>
        <time>2018-07-20T15:35:59Z</time>
      </trkpt>
      <trkpt lat="42.496903" lon="-8.384107">
        <ele>880.271</ele>
        <time>2018-07-20T15:36:19Z</time>
      </trkpt>
      <trkpt lat="42.497744" lon="-8.383464">
        <ele>886.546</ele>
        <time>2018-07-20T15:36:39Z</time>
      </trkpt>
      <trkpt lat="42.498484" lon="-8.383040">
        <ele>885.157</ele>
        <time>2018-07-20T15:36:59Z</time>
      </trkpt>
      <trkpt lat="42.498937" lon="-8.382618">
        <ele>885.582</ele>
        <time>2018-07-20T15:37:19Z</time>
      </trkpt>
      <trkpt lat="42.499196" lon="-8.382194">
        <ele>886.533</ele>
        <time>2018-07-20T15:37:39Z</time>
      </trkpt>
      <trkpt lat="42.499609" lon="-8.381643">
        <ele>885.848</ele>
        <time>2018-07-20T15:37:59Z</time>
      </trkpt>
      <trkpt lat="42.499815" lon="-8.381372">
        <ele>884.161</ele>
        <time>2018-07-20T15:38:19Z</time>
      </trkpt>
      <trkpt lat="42.500012" lon="-8.381159">
        <ele>881.417</ele>
        <time>2018-07-20T15:38:39Z</time>
      </trkpt>
      <trkpt lat="42.499912" lon="-8.380417">
        <ele>882.908</ele>
        <time>2018-07-20T15:38:59Z</time>
      </trkpt>
      <trkpt lat="42.499762" lon="-8.379689">
        <ele>881.696</ele>
        <time>2018-07-20T15:39:19Z</time>
      </trkpt>
      <trkpt lat="42.499749" lon="-8.379359">
        <ele>882.080</ele>
        <time>2018-07-20T15:39:39Z</time>
      </trkpt>
      <trkpt lat="42.499772" lon="-8.379179">
        <ele>882.141</ele>
        <time>2018-07-20T15:39:59Z</time>
      </trkpt>
      <trkpt lat="42.500303" lon="-8.378708">
        <ele>879.889</ele>
        <time>2018-07-20T15:40:19Z</time>
      </trkpt>
      <trkpt lat="42.500949" lon="-8.378421">
        <ele>877.894</ele>
        <time>2018-07-20T15:40:39Z</time>
      </trkpt>
      <trkpt lat="42.501400" lon="-8.377935">
        <ele>882.475</ele>
        <time>2018-07-20T15:40:59Z</time>
      </trkpt>
      <trkpt lat="42.502382" lon="-8.377350">
        <ele>880.640</ele>
        <time>2018-07-20T15:41:19Z</time>
      </trkpt>
      <trkpt lat="42.503058" lon="-8.376788">
        <ele>881.231</ele>
        <time>2018-07-20T15:41:39Z</time>
      </trkpt>
      <trkpt lat="42.503533" lon="-8.376634">
        <ele>878.422</ele>
        <time>2018-07-20T15:41:59Z</time>
      </trkpt>
      <trkpt lat="42.503985" lon="-8.376496">
        <ele>877.762</ele>
        <time>2018-07-20T15:42:19Z</time>
      </trkpt>
      <trkpt lat="42.504559" lon="-8.375826">
        <ele>879.408</ele>
        <time>2018-07-20T15:42:39Z</time>
      </trkpt>
      <trkpt lat="42.504790" lon="-8.375175">
        <ele>881.308</ele>
        <time>2018-07-20T15:42:59Z</time>
      </trkpt>
      <trkpt lat="42.505146" lon="-8.374686">
        <ele>877.064</ele>
        <time>2018-07-20T15:43:19Z</time>
      </trkpt>
      <trkpt lat="42.505304" lon="-8.373917">
        <ele>877.458</ele>
        <time>2018-07-20T15:43:39Z</time>
      </trkpt>
      <trkpt lat="42.505613" lon="-8.373631">
        <ele>875.219</ele>
        <time>2018-07-20T15:43:59Z</time>
      </trkpt>
      <trkpt lat="42.506276" lon="-8.373454">
        <ele>870.717</ele>
        <time>2018-07-20T15:44:19Z</time>
      </trkpt>
      <trkpt lat="42.507162" lon="-8.373287">
        <ele>873.382</ele>
        <time>2018-07-20T15:44:39Z</time>
      </trkpt>
      <trkpt lat="42.507984" lon="-8.372874">
        <ele>876.123</ele>
        <time>2018-07-20T15:44:59Z</time>
      </trkpt>
      <trkpt lat="42.508516" lon="-8.372325">
        <ele>872.338</ele>
        <time>2018-07-20T15:45:19Z</time>
      </trkpt>
      <trkpt lat="42.508441" lon="-8.371733">
        <ele>879.129</ele>
        <time>2018-07-20T15:45:39Z</time>
      </trkpt>
      <trkpt lat="42.509089" lon="-8.371557">
        <ele>868.582</ele>
        <time>2018-07-20T15:45:59Z</time>
      </trkpt>
      <trkpt lat="42.509499" lon="-8.371174">
        <ele>867.743</ele>
        <time>2018-07-20T15:46:19Z</time>
      </trkpt>
      <trkpt lat="42.509765" lon="-8.370659">
        <ele>868.317</ele>
        <time>2018-07-20T15:46:39Z</time>
      </trkpt>
      <trkpt lat="42.510018" lon="-8.370193">
        <ele>868.208</ele>
        <time>2018-07-20T15:46:59Z</time>
      </trkpt>
      <trkpt lat="42.510243" lon="-8.369397">
        <ele>862.950</ele>
        <time>2018-07-20T15:47:19Z</time>
      </trkpt>
      <trkpt lat="42.510341" lon="-8.368749">
        <ele>854.614</ele>
        <time>2018-07-20T15:47:39Z</time>
      </trkpt>
      <trkpt lat="42.509917" lon="-8.368134">
        <ele>850.065</ele>
        <time>2018-07-20T15:47:59Z</time>
      </trkpt>
      <trkpt lat="42.509668" lon="-8.367866">
        <ele>846.183</ele>
        <time>2018-07-20T15:48:19Z</time>
      </trkpt>
      <trkpt lat="42.509532" lon="-8.367434">
        <ele>839.728</ele>
        <time>2018-07-20T15:48:39Z</time>
      </trkpt>
      <trkpt lat="42.509319" lon="-8.367097">
        <ele>835.719</ele>
        <time>2018-07-20T15:48:59Z</time>
      </trkpt>
      <trkpt lat="42.509664" lon="-8.367066">
        <ele>834.594</ele>
        <time>2018-07-20T15:49:19Z</time>
      </trkpt>
      <trkpt lat="42.510068" lon="-8.367183">
        <ele>835.475</ele>
        <time>2018-07-20T15:49:39Z</time>
      </trkpt>
      <trkpt lat="42.510119" lon="-8.367189">
        <ele>835.589</ele>
        <time>2018-07-20T15:49:59Z</time>
      </trkpt>
      <trkpt lat="42.510498" lon="-8.367224">
        <ele>835.206</ele>
        <time>2018-07-20T15:50:19Z</time>
      </trkpt>
      <trkpt lat="42.510506" lon="-8.367618">
        <ele>839.326</ele>
        <time>2018-07-20T15:50:39Z</time>
      </trkpt>
      <trkpt lat="42.510979" lon="-8.367858">
        <ele>832.108</ele>
        <time>2018-07-20T15:50:59Z</time>
      </trkpt>
      <trkpt lat="42.511243" lon="-8.368045">
        <ele>829.560</ele>
        <time>2018-07-20T15:51:19Z</time>
      </trkpt>
      <trkpt lat="42.511589" lon="-8.368396">
        <ele>833.914</ele>
        <time>2018-07-20T15:51:39Z</time>
      </trkpt>
      <trkpt lat="42.512491" lon="-8.368328">
        <ele>826.965</ele>
        <time>2018-07-20T15:51:59Z</time>
      </trkpt>
      <trkpt lat="42.512985" lon="-8.368117">
        <ele>820.813</ele>
        <time>2018-07-20T15:52:19Z</time>
      </trkpt>
      <trkpt lat="42.513539" lon="-8.368186">
        <ele>815.878</ele>
        <time>2018-07-20T15:52:39Z</time>
      </trkpt>
      <trkpt lat="42.514128" lon="-8.368352">
        <ele>809.739</ele>
        <time>2018-07-20T15:52:59Z</time>
      </trkpt>
      <trkpt lat="42.514628" lon="-8.367998">
        <ele>806.574</ele>
        <time>2018-07-20T15:53:19Z</time>
      </trkpt>
      <trkpt lat="42.515242" lon="-8.367336">
        <ele>800.365</ele>
        <time>2018-07-20T15:53:39Z</time>
      </trkpt>
      <trkpt lat="42.515635" lon="-8.366939">
        <ele>798.275</ele>
        <time>2018-07-20T15:53:59Z</time>
      </trkpt>
      <trkpt lat="42.516024" lon="-8.366835">
        <ele>796.928</ele>
        <time>2018-07-20T15:54:19Z</time>
      </trkpt>
      <trkpt lat="42.516621" lon="-8.366949">
        <ele>789.920</ele>
        <time>2018-07-20T15:54:39Z</time>
      </trkpt>
      <trkpt lat="42.517000" lon="-8.367029">
        <ele>790.008</ele>
        <time>2018-07-20T15:54:59Z</time>
      </trkpt>
      <trkpt lat="42.517204" lon="-8.367129">
        <ele>789.929</ele>
        <time>2018-07-20T15:55:19Z</time>
      </trkpt>
      <trkpt lat="42.517501" lon="-8.367239">
        <ele>784.553</ele>
        <time>2018-07-20T15:55:39Z</time>
      </trkpt>
      <trkpt lat="42.517925" lon="-8.367218">
        <ele>779.474</ele>
        <time>2018-07-20T15:55:59Z</time>
      </trkpt>
      <trkpt lat="42.518581" lon="-8.367164">
        <ele>775.632</ele>
        <time>2018-07-20T15:56:19Z</time>
      </trkpt>
      <trkpt lat="42.519247" lon="-8.367100">
        <ele>767.577</ele>
        <time>2018-07-20T15:56:39Z</time>
      </trkpt>
      <trkpt lat="42.519569" lon="-8.367158">
        <ele>765.238</ele>
        <time>2018-07-20T15:56:59Z</time>
      </trkpt>
      <trkpt lat="42.520028" lon="-8.367302">
        <ele>767.393</ele>
        <time>2018-07-20T15:57:19Z</time>
      </trkpt>
      <trkpt lat="42.520305" lon="-8.367575">
        <ele>770.144</ele>
        <time>2018-07-20T15:57:39Z</time>
      </trkpt>
      <trkpt lat="42.520802" lon="-8.367671">
        <ele>761.486</ele>
        <time>2018-07-20T15:57:59Z</time>
      </trkpt>
      <trkpt lat="42.521281" lon="-8.367798">
        <ele>749.460</ele>
        <time>2018-07-20T15:58:19Z</time>
      </trkpt>
      <trkpt lat="42.521457" lon="-8.368089">
        <ele>747.626</ele>
        <time>2018-07-20T15:58:39Z</time>
      </trkpt>
      <trkpt lat="42.521644" lon="-8.368326">
        <ele>745.508</ele>
        <time>2018-07-20T15:58:59Z</time>
      </trkpt>
      <trkpt lat="42.521840" lon="-8.368612">
        <ele>744.320</ele>
        <time>2018-07-20T15:59:19Z</time>
      </trkpt>
      <trkpt lat="42.522248" lon="-8.369226">
        <ele>735.924</ele>
        <time>2018-07-20T15:59:39Z</time>
      </trkpt>
      <trkpt lat="42.522513" lon="-8.369474">
        <ele>731.985</ele>
        <time>2018-07-20T15:59:59Z</time>
      </trkpt>
      <trkpt lat="42.523089" lon="-8.369532">
        <ele>724.353</ele>
        <time>2018-07-20T16:00:19Z</time>
      </trkpt>
      <trkpt lat="42.523608" lon="-8.369362">
        <ele>713.848</ele>
        <time>2018-07-20T16:00:39Z</time>
      </trkpt>
      <trkpt lat="42.524157" lon="-8.369176">
        <ele>704.399</ele>
        <time>2018-07-20T16:00:59Z</time>
      </trkpt>
      <trkpt lat="42.524330" lon="-8.369121">
        <ele>700.784</ele>
        <time>2018-07-20T16:01:19Z</time>
      </trkpt>
      <trkpt lat="42.524391" lon="-8.368896">
        <ele>698.035</ele>
        <time>2018-07-20T16:01:39Z</time>
      </trkpt>
      <trkpt lat="42.524432" lon="-8.368358">
        <ele>699.061</ele>
        <time>2018-07-20T16:01:59Z</time>
      </trkpt>
      <trkpt lat="42.524630" lon="-8.367534">
        <ele>688.621</ele>
        <time>2018-07-20T16:02:19Z</time>
      </trkpt>
      <trkpt lat="42.524608" lon="-8.367239">
        <ele>687.413</ele>
        <time>2018-07-20T16:02:39Z</time>
      </trkpt>
      <trkpt lat="42.524723" lon="-8.367097">
        <ele>684.008</ele>
        <time>2018-07-20T16:02:59Z</time>
      </trkpt>
      <trkpt lat="42.524798" lon="-8.367251">
        <ele>682.268</ele>
        <time>2018-07-20T16:03:19Z</time>
      </trkpt>
      <trkpt lat="42.524778" lon="-8.367494">
        <ele>683.872</ele>
        <time>2018-07-20T16:03:39Z</time>
      </trkpt>
      <trkpt lat="42.524839" lon="-8.367686">
        <ele>683.543</ele>
        <time>2018-07-20T16:03:59Z</time>
      </trkpt>
      <trkpt lat="42.525021" lon="-8.368005">
        <ele>679.731</ele>
        <time>2018-07-20T16:04:19Z</time>
      </trkpt>
      <trkpt lat="42.525058" lon="-8.368301">
        <ele>679.396</ele>
        <time>2018-07-20T16:04:39Z</time>
      </trkpt>
      <trkpt lat="42.525127" lon="-8.368483">
        <ele>679.597</ele>
        <time>2018-07-20T16:04:59Z</time>
      </trkpt>
      <trkpt lat="42.525213" lon="-8.368553">
        <ele>678.712</ele>
        <time>2018-07-20T16:05:19Z</time>
      </trkpt>
      <trkpt lat="42.525400" lon="-8.368487">
        <ele>676.393</ele>
        <time>2018-07-20T16:05:39Z</time>
      </trkpt>
      <trkpt lat="42.525685" lon="-8.368371">
        <ele>670.644</ele>
        <time>2018-07-20T16:05:59Z</time>
      </trkpt>
      <trkpt lat="42.525857" lon="-8.368420">
        <ele>667.505</ele>
        <time>2018-07-20T16:06:19Z</time>
      </trkpt>
      <trkpt lat="42.526007" lon="-8.368660">
        <ele>666.515</ele>
        <time>2018-07-20T16:06:39Z</time>
      </trkpt>
      <trkpt lat="42.526242" lon="-8.368816">
        <ele>662.408</ele>
        <time>2018-07-20T16:06:59Z</time>
      </trkpt>
      <trkpt lat="42.526209" lon="-8.369018">
        <ele>663.146</ele>
        <time>2018-07-20T16:07:19Z</time>
      </trkpt>
      <trkpt lat="42.526219" lon="-8.369171">
        <ele>662.630</ele>
        <time>2018-07-20T16:07:39Z</time>
      </trkpt>
      <trkpt lat="42.526140" lon="-8.369430">
        <ele>661.411</ele>
        <time>2018-07-20T16:07:59Z</time>
      </trkpt>
      <trkpt lat="42.525962" lon="-8.369754">
        <ele>660.549</ele>
        <time>2018-07-20T16:08:19Z</time>
      </trkpt>
      <trkpt lat="42.525754" lon="-8.369997">
        <ele>659.834</ele>
        <time>2018-07-20T16:08:39Z</time>
      </trkpt>
      <trkpt lat="42.525623" lon="-8.370222">
        <ele>655.555</ele>
        <time>2018-07-20T16:08:59Z</time>
      </trkpt>
      <trkpt lat="42.525381" lon="-8.370483">
        <ele>653.310</ele>
        <time>2018-07-20T16:09:19Z</time>
      </trkpt>
      <trkpt lat="42.525270" lon="-8.370721">
        <ele>648.491</ele>
        <time>2018-07-20T16:09:39Z</time>
      </trkpt>
      <trkpt lat="42.525085" lon="-8.370951">
        <ele>649.654</ele>
        <time>2018-07-20T16:09:59Z</time>
      </trkpt>
      <trkpt lat="42.524941" lon="-8.371178">
        <ele>647.356</ele>
        <time>2018-07-20T16:10:19Z</time>
      </trkpt>
      <trkpt lat="42.524777" lon="-8.371388">
        <ele>645.311</ele>
        <time>2018-07-20T16:10:39Z</time>
      </trkpt>
      <trkpt lat="42.524661" lon="-8.371589">
        <ele>643.308</ele>
        <time>2018-07-20T16:10:59Z</time>
      </trkpt>
      <trkpt lat="42.524528" lon="-8.371813">
        <ele>642.237</ele>
        <time>2018-07-20T16:11:19Z</time>
      </trkpt>
      <trkpt lat="42.524430" lon="-8.372100">
        <ele>637.161</ele>
        <time>2018-07-20T16:11:39Z</time>
      </trkpt>
      <trkpt lat="42.524312" lon="-8.372339">
        <ele>635.492</ele>
        <time>2018-07-20T16:11:59Z</time>
      </trkpt>
      <trkpt lat="42.524141" lon="-8.372587">
        <ele>635.080</ele>
        <time>2018-07-20T16:12:19Z</time>
      </trkpt>
      <trkpt lat="42.524033" lon="-8.372812">
        <ele>633.835</ele>
        <time>2018-07-20T16:12:39Z</time>
      </trkpt>
      <trkpt lat="42.524016" lon="-8.373033">
        <ele>628.786</ele>
        <time>2018-07-20T16:12:59Z</time>
      </trkpt>
      <trkpt lat="42.523819" lon="-8.373366">
        <ele>629.981</ele>
        <time>2018-07-20T16:13:19Z</time>
      </trkpt>
      <trkpt lat="42.523658" lon="-8.373756">
        <ele>626.652</ele>
        <time>2018-07-20T16:13:39Z</time>
      </trkpt>
      <trkpt lat="42.523530" lon="-8.374023">
        <ele>625.049</ele>
        <time>2018-07-20T16:13:59Z</time>
      </trkpt>
      <trkpt lat="42.523407" lon="-8.374539">
        <ele>618.102</ele>
        <time>2018-07-20T16:14:19Z</time>
      </trkpt>
      <trkpt lat="42.523247" lon="-8.374999">
        <ele>616.722</ele>
        <time>2018-07-20T16:14:39Z</time>
      </trkpt>
      <trkpt lat="42.523148" lon="-8.375422">
        <ele>613.108</ele>
        <time>2018-07-20T16:14:59Z</time>
      </trkpt>
      <trkpt lat="42.523027" lon="-8.375813">
        <ele>609.526</ele>
        <time>2018-07-20T16:15:19Z</time>
      </trkpt>
      <trkpt lat="42.522724" lon="-8.376317">
        <ele>606.440</ele>
        <time>2018-07-20T16:15:39Z</time>
      </trkpt>
      <trkpt lat="42.522394" lon="-8.376761">
        <ele>605.531</ele>
        <time>2018-07-20T16:15:59Z</time>
      </trkpt>
      <trkpt lat="42.522023" lon="-8.377219">
        <ele>609.259</ele>
        <time>2018-07-20T16:16:19Z</time>
      </trkpt>
      <trkpt lat="42.521911" lon="-8.377600">
        <ele>610.844</ele>
        <time>2018-07-20T16:16:39Z</time>
      </trkpt>
      <trkpt lat="42.521866" lon="-8.378026">
        <ele>608.035</ele>
        <time>2018-07-20T16:16:59Z</time>
      </trkpt>
      <trkpt lat="42.521911" lon="-8.378287">
        <ele>602.030</ele>
        <time>2018-07-20T16:17:19Z</time>
      </trkpt>
      <trkpt lat="42.521967" lon="-8.378642">
        <ele>592.181</ele>
        <time>2018-07-20T16:17:39Z</time>
      </trkpt>
      <trkpt lat="42.521897" lon="-8.378915">
        <ele>588.175</ele>
        <time>2018-07-20T16:17:59Z</time>
      </trkpt>
      <trkpt lat="42.521736" lon="-8.379185">
        <ele>587.928</ele>
        <time>2018-07-20T16:18:19Z</time>
      </trkpt>
      <trkpt lat="42.521357" lon="-8.379661">
        <ele>583.220</ele>
        <time>2018-07-20T16:18:39Z</time>
      </trkpt>
      <trkpt lat="42.521015" lon="-8.379913">
        <ele>581.608</ele>
        <time>2018-07-20T16:18:59Z</time>
      </trkpt>
      <trkpt lat="42.520650" lon="-8.380346">
        <ele>577.589</ele>
        <time>2018-07-20T16:19:19Z</time>
      </trkpt>
      <trkpt lat="42.520214" lon="-8.380706">
        <ele>578.483</ele>
        <time>2018-07-20T16:19:39Z</time>
      </trkpt>
      <trkpt lat="42.519926" lon="-8.381011">
        <ele>569.294</ele>
        <time>2018-07-20T16:19:59Z</time>
      </trkpt>
      <trkpt lat="42.519465" lon="-8.380921">
        <ele>571.672</ele>
        <time>2018-07-20T16:20:19Z</time>
      </trkpt>
      <trkpt lat="42.519210" lon="-8.380861">
        <ele>574.937</ele>
        <time>2018-07-20T16:20:39Z</time>
      </trkpt>
      <trkpt lat="42.519027" lon="-8.381121">
        <ele>570.348</ele>
        <time>2018-07-20T16:20:59Z</time>
      </trkpt>
      <trkpt lat="42.518722" lon="-8.381495">
        <ele>570.033</ele>
        <time>2018-07-20T16:21:19Z</time>
      </trkpt>
      <trkpt lat="42.518451" lon="-8.381684">
        <ele>572.024</ele>
        <time>2018-07-20T16:21:39Z</time>
      </trkpt>
      <trkpt lat="42.518178" lon="-8.381941">
        <ele>572.156</ele>
        <time>2018-07-20T16:21:59Z</time>
      </trkpt>
      <trkpt lat="42.517931" lon="-8.382264">
        <ele>570.959</ele>
        <time>2018-07-20T16:22:19Z</time>
      </trkpt>
      <trkpt lat="42.517533" lon="-8.382552">
        <ele>571.414</ele>
        <time>2018-07-20T16:22:39Z</time>
      </trkpt>
      <trkpt lat="42.517291" lon="-8.382903">
        <ele>563.408</ele>
        <time>2018-07-20T16:22:59Z</time>
      </trkpt>
      <trkpt lat="42.517066" lon="-8.383112">
        <ele>556.557</ele>
        <time>2018-07-20T16:23:19Z</time>
      </trkpt>
      <trkpt lat="42.516869" lon="-8.383182">
        <ele>554.781</ele>
        <time>2018-07-20T16:23:39Z</time>
      </trkpt>
      <trkpt lat="42.516579" lon="-8.383250">
        <ele>557.212</ele>
        <time>2018-07-20T16:23:59Z</time>
      </trkpt>
      <trkpt lat="42.516439" lon="-8.383387">
        <ele>556.870</ele>
        <time>2018-07-20T16:24:19Z</time>
      </trkpt>
      <trkpt lat="42.516443" lon="-8.383592">
        <ele>550.475</ele>
        <time>2018-07-20T16:24:39Z</time>
      </trkpt>
      <trkpt lat="42.516189" lon="-8.383963">
        <ele>562.946</ele>
        <time>2018-07-20T16:24:59Z</time>
      </trkpt>
      <trkpt lat="42.516027" lon="-8.384364">
        <ele>574.691</ele>
        <time>2018-07-20T16:25:19Z</time>
      </trkpt>
      <trkpt lat="42.516096" lon="-8.384842">
        <ele>564.482</ele>
        <time>2018-07-20T16:25:39Z</time>
      </trkpt>
      <trkpt lat="42.516093" lon="-8.385184">
        <ele>558.184</ele>
        <time>2018-07-20T16:25:59Z</time>
      </trkpt>
      <trkpt lat="42.515764" lon="-8.385288">
        <ele>560.707</ele>
        <time>2018-07-20T16:26:19Z</time>
      </trkpt>
      <trkpt lat="42.515422" lon="-8.385161">
        <ele>565.217</ele>
        <time>2018-07-20T16:26:39Z</time>
      </trkpt>
      <trkpt lat="42.515231" lon="-8.385087">
        <ele>566.108</ele>
        <time>2018-07-20T16:26:59Z</time>
      </trkpt>
      <trkpt lat="42.515010" lon="-8.384960">
        <ele>566.590</ele>
        <time>2018-07-20T16:27:19Z</time>
      </trkpt>
      <trkpt lat="42.514755" lon="-8.384835">
        <ele>565.984</ele>
        <time>2018-07-20T16:27:39Z</time>
      </trkpt>
      <trkpt lat="42.514512" lon="-8.384749">
        <ele>566.765</ele>
        <time>2018-07-20T16:27:59Z</time>
      </trkpt>
      <trkpt lat="42.514182" lon="-8.384697">
        <ele>570.673</ele>
        <time>2018-07-20T16:28:19Z</time>
      </trkpt>
      <trkpt lat="42.513885" lon="-8.384637">
        <ele>576.488</ele>
        <time>2018-07-20T16:28:39Z</time>
      </trkpt>
      <trkpt lat="42.513430" lon="-8.384584">
        <ele>579.049</ele>
        <time>2018-07-20T16:28:59Z</time>
      </trkpt>
      <trkpt lat="42.513094" lon="-8.384600">
        <ele>579.274</ele>
        <time>2018-07-20T16:29:19Z</time>
      </trkpt>
      <trkpt lat="42.512837" lon="-8.384579">
        <ele>582.975</ele>
        <time>2018-07-20T16:29:39Z</time>
      </trkpt>
      <trkpt lat="42.512665" lon="-8.384598">
        <ele>585.474</ele>
        <time>2018-07-20T16:29:59Z</time>
      </trkpt>
      <trkpt lat="42.512366" lon="-8.384667">
        <ele>589.256</ele>
        <time>2018-07-20T16:30:19Z</time>
      </trkpt>
      <trkpt lat="42.512100" lon="-8.384843">
        <ele>588.221</ele>
        <time>2018-07-20T16:30:39Z</time>
      </trkpt>
      <trkpt lat="42.511769" lon="-8.384921">
        <ele>591.008</ele>
        <time>2018-07-20T16:30:59Z</time>
      </trkpt>
      <trkpt lat="42.511518" lon="-8.385090">
        <ele>589.929</ele>
        <time>2018-07-20T16:31:19Z</time>
      </trkpt>
      <trkpt lat="42.511173" lon="-8.385211">
        <ele>591.463</ele>
        <time>2018-07-20T16:31:39Z</time>
      </trkpt>
      <trkpt lat="42.510940" lon="-8.385269">
        <ele>592.834</ele>
        <time>2018-07-20T16:31:59Z</time>
      </trkpt>
      <trkpt lat="42.510700" lon="-8.385305">
        <ele>594.732</ele>
        <time>2018-07-20T16:32:19Z</time>
      </trkpt>
      <trkpt lat="42.510507" lon="-8.385413">
        <ele>593.117</ele>
        <time>2018-07-20T16:32:39Z</time>
      </trkpt>
      <trkpt lat="42.510366" lon="-8.385319">
        <ele>595.818</ele>
        <time>2018-07-20T16:32:59Z</time>
      </trkpt>
      <trkpt lat="42.510199" lon="-8.385143">
        <ele>600.953</ele>
        <time>2018-07-20T16:33:19Z</time>
      </trkpt>
      <trkpt lat="42.510160" lon="-8.385057">
        <ele>603.664</ele>
        <time>2018-07-20T16:33:39Z</time>
      </trkpt>
      <trkpt lat="42.510033" lon="-8.384975">
        <ele>606.198</ele>
        <time>2018-07-20T16:33:59Z</time>
      </trkpt>
      <trkpt lat="42.509933" lon="-8.384986">
        <ele>606.515</ele>
        <time>2018-07-20T16:34:19Z</time>
      </trkpt>
      <trkpt lat="42.509585" lon="-8.384967">
        <ele>612.926</ele>
        <time>2018-07-20T16:34:39Z</time>
      </trkpt>
      <trkpt lat="42.509525" lon="-8.385190">
        <ele>606.408</ele>
        <time>2018-07-20T16:34:59Z</time>
      </trkpt>
      <trkpt lat="42.509281" lon="-8.385235">
        <ele>610.461</ele>
        <time>2018-07-20T16:35:19Z</time>
      </trkpt>
      <trkpt lat="42.509171" lon="-8.385271">
        <ele>612.165</ele>
        <time>2018-07-20T16:35:39Z</time>
      </trkpt>
      <trkpt lat="42.509077" lon="-8.385343">
        <ele>614.836</ele>
        <time>2018-07-20T16:35:59Z</time>
      </trkpt>
      <trkpt lat="42.508946" lon="-8.385500">
        <ele>619.384</ele>
        <time>2018-07-20T16:36:19Z</time>
      </trkpt>
      <trkpt lat="42.508991" lon="-8.385773">
        <ele>614.149</ele>
        <time>2018-07-20T16:36:39Z</time>
      </trkpt>
      <trkpt lat="42.508953" lon="-8.386007">
        <ele>613.570</ele>
        <time>2018-07-20T16:36:59Z</time>
      </trkpt>
      <trkpt lat="42.508852" lon="-8.386288">
        <ele>614.675</ele>
        <time>2018-07-20T16:37:19Z</time>
      </trkpt>
      <trkpt lat="42.508793" lon="-8.386638">
        <ele>612.876</ele>
        <time>2018-07-20T16:37:39Z</time>
      </trkpt>
      <trkpt lat="42.508663" lon="-8.386693">
        <ele>615.412</ele>
        <time>2018-07-20T16:37:59Z</time>
      </trkpt>
      <trkpt lat="42.508503" lon="-8.386922">
        <ele>616.332</ele>
        <time>2018-07-20T16:38:19Z</time>
      </trkpt>
      <trkpt lat="42.508359" lon="-8.387039">
        <ele>616.605</ele>
        <time>2018-07-20T16:38:39Z</time>
      </trkpt>
      <trkpt lat="42.508226" lon="-8.387205">
        <ele>615.708</ele>
        <time>2018-07-20T16:38:59Z</time>
      </trkpt>
      <trkpt lat="42.508013" lon="-8.387338">
        <ele>616.383</ele>
        <time>2018-07-20T16:39:19Z</time>
      </trkpt>
      <trkpt lat="42.507815" lon="-8.387384">
        <ele>619.747</ele>
        <time>2018-07-20T16:39:39Z</time>
      </trkpt>
      <trkpt lat="42.507617" lon="-8.387407">
        <ele>620.598</ele>
        <time>2018-07-20T16:39:59Z</time>
      </trkpt>
      <trkpt lat="42.507468" lon="-8.387421">
        <ele>620.676</ele>
        <time>2018-07-20T16:40:19Z</time>
      </trkpt>
      <trkpt lat="42.507283" lon="-8.387441">
        <ele>621.161</ele>
        <time>2018-07-20T16:40:39Z</time>
      </trkpt>
      <trkpt lat="42.507077" lon="-8.387415">
        <ele>625.612</ele>
        <time>2018-07-20T16:40:59Z</time>
      </trkpt>
      <trkpt lat="42.506895" lon="-8.387431">
        <ele>626.197</ele>
        <time>2018-07-20T16:41:19Z</time>
      </trkpt>
      <trkpt lat="42.506636" lon="-8.387393">
        <ele>624.638</ele>
        <time>2018-07-20T16:41:39Z</time>
      </trkpt>
      <trkpt lat="42.506378" lon="-8.387285">
        <ele>626.924</ele>
        <time>2018-07-20T16:41:59Z</time>
      </trkpt>
      <trkpt lat="42.506234" lon="-8.387142">
        <ele>634.804</ele>
        <time>2018-07-20T16:42:19Z</time>
      </trkpt>
      <trkpt lat="42.506105" lon="-8.387022">
        <ele>640.814</ele>
        <time>2018-07-20T16:42:39Z</time>
      </trkpt>
      <trkpt lat="42.505978" lon="-8.386975">
        <ele>643.408</ele>
        <time>2018-07-20T16:42:59Z</time>
      </trkpt>
      <trkpt lat="42.505852" lon="-8.387010">
        <ele>641.524</ele>
        <time>2018-07-20T16:43:19Z</time>
      </trkpt>
      <trkpt lat="42.505805" lon="-8.387055">
        <ele>639.248</ele>
        <time>2018-07-20T16:43:39Z</time>
      </trkpt>
      <trkpt lat="42.505625" lon="-8.386998">
        <ele>642.569</ele>
        <time>2018-07-20T16:43:59Z</time>
      </trkpt>
      <trkpt lat="42.505539" lon="-8.386980">
        <ele>644.187</ele>
        <time>2018-07-20T16:44:19Z</time>
      </trkpt>
      <trkpt lat="42.505476" lon="-8.387008">
        <ele>645.242</ele>
        <time>2018-07-20T16:44:39Z</time>
      </trkpt>
      <trkpt lat="42.505468" lon="-8.387097">
        <ele>641.773</ele>
        <time>2018-07-20T16:44:59Z</time>
      </trkpt>
      <trkpt lat="42.505419" lon="-8.387229">
        <ele>638.268</ele>
        <time>2018-07-20T16:45:19Z</time>
      </trkpt>
      <trkpt lat="42.505299" lon="-8.387367">
        <ele>639.049</ele>
        <time>2018-07-20T16:45:39Z</time>
      </trkpt>
      <trkpt lat="42.505311" lon="-8.387589">
        <ele>632.279</ele>
        <time>2018-07-20T16:45:59Z</time>
      </trkpt>
      <trkpt lat="42.505241" lon="-8.387816">
        <ele>628.405</ele>
        <time>2018-07-20T16:46:19Z</time>
      </trkpt>
      <trkpt lat="42.505098" lon="-8.387906">
        <ele>631.225</ele>
        <time>2018-07-20T16:46:39Z</time>
      </trkpt>
      <trkpt lat="42.504995" lon="-8.387956">
        <ele>633.608</ele>
        <time>2018-07-20T16:46:59Z</time>
      </trkpt>
      <trkpt lat="42.504877" lon="-8.387994">
        <ele>635.739</ele>
        <time>2018-07-20T16:47:19Z</time>
      </trkpt>
      <trkpt lat="42.504764" lon="-8.387996">
        <ele>638.443</ele>
        <time>2018-07-20T16:47:39Z</time>
      </trkpt>
      <trkpt lat="42.504682" lon="-8.388024">
        <ele>640.094</ele>
        <time>2018-07-20T16:47:59Z</time>
      </trkpt>
      <trkpt lat="42.504599" lon="-8.388079">
        <ele>641.312</ele>
        <time>2018-07-20T16:48:19Z</time>
      </trkpt>
      <trkpt lat="42.504476" lon="-8.388141">
        <ele>644.427</ele>
        <time>2018-07-20T16:48:39Z</time>
      </trkpt>
      <trkpt lat="42.504360" lon="-8.388225">
        <ele>648.678</ele>
        <time>2018-07-20T16:48:59Z</time>
      </trkpt>
      <trkpt lat="42.504395" lon="-8.388468">
        <ele>647.413</ele>
        <time>2018-07-20T16:49:19Z</time>
      </trkpt>
      <trkpt lat="42.504459" lon="-8.388631">
        <ele>645.664</ele>
        <time>2018-07-20T16:49:39Z</time>
      </trkpt>
      <trkpt lat="42.504565" lon="-8.388987">
        <ele>645.494</ele>
        <time>2018-07-20T16:49:59Z</time>
      </trkpt>
      <trkpt lat="42.504730" lon="-8.389262">
        <ele>643.157</ele>
        <time>2018-07-20T16:50:19Z</time>
      </trkpt>
      <trkpt lat="42.504984" lon="-8.389534">
        <ele>639.122</ele>
        <time>2018-07-20T16:50:39Z</time>
      </trkpt>
      <trkpt lat="42.505107" lon="-8.389724">
        <ele>638.508</ele>
        <time>2018-07-20T16:50:59Z</time>
      </trkpt>
      <trkpt lat="42.505090" lon="-8.389946">
        <ele>639.921</ele>
        <time>2018-07-20T16:51:19Z</time>
      </trkpt>
      <trkpt lat="42.505015" lon="-8.390154">
        <ele>641.445</ele>
        <time>2018-07-20T16:51:39Z</time>
      </trkpt>
      <trkpt lat="42.504839" lon="-8.390422">
        <ele>643.886</ele>
        <time>2018-07-20T16:51:59Z</time>
      </trkpt>
      <trkpt lat="42.504751" lon="-8.390726">
        <ele>640.774</ele>
        <time>2018-07-20T16:52:19Z</time>
      </trkpt>
      <trkpt lat="42.504562" lon="-8.390880">
        <ele>641.979</ele>
        <time>2018-07-20T16:52:39Z</time>
      </trkpt>
      <trkpt lat="42.504399" lon="-8.391104">
        <ele>640.590</ele>
        <time>2018-07-20T16:52:59Z</time>
      </trkpt>
      <trkpt lat="42.504116" lon="-8.391266">
        <ele>643.685</ele>
        <time>2018-07-20T16:53:19Z</time>
      </trkpt>
      <trkpt lat="42.503858" lon="-8.391371">
        <ele>644.826</ele>
        <time>2018-07-20T16:53:39Z</time>
      </trkpt>
      <trkpt lat="42.503514" lon="-8.391374">
        <ele>646.333</ele>
        <time>2018-07-20T16:53:59Z</time>
      </trkpt>
      <trkpt lat="42.503094" lon="-8.391452">
        <ele>651.923</ele>
        <time>2018-07-20T16:54:19Z</time>
      </trkpt>
      <trkpt lat="42.502767" lon="-8.391537">
        <ele>654.415</ele>
        <time>2018-07-20T16:54:39Z</time>
      </trkpt>
      <trkpt lat="42.502436" lon="-8.391709">
        <ele>658.208</ele>
        <time>2018-07-20T16:54:59Z</time>
      </trkpt>
      <trkpt lat="42.502237" lon="-8.391814">
        <ele>660.215</ele>
        <time>2018-07-20T16:55:19Z</time>
      </trkpt>
      <trkpt lat="42.502070" lon="-8.391873">
        <ele>661.439</ele>
        <time>2018-07-20T16:55:39Z</time>
      </trkpt>
      <trkpt lat="42.501936" lon="-8.391955">
        <ele>662.010</ele>
        <time>2018-07-20T16:55:59Z</time>
      </trkpt>
      <trkpt lat="42.501853" lon="-8.392074">
        <ele>662.838</ele>
        <time>2018-07-20T16:56:19Z</time>
      </trkpt>
      <trkpt lat="42.501823" lon="-8.392275">
        <ele>660.623</ele>
        <time>2018-07-20T16:56:39Z</time>
      </trkpt>
      <trkpt lat="42.501818" lon="-8.392436">
        <ele>657.664</ele>
        <time>2018-07-20T16:56:59Z</time>
      </trkpt>
      <trkpt lat="42.501728" lon="-8.392658">
        <ele>655.539</ele>
        <time>2018-07-20T16:57:19Z</time>
      </trkpt>
      <trkpt lat="42.501644" lon="-8.392912">
        <ele>651.190</ele>
        <time>2018-07-20T16:57:39Z</time>
      </trkpt>
      <trkpt lat="42.501467" lon="-8.393023">
        <ele>654.479</ele>
        <time>2018-07-20T16:57:59Z</time>
      </trkpt>
      <trkpt lat="42.501323" lon="-8.393098">
        <ele>656.905</ele>
        <time>2018-07-20T16:58:19Z</time>
      </trkpt>
      <trkpt lat="42.501202" lon="-8.393214">
        <ele>656.825</ele>
        <time>2018-07-20T16:58:39Z</time>
      </trkpt>
      <trkpt lat="42.501025" lon="-8.393276">
        <ele>658.508</ele>
        <time>2018-07-20T16:58:59Z</time>
      </trkpt>
      <trkpt lat="42.500822" lon="-8.393311">
        <ele>660.179</ele>
        <time>2018-07-20T16:59:19Z</time>
      </trkpt>
      <trkpt lat="42.500621" lon="-8.393492">
        <ele>658.353</ele>
        <time>2018-07-20T16:59:39Z</time>
      </trkpt>
      <trkpt lat="42.500437" lon="-8.393515">
        <ele>660.824</ele>
        <time>2018-07-20T16:59:59Z</time>
      </trkpt>
      <trkpt lat="42.500358" lon="-8.393673">
        <ele>656.172</ele>
        <time>2018-07-20T17:00:19Z</time>
      </trkpt>
      <trkpt lat="42.500244" lon="-8.393772">
        <ele>653.647</ele>
        <time>2018-07-20T17:00:39Z</time>
      </trkpt>
      <trkpt lat="42.500089" lon="-8.393786">
        <ele>652.238</ele>
        <time>2018-07-20T17:00:59Z</time>
      </trkpt>
      <trkpt lat="42.499907" lon="-8.393753">
        <ele>651.743</ele>
        <time>2018-07-20T17:01:19Z</time>
      </trkpt>
      <trkpt lat="42.499649" lon="-8.393495">
        <ele>659.874</ele>
        <time>2018-07-20T17:01:39Z</time>
      </trkpt>
      <trkpt lat="42.499535" lon="-8.393399">
        <ele>662.787</ele>
        <time>2018-07-20T17:01:59Z</time>
      </trkpt>
      <trkpt lat="42.499424" lon="-8.393370">
        <ele>662.942</ele>
        <time>2018-07-20T17:02:19Z</time>
      </trkpt>
      <trkpt lat="42.499307" lon="-8.393471">
        <ele>660.326</ele>
        <time>2018-07-20T17:02:39Z</time>
      </trkpt>
      <trkpt lat="42.499222" lon="-8.393500">
        <ele>659.908</ele>
        <time>2018-07-20T17:02:59Z</time>
      </trkpt>
      <trkpt lat="42.499128" lon="-8.393455">
        <ele>663.070</ele>
        <time>2018-07-20T17:03:19Z</time>
      </trkpt>
      <trkpt lat="42.499028" lon="-8.393435">
        <ele>666.184</ele>
        <time>2018-07-20T17:03:39Z</time>
      </trkpt>
      <trkpt lat="42.498777" lon="-8.393462">
        <ele>669.365</ele>
        <time>2018-07-20T17:03:59Z</time>
      </trkpt>
      <trkpt lat="42.498671" lon="-8.393432">
        <ele>671.853</ele>
        <time>2018-07-20T17:04:19Z</time>
      </trkpt>
      <trkpt lat="42.498586" lon="-8.393415">
        <ele>673.868</ele>
        <time>2018-07-20T17:04:39Z</time>
      </trkpt>
      <trkpt lat="42.498484" lon="-8.393437">
        <ele>676.319</ele>
        <time>2018-07-20T17:04:59Z</time>
      </trkpt>
      <trkpt lat="42.498418" lon="-8.393523">
        <ele>675.764</ele>
        <time>2018-07-20T17:05:19Z</time>
      </trkpt>
      <trkpt lat="42.498386" lon="-8.393602">
        <ele>674.445</ele>
        <time>2018-07-20T17:05:39Z</time>
      </trkpt>
      <trkpt lat="42.498304" lon="-8.393754">
        <ele>674.539</ele>
        <time>2018-07-20T17:05:59Z</time>
      </trkpt>
      <trkpt lat="42.498325" lon="-8.393870">
        <ele>670.901</ele>
        <time>2018-07-20T17:06:19Z</time>
      </trkpt>
      <trkpt lat="42.498343" lon="-8.394035">
        <ele>666.921</ele>
        <time>2018-07-20T17:06:39Z</time>
      </trkpt>
      <trkpt lat="42.498361" lon="-8.394148">
        <ele>663.908</ele>
        <time>2018-07-20T17:06:59Z</time>
      </trkpt>
      <trkpt lat="42.498341" lon="-8.394294">
        <ele>662.315</ele>
        <time>2018-07-20T17:07:19Z</time>
      </trkpt>
      <trkpt lat="42.498292" lon="-8.394359">
        <ele>663.359</ele>
        <time>2018-07-20T17:07:39Z</time>
      </trkpt>
      <trkpt lat="42.498189" lon="-8.394416">
        <ele>666.490</ele>
        <time>2018-07-20T17:07:59Z</time>
      </trkpt>
      <trkpt lat="42.498071" lon="-8.394532">
        <ele>668.228</ele>
        <time>2018-07-20T17:08:19Z</time>
      </trkpt>
      <trkpt lat="42.497934" lon="-8.394607">
        <ele>672.323</ele>
        <time>2018-07-20T17:08:39Z</time>
      </trkpt>
      <trkpt lat="42.497854" lon="-8.394659">
        <ele>674.134</ele>
        <time>2018-07-20T17:08:59Z</time>
      </trkpt>
      <trkpt lat="42.497732" lon="-8.394787">
        <ele>676.379</ele>
        <time>2018-07-20T17:09:19Z</time>
      </trkpt>
      <trkpt lat="42.497683" lon="-8.394869">
        <ele>677.540</ele>
        <time>2018-07-20T17:09:39Z</time>
      </trkpt>
      <trkpt lat="42.497626" lon="-8.395035">
        <ele>677.994</ele>
        <time>2018-07-20T17:09:59Z</time>
      </trkpt>
      <trkpt lat="42.497619" lon="-8.395183">
        <ele>677.057</ele>
        <time>2018-07-20T17:10:19Z</time>
      </trkpt>
      <trkpt lat="42.497649" lon="-8.395372">
        <ele>674.322</ele>
        <time>2018-07-20T17:10:39Z</time>
      </trkpt>
      <trkpt lat="42.497722" lon="-8.395679">
        <ele>669.308</ele>
        <time>2018-07-20T17:10:59Z</time>
      </trkpt>
      <trkpt lat="42.497873" lon="-8.396116">
        <ele>657.851</ele>
        <time>2018-07-20T17:11:19Z</time>
      </trkpt>
      <trkpt lat="42.497861" lon="-8.396455">
        <ele>656.455</ele>
        <time>2018-07-20T17:11:39Z</time>
      </trkpt>
      <trkpt lat="42.497907" lon="-8.396822">
        <ele>650.286</ele>
        <time>2018-07-20T17:11:59Z</time>
      </trkpt>
      <trkpt lat="42.497947" lon="-8.397159">
        <ele>643.294</ele>
        <time>2018-07-20T17:12:19Z</time>
      </trkpt>
      <trkpt lat="42.497940" lon="-8.397470">
        <ele>638.279</ele>
        <time>2018-07-20T17:12:39Z</time>
      </trkpt>
      <trkpt lat="42.497852" lon="-8.397818">
        <ele>633.970</ele>
        <time>2018-07-20T17:12:59Z</time>
      </trkpt>
      <trkpt lat="42.497653" lon="-8.398035">
        <ele>632.315</ele>
        <time>2018-07-20T17:13:19Z</time>
      </trkpt>
      <trkpt lat="42.497487" lon="-8.398192">
        <ele>631.476</ele>
        <time>2018-07-20T17:13:39Z</time>
      </trkpt>
      <trkpt lat="42.497263" lon="-8.398378">
        <ele>631.588</ele>
        <time>2018-07-20T17:13:59Z</time>
      </trkpt>
      <trkpt lat="42.497099" lon="-8.398528">
        <ele>633.324</ele>
        <time>2018-07-20T17:14:19Z</time>
      </trkpt>
      <trkpt lat="42.496983" lon="-8.398597">
        <ele>636.626</ele>
        <time>2018-07-20T17:14:39Z</time>
      </trkpt>
      <trkpt lat="42.496967" lon="-8.398811">
        <ele>631.208</ele>
        <time>2018-07-20T17:14:59Z</time>
      </trkpt>
      <trkpt lat="42.496949" lon="-8.399077">
        <ele>627.120</ele>
        <time>2018-07-20T17:15:19Z</time>
      </trkpt>
      <trkpt lat="42.496878" lon="-8.399202">
        <ele>630.314</ele>
        <time>2018-07-20T17:15:39Z</time>
      </trkpt>
      <trkpt lat="42.496895" lon="-8.399415">
        <ele>626.465</ele>
        <time>2018-07-20T17:15:59Z</time>
      </trkpt>
      <trkpt lat="42.496786" lon="-8.399683">
        <ele>625.083</ele>
        <time>2018-07-20T17:16:19Z</time>
      </trkpt>
      <trkpt lat="42.496722" lon="-8.399905">
        <ele>620.358</ele>
        <time>2018-07-20T17:16:39Z</time>
      </trkpt>
      <trkpt lat="42.496529" lon="-8.400049">
        <ele>620.849</ele>
        <time>2018-07-20T17:16:59Z</time>
      </trkpt>
      <trkpt lat="42.496261" lon="-8.400193">
        <ele>620.894</ele>
        <time>2018-07-20T17:17:19Z</time>
      </trkpt>
      <trkpt lat="42.495955" lon="-8.400253">
        <ele>623.015</ele>
        <time>2018-07-20T17:17:39Z</time>
      </trkpt>
      <trkpt lat="42.495687" lon="-8.400383">
        <ele>621.475</ele>
        <time>2018-07-20T17:17:59Z</time>
      </trkpt>
      <trkpt lat="42.495532" lon="-8.400529">
        <ele>617.428</ele>
        <time>2018-07-20T17:18:19Z</time>
      </trkpt>
      <trkpt lat="42.495386" lon="-8.400709">
        <ele>614.420</ele>
        <time>2018-07-20T17:18:39Z</time>
      </trkpt>
      <trkpt lat="42.495277" lon="-8.400898">
        <ele>611.408</ele>
        <time>2018-07-20T17:18:59Z</time>
      </trkpt>
      <trkpt lat="42.495178" lon="-8.400971">
        <ele>611.959</ele>
        <time>2018-07-20T17:19:19Z</time>
      </trkpt>
      <trkpt lat="42.495038" lon="-8.401065">
        <ele>611.923</ele>
        <time>2018-07-20T17:19:39Z</time>
      </trkpt>
      <trkpt lat="42.494917" lon="-8.401183">
        <ele>611.184</ele>
        <time>2018-07-20T17:19:59Z</time>
      </trkpt>
      <trkpt lat="42.494805" lon="-8.401248">
        <ele>612.112</ele>
        <time>2018-07-20T17:20:19Z</time>
      </trkpt>
      <trkpt lat="42.494691" lon="-8.401333">
        <ele>613.217</ele>
        <time>2018-07-20T17:20:39Z</time>
      </trkpt>
      <trkpt lat="42.494645" lon="-8.401400">
        <ele>613.438</ele>
        <time>2018-07-20T17:20:59Z</time>
      </trkpt>
      <trkpt lat="42.494665" lon="-8.401603">
        <ele>610.583</ele>
        <time>2018-07-20T17:21:19Z</time>
      </trkpt>
      <trkpt lat="42.494699" lon="-8.401864">
        <ele>606.534</ele>
        <time>2018-07-20T17:21:39Z</time>
      </trkpt>
      <trkpt lat="42.494615" lon="-8.402070">
        <ele>605.534</ele>
        <time>2018-07-20T17:21:59Z</time>
      </trkpt>
      <trkpt lat="42.494511" lon="-8.402296">
        <ele>603.155</ele>
        <time>2018-07-20T17:22:19Z</time>
      </trkpt>
      <trkpt lat="42.494372" lon="-8.402508">
        <ele>601.410</ele>
        <time>2018-07-20T17:22:39Z</time>
      </trkpt>
      <trkpt lat="42.494243" lon="-8.402647">
        <ele>600.608</ele>
        <time>2018-07-20T17:22:59Z</time>
      </trkpt>
      <trkpt lat="42.494116" lon="-8.402640">
        <ele>603.335</ele>
        <time>2018-07-20T17:23:19Z</time>
      </trkpt>
      <trkpt lat="42.494007" lon="-8.402780">
        <ele>601.289</ele>
        <time>2018-07-20T17:23:39Z</time>
      </trkpt>
      <trkpt lat="42.493788" lon="-8.403020">
        <ele>597.450</ele>
        <time>2018-07-20T17:23:59Z</time>
      </trkpt>
      <trkpt lat="42.493467" lon="-8.403235">
        <ele>592.518</ele>
        <time>2018-07-20T17:24:19Z</time>
      </trkpt>
      <trkpt lat="42.493354" lon="-8.403265">
        <ele>591.743</ele>
        <time>2018-07-20T17:24:39Z</time>
      </trkpt>
      <trkpt lat="42.493154" lon="-8.403460">
        <ele>589.774</ele>
        <time>2018-07-20T17:24:59Z</time>
      </trkpt>
      <trkpt lat="42.492795" lon="-8.403657">
        <ele>591.679</ele>
        <time>2018-07-20T17:25:19Z</time>
      </trkpt>
      <trkpt lat="42.492599" lon="-8.403873">
        <ele>590.210</ele>
        <time>2018-07-20T17:25:39Z</time>
      </trkpt>
      <trkpt lat="42.492428" lon="-8.404110">
        <ele>588.083</ele>
        <time>2018-07-20T17:25:59Z</time>
      </trkpt>
      <trkpt lat="42.492248" lon="-8.404183">
        <ele>590.025</ele>
        <time>2018-07-20T17:26:19Z</time>
      </trkpt>
      <trkpt lat="42.491840" lon="-8.404226">
        <ele>590.717</ele>
        <time>2018-07-20T17:26:39Z</time>
      </trkpt>
      <trkpt lat="42.491600" lon="-8.404404">
        <ele>585.608</ele>
        <time>2018-07-20T17:26:59Z</time>
      </trkpt>
      <trkpt lat="42.491430" lon="-8.404492">
        <ele>582.840</ele>
        <time>2018-07-20T17:27:19Z</time>
      </trkpt>
      <trkpt lat="42.491631" lon="-8.404355">
        <ele>587.593</ele>
        <time>2018-07-20T09:31:10Z</time>
      </trkpt>
      <trkpt lat="42.491472" lon="-8.404454">
        <ele>583.865</ele>
        <time>2018-07-20T09:31:30Z</time>
      </trkpt>
      <trkpt lat="42.491195" lon="-8.404626">
        <ele>579.921</ele>
        <time>2018-07-20T09:31:50Z</time>
      </trkpt>
      <trkpt lat="42.490889" lon="-8.404757">
        <ele>581.908</ele>
        <time>2018-07-20T09:32:10Z</time>
      </trkpt>
      <trkpt lat="42.490598" lon="-8.404842">
        <ele>585.841</ele>
        <time>2018-07-20T09:32:30Z</time>
      </trkpt>
      <trkpt lat="42.490225" lon="-8.404992">
        <ele>586.085</ele>
        <time>2018-07-20T09:32:50Z</time>
      </trkpt>
      <trkpt lat="42.489983" lon="-8.405149">
        <ele>581.786</ele>
        <time>2018-07-20T09:33:10Z</time>
      </trkpt>
      <trkpt lat="42.489720" lon="-8.405246">
        <ele>577.884</ele>
        <time>2018-07-20T09:33:30Z</time>
      </trkpt>
      <trkpt lat="42.489404" lon="-8.405266">
        <ele>572.919</ele>
        <time>2018-07-20T09:33:50Z</time>
      </trkpt>
      <trkpt lat="42.489010" lon="-8.405289">
        <ele>570.580</ele>
        <time>2018-07-20T09:34:10Z</time>
      </trkpt>
      <trkpt lat="42.488876" lon="-8.405355">
        <ele>570.986</ele>
        <time>2018-07-20T09:34:30Z</time>
      </trkpt>
      <trkpt lat="42.488878" lon="-8.405548">
        <ele>570.213</ele>
        <time>2018-07-20T09:34:50Z</time>
      </trkpt>
      <trkpt lat="42.488867" lon="-8.405704">
        <ele>569.231</ele>
        <time>2018-07-20T09:35:10Z</time>
      </trkpt>
      <trkpt lat="42.488963" lon="-8.405856">
        <ele>567.161</ele>
        <time>2018-07-20T09:35:30Z</time>
      </trkpt>
      <trkpt lat="42.488907" lon="-8.405995">
        <ele>566.707</ele>
        <time>2018-07-20T09:35:50Z</time>
      </trkpt>
      <trkpt lat="42.488850" lon="-8.406113">
        <ele>566.308</ele>
        <time>2018-07-20T09:36:10Z</time>
      </trkpt>
      <trkpt lat="42.488923" lon="-8.406248">
        <ele>564.845</ele>
        <time>2018-07-20T09:36:30Z</time>
      </trkpt>
      <trkpt lat="42.488974" lon="-8.406364">
        <ele>563.899</ele>
        <time>2018-07-20T09:36:50Z</time>
      </trkpt>
      <trkpt lat="42.488937" lon="-8.406482">
        <ele>563.270</ele>
        <time>2018-07-20T09:37:10Z</time>
      </trkpt>
      <trkpt lat="42.488905" lon="-8.406599">
        <ele>562.448</ele>
        <time>2018-07-20T09:37:30Z</time>
      </trkpt>
      <trkpt lat="42.488813" lon="-8.406697">
        <ele>561.423</ele>
        <time>2018-07-20T09:37:50Z</time>
      </trkpt>
      <trkpt lat="42.488703" lon="-8.406794">
        <ele>559.684</ele>
        <time>2018-07-20T09:38:10Z</time>
      </trkpt>
      <trkpt lat="42.488657" lon="-8.406949">
        <ele>557.370</ele>
        <time>2018-07-20T09:38:30Z</time>
      </trkpt>
      <trkpt lat="42.488748" lon="-8.407164">
        <ele>558.097</ele>
        <time>2018-07-20T09:38:50Z</time>
      </trkpt>
      <trkpt lat="42.488773" lon="-8.407339">
        <ele>558.855</ele>
        <time>2018-07-20T09:39:10Z</time>
      </trkpt>
      <trkpt lat="42.488808" lon="-8.407477">
        <ele>559.607</ele>
        <time>2018-07-20T09:39:30Z</time>
      </trkpt>
      <trkpt lat="42.488621" lon="-8.407530">
        <ele>559.417</ele>
        <time>2018-07-20T09:39:50Z</time>
      </trkpt>
      <trkpt lat="42.488497" lon="-8.407565">
        <ele>559.408</ele>
        <time>2018-07-20T09:40:10Z</time>
      </trkpt>
      <trkpt lat="42.488429" lon="-8.407697">
        <ele>560.987</ele>
        <time>2018-07-20T09:40:30Z</time>
      </trkpt>
      <trkpt lat="42.488302" lon="-8.407825">
        <ele>562.841</ele>
        <time>2018-07-20T09:40:50Z</time>
      </trkpt>
      <trkpt lat="42.488257" lon="-8.407956">
        <ele>565.592</ele>
        <time>2018-07-20T09:41:10Z</time>
      </trkpt>
      <trkpt lat="42.488059" lon="-8.408002">
        <ele>565.770</ele>
        <time>2018-07-20T09:41:30Z</time>
      </trkpt>
      <trkpt lat="42.487870" lon="-8.408085">
        <ele>569.145</ele>
        <time>2018-07-20T09:41:50Z</time>
      </trkpt>
      <trkpt lat="42.487736" lon="-8.408133">
        <ele>571.686</ele>
        <time>2018-07-20T09:42:10Z</time>
      </trkpt>
      <trkpt lat="42.487601" lon="-8.408217">
        <ele>575.662</ele>
        <time>2018-07-20T09:42:30Z</time>
      </trkpt>
      <trkpt lat="42.487474" lon="-8.408282">
        <ele>578.659</ele>
        <time>2018-07-20T09:42:50Z</time>
      </trkpt>
      <trkpt lat="42.487351" lon="-8.408452">
        <ele>581.942</ele>
        <time>2018-07-20T09:43:10Z</time>
      </trkpt>
      <trkpt lat="42.487614" lon="-8.408460">
        <ele>581.722</ele>
        <time>2018-07-20T09:43:30Z</time>
      </trkpt>
      <trkpt lat="42.487832" lon="-8.408569">
        <ele>582.414</ele>
        <time>2018-07-20T09:43:50Z</time>
      </trkpt>
      <trkpt lat="42.488104" lon="-8.408614">
        <ele>582.308</ele>
        <time>2018-07-20T09:44:10Z</time>
      </trkpt>
      <trkpt lat="42.488175" lon="-8.408650">
        <ele>583.626</ele>
        <time>2018-07-20T09:44:30Z</time>
      </trkpt>
      <trkpt lat="42.487935" lon="-8.408804">
        <ele>588.570</ele>
        <time>2018-07-20T09:44:50Z</time>
      </trkpt>
      <trkpt lat="42.487529" lon="-8.409078">
        <ele>596.171</ele>
        <time>2018-07-20T09:45:10Z</time>
      </trkpt>
      <trkpt lat="42.487188" lon="-8.409337">
        <ele>602.999</ele>
        <time>2018-07-20T09:45:30Z</time>
      </trkpt>
      <trkpt lat="42.486684" lon="-8.409691">
        <ele>607.524</ele>
        <time>2018-07-20T09:45:50Z</time>
      </trkpt>
      <trkpt lat="42.486440" lon="-8.409905">
        <ele>606.495</ele>
        <time>2018-07-20T09:46:10Z</time>
      </trkpt>
      <trkpt lat="42.486357" lon="-8.409991">
        <ele>606.521</ele>
        <time>2018-07-20T09:46:30Z</time>
      </trkpt>
      <trkpt lat="42.486330" lon="-8.410099">
        <ele>607.268</ele>
        <time>2018-07-20T09:46:50Z</time>
      </trkpt>
      <trkpt lat="42.486403" lon="-8.410215">
        <ele>608.872</ele>
        <time>2018-07-20T09:47:10Z</time>
      </trkpt>
      <trkpt lat="42.486436" lon="-8.410334">
        <ele>609.913</ele>
        <time>2018-07-20T09:47:30Z</time>
      </trkpt>
      <trkpt lat="42.486545" lon="-8.410438">
        <ele>611.814</ele>
        <time>2018-07-20T09:47:50Z</time>
      </trkpt>
      <trkpt lat="42.486560" lon="-8.410617">
        <ele>612.908</ele>
        <time>2018-07-20T09:48:10Z</time>
      </trkpt>
      <trkpt lat="42.486600" lon="-8.410833">
        <ele>615.059</ele>
        <time>2018-07-20T09:48:30Z</time>
      </trkpt>
      <trkpt lat="42.486548" lon="-8.411079">
        <ele>616.153</ele>
        <time>2018-07-20T09:48:50Z</time>
      </trkpt>
      <trkpt lat="42.486518" lon="-8.411177">
        <ele>616.564</ele>
        <time>2018-07-20T09:49:10Z</time>
      </trkpt>
      <trkpt lat="42.486509" lon="-8.411312">
        <ele>617.672</ele>
        <time>2018-07-20T09:49:30Z</time>
      </trkpt>
      <trkpt lat="42.486416" lon="-8.411632">
        <ele>619.897</ele>
        <time>2018-07-20T09:49:50Z</time>
      </trkpt>
      <trkpt lat="42.486372" lon="-8.411883">
        <ele>622.288</ele>
        <time>2018-07-20T09:50:10Z</time>
      </trkpt>
      <trkpt lat="42.486271" lon="-8.412154">
        <ele>623.274</ele>
        <time>2018-07-20T09:50:30Z</time>
      </trkpt>
      <trkpt lat="42.486103" lon="-8.412591">
        <ele>625.631</ele>
        <time>2018-07-20T09:50:50Z</time>
      </trkpt>
      <trkpt lat="42.485939" lon="-8.412934">
        <ele>625.765</ele>
        <time>2018-07-20T09:51:10Z</time>
      </trkpt>
      <trkpt lat="42.485809" lon="-8.413160">
        <ele>624.868</ele>
        <time>2018-07-20T09:51:30Z</time>
      </trkpt>
      <trkpt lat="42.485725" lon="-8.413346">
        <ele>624.314</ele>
        <time>2018-07-20T09:51:50Z</time>
      </trkpt>
      <trkpt lat="42.485640" lon="-8.413589">
        <ele>624.508</ele>
        <time>2018-07-20T09:52:10Z</time>
      </trkpt>
      <trkpt lat="42.485543" lon="-8.413701">
        <ele>624.248</ele>
        <time>2018-07-20T09:52:30Z</time>
      </trkpt>
      <trkpt lat="42.485372" lon="-8.413762">
        <ele>623.262</ele>
        <time>2018-07-20T09:52:50Z</time>
      </trkpt>
      <trkpt lat="42.485248" lon="-8.413797">
        <ele>622.613</ele>
        <time>2018-07-20T09:53:10Z</time>
      </trkpt>
      <trkpt lat="42.485123" lon="-8.413851">
        <ele>622.421</ele>
        <time>2018-07-20T09:53:30Z</time>
      </trkpt>
      <trkpt lat="42.484991" lon="-8.413971">
        <ele>621.766</ele>
        <time>2018-07-20T09:53:50Z</time>
      </trkpt>
      <trkpt lat="42.484901" lon="-8.414075">
        <ele>620.927</ele>
        <time>2018-07-20T09:54:10Z</time>
      </trkpt>
      <trkpt lat="42.484831" lon="-8.414176">
        <ele>619.773</ele>
        <time>2018-07-20T09:54:30Z</time>
      </trkpt>
      <trkpt lat="42.484823" lon="-8.414309">
        <ele>618.710</ele>
        <time>2018-07-20T09:54:50Z</time>
      </trkpt>
      <trkpt lat="42.484803" lon="-8.414470">
        <ele>617.485</ele>
        <time>2018-07-20T09:55:10Z</time>
      </trkpt>
      <trkpt lat="42.484750" lon="-8.414688">
        <ele>615.589</ele>
        <time>2018-07-20T09:55:30Z</time>
      </trkpt>
      <trkpt lat="42.484723" lon="-8.414755">
        <ele>614.817</ele>
        <time>2018-07-20T09:55:50Z</time>
      </trkpt>
      <trkpt lat="42.484753" lon="-8.414828">
        <ele>614.608</ele>
        <time>2018-07-20T09:56:10Z</time>
      </trkpt>
      <trkpt lat="42.484789" lon="-8.414996">
        <ele>614.090</ele>
        <time>2018-07-20T09:56:30Z</time>
      </trkpt>
      <trkpt lat="42.484762" lon="-8.415232">
        <ele>611.954</ele>
        <time>2018-07-20T09:56:50Z</time>
      </trkpt>
      <trkpt lat="42.484737" lon="-8.415477">
        <ele>610.555</ele>
        <time>2018-07-20T09:57:10Z</time>
      </trkpt>
      <trkpt lat="42.484622" lon="-8.415662">
        <ele>608.843</ele>
        <time>2018-07-20T09:57:30Z</time>
      </trkpt>
      <trkpt lat="42.484486" lon="-8.415861">
        <ele>606.398</ele>
        <time>2018-07-20T09:57:50Z</time>
      </trkpt>
      <trkpt lat="42.484376" lon="-8.416030">
        <ele>605.019</ele>
        <time>2018-07-20T09:58:10Z</time>
      </trkpt>
      <trkpt lat="42.484338" lon="-8.416089">
        <ele>604.795</ele>
        <time>2018-07-20T09:58:30Z</time>
      </trkpt>
      <trkpt lat="42.484313" lon="-8.416191">
        <ele>604.242</ele>
        <time>2018-07-20T09:58:50Z</time>
      </trkpt>
      <trkpt lat="42.484300" lon="-8.416265">
        <ele>603.913</ele>
        <time>2018-07-20T09:59:10Z</time>
      </trkpt>
      <trkpt lat="42.484254" lon="-8.416320">
        <ele>603.643</ele>
        <time>2018-07-20T09:59:30Z</time>
      </trkpt>
      <trkpt lat="42.484191" lon="-8.416359">
        <ele>603.207</ele>
        <time>2018-07-20T09:59:50Z</time>
      </trkpt>
      <trkpt lat="42.484101" lon="-8.416416">
        <ele>602.208</ele>
        <time>2018-07-20T10:00:10Z</time>
      </trkpt>
      <trkpt lat="42.484037" lon="-8.416516">
        <ele>601.123</ele>
        <time>2018-07-20T10:00:30Z</time>
      </trkpt>
      <trkpt lat="42.483821" lon="-8.416691">
        <ele>598.257</ele>
        <time>2018-07-20T10:00:50Z</time>
      </trkpt>
      <trkpt lat="42.483532" lon="-8.416911">
        <ele>594.388</ele>
        <time>2018-07-20T10:01:10Z</time>
      </trkpt>
      <trkpt lat="42.483012" lon="-8.417078">
        <ele>589.936</ele>
        <time>2018-07-20T10:01:30Z</time>
      </trkpt>
      <trkpt lat="42.482561" lon="-8.417062">
        <ele>595.391</ele>
        <time>2018-07-20T10:01:50Z</time>
      </trkpt>
      <trkpt lat="42.482077" lon="-8.417041">
        <ele>599.932</ele>
        <time>2018-07-20T10:02:10Z</time>
      </trkpt>
      <trkpt lat="42.481803" lon="-8.417086">
        <ele>602.638</ele>
        <time>2018-07-20T10:02:30Z</time>
      </trkpt>
      <trkpt lat="42.481745" lon="-8.417134">
        <ele>603.865</ele>
        <time>2018-07-20T10:02:50Z</time>
      </trkpt>
      <trkpt lat="42.481792" lon="-8.417361">
        <ele>608.188</ele>
        <time>2018-07-20T10:03:10Z</time>
      </trkpt>
      <trkpt lat="42.481878" lon="-8.417660">
        <ele>614.124</ele>
        <time>2018-07-20T10:03:30Z</time>
      </trkpt>
      <trkpt lat="42.481957" lon="-8.417809">
        <ele>616.326</ele>
        <time>2018-07-20T10:03:50Z</time>
      </trkpt>
      <trkpt lat="42.482066" lon="-8.417985">
        <ele>616.308</ele>
        <time>2018-07-20T10:04:10Z</time>
      </trkpt>
      <trkpt lat="42.482179" lon="-8.418152">
        <ele>613.520</ele>
        <time>2018-07-20T10:04:30Z</time>
      </trkpt>
      <trkpt lat="42.482403" lon="-8.418475">
        <ele>607.044</ele>
        <time>2018-07-20T10:04:50Z</time>
      </trkpt>
      <trkpt lat="42.482697" lon="-8.418963">
        <ele>597.915</ele>
        <time>2018-07-20T10:05:10Z</time>
      </trkpt>
      <trkpt lat="42.482829" lon="-8.419298">
        <ele>593.553</ele>
        <time>2018-07-20T10:05:30Z</time>
      </trkpt>
      <trkpt lat="42.482905" lon="-8.419642">
        <ele>591.678</ele>
        <time>2018-07-20T10:05:50Z</time>
      </trkpt>
      <trkpt lat="42.482921" lon="-8.420011">
        <ele>591.969</ele>
        <time>2018-07-20T10:06:10Z</time>
      </trkpt>
      <trkpt lat="42.482998" lon="-8.420407">
        <ele>589.975</ele>
        <time>2018-07-20T10:06:30Z</time>
      </trkpt>
      <trkpt lat="42.483011" lon="-8.420800">
        <ele>588.842</ele>
        <time>2018-07-20T10:06:50Z</time>
      </trkpt>
      <trkpt lat="42.483015" lon="-8.421066">
        <ele>587.731</ele>
        <time>2018-07-20T10:07:10Z</time>
      </trkpt>
      <trkpt lat="42.483034" lon="-8.421419">
        <ele>586.061</ele>
        <time>2018-07-20T10:07:30Z</time>
      </trkpt>
      <trkpt lat="42.482993" lon="-8.421696">
        <ele>584.007</ele>
        <time>2018-07-20T10:07:50Z</time>
      </trkpt>
      <trkpt lat="42.483048" lon="-8.421930">
        <ele>582.108</ele>
        <time>2018-07-20T10:08:10Z</time>
      </trkpt>
      <trkpt lat="42.483124" lon="-8.422073">
        <ele>582.865</ele>
        <time>2018-07-20T10:08:30Z</time>
      </trkpt>
      <trkpt lat="42.483054" lon="-8.422182">
        <ele>583.739</ele>
        <time>2018-07-20T10:08:50Z</time>
      </trkpt>
      <trkpt lat="42.482905" lon="-8.422279">
        <ele>584.760</ele>
        <time>2018-07-20T10:09:10Z</time>
      </trkpt>
      <trkpt lat="42.482810" lon="-8.422382">
        <ele>585.868</ele>
        <time>2018-07-20T10:09:30Z</time>
      </trkpt>
      <trkpt lat="42.482720" lon="-8.422488">
        <ele>587.363</ele>
        <time>2018-07-20T10:09:50Z</time>
      </trkpt>
      <trkpt lat="42.482661" lon="-8.422646">
        <ele>589.524</ele>
        <time>2018-07-20T10:10:10Z</time>
      </trkpt>
      <trkpt lat="42.482606" lon="-8.422816">
        <ele>591.340</ele>
        <time>2018-07-20T10:10:30Z</time>
      </trkpt>
      <trkpt lat="42.482663" lon="-8.423054">
        <ele>592.897</ele>
        <time>2018-07-20T10:10:50Z</time>
      </trkpt>
      <trkpt lat="42.482680" lon="-8.423078">
        <ele>592.927</ele>
        <time>2018-07-20T10:11:10Z</time>
      </trkpt>
      <trkpt lat="42.482863" lon="-8.423305">
        <ele>593.668</ele>
        <time>2018-07-20T10:11:30Z</time>
      </trkpt>
      <trkpt lat="42.482863" lon="-8.423312">
        <ele>593.614</ele>
        <time>2018-07-20T10:11:50Z</time>
      </trkpt>
      <trkpt lat="42.483029" lon="-8.423535">
        <ele>593.908</ele>
        <time>2018-07-20T10:12:10Z</time>
      </trkpt>
      <trkpt lat="42.483207" lon="-8.423771">
        <ele>595.294</ele>
        <time>2018-07-20T10:12:30Z</time>
      </trkpt>
      <trkpt lat="42.483237" lon="-8.423944">
        <ele>596.218</ele>
        <time>2018-07-20T10:12:50Z</time>
      </trkpt>
      <trkpt lat="42.483121" lon="-8.424133">
        <ele>596.959</ele>
        <time>2018-07-20T10:13:10Z</time>
      </trkpt>
      <trkpt lat="42.482832" lon="-8.424222">
        <ele>596.227</ele>
        <time>2018-07-20T10:13:30Z</time>
      </trkpt>
      <trkpt lat="42.482551" lon="-8.424242">
        <ele>596.082</ele>
        <time>2018-07-20T10:13:50Z</time>
      </trkpt>
      <trkpt lat="42.482274" lon="-8.424220">
        <ele>595.833</ele>
        <time>2018-07-20T10:14:10Z</time>
      </trkpt>
      <trkpt lat="42.481936" lon="-8.423984">
        <ele>596.739</ele>
        <time>2018-07-20T10:14:30Z</time>
      </trkpt>
      <trkpt lat="42.481586" lon="-8.423806">
        <ele>598.816</ele>
        <time>2018-07-20T10:14:50Z</time>
      </trkpt>
      <trkpt lat="42.481292" lon="-8.423555">
        <ele>600.126</ele>
        <time>2018-07-20T10:15:10Z</time>
      </trkpt>
      <trkpt lat="42.480812" lon="-8.423318">
        <ele>602.047</ele>
        <time>2018-07-20T10:15:30Z</time>
      </trkpt>
      <trkpt lat="42.480496" lon="-8.423526">
        <ele>604.811</ele>
        <time>2018-07-20T10:15:50Z</time>
      </trkpt>
      <trkpt lat="42.480419" lon="-8.423723">
        <ele>606.808</ele>
        <time>2018-07-20T10:16:10Z</time>
      </trkpt>
      <trkpt lat="42.480415" lon="-8.423955">
        <ele>608.414</ele>
        <time>2018-07-20T10:16:30Z</time>
      </trkpt>
      <trkpt lat="42.480381" lon="-8.424197">
        <ele>609.748</ele>
        <time>2018-07-20T10:16:50Z</time>
      </trkpt>
      <trkpt lat="42.480298" lon="-8.424412">
        <ele>610.719</ele>
        <time>2018-07-20T10:17:10Z</time>
      </trkpt>
      <trkpt lat="42.480137" lon="-8.424711">
        <ele>612.597</ele>
        <time>2018-07-20T10:17:30Z</time>
      </trkpt>
      <trkpt lat="42.480065" lon="-8.424866">
        <ele>613.882</ele>
        <time>2018-07-20T10:17:50Z</time>
      </trkpt>
      <trkpt lat="42.479874" lon="-8.424973">
        <ele>615.863</ele>
        <time>2018-07-20T10:18:10Z</time>
      </trkpt>
      <trkpt lat="42.479697" lon="-8.424937">
        <ele>616.979</ele>
        <time>2018-07-20T10:18:30Z</time>
      </trkpt>
      <trkpt lat="42.479281" lon="-8.424806">
        <ele>620.146</ele>
        <time>2018-07-20T10:18:50Z</time>
      </trkpt>
      <trkpt lat="42.478853" lon="-8.424708">
        <ele>623.218</ele>
        <time>2018-07-20T10:19:10Z</time>
      </trkpt>
      <trkpt lat="42.478350" lon="-8.424779">
        <ele>628.098</ele>
        <time>2018-07-20T10:19:30Z</time>
      </trkpt>
      <trkpt lat="42.477676" lon="-8.424955">
        <ele>633.617</ele>
        <time>2018-07-20T10:19:50Z</time>
      </trkpt>
      <trkpt lat="42.477038" lon="-8.425037">
        <ele>638.208</ele>
        <time>2018-07-20T10:20:10Z</time>
      </trkpt>
      <trkpt lat="42.476802" lon="-8.425231">
        <ele>639.323</ele>
        <time>2018-07-20T10:20:30Z</time>
      </trkpt>
      <trkpt lat="42.476624" lon="-8.425569">
        <ele>638.517</ele>
        <time>2018-07-20T10:20:50Z</time>
      </trkpt>
      <trkpt lat="42.476419" lon="-8.425943">
        <ele>639.418</ele>
        <time>2018-07-20T10:21:10Z</time>
      </trkpt>
      <trkpt lat="42.476308" lon="-8.426118">
        <ele>639.516</ele>
        <time>2018-07-20T10:21:30Z</time>
      </trkpt>
      <trkpt lat="42.475964" lon="-8.426280">
        <ele>639.041</ele>
        <time>2018-07-20T10:21:50Z</time>
      </trkpt>
      <trkpt lat="42.475642" lon="-8.426354">
        <ele>637.612</ele>
        <time>2018-07-20T10:22:10Z</time>
      </trkpt>
      <trkpt lat="42.475329" lon="-8.426487">
        <ele>638.018</ele>
        <time>2018-07-20T10:22:30Z</time>
      </trkpt>
      <trkpt lat="42.475017" lon="-8.426518">
        <ele>638.935</ele>
        <time>2018-07-20T10:22:50Z</time>
      </trkpt>
      <trkpt lat="42.474386" lon="-8.426288">
        <ele>643.538</ele>
        <time>2018-07-20T10:23:10Z</time>
      </trkpt>
      <trkpt lat="42.473975" lon="-8.426113">
        <ele>644.070</ele>
        <time>2018-07-20T10:23:30Z</time>
      </trkpt>
      <trkpt lat="42.473577" lon="-8.426156">
        <ele>644.717</ele>
        <time>2018-07-20T10:23:50Z</time>
      </trkpt>
      <trkpt lat="42.472990" lon="-8.426243">
        <ele>648.108</ele>
        <time>2018-07-20T10:24:10Z</time>
      </trkpt>
      <trkpt lat="42.472726" lon="-8.426443">
        <ele>650.635</ele>
        <time>2018-07-20T10:24:30Z</time>
      </trkpt>
      <trkpt lat="42.472315" lon="-8.426624">
        <ele>654.259</ele>
        <time>2018-07-20T10:24:50Z</time>
      </trkpt>
      <trkpt lat="42.471917" lon="-8.426814">
        <ele>657.020</ele>
        <time>2018-07-20T10:25:10Z</time>
      </trkpt>
      <trkpt lat="42.471815" lon="-8.427027">
        <ele>656.878</ele>
        <time>2018-07-20T10:25:30Z</time>
      </trkpt>
      <trkpt lat="42.471599" lon="-8.427433">
        <ele>657.283</ele>
        <time>2018-07-20T10:25:50Z</time>
      </trkpt>
      <trkpt lat="42.471451" lon="-8.427903">
        <ele>657.774</ele>
        <time>2018-07-20T10:26:10Z</time>
      </trkpt>
      <trkpt lat="42.471374" lon="-8.428127">
        <ele>658.150</ele>
        <time>2018-07-20T10:26:30Z</time>
      </trkpt>
      <trkpt lat="42.471195" lon="-8.428589">
        <ele>661.337</ele>
        <time>2018-07-20T10:26:50Z</time>
      </trkpt>
      <trkpt lat="42.470948" lon="-8.429055">
        <ele>664.431</ele>
        <time>2018-07-20T10:27:10Z</time>
      </trkpt>
      <trkpt lat="42.470824" lon="-8.429335">
        <ele>666.261</ele>
        <time>2018-07-20T10:27:30Z</time>
      </trkpt>
      <trkpt lat="42.470603" lon="-8.429636">
        <ele>666.307</ele>
        <time>2018-07-20T10:27:50Z</time>
      </trkpt>
      <trkpt lat="42.469798" lon="-8.429791">
        <ele>673.008</ele>
        <time>2018-07-20T10:28:10Z</time>
      </trkpt>
      <trkpt lat="42.469343" lon="-8.429694">
        <ele>672.565</ele>
        <time>2018-07-20T10:28:30Z</time>
      </trkpt>
      <trkpt lat="42.468661" lon="-8.429909">
        <ele>673.799</ele>
        <time>2018-07-20T10:28:50Z</time>
      </trkpt>
      <trkpt lat="42.467750" lon="-8.430090">
        <ele>678.170</ele>
        <time>2018-07-20T10:29:10Z</time>
      </trkpt>
      <trkpt lat="42.467235" lon="-8.430182">
        <ele>679.378</ele>
        <time>2018-07-20T10:29:30Z</time>
      </trkpt>
      <trkpt lat="42.466878" lon="-8.430188">
        <ele>681.213</ele>
        <time>2018-07-20T10:29:50Z</time>
      </trkpt>
      <trkpt lat="42.466390" lon="-8.430593">
        <ele>681.034</ele>
        <time>2018-07-20T10:30:10Z</time>
      </trkpt>
      <trkpt lat="42.466394" lon="-8.430937">
        <ele>681.050</ele>
        <time>2018-07-20T10:30:30Z</time>
      </trkpt>
      <trkpt lat="42.466115" lon="-8.431338">
        <ele>685.827</ele>
        <time>2018-07-20T10:30:50Z</time>
      </trkpt>
      <trkpt lat="42.465570" lon="-8.431599">
        <ele>686.034</ele>
        <time>2018-07-20T10:31:10Z</time>
      </trkpt>
      <trkpt lat="42.464794" lon="-8.431714">
        <ele>686.555</ele>
        <time>2018-07-20T10:31:30Z</time>
      </trkpt>
      <trkpt lat="42.464413" lon="-8.431765">
        <ele>688.910</ele>
        <time>2018-07-20T10:31:50Z</time>
      </trkpt>
      <trkpt lat="42.464200" lon="-8.431935">
        <ele>689.808</ele>
        <time>2018-07-20T10:32:10Z</time>
      </trkpt>
      <trkpt lat="42.464012" lon="-8.432260">
        <ele>688.995</ele>
        <time>2018-07-20T10:32:30Z</time>
      </trkpt>
      <trkpt lat="42.463928" lon="-8.432727">
        <ele>687.189</ele>
        <time>2018-07-20T10:32:50Z</time>
      </trkpt>
      <trkpt lat="42.463815" lon="-8.433307">
        <ele>688.050</ele>
        <time>2018-07-20T10:33:10Z</time>
      </trkpt>
      <trkpt lat="42.464003" lon="-8.433559">
        <ele>685.628</ele>
        <time>2018-07-20T10:33:30Z</time>
      </trkpt>
      <trkpt lat="42.464341" lon="-8.433911">
        <ele>686.093</ele>
        <time>2018-07-20T10:33:50Z</time>
      </trkpt>
      <trkpt lat="42.464721" lon="-8.434182">
        <ele>680.234</ele>
        <time>2018-07-20T10:34:10Z</time>
      </trkpt>
      <trkpt lat="42.465071" lon="-8.434547">
        <ele>677.650</ele>
        <time>2018-07-20T10:34:30Z</time>
      </trkpt>
      <trkpt lat="42.465265" lon="-8.435014">
        <ele>676.357</ele>
        <time>2018-07-20T10:34:50Z</time>
      </trkpt>
      <trkpt lat="42.465376" lon="-8.435405">
        <ele>672.956</ele>
        <time>2018-07-20T10:35:10Z</time>
      </trkpt>
      <trkpt lat="42.465370" lon="-8.435950">
        <ele>672.259</ele>
        <time>2018-07-20T10:35:30Z</time>
      </trkpt>
      <trkpt lat="42.465522" lon="-8.436638">
        <ele>668.314</ele>
        <time>2018-07-20T10:35:50Z</time>
      </trkpt>
      <trkpt lat="42.465771" lon="-8.437308">
        <ele>665.208</ele>
        <time>2018-07-20T10:36:10Z</time>
      </trkpt>
      <trkpt lat="42.465964" lon="-8.437814">
        <ele>666.227</ele>
        <time>2018-07-20T10:36:30Z</time>
      </trkpt>
      <trkpt lat="42.466571" lon="-8.438159">
        <ele>657.161</ele>
        <time>2018-07-20T10:36:50Z</time>
      </trkpt>
      <trkpt lat="42.466971" lon="-8.438200">
        <ele>652.782</ele>
        <time>2018-07-20T10:37:10Z</time>
      </trkpt>
      <trkpt lat="42.467218" lon="-8.438423">
        <ele>650.430</ele>
        <time>2018-07-20T10:37:30Z</time>
      </trkpt>
      <trkpt lat="42.467497" lon="-8.438775">
        <ele>646.565</ele>
        <time>2018-07-20T10:37:50Z</time>
      </trkpt>
      <trkpt lat="42.467483" lon="-8.439367">
        <ele>645.296</ele>
        <time>2018-07-20T10:38:10Z</time>
      </trkpt>
      <trkpt lat="42.467476" lon="-8.439741">
        <ele>645.022</ele>
        <time>2018-07-20T10:38:30Z</time>
      </trkpt>
      <trkpt lat="42.467468" lon="-8.440116">
        <ele>642.329</ele>
        <time>2018-07-20T10:38:50Z</time>
      </trkpt>
      <trkpt lat="42.467760" lon="-8.440363">
        <ele>639.861</ele>
        <time>2018-07-20T10:39:10Z</time>
      </trkpt>
      <trkpt lat="42.467958" lon="-8.440922">
        <ele>636.321</ele>
        <time>2018-07-20T10:39:30Z</time>
      </trkpt>
      <trkpt lat="42.468017" lon="-8.441473">
        <ele>634.613</ele>
        <time>2018-07-20T10:39:50Z</time>
      </trkpt>
      <trkpt lat="42.468046" lon="-8.441797">
        <ele>631.208</ele>
        <time>2018-07-20T10:40:10Z</time>
      </trkpt>
      <trkpt lat="42.467753" lon="-8.442077">
        <ele>627.958</ele>
        <time>2018-07-20T10:40:30Z</time>
      </trkpt>
      <trkpt lat="42.467327" lon="-8.442174">
        <ele>622.132</ele>
        <time>2018-07-20T10:40:50Z</time>
      </trkpt>
      <trkpt lat="42.466997" lon="-8.442157">
        <ele>622.253</ele>
        <time>2018-07-20T10:41:10Z</time>
      </trkpt>
      <trkpt lat="42.466875" lon="-8.442358">
        <ele>619.451</ele>
        <time>2018-07-20T10:41:30Z</time>
      </trkpt>
      <trkpt lat="42.466423" lon="-8.442598">
        <ele>623.356</ele>
        <time>2018-07-20T10:41:50Z</time>
      </trkpt>
      <trkpt lat="42.466169" lon="-8.442927">
        <ele>620.137</ele>
        <time>2018-07-20T10:42:10Z</time>
      </trkpt>
      <trkpt lat="42.465912" lon="-8.443158">
        <ele>615.673</ele>
        <time>2018-07-20T10:42:30Z</time>
      </trkpt>
      <trkpt lat="42.465561" lon="-8.443552">
        <ele>613.050</ele>
        <time>2018-07-20T10:42:50Z</time>
      </trkpt>
      <trkpt lat="42.465318" lon="-8.443869">
        <ele>610.817</ele>
        <time>2018-07-20T10:43:10Z</time>
      </trkpt>
      <trkpt lat="42.465081" lon="-8.444123">
        <ele>608.487</ele>
        <time>2018-07-20T10:43:30Z</time>
      </trkpt>
      <trkpt lat="42.464631" lon="-8.444410">
        <ele>607.115</ele>
        <time>2018-07-20T10:43:50Z</time>
      </trkpt>
      <trkpt lat="42.464269" lon="-8.444781">
        <ele>605.808</ele>
        <time>2018-07-20T10:44:10Z</time>
      </trkpt>
      <trkpt lat="42.463955" lon="-8.444886">
        <ele>604.653</ele>
        <time>2018-07-20T10:44:30Z</time>
      </trkpt>
      <trkpt lat="42.463532" lon="-8.444993">
        <ele>602.147</ele>
        <time>2018-07-20T10:44:50Z</time>
      </trkpt>
      <trkpt lat="42.463058" lon="-8.445095">
        <ele>598.098</ele>
        <time>2018-07-20T10:45:10Z</time>
      </trkpt>
      <trkpt lat="42.462788" lon="-8.445210">
        <ele>594.546</ele>
        <time>2018-07-20T10:45:30Z</time>
      </trkpt>
      <trkpt lat="42.462658" lon="-8.445345">
        <ele>592.071</ele>
        <time>2018-07-20T10:45:50Z</time>
      </trkpt>
      <trkpt lat="42.462563" lon="-8.445563">
        <ele>591.462</ele>
        <time>2018-07-20T10:46:10Z</time>
      </trkpt>
      <trkpt lat="42.462499" lon="-8.445955">
        <ele>590.148</ele>
        <time>2018-07-20T10:46:30Z</time>
      </trkpt>
      <trkpt lat="42.462486" lon="-8.446235">
        <ele>588.055</ele>
        <time>2018-07-20T10:46:50Z</time>
      </trkpt>
      <trkpt lat="42.462452" lon="-8.446487">
        <ele>585.825</ele>
        <time>2018-07-20T10:47:10Z</time>
      </trkpt>
      <trkpt lat="42.462369" lon="-8.446725">
        <ele>583.526</ele>
        <time>2018-07-20T10:47:30Z</time>
      </trkpt>
      <trkpt lat="42.462197" lon="-8.446856">
        <ele>580.808</ele>
        <time>2018-07-20T10:47:50Z</time>
      </trkpt>
      <trkpt lat="42.461853" lon="-8.447020">
        <ele>578.108</ele>
        <time>2018-07-20T10:48:10Z</time>
      </trkpt>
      <trkpt lat="42.461469" lon="-8.447249">
        <ele>575.064</ele>
        <time>2018-07-20T10:48:30Z</time>
      </trkpt>
      <trkpt lat="42.461042" lon="-8.447572">
        <ele>572.758</ele>
        <time>2018-07-20T10:48:50Z</time>
      </trkpt>
      <trkpt lat="42.460843" lon="-8.447683">
        <ele>573.329</ele>
        <time>2018-07-20T10:49:10Z</time>
      </trkpt>
      <trkpt lat="42.460645" lon="-8.447784">
        <ele>573.337</ele>
        <time>2018-07-20T10:49:30Z</time>
      </trkpt>
      <trkpt lat="42.460377" lon="-8.447846">
        <ele>574.152</ele>
        <time>2018-07-20T10:49:50Z</time>
      </trkpt>
      <trkpt lat="42.460199" lon="-8.447964">
        <ele>574.323</ele>
        <time>2018-07-20T10:50:10Z</time>
      </trkpt>
      <trkpt lat="42.460091" lon="-8.448118">
        <ele>575.479</ele>
        <time>2018-07-20T10:50:30Z</time>
      </trkpt>
      <trkpt lat="42.460132" lon="-8.448238">
        <ele>575.616</ele>
        <time>2018-07-20T10:50:50Z</time>
      </trkpt>
      <trkpt lat="42.460293" lon="-8.448427">
        <ele>574.812</ele>
        <time>2018-07-20T10:51:10Z</time>
      </trkpt>
      <trkpt lat="42.460503" lon="-8.448628">
        <ele>572.232</ele>
        <time>2018-07-20T10:51:30Z</time>
      </trkpt>
      <trkpt lat="42.460804" lon="-8.448913">
        <ele>564.905</ele>
        <time>2018-07-20T10:51:50Z</time>
      </trkpt>
      <trkpt lat="42.460990" lon="-8.449185">
        <ele>561.608</ele>
        <time>2018-07-20T10:52:10Z</time>
      </trkpt>
      <trkpt lat="42.461038" lon="-8.449574">
        <ele>559.023</ele>
        <time>2018-07-20T10:52:30Z</time>
      </trkpt>
      <trkpt lat="42.461030" lon="-8.449883">
        <ele>555.677</ele>
        <time>2018-07-20T10:52:50Z</time>
      </trkpt>
      <trkpt lat="42.460914" lon="-8.450197">
        <ele>554.368</ele>
        <time>2018-07-20T10:53:10Z</time>
      </trkpt>
      <trkpt lat="42.460747" lon="-8.450468">
        <ele>554.056</ele>
        <time>2018-07-20T10:53:30Z</time>
      </trkpt>
      <trkpt lat="42.460353" lon="-8.450820">
        <ele>551.791</ele>
        <time>2018-07-20T10:53:50Z</time>
      </trkpt>
      <trkpt lat="42.460073" lon="-8.451137">
        <ele>549.662</ele>
        <time>2018-07-20T10:54:10Z</time>
      </trkpt>
      <trkpt lat="42.459767" lon="-8.451450">
        <ele>545.278</ele>
        <time>2018-07-20T10:54:30Z</time>
      </trkpt>
      <trkpt lat="42.459481" lon="-8.451659">
        <ele>548.145</ele>
        <time>2018-07-20T10:54:50Z</time>
      </trkpt>
      <trkpt lat="42.459325" lon="-8.451765">
        <ele>548.068</ele>
        <time>2018-07-20T10:55:10Z</time>
      </trkpt>
      <trkpt lat="42.459169" lon="-8.451686">
        <ele>548.942</ele>
        <time>2018-07-20T10:55:30Z</time>
      </trkpt>
      <trkpt lat="42.459010" lon="-8.451525">
        <ele>547.826</ele>
        <time>2018-07-20T10:55:50Z</time>
      </trkpt>
      <trkpt lat="42.458785" lon="-8.451337">
        <ele>549.108</ele>
        <time>2018-07-20T10:56:10Z</time>
      </trkpt>
      <trkpt lat="42.458526" lon="-8.451108">
        <ele>552.468</ele>
        <time>2018-07-20T10:56:30Z</time>
      </trkpt>
      <trkpt lat="42.458400" lon="-8.450983">
        <ele>552.332</ele>
        <time>2018-07-20T10:56:50Z</time>
      </trkpt>
      <trkpt lat="42.458244" lon="-8.450919">
        <ele>550.693</ele>
        <time>2018-07-20T10:57:10Z</time>
      </trkpt>
      <trkpt lat="42.458061" lon="-8.451033">
        <ele>547.641</ele>
        <time>2018-07-20T10:57:30Z</time>
      </trkpt>
      <trkpt lat="42.457871" lon="-8.451240">
        <ele>547.236</ele>
        <time>2018-07-20T10:57:50Z</time>
      </trkpt>
      <trkpt lat="42.457700" lon="-8.451478">
        <ele>546.787</ele>
        <time>2018-07-20T10:58:10Z</time>
      </trkpt>
      <trkpt lat="42.457519" lon="-8.451791">
        <ele>545.523</ele>
        <time>2018-07-20T10:58:30Z</time>
      </trkpt>
      <trkpt lat="42.457230" lon="-8.452042">
        <ele>546.330</ele>
        <time>2018-07-20T10:58:50Z</time>
      </trkpt>
      <trkpt lat="42.456943" lon="-8.452283">
        <ele>546.445</ele>
        <time>2018-07-20T10:59:10Z</time>
      </trkpt>
      <trkpt lat="42.456739" lon="-8.452502">
        <ele>547.347</ele>
        <time>2018-07-20T10:59:30Z</time>
      </trkpt>
      <trkpt lat="42.456669" lon="-8.452625">
        <ele>548.411</ele>
        <time>2018-07-20T10:59:50Z</time>
      </trkpt>
      <trkpt lat="42.456625" lon="-8.452751">
        <ele>549.608</ele>
        <time>2018-07-20T11:00:10Z</time>
      </trkpt>
      <trkpt lat="42.456607" lon="-8.453001">
        <ele>551.986</ele>
        <time>2018-07-20T11:00:30Z</time>
      </trkpt>
      <trkpt lat="42.456645" lon="-8.453152">
        <ele>553.340</ele>
        <time>2018-07-20T11:00:50Z</time>
      </trkpt>
      <trkpt lat="42.456781" lon="-8.453277">
        <ele>554.191</ele>
        <time>2018-07-20T11:01:10Z</time>
      </trkpt>
      <trkpt lat="42.456903" lon="-8.453312">
        <ele>554.029</ele>
        <time>2018-07-20T11:01:30Z</time>
      </trkpt>
      <trkpt lat="42.457020" lon="-8.453346">
        <ele>553.784</ele>
        <time>2018-07-20T11:01:50Z</time>
      </trkpt>
      <trkpt lat="42.457120" lon="-8.453561">
        <ele>553.225</ele>
        <time>2018-07-20T11:02:10Z</time>
      </trkpt>
      <trkpt lat="42.457203" lon="-8.453775">
        <ele>551.711</ele>
        <time>2018-07-20T11:02:30Z</time>
      </trkpt>
      <trkpt lat="42.457360" lon="-8.454058">
        <ele>548.418</ele>
        <time>2018-07-20T11:02:50Z</time>
      </trkpt>
      <trkpt lat="42.457405" lon="-8.454317">
        <ele>547.799</ele>
        <time>2018-07-20T11:03:10Z</time>
      </trkpt>
      <trkpt lat="42.457603" lon="-8.454430">
        <ele>545.107</ele>
        <time>2018-07-20T11:03:30Z</time>
      </trkpt>
      <trkpt lat="42.457902" lon="-8.454522">
        <ele>539.927</ele>
        <time>2018-07-20T11:03:50Z</time>
      </trkpt>
      <trkpt lat="42.458161" lon="-8.454591">
        <ele>535.708</ele>
        <time>2018-07-20T11:04:10Z</time>
      </trkpt>
      <trkpt lat="42.458469" lon="-8.454674">
        <ele>533.371</ele>
        <time>2018-07-20T11:04:30Z</time>
      </trkpt>
      <trkpt lat="42.458636" lon="-8.454823">
        <ele>532.765</ele>
        <time>2018-07-20T11:04:50Z</time>
      </trkpt>
      <trkpt lat="42.458729" lon="-8.455058">
        <ele>531.356</ele>
        <time>2018-07-20T11:05:10Z</time>
      </trkpt>
      <trkpt lat="42.458748" lon="-8.455366">
        <ele>530.964</ele>
        <time>2018-07-20T11:05:30Z</time>
      </trkpt>
      <trkpt lat="42.458598" lon="-8.455726">
        <ele>530.529</ele>
        <time>2018-07-20T11:05:50Z</time>
      </trkpt>
      <trkpt lat="42.458542" lon="-8.455973">
        <ele>529.280</ele>
        <time>2018-07-20T11:06:10Z</time>
      </trkpt>
      <trkpt lat="42.458444" lon="-8.456124">
        <ele>527.886</ele>
        <time>2018-07-20T11:06:30Z</time>
      </trkpt>
      <trkpt lat="42.458335" lon="-8.456163">
        <ele>527.383</ele>
        <time>2018-07-20T11:06:50Z</time>
      </trkpt>
      <trkpt lat="42.458202" lon="-8.456219">
        <ele>527.234</ele>
        <time>2018-07-20T11:07:10Z</time>
      </trkpt>
      <trkpt lat="42.457969" lon="-8.456208">
        <ele>528.855</ele>
        <time>2018-07-20T11:07:30Z</time>
      </trkpt>
      <trkpt lat="42.457667" lon="-8.456218">
        <ele>532.210</ele>
        <time>2018-07-20T11:07:50Z</time>
      </trkpt>
      <trkpt lat="42.457452" lon="-8.456341">
        <ele>535.508</ele>
        <time>2018-07-20T11:08:10Z</time>
      </trkpt>
      <trkpt lat="42.457244" lon="-8.456584">
        <ele>538.195</ele>
        <time>2018-07-20T11:08:30Z</time>
      </trkpt>
      <trkpt lat="42.457184" lon="-8.456865">
        <ele>537.199</ele>
        <time>2018-07-20T11:08:50Z</time>
      </trkpt>
      <trkpt lat="42.457171" lon="-8.457170">
        <ele>535.860</ele>
        <time>2018-07-20T11:09:10Z</time>
      </trkpt>
      <trkpt lat="42.457129" lon="-8.457373">
        <ele>535.188</ele>
        <time>2018-07-20T11:09:30Z</time>
      </trkpt>
      <trkpt lat="42.456988" lon="-8.457548">
        <ele>536.023</ele>
        <time>2018-07-20T11:09:50Z</time>
      </trkpt>
      <trkpt lat="42.456849" lon="-8.457720">
        <ele>535.414</ele>
        <time>2018-07-20T11:10:10Z</time>
      </trkpt>
      <trkpt lat="42.456706" lon="-8.457884">
        <ele>534.510</ele>
        <time>2018-07-20T11:10:30Z</time>
      </trkpt>
      <trkpt lat="42.456468" lon="-8.458155">
        <ele>535.237</ele>
        <time>2018-07-20T11:10:50Z</time>
      </trkpt>
      <trkpt lat="42.456345" lon="-8.458332">
        <ele>536.615</ele>
        <time>2018-07-20T11:11:10Z</time>
      </trkpt>
      <trkpt lat="42.456145" lon="-8.458441">
        <ele>538.765</ele>
        <time>2018-07-20T11:11:30Z</time>
      </trkpt>
      <trkpt lat="42.455953" lon="-8.458561">
        <ele>540.711</ele>
        <time>2018-07-20T11:11:50Z</time>
      </trkpt>
      <trkpt lat="42.455632" lon="-8.458568">
        <ele>544.908</ele>
        <time>2018-07-20T11:12:10Z</time>
      </trkpt>
      <trkpt lat="42.455398" lon="-8.458677">
        <ele>546.073</ele>
        <time>2018-07-20T11:12:30Z</time>
      </trkpt>
      <trkpt lat="42.454979" lon="-8.458798">
        <ele>550.417</ele>
        <time>2018-07-20T11:12:50Z</time>
      </trkpt>
      <trkpt lat="42.454610" lon="-8.458907">
        <ele>555.818</ele>
        <time>2018-07-20T11:13:10Z</time>
      </trkpt>
      <trkpt lat="42.454340" lon="-8.458978">
        <ele>559.516</ele>
        <time>2018-07-20T11:13:30Z</time>
      </trkpt>
      <trkpt lat="42.454221" lon="-8.459079">
        <ele>560.041</ele>
        <time>2018-07-20T11:13:50Z</time>
      </trkpt>
      <trkpt lat="42.454125" lon="-8.459491">
        <ele>560.252</ele>
        <time>2018-07-20T11:14:10Z</time>
      </trkpt>
      <trkpt lat="42.453949" lon="-8.459825">
        <ele>561.218</ele>
        <time>2018-07-20T11:14:30Z</time>
      </trkpt>
      <trkpt lat="42.453727" lon="-8.460366">
        <ele>560.195</ele>
        <time>2018-07-20T11:14:50Z</time>
      </trkpt>
      <trkpt lat="42.453557" lon="-8.460885">
        <ele>558.968</ele>
        <time>2018-07-20T11:15:10Z</time>
      </trkpt>
      <trkpt lat="42.453293" lon="-8.461385">
        <ele>561.942</ele>
        <time>2018-07-20T11:15:30Z</time>
      </trkpt>
      <trkpt lat="42.453059" lon="-8.461324">
        <ele>566.926</ele>
        <time>2018-07-20T11:15:50Z</time>
      </trkpt>
      <trkpt lat="42.452757" lon="-8.461159">
        <ele>571.608</ele>
        <time>2018-07-20T11:16:10Z</time>
      </trkpt>
      <trkpt lat="42.452550" lon="-8.461122">
        <ele>573.628</ele>
        <time>2018-07-20T11:16:30Z</time>
      </trkpt>
      <trkpt lat="42.452320" lon="-8.461132">
        <ele>575.022</ele>
        <time>2018-07-20T11:16:50Z</time>
      </trkpt>
      <trkpt lat="42.452023" lon="-8.461108">
        <ele>576.453</ele>
        <time>2018-07-20T11:17:10Z</time>
      </trkpt>
      <trkpt lat="42.451861" lon="-8.461145">
        <ele>577.091</ele>
        <time>2018-07-20T11:17:30Z</time>
      </trkpt>
      <trkpt lat="42.451701" lon="-8.461305">
        <ele>578.186</ele>
        <time>2018-07-20T11:17:50Z</time>
      </trkpt>
      <trkpt lat="42.451365" lon="-8.461921">
        <ele>585.397</ele>
        <time>2018-07-20T11:18:10Z</time>
      </trkpt>
      <trkpt lat="42.451118" lon="-8.462454">
        <ele>594.023</ele>
        <time>2018-07-20T11:18:30Z</time>
      </trkpt>
      <trkpt lat="42.451115" lon="-8.462467">
        <ele>594.370</ele>
        <time>2018-07-20T11:18:50Z</time>
      </trkpt>
      <trkpt lat="42.450902" lon="-8.462970">
        <ele>599.872</ele>
        <time>2018-07-20T11:19:10Z</time>
      </trkpt>
      <trkpt lat="42.450893" lon="-8.463020">
        <ele>600.313</ele>
        <time>2018-07-20T11:19:30Z</time>
      </trkpt>
      <trkpt lat="42.450536" lon="-8.463742">
        <ele>598.414</ele>
        <time>2018-07-20T11:19:50Z</time>
      </trkpt>
      <trkpt lat="42.450433" lon="-8.464060">
        <ele>599.808</ele>
        <time>2018-07-20T11:20:10Z</time>
      </trkpt>
      <trkpt lat="42.450370" lon="-8.464164">
        <ele>600.389</ele>
        <time>2018-07-20T11:20:30Z</time>
      </trkpt>
      <trkpt lat="42.450426" lon="-8.464227">
        <ele>601.313</ele>
        <time>2018-07-20T11:20:50Z</time>
      </trkpt>
      <trkpt lat="42.450474" lon="-8.464351">
        <ele>602.614</ele>
        <time>2018-07-20T11:21:10Z</time>
      </trkpt>
      <trkpt lat="42.450456" lon="-8.464470">
        <ele>604.272</ele>
        <time>2018-07-20T11:21:30Z</time>
      </trkpt>
      <trkpt lat="42.450263" lon="-8.464576">
        <ele>607.947</ele>
        <time>2018-07-20T11:21:50Z</time>
      </trkpt>
      <trkpt lat="42.450005" lon="-8.464719">
        <ele>611.998</ele>
        <time>2018-07-20T11:22:10Z</time>
      </trkpt>
      <trkpt lat="42.449754" lon="-8.464856">
        <ele>613.084</ele>
        <time>2018-07-20T11:22:30Z</time>
      </trkpt>
      <trkpt lat="42.449601" lon="-8.465067">
        <ele>615.891</ele>
        <time>2018-07-20T11:22:50Z</time>
      </trkpt>
      <trkpt lat="42.449497" lon="-8.465405">
        <ele>618.949</ele>
        <time>2018-07-20T11:23:10Z</time>
      </trkpt>
      <trkpt lat="42.449387" lon="-8.465692">
        <ele>619.402</ele>
        <time>2018-07-20T11:23:30Z</time>
      </trkpt>
      <trkpt lat="42.449254" lon="-8.465858">
        <ele>618.722</ele>
        <time>2018-07-20T11:23:50Z</time>
      </trkpt>
      <trkpt lat="42.449094" lon="-8.466061">
        <ele>618.208</ele>
        <time>2018-07-20T11:24:10Z</time>
      </trkpt>
      <trkpt lat="42.448832" lon="-8.466700">
        <ele>617.396</ele>
        <time>2018-07-20T11:24:30Z</time>
      </trkpt>
      <trkpt lat="42.448759" lon="-8.467037">
        <ele>612.980</ele>
        <time>2018-07-20T11:24:50Z</time>
      </trkpt>
      <trkpt lat="42.448646" lon="-8.467463">
        <ele>604.741</ele>
        <time>2018-07-20T11:25:10Z</time>
      </trkpt>
      <trkpt lat="42.448579" lon="-8.467964">
        <ele>597.149</ele>
        <time>2018-07-20T11:25:30Z</time>
      </trkpt>
      <trkpt lat="42.448402" lon="-8.468327">
        <ele>589.144</ele>
        <time>2018-07-20T11:25:50Z</time>
      </trkpt>
      <trkpt lat="42.448335" lon="-8.468463">
        <ele>585.765</ele>
        <time>2018-07-20T11:26:10Z</time>
      </trkpt>
      <trkpt lat="42.448500" lon="-8.468432">
        <ele>586.321</ele>
        <time>2018-07-20T11:26:30Z</time>
      </trkpt>
      <trkpt lat="42.448665" lon="-8.468398">
        <ele>587.158</ele>
        <time>2018-07-20T11:26:50Z</time>
      </trkpt>
      <trkpt lat="42.448793" lon="-8.468445">
        <ele>585.536</ele>
        <time>2018-07-20T11:27:10Z</time>
      </trkpt>
      <trkpt lat="42.448782" lon="-8.468557">
        <ele>582.117</ele>
        <time>2018-07-20T11:27:30Z</time>
      </trkpt>
      <trkpt lat="42.448662" lon="-8.468682">
        <ele>579.018</ele>
        <time>2018-07-20T11:27:50Z</time>
      </trkpt>
      <trkpt lat="42.448496" lon="-8.468915">
        <ele>573.308</ele>
        <time>2018-07-20T11:28:10Z</time>
      </trkpt>
      <trkpt lat="42.448350" lon="-8.469039">
        <ele>570.225</ele>
        <time>2018-07-20T11:28:30Z</time>
      </trkpt>
      <trkpt lat="42.448100" lon="-8.469404">
        <ele>564.319</ele>
        <time>2018-07-20T11:28:50Z</time>
      </trkpt>
      <trkpt lat="42.447844" lon="-8.469632">
        <ele>564.320</ele>
        <time>2018-07-20T11:29:10Z</time>
      </trkpt>
      <trkpt lat="42.447654" lon="-8.469841">
        <ele>563.018</ele>
        <time>2018-07-20T11:29:30Z</time>
      </trkpt>
      <trkpt lat="42.447522" lon="-8.469948">
        <ele>561.743</ele>
        <time>2018-07-20T11:29:50Z</time>
      </trkpt>
      <trkpt lat="42.447397" lon="-8.470109">
        <ele>559.284</ele>
        <time>2018-07-20T11:30:10Z</time>
      </trkpt>
      <trkpt lat="42.447332" lon="-8.470221">
        <ele>557.080</ele>
        <time>2018-07-20T11:30:30Z</time>
      </trkpt>
      <trkpt lat="42.447267" lon="-8.470342">
        <ele>554.627</ele>
        <time>2018-07-20T11:30:50Z</time>
      </trkpt>
      <trkpt lat="42.446968" lon="-8.471746">
        <ele>549.422</ele>
        <time>2018-07-20T11:31:10Z</time>
      </trkpt>
      <trkpt lat="42.446776" lon="-8.471780">
        <ele>547.362</ele>
        <time>2018-07-20T11:31:30Z</time>
      </trkpt>
      <trkpt lat="42.446852" lon="-8.472667">
        <ele>549.308</ele>
        <time>2018-07-20T11:31:50Z</time>
      </trkpt>
      <trkpt lat="42.447001" lon="-8.473432">
        <ele>555.708</ele>
        <time>2018-07-20T11:32:10Z</time>
      </trkpt>
      <trkpt lat="42.447258" lon="-8.473762">
        <ele>556.724</ele>
        <time>2018-07-20T11:32:30Z</time>
      </trkpt>
      <trkpt lat="42.447364" lon="-8.474047">
        <ele>557.318</ele>
        <time>2018-07-20T11:32:50Z</time>
      </trkpt>
      <trkpt lat="42.447449" lon="-8.474321">
        <ele>558.589</ele>
        <time>2018-07-20T11:33:10Z</time>
      </trkpt>
      <trkpt lat="42.447650" lon="-8.474766">
        <ele>559.957</ele>
        <time>2018-07-20T11:33:30Z</time>
      </trkpt>
      <trkpt lat="42.447658" lon="-8.475311">
        <ele>565.062</ele>
        <time>2018-07-20T11:33:50Z</time>
      </trkpt>
      <trkpt lat="42.447718" lon="-8.475866">
        <ele>563.453</ele>
        <time>2018-07-20T11:34:10Z</time>
      </trkpt>
      <trkpt lat="42.447832" lon="-8.476706">
        <ele>556.769</ele>
        <time>2018-07-20T11:34:30Z</time>
      </trkpt>
      <trkpt lat="42.447814" lon="-8.477121">
        <ele>554.546</ele>
        <time>2018-07-20T11:34:50Z</time>
      </trkpt>
      <trkpt lat="42.447792" lon="-8.477355">
        <ele>552.031</ele>
        <time>2018-07-20T11:35:10Z</time>
      </trkpt>
      <trkpt lat="42.447875" lon="-8.477549">
        <ele>549.561</ele>
        <time>2018-07-20T11:35:30Z</time>
      </trkpt>
      <trkpt lat="42.448048" lon="-8.477805">
        <ele>549.107</ele>
        <time>2018-07-20T11:35:50Z</time>
      </trkpt>
      <trkpt lat="42.448198" lon="-8.478079">
        <ele>551.008</ele>
        <time>2018-07-20T11:36:10Z</time>
      </trkpt>
      <trkpt lat="42.448274" lon="-8.478313">
        <ele>551.615</ele>
        <time>2018-07-20T11:36:30Z</time>
      </trkpt>
      <trkpt lat="42.448269" lon="-8.478586">
        <ele>552.249</ele>
        <time>2018-07-20T11:36:50Z</time>
      </trkpt>
      <trkpt lat="42.448142" lon="-8.478797">
        <ele>552.710</ele>
        <time>2018-07-20T11:37:10Z</time>
      </trkpt>
      <trkpt lat="42.447891" lon="-8.479074">
        <ele>552.058</ele>
        <time>2018-07-20T11:37:30Z</time>
      </trkpt>
      <trkpt lat="42.447582" lon="-8.479472">
        <ele>549.473</ele>
        <time>2018-07-20T11:37:50Z</time>
      </trkpt>
      <trkpt lat="42.447321" lon="-8.479989">
        <ele>550.784</ele>
        <time>2018-07-20T11:38:10Z</time>
      </trkpt>
      <trkpt lat="42.447024" lon="-8.480585">
        <ele>548.320</ele>
        <time>2018-07-20T11:38:30Z</time>
      </trkpt>
      <trkpt lat="42.446729" lon="-8.480853">
        <ele>546.657</ele>
        <time>2018-07-20T11:38:50Z</time>
      </trkpt>
      <trkpt lat="42.446470" lon="-8.481228">
        <ele>541.916</ele>
        <time>2018-07-20T11:39:10Z</time>
      </trkpt>
      <trkpt lat="42.446493" lon="-8.481525">
        <ele>543.476</ele>
        <time>2018-07-20T11:39:30Z</time>
      </trkpt>
      <trkpt lat="42.446633" lon="-8.481927">
        <ele>546.813</ele>
        <time>2018-07-20T11:39:50Z</time>
      </trkpt>
      <trkpt lat="42.446679" lon="-8.482230">
        <ele>546.408</ele>
        <time>2018-07-20T11:40:10Z</time>
      </trkpt>
      <trkpt lat="42.446820" lon="-8.482530">
        <ele>548.693</ele>
        <time>2018-07-20T11:40:30Z</time>
      </trkpt>
      <trkpt lat="42.447064" lon="-8.482998">
        <ele>553.577</ele>
        <time>2018-07-20T11:40:50Z</time>
      </trkpt>
      <trkpt lat="42.447082" lon="-8.483577">
        <ele>555.298</ele>
        <time>2018-07-20T11:41:10Z</time>
      </trkpt>
      <trkpt lat="42.447037" lon="-8.483862">
        <ele>555.836</ele>
        <time>2018-07-20T11:41:30Z</time>
      </trkpt>
      <trkpt lat="42.446859" lon="-8.484058">
        <ele>553.751</ele>
        <time>2018-07-20T11:41:50Z</time>
      </trkpt>
      <trkpt lat="42.446669" lon="-8.484268">
        <ele>552.442</ele>
        <time>2018-07-20T11:42:10Z</time>
      </trkpt>
      <trkpt lat="42.446463" lon="-8.484488">
        <ele>552.338</ele>
        <time>2018-07-20T11:42:30Z</time>
      </trkpt>
      <trkpt lat="42.446340" lon="-8.484672">
        <ele>551.545</ele>
        <time>2018-07-20T11:42:50Z</time>
      </trkpt>
      <trkpt lat="42.446288" lon="-8.484851">
        <ele>552.522</ele>
        <time>2018-07-20T11:43:10Z</time>
      </trkpt>
      <trkpt lat="42.446156" lon="-8.485024">
        <ele>553.662</ele>
        <time>2018-07-20T11:43:30Z</time>
      </trkpt>
      <trkpt lat="42.445938" lon="-8.485181">
        <ele>552.908</ele>
        <time>2018-07-20T11:43:50Z</time>
      </trkpt>
      <trkpt lat="42.445870" lon="-8.485393">
        <ele>554.208</ele>
        <time>2018-07-20T11:44:10Z</time>
      </trkpt>
      <trkpt lat="42.446008" lon="-8.485693">
        <ele>557.134</ele>
        <time>2018-07-20T11:44:30Z</time>
      </trkpt>
      <trkpt lat="42.446506" lon="-8.486205">
        <ele>559.888</ele>
        <time>2018-07-20T11:44:50Z</time>
      </trkpt>
      <trkpt lat="42.446807" lon="-8.486516">
        <ele>560.389</ele>
        <time>2018-07-20T11:45:10Z</time>
      </trkpt>
      <trkpt lat="42.447009" lon="-8.486635">
        <ele>560.787</ele>
        <time>2018-07-20T11:45:30Z</time>
      </trkpt>
      <trkpt lat="42.447268" lon="-8.486586">
        <ele>562.712</ele>
        <time>2018-07-20T11:45:50Z</time>
      </trkpt>
      <trkpt lat="42.447457" lon="-8.486624">
        <ele>564.183</ele>
        <time>2018-07-20T11:46:10Z</time>
      </trkpt>
      <trkpt lat="42.447603" lon="-8.486741">
        <ele>565.989</ele>
        <time>2018-07-20T11:46:30Z</time>
      </trkpt>
      <trkpt lat="42.447639" lon="-8.487012">
        <ele>565.416</ele>
        <time>2018-07-20T11:46:50Z</time>
      </trkpt>
      <trkpt lat="42.447714" lon="-8.487450">
        <ele>565.177</ele>
        <time>2018-07-20T11:47:10Z</time>
      </trkpt>
      <trkpt lat="42.447831" lon="-8.487817">
        <ele>564.561</ele>
        <time>2018-07-20T11:47:30Z</time>
      </trkpt>
      <trkpt lat="42.448247" lon="-8.488030">
        <ele>566.627</ele>
        <time>2018-07-20T11:47:50Z</time>
      </trkpt>
      <trkpt lat="42.448574" lon="-8.487989">
        <ele>567.108</ele>
        <time>2018-07-20T11:48:10Z</time>
      </trkpt>
      <trkpt lat="42.448749" lon="-8.487749">
        <ele>567.279</ele>
        <time>2018-07-20T11:48:30Z</time>
      </trkpt>
      <trkpt lat="42.448756" lon="-8.487484">
        <ele>568.673</ele>
        <time>2018-07-20T11:48:50Z</time>
      </trkpt>
      <trkpt lat="42.448741" lon="-8.487160">
        <ele>571.414</ele>
        <time>2018-07-20T11:49:10Z</time>
      </trkpt>
      <trkpt lat="42.448888" lon="-8.486805">
        <ele>573.012</ele>
        <time>2018-07-20T11:49:30Z</time>
      </trkpt>
      <trkpt lat="42.449222" lon="-8.486644">
        <ele>572.977</ele>
        <time>2018-07-20T11:49:50Z</time>
      </trkpt>
      <trkpt lat="42.449480" lon="-8.486708">
        <ele>570.788</ele>
        <time>2018-07-20T11:50:10Z</time>
      </trkpt>
      <trkpt lat="42.449696" lon="-8.486703">
        <ele>571.444</ele>
        <time>2018-07-20T11:50:30Z</time>
      </trkpt>
      <trkpt lat="42.449827" lon="-8.486714">
        <ele>570.661</ele>
        <time>2018-07-20T11:50:50Z</time>
      </trkpt>
      <trkpt lat="42.449974" lon="-8.486582">
        <ele>571.439</ele>
        <time>2018-07-20T11:51:10Z</time>
      </trkpt>
      <trkpt lat="42.450217" lon="-8.486362">
        <ele>571.401</ele>
        <time>2018-07-20T11:51:30Z</time>
      </trkpt>
      <trkpt lat="42.450468" lon="-8.486220">
        <ele>572.721</ele>
        <time>2018-07-20T11:51:50Z</time>
      </trkpt>
      <trkpt lat="42.450742" lon="-8.485992">
        <ele>576.608</ele>
        <time>2018-07-20T11:52:10Z</time>
      </trkpt>
      <trkpt lat="42.451027" lon="-8.485811">
        <ele>578.815</ele>
        <time>2018-07-20T11:52:30Z</time>
      </trkpt>
      <trkpt lat="42.451435" lon="-8.485934">
        <ele>575.349</ele>
        <time>2018-07-20T11:52:50Z</time>
      </trkpt>
      <trkpt lat="42.451872" lon="-8.486136">
        <ele>570.880</ele>
        <time>2018-07-20T11:53:10Z</time>
      </trkpt>
      <trkpt lat="42.452230" lon="-8.486288">
        <ele>564.698</ele>
        <time>2018-07-20T11:53:30Z</time>
      </trkpt>
      <trkpt lat="42.452501" lon="-8.486433">
        <ele>561.283</ele>
        <time>2018-07-20T11:53:50Z</time>
      </trkpt>
      <trkpt lat="42.452801" lon="-8.486433">
        <ele>562.114</ele>
        <time>2018-07-20T11:54:10Z</time>
      </trkpt>
      <trkpt lat="42.453074" lon="-8.486461">
        <ele>561.150</ele>
        <time>2018-07-20T11:54:30Z</time>
      </trkpt>
      <trkpt lat="42.453285" lon="-8.486621">
        <ele>560.957</ele>
        <time>2018-07-20T11:54:50Z</time>
      </trkpt>
      <trkpt lat="42.453413" lon="-8.486825">
        <ele>560.629</ele>
        <time>2018-07-20T11:55:10Z</time>
      </trkpt>
      <trkpt lat="42.453578" lon="-8.487050">
        <ele>558.900</ele>
        <time>2018-07-20T11:55:30Z</time>
      </trkpt>
      <trkpt lat="42.453732" lon="-8.487273">
        <ele>556.120</ele>
        <time>2018-07-20T11:55:50Z</time>
      </trkpt>
      <trkpt lat="42.453757" lon="-8.487641">
        <ele>552.008</ele>
        <time>2018-07-20T11:56:10Z</time>
      </trkpt>
      <trkpt lat="42.453689" lon="-8.487905">
        <ele>550.294</ele>
        <time>2018-07-20T11:56:30Z</time>
      </trkpt>
      <trkpt lat="42.453735" lon="-8.488114">
        <ele>550.348</ele>
        <time>2018-07-20T11:56:50Z</time>
      </trkpt>
      <trkpt lat="42.453974" lon="-8.488344">
        <ele>552.029</ele>
        <time>2018-07-20T11:57:10Z</time>
      </trkpt>
      <trkpt lat="42.454115" lon="-8.488352">
        <ele>551.917</ele>
        <time>2018-07-20T11:57:30Z</time>
      </trkpt>
      <trkpt lat="42.454117" lon="-8.488497">
        <ele>551.572</ele>
        <time>2018-07-20T11:57:50Z</time>
      </trkpt>
      <trkpt lat="42.454165" lon="-8.488690">
        <ele>550.773</ele>
        <time>2018-07-20T11:58:10Z</time>
      </trkpt>
      <trkpt lat="42.454238" lon="-8.488881">
        <ele>550.329</ele>
        <time>2018-07-20T11:58:30Z</time>
      </trkpt>
      <trkpt lat="42.454469" lon="-8.489096">
        <ele>551.246</ele>
        <time>2018-07-20T11:58:50Z</time>
      </trkpt>
      <trkpt lat="42.454614" lon="-8.489399">
        <ele>554.261</ele>
        <time>2018-07-20T11:59:10Z</time>
      </trkpt>
      <trkpt lat="42.454650" lon="-8.489764">
        <ele>556.021</ele>
        <time>2018-07-20T11:59:30Z</time>
      </trkpt>
      <trkpt lat="42.454624" lon="-8.490212">
        <ele>557.013</ele>
        <time>2018-07-20T11:59:50Z</time>
      </trkpt>
      <trkpt lat="42.454652" lon="-8.490607">
        <ele>558.408</ele>
        <time>2018-07-20T12:00:10Z</time>
      </trkpt>
      <trkpt lat="42.454671" lon="-8.491087">
        <ele>559.358</ele>
        <time>2018-07-20T12:00:30Z</time>
      </trkpt>
      <trkpt lat="42.454733" lon="-8.491534">
        <ele>558.032</ele>
        <time>2018-07-20T12:00:50Z</time>
      </trkpt>
      <trkpt lat="42.454825" lon="-8.492124">
        <ele>555.413</ele>
        <time>2018-07-20T12:01:10Z</time>
      </trkpt>
      <trkpt lat="42.454849" lon="-8.492472">
        <ele>555.061</ele>
        <time>2018-07-20T12:01:30Z</time>
      </trkpt>
      <trkpt lat="42.454876" lon="-8.492736">
        <ele>554.336</ele>
        <time>2018-07-20T12:01:50Z</time>
      </trkpt>
      <trkpt lat="42.454759" lon="-8.493126">
        <ele>550.897</ele>
        <time>2018-07-20T12:02:10Z</time>
      </trkpt>
      <trkpt lat="42.454618" lon="-8.493523">
        <ele>549.393</ele>
        <time>2018-07-20T12:02:30Z</time>
      </trkpt>
      <trkpt lat="42.454342" lon="-8.494040">
        <ele>551.990</ele>
        <time>2018-07-20T12:02:50Z</time>
      </trkpt>
      <trkpt lat="42.453987" lon="-8.494623">
        <ele>552.173</ele>
        <time>2018-07-20T12:03:10Z</time>
      </trkpt>
      <trkpt lat="42.453660" lon="-8.495057">
        <ele>548.385</ele>
        <time>2018-07-20T12:03:30Z</time>
      </trkpt>
      <trkpt lat="42.453402" lon="-8.495348">
        <ele>548.213</ele>
        <time>2018-07-20T12:03:50Z</time>
      </trkpt>
      <trkpt lat="42.453028" lon="-8.495555">
        <ele>549.008</ele>
        <time>2018-07-20T12:04:10Z</time>
      </trkpt>
      <trkpt lat="42.452816" lon="-8.495891">
        <ele>549.129</ele>
        <time>2018-07-20T12:04:30Z</time>
      </trkpt>
      <trkpt lat="42.452586" lon="-8.496076">
        <ele>549.683</ele>
        <time>2018-07-20T12:04:50Z</time>
      </trkpt>
      <trkpt lat="42.452154" lon="-8.496235">
        <ele>550.154</ele>
        <time>2018-07-20T12:05:10Z</time>
      </trkpt>
      <trkpt lat="42.452006" lon="-8.496485">
        <ele>550.522</ele>
        <time>2018-07-20T12:05:30Z</time>
      </trkpt>
      <trkpt lat="42.452000" lon="-8.496536">
        <ele>550.667</ele>
        <time>2018-07-20T12:05:50Z</time>
      </trkpt>
      <trkpt lat="42.451873" lon="-8.497005">
        <ele>548.988</ele>
        <time>2018-07-20T12:06:10Z</time>
      </trkpt>
      <trkpt lat="42.451818" lon="-8.497408">
        <ele>548.474</ele>
        <time>2018-07-20T12:06:30Z</time>
      </trkpt>
      <trkpt lat="42.451665" lon="-8.497838">
        <ele>547.881</ele>
        <time>2018-07-20T12:06:50Z</time>
      </trkpt>
      <trkpt lat="42.451365" lon="-8.498516">
        <ele>544.697</ele>
        <time>2018-07-20T12:07:10Z</time>
      </trkpt>
      <trkpt lat="42.450966" lon="-8.499184">
        <ele>544.623</ele>
        <time>2018-07-20T12:07:30Z</time>
      </trkpt>
      <trkpt lat="42.450645" lon="-8.499555">
        <ele>550.325</ele>
        <time>2018-07-20T12:07:50Z</time>
      </trkpt>
      <trkpt lat="42.450358" lon="-8.499652">
        <ele>552.708</ele>
        <time>2018-07-20T12:08:10Z</time>
      </trkpt>
      <trkpt lat="42.450064" lon="-8.499656">
        <ele>550.361</ele>
        <time>2018-07-20T12:08:30Z</time>
      </trkpt>
      <trkpt lat="42.449790" lon="-8.499659">
        <ele>545.845</ele>
        <time>2018-07-20T12:08:50Z</time>
      </trkpt>
      <trkpt lat="42.449581" lon="-8.499881">
        <ele>543.326</ele>
        <time>2018-07-20T12:09:10Z</time>
      </trkpt>
      <trkpt lat="42.449376" lon="-8.500227">
        <ele>542.254</ele>
        <time>2018-07-20T12:09:30Z</time>
      </trkpt>
      <trkpt lat="42.449228" lon="-8.500549">
        <ele>543.649</ele>
        <time>2018-07-20T12:09:50Z</time>
      </trkpt>
      <trkpt lat="42.449194" lon="-8.500837">
        <ele>546.650</ele>
        <time>2018-07-20T12:10:10Z</time>
      </trkpt>
      <trkpt lat="42.449114" lon="-8.501116">
        <ele>547.746</ele>
        <time>2018-07-20T12:10:30Z</time>
      </trkpt>
      <trkpt lat="42.448964" lon="-8.501357">
        <ele>547.443</ele>
        <time>2018-07-20T12:10:50Z</time>
      </trkpt>
      <trkpt lat="42.448773" lon="-8.501574">
        <ele>545.927</ele>
        <time>2018-07-20T12:11:10Z</time>
      </trkpt>
      <trkpt lat="42.448539" lon="-8.501751">
        <ele>545.168</ele>
        <time>2018-07-20T12:11:30Z</time>
      </trkpt>
      <trkpt lat="42.448365" lon="-8.501893">
        <ele>543.214</ele>
        <time>2018-07-20T12:11:50Z</time>
      </trkpt>
      <trkpt lat="42.448105" lon="-8.502256">
        <ele>539.308</ele>
        <time>2018-07-20T12:12:10Z</time>
      </trkpt>
      <trkpt lat="42.447968" lon="-8.502609">
        <ele>538.214</ele>
        <time>2018-07-20T12:12:30Z</time>
      </trkpt>
      <trkpt lat="42.447869" lon="-8.502977">
        <ele>538.718</ele>
        <time>2018-07-20T12:12:50Z</time>
      </trkpt>
      <trkpt lat="42.447741" lon="-8.503347">
        <ele>538.499</ele>
        <time>2018-07-20T12:13:10Z</time>
      </trkpt>
      <trkpt lat="42.447519" lon="-8.503433">
        <ele>534.527</ele>
        <time>2018-07-20T12:13:30Z</time>
      </trkpt>
      <trkpt lat="42.447263" lon="-8.503560">
        <ele>530.592</ele>
        <time>2018-07-20T12:13:50Z</time>
      </trkpt>
      <trkpt lat="42.447169" lon="-8.503731">
        <ele>529.313</ele>
        <time>2018-07-20T12:14:10Z</time>
      </trkpt>
      <trkpt lat="42.446961" lon="-8.503964">
        <ele>525.619</ele>
        <time>2018-07-20T12:14:30Z</time>
      </trkpt>
      <trkpt lat="42.446811" lon="-8.504121">
        <ele>523.496</ele>
        <time>2018-07-20T12:14:50Z</time>
      </trkpt>
      <trkpt lat="42.446592" lon="-8.504293">
        <ele>520.934</ele>
        <time>2018-07-20T12:15:10Z</time>
      </trkpt>
      <trkpt lat="42.446421" lon="-8.504596">
        <ele>518.455</ele>
        <time>2018-07-20T12:15:30Z</time>
      </trkpt>
      <trkpt lat="42.446318" lon="-8.505074">
        <ele>516.010</ele>
        <time>2018-07-20T12:15:50Z</time>
      </trkpt>
      <trkpt lat="42.446243" lon="-8.505373">
        <ele>515.308</ele>
        <time>2018-07-20T12:16:10Z</time>
      </trkpt>
      <trkpt lat="42.446072" lon="-8.505692">
        <ele>516.375</ele>
        <time>2018-07-20T12:16:30Z</time>
      </trkpt>
      <trkpt lat="42.445952" lon="-8.505997">
        <ele>517.469</ele>
        <time>2018-07-20T12:16:50Z</time>
      </trkpt>
      <trkpt lat="42.445820" lon="-8.506362">
        <ele>515.040</ele>
        <time>2018-07-20T12:17:10Z</time>
      </trkpt>
      <trkpt lat="42.445781" lon="-8.506662">
        <ele>514.248</ele>
        <time>2018-07-20T12:17:30Z</time>
      </trkpt>
      <trkpt lat="42.445754" lon="-8.507215">
        <ele>511.823</ele>
        <time>2018-07-20T12:17:50Z</time>
      </trkpt>
      <trkpt lat="42.445720" lon="-8.507595">
        <ele>509.744</ele>
        <time>2018-07-20T12:18:10Z</time>
      </trkpt>
      <trkpt lat="42.445781" lon="-8.507848">
        <ele>509.220</ele>
        <time>2018-07-20T12:18:30Z</time>
      </trkpt>
      <trkpt lat="42.445708" lon="-8.508090">
        <ele>509.157</ele>
        <time>2018-07-20T12:18:50Z</time>
      </trkpt>
      <trkpt lat="42.445619" lon="-8.508494">
        <ele>506.435</ele>
        <time>2018-07-20T12:19:10Z</time>
      </trkpt>
      <trkpt lat="42.445578" lon="-8.508978">
        <ele>500.386</ele>
        <time>2018-07-20T12:19:30Z</time>
      </trkpt>
      <trkpt lat="42.445694" lon="-8.509398">
        <ele>498.014</ele>
        <time>2018-07-20T12:19:50Z</time>
      </trkpt>
      <trkpt lat="42.445922" lon="-8.509965">
        <ele>496.008</ele>
        <time>2018-07-20T12:20:10Z</time>
      </trkpt>
      <trkpt lat="42.446165" lon="-8.510465">
        <ele>494.235</ele>
        <time>2018-07-20T12:20:30Z</time>
      </trkpt>
      <trkpt lat="42.446451" lon="-8.510934">
        <ele>491.829</ele>
        <time>2018-07-20T12:20:50Z</time>
      </trkpt>
      <trkpt lat="42.446782" lon="-8.511411">
        <ele>487.230</ele>
        <time>2018-07-20T12:21:10Z</time>
      </trkpt>
      <trkpt lat="42.447139" lon="-8.511876">
        <ele>490.598</ele>
        <time>2018-07-20T12:21:30Z</time>
      </trkpt>
      <trkpt lat="42.447399" lon="-8.512255">
        <ele>492.353</ele>
        <time>2018-07-20T12:21:50Z</time>
      </trkpt>
      <trkpt lat="42.447615" lon="-8.512753">
        <ele>486.664</ele>
        <time>2018-07-20T12:22:10Z</time>
      </trkpt>
      <trkpt lat="42.447661" lon="-8.513329">
        <ele>477.840</ele>
        <time>2018-07-20T12:22:30Z</time>
      </trkpt>
      <trkpt lat="42.447723" lon="-8.513706">
        <ele>473.647</ele>
        <time>2018-07-20T12:22:50Z</time>
      </trkpt>
      <trkpt lat="42.447929" lon="-8.513766">
        <ele>471.789</ele>
        <time>2018-07-20T12:23:10Z</time>
      </trkpt>
      <trkpt lat="42.448075" lon="-8.513833">
        <ele>469.606</ele>
        <time>2018-07-20T12:23:30Z</time>
      </trkpt>
      <trkpt lat="42.448148" lon="-8.514008">
        <ele>464.426</ele>
        <time>2018-07-20T12:23:50Z</time>
      </trkpt>
      <trkpt lat="42.448188" lon="-8.514207">
        <ele>459.408</ele>
        <time>2018-07-20T12:24:10Z</time>
      </trkpt>
      <trkpt lat="42.448272" lon="-8.514297">
        <ele>456.090</ele>
        <time>2018-07-20T12:24:30Z</time>
      </trkpt>
      <trkpt lat="42.448476" lon="-8.514287">
        <ele>450.494</ele>
        <time>2018-07-20T12:24:50Z</time>
      </trkpt>
      <trkpt lat="42.448544" lon="-8.514176">
        <ele>450.015</ele>
        <time>2018-07-20T12:25:10Z</time>
      </trkpt>
      <trkpt lat="42.448675" lon="-8.514060">
        <ele>448.273</ele>
        <time>2018-07-20T12:25:30Z</time>
      </trkpt>
      <trkpt lat="42.448846" lon="-8.513918">
        <ele>446.588</ele>
        <time>2018-07-20T12:25:50Z</time>
      </trkpt>
      <trkpt lat="42.448956" lon="-8.514015">
        <ele>441.299</ele>
        <time>2018-07-20T12:26:10Z</time>
      </trkpt>
      <trkpt lat="42.448923" lon="-8.514188">
        <ele>438.625</ele>
        <time>2018-07-20T12:26:30Z</time>
      </trkpt>
      <trkpt lat="42.448958" lon="-8.514357">
        <ele>433.992</ele>
        <time>2018-07-20T12:26:50Z</time>
      </trkpt>
      <trkpt lat="42.448962" lon="-8.514477">
        <ele>431.596</ele>
        <time>2018-07-20T12:27:10Z</time>
      </trkpt>
      <trkpt lat="42.449117" lon="-8.514487">
        <ele>426.831</ele>
        <time>2018-07-20T12:27:30Z</time>
      </trkpt>
      <trkpt lat="42.449218" lon="-8.514296">
        <ele>427.324</ele>
        <time>2018-07-20T12:27:50Z</time>
      </trkpt>
      <trkpt lat="42.449456" lon="-8.514141">
        <ele>421.308</ele>
        <time>2018-07-20T12:28:10Z</time>
      </trkpt>
      <trkpt lat="42.449632" lon="-8.513987">
        <ele>418.651</ele>
        <time>2018-07-20T12:28:30Z</time>
      </trkpt>
      <trkpt lat="42.449782" lon="-8.513939">
        <ele>414.065</ele>
        <time>2018-07-20T12:28:50Z</time>
      </trkpt>
      <trkpt lat="42.449918" lon="-8.514027">
        <ele>408.296</ele>
        <time>2018-07-20T12:29:10Z</time>
      </trkpt>
      <trkpt lat="42.449873" lon="-8.514187">
        <ele>407.464</ele>
        <time>2018-07-20T12:29:30Z</time>
      </trkpt>
      <trkpt lat="42.449887" lon="-8.514393">
        <ele>404.159</ele>
        <time>2018-07-20T12:29:50Z</time>
      </trkpt>
      <trkpt lat="42.449821" lon="-8.514575">
        <ele>403.580</ele>
        <time>2018-07-20T12:30:10Z</time>
      </trkpt>
      <trkpt lat="42.449820" lon="-8.514741">
        <ele>401.776</ele>
        <time>2018-07-20T12:30:30Z</time>
      </trkpt>
      <trkpt lat="42.449779" lon="-8.515042">
        <ele>399.763</ele>
        <time>2018-07-20T12:30:50Z</time>
      </trkpt>
      <trkpt lat="42.449983" lon="-8.515002">
        <ele>395.485</ele>
        <time>2018-07-20T12:31:10Z</time>
      </trkpt>
      <trkpt lat="42.450126" lon="-8.514795">
        <ele>395.289</ele>
        <time>2018-07-20T12:31:30Z</time>
      </trkpt>
      <trkpt lat="42.450388" lon="-8.514501">
        <ele>389.717</ele>
        <time>2018-07-20T12:31:50Z</time>
      </trkpt>
      <trkpt lat="42.450630" lon="-8.514188">
        <ele>385.208</ele>
        <time>2018-07-20T12:32:10Z</time>
      </trkpt>
      <trkpt lat="42.450920" lon="-8.513932">
        <ele>383.070</ele>
        <time>2018-07-20T12:32:30Z</time>
      </trkpt>
      <trkpt lat="42.451270" lon="-8.513764">
        <ele>378.954</ele>
        <time>2018-07-20T12:32:50Z</time>
      </trkpt>
      <trkpt lat="42.451378" lon="-8.513848">
        <ele>377.315</ele>
        <time>2018-07-20T12:33:10Z</time>
      </trkpt>
      <trkpt lat="42.451290" lon="-8.514004">
        <ele>377.413</ele>
        <time>2018-07-20T12:33:30Z</time>
      </trkpt>
      <trkpt lat="42.451231" lon="-8.514198">
        <ele>377.288</ele>
        <time>2018-07-20T12:33:50Z</time>
      </trkpt>
      <trkpt lat="42.451306" lon="-8.514260">
        <ele>376.139</ele>
        <time>2018-07-20T12:34:10Z</time>
      </trkpt>
      <trkpt lat="42.451439" lon="-8.514223">
        <ele>373.525</ele>
        <time>2018-07-20T12:34:30Z</time>
      </trkpt>
      <trkpt lat="42.451439" lon="-8.514374">
        <ele>373.432</ele>
        <time>2018-07-20T12:34:50Z</time>
      </trkpt>
      <trkpt lat="42.451488" lon="-8.514633">
        <ele>370.946</ele>
        <time>2018-07-20T12:35:10Z</time>
      </trkpt>
      <trkpt lat="42.451655" lon="-8.514922">
        <ele>365.688</ele>
        <time>2018-07-20T12:35:30Z</time>
      </trkpt>
      <trkpt lat="42.451729" lon="-8.515149">
        <ele>365.116</ele>
        <time>2018-07-20T12:35:50Z</time>
      </trkpt>
      <trkpt lat="42.451844" lon="-8.515396">
        <ele>364.808</ele>
        <time>2018-07-20T12:36:10Z</time>
      </trkpt>
      <trkpt lat="42.452008" lon="-8.515630">
        <ele>364.216</ele>
        <time>2018-07-20T12:36:30Z</time>
      </trkpt>
      <trkpt lat="42.452236" lon="-8.515635">
        <ele>358.550</ele>
        <time>2018-07-20T12:36:50Z</time>
      </trkpt>
      <trkpt lat="42.452420" lon="-8.515607">
        <ele>354.281</ele>
        <time>2018-07-20T12:37:10Z</time>
      </trkpt>
      <trkpt lat="42.452590" lon="-8.515717">
        <ele>352.489</ele>
        <time>2018-07-20T12:37:30Z</time>
      </trkpt>
      <trkpt lat="42.452650" lon="-8.515887">
        <ele>353.414</ele>
        <time>2018-07-20T12:37:50Z</time>
      </trkpt>
      <trkpt lat="42.452847" lon="-8.516002">
        <ele>353.115</ele>
        <time>2018-07-20T12:38:10Z</time>
      </trkpt>
      <trkpt lat="42.453213" lon="-8.516003">
        <ele>349.421</ele>
        <time>2018-07-20T12:38:30Z</time>
      </trkpt>
      <trkpt lat="42.453512" lon="-8.515889">
        <ele>344.488</ele>
        <time>2018-07-20T12:38:50Z</time>
      </trkpt>
      <trkpt lat="42.453797" lon="-8.515821">
        <ele>343.085</ele>
        <time>2018-07-20T12:39:10Z</time>
      </trkpt>
      <trkpt lat="42.454002" lon="-8.515780">
        <ele>342.789</ele>
        <time>2018-07-20T12:39:30Z</time>
      </trkpt>
      <trkpt lat="42.454360" lon="-8.515942">
        <ele>339.417</ele>
        <time>2018-07-20T12:39:50Z</time>
      </trkpt>
      <trkpt lat="42.454557" lon="-8.516068">
        <ele>338.008</ele>
        <time>2018-07-20T12:40:10Z</time>
      </trkpt>
      <trkpt lat="42.454727" lon="-8.516279">
        <ele>338.630</ele>
        <time>2018-07-20T12:40:30Z</time>
      </trkpt>
      <trkpt lat="42.454831" lon="-8.516473">
        <ele>338.074</ele>
        <time>2018-07-20T12:40:50Z</time>
      </trkpt>
      <trkpt lat="42.454962" lon="-8.516619">
        <ele>336.515</ele>
        <time>2018-07-20T12:41:10Z</time>
      </trkpt>
      <trkpt lat="42.455200" lon="-8.516602">
        <ele>334.023</ele>
        <time>2018-07-20T12:41:30Z</time>
      </trkpt>
      <trkpt lat="42.455389" lon="-8.516546">
        <ele>333.398</ele>
        <time>2018-07-20T12:41:50Z</time>
      </trkpt>
      <trkpt lat="42.455478" lon="-8.516359">
        <ele>333.349</ele>
        <time>2018-07-20T12:42:10Z</time>
      </trkpt>
      <trkpt lat="42.455675" lon="-8.515982">
        <ele>333.085</ele>
        <time>2018-07-20T12:42:30Z</time>
      </trkpt>
      <trkpt lat="42.455943" lon="-8.515655">
        <ele>333.522</ele>
        <time>2018-07-20T12:42:50Z</time>
      </trkpt>
      <trkpt lat="42.456231" lon="-8.515447">
        <ele>334.747</ele>
        <time>2018-07-20T12:43:10Z</time>
      </trkpt>
      <trkpt lat="42.456571" lon="-8.515253">
        <ele>334.329</ele>
        <time>2018-07-20T12:43:30Z</time>
      </trkpt>
      <trkpt lat="42.456970" lon="-8.514906">
        <ele>332.221</ele>
        <time>2018-07-20T12:43:50Z</time>
      </trkpt>
      <trkpt lat="42.457362" lon="-8.514418">
        <ele>336.008</ele>
        <time>2018-07-20T12:44:10Z</time>
      </trkpt>
      <trkpt lat="42.457625" lon="-8.514091">
        <ele>337.176</ele>
        <time>2018-07-20T12:44:30Z</time>
      </trkpt>
      <trkpt lat="42.458057" lon="-8.513518">
        <ele>336.040</ele>
        <time>2018-07-20T12:44:50Z</time>
      </trkpt>
      <trkpt lat="42.458373" lon="-8.513132">
        <ele>337.181</ele>
        <time>2018-07-20T12:45:10Z</time>
      </trkpt>
      <trkpt lat="42.458671" lon="-8.512896">
        <ele>338.029</ele>
        <time>2018-07-20T12:45:30Z</time>
      </trkpt>
      <trkpt lat="42.458799" lon="-8.512787">
        <ele>338.754</ele>
        <time>2018-07-20T12:45:50Z</time>
      </trkpt>
      <trkpt lat="42.458883" lon="-8.512978">
        <ele>339.785</ele>
        <time>2018-07-20T12:46:10Z</time>
      </trkpt>
      <trkpt lat="42.458964" lon="-8.513192">
        <ele>341.781</ele>
        <time>2018-07-20T12:46:30Z</time>
      </trkpt>
      <trkpt lat="42.459163" lon="-8.513420">
        <ele>344.038</ele>
        <time>2018-07-20T12:46:50Z</time>
      </trkpt>
      <trkpt lat="42.459314" lon="-8.513594">
        <ele>344.545</ele>
        <time>2018-07-20T12:47:10Z</time>
      </trkpt>
      <trkpt lat="42.459482" lon="-8.513688">
        <ele>345.747</ele>
        <time>2018-07-20T12:47:30Z</time>
      </trkpt>
      <trkpt lat="42.459650" lon="-8.513783">
        <ele>347.811</ele>
        <time>2018-07-20T12:47:50Z</time>
      </trkpt>
      <trkpt lat="42.459667" lon="-8.513966">
        <ele>348.508</ele>
        <time>2018-07-20T12:48:10Z</time>
      </trkpt>
      <trkpt lat="42.459644" lon="-8.514195">
        <ele>348.646</ele>
        <time>2018-07-20T12:48:30Z</time>
      </trkpt>
      <trkpt lat="42.459500" lon="-8.514403">
        <ele>349.120</ele>
        <time>2018-07-20T12:48:50Z</time>
      </trkpt>
      <trkpt lat="42.459377" lon="-8.514610">
        <ele>349.981</ele>
        <time>2018-07-20T12:49:10Z</time>
      </trkpt>
      <trkpt lat="42.459285" lon="-8.514815">
        <ele>350.239</ele>
        <time>2018-07-20T12:49:30Z</time>
      </trkpt>
      <trkpt lat="42.459163" lon="-8.515039">
        <ele>349.434</ele>
        <time>2018-07-20T12:49:50Z</time>
      </trkpt>
      <trkpt lat="42.459002" lon="-8.515260">
        <ele>350.135</ele>
        <time>2018-07-20T12:50:10Z</time>
      </trkpt>
      <trkpt lat="42.458918" lon="-8.515462">
        <ele>351.361</ele>
        <time>2018-07-20T12:50:30Z</time>
      </trkpt>
      <trkpt lat="42.458825" lon="-8.515741">
        <ele>352.278</ele>
        <time>2018-07-20T12:50:50Z</time>
      </trkpt>
      <trkpt lat="42.458793" lon="-8.515922">
        <ele>353.436</ele>
        <time>2018-07-20T12:51:10Z</time>
      </trkpt>
      <trkpt lat="42.458730" lon="-8.516140">
        <ele>354.817</ele>
        <time>2018-07-20T12:51:30Z</time>
      </trkpt>
      <trkpt lat="42.458694" lon="-8.516260">
        <ele>355.218</ele>
        <time>2018-07-20T12:51:50Z</time>
      </trkpt>
      <trkpt lat="42.458489" lon="-8.516387">
        <ele>352.808</ele>
        <time>2018-07-20T12:52:10Z</time>
      </trkpt>
      <trkpt lat="42.458338" lon="-8.516497">
        <ele>351.325</ele>
        <time>2018-07-20T12:52:30Z</time>
      </trkpt>
      <trkpt lat="42.458406" lon="-8.516661">
        <ele>354.249</ele>
        <time>2018-07-20T12:52:50Z</time>
      </trkpt>
      <trkpt lat="42.458545" lon="-8.516772">
        <ele>357.730</ele>
        <time>2018-07-20T12:53:10Z</time>
      </trkpt>
      <trkpt lat="42.458744" lon="-8.516828">
        <ele>361.468</ele>
        <time>2018-07-20T12:53:30Z</time>
      </trkpt>
      <trkpt lat="42.458924" lon="-8.516863">
        <ele>365.173</ele>
        <time>2018-07-20T12:53:50Z</time>
      </trkpt>
      <trkpt lat="42.459078" lon="-8.516755">
        <ele>367.554</ele>
        <time>2018-07-20T12:54:10Z</time>
      </trkpt>
      <trkpt lat="42.459278" lon="-8.516770">
        <ele>371.110</ele>
        <time>2018-07-20T12:54:30Z</time>
      </trkpt>
      <trkpt lat="42.459373" lon="-8.516901">
        <ele>374.467</ele>
        <time>2018-07-20T12:54:50Z</time>
      </trkpt>
      <trkpt lat="42.459488" lon="-8.517055">
        <ele>376.784</ele>
        <time>2018-07-20T12:55:10Z</time>
      </trkpt>
      <trkpt lat="42.459550" lon="-8.517268">
        <ele>378.407</ele>
        <time>2018-07-20T12:55:30Z</time>
      </trkpt>
      <trkpt lat="42.459614" lon="-8.517441">
        <ele>380.117</ele>
        <time>2018-07-20T12:55:50Z</time>
      </trkpt>
      <trkpt lat="42.459791" lon="-8.517376">
        <ele>382.508</ele>
        <time>2018-07-20T12:56:10Z</time>
      </trkpt>
      <trkpt lat="42.459950" lon="-8.517287">
        <ele>384.830</ele>
        <time>2018-07-20T12:56:30Z</time>
      </trkpt>
      <trkpt lat="42.460059" lon="-8.517403">
        <ele>387.994</ele>
        <time>2018-07-20T12:56:50Z</time>
      </trkpt>
      <trkpt lat="42.460108" lon="-8.517599">
        <ele>390.435</ele>
        <time>2018-07-20T12:57:10Z</time>
      </trkpt>
      <trkpt lat="42.460180" lon="-8.517820">
        <ele>391.983</ele>
        <time>2018-07-20T12:57:30Z</time>
      </trkpt>
      <trkpt lat="42.460255" lon="-8.518043">
        <ele>392.858</ele>
        <time>2018-07-20T12:57:50Z</time>
      </trkpt>
      <trkpt lat="42.460380" lon="-8.518229">
        <ele>394.119</ele>
        <time>2018-07-20T12:58:10Z</time>
      </trkpt>
      <trkpt lat="42.460641" lon="-8.518241">
        <ele>398.225</ele>
        <time>2018-07-20T12:58:30Z</time>
      </trkpt>
      <trkpt lat="42.460828" lon="-8.518177">
        <ele>400.952</ele>
        <time>2018-07-20T12:58:50Z</time>
      </trkpt>
      <trkpt lat="42.461016" lon="-8.518090">
        <ele>403.584</ele>
        <time>2018-07-20T12:59:10Z</time>
      </trkpt>
      <trkpt lat="42.461184" lon="-8.518000">
        <ele>407.307</ele>
        <time>2018-07-20T12:59:30Z</time>
      </trkpt>
      <trkpt lat="42.461321" lon="-8.518149">
        <ele>410.017</ele>
        <time>2018-07-20T12:59:50Z</time>
      </trkpt>
      <trkpt lat="42.461373" lon="-8.518333">
        <ele>410.608</ele>
        <time>2018-07-20T13:00:10Z</time>
      </trkpt>
      <trkpt lat="42.461479" lon="-8.518547">
        <ele>413.590</ele>
        <time>2018-07-20T13:00:30Z</time>
      </trkpt>
      <trkpt lat="42.461558" lon="-8.518736">
        <ele>415.994</ele>
        <time>2018-07-20T13:00:50Z</time>
      </trkpt>
      <trkpt lat="42.461638" lon="-8.518949">
        <ele>419.145</ele>
        <time>2018-07-20T13:01:10Z</time>
      </trkpt>
      <trkpt lat="42.461644" lon="-8.519153">
        <ele>421.423</ele>
        <time>2018-07-20T13:01:30Z</time>
      </trkpt>
      <trkpt lat="42.461592" lon="-8.519348">
        <ele>423.958</ele>
        <time>2018-07-20T13:01:50Z</time>
      </trkpt>
      <trkpt lat="42.461469" lon="-8.519508">
        <ele>424.779</ele>
        <time>2018-07-20T13:02:10Z</time>
      </trkpt>
      <trkpt lat="42.461602" lon="-8.519620">
        <ele>429.585</ele>
        <time>2018-07-20T13:02:30Z</time>
      </trkpt>
      <trkpt lat="42.461744" lon="-8.519530">
        <ele>430.292</ele>
        <time>2018-07-20T13:02:50Z</time>
      </trkpt>
      <trkpt lat="42.461923" lon="-8.519310">
        <ele>429.684</ele>
        <time>2018-07-20T13:03:10Z</time>
      </trkpt>
      <trkpt lat="42.462099" lon="-8.519132">
        <ele>430.807</ele>
        <time>2018-07-20T13:03:30Z</time>
      </trkpt>
      <trkpt lat="42.462224" lon="-8.518921">
        <ele>430.517</ele>
        <time>2018-07-20T13:03:50Z</time>
      </trkpt>
      <trkpt lat="42.462452" lon="-8.518838">
        <ele>431.808</ele>
        <time>2018-07-20T13:04:10Z</time>
      </trkpt>
      <trkpt lat="42.462459" lon="-8.519023">
        <ele>434.930</ele>
        <time>2018-07-20T13:04:30Z</time>
      </trkpt>
      <trkpt lat="42.462441" lon="-8.519183">
        <ele>437.484</ele>
        <time>2018-07-20T13:04:50Z</time>
      </trkpt>
      <trkpt lat="42.462435" lon="-8.519412">
        <ele>440.625</ele>
        <time>2018-07-20T13:05:10Z</time>
      </trkpt>
      <trkpt lat="42.462533" lon="-8.519544">
        <ele>444.183</ele>
        <time>2018-07-20T13:05:30Z</time>
      </trkpt>
      <trkpt lat="42.462550" lon="-8.519709">
        <ele>447.098</ele>
        <time>2018-07-20T13:05:50Z</time>
      </trkpt>
      <trkpt lat="42.462682" lon="-8.519893">
        <ele>449.159</ele>
        <time>2018-07-20T13:06:10Z</time>
      </trkpt>
      <trkpt lat="42.462607" lon="-8.520066">
        <ele>450.795</ele>
        <time>2018-07-20T13:06:30Z</time>
      </trkpt>
      <trkpt lat="42.462545" lon="-8.520194">
        <ele>452.172</ele>
        <time>2018-07-20T13:06:50Z</time>
      </trkpt>
      <trkpt lat="42.462366" lon="-8.520346">
        <ele>452.489</ele>
        <time>2018-07-20T13:07:10Z</time>
      </trkpt>
      <trkpt lat="42.462282" lon="-8.520606">
        <ele>455.106</ele>
        <time>2018-07-20T13:07:30Z</time>
      </trkpt>
      <trkpt lat="42.462417" lon="-8.520771">
        <ele>458.826</ele>
        <time>2018-07-20T13:07:50Z</time>
      </trkpt>
      <trkpt lat="42.462488" lon="-8.520970">
        <ele>463.308</ele>
        <time>2018-07-20T13:08:10Z</time>
      </trkpt>
      <trkpt lat="42.462535" lon="-8.521118">
        <ele>466.550</ele>
        <time>2018-07-20T13:08:30Z</time>
      </trkpt>
      <trkpt lat="42.462548" lon="-8.521376">
        <ele>471.194</ele>
        <time>2018-07-20T13:08:50Z</time>
      </trkpt>
      <trkpt lat="42.462525" lon="-8.521648">
        <ele>476.835</ele>
        <time>2018-07-20T13:09:10Z</time>
      </trkpt>
      <trkpt lat="42.462512" lon="-8.521968">
        <ele>485.433</ele>
        <time>2018-07-20T13:09:30Z</time>
      </trkpt>
      <trkpt lat="42.462623" lon="-8.522249">
        <ele>489.628</ele>
        <time>2018-07-20T13:09:50Z</time>
      </trkpt>
      <trkpt lat="42.462605" lon="-8.522453">
        <ele>493.199</ele>
        <time>2018-07-20T13:10:10Z</time>
      </trkpt>
      <trkpt lat="42.462704" lon="-8.522688">
        <ele>496.775</ele>
        <time>2018-07-20T13:10:30Z</time>
      </trkpt>
      <trkpt lat="42.462743" lon="-8.522862">
        <ele>499.282</ele>
        <time>2018-07-20T13:10:50Z</time>
      </trkpt>
      <trkpt lat="42.462888" lon="-8.523067">
        <ele>500.855</ele>
        <time>2018-07-20T13:11:10Z</time>
      </trkpt>
      <trkpt lat="42.463087" lon="-8.523290">
        <ele>504.307</ele>
        <time>2018-07-20T13:11:30Z</time>
      </trkpt>
      <trkpt lat="42.463363" lon="-8.523333">
        <ele>506.217</ele>
        <time>2018-07-20T13:11:50Z</time>
      </trkpt>
      <trkpt lat="42.463671" lon="-8.523358">
        <ele>508.708</ele>
        <time>2018-07-20T13:12:10Z</time>
      </trkpt>
      <trkpt lat="42.463945" lon="-8.523469">
        <ele>510.997</ele>
        <time>2018-07-20T13:12:30Z</time>
      </trkpt>
      <trkpt lat="42.464177" lon="-8.523519">
        <ele>510.651</ele>
        <time>2018-07-20T13:12:50Z</time>
      </trkpt>
      <trkpt lat="42.464422" lon="-8.523640">
        <ele>509.242</ele>
        <time>2018-07-20T13:13:10Z</time>
      </trkpt>
      <trkpt lat="42.464718" lon="-8.523761">
        <ele>508.590</ele>
        <time>2018-07-20T13:13:30Z</time>
      </trkpt>
      <trkpt lat="42.464985" lon="-8.523823">
        <ele>509.085</ele>
        <time>2018-07-20T13:13:50Z</time>
      </trkpt>
      <trkpt lat="42.465188" lon="-8.523836">
        <ele>510.176</ele>
        <time>2018-07-20T13:14:10Z</time>
      </trkpt>
      <trkpt lat="42.465282" lon="-8.523694">
        <ele>509.612</ele>
        <time>2018-07-20T13:14:30Z</time>
      </trkpt>
      <trkpt lat="42.465490" lon="-8.523438">
        <ele>509.199</ele>
        <time>2018-07-20T13:14:50Z</time>
      </trkpt>
      <trkpt lat="42.465861" lon="-8.523394">
        <ele>506.926</ele>
        <time>2018-07-20T13:15:10Z</time>
      </trkpt>
      <trkpt lat="42.466336" lon="-8.523323">
        <ele>505.247</ele>
        <time>2018-07-20T13:15:30Z</time>
      </trkpt>
      <trkpt lat="42.466567" lon="-8.523282">
        <ele>503.911</ele>
        <time>2018-07-20T13:15:50Z</time>
      </trkpt>
      <trkpt lat="42.466677" lon="-8.523161">
        <ele>503.608</ele>
        <time>2018-07-20T13:16:10Z</time>
      </trkpt>
      <trkpt lat="42.466999" lon="-8.523104">
        <ele>503.714</ele>
        <time>2018-07-20T13:16:30Z</time>
      </trkpt>
      <trkpt lat="42.467146" lon="-8.522984">
        <ele>505.688</ele>
        <time>2018-07-20T13:16:50Z</time>
      </trkpt>
      <trkpt lat="42.467316" lon="-8.522750">
        <ele>507.639</ele>
        <time>2018-07-20T13:17:10Z</time>
      </trkpt>
      <trkpt lat="42.467537" lon="-8.522401">
        <ele>509.837</ele>
        <time>2018-07-20T13:17:30Z</time>
      </trkpt>
      <trkpt lat="42.467730" lon="-8.522070">
        <ele>509.212</ele>
        <time>2018-07-20T13:17:50Z</time>
      </trkpt>
      <trkpt lat="42.467873" lon="-8.521862">
        <ele>508.293</ele>
        <time>2018-07-20T13:18:10Z</time>
      </trkpt>
      <trkpt lat="42.467988" lon="-8.521769">
        <ele>507.869</ele>
        <time>2018-07-20T13:18:30Z</time>
      </trkpt>
      <trkpt lat="42.468183" lon="-8.521786">
        <ele>507.486</ele>
        <time>2018-07-20T13:18:50Z</time>
      </trkpt>
      <trkpt lat="42.468534" lon="-8.521741">
        <ele>507.741</ele>
        <time>2018-07-20T13:19:10Z</time>
      </trkpt>
      <trkpt lat="42.468719" lon="-8.521727">
        <ele>508.181</ele>
        <time>2018-07-20T13:19:30Z</time>
      </trkpt>
      <trkpt lat="42.468897" lon="-8.521689">
        <ele>508.909</ele>
        <time>2018-07-20T13:19:50Z</time>
      </trkpt>
      <trkpt lat="42.469018" lon="-8.521562">
        <ele>509.808</ele>
        <time>2018-07-20T13:20:10Z</time>
      </trkpt>
      <trkpt lat="42.469024" lon="-8.521380">
        <ele>509.576</ele>
        <time>2018-07-20T13:20:30Z</time>
      </trkpt>
      <trkpt lat="42.469095" lon="-8.521163">
        <ele>509.730</ele>
        <time>2018-07-20T13:20:50Z</time>
      </trkpt>
      <trkpt lat="42.469220" lon="-8.521031">
        <ele>511.011</ele>
        <time>2018-07-20T13:21:10Z</time>
      </trkpt>
      <trkpt lat="42.469373" lon="-8.520836">
        <ele>514.249</ele>
        <time>2018-07-20T13:21:30Z</time>
      </trkpt>
      <trkpt lat="42.469555" lon="-8.520587">
        <ele>518.564</ele>
        <time>2018-07-20T13:21:50Z</time>
      </trkpt>
      <trkpt lat="42.469709" lon="-8.520521">
        <ele>520.215</ele>
        <time>2018-07-20T13:22:10Z</time>
      </trkpt>
      <trkpt lat="42.469803" lon="-8.520518">
        <ele>520.961</ele>
        <time>2018-07-20T13:22:30Z</time>
      </trkpt>
      <trkpt lat="42.469884" lon="-8.520643">
        <ele>520.798</ele>
        <time>2018-07-20T13:22:50Z</time>
      </trkpt>
      <trkpt lat="42.470000" lon="-8.520771">
        <ele>520.427</ele>
        <time>2018-07-20T13:23:10Z</time>
      </trkpt>
      <trkpt lat="42.470117" lon="-8.520938">
        <ele>519.168</ele>
        <time>2018-07-20T13:23:30Z</time>
      </trkpt>
      <trkpt lat="42.470243" lon="-8.521120">
        <ele>516.914</ele>
        <time>2018-07-20T13:23:50Z</time>
      </trkpt>
      <trkpt lat="42.470402" lon="-8.521294">
        <ele>515.808</ele>
        <time>2018-07-20T13:24:10Z</time>
      </trkpt>
      <trkpt lat="42.470539" lon="-8.521431">
        <ele>515.714</ele>
        <time>2018-07-20T13:24:30Z</time>
      </trkpt>
      <trkpt lat="42.470658" lon="-8.521583">
        <ele>515.068</ele>
        <time>2018-07-20T13:24:50Z</time>
      </trkpt>
      <trkpt lat="42.470734" lon="-8.521776">
        <ele>514.429</ele>
        <time>2018-07-20T13:25:10Z</time>
      </trkpt>
      <trkpt lat="42.470827" lon="-8.521946">
        <ele>514.017</ele>
        <time>2018-07-20T13:25:30Z</time>
      </trkpt>
      <trkpt lat="42.470900" lon="-8.522157">
        <ele>513.372</ele>
        <time>2018-07-20T13:25:50Z</time>
      </trkpt>
      <trkpt lat="42.470984" lon="-8.522247">
        <ele>512.383</ele>
        <time>2018-07-20T13:26:10Z</time>
      </trkpt>
      <trkpt lat="42.471113" lon="-8.522242">
        <ele>510.959</ele>
        <time>2018-07-20T13:26:30Z</time>
      </trkpt>
      <trkpt lat="42.471259" lon="-8.522154">
        <ele>508.676</ele>
        <time>2018-07-20T13:26:50Z</time>
      </trkpt>
      <trkpt lat="42.471471" lon="-8.521997">
        <ele>507.333</ele>
        <time>2018-07-20T13:27:10Z</time>
      </trkpt>
      <trkpt lat="42.471649" lon="-8.521921">
        <ele>507.223</ele>
        <time>2018-07-20T13:27:30Z</time>
      </trkpt>
      <trkpt lat="42.471787" lon="-8.521986">
        <ele>506.615</ele>
        <time>2018-07-20T13:27:50Z</time>
      </trkpt>
      <trkpt lat="42.471879" lon="-8.522109">
        <ele>505.408</ele>
        <time>2018-07-20T13:28:10Z</time>
      </trkpt>
      <trkpt lat="42.472019" lon="-8.522236">
        <ele>502.885</ele>
        <time>2018-07-20T13:28:30Z</time>
      </trkpt>
      <trkpt lat="42.472194" lon="-8.522232">
        <ele>500.369</ele>
        <time>2018-07-20T13:28:50Z</time>
      </trkpt>
      <trkpt lat="42.472277" lon="-8.522097">
        <ele>500.220</ele>
        <time>2018-07-20T13:29:10Z</time>
      </trkpt>
      <trkpt lat="42.472340" lon="-8.521957">
        <ele>500.348</ele>
        <time>2018-07-20T13:29:30Z</time>
      </trkpt>
      <trkpt lat="42.472423" lon="-8.521699">
        <ele>500.493</ele>
        <time>2018-07-20T13:29:50Z</time>
      </trkpt>
      <trkpt lat="42.472485" lon="-8.521504">
        <ele>500.594</ele>
        <time>2018-07-20T13:30:10Z</time>
      </trkpt>
      <trkpt lat="42.472637" lon="-8.521466">
        <ele>497.810</ele>
        <time>2018-07-20T13:30:30Z</time>
      </trkpt>
      <trkpt lat="42.472826" lon="-8.521479">
        <ele>494.417</ele>
        <time>2018-07-20T13:30:50Z</time>
      </trkpt>
      <trkpt lat="42.472927" lon="-8.521413">
        <ele>493.614</ele>
        <time>2018-07-20T13:31:10Z</time>
      </trkpt>
      <trkpt lat="42.473114" lon="-8.521131">
        <ele>493.054</ele>
        <time>2018-07-20T13:31:30Z</time>
      </trkpt>
      <trkpt lat="42.473262" lon="-8.520775">
        <ele>494.009</ele>
        <time>2018-07-20T13:31:50Z</time>
      </trkpt>
      <trkpt lat="42.473365" lon="-8.520553">
        <ele>493.608</ele>
        <time>2018-07-20T13:32:10Z</time>
      </trkpt>
      <trkpt lat="42.473297" lon="-8.520408">
        <ele>495.493</ele>
        <time>2018-07-20T13:32:30Z</time>
      </trkpt>
      <trkpt lat="42.473275" lon="-8.520317">
        <ele>496.387</ele>
        <time>2018-07-20T13:32:50Z</time>
      </trkpt>
      <trkpt lat="42.473429" lon="-8.520182">
        <ele>492.948</ele>
        <time>2018-07-20T13:33:10Z</time>
      </trkpt>
      <trkpt lat="42.473567" lon="-8.519995">
        <ele>490.076</ele>
        <time>2018-07-20T13:33:30Z</time>
      </trkpt>
      <trkpt lat="42.473671" lon="-8.519863">
        <ele>488.081</ele>
        <time>2018-07-20T13:33:50Z</time>
      </trkpt>
      <trkpt lat="42.473563" lon="-8.519644">
        <ele>491.892</ele>
        <time>2018-07-20T13:34:10Z</time>
      </trkpt>
      <trkpt lat="42.473590" lon="-8.519395">
        <ele>492.378</ele>
        <time>2018-07-20T13:34:30Z</time>
      </trkpt>
      <trkpt lat="42.473621" lon="-8.519106">
        <ele>494.335</ele>
        <time>2018-07-20T13:34:50Z</time>
      </trkpt>
      <trkpt lat="42.473639" lon="-8.518900">
        <ele>495.522</ele>
        <time>2018-07-20T13:35:10Z</time>
      </trkpt>
      <trkpt lat="42.473843" lon="-8.518799">
        <ele>493.462</ele>
        <time>2018-07-20T13:35:30Z</time>
      </trkpt>
      <trkpt lat="42.474033" lon="-8.518682">
        <ele>490.908</ele>
        <time>2018-07-20T13:35:50Z</time>
      </trkpt>
      <trkpt lat="42.474089" lon="-8.518531">
        <ele>490.908</ele>
        <time>2018-07-20T13:36:10Z</time>
      </trkpt>
      <trkpt lat="42.474069" lon="-8.518308">
        <ele>493.124</ele>
        <time>2018-07-20T13:36:30Z</time>
      </trkpt>
      <trkpt lat="42.474204" lon="-8.517975">
        <ele>492.548</ele>
        <time>2018-07-20T13:36:50Z</time>
      </trkpt>
      <trkpt lat="42.474262" lon="-8.517725">
        <ele>492.489</ele>
        <time>2018-07-20T13:37:10Z</time>
      </trkpt>
      <trkpt lat="42.474409" lon="-8.517456">
        <ele>490.297</ele>
        <time>2018-07-20T13:37:30Z</time>
      </trkpt>
      <trkpt lat="42.474562" lon="-8.517161">
        <ele>489.162</ele>
        <time>2018-07-20T13:37:50Z</time>
      </trkpt>
      <trkpt lat="42.474728" lon="-8.516710">
        <ele>490.643</ele>
        <time>2018-07-20T13:38:10Z</time>
      </trkpt>
      <trkpt lat="42.474694" lon="-8.516245">
        <ele>489.999</ele>
        <time>2018-07-20T13:38:30Z</time>
      </trkpt>
      <trkpt lat="42.474616" lon="-8.515904">
        <ele>488.166</ele>
        <time>2018-07-20T13:38:50Z</time>
      </trkpt>
      <trkpt lat="42.474449" lon="-8.515654">
        <ele>484.884</ele>
        <time>2018-07-20T13:39:10Z</time>
      </trkpt>
      <trkpt lat="42.474371" lon="-8.515356">
        <ele>481.607</ele>
        <time>2018-07-20T13:39:30Z</time>
      </trkpt>
      <trkpt lat="42.474261" lon="-8.515157">
        <ele>481.817</ele>
        <time>2018-07-20T13:39:50Z</time>
      </trkpt>
      <trkpt lat="42.474347" lon="-8.514988">
        <ele>480.408</ele>
        <time>2018-07-20T13:40:10Z</time>
      </trkpt>
      <trkpt lat="42.474487" lon="-8.514699">
        <ele>479.440</ele>
        <time>2018-07-20T13:40:30Z</time>
      </trkpt>
      <trkpt lat="42.474597" lon="-8.514495">
        <ele>477.494</ele>
        <time>2018-07-20T13:40:50Z</time>
      </trkpt>
      <trkpt lat="42.474767" lon="-8.514333">
        <ele>473.545</ele>
        <time>2018-07-20T13:41:10Z</time>
      </trkpt>
      <trkpt lat="42.475008" lon="-8.514127">
        <ele>470.113</ele>
        <time>2018-07-20T13:41:30Z</time>
      </trkpt>
      <trkpt lat="42.475172" lon="-8.514033">
        <ele>469.678</ele>
        <time>2018-07-20T13:41:50Z</time>
      </trkpt>
      <trkpt lat="42.475348" lon="-8.514118">
        <ele>468.079</ele>
        <time>2018-07-20T13:42:10Z</time>
      </trkpt>
      <trkpt lat="42.475622" lon="-8.514216">
        <ele>463.485</ele>
        <time>2018-07-20T13:42:30Z</time>
      </trkpt>
      <trkpt lat="42.475732" lon="-8.514337">
        <ele>460.942</ele>
        <time>2018-07-20T13:42:50Z</time>
      </trkpt>
      <trkpt lat="42.475769" lon="-8.514455">
        <ele>460.519</ele>
        <time>2018-07-20T13:43:10Z</time>
      </trkpt>
      <trkpt lat="42.475747" lon="-8.514614">
        <ele>462.709</ele>
        <time>2018-07-20T13:43:30Z</time>
      </trkpt>
      <trkpt lat="42.475784" lon="-8.514696">
        <ele>463.219</ele>
        <time>2018-07-20T13:43:50Z</time>
      </trkpt>
      <trkpt lat="42.475863" lon="-8.514601">
        <ele>461.008</ele>
        <time>2018-07-20T13:44:10Z</time>
      </trkpt>
      <trkpt lat="42.475980" lon="-8.514562">
        <ele>459.373</ele>
        <time>2018-07-20T13:44:30Z</time>
      </trkpt>
      <trkpt lat="42.476075" lon="-8.514685">
        <ele>460.697</ele>
        <time>2018-07-20T13:44:50Z</time>
      </trkpt>
      <trkpt lat="42.476163" lon="-8.514794">
        <ele>461.388</ele>
        <time>2018-07-20T13:45:10Z</time>
      </trkpt>
      <trkpt lat="42.476232" lon="-8.514896">
        <ele>461.826</ele>
        <time>2018-07-20T13:45:30Z</time>
      </trkpt>
      <trkpt lat="42.476286" lon="-8.515041">
        <ele>462.641</ele>
        <time>2018-07-20T13:45:50Z</time>
      </trkpt>
      <trkpt lat="42.476324" lon="-8.515187">
        <ele>462.292</ele>
        <time>2018-07-20T13:46:10Z</time>
      </trkpt>
      <trkpt lat="42.476368" lon="-8.515329">
        <ele>461.618</ele>
        <time>2018-07-20T13:46:30Z</time>
      </trkpt>
      <trkpt lat="42.476397" lon="-8.515491">
        <ele>461.415</ele>
        <time>2018-07-20T13:46:50Z</time>
      </trkpt>
      <trkpt lat="42.476481" lon="-8.515627">
        <ele>457.163</ele>
        <time>2018-07-20T13:47:10Z</time>
      </trkpt>
      <trkpt lat="42.476540" lon="-8.515759">
        <ele>454.144</ele>
        <time>2018-07-20T13:47:30Z</time>
      </trkpt>
      <trkpt lat="42.476571" lon="-8.515924">
        <ele>452.618</ele>
        <time>2018-07-20T13:47:50Z</time>
      </trkpt>
      <trkpt lat="42.476640" lon="-8.516036">
        <ele>449.408</ele>
        <time>2018-07-20T13:48:10Z</time>
      </trkpt>
      <trkpt lat="42.476656" lon="-8.516185">
        <ele>447.948</ele>
        <time>2018-07-20T13:48:30Z</time>
      </trkpt>
      <trkpt lat="42.476713" lon="-8.516290">
        <ele>445.082</ele>
        <time>2018-07-20T13:48:50Z</time>
      </trkpt>
      <trkpt lat="42.476698" lon="-8.516400">
        <ele>444.733</ele>
        <time>2018-07-20T13:49:10Z</time>
      </trkpt>
      <trkpt lat="42.476729" lon="-8.516499">
        <ele>442.381</ele>
        <time>2018-07-20T13:49:30Z</time>
      </trkpt>
      <trkpt lat="42.476723" lon="-8.516767">
        <ele>439.786</ele>
        <time>2018-07-20T13:49:50Z</time>
      </trkpt>
      <trkpt lat="42.476636" lon="-8.517187">
        <ele>438.187</ele>
        <time>2018-07-20T13:50:10Z</time>
      </trkpt>
      <trkpt lat="42.476630" lon="-8.517467">
        <ele>434.393</ele>
        <time>2018-07-20T13:50:30Z</time>
      </trkpt>
      <trkpt lat="42.476570" lon="-8.517823">
        <ele>432.390</ele>
        <time>2018-07-20T13:50:50Z</time>
      </trkpt>
      <trkpt lat="42.476489" lon="-8.518064">
        <ele>431.763</ele>
        <time>2018-07-20T13:51:10Z</time>
      </trkpt>
      <trkpt lat="42.476395" lon="-8.518390">
        <ele>428.844</ele>
        <time>2018-07-20T13:51:30Z</time>
      </trkpt>
      <trkpt lat="42.476387" lon="-8.518707">
        <ele>423.318</ele>
        <time>2018-07-20T13:51:50Z</time>
      </trkpt>
      <trkpt lat="42.476345" lon="-8.518885">
        <ele>420.908</ele>
        <time>2018-07-20T13:52:10Z</time>
      </trkpt>
      <trkpt lat="42.476481" lon="-8.518814">
        <ele>419.348</ele>
        <time>2018-07-20T13:52:30Z</time>
      </trkpt>
      <trkpt lat="42.476573" lon="-8.518620">
        <ele>420.262</ele>
        <time>2018-07-20T13:52:50Z</time>
      </trkpt>
      <trkpt lat="42.476669" lon="-8.518425">
        <ele>421.953</ele>
        <time>2018-07-20T13:53:10Z</time>
      </trkpt>
      <trkpt lat="42.476820" lon="-8.518224">
        <ele>419.371</ele>
        <time>2018-07-20T13:53:30Z</time>
      </trkpt>
      <trkpt lat="42.477000" lon="-8.518007">
        <ele>417.766</ele>
        <time>2018-07-20T13:53:50Z</time>
      </trkpt>
      <trkpt lat="42.477173" lon="-8.517859">
        <ele>413.527</ele>
        <time>2018-07-20T13:54:10Z</time>
      </trkpt>
      <trkpt lat="42.477282" lon="-8.517814">
        <ele>410.433</ele>
        <time>2018-07-20T13:54:30Z</time>
      </trkpt>
      <trkpt lat="42.477249" lon="-8.517967">
        <ele>408.810</ele>
        <time>2018-07-20T13:54:50Z</time>
      </trkpt>
      <trkpt lat="42.477114" lon="-8.518272">
        <ele>407.583</ele>
        <time>2018-07-20T13:55:10Z</time>
      </trkpt>
      <trkpt lat="42.476926" lon="-8.518725">
        <ele>406.925</ele>
        <time>2018-07-20T13:55:30Z</time>
      </trkpt>
      <trkpt lat="42.476831" lon="-8.519047">
        <ele>406.117</ele>
        <time>2018-07-20T13:55:50Z</time>
      </trkpt>
      <trkpt lat="42.476676" lon="-8.519377">
        <ele>406.608</ele>
        <time>2018-07-20T13:56:10Z</time>
      </trkpt>
      <trkpt lat="42.476639" lon="-8.519674">
        <ele>403.060</ele>
        <time>2018-07-20T13:56:30Z</time>
      </trkpt>
      <trkpt lat="42.476580" lon="-8.520089">
        <ele>397.454</ele>
        <time>2018-07-20T13:56:50Z</time>
      </trkpt>
      <trkpt lat="42.476485" lon="-8.520342">
        <ele>395.985</ele>
        <time>2018-07-20T13:57:10Z</time>
      </trkpt>
      <trkpt lat="42.476382" lon="-8.520591">
        <ele>395.833</ele>
        <time>2018-07-20T13:57:30Z</time>
      </trkpt>
      <trkpt lat="42.476295" lon="-8.520838">
        <ele>394.978</ele>
        <time>2018-07-20T13:57:50Z</time>
      </trkpt>
      <trkpt lat="42.476222" lon="-8.521142">
        <ele>389.939</ele>
        <time>2018-07-20T13:58:10Z</time>
      </trkpt>
      <trkpt lat="42.476075" lon="-8.521454">
        <ele>385.795</ele>
        <time>2018-07-20T13:58:30Z</time>
      </trkpt>
      <trkpt lat="42.475925" lon="-8.521779">
        <ele>384.712</ele>
        <time>2018-07-20T13:58:50Z</time>
      </trkpt>
      <trkpt lat="42.475849" lon="-8.522143">
        <ele>384.898</ele>
        <time>2018-07-20T13:59:10Z</time>
      </trkpt>
      <trkpt lat="42.475823" lon="-8.522502">
        <ele>389.315</ele>
        <time>2018-07-20T13:59:30Z</time>
      </trkpt>
      <trkpt lat="42.475914" lon="-8.522702">
        <ele>388.426</ele>
        <time>2018-07-20T13:59:50Z</time>
      </trkpt>
      <trkpt lat="42.475964" lon="-8.523028">
        <ele>387.308</ele>
        <time>2018-07-20T14:00:10Z</time>
      </trkpt>
      <trkpt lat="42.475849" lon="-8.523432">
        <ele>387.781</ele>
        <time>2018-07-20T14:00:30Z</time>
      </trkpt>
      <trkpt lat="42.475779" lon="-8.523689">
        <ele>385.215</ele>
        <time>2018-07-20T14:00:50Z</time>
      </trkpt>
      <trkpt lat="42.475802" lon="-8.524004">
        <ele>380.216</ele>
        <time>2018-07-20T14:01:10Z</time>
      </trkpt>
      <trkpt lat="42.475693" lon="-8.524198">
        <ele>382.454</ele>
        <time>2018-07-20T14:01:30Z</time>
      </trkpt>
      <trkpt lat="42.475611" lon="-8.524458">
        <ele>384.719</ele>
        <time>2018-07-20T14:01:50Z</time>
      </trkpt>
      <trkpt lat="42.475614" lon="-8.524763">
        <ele>382.270</ele>
        <time>2018-07-20T14:02:10Z</time>
      </trkpt>
      <trkpt lat="42.475586" lon="-8.524987">
        <ele>380.246</ele>
        <time>2018-07-20T14:02:30Z</time>
      </trkpt>
      <trkpt lat="42.475630" lon="-8.525400">
        <ele>377.953</ele>
        <time>2018-07-20T14:02:50Z</time>
      </trkpt>
      <trkpt lat="42.475641" lon="-8.525425">
        <ele>377.544</ele>
        <time>2018-07-20T14:03:10Z</time>
      </trkpt>
      <trkpt lat="42.475618" lon="-8.525551">
        <ele>378.205</ele>
        <time>2018-07-20T14:03:30Z</time>
      </trkpt>
      <trkpt lat="42.475492" lon="-8.525824">
        <ele>380.415</ele>
        <time>2018-07-20T14:03:50Z</time>
      </trkpt>
      <trkpt lat="42.475417" lon="-8.526079">
        <ele>380.208</ele>
        <time>2018-07-20T14:04:10Z</time>
      </trkpt>
      <trkpt lat="42.475339" lon="-8.526518">
        <ele>377.046</ele>
        <time>2018-07-20T14:04:30Z</time>
      </trkpt>
      <trkpt lat="42.475252" lon="-8.526893">
        <ele>372.350</ele>
        <time>2018-07-20T14:04:50Z</time>
      </trkpt>
      <trkpt lat="42.475121" lon="-8.527161">
        <ele>371.941</ele>
        <time>2018-07-20T14:05:10Z</time>
      </trkpt>
      <trkpt lat="42.475055" lon="-8.527373">
        <ele>370.039</ele>
        <time>2018-07-20T14:05:30Z</time>
      </trkpt>
      <trkpt lat="42.474942" lon="-8.527848">
        <ele>365.314</ele>
        <time>2018-07-20T14:05:50Z</time>
      </trkpt>
      <trkpt lat="42.474862" lon="-8.528006">
        <ele>364.465</ele>
        <time>2018-07-20T14:06:10Z</time>
      </trkpt>
      <trkpt lat="42.475053" lon="-8.527929">
        <ele>362.441</ele>
        <time>2018-07-20T14:06:30Z</time>
      </trkpt>
      <trkpt lat="42.475289" lon="-8.527718">
        <ele>362.528</ele>
        <time>2018-07-20T14:06:50Z</time>
      </trkpt>
      <trkpt lat="42.475617" lon="-8.527487">
        <ele>362.422</ele>
        <time>2018-07-20T14:07:10Z</time>
      </trkpt>
      <trkpt lat="42.475944" lon="-8.527219">
        <ele>364.262</ele>
        <time>2018-07-20T14:07:30Z</time>
      </trkpt>
      <trkpt lat="42.476272" lon="-8.526992">
        <ele>360.208</ele>
        <time>2018-07-20T14:07:50Z</time>
      </trkpt>
      <trkpt lat="42.476616" lon="-8.526849">
        <ele>354.408</ele>
        <time>2018-07-20T14:08:10Z</time>
      </trkpt>
      <trkpt lat="42.476726" lon="-8.526886">
        <ele>352.034</ele>
        <time>2018-07-20T14:08:30Z</time>
      </trkpt>
      <trkpt lat="42.476821" lon="-8.526976">
        <ele>349.798</ele>
        <time>2018-07-20T14:08:50Z</time>
      </trkpt>
      <trkpt lat="42.476955" lon="-8.527127">
        <ele>347.029</ele>
        <time>2018-07-20T14:09:10Z</time>
      </trkpt>
      <trkpt lat="42.476997" lon="-8.527299">
        <ele>346.217</ele>
        <time>2018-07-20T14:09:30Z</time>
      </trkpt>
      <trkpt lat="42.477057" lon="-8.527474">
        <ele>343.852</ele>
        <time>2018-07-20T14:09:50Z</time>
      </trkpt>
      <trkpt lat="42.477078" lon="-8.527715">
        <ele>341.633</ele>
        <time>2018-07-20T14:10:10Z</time>
      </trkpt>
      <trkpt lat="42.477072" lon="-8.527954">
        <ele>338.649</ele>
        <time>2018-07-20T14:10:30Z</time>
      </trkpt>
      <trkpt lat="42.477074" lon="-8.528239">
        <ele>334.176</ele>
        <time>2018-07-20T14:10:50Z</time>
      </trkpt>
      <trkpt lat="42.476974" lon="-8.528434">
        <ele>334.694</ele>
        <time>2018-07-20T14:11:10Z</time>
      </trkpt>
      <trkpt lat="42.476935" lon="-8.528625">
        <ele>333.957</ele>
        <time>2018-07-20T14:11:30Z</time>
      </trkpt>
      <trkpt lat="42.476851" lon="-8.528836">
        <ele>331.622</ele>
        <time>2018-07-20T14:11:50Z</time>
      </trkpt>
      <trkpt lat="42.476735" lon="-8.528925">
        <ele>331.808</ele>
        <time>2018-07-20T14:12:10Z</time>
      </trkpt>
      <trkpt lat="42.476627" lon="-8.529113">
        <ele>328.411</ele>
        <time>2018-07-20T14:12:30Z</time>
      </trkpt>
      <trkpt lat="42.476513" lon="-8.529353">
        <ele>325.955</ele>
        <time>2018-07-20T14:12:50Z</time>
      </trkpt>
      <trkpt lat="42.476458" lon="-8.529480">
        <ele>324.656</ele>
        <time>2018-07-20T14:13:10Z</time>
      </trkpt>
      <trkpt lat="42.476552" lon="-8.529705">
        <ele>320.334</ele>
        <time>2018-07-20T14:13:30Z</time>
      </trkpt>
      <trkpt lat="42.476447" lon="-8.529760">
        <ele>321.329</ele>
        <time>2018-07-20T14:13:50Z</time>
      </trkpt>
      <trkpt lat="42.476408" lon="-8.529877">
        <ele>319.980</ele>
        <time>2018-07-20T14:14:10Z</time>
      </trkpt>
      <trkpt lat="42.476422" lon="-8.529996">
        <ele>317.646</ele>
        <time>2018-07-20T14:14:30Z</time>
      </trkpt>
      <trkpt lat="42.476571" lon="-8.530084">
        <ele>313.373</ele>
        <time>2018-07-20T14:14:50Z</time>
      </trkpt>
      <trkpt lat="42.476694" lon="-8.530077">
        <ele>311.798</ele>
        <time>2018-07-20T14:15:10Z</time>
      </trkpt>
      <trkpt lat="42.476844" lon="-8.530150">
        <ele>308.715</ele>
        <time>2018-07-20T14:15:30Z</time>
      </trkpt>
      <trkpt lat="42.477020" lon="-8.530305">
        <ele>306.426</ele>
        <time>2018-07-20T14:15:50Z</time>
      </trkpt>
      <trkpt lat="42.477154" lon="-8.530300">
        <ele>307.908</ele>
        <time>2018-07-20T14:16:10Z</time>
      </trkpt>
      <trkpt lat="42.477336" lon="-8.530158">
        <ele>308.071</ele>
        <time>2018-07-20T14:16:30Z</time>
      </trkpt>
      <trkpt lat="42.477635" lon="-8.529971">
        <ele>302.055</ele>
        <time>2018-07-20T14:16:50Z</time>
      </trkpt>
      <trkpt lat="42.477895" lon="-8.529797">
        <ele>294.426</ele>
        <time>2018-07-20T14:17:10Z</time>
      </trkpt>
      <trkpt lat="42.478106" lon="-8.529697">
        <ele>289.584</ele>
        <time>2018-07-20T14:17:30Z</time>
      </trkpt>
      <trkpt lat="42.478327" lon="-8.529721">
        <ele>283.259</ele>
        <time>2018-07-20T14:17:50Z</time>
      </trkpt>
      <trkpt lat="42.478378" lon="-8.529869">
        <ele>281.830</ele>
        <time>2018-07-20T14:18:10Z</time>
      </trkpt>
      <trkpt lat="42.478477" lon="-8.530079">
        <ele>278.616</ele>
        <time>2018-07-20T14:18:30Z</time>
      </trkpt>
      <trkpt lat="42.478593" lon="-8.530398">
        <ele>273.223</ele>
        <time>2018-07-20T14:18:50Z</time>
      </trkpt>
      <trkpt lat="42.478597" lon="-8.530586">
        <ele>271.257</ele>
        <time>2018-07-20T14:19:10Z</time>
      </trkpt>
      <trkpt lat="42.478660" lon="-8.530846">
        <ele>267.100</ele>
        <time>2018-07-20T14:19:30Z</time>
      </trkpt>
      <trkpt lat="42.478726" lon="-8.531054">
        <ele>263.120</ele>
        <time>2018-07-20T14:19:50Z</time>
      </trkpt>
      <trkpt lat="42.478658" lon="-8.531310">
        <ele>262.408</ele>
        <time>2018-07-20T14:20:10Z</time>
      </trkpt>
      <trkpt lat="42.478656" lon="-8.531488">
        <ele>259.857</ele>
        <time>2018-07-20T14:20:30Z</time>
      </trkpt>
      <trkpt lat="42.478565" lon="-8.531699">
        <ele>258.671</ele>
        <time>2018-07-20T14:20:50Z</time>
      </trkpt>
      <trkpt lat="42.478544" lon="-8.531958">
        <ele>254.212</ele>
        <time>2018-07-20T14:21:10Z</time>
      </trkpt>
      <trkpt lat="42.478598" lon="-8.532131">
        <ele>250.630</ele>
        <time>2018-07-20T14:21:30Z</time>
      </trkpt>
      <trkpt lat="42.478757" lon="-8.532181">
        <ele>246.815</ele>
        <time>2018-07-20T14:21:50Z</time>
      </trkpt>
      <trkpt lat="42.478899" lon="-8.532214">
        <ele>243.956</ele>
        <time>2018-07-20T14:22:10Z</time>
      </trkpt>
      <trkpt lat="42.478934" lon="-8.532333">
        <ele>242.912</ele>
        <time>2018-07-20T14:22:30Z</time>
      </trkpt>
      <trkpt lat="42.478860" lon="-8.532393">
        <ele>243.859</ele>
        <time>2018-07-20T14:22:50Z</time>
      </trkpt>
      <trkpt lat="42.478900" lon="-8.532528">
        <ele>242.664</ele>
        <time>2018-07-20T14:23:10Z</time>
      </trkpt>
      <trkpt lat="42.478940" lon="-8.532706">
        <ele>240.506</ele>
        <time>2018-07-20T14:23:30Z</time>
      </trkpt>
      <trkpt lat="42.479009" lon="-8.533021">
        <ele>237.116</ele>
        <time>2018-07-20T14:23:50Z</time>
      </trkpt>
      <trkpt lat="42.479102" lon="-8.533185">
        <ele>234.508</ele>
        <time>2018-07-20T14:24:10Z</time>
      </trkpt>
      <trkpt lat="42.479181" lon="-8.533347">
        <ele>232.728</ele>
        <time>2018-07-20T14:24:30Z</time>
      </trkpt>
      <trkpt lat="42.479317" lon="-8.533435">
        <ele>230.842</ele>
        <time>2018-07-20T14:24:50Z</time>
      </trkpt>
      <trkpt lat="42.479454" lon="-8.533434">
        <ele>229.623</ele>
        <time>2018-07-20T14:25:10Z</time>
      </trkpt>
      <trkpt lat="42.479514" lon="-8.533316">
        <ele>229.781</ele>
        <time>2018-07-20T14:25:30Z</time>
      </trkpt>
      <trkpt lat="42.479702" lon="-8.532997">
        <ele>231.656</ele>
        <time>2018-07-20T14:25:50Z</time>
      </trkpt>
      <trkpt lat="42.479812" lon="-8.532736">
        <ele>231.487</ele>
        <time>2018-07-20T14:26:10Z</time>
      </trkpt>
      <trkpt lat="42.479930" lon="-8.532364">
        <ele>227.593</ele>
        <time>2018-07-20T14:26:30Z</time>
      </trkpt>
      <trkpt lat="42.479978" lon="-8.532134">
        <ele>226.550</ele>
        <time>2018-07-20T14:26:50Z</time>
      </trkpt>
      <trkpt lat="42.480162" lon="-8.531710">
        <ele>227.872</ele>
        <time>2018-07-20T14:27:10Z</time>
      </trkpt>
      <trkpt lat="42.480313" lon="-8.531572">
        <ele>228.313</ele>
        <time>2018-07-20T14:27:30Z</time>
      </trkpt>
      <trkpt lat="42.480644" lon="-8.531381">
        <ele>227.914</ele>
        <time>2018-07-20T14:27:50Z</time>
      </trkpt>
      <trkpt lat="42.480835" lon="-8.531206">
        <ele>228.308</ele>
        <time>2018-07-20T14:28:10Z</time>
      </trkpt>
      <trkpt lat="42.480961" lon="-8.530958">
        <ele>228.669</ele>
        <time>2018-07-20T14:28:30Z</time>
      </trkpt>
      <trkpt lat="42.481284" lon="-8.530606">
        <ele>224.683</ele>
        <time>2018-07-20T14:28:50Z</time>
      </trkpt>
      <trkpt lat="42.481522" lon="-8.530330">
        <ele>223.534</ele>
        <time>2018-07-20T14:29:10Z</time>
      </trkpt>
      <trkpt lat="42.481863" lon="-8.530156">
        <ele>219.982</ele>
        <time>2018-07-20T14:29:30Z</time>
      </trkpt>
      <trkpt lat="42.482143" lon="-8.529989">
        <ele>219.727</ele>
        <time>2018-07-20T14:29:50Z</time>
      </trkpt>
      <trkpt lat="42.482306" lon="-8.529621">
        <ele>220.268</ele>
        <time>2018-07-20T14:30:10Z</time>
      </trkpt>
      <trkpt lat="42.482471" lon="-8.529201">
        <ele>222.944</ele>
        <time>2018-07-20T14:30:30Z</time>
      </trkpt>
      <trkpt lat="42.482705" lon="-8.528775">
        <ele>227.661</ele>
        <time>2018-07-20T14:30:50Z</time>
      </trkpt>
      <trkpt lat="42.482904" lon="-8.528478">
        <ele>229.214</ele>
        <time>2018-07-20T14:31:10Z</time>
      </trkpt>
      <trkpt lat="42.483064" lon="-8.528477">
        <ele>228.554</ele>
        <time>2018-07-20T14:31:30Z</time>
      </trkpt>
      <trkpt lat="42.483163" lon="-8.528673">
        <ele>225.809</ele>
        <time>2018-07-20T14:31:50Z</time>
      </trkpt>
      <trkpt lat="42.483308" lon="-8.528791">
        <ele>224.108</ele>
        <time>2018-07-20T14:32:10Z</time>
      </trkpt>
      <trkpt lat="42.483414" lon="-8.528848">
        <ele>222.723</ele>
        <time>2018-07-20T14:32:30Z</time>
      </trkpt>
      <trkpt lat="42.483793" lon="-8.528830">
        <ele>222.417</ele>
        <time>2018-07-20T14:32:50Z</time>
      </trkpt>
      <trkpt lat="42.484173" lon="-8.528850">
        <ele>220.728</ele>
        <time>2018-07-20T14:33:10Z</time>
      </trkpt>
      <trkpt lat="42.484399" lon="-8.528961">
        <ele>219.986</ele>
        <time>2018-07-20T14:33:30Z</time>
      </trkpt>
      <trkpt lat="42.484387" lon="-8.529268">
        <ele>219.491</ele>
        <time>2018-07-20T14:33:50Z</time>
      </trkpt>
      <trkpt lat="42.484307" lon="-8.529421">
        <ele>218.542</ele>
        <time>2018-07-20T14:34:10Z</time>
      </trkpt>
      <trkpt lat="42.484111" lon="-8.529594">
        <ele>217.368</ele>
        <time>2018-07-20T14:34:30Z</time>
      </trkpt>
      <trkpt lat="42.483664" lon="-8.530038">
        <ele>212.115</ele>
        <time>2018-07-20T14:34:50Z</time>
      </trkpt>
      <trkpt lat="42.483465" lon="-8.530256">
        <ele>209.849</ele>
        <time>2018-07-20T14:35:10Z</time>
      </trkpt>
      <trkpt lat="42.483400" lon="-8.530463">
        <ele>209.102</ele>
        <time>2018-07-20T14:35:30Z</time>
      </trkpt>
      <trkpt lat="42.483344" lon="-8.530745">
        <ele>206.922</ele>
        <time>2018-07-20T14:35:50Z</time>
      </trkpt>
      <trkpt lat="42.483312" lon="-8.531236">
        <ele>205.108</ele>
        <time>2018-07-20T14:36:10Z</time>
      </trkpt>
      <trkpt lat="42.483318" lon="-8.531930">
        <ele>208.746</ele>
        <time>2018-07-20T14:36:30Z</time>
      </trkpt>
      <trkpt lat="42.483380" lon="-8.532441">
        <ele>205.530</ele>
        <time>2018-07-20T14:36:50Z</time>
      </trkpt>
      <trkpt lat="42.483428" lon="-8.533605">
        <ele>196.151</ele>
        <time>2018-07-20T14:37:10Z</time>
      </trkpt>
      <trkpt lat="42.483494" lon="-8.534336">
        <ele>193.769</ele>
        <time>2018-07-20T14:37:30Z</time>
      </trkpt>
      <trkpt lat="42.483471" lon="-8.535229">
        <ele>196.194</ele>
        <time>2018-07-20T14:37:50Z</time>
      </trkpt>
      <trkpt lat="42.483473" lon="-8.535885">
        <ele>197.165</ele>
        <time>2018-07-20T14:38:10Z</time>
      </trkpt>
      <trkpt lat="42.483461" lon="-8.536975">
        <ele>196.421</ele>
        <time>2018-07-20T14:38:30Z</time>
      </trkpt>
      <trkpt lat="42.483554" lon="-8.537973">
        <ele>189.088</ele>
        <time>2018-07-20T14:38:50Z</time>
      </trkpt>
      <trkpt lat="42.483625" lon="-8.538946">
        <ele>181.851</ele>
        <time>2018-07-20T14:39:10Z</time>
      </trkpt>
      <trkpt lat="42.483600" lon="-8.539731">
        <ele>185.201</ele>
        <time>2018-07-20T14:39:30Z</time>
      </trkpt>
      <trkpt lat="42.483589" lon="-8.540413">
        <ele>187.111</ele>
        <time>2018-07-20T14:39:50Z</time>
      </trkpt>
      <trkpt lat="42.483699" lon="-8.540776">
        <ele>187.808</ele>
        <time>2018-07-20T14:40:10Z</time>
      </trkpt>
      <trkpt lat="42.409398" lon="-8.326206">
        <ele>905.515</ele>
        <time>2018-07-20T09:32:05Z</time>
      </trkpt>
      <trkpt lat="42.409087" lon="-8.325956">
        <ele>905.065</ele>
        <time>2018-07-20T09:32:25Z</time>
      </trkpt>
      <trkpt lat="42.408829" lon="-8.325670">
        <ele>905.711</ele>
        <time>2018-07-20T09:32:45Z</time>
      </trkpt>
      <trkpt lat="42.408602" lon="-8.325475">
        <ele>906.008</ele>
        <time>2018-07-20T09:33:05Z</time>
      </trkpt>
      <trkpt lat="42.408396" lon="-8.325401">
        <ele>906.713</ele>
        <time>2018-07-20T09:33:25Z</time>
      </trkpt>
      <trkpt lat="42.408118" lon="-8.325401">
        <ele>907.287</ele>
        <time>2018-07-20T09:33:45Z</time>
      </trkpt>
      <trkpt lat="42.407813" lon="-8.325514">
        <ele>908.148</ele>
        <time>2018-07-20T09:34:05Z</time>
      </trkpt>
      <trkpt lat="42.407649" lon="-8.325626">
        <ele>909.436</ele>
        <time>2018-07-20T09:34:25Z</time>
      </trkpt>
      <trkpt lat="42.407385" lon="-8.325786">
        <ele>910.781</ele>
        <time>2018-07-20T09:34:45Z</time>
      </trkpt>
      <trkpt lat="42.406952" lon="-8.325874">
        <ele>912.442</ele>
        <time>2018-07-20T09:35:05Z</time>
      </trkpt>
      <trkpt lat="42.406596" lon="-8.325736">
        <ele>914.089</ele>
        <time>2018-07-20T09:35:25Z</time>
      </trkpt>
      <trkpt lat="42.406282" lon="-8.325563">
        <ele>916.670</ele>
        <time>2018-07-20T09:35:45Z</time>
      </trkpt>
      <trkpt lat="42.405829" lon="-8.325268">
        <ele>921.124</ele>
        <time>2018-07-20T09:36:05Z</time>
      </trkpt>
      <trkpt lat="42.405595" lon="-8.325140">
        <ele>922.604</ele>
        <time>2018-07-20T09:36:25Z</time>
      </trkpt>
      <trkpt lat="42.404909" lon="-8.325175">
        <ele>923.814</ele>
        <time>2018-07-20T09:36:45Z</time>
      </trkpt>
      <trkpt lat="42.404432" lon="-8.325146">
        <ele>926.908</ele>
        <time>2018-07-20T09:37:05Z</time>
      </trkpt>
      <trkpt lat="42.404126" lon="-8.325203">
        <ele>928.144</ele>
        <time>2018-07-20T09:37:25Z</time>
      </trkpt>
      <trkpt lat="42.403869" lon="-8.325269">
        <ele>927.268</ele>
        <time>2018-07-20T09:37:45Z</time>
      </trkpt>
      <trkpt lat="42.403606" lon="-8.325253">
        <ele>926.789</ele>
        <time>2018-07-20T09:38:05Z</time>
      </trkpt>
      <trkpt lat="42.403315" lon="-8.325146">
        <ele>928.137</ele>
        <time>2018-07-20T09:38:25Z</time>
      </trkpt>
      <trkpt lat="42.402875" lon="-8.324806">
        <ele>930.892</ele>
        <time>2018-07-20T09:38:45Z</time>
      </trkpt>
      <trkpt lat="42.402428" lon="-8.324523">
        <ele>930.873</ele>
        <time>2018-07-20T09:39:05Z</time>
      </trkpt>
      <trkpt lat="42.401795" lon="-8.324026">
        <ele>938.520</ele>
        <time>2018-07-20T09:39:25Z</time>
      </trkpt>
      <trkpt lat="42.401226" lon="-8.323614">
        <ele>940.261</ele>
        <time>2018-07-20T09:39:45Z</time>
      </trkpt>
      <trkpt lat="42.400781" lon="-8.323216">
        <ele>943.794</ele>
        <time>2018-07-20T09:40:05Z</time>
      </trkpt>
      <trkpt lat="42.400530" lon="-8.322851">
        <ele>945.457</ele>
        <time>2018-07-20T09:40:25Z</time>
      </trkpt>
      <trkpt lat="42.400042" lon="-8.322268">
        <ele>947.822</ele>
        <time>2018-07-20T09:40:45Z</time>
      </trkpt>
      <trkpt lat="42.399711" lon="-8.321800">
        <ele>949.508</ele>
        <time>2018-07-20T09:41:05Z</time>
      </trkpt>
      <trkpt lat="42.399346" lon="-8.321382">
        <ele>951.051</ele>
        <time>2018-07-20T09:41:25Z</time>
      </trkpt>
      <trkpt lat="42.398963" lon="-8.320894">
        <ele>953.375</ele>
        <time>2018-07-20T09:41:45Z</time>
      </trkpt>
      <trkpt lat="42.398718" lon="-8.320564">
        <ele>954.266</ele>
        <time>2018-07-20T09:42:05Z</time>
      </trkpt>
      <trkpt lat="42.398418" lon="-8.320114">
        <ele>955.444</ele>
        <time>2018-07-20T09:42:25Z</time>
      </trkpt>
      <trkpt lat="42.398092" lon="-8.319759">
        <ele>957.789</ele>
        <time>2018-07-20T09:42:45Z</time>
      </trkpt>
      <trkpt lat="42.397846" lon="-8.319624">
        <ele>960.090</ele>
        <time>2018-07-20T09:43:05Z</time>
      </trkpt>
      <trkpt lat="42.397640" lon="-8.319709">
        <ele>962.417</ele>
        <time>2018-07-20T09:43:25Z</time>
      </trkpt>
      <trkpt lat="42.397541" lon="-8.319798">
        <ele>963.668</ele>
        <time>2018-07-20T09:43:45Z</time>
      </trkpt>
      <trkpt lat="42.397411" lon="-8.319941">
        <ele>964.338</ele>
        <time>2018-07-20T09:44:05Z</time>
      </trkpt>
      <trkpt lat="42.397257" lon="-8.320123">
        <ele>964.570</ele>
        <time>2018-07-20T09:44:25Z</time>
      </trkpt>
      <trkpt lat="42.397103" lon="-8.320207">
        <ele>965.117</ele>
        <time>2018-07-20T09:44:45Z</time>
      </trkpt>
      <trkpt lat="42.396856" lon="-8.320262">
        <ele>966.708</ele>
        <time>2018-07-20T09:45:05Z</time>
      </trkpt>
      <trkpt lat="42.396512" lon="-8.320231">
        <ele>969.055</ele>
        <time>2018-07-20T09:45:25Z</time>
      </trkpt>
      <trkpt lat="42.396096" lon="-8.320193">
        <ele>972.119</ele>
        <time>2018-07-20T09:45:45Z</time>
      </trkpt>
      <trkpt lat="42.395775" lon="-8.320229">
        <ele>974.490</ele>
        <time>2018-07-20T09:46:05Z</time>
      </trkpt>
      <trkpt lat="42.395404" lon="-8.320158">
        <ele>974.668</ele>
        <time>2018-07-20T09:46:25Z</time>
      </trkpt>
      <trkpt lat="42.395101" lon="-8.320154">
        <ele>975.063</ele>
        <time>2018-07-20T09:46:45Z</time>
      </trkpt>
      <trkpt lat="42.394931" lon="-8.320296">
        <ele>975.754</ele>
        <time>2018-07-20T09:47:05Z</time>
      </trkpt>
      <trkpt lat="42.394903" lon="-8.320406">
        <ele>975.721</ele>
        <time>2018-07-20T09:47:25Z</time>
      </trkpt>
      <trkpt lat="42.394869" lon="-8.320553">
        <ele>975.952</ele>
        <time>2018-07-20T09:47:45Z</time>
      </trkpt>
      <trkpt lat="42.394700" lon="-8.320810">
        <ele>977.658</ele>
        <time>2018-07-20T09:48:05Z</time>
      </trkpt>
      <trkpt lat="42.394620" lon="-8.321087">
        <ele>978.652</ele>
        <time>2018-07-20T09:48:25Z</time>
      </trkpt>
      <trkpt lat="42.394441" lon="-8.321357">
        <ele>980.417</ele>
        <time>2018-07-20T09:48:45Z</time>
      </trkpt>
      <trkpt lat="42.394235" lon="-8.321622">
        <ele>978.408</ele>
        <time>2018-07-20T09:49:05Z</time>
      </trkpt>
      <trkpt lat="42.394056" lon="-8.321811">
        <ele>978.037</ele>
        <time>2018-07-20T09:49:25Z</time>
      </trkpt>
      <trkpt lat="42.393840" lon="-8.321972">
        <ele>979.961</ele>
        <time>2018-07-20T09:49:45Z</time>
      </trkpt>
      <trkpt lat="42.393694" lon="-8.322167">
        <ele>980.412</ele>
        <time>2018-07-20T09:50:05Z</time>
      </trkpt>
      <trkpt lat="42.393510" lon="-8.322408">
        <ele>978.230</ele>
        <time>2018-07-20T09:50:25Z</time>
      </trkpt>
      <trkpt lat="42.393375" lon="-8.322507">
        <ele>977.475</ele>
        <time>2018-07-20T09:50:45Z</time>
      </trkpt>
      <trkpt lat="42.392965" lon="-8.322746">
        <ele>978.066</ele>
        <time>2018-07-20T09:51:05Z</time>
      </trkpt>
      <trkpt lat="42.392655" lon="-8.322834">
        <ele>977.453</ele>
        <time>2018-07-20T09:51:25Z</time>
      </trkpt>
      <trkpt lat="42.392345" lon="-8.322790">
        <ele>978.274</ele>
        <time>2018-07-20T09:51:45Z</time>
      </trkpt>
      <trkpt lat="42.392103" lon="-8.322599">
        <ele>980.743</ele>
        <time>2018-07-20T09:52:05Z</time>
      </trkpt>
      <trkpt lat="42.391814" lon="-8.322345">
        <ele>980.664</ele>
        <time>2018-07-20T09:52:25Z</time>
      </trkpt>
      <trkpt lat="42.391489" lon="-8.322014">
        <ele>981.210</ele>
        <time>2018-07-20T09:52:45Z</time>
      </trkpt>
      <trkpt lat="42.391206" lon="-8.321783">
        <ele>983.708</ele>
        <time>2018-07-20T09:53:05Z</time>
      </trkpt>
      <trkpt lat="42.391051" lon="-8.321683">
        <ele>984.816</ele>
        <time>2018-07-20T09:53:25Z</time>
      </trkpt>
      <trkpt lat="42.390675" lon="-8.321608">
        <ele>986.240</ele>
        <time>2018-07-20T09:53:45Z</time>
      </trkpt>
      <trkpt lat="42.390338" lon="-8.321536">
        <ele>988.621</ele>
        <time>2018-07-20T09:54:05Z</time>
      </trkpt>
      <trkpt lat="42.389895" lon="-8.321411">
        <ele>988.869</ele>
        <time>2018-07-20T09:54:25Z</time>
      </trkpt>
      <trkpt lat="42.389306" lon="-8.321256">
        <ele>991.624</ele>
        <time>2018-07-20T09:54:45Z</time>
      </trkpt>
      <trkpt lat="42.388972" lon="-8.321084">
        <ele>995.585</ele>
        <time>2018-07-20T09:55:05Z</time>
      </trkpt>
      <trkpt lat="42.388689" lon="-8.321019">
        <ele>996.842</ele>
        <time>2018-07-20T09:55:25Z</time>
      </trkpt>
      <trkpt lat="42.388516" lon="-8.321036">
        <ele>997.373</ele>
        <time>2018-07-20T09:55:45Z</time>
      </trkpt>
      <trkpt lat="42.388187" lon="-8.321079">
        <ele>999.234</ele>
        <time>2018-07-20T09:56:05Z</time>
      </trkpt>
      <trkpt lat="42.387903" lon="-8.321203">
        <ele>997.255</ele>
        <time>2018-07-20T09:56:25Z</time>
      </trkpt>
      <trkpt lat="42.387781" lon="-8.321290">
        <ele>995.110</ele>
        <time>2018-07-20T09:56:45Z</time>
      </trkpt>
      <trkpt lat="42.387606" lon="-8.321390">
        <ele>994.808</ele>
        <time>2018-07-20T09:57:05Z</time>
      </trkpt>
      <trkpt lat="42.387218" lon="-8.321676">
        <ele>996.855</ele>
        <time>2018-07-20T09:57:25Z</time>
      </trkpt>
      <trkpt lat="42.386931" lon="-8.321773">
        <ele>998.589</ele>
        <time>2018-07-20T09:57:45Z</time>
      </trkpt>
      <trkpt lat="42.386712" lon="-8.321792">
        <ele>998.260</ele>
        <time>2018-07-20T09:58:05Z</time>
      </trkpt>
      <trkpt lat="42.386430" lon="-8.321797">
        <ele>996.028</ele>
        <time>2018-07-20T09:58:25Z</time>
      </trkpt>
      <trkpt lat="42.386133" lon="-8.321699">
        <ele>994.063</ele>
        <time>2018-07-20T09:58:45Z</time>
      </trkpt>
      <trkpt lat="42.385957" lon="-8.321512">
        <ele>993.184</ele>
        <time>2018-07-20T09:59:05Z</time>
      </trkpt>
      <trkpt lat="42.385731" lon="-8.321259">
        <ele>992.931</ele>
        <time>2018-07-20T09:59:25Z</time>
      </trkpt>
      <trkpt lat="42.385460" lon="-8.320975">
        <ele>994.132</ele>
        <time>2018-07-20T09:59:45Z</time>
      </trkpt>
      <trkpt lat="42.385168" lon="-8.320799">
        <ele>994.738</ele>
        <time>2018-07-20T10:00:05Z</time>
      </trkpt>
      <trkpt lat="42.384637" lon="-8.320426">
        <ele>993.770</ele>
        <time>2018-07-20T10:00:25Z</time>
      </trkpt>
      <trkpt lat="42.384076" lon="-8.320040">
        <ele>989.417</ele>
        <time>2018-07-20T10:00:45Z</time>
      </trkpt>
      <trkpt lat="42.383773" lon="-8.319622">
        <ele>989.908</ele>
        <time>2018-07-20T10:01:05Z</time>
      </trkpt>
      <trkpt lat="42.383377" lon="-8.319298">
        <ele>989.885</ele>
        <time>2018-07-20T10:01:25Z</time>
      </trkpt>
      <trkpt lat="42.382916" lon="-8.319079">
        <ele>989.189</ele>
        <time>2018-07-20T10:01:45Z</time>
      </trkpt>
      <trkpt lat="42.382514" lon="-8.318808">
        <ele>987.780</ele>
        <time>2018-07-20T10:02:05Z</time>
      </trkpt>
      <trkpt lat="42.382058" lon="-8.318463">
        <ele>987.568</ele>
        <time>2018-07-20T10:02:25Z</time>
      </trkpt>
      <trkpt lat="42.381719" lon="-8.318355">
        <ele>986.333</ele>
        <time>2018-07-20T10:02:45Z</time>
      </trkpt>
      <trkpt lat="42.380949" lon="-8.318215">
        <ele>978.954</ele>
        <time>2018-07-20T10:03:05Z</time>
      </trkpt>
      <trkpt lat="42.380686" lon="-8.318346">
        <ele>975.451</ele>
        <time>2018-07-20T10:03:25Z</time>
      </trkpt>
      <trkpt lat="42.380483" lon="-8.318315">
        <ele>974.842</ele>
        <time>2018-07-20T10:03:45Z</time>
      </trkpt>
      <trkpt lat="42.380159" lon="-8.317993">
        <ele>975.191</ele>
        <time>2018-07-20T10:04:05Z</time>
      </trkpt>
      <trkpt lat="42.379567" lon="-8.317432">
        <ele>969.081</ele>
        <time>2018-07-20T10:04:25Z</time>
      </trkpt>
      <trkpt lat="42.379068" lon="-8.316790">
        <ele>961.119</ele>
        <time>2018-07-20T10:04:45Z</time>
      </trkpt>
      <trkpt lat="42.378881" lon="-8.316539">
        <ele>958.908</ele>
        <time>2018-07-20T10:05:05Z</time>
      </trkpt>
      <trkpt lat="42.378731" lon="-8.316407">
        <ele>957.881</ele>
        <time>2018-07-20T10:05:25Z</time>
      </trkpt>
      <trkpt lat="42.378408" lon="-8.316578">
        <ele>954.965</ele>
        <time>2018-07-20T10:05:45Z</time>
      </trkpt>
      <trkpt lat="42.377857" lon="-8.317063">
        <ele>952.646</ele>
        <time>2018-07-20T10:06:05Z</time>
      </trkpt>
      <trkpt lat="42.377119" lon="-8.317535">
        <ele>945.494</ele>
        <time>2018-07-20T10:06:25Z</time>
      </trkpt>
      <trkpt lat="42.376448" lon="-8.317794">
        <ele>941.989</ele>
        <time>2018-07-20T10:06:45Z</time>
      </trkpt>
      <trkpt lat="42.375844" lon="-8.317934">
        <ele>943.830</ele>
        <time>2018-07-20T10:07:05Z</time>
      </trkpt>
      <trkpt lat="42.375282" lon="-8.317981">
        <ele>938.497</ele>
        <time>2018-07-20T10:07:25Z</time>
      </trkpt>
      <trkpt lat="42.374806" lon="-8.317821">
        <ele>936.138</ele>
        <time>2018-07-20T10:07:45Z</time>
      </trkpt>
      <trkpt lat="42.374197" lon="-8.317614">
        <ele>933.331</ele>
        <time>2018-07-20T10:08:05Z</time>
      </trkpt>
      <trkpt lat="42.373617" lon="-8.317424">
        <ele>932.161</ele>
        <time>2018-07-20T10:08:25Z</time>
      </trkpt>
      <trkpt lat="42.373218" lon="-8.317357">
        <ele>930.607</ele>
        <time>2018-07-20T10:08:45Z</time>
      </trkpt>
      <trkpt lat="42.372971" lon="-8.317412">
        <ele>929.908</ele>
        <time>2018-07-20T10:09:05Z</time>
      </trkpt>
      <trkpt lat="42.372705" lon="-8.317480">
        <ele>930.755</ele>
        <time>2018-07-20T10:09:25Z</time>
      </trkpt>
      <trkpt lat="42.372475" lon="-8.317591">
        <ele>931.089</ele>
        <time>2018-07-20T10:09:45Z</time>
      </trkpt>
      <trkpt lat="42.372296" lon="-8.317706">
        <ele>930.740</ele>
        <time>2018-07-20T10:10:05Z</time>
      </trkpt>
      <trkpt lat="42.372095" lon="-8.317931">
        <ele>931.668</ele>
        <time>2018-07-20T10:10:25Z</time>
      </trkpt>
      <trkpt lat="42.371992" lon="-8.318389">
        <ele>929.643</ele>
        <time>2018-07-20T10:10:45Z</time>
      </trkpt>
      <trkpt lat="42.371859" lon="-8.318749">
        <ele>930.964</ele>
        <time>2018-07-20T10:11:05Z</time>
      </trkpt>
      <trkpt lat="42.371605" lon="-8.319169">
        <ele>934.371</ele>
        <time>2018-07-20T10:11:25Z</time>
      </trkpt>
      <trkpt lat="42.371316" lon="-8.319859">
        <ele>932.182</ele>
        <time>2018-07-20T10:11:45Z</time>
      </trkpt>
      <trkpt lat="42.370728" lon="-8.320322">
        <ele>930.986</ele>
        <time>2018-07-20T10:12:05Z</time>
      </trkpt>
      <trkpt lat="42.370256" lon="-8.320807">
        <ele>934.260</ele>
        <time>2018-07-20T10:12:25Z</time>
      </trkpt>
      <trkpt lat="42.370066" lon="-8.321628">
        <ele>933.126</ele>
        <time>2018-07-20T10:12:45Z</time>
      </trkpt>
      <trkpt lat="42.369821" lon="-8.322382">
        <ele>933.008</ele>
        <time>2018-07-20T10:13:05Z</time>
      </trkpt>
      <trkpt lat="42.369709" lon="-8.323113">
        <ele>935.020</ele>
        <time>2018-07-20T10:13:25Z</time>
      </trkpt>
      <trkpt lat="42.369662" lon="-8.323716">
        <ele>933.954</ele>
        <time>2018-07-20T10:13:45Z</time>
      </trkpt>
      <trkpt lat="42.369660" lon="-8.323940">
        <ele>933.525</ele>
        <time>2018-07-20T10:14:05Z</time>
      </trkpt>
      <trkpt lat="42.369390" lon="-8.323617">
        <ele>935.413</ele>
        <time>2018-07-20T10:14:25Z</time>
      </trkpt>
      <trkpt lat="42.368813" lon="-8.323075">
        <ele>940.298</ele>
        <time>2018-07-20T10:14:45Z</time>
      </trkpt>
      <trkpt lat="42.368495" lon="-8.322606">
        <ele>941.859</ele>
        <time>2018-07-20T10:15:05Z</time>
      </trkpt>
      <trkpt lat="42.368134" lon="-8.322312">
        <ele>943.756</ele>
        <time>2018-07-20T10:15:25Z</time>
      </trkpt>
      <trkpt lat="42.367716" lon="-8.321971">
        <ele>949.377</ele>
        <time>2018-07-20T10:15:45Z</time>
      </trkpt>
      <trkpt lat="42.367464" lon="-8.321681">
        <ele>952.129</ele>
        <time>2018-07-20T10:16:05Z</time>
      </trkpt>
      <trkpt lat="42.367244" lon="-8.321435">
        <ele>952.900</ele>
        <time>2018-07-20T10:16:25Z</time>
      </trkpt>
      <trkpt lat="42.366890" lon="-8.321194">
        <ele>952.820</ele>
        <time>2018-07-20T10:16:45Z</time>
      </trkpt>
      <trkpt lat="42.366560" lon="-8.321044">
        <ele>955.908</ele>
        <time>2018-07-20T10:17:05Z</time>
      </trkpt>
      <trkpt lat="42.366064" lon="-8.321083">
        <ele>958.614</ele>
        <time>2018-07-20T10:17:25Z</time>
      </trkpt>
      <trkpt lat="42.365561" lon="-8.320977">
        <ele>961.478</ele>
        <time>2018-07-20T10:17:45Z</time>
      </trkpt>
      <trkpt lat="42.365035" lon="-8.320833">
        <ele>969.479</ele>
        <time>2018-07-20T10:18:05Z</time>
      </trkpt>
      <trkpt lat="42.364572" lon="-8.320560">
        <ele>973.647</ele>
        <time>2018-07-20T10:18:25Z</time>
      </trkpt>
      <trkpt lat="42.364067" lon="-8.320392">
        <ele>973.982</ele>
        <time>2018-07-20T10:18:45Z</time>
      </trkpt>
      <trkpt lat="42.363706" lon="-8.320296">
        <ele>972.543</ele>
        <time>2018-07-20T10:19:05Z</time>
      </trkpt>
      <trkpt lat="42.363485" lon="-8.320154">
        <ele>969.850</ele>
        <time>2018-07-20T10:19:25Z</time>
      </trkpt>
      <trkpt lat="42.363300" lon="-8.320055">
        <ele>968.171</ele>
        <time>2018-07-20T10:19:45Z</time>
      </trkpt>
      <trkpt lat="42.362978" lon="-8.319888">
        <ele>964.938</ele>
        <time>2018-07-20T10:20:05Z</time>
      </trkpt>
      <trkpt lat="42.362538" lon="-8.319763">
        <ele>961.070</ele>
        <time>2018-07-20T10:20:25Z</time>
      </trkpt>
      <trkpt lat="42.362235" lon="-8.319726">
        <ele>958.217</ele>
        <time>2018-07-20T10:20:45Z</time>
      </trkpt>
      <trkpt lat="42.361800" lon="-8.319741">
        <ele>952.208</ele>
        <time>2018-07-20T10:21:05Z</time>
      </trkpt>
      <trkpt lat="42.361716" lon="-8.319876">
        <ele>952.575</ele>
        <time>2018-07-20T10:21:25Z</time>
      </trkpt>
      <trkpt lat="42.361490" lon="-8.320170">
        <ele>951.359</ele>
        <time>2018-07-20T10:21:45Z</time>
      </trkpt>
      <trkpt lat="42.361371" lon="-8.320364">
        <ele>949.730</ele>
        <time>2018-07-20T10:22:05Z</time>
      </trkpt>
      <trkpt lat="42.361148" lon="-8.320474">
        <ele>945.738</ele>
        <time>2018-07-20T10:22:25Z</time>
      </trkpt>
      <trkpt lat="42.360958" lon="-8.320400">
        <ele>943.493</ele>
        <time>2018-07-20T10:22:45Z</time>
      </trkpt>
      <trkpt lat="42.360683" lon="-8.320159">
        <ele>942.034</ele>
        <time>2018-07-20T10:23:05Z</time>
      </trkpt>
      <trkpt lat="42.360101" lon="-8.319630">
        <ele>943.231</ele>
        <time>2018-07-20T10:23:25Z</time>
      </trkpt>
      <trkpt lat="42.359639" lon="-8.319185">
        <ele>946.982</ele>
        <time>2018-07-20T10:23:45Z</time>
      </trkpt>
      <trkpt lat="42.359248" lon="-8.318723">
        <ele>948.039</ele>
        <time>2018-07-20T10:24:05Z</time>
      </trkpt>
      <trkpt lat="42.358987" lon="-8.318519">
        <ele>947.001</ele>
        <time>2018-07-20T10:24:25Z</time>
      </trkpt>
      <trkpt lat="42.358837" lon="-8.318225">
        <ele>948.621</ele>
        <time>2018-07-20T10:24:45Z</time>
      </trkpt>
      <trkpt lat="42.358655" lon="-8.318151">
        <ele>951.208</ele>
        <time>2018-07-20T10:25:05Z</time>
      </trkpt>
      <trkpt lat="42.358301" lon="-8.318196">
        <ele>953.845</ele>
        <time>2018-07-20T10:25:25Z</time>
      </trkpt>
      <trkpt lat="42.357898" lon="-8.318338">
        <ele>956.069</ele>
        <time>2018-07-20T10:25:45Z</time>
      </trkpt>
      <trkpt lat="42.357413" lon="-8.318471">
        <ele>955.530</ele>
        <time>2018-07-20T10:26:05Z</time>
      </trkpt>
      <trkpt lat="42.356936" lon="-8.318518">
        <ele>956.438</ele>
        <time>2018-07-20T10:26:25Z</time>
      </trkpt>
      <trkpt lat="42.356414" lon="-8.318668">
        <ele>958.423</ele>
        <time>2018-07-20T10:26:45Z</time>
      </trkpt>
      <trkpt lat="42.355900" lon="-8.318808">
        <ele>959.844</ele>
        <time>2018-07-20T10:27:05Z</time>
      </trkpt>
      <trkpt lat="42.355454" lon="-8.319059">
        <ele>960.621</ele>
        <time>2018-07-20T10:27:25Z</time>
      </trkpt>
      <trkpt lat="42.355050" lon="-8.319243">
        <ele>964.942</ele>
        <time>2018-07-20T10:27:45Z</time>
      </trkpt>
      <trkpt lat="42.354782" lon="-8.319359">
        <ele>967.456</ele>
        <time>2018-07-20T10:28:05Z</time>
      </trkpt>
      <trkpt lat="42.354567" lon="-8.319463">
        <ele>969.659</ele>
        <time>2018-07-20T10:28:25Z</time>
      </trkpt>
      <trkpt lat="42.354172" lon="-8.319541">
        <ele>973.614</ele>
        <time>2018-07-20T10:28:45Z</time>
      </trkpt>
      <trkpt lat="42.354017" lon="-8.319658">
        <ele>973.508</ele>
        <time>2018-07-20T10:29:05Z</time>
      </trkpt>
      <trkpt lat="42.353787" lon="-8.319735">
        <ele>974.927</ele>
        <time>2018-07-20T10:29:25Z</time>
      </trkpt>
      <trkpt lat="42.353568" lon="-8.319811">
        <ele>975.911</ele>
        <time>2018-07-20T10:29:45Z</time>
      </trkpt>
      <trkpt lat="42.353340" lon="-8.319847">
        <ele>976.262</ele>
        <time>2018-07-20T10:30:05Z</time>
      </trkpt>
      <trkpt lat="42.353070" lon="-8.319736">
        <ele>978.750</ele>
        <time>2018-07-20T10:30:25Z</time>
      </trkpt>
      <trkpt lat="42.352747" lon="-8.319768">
        <ele>975.825</ele>
        <time>2018-07-20T10:30:45Z</time>
      </trkpt>
      <trkpt lat="42.352421" lon="-8.319826">
        <ele>971.776</ele>
        <time>2018-07-20T10:31:05Z</time>
      </trkpt>
      <trkpt lat="42.352140" lon="-8.319849">
        <ele>968.753</ele>
        <time>2018-07-20T10:31:25Z</time>
      </trkpt>
      <trkpt lat="42.351947" lon="-8.319848">
        <ele>965.644</ele>
        <time>2018-07-20T10:31:45Z</time>
      </trkpt>
      <trkpt lat="42.351685" lon="-8.319701">
        <ele>963.426</ele>
        <time>2018-07-20T10:32:05Z</time>
      </trkpt>
      <trkpt lat="42.351377" lon="-8.319475">
        <ele>961.547</ele>
        <time>2018-07-20T10:32:25Z</time>
      </trkpt>
      <trkpt lat="42.350998" lon="-8.319226">
        <ele>959.411</ele>
        <time>2018-07-20T10:32:45Z</time>
      </trkpt>
      <trkpt lat="42.350781" lon="-8.319018">
        <ele>957.208</ele>
        <time>2018-07-20T10:33:05Z</time>
      </trkpt>
      <trkpt lat="42.350630" lon="-8.318814">
        <ele>957.074</ele>
        <time>2018-07-20T10:33:25Z</time>
      </trkpt>
      <trkpt lat="42.350295" lon="-8.318602">
        <ele>956.238</ele>
        <time>2018-07-20T10:33:45Z</time>
      </trkpt>
      <trkpt lat="42.349856" lon="-8.318454">
        <ele>954.439</ele>
        <time>2018-07-20T10:34:05Z</time>
      </trkpt>
      <trkpt lat="42.349573" lon="-8.318403">
        <ele>951.167</ele>
        <time>2018-07-20T10:34:25Z</time>
      </trkpt>
      <trkpt lat="42.349235" lon="-8.318307">
        <ele>946.612</ele>
        <time>2018-07-20T10:34:45Z</time>
      </trkpt>
      <trkpt lat="42.348983" lon="-8.318302">
        <ele>942.153</ele>
        <time>2018-07-20T10:35:05Z</time>
      </trkpt>
      <trkpt lat="42.348778" lon="-8.318272">
        <ele>939.930</ele>
        <time>2018-07-20T10:35:25Z</time>
      </trkpt>
      <trkpt lat="42.348607" lon="-8.318341">
        <ele>937.961</ele>
        <time>2018-07-20T10:35:45Z</time>
      </trkpt>
      <trkpt lat="42.348518" lon="-8.318444">
        <ele>935.515</ele>
        <time>2018-07-20T10:36:05Z</time>
      </trkpt>
      <trkpt lat="42.348334" lon="-8.318623">
        <ele>930.965</ele>
        <time>2018-07-20T10:36:25Z</time>
      </trkpt>
      <trkpt lat="42.348379" lon="-8.318767">
        <ele>929.911</ele>
        <time>2018-07-20T10:36:45Z</time>
      </trkpt>
      <trkpt lat="42.348596" lon="-8.318898">
        <ele>930.708</ele>
        <time>2018-07-20T10:37:05Z</time>
      </trkpt>
      <trkpt lat="42.348639" lon="-8.319093">
        <ele>929.173</ele>
        <time>2018-07-20T10:37:25Z</time>
      </trkpt>
      <trkpt lat="42.348328" lon="-8.319152">
        <ele>925.157</ele>
        <time>2018-07-20T10:37:45Z</time>
      </trkpt>
      <trkpt lat="42.347780" lon="-8.319353">
        <ele>919.798</ele>
        <time>2018-07-20T10:38:05Z</time>
      </trkpt>
      <trkpt lat="42.347135" lon="-8.319364">
        <ele>918.596</ele>
        <time>2018-07-20T10:38:25Z</time>
      </trkpt>
      <trkpt lat="42.346353" lon="-8.319224">
        <ele>920.811</ele>
        <time>2018-07-20T10:38:45Z</time>
      </trkpt>
      <trkpt lat="42.345777" lon="-8.319091">
        <ele>916.442</ele>
        <time>2018-07-20T10:39:05Z</time>
      </trkpt>
      <trkpt lat="42.345006" lon="-8.318685">
        <ele>908.929</ele>
        <time>2018-07-20T10:39:25Z</time>
      </trkpt>
      <trkpt lat="42.344601" lon="-8.318377">
        <ele>903.130</ele>
        <time>2018-07-20T10:39:45Z</time>
      </trkpt>
      <trkpt lat="42.344410" lon="-8.318202">
        <ele>900.841</ele>
        <time>2018-07-20T10:40:05Z</time>
      </trkpt>
      <trkpt lat="42.344058" lon="-8.317816">
        <ele>896.981</ele>
        <time>2018-07-20T10:40:25Z</time>
      </trkpt>
      <trkpt lat="42.343505" lon="-8.317290">
        <ele>890.209</ele>
        <time>2018-07-20T10:40:45Z</time>
      </trkpt>
      <trkpt lat="42.343354" lon="-8.316946">
        <ele>888.808</ele>
        <time>2018-07-20T10:41:05Z</time>
      </trkpt>
      <trkpt lat="42.343349" lon="-8.316375">
        <ele>887.786</ele>
        <time>2018-07-20T10:41:25Z</time>
      </trkpt>
      <trkpt lat="42.343406" lon="-8.315088">
        <ele>892.340</ele>
        <time>2018-07-20T10:41:45Z</time>
      </trkpt>
      <trkpt lat="42.343347" lon="-8.314577">
        <ele>893.981</ele>
        <time>2018-07-20T10:42:05Z</time>
      </trkpt>
      <trkpt lat="42.342985" lon="-8.313921">
        <ele>891.369</ele>
        <time>2018-07-20T10:42:25Z</time>
      </trkpt>
      <trkpt lat="42.342936" lon="-8.313603">
        <ele>890.394</ele>
        <time>2018-07-20T10:42:45Z</time>
      </trkpt>
      <trkpt lat="42.343035" lon="-8.312937">
        <ele>890.045</ele>
        <time>2018-07-20T10:43:05Z</time>
      </trkpt>
      <trkpt lat="42.343056" lon="-8.312392">
        <ele>888.442</ele>
        <time>2018-07-20T10:43:25Z</time>
      </trkpt>
      <trkpt lat="42.342879" lon="-8.311937">
        <ele>888.453</ele>
        <time>2018-07-20T10:43:45Z</time>
      </trkpt>
      <trkpt lat="42.342488" lon="-8.311353">
        <ele>890.361</ele>
        <time>2018-07-20T10:44:05Z</time>
      </trkpt>
      <trkpt lat="42.342118" lon="-8.311005">
        <ele>889.921</ele>
        <time>2018-07-20T10:44:25Z</time>
      </trkpt>
      <trkpt lat="42.341731" lon="-8.310606">
        <ele>889.113</ele>
        <time>2018-07-20T10:44:45Z</time>
      </trkpt>
      <trkpt lat="42.341136" lon="-8.310067">
        <ele>885.308</ele>
        <time>2018-07-20T10:45:05Z</time>
      </trkpt>
      <trkpt lat="42.340510" lon="-8.309407">
        <ele>886.368</ele>
        <time>2018-07-20T10:45:25Z</time>
      </trkpt>
      <trkpt lat="42.340175" lon="-8.308835">
        <ele>887.842</ele>
        <time>2018-07-20T10:45:45Z</time>
      </trkpt>
      <trkpt lat="42.339849" lon="-8.308422">
        <ele>890.513</ele>
        <time>2018-07-20T10:46:05Z</time>
      </trkpt>
      <trkpt lat="42.339551" lon="-8.308131">
        <ele>893.221</ele>
        <time>2018-07-20T10:46:25Z</time>
      </trkpt>
      <trkpt lat="42.339133" lon="-8.307683">
        <ele>897.916</ele>
        <time>2018-07-20T10:46:45Z</time>
      </trkpt>
      <trkpt lat="42.338856" lon="-8.307219">
        <ele>897.437</ele>
        <time>2018-07-20T10:47:05Z</time>
      </trkpt>
      <trkpt lat="42.338681" lon="-8.306796">
        <ele>895.454</ele>
        <time>2018-07-20T10:47:25Z</time>
      </trkpt>
      <trkpt lat="42.338422" lon="-8.306138">
        <ele>896.345</ele>
        <time>2018-07-20T10:47:45Z</time>
      </trkpt>
      <trkpt lat="42.338222" lon="-8.305636">
        <ele>897.197</ele>
        <time>2018-07-20T10:48:05Z</time>
      </trkpt>
      <trkpt lat="42.338025" lon="-8.305029">
        <ele>896.823</ele>
        <time>2018-07-20T10:48:25Z</time>
      </trkpt>
      <trkpt lat="42.337773" lon="-8.304304">
        <ele>900.625</ele>
        <time>2018-07-20T10:48:45Z</time>
      </trkpt>
      <trkpt lat="42.337581" lon="-8.303893">
        <ele>906.708</ele>
        <time>2018-07-20T10:49:05Z</time>
      </trkpt>
      <trkpt lat="42.337468" lon="-8.303482">
        <ele>909.871</ele>
        <time>2018-07-20T10:49:25Z</time>
      </trkpt>
      <trkpt lat="42.337548" lon="-8.303327">
        <ele>909.825</ele>
        <time>2018-07-20T10:49:45Z</time>
      </trkpt>
      <trkpt lat="42.337723" lon="-8.303216">
        <ele>909.596</ele>
        <time>2018-07-20T10:50:05Z</time>
      </trkpt>
      <trkpt lat="42.337910" lon="-8.303123">
        <ele>909.324</ele>
        <time>2018-07-20T10:50:25Z</time>
      </trkpt>
      <trkpt lat="42.338132" lon="-8.303155">
        <ele>909.139</ele>
        <time>2018-07-20T10:50:45Z</time>
      </trkpt>
      <trkpt lat="42.338430" lon="-8.303290">
        <ele>910.040</ele>
        <time>2018-07-20T10:51:05Z</time>
      </trkpt>
      <trkpt lat="42.338649" lon="-8.303473">
        <ele>909.617</ele>
        <time>2018-07-20T10:51:25Z</time>
      </trkpt>
      <trkpt lat="42.338736" lon="-8.303642">
        <ele>908.868</ele>
        <time>2018-07-20T10:51:45Z</time>
      </trkpt>
      <trkpt lat="42.338896" lon="-8.303839">
        <ele>909.271</ele>
        <time>2018-07-20T10:52:05Z</time>
      </trkpt>
      <trkpt lat="42.339079" lon="-8.304026">
        <ele>909.241</ele>
        <time>2018-07-20T10:52:25Z</time>
      </trkpt>
      <trkpt lat="42.339633" lon="-8.304346">
        <ele>912.015</ele>
        <time>2018-07-20T10:52:45Z</time>
      </trkpt>
      <trkpt lat="42.339890" lon="-8.304553">
        <ele>913.208</ele>
        <time>2018-07-20T10:53:05Z</time>
      </trkpt>
      <trkpt lat="42.340211" lon="-8.304910">
        <ele>912.049</ele>
        <time>2018-07-20T10:53:25Z</time>
      </trkpt>
      <trkpt lat="42.340464" lon="-8.305137">
        <ele>911.393</ele>
        <time>2018-07-20T10:53:45Z</time>
      </trkpt>
      <trkpt lat="42.340999" lon="-8.305309">
        <ele>910.454</ele>
        <time>2018-07-20T10:54:05Z</time>
      </trkpt>
      <trkpt lat="42.341684" lon="-8.305433">
        <ele>907.152</ele>
        <time>2018-07-20T10:54:25Z</time>
      </trkpt>
      <trkpt lat="42.342291" lon="-8.305559">
        <ele>910.237</ele>
        <time>2018-07-20T10:54:45Z</time>
      </trkpt>
      <trkpt lat="42.342630" lon="-8.305457">
        <ele>912.338</ele>
        <time>2018-07-20T10:55:05Z</time>
      </trkpt>
      <trkpt lat="42.342887" lon="-8.305246">
        <ele>914.915</ele>
        <time>2018-07-20T10:55:25Z</time>
      </trkpt>
      <trkpt lat="42.343297" lon="-8.304807">
        <ele>918.546</ele>
        <time>2018-07-20T10:55:45Z</time>
      </trkpt>
      <trkpt lat="42.343667" lon="-8.304389">
        <ele>922.615</ele>
        <time>2018-07-20T10:56:05Z</time>
      </trkpt>
      <trkpt lat="42.344002" lon="-8.304118">
        <ele>924.965</ele>
        <time>2018-07-20T10:56:25Z</time>
      </trkpt>
      <trkpt lat="42.344303" lon="-8.303954">
        <ele>926.811</ele>
        <time>2018-07-20T10:56:45Z</time>
      </trkpt>
      <trkpt lat="42.344590" lon="-8.303681">
        <ele>929.708</ele>
        <time>2018-07-20T10:57:05Z</time>
      </trkpt>
      <trkpt lat="42.344689" lon="-8.303382">
        <ele>933.153</ele>
        <time>2018-07-20T10:57:25Z</time>
      </trkpt>
      <trkpt lat="42.344710" lon="-8.303075">
        <ele>935.647</ele>
        <time>2018-07-20T10:57:45Z</time>
      </trkpt>
      <trkpt lat="42.344815" lon="-8.302551">
        <ele>940.488</ele>
        <time>2018-07-20T10:58:05Z</time>
      </trkpt>
      <trkpt lat="42.344944" lon="-8.302300">
        <ele>943.126</ele>
        <time>2018-07-20T10:58:25Z</time>
      </trkpt>
      <trkpt lat="42.344957" lon="-8.302061">
        <ele>943.081</ele>
        <time>2018-07-20T10:58:45Z</time>
      </trkpt>
      <trkpt lat="42.344787" lon="-8.301843">
        <ele>941.172</ele>
        <time>2018-07-20T10:59:05Z</time>
      </trkpt>
      <trkpt lat="42.344535" lon="-8.301768">
        <ele>938.899</ele>
        <time>2018-07-20T10:59:25Z</time>
      </trkpt>
      <trkpt lat="42.344225" lon="-8.301623">
        <ele>935.690</ele>
        <time>2018-07-20T10:59:45Z</time>
      </trkpt>
      <trkpt lat="42.344006" lon="-8.301500">
        <ele>933.685</ele>
        <time>2018-07-20T11:00:05Z</time>
      </trkpt>
      <trkpt lat="42.343877" lon="-8.301300">
        <ele>932.889</ele>
        <time>2018-07-20T11:00:25Z</time>
      </trkpt>
      <trkpt lat="42.343875" lon="-8.301045">
        <ele>932.417</ele>
        <time>2018-07-20T11:00:45Z</time>
      </trkpt>
      <trkpt lat="42.344036" lon="-8.300531">
        <ele>928.808</ele>
        <time>2018-07-20T11:01:05Z</time>
      </trkpt>
      <trkpt lat="42.344171" lon="-8.300170">
        <ele>926.970</ele>
        <time>2018-07-20T11:01:25Z</time>
      </trkpt>
      <trkpt lat="42.344324" lon="-8.299677">
        <ele>921.644</ele>
        <time>2018-07-20T11:01:45Z</time>
      </trkpt>
      <trkpt lat="42.344466" lon="-8.299232">
        <ele>918.415</ele>
        <time>2018-07-20T11:02:05Z</time>
      </trkpt>
      <trkpt lat="42.344498" lon="-8.298790">
        <ele>918.253</ele>
        <time>2018-07-20T11:02:25Z</time>
      </trkpt>
      <trkpt lat="42.344476" lon="-8.298434">
        <ele>920.828</ele>
        <time>2018-07-20T11:02:45Z</time>
      </trkpt>
      <trkpt lat="42.344405" lon="-8.298076">
        <ele>924.429</ele>
        <time>2018-07-20T11:03:05Z</time>
      </trkpt>
      <trkpt lat="42.344355" lon="-8.297638">
        <ele>926.426</ele>
        <time>2018-07-20T11:03:25Z</time>
      </trkpt>
      <trkpt lat="42.344365" lon="-8.297212">
        <ele>929.537</ele>
        <time>2018-07-20T11:03:45Z</time>
      </trkpt>
      <trkpt lat="42.344380" lon="-8.296817">
        <ele>933.344</ele>
        <time>2018-07-20T11:04:05Z</time>
      </trkpt>
      <trkpt lat="42.344425" lon="-8.296555">
        <ele>936.105</ele>
        <time>2018-07-20T11:04:25Z</time>
      </trkpt>
      <trkpt lat="42.344543" lon="-8.296448">
        <ele>938.815</ele>
        <time>2018-07-20T11:04:45Z</time>
      </trkpt>
      <trkpt lat="42.344674" lon="-8.296395">
        <ele>941.208</ele>
        <time>2018-07-20T11:05:05Z</time>
      </trkpt>
      <trkpt lat="42.344861" lon="-8.296199">
        <ele>943.926</ele>
        <time>2018-07-20T11:05:25Z</time>
      </trkpt>
      <trkpt lat="42.345023" lon="-8.295888">
        <ele>945.790</ele>
        <time>2018-07-20T11:05:45Z</time>
      </trkpt>
      <trkpt lat="42.345063" lon="-8.295788">
        <ele>946.181</ele>
        <time>2018-07-20T11:06:05Z</time>
      </trkpt>
      <trkpt lat="42.345201" lon="-8.295706">
        <ele>945.979</ele>
        <time>2018-07-20T11:06:25Z</time>
      </trkpt>
      <trkpt lat="42.345362" lon="-8.295586">
        <ele>945.994</ele>
        <time>2018-07-20T11:06:45Z</time>
      </trkpt>
      <trkpt lat="42.345563" lon="-8.295663">
        <ele>946.045</ele>
        <time>2018-07-20T11:07:05Z</time>
      </trkpt>
      <trkpt lat="42.345752" lon="-8.295686">
        <ele>946.032</ele>
        <time>2018-07-20T11:07:25Z</time>
      </trkpt>
      <trkpt lat="42.345995" lon="-8.295612">
        <ele>944.153</ele>
        <time>2018-07-20T11:07:45Z</time>
      </trkpt>
      <trkpt lat="42.346307" lon="-8.295449">
        <ele>941.331</ele>
        <time>2018-07-20T11:08:05Z</time>
      </trkpt>
      <trkpt lat="42.346671" lon="-8.295310">
        <ele>936.861</ele>
        <time>2018-07-20T11:08:25Z</time>
      </trkpt>
      <trkpt lat="42.346924" lon="-8.295312">
        <ele>935.707</ele>
        <time>2018-07-20T11:08:45Z</time>
      </trkpt>
      <trkpt lat="42.347332" lon="-8.295444">
        <ele>933.608</ele>
        <time>2018-07-20T11:09:05Z</time>
      </trkpt>
      <trkpt lat="42.347744" lon="-8.295608">
        <ele>929.025</ele>
        <time>2018-07-20T11:09:25Z</time>
      </trkpt>
      <trkpt lat="42.348178" lon="-8.295770">
        <ele>921.379</ele>
        <time>2018-07-20T11:09:45Z</time>
      </trkpt>
      <trkpt lat="42.348579" lon="-8.295792">
        <ele>917.830</ele>
        <time>2018-07-20T11:10:05Z</time>
      </trkpt>
      <trkpt lat="42.348804" lon="-8.295695">
        <ele>917.698</ele>
        <time>2018-07-20T11:10:25Z</time>
      </trkpt>
      <trkpt lat="42.348984" lon="-8.295614">
        <ele>917.193</ele>
        <time>2018-07-20T11:10:45Z</time>
      </trkpt>
      <trkpt lat="42.349273" lon="-8.295669">
        <ele>913.354</ele>
        <time>2018-07-20T11:11:05Z</time>
      </trkpt>
      <trkpt lat="42.349529" lon="-8.295673">
        <ele>912.121</ele>
        <time>2018-07-20T11:11:25Z</time>
      </trkpt>
      <trkpt lat="42.349751" lon="-8.295668">
        <ele>911.262</ele>
        <time>2018-07-20T11:11:45Z</time>
      </trkpt>
      <trkpt lat="42.349953" lon="-8.295824">
        <ele>907.717</ele>
        <time>2018-07-20T11:12:05Z</time>
      </trkpt>
      <trkpt lat="42.350182" lon="-8.295955">
        <ele>900.187</ele>
        <time>2018-07-20T11:12:25Z</time>
      </trkpt>
      <trkpt lat="42.350559" lon="-8.296043">
        <ele>893.715</ele>
        <time>2018-07-20T11:12:45Z</time>
      </trkpt>
      <trkpt lat="42.351176" lon="-8.296225">
        <ele>882.908</ele>
        <time>2018-07-20T11:13:05Z</time>
      </trkpt>
      <trkpt lat="42.351475" lon="-8.296354">
        <ele>876.583</ele>
        <time>2018-07-20T11:13:25Z</time>
      </trkpt>
      <trkpt lat="42.351529" lon="-8.296187">
        <ele>877.757</ele>
        <time>2018-07-20T11:13:45Z</time>
      </trkpt>
      <trkpt lat="42.351645" lon="-8.295879">
        <ele>879.718</ele>
        <time>2018-07-20T11:14:05Z</time>
      </trkpt>
      <trkpt lat="42.351814" lon="-8.295531">
        <ele>880.166</ele>
        <time>2018-07-20T11:14:25Z</time>
      </trkpt>
      <trkpt lat="42.351922" lon="-8.295140">
        <ele>880.861</ele>
        <time>2018-07-20T11:14:45Z</time>
      </trkpt>
      <trkpt lat="42.351922" lon="-8.294801">
        <ele>881.232</ele>
        <time>2018-07-20T11:15:05Z</time>
      </trkpt>
      <trkpt lat="42.351835" lon="-8.294601">
        <ele>880.979</ele>
        <time>2018-07-20T11:15:25Z</time>
      </trkpt>
      <trkpt lat="42.351575" lon="-8.294438">
        <ele>881.690</ele>
        <time>2018-07-20T11:15:45Z</time>
      </trkpt>
      <trkpt lat="42.351524" lon="-8.294323">
        <ele>881.118</ele>
        <time>2018-07-20T11:16:05Z</time>
      </trkpt>
      <trkpt lat="42.351469" lon="-8.294094">
        <ele>878.898</ele>
        <time>2018-07-20T11:16:25Z</time>
      </trkpt>
      <trkpt lat="42.351320" lon="-8.293815">
        <ele>873.417</ele>
        <time>2018-07-20T11:16:45Z</time>
      </trkpt>
      <trkpt lat="42.351060" lon="-8.293686">
        <ele>869.008</ele>
        <time>2018-07-20T11:17:05Z</time>
      </trkpt>
      <trkpt lat="42.350690" lon="-8.293515">
        <ele>866.013</ele>
        <time>2018-07-20T11:17:25Z</time>
      </trkpt>
      <trkpt lat="42.350485" lon="-8.293244">
        <ele>863.947</ele>
        <time>2018-07-20T11:17:45Z</time>
      </trkpt>
      <trkpt lat="42.350254" lon="-8.292895">
        <ele>862.988</ele>
        <time>2018-07-20T11:18:05Z</time>
      </trkpt>
      <trkpt lat="42.350184" lon="-8.292392">
        <ele>860.226</ele>
        <time>2018-07-20T11:18:25Z</time>
      </trkpt>
      <trkpt lat="42.350003" lon="-8.291919">
        <ele>860.511</ele>
        <time>2018-07-20T11:18:45Z</time>
      </trkpt>
      <trkpt lat="42.349816" lon="-8.291560">
        <ele>861.872</ele>
        <time>2018-07-20T11:19:05Z</time>
      </trkpt>
      <trkpt lat="42.349746" lon="-8.291107">
        <ele>859.669</ele>
        <time>2018-07-20T11:19:25Z</time>
      </trkpt>
      <trkpt lat="42.349774" lon="-8.290610">
        <ele>858.130</ele>
        <time>2018-07-20T11:19:45Z</time>
      </trkpt>
      <trkpt lat="42.349731" lon="-8.290063">
        <ele>854.076</ele>
        <time>2018-07-20T11:20:05Z</time>
      </trkpt>
      <trkpt lat="42.349757" lon="-8.289782">
        <ele>849.690</ele>
        <time>2018-07-20T11:20:25Z</time>
      </trkpt>
      <trkpt lat="42.349853" lon="-8.289549">
        <ele>846.219</ele>
        <time>2018-07-20T11:20:45Z</time>
      </trkpt>
      <trkpt lat="42.349986" lon="-8.289245">
        <ele>841.208</ele>
        <time>2018-07-20T11:21:05Z</time>
      </trkpt>
      <trkpt lat="42.350097" lon="-8.288903">
        <ele>836.549</ele>
        <time>2018-07-20T11:21:25Z</time>
      </trkpt>
      <trkpt lat="42.350090" lon="-8.288377">
        <ele>834.453</ele>
        <time>2018-07-20T11:21:45Z</time>
      </trkpt>
      <trkpt lat="42.350248" lon="-8.288067">
        <ele>833.234</ele>
        <time>2018-07-20T11:22:05Z</time>
      </trkpt>
      <trkpt lat="42.350561" lon="-8.287960">
        <ele>830.992</ele>
        <time>2018-07-20T11:22:25Z</time>
      </trkpt>
      <trkpt lat="42.351148" lon="-8.287750">
        <ele>827.147</ele>
        <time>2018-07-20T11:22:45Z</time>
      </trkpt>
      <trkpt lat="42.351460" lon="-8.287630">
        <ele>826.458</ele>
        <time>2018-07-20T11:23:05Z</time>
      </trkpt>
      <trkpt lat="42.351581" lon="-8.287479">
        <ele>827.155</ele>
        <time>2018-07-20T11:23:25Z</time>
      </trkpt>
      <trkpt lat="42.351770" lon="-8.287398">
        <ele>826.076</ele>
        <time>2018-07-20T11:23:45Z</time>
      </trkpt>
      <trkpt lat="42.351894" lon="-8.287326">
        <ele>824.946</ele>
        <time>2018-07-20T11:24:05Z</time>
      </trkpt>
      <trkpt lat="42.352043" lon="-8.286996">
        <ele>822.788</ele>
        <time>2018-07-20T11:24:25Z</time>
      </trkpt>
      <trkpt lat="42.352184" lon="-8.286588">
        <ele>821.616</ele>
        <time>2018-07-20T11:24:45Z</time>
      </trkpt>
      <trkpt lat="42.352378" lon="-8.286327">
        <ele>820.308</ele>
        <time>2018-07-20T11:25:05Z</time>
      </trkpt>
      <trkpt lat="42.352482" lon="-8.286038">
        <ele>818.726</ele>
        <time>2018-07-20T11:25:25Z</time>
      </trkpt>
      <trkpt lat="42.352482" lon="-8.285831">
        <ele>817.270</ele>
        <time>2018-07-20T11:25:45Z</time>
      </trkpt>
      <trkpt lat="42.352711" lon="-8.285414">
        <ele>809.951</ele>
        <time>2018-07-20T11:26:05Z</time>
      </trkpt>
      <trkpt lat="42.352837" lon="-8.285228">
        <ele>805.499</ele>
        <time>2018-07-20T11:26:25Z</time>
      </trkpt>
      <trkpt lat="42.352854" lon="-8.285050">
        <ele>802.414</ele>
        <time>2018-07-20T11:26:45Z</time>
      </trkpt>
      <trkpt lat="42.352623" lon="-8.284979">
        <ele>803.935</ele>
        <time>2018-07-20T11:27:05Z</time>
      </trkpt>
      <trkpt lat="42.352357" lon="-8.284777">
        <ele>804.152</ele>
        <time>2018-07-20T11:27:25Z</time>
      </trkpt>
      <trkpt lat="42.352296" lon="-8.284407">
        <ele>803.123</ele>
        <time>2018-07-20T11:27:45Z</time>
      </trkpt>
      <trkpt lat="42.352443" lon="-8.284156">
        <ele>801.435</ele>
        <time>2018-07-20T11:28:05Z</time>
      </trkpt>
      <trkpt lat="42.352588" lon="-8.283890">
        <ele>798.786</ele>
        <time>2018-07-20T11:28:25Z</time>
      </trkpt>
      <trkpt lat="42.352837" lon="-8.283605">
        <ele>798.214</ele>
        <time>2018-07-20T11:28:45Z</time>
      </trkpt>
      <trkpt lat="42.353103" lon="-8.283326">
        <ele>797.308</ele>
        <time>2018-07-20T11:29:05Z</time>
      </trkpt>
      <trkpt lat="42.353271" lon="-8.283228">
        <ele>795.345</ele>
        <time>2018-07-20T11:29:25Z</time>
      </trkpt>
      <trkpt lat="42.353390" lon="-8.283029">
        <ele>794.269</ele>
        <time>2018-07-20T11:29:45Z</time>
      </trkpt>
      <trkpt lat="42.353426" lon="-8.282908">
        <ele>793.860</ele>
        <time>2018-07-20T11:30:05Z</time>
      </trkpt>
      <trkpt lat="42.353551" lon="-8.282754">
        <ele>792.568</ele>
        <time>2018-07-20T11:30:25Z</time>
      </trkpt>
      <trkpt lat="42.353694" lon="-8.282466">
        <ele>790.813</ele>
        <time>2018-07-20T11:30:45Z</time>
      </trkpt>
      <trkpt lat="42.353791" lon="-8.282130">
        <ele>788.954</ele>
        <time>2018-07-20T11:31:05Z</time>
      </trkpt>
      <trkpt lat="42.353839" lon="-8.281867">
        <ele>787.051</ele>
        <time>2018-07-20T11:31:25Z</time>
      </trkpt>
      <trkpt lat="42.353950" lon="-8.281447">
        <ele>784.182</ele>
        <time>2018-07-20T11:31:45Z</time>
      </trkpt>
      <trkpt lat="42.354012" lon="-8.281148">
        <ele>781.348</ele>
        <time>2018-07-20T11:32:05Z</time>
      </trkpt>
      <trkpt lat="42.354017" lon="-8.280833">
        <ele>777.561</ele>
        <time>2018-07-20T11:32:25Z</time>
      </trkpt>
      <trkpt lat="42.354015" lon="-8.280554">
        <ele>774.017</ele>
        <time>2018-07-20T11:32:45Z</time>
      </trkpt>
      <trkpt lat="42.354118" lon="-8.280270">
        <ele>770.308</ele>
        <time>2018-07-20T11:33:05Z</time>
      </trkpt>
      <trkpt lat="42.354228" lon="-8.280034">
        <ele>766.376</ele>
        <time>2018-07-20T11:33:25Z</time>
      </trkpt>
      <trkpt lat="42.354374" lon="-8.279754">
        <ele>761.350</ele>
        <time>2018-07-20T11:33:45Z</time>
      </trkpt>
      <trkpt lat="42.354334" lon="-8.279605">
        <ele>761.091</ele>
        <time>2018-07-20T11:34:05Z</time>
      </trkpt>
      <trkpt lat="42.354312" lon="-8.279314">
        <ele>760.079</ele>
        <time>2018-07-20T11:34:25Z</time>
      </trkpt>
      <trkpt lat="42.354363" lon="-8.279037">
        <ele>758.934</ele>
        <time>2018-07-20T11:34:45Z</time>
      </trkpt>
      <trkpt lat="42.354502" lon="-8.278812">
        <ele>758.065</ele>
        <time>2018-07-20T11:35:05Z</time>
      </trkpt>
      <trkpt lat="42.354670" lon="-8.278698">
        <ele>756.942</ele>
        <time>2018-07-20T11:35:25Z</time>
      </trkpt>
      <trkpt lat="42.354852" lon="-8.278665">
        <ele>755.553</ele>
        <time>2018-07-20T11:35:45Z</time>
      </trkpt>
      <trkpt lat="42.355019" lon="-8.278717">
        <ele>754.131</ele>
        <time>2018-07-20T11:36:05Z</time>
      </trkpt>
      <trkpt lat="42.355172" lon="-8.278837">
        <ele>754.661</ele>
        <time>2018-07-20T11:36:25Z</time>
      </trkpt>
      <trkpt lat="42.355380" lon="-8.278967">
        <ele>754.607</ele>
        <time>2018-07-20T11:36:45Z</time>
      </trkpt>
      <trkpt lat="42.355594" lon="-8.279093">
        <ele>753.408</ele>
        <time>2018-07-20T11:37:05Z</time>
      </trkpt>
      <trkpt lat="42.355848" lon="-8.279187">
        <ele>751.815</ele>
        <time>2018-07-20T11:37:25Z</time>
      </trkpt>
      <trkpt lat="42.356041" lon="-8.279250">
        <ele>750.249</ele>
        <time>2018-07-20T11:37:45Z</time>
      </trkpt>
      <trkpt lat="42.356222" lon="-8.279361">
        <ele>748.580</ele>
        <time>2018-07-20T11:38:05Z</time>
      </trkpt>
      <trkpt lat="42.356418" lon="-8.279463">
        <ele>747.018</ele>
        <time>2018-07-20T11:38:25Z</time>
      </trkpt>
      <trkpt lat="42.356596" lon="-8.279437">
        <ele>746.343</ele>
        <time>2018-07-20T11:38:45Z</time>
      </trkpt>
      <trkpt lat="42.356813" lon="-8.279362">
        <ele>744.454</ele>
        <time>2018-07-20T11:39:05Z</time>
      </trkpt>
      <trkpt lat="42.356904" lon="-8.279215">
        <ele>743.491</ele>
        <time>2018-07-20T11:39:25Z</time>
      </trkpt>
      <trkpt lat="42.356970" lon="-8.278949">
        <ele>743.372</ele>
        <time>2018-07-20T11:39:45Z</time>
      </trkpt>
      <trkpt lat="42.357107" lon="-8.278503">
        <ele>742.483</ele>
        <time>2018-07-20T11:40:05Z</time>
      </trkpt>
      <trkpt lat="42.357174" lon="-8.278130">
        <ele>741.625</ele>
        <time>2018-07-20T11:40:25Z</time>
      </trkpt>
      <trkpt lat="42.357245" lon="-8.277805">
        <ele>739.817</ele>
        <time>2018-07-20T11:40:45Z</time>
      </trkpt>
      <trkpt lat="42.357310" lon="-8.277403">
        <ele>739.208</ele>
        <time>2018-07-20T11:41:05Z</time>
      </trkpt>
      <trkpt lat="42.357458" lon="-8.277160">
        <ele>738.770</ele>
        <time>2018-07-20T11:41:25Z</time>
      </trkpt>
      <trkpt lat="42.357635" lon="-8.277086">
        <ele>738.334</ele>
        <time>2018-07-20T11:41:45Z</time>
      </trkpt>
      <trkpt lat="42.357954" lon="-8.276985">
        <ele>738.535</ele>
        <time>2018-07-20T11:42:05Z</time>
      </trkpt>
      <trkpt lat="42.358094" lon="-8.276855">
        <ele>738.693</ele>
        <time>2018-07-20T11:42:25Z</time>
      </trkpt>
      <trkpt lat="42.358168" lon="-8.276610">
        <ele>737.088</ele>
        <time>2018-07-20T11:42:45Z</time>
      </trkpt>
      <trkpt lat="42.358258" lon="-8.276376">
        <ele>734.189</ele>
        <time>2018-07-20T11:43:05Z</time>
      </trkpt>
      <trkpt lat="42.358359" lon="-8.276260">
        <ele>732.076</ele>
        <time>2018-07-20T11:43:25Z</time>
      </trkpt>
      <trkpt lat="42.358716" lon="-8.276174">
        <ele>728.497</ele>
        <time>2018-07-20T11:43:45Z</time>
      </trkpt>
      <trkpt lat="42.358965" lon="-8.276177">
        <ele>727.319</ele>
        <time>2018-07-20T11:44:05Z</time>
      </trkpt>
      <trkpt lat="42.359183" lon="-8.276130">
        <ele>725.909</ele>
        <time>2018-07-20T11:44:25Z</time>
      </trkpt>
      <trkpt lat="42.359325" lon="-8.276078">
        <ele>725.019</ele>
        <time>2018-07-20T11:44:45Z</time>
      </trkpt>
      <trkpt lat="42.359468" lon="-8.276062">
        <ele>723.908</ele>
        <time>2018-07-20T11:45:05Z</time>
      </trkpt>
      <trkpt lat="42.359576" lon="-8.276192">
        <ele>721.263</ele>
        <time>2018-07-20T11:45:25Z</time>
      </trkpt>
      <trkpt lat="42.359741" lon="-8.276374">
        <ele>716.887</ele>
        <time>2018-07-20T11:45:45Z</time>
      </trkpt>
      <trkpt lat="42.359898" lon="-8.276546">
        <ele>714.168</ele>
        <time>2018-07-20T11:46:05Z</time>
      </trkpt>
      <trkpt lat="42.360027" lon="-8.276644">
        <ele>711.946</ele>
        <time>2018-07-20T11:46:25Z</time>
      </trkpt>
      <trkpt lat="42.360249" lon="-8.276637">
        <ele>710.471</ele>
        <time>2018-07-20T11:46:45Z</time>
      </trkpt>
      <trkpt lat="42.360377" lon="-8.276455">
        <ele>711.142</ele>
        <time>2018-07-20T11:47:05Z</time>
      </trkpt>
      <trkpt lat="42.360688" lon="-8.276257">
        <ele>710.319</ele>
        <time>2018-07-20T11:47:25Z</time>
      </trkpt>
      <trkpt lat="42.360952" lon="-8.276146">
        <ele>708.180</ele>
        <time>2018-07-20T11:47:45Z</time>
      </trkpt>
      <trkpt lat="42.360961" lon="-8.276147">
        <ele>708.181</ele>
        <time>2018-07-20T11:48:05Z</time>
      </trkpt>
      <trkpt lat="42.361271" lon="-8.276086">
        <ele>705.161</ele>
        <time>2018-07-20T11:48:25Z</time>
      </trkpt>
      <trkpt lat="42.361355" lon="-8.275953">
        <ele>703.217</ele>
        <time>2018-07-20T11:48:45Z</time>
      </trkpt>
      <trkpt lat="42.361313" lon="-8.275722">
        <ele>702.008</ele>
        <time>2018-07-20T11:49:05Z</time>
      </trkpt>
      <trkpt lat="42.361218" lon="-8.275430">
        <ele>700.810</ele>
        <time>2018-07-20T11:49:25Z</time>
      </trkpt>
      <trkpt lat="42.361153" lon="-8.275034">
        <ele>697.884</ele>
        <time>2018-07-20T11:49:45Z</time>
      </trkpt>
      <trkpt lat="42.361037" lon="-8.274763">
        <ele>696.155</ele>
        <time>2018-07-20T11:50:05Z</time>
      </trkpt>
      <trkpt lat="42.361011" lon="-8.274502">
        <ele>691.963</ele>
        <time>2018-07-20T11:50:25Z</time>
      </trkpt>
      <trkpt lat="42.360942" lon="-8.274344">
        <ele>690.428</ele>
        <time>2018-07-20T11:50:45Z</time>
      </trkpt>
      <trkpt lat="42.360830" lon="-8.274248">
        <ele>690.569</ele>
        <time>2018-07-20T11:51:05Z</time>
      </trkpt>
      <trkpt lat="42.360617" lon="-8.273961">
        <ele>685.576</ele>
        <time>2018-07-20T11:51:25Z</time>
      </trkpt>
      <trkpt lat="42.360450" lon="-8.273721">
        <ele>682.357</ele>
        <time>2018-07-20T11:51:45Z</time>
      </trkpt>
      <trkpt lat="42.360391" lon="-8.273531">
        <ele>680.843</ele>
        <time>2018-07-20T11:52:05Z</time>
      </trkpt>
      <trkpt lat="42.360515" lon="-8.273547">
        <ele>679.964</ele>
        <time>2018-07-20T11:52:25Z</time>
      </trkpt>
      <trkpt lat="42.360794" lon="-8.273582">
        <ele>678.910</ele>
        <time>2018-07-20T11:52:45Z</time>
      </trkpt>
      <trkpt lat="42.361073" lon="-8.273662">
        <ele>678.708</ele>
        <time>2018-07-20T11:53:05Z</time>
      </trkpt>
      <trkpt lat="42.361081" lon="-8.273673">
        <ele>678.826</ele>
        <time>2018-07-20T11:53:25Z</time>
      </trkpt>
      <trkpt lat="42.361302" lon="-8.273777">
        <ele>676.570</ele>
        <time>2018-07-20T11:53:45Z</time>
      </trkpt>
      <trkpt lat="42.361924" lon="-8.274037">
        <ele>670.561</ele>
        <time>2018-07-20T11:54:05Z</time>
      </trkpt>
      <trkpt lat="42.362352" lon="-8.274102">
        <ele>665.389</ele>
        <time>2018-07-20T11:54:25Z</time>
      </trkpt>
      <trkpt lat="42.362706" lon="-8.274091">
        <ele>662.464</ele>
        <time>2018-07-20T11:54:45Z</time>
      </trkpt>
      <trkpt lat="42.363036" lon="-8.274099">
        <ele>659.955</ele>
        <time>2018-07-20T11:55:05Z</time>
      </trkpt>
      <trkpt lat="42.363356" lon="-8.274160">
        <ele>656.422</ele>
        <time>2018-07-20T11:55:25Z</time>
      </trkpt>
      <trkpt lat="42.363511" lon="-8.274476">
        <ele>655.023</ele>
        <time>2018-07-20T11:55:45Z</time>
      </trkpt>
      <trkpt lat="42.363719" lon="-8.274775">
        <ele>653.658</ele>
        <time>2018-07-20T11:56:05Z</time>
      </trkpt>
      <trkpt lat="42.364056" lon="-8.274805">
        <ele>650.552</ele>
        <time>2018-07-20T11:56:25Z</time>
      </trkpt>
      <trkpt lat="42.364444" lon="-8.274630">
        <ele>647.017</ele>
        <time>2018-07-20T11:56:45Z</time>
      </trkpt>
      <trkpt lat="42.364737" lon="-8.274469">
        <ele>644.808</ele>
        <time>2018-07-20T11:57:05Z</time>
      </trkpt>
      <trkpt lat="42.364978" lon="-8.274501">
        <ele>642.037</ele>
        <time>2018-07-20T11:57:25Z</time>
      </trkpt>
      <trkpt lat="42.365234" lon="-8.274551">
        <ele>638.261</ele>
        <time>2018-07-20T11:57:45Z</time>
      </trkpt>
      <trkpt lat="42.365590" lon="-8.274489">
        <ele>630.312</ele>
        <time>2018-07-20T11:58:05Z</time>
      </trkpt>
      <trkpt lat="42.365938" lon="-8.274311">
        <ele>619.750</ele>
        <time>2018-07-20T11:58:25Z</time>
      </trkpt>
      <trkpt lat="42.366350" lon="-8.274070">
        <ele>609.115</ele>
        <time>2018-07-20T11:58:45Z</time>
      </trkpt>
      <trkpt lat="42.366541" lon="-8.273998">
        <ele>603.796</ele>
        <time>2018-07-20T11:59:05Z</time>
      </trkpt>
      <trkpt lat="42.366746" lon="-8.273997">
        <ele>598.823</ele>
        <time>2018-07-20T11:59:25Z</time>
      </trkpt>
      <trkpt lat="42.366868" lon="-8.273756">
        <ele>592.064</ele>
        <time>2018-07-20T11:59:45Z</time>
      </trkpt>
      <trkpt lat="42.367063" lon="-8.273471">
        <ele>582.147</ele>
        <time>2018-07-20T12:00:05Z</time>
      </trkpt>
      <trkpt lat="42.367100" lon="-8.273248">
        <ele>578.229</ele>
        <time>2018-07-20T12:00:25Z</time>
      </trkpt>
      <trkpt lat="42.367203" lon="-8.273215">
        <ele>574.721</ele>
        <time>2018-07-20T12:00:45Z</time>
      </trkpt>
      <trkpt lat="42.367325" lon="-8.273294">
        <ele>573.008</ele>
        <time>2018-07-20T12:01:05Z</time>
      </trkpt>
      <trkpt lat="42.367462" lon="-8.273312">
        <ele>570.796</ele>
        <time>2018-07-20T12:01:25Z</time>
      </trkpt>
      <trkpt lat="42.367630" lon="-8.273484">
        <ele>568.690</ele>
        <time>2018-07-20T12:01:45Z</time>
      </trkpt>
      <trkpt lat="42.367925" lon="-8.273792">
        <ele>565.111</ele>
        <time>2018-07-20T12:02:05Z</time>
      </trkpt>
      <trkpt lat="42.368103" lon="-8.273944">
        <ele>563.869</ele>
        <time>2018-07-20T12:02:25Z</time>
      </trkpt>
      <trkpt lat="42.368275" lon="-8.274069">
        <ele>562.744</ele>
        <time>2018-07-20T12:02:45Z</time>
      </trkpt>
      <trkpt lat="42.368445" lon="-8.274013">
        <ele>562.625</ele>
        <time>2018-07-20T12:03:05Z</time>
      </trkpt>
      <trkpt lat="42.368647" lon="-8.273811">
        <ele>563.842</ele>
        <time>2018-07-20T12:03:25Z</time>
      </trkpt>
      <trkpt lat="42.368770" lon="-8.273615">
        <ele>566.743</ele>
        <time>2018-07-20T12:03:45Z</time>
      </trkpt>
      <trkpt lat="42.368839" lon="-8.273470">
        <ele>569.183</ele>
        <time>2018-07-20T12:04:05Z</time>
      </trkpt>
      <trkpt lat="42.368935" lon="-8.273352">
        <ele>570.825</ele>
        <time>2018-07-20T12:04:25Z</time>
      </trkpt>
      <trkpt lat="42.369106" lon="-8.273102">
        <ele>571.517</ele>
        <time>2018-07-20T12:04:45Z</time>
      </trkpt>
      <trkpt lat="42.369484" lon="-8.272743">
        <ele>564.508</ele>
        <time>2018-07-20T12:05:05Z</time>
      </trkpt>
      <trkpt lat="42.369723" lon="-8.272607">
        <ele>562.470</ele>
        <time>2018-07-20T12:05:25Z</time>
      </trkpt>
      <trkpt lat="42.369847" lon="-8.272456">
        <ele>561.634</ele>
        <time>2018-07-20T12:05:45Z</time>
      </trkpt>
      <trkpt lat="42.370109" lon="-8.272118">
        <ele>560.835</ele>
        <time>2018-07-20T12:06:05Z</time>
      </trkpt>
      <trkpt lat="42.370441" lon="-8.271736">
        <ele>560.873</ele>
        <time>2018-07-20T12:06:25Z</time>
      </trkpt>
      <trkpt lat="42.370685" lon="-8.271232">
        <ele>561.648</ele>
        <time>2018-07-20T12:06:45Z</time>
      </trkpt>
      <trkpt lat="42.370844" lon="-8.270633">
        <ele>564.329</ele>
        <time>2018-07-20T12:07:05Z</time>
      </trkpt>
      <trkpt lat="42.370838" lon="-8.270058">
        <ele>566.196</ele>
        <time>2018-07-20T12:07:25Z</time>
      </trkpt>
      <trkpt lat="42.370891" lon="-8.269398">
        <ele>563.747</ele>
        <time>2018-07-20T12:07:45Z</time>
      </trkpt>
      <trkpt lat="42.371016" lon="-8.268825">
        <ele>560.761</ele>
        <time>2018-07-20T12:08:05Z</time>
      </trkpt>
      <trkpt lat="42.370843" lon="-8.268112">
        <ele>563.821</ele>
        <time>2018-07-20T12:08:25Z</time>
      </trkpt>
      <trkpt lat="42.371038" lon="-8.267601">
        <ele>566.513</ele>
        <time>2018-07-20T12:08:45Z</time>
      </trkpt>
      <trkpt lat="42.371215" lon="-8.267186">
        <ele>568.508</ele>
        <time>2018-07-20T12:09:05Z</time>
      </trkpt>
      <trkpt lat="42.371246" lon="-8.266488">
        <ele>570.258</ele>
        <time>2018-07-20T12:09:25Z</time>
      </trkpt>
      <trkpt lat="42.371122" lon="-8.265269">
        <ele>562.032</ele>
        <time>2018-07-20T12:09:45Z</time>
      </trkpt>
      <trkpt lat="42.371242" lon="-8.264891">
        <ele>560.533</ele>
        <time>2018-07-20T12:10:05Z</time>
      </trkpt>
      <trkpt lat="42.371588" lon="-8.264056">
        <ele>554.021</ele>
        <time>2018-07-20T12:10:25Z</time>
      </trkpt>
      <trkpt lat="42.371943" lon="-8.263718">
        <ele>550.386</ele>
        <time>2018-07-20T12:10:45Z</time>
      </trkpt>
      <trkpt lat="42.372543" lon="-8.263278">
        <ele>546.097</ele>
        <time>2018-07-20T12:11:05Z</time>
      </trkpt>
      <trkpt lat="42.372966" lon="-8.262706">
        <ele>540.254</ele>
        <time>2018-07-20T12:11:25Z</time>
      </trkpt>
      <trkpt lat="42.373252" lon="-8.262341">
        <ele>541.085</ele>
        <time>2018-07-20T12:11:45Z</time>
      </trkpt>
      <trkpt lat="42.373340" lon="-8.261966">
        <ele>541.029</ele>
        <time>2018-07-20T12:12:05Z</time>
      </trkpt>
      <trkpt lat="42.373265" lon="-8.261848">
        <ele>540.800</ele>
        <time>2018-07-20T12:12:25Z</time>
      </trkpt>
      <trkpt lat="42.373095" lon="-8.261900">
        <ele>540.120</ele>
        <time>2018-07-20T12:12:45Z</time>
      </trkpt>
      <trkpt lat="42.372894" lon="-8.261967">
        <ele>538.808</ele>
        <time>2018-07-20T12:13:05Z</time>
      </trkpt>
      <trkpt lat="42.372597" lon="-8.261987">
        <ele>537.354</ele>
        <time>2018-07-20T12:13:25Z</time>
      </trkpt>
      <trkpt lat="42.372099" lon="-8.261881">
        <ele>536.138</ele>
        <time>2018-07-20T12:13:45Z</time>
      </trkpt>
      <trkpt lat="42.371904" lon="-8.261765">
        <ele>536.589</ele>
        <time>2018-07-20T12:14:05Z</time>
      </trkpt>
      <trkpt lat="42.371834" lon="-8.261580">
        <ele>536.437</ele>
        <time>2018-07-20T12:14:25Z</time>
      </trkpt>
      <trkpt lat="42.371561" lon="-8.261316">
        <ele>535.362</ele>
        <time>2018-07-20T12:14:45Z</time>
      </trkpt>
      <trkpt lat="42.371362" lon="-8.261089">
        <ele>535.753</ele>
        <time>2018-07-20T12:15:05Z</time>
      </trkpt>
      <trkpt lat="42.371115" lon="-8.260957">
        <ele>534.130</ele>
        <time>2018-07-20T12:15:25Z</time>
      </trkpt>
      <trkpt lat="42.370988" lon="-8.260838">
        <ele>533.691</ele>
        <time>2018-07-20T12:15:45Z</time>
      </trkpt>
      <trkpt lat="42.370866" lon="-8.260677">
        <ele>532.297</ele>
        <time>2018-07-20T12:16:05Z</time>
      </trkpt>
      <trkpt lat="42.370694" lon="-8.260615">
        <ele>531.823</ele>
        <time>2018-07-20T12:16:25Z</time>
      </trkpt>
      <trkpt lat="42.370489" lon="-8.260569">
        <ele>531.225</ele>
        <time>2018-07-20T12:16:45Z</time>
      </trkpt>
      <trkpt lat="42.370250" lon="-8.260556">
        <ele>528.608</ele>
        <time>2018-07-20T12:17:05Z</time>
      </trkpt>
      <trkpt lat="42.369982" lon="-8.260485">
        <ele>524.631</ele>
        <time>2018-07-20T12:17:25Z</time>
      </trkpt>
      <trkpt lat="42.369679" lon="-8.260455">
        <ele>521.275</ele>
        <time>2018-07-20T12:17:45Z</time>
      </trkpt>
      <trkpt lat="42.369453" lon="-8.260414">
        <ele>518.696</ele>
        <time>2018-07-20T12:18:05Z</time>
      </trkpt>
      <trkpt lat="42.369306" lon="-8.260307">
        <ele>515.744</ele>
        <time>2018-07-20T12:18:25Z</time>
      </trkpt>
      <trkpt lat="42.369223" lon="-8.260102">
        <ele>511.659</ele>
        <time>2018-07-20T12:18:45Z</time>
      </trkpt>
      <trkpt lat="42.369251" lon="-8.259750">
        <ele>506.350</ele>
        <time>2018-07-20T12:19:05Z</time>
      </trkpt>
      <trkpt lat="42.369344" lon="-8.259422">
        <ele>501.847</ele>
        <time>2018-07-20T12:19:25Z</time>
      </trkpt>
      <trkpt lat="42.369501" lon="-8.259113">
        <ele>499.078</ele>
        <time>2018-07-20T12:19:45Z</time>
      </trkpt>
      <trkpt lat="42.369720" lon="-8.258795">
        <ele>497.698</ele>
        <time>2018-07-20T12:20:05Z</time>
      </trkpt>
      <trkpt lat="42.369905" lon="-8.258664">
        <ele>496.415</ele>
        <time>2018-07-20T12:20:25Z</time>
      </trkpt>
      <trkpt lat="42.370060" lon="-8.258447">
        <ele>494.726</ele>
        <time>2018-07-20T12:20:45Z</time>
      </trkpt>
      <trkpt lat="42.370130" lon="-8.258273">
        <ele>493.308</ele>
        <time>2018-07-20T12:21:05Z</time>
      </trkpt>
      <trkpt lat="42.370275" lon="-8.258040">
        <ele>492.811</ele>
        <time>2018-07-20T12:21:25Z</time>
      </trkpt>
      <trkpt lat="42.370409" lon="-8.257938">
        <ele>494.195</ele>
        <time>2018-07-20T12:21:45Z</time>
      </trkpt>
      <trkpt lat="42.370487" lon="-8.257764">
        <ele>493.756</ele>
        <time>2018-07-20T12:22:05Z</time>
      </trkpt>
      <trkpt lat="42.370466" lon="-8.257544">
        <ele>491.784</ele>
        <time>2018-07-20T12:22:25Z</time>
      </trkpt>
      <trkpt lat="42.370410" lon="-8.257244">
        <ele>489.019</ele>
        <time>2018-07-20T12:22:45Z</time>
      </trkpt>
      <trkpt lat="42.370479" lon="-8.256850">
        <ele>488.760</ele>
        <time>2018-07-20T12:23:05Z</time>
      </trkpt>
      <trkpt lat="42.370590" lon="-8.256649">
        <ele>489.067</ele>
        <time>2018-07-20T12:23:25Z</time>
      </trkpt>
      <trkpt lat="42.370633" lon="-8.256480">
        <ele>487.198</ele>
        <time>2018-07-20T12:23:45Z</time>
      </trkpt>
      <trkpt lat="42.370918" lon="-8.256225">
        <ele>486.624</ele>
        <time>2018-07-20T12:24:05Z</time>
      </trkpt>
      <trkpt lat="42.371175" lon="-8.256035">
        <ele>486.804</ele>
        <time>2018-07-20T12:24:25Z</time>
      </trkpt>
      <trkpt lat="42.371377" lon="-8.255742">
        <ele>485.914</ele>
        <time>2018-07-20T12:24:45Z</time>
      </trkpt>
      <trkpt lat="42.371592" lon="-8.255501">
        <ele>485.608</ele>
        <time>2018-07-20T12:25:05Z</time>
      </trkpt>
      <trkpt lat="42.371745" lon="-8.255427">
        <ele>486.324</ele>
        <time>2018-07-20T12:25:25Z</time>
      </trkpt>
      <trkpt lat="42.371771" lon="-8.255320">
        <ele>485.378</ele>
        <time>2018-07-20T12:25:45Z</time>
      </trkpt>
      <trkpt lat="42.371843" lon="-8.255099">
        <ele>482.529</ele>
        <time>2018-07-20T12:26:05Z</time>
      </trkpt>
      <trkpt lat="42.371918" lon="-8.254947">
        <ele>479.797</ele>
        <time>2018-07-20T12:26:25Z</time>
      </trkpt>
      <trkpt lat="42.372156" lon="-8.254849">
        <ele>477.222</ele>
        <time>2018-07-20T12:26:45Z</time>
      </trkpt>
      <trkpt lat="42.372426" lon="-8.254722">
        <ele>473.383</ele>
        <time>2018-07-20T12:27:05Z</time>
      </trkpt>
      <trkpt lat="42.372582" lon="-8.254699">
        <ele>471.410</ele>
        <time>2018-07-20T12:27:25Z</time>
      </trkpt>
      <trkpt lat="42.372669" lon="-8.254651">
        <ele>469.341</ele>
        <time>2018-07-20T12:27:45Z</time>
      </trkpt>
      <trkpt lat="42.372797" lon="-8.254660">
        <ele>468.516</ele>
        <time>2018-07-20T12:28:05Z</time>
      </trkpt>
      <trkpt lat="42.373056" lon="-8.254615">
        <ele>465.176</ele>
        <time>2018-07-20T12:28:25Z</time>
      </trkpt>
      <trkpt lat="42.373251" lon="-8.254589">
        <ele>463.213</ele>
        <time>2018-07-20T12:28:45Z</time>
      </trkpt>
      <trkpt lat="42.373407" lon="-8.254473">
        <ele>460.608</ele>
        <time>2018-07-20T12:29:05Z</time>
      </trkpt>
      <trkpt lat="42.373532" lon="-8.254370">
        <ele>458.713</ele>
        <time>2018-07-20T12:29:25Z</time>
      </trkpt>
      <trkpt lat="42.373645" lon="-8.254262">
        <ele>456.857</ele>
        <time>2018-07-20T12:29:45Z</time>
      </trkpt>
      <trkpt lat="42.373726" lon="-8.254144">
        <ele>454.628</ele>
        <time>2018-07-20T12:30:05Z</time>
      </trkpt>
      <trkpt lat="42.373742" lon="-8.253948">
        <ele>451.136</ele>
        <time>2018-07-20T12:30:25Z</time>
      </trkpt>
      <trkpt lat="42.373757" lon="-8.253819">
        <ele>448.741</ele>
        <time>2018-07-20T12:30:45Z</time>
      </trkpt>
      <trkpt lat="42.373572" lon="-8.253784">
        <ele>448.182</ele>
        <time>2018-07-20T12:31:05Z</time>
      </trkpt>
      <trkpt lat="42.373391" lon="-8.253746">
        <ele>447.459</ele>
        <time>2018-07-20T12:31:25Z</time>
      </trkpt>
      <trkpt lat="42.373347" lon="-8.253656">
        <ele>445.880</ele>
        <time>2018-07-20T12:31:45Z</time>
      </trkpt>
      <trkpt lat="42.373173" lon="-8.253519">
        <ele>443.557</ele>
        <time>2018-07-20T12:32:05Z</time>
      </trkpt>
      <trkpt lat="42.373101" lon="-8.253280">
        <ele>439.200</ele>
        <time>2018-07-20T12:32:25Z</time>
      </trkpt>
      <trkpt lat="42.373026" lon="-8.253063">
        <ele>435.120</ele>
        <time>2018-07-20T12:32:45Z</time>
      </trkpt>
      <trkpt lat="42.372882" lon="-8.252939">
        <ele>433.208</ele>
        <time>2018-07-20T12:33:05Z</time>
      </trkpt>
      <trkpt lat="42.372751" lon="-8.252902">
        <ele>432.767</ele>
        <time>2018-07-20T12:33:25Z</time>
      </trkpt>
      <trkpt lat="42.372555" lon="-8.252825">
        <ele>431.491</ele>
        <time>2018-07-20T12:33:45Z</time>
      </trkpt>
      <trkpt lat="42.372626" lon="-8.252519">
        <ele>428.212</ele>
        <time>2018-07-20T12:34:05Z</time>
      </trkpt>
      <trkpt lat="42.372772" lon="-8.252254">
        <ele>426.240</ele>
        <time>2018-07-20T12:34:25Z</time>
      </trkpt>
      <trkpt lat="42.372860" lon="-8.251951">
        <ele>423.525</ele>
        <time>2018-07-20T12:34:45Z</time>
      </trkpt>
      <trkpt lat="42.372776" lon="-8.251656">
        <ele>420.926</ele>
        <time>2018-07-20T12:35:05Z</time>
      </trkpt>
      <trkpt lat="42.372568" lon="-8.251402">
        <ele>417.953</ele>
        <time>2018-07-20T12:35:25Z</time>
      </trkpt>
      <trkpt lat="42.372349" lon="-8.251153">
        <ele>416.024</ele>
        <time>2018-07-20T12:35:45Z</time>
      </trkpt>
      <trkpt lat="42.372234" lon="-8.251072">
        <ele>415.757</ele>
        <time>2018-07-20T12:36:05Z</time>
      </trkpt>
      <trkpt lat="42.372236" lon="-8.250636">
        <ele>412.600</ele>
        <time>2018-07-20T12:36:25Z</time>
      </trkpt>
      <trkpt lat="42.372278" lon="-8.250342">
        <ele>411.420</ele>
        <time>2018-07-20T12:36:45Z</time>
      </trkpt>
      <trkpt lat="42.372180" lon="-8.250125">
        <ele>411.508</ele>
        <time>2018-07-20T12:37:05Z</time>
      </trkpt>
      <trkpt lat="42.372033" lon="-8.249982">
        <ele>411.397</ele>
        <time>2018-07-20T12:37:25Z</time>
      </trkpt>
      <trkpt lat="42.371857" lon="-8.249840">
        <ele>410.821</ele>
        <time>2018-07-20T12:37:45Z</time>
      </trkpt>
      <trkpt lat="42.371724" lon="-8.249659">
        <ele>410.212</ele>
        <time>2018-07-20T12:38:05Z</time>
      </trkpt>
      <trkpt lat="42.371776" lon="-8.249275">
        <ele>410.060</ele>
        <time>2018-07-20T12:38:25Z</time>
      </trkpt>
      <trkpt lat="42.371782" lon="-8.249095">
        <ele>409.635</ele>
        <time>2018-07-20T12:38:45Z</time>
      </trkpt>
      <trkpt lat="42.371652" lon="-8.248971">
        <ele>408.316</ele>
        <time>2018-07-20T12:39:05Z</time>
      </trkpt>
      <trkpt lat="42.371533" lon="-8.248820">
        <ele>407.883</ele>
        <time>2018-07-20T12:39:25Z</time>
      </trkpt>
      <trkpt lat="42.371410" lon="-8.248550">
        <ele>406.844</ele>
        <time>2018-07-20T12:39:45Z</time>
      </trkpt>
      <trkpt lat="42.371339" lon="-8.248252">
        <ele>406.111</ele>
        <time>2018-07-20T12:40:05Z</time>
      </trkpt>
      <trkpt lat="42.371270" lon="-8.247885">
        <ele>406.321</ele>
        <time>2018-07-20T12:40:25Z</time>
      </trkpt>
      <trkpt lat="42.371254" lon="-8.247561">
        <ele>406.103</ele>
        <time>2018-07-20T12:40:45Z</time>
      </trkpt>
      <trkpt lat="42.371288" lon="-8.247396">
        <ele>405.708</ele>
        <time>2018-07-20T12:41:05Z</time>
      </trkpt>
      <trkpt lat="42.371190" lon="-8.247172">
        <ele>406.483</ele>
        <time>2018-07-20T12:41:25Z</time>
      </trkpt>
      <trkpt lat="42.371194" lon="-8.246765">
        <ele>406.617</ele>
        <time>2018-07-20T12:41:45Z</time>
      </trkpt>
      <trkpt lat="42.371200" lon="-8.246302">
        <ele>408.028</ele>
        <time>2018-07-20T12:42:05Z</time>
      </trkpt>
      <trkpt lat="42.371291" lon="-8.245936">
        <ele>407.156</ele>
        <time>2018-07-20T12:42:25Z</time>
      </trkpt>
      <trkpt lat="42.371328" lon="-8.245642">
        <ele>404.741</ele>
        <time>2018-07-20T12:42:45Z</time>
      </trkpt>
      <trkpt lat="42.371221" lon="-8.245236">
        <ele>403.532</ele>
        <time>2018-07-20T12:43:05Z</time>
      </trkpt>
      <trkpt lat="42.371122" lon="-8.245055">
        <ele>403.379</ele>
        <time>2018-07-20T12:43:25Z</time>
      </trkpt>
      <trkpt lat="42.370728" lon="-8.245042">
        <ele>401.150</ele>
        <time>2018-07-20T12:43:45Z</time>
      </trkpt>
      <trkpt lat="42.370315" lon="-8.245164">
        <ele>401.195</ele>
        <time>2018-07-20T12:44:05Z</time>
      </trkpt>
      <trkpt lat="42.369919" lon="-8.245063">
        <ele>395.949</ele>
        <time>2018-07-20T12:44:25Z</time>
      </trkpt>
      <trkpt lat="42.369464" lon="-8.244919">
        <ele>391.523</ele>
        <time>2018-07-20T12:44:45Z</time>
      </trkpt>
      <trkpt lat="42.369172" lon="-8.244820">
        <ele>388.108</ele>
        <time>2018-07-20T12:45:05Z</time>
      </trkpt>
      <trkpt lat="42.368980" lon="-8.244611">
        <ele>384.521</ele>
        <time>2018-07-20T12:45:25Z</time>
      </trkpt>
      <trkpt lat="42.369003" lon="-8.244257">
        <ele>381.625</ele>
        <time>2018-07-20T12:45:45Z</time>
      </trkpt>
      <trkpt lat="42.369107" lon="-8.243894">
        <ele>378.226</ele>
        <time>2018-07-20T12:46:05Z</time>
      </trkpt>
      <trkpt lat="42.369050" lon="-8.243705">
        <ele>375.154</ele>
        <time>2018-07-20T12:46:25Z</time>
      </trkpt>
      <trkpt lat="42.369008" lon="-8.243461">
        <ele>371.569</ele>
        <time>2018-07-20T12:46:45Z</time>
      </trkpt>
      <trkpt lat="42.369046" lon="-8.243119">
        <ele>368.950</ele>
        <time>2018-07-20T12:47:05Z</time>
      </trkpt>
      <trkpt lat="42.369014" lon="-8.242941">
        <ele>366.597</ele>
        <time>2018-07-20T12:47:25Z</time>
      </trkpt>
      <trkpt lat="42.368802" lon="-8.242851">
        <ele>361.678</ele>
        <time>2018-07-20T12:47:45Z</time>
      </trkpt>
      <trkpt lat="42.368601" lon="-8.242829">
        <ele>357.298</ele>
        <time>2018-07-20T12:48:05Z</time>
      </trkpt>
      <trkpt lat="42.368460" lon="-8.242789">
        <ele>354.915</ele>
        <time>2018-07-20T12:48:25Z</time>
      </trkpt>
      <trkpt lat="42.368364" lon="-8.242683">
        <ele>352.826</ele>
        <time>2018-07-20T12:48:45Z</time>
      </trkpt>
      <trkpt lat="42.368207" lon="-8.242640">
        <ele>349.708</ele>
        <time>2018-07-20T12:49:05Z</time>
      </trkpt>
      <trkpt lat="42.368058" lon="-8.242579">
        <ele>347.071</ele>
        <time>2018-07-20T12:49:25Z</time>
      </trkpt>
      <trkpt lat="42.367896" lon="-8.242536">
        <ele>344.685</ele>
        <time>2018-07-20T12:49:45Z</time>
      </trkpt>
      <trkpt lat="42.367818" lon="-8.242518">
        <ele>343.526</ele>
        <time>2018-07-20T12:50:05Z</time>
      </trkpt>
      <trkpt lat="42.367726" lon="-8.242529">
        <ele>341.834</ele>
        <time>2018-07-20T12:50:25Z</time>
      </trkpt>
      <trkpt lat="42.367669" lon="-8.242607">
        <ele>340.439</ele>
        <time>2018-07-20T12:50:45Z</time>
      </trkpt>
      <trkpt lat="42.367632" lon="-8.242620">
        <ele>339.640</ele>
        <time>2018-07-20T12:51:05Z</time>
      </trkpt>
      <trkpt lat="42.367585" lon="-8.242547">
        <ele>338.837</ele>
        <time>2018-07-20T12:51:25Z</time>
      </trkpt>
      <trkpt lat="42.367572" lon="-8.242474">
        <ele>338.398</ele>
        <time>2018-07-20T12:51:45Z</time>
      </trkpt>
      <trkpt lat="42.367540" lon="-8.242279">
        <ele>336.227</ele>
        <time>2018-07-20T12:52:05Z</time>
      </trkpt>
      <trkpt lat="42.367498" lon="-8.242047">
        <ele>332.468</ele>
        <time>2018-07-20T12:52:25Z</time>
      </trkpt>
      <trkpt lat="42.367426" lon="-8.241829">
        <ele>327.214</ele>
        <time>2018-07-20T12:52:45Z</time>
      </trkpt>
      <trkpt lat="42.367450" lon="-8.241512">
        <ele>321.808</ele>
        <time>2018-07-20T12:53:05Z</time>
      </trkpt>
      <trkpt lat="42.367487" lon="-8.241329">
        <ele>318.524</ele>
        <time>2018-07-20T12:53:25Z</time>
      </trkpt>
      <trkpt lat="42.367443" lon="-8.241314">
        <ele>317.728</ele>
        <time>2018-07-20T12:53:45Z</time>
      </trkpt>
      <trkpt lat="42.367327" lon="-8.241234">
        <ele>315.249</ele>
        <time>2018-07-20T12:54:05Z</time>
      </trkpt>
      <trkpt lat="42.367235" lon="-8.241108">
        <ele>313.087</ele>
        <time>2018-07-20T12:54:25Z</time>
      </trkpt>
      <trkpt lat="42.367171" lon="-8.240922">
        <ele>313.732</ele>
        <time>2018-07-20T12:54:45Z</time>
      </trkpt>
      <trkpt lat="42.367165" lon="-8.240620">
        <ele>313.463</ele>
        <time>2018-07-20T12:55:05Z</time>
      </trkpt>
      <trkpt lat="42.367170" lon="-8.240371">
        <ele>313.850</ele>
        <time>2018-07-20T12:55:25Z</time>
      </trkpt>
      <trkpt lat="42.367236" lon="-8.240075">
        <ele>312.951</ele>
        <time>2018-07-20T12:55:45Z</time>
      </trkpt>
      <trkpt lat="42.367307" lon="-8.239808">
        <ele>312.492</ele>
        <time>2018-07-20T12:56:05Z</time>
      </trkpt>
      <trkpt lat="42.367395" lon="-8.239727">
        <ele>311.873</ele>
        <time>2018-07-20T12:56:25Z</time>
      </trkpt>
      <trkpt lat="42.367541" lon="-8.239730">
        <ele>310.720</ele>
        <time>2018-07-20T12:56:45Z</time>
      </trkpt>
      <trkpt lat="42.367649" lon="-8.239685">
        <ele>310.008</ele>
        <time>2018-07-20T12:57:05Z</time>
      </trkpt>
      <trkpt lat="42.367778" lon="-8.239607">
        <ele>309.431</ele>
        <time>2018-07-20T12:57:25Z</time>
      </trkpt>
      <trkpt lat="42.367896" lon="-8.239621">
        <ele>308.415</ele>
        <time>2018-07-20T12:57:45Z</time>
      </trkpt>
      <trkpt lat="42.368010" lon="-8.239628">
        <ele>307.426</ele>
        <time>2018-07-20T12:58:05Z</time>
      </trkpt>
      <trkpt lat="42.368081" lon="-8.239647">
        <ele>306.994</ele>
        <time>2018-07-20T12:58:25Z</time>
      </trkpt>
      <trkpt lat="42.368168" lon="-8.239646">
        <ele>306.669</ele>
        <time>2018-07-20T12:58:45Z</time>
      </trkpt>
      <trkpt lat="42.368336" lon="-8.239508">
        <ele>306.080</ele>
        <time>2018-07-20T12:59:05Z</time>
      </trkpt>
      <trkpt lat="42.368445" lon="-8.239447">
        <ele>306.457</ele>
        <time>2018-07-20T12:59:25Z</time>
      </trkpt>
      <trkpt lat="42.368596" lon="-8.239428">
        <ele>306.938</ele>
        <time>2018-07-20T12:59:45Z</time>
      </trkpt>
      <trkpt lat="42.368838" lon="-8.239408">
        <ele>307.696</ele>
        <time>2018-07-20T13:00:05Z</time>
      </trkpt>
      <trkpt lat="42.369365" lon="-8.239180">
        <ele>307.231</ele>
        <time>2018-07-20T13:00:25Z</time>
      </trkpt>
      <trkpt lat="42.369939" lon="-8.238919">
        <ele>307.224</ele>
        <time>2018-07-20T13:00:45Z</time>
      </trkpt>
      <trkpt lat="42.370196" lon="-8.238608">
        <ele>308.208</ele>
        <time>2018-07-20T13:01:05Z</time>
      </trkpt>
      <trkpt lat="42.370300" lon="-8.238330">
        <ele>307.761</ele>
        <time>2018-07-20T13:01:25Z</time>
      </trkpt>
      <trkpt lat="42.370433" lon="-8.237981">
        <ele>307.895</ele>
        <time>2018-07-20T13:01:45Z</time>
      </trkpt>
      <trkpt lat="42.370501" lon="-8.237796">
        <ele>307.416</ele>
        <time>2018-07-20T13:02:05Z</time>
      </trkpt>
      <trkpt lat="42.370593" lon="-8.237753">
        <ele>308.354</ele>
        <time>2018-07-20T13:02:25Z</time>
      </trkpt>
      <trkpt lat="42.370816" lon="-8.237775">
        <ele>311.719</ele>
        <time>2018-07-20T13:02:45Z</time>
      </trkpt>
      <trkpt lat="42.371065" lon="-8.237777">
        <ele>314.560</ele>
        <time>2018-07-20T13:03:05Z</time>
      </trkpt>
      <trkpt lat="42.371216" lon="-8.237797">
        <ele>317.217</ele>
        <time>2018-07-20T13:03:25Z</time>
      </trkpt>
      <trkpt lat="42.371280" lon="-8.237581">
        <ele>316.698</ele>
        <time>2018-07-20T13:03:45Z</time>
      </trkpt>
      <trkpt lat="42.371318" lon="-8.237234">
        <ele>315.898</ele>
        <time>2018-07-20T13:04:05Z</time>
      </trkpt>
      <trkpt lat="42.371330" lon="-8.236798">
        <ele>311.315</ele>
        <time>2018-07-20T13:04:25Z</time>
      </trkpt>
      <trkpt lat="42.371265" lon="-8.236606">
        <ele>308.326</ele>
        <time>2018-07-20T13:04:45Z</time>
      </trkpt>
      <trkpt lat="42.371159" lon="-8.236464">
        <ele>306.008</ele>
        <time>2018-07-20T13:05:05Z</time>
      </trkpt>
      <trkpt lat="42.370951" lon="-8.236293">
        <ele>304.761</ele>
        <time>2018-07-20T13:05:25Z</time>
      </trkpt>
      <trkpt lat="42.370735" lon="-8.236139">
        <ele>303.795</ele>
        <time>2018-07-20T13:05:45Z</time>
      </trkpt>
      <trkpt lat="42.370586" lon="-8.236036">
        <ele>303.126</ele>
        <time>2018-07-20T13:06:05Z</time>
      </trkpt>
      <trkpt lat="42.370364" lon="-8.235950">
        <ele>303.444</ele>
        <time>2018-07-20T13:06:25Z</time>
      </trkpt>
      <trkpt lat="42.370309" lon="-8.235861">
        <ele>303.059</ele>
        <time>2018-07-20T13:06:45Z</time>
      </trkpt>
      <trkpt lat="42.370245" lon="-8.235768">
        <ele>304.220</ele>
        <time>2018-07-20T13:07:05Z</time>
      </trkpt>
      <trkpt lat="42.370219" lon="-8.235565">
        <ele>306.887</ele>
        <time>2018-07-20T13:07:25Z</time>
      </trkpt>
      <trkpt lat="42.370252" lon="-8.235234">
        <ele>309.738</ele>
        <time>2018-07-20T13:07:45Z</time>
      </trkpt>
      <trkpt lat="42.370365" lon="-8.234837">
        <ele>310.327</ele>
        <time>2018-07-20T13:08:05Z</time>
      </trkpt>
      <trkpt lat="42.370483" lon="-8.234392">
        <ele>311.568</ele>
        <time>2018-07-20T13:08:25Z</time>
      </trkpt>
      <trkpt lat="42.370555" lon="-8.234103">
        <ele>314.714</ele>
        <time>2018-07-20T13:08:45Z</time>
      </trkpt>
      <trkpt lat="42.370618" lon="-8.233742">
        <ele>318.408</ele>
        <time>2018-07-20T13:09:05Z</time>
      </trkpt>
      <trkpt lat="42.370635" lon="-8.233421">
        <ele>321.434</ele>
        <time>2018-07-20T13:09:25Z</time>
      </trkpt>
      <trkpt lat="42.370641" lon="-8.233188">
        <ele>322.888</ele>
        <time>2018-07-20T13:09:45Z</time>
      </trkpt>
      <trkpt lat="42.370596" lon="-8.232958">
        <ele>324.589</ele>
        <time>2018-07-20T13:10:05Z</time>
      </trkpt>
      <trkpt lat="42.370505" lon="-8.233022">
        <ele>326.297</ele>
        <time>2018-07-20T13:10:25Z</time>
      </trkpt>
      <trkpt lat="42.370375" lon="-8.233238">
        <ele>327.242</ele>
        <time>2018-07-20T13:10:45Z</time>
      </trkpt>
      <trkpt lat="42.370127" lon="-8.233381">
        <ele>330.653</ele>
        <time>2018-07-20T13:11:05Z</time>
      </trkpt>
      <trkpt lat="42.369859" lon="-8.233478">
        <ele>335.710</ele>
        <time>2018-07-20T13:11:25Z</time>
      </trkpt>
      <trkpt lat="42.369680" lon="-8.233776">
        <ele>336.331</ele>
        <time>2018-07-20T13:11:45Z</time>
      </trkpt>
      <trkpt lat="42.369419" lon="-8.233960">
        <ele>340.751</ele>
        <time>2018-07-20T13:12:05Z</time>
      </trkpt>
      <trkpt lat="42.369254" lon="-8.233535">
        <ele>350.101</ele>
        <time>2018-07-20T13:12:25Z</time>
      </trkpt>
      <trkpt lat="42.368942" lon="-8.233291">
        <ele>361.511</ele>
        <time>2018-07-20T13:12:45Z</time>
      </trkpt>
      <trkpt lat="42.368605" lon="-8.232985">
        <ele>376.208</ele>
        <time>2018-07-20T13:13:05Z</time>
      </trkpt>
      <trkpt lat="42.368389" lon="-8.232737">
        <ele>386.697</ele>
        <time>2018-07-20T13:13:25Z</time>
      </trkpt>
      <trkpt lat="42.368083" lon="-8.232440">
        <ele>408.361</ele>
        <time>2018-07-20T13:13:45Z</time>
      </trkpt>
      <trkpt lat="42.368033" lon="-8.232247">
        <ele>417.482</ele>
        <time>2018-07-20T13:14:05Z</time>
      </trkpt>
      <trkpt lat="42.368013" lon="-8.232117">
        <ele>421.910</ele>
        <time>2018-07-20T13:14:25Z</time>
      </trkpt>
      <trkpt lat="42.367790" lon="-8.232262">
        <ele>421.585</ele>
        <time>2018-07-20T13:14:45Z</time>
      </trkpt>
      <trkpt lat="42.367373" lon="-8.232433">
        <ele>423.686</ele>
        <time>2018-07-20T13:15:05Z</time>
      </trkpt>
      <trkpt lat="42.367109" lon="-8.232477">
        <ele>423.583</ele>
        <time>2018-07-20T13:15:25Z</time>
      </trkpt>
      <trkpt lat="42.366906" lon="-8.232468">
        <ele>424.564</ele>
        <time>2018-07-20T13:15:45Z</time>
      </trkpt>
      <trkpt lat="42.366768" lon="-8.232303">
        <ele>428.176</ele>
        <time>2018-07-20T13:16:05Z</time>
      </trkpt>
      <trkpt lat="42.366710" lon="-8.232061">
        <ele>435.490</ele>
        <time>2018-07-20T13:16:25Z</time>
      </trkpt>
      <trkpt lat="42.366695" lon="-8.231854">
        <ele>442.719</ele>
        <time>2018-07-20T13:16:45Z</time>
      </trkpt>
      <trkpt lat="42.366698" lon="-8.231581">
        <ele>453.308</ele>
        <time>2018-07-20T13:17:05Z</time>
      </trkpt>
      <trkpt lat="42.366674" lon="-8.231419">
        <ele>459.029</ele>
        <time>2018-07-20T13:17:25Z</time>
      </trkpt>
      <trkpt lat="42.366913" lon="-8.231390">
        <ele>462.613</ele>
        <time>2018-07-20T13:17:45Z</time>
      </trkpt>
      <trkpt lat="42.367224" lon="-8.231305">
        <ele>464.844</ele>
        <time>2018-07-20T13:18:05Z</time>
      </trkpt>
      <trkpt lat="42.367383" lon="-8.231124">
        <ele>464.112</ele>
        <time>2018-07-20T13:18:25Z</time>
      </trkpt>
      <trkpt lat="42.367390" lon="-8.230784">
        <ele>465.147</ele>
        <time>2018-07-20T13:18:45Z</time>
      </trkpt>
      <trkpt lat="42.367190" lon="-8.230426">
        <ele>467.638</ele>
        <time>2018-07-20T13:19:05Z</time>
      </trkpt>
      <trkpt lat="42.366988" lon="-8.230031">
        <ele>468.735</ele>
        <time>2018-07-20T13:19:25Z</time>
      </trkpt>
      <trkpt lat="42.366793" lon="-8.229682">
        <ele>468.256</ele>
        <time>2018-07-20T13:19:45Z</time>
      </trkpt>
      <trkpt lat="42.366726" lon="-8.229426">
        <ele>465.813</ele>
        <time>2018-07-20T13:20:05Z</time>
      </trkpt>
      <trkpt lat="42.366814" lon="-8.229252">
        <ele>461.843</ele>
        <time>2018-07-20T13:20:25Z</time>
      </trkpt>
      <trkpt lat="42.367085" lon="-8.229022">
        <ele>451.807</ele>
        <time>2018-07-20T13:20:45Z</time>
      </trkpt>
      <trkpt lat="42.367248" lon="-8.228777">
        <ele>444.608</ele>
        <time>2018-07-20T13:21:05Z</time>
      </trkpt>
      <trkpt lat="42.367443" lon="-8.228475">
        <ele>438.573</ele>
        <time>2018-07-20T13:21:25Z</time>
      </trkpt>
      <trkpt lat="42.367689" lon="-8.227970">
        <ele>431.957</ele>
        <time>2018-07-20T13:21:45Z</time>
      </trkpt>
      <trkpt lat="42.367808" lon="-8.227663">
        <ele>428.468</ele>
        <time>2018-07-20T13:22:05Z</time>
      </trkpt>
      <trkpt lat="42.367968" lon="-8.227179">
        <ele>419.666</ele>
        <time>2018-07-20T13:22:25Z</time>
      </trkpt>
      <trkpt lat="42.368150" lon="-8.226598">
        <ele>398.571</ele>
        <time>2018-07-20T13:22:45Z</time>
      </trkpt>
      <trkpt lat="42.368193" lon="-8.226175">
        <ele>381.662</ele>
        <time>2018-07-20T13:23:05Z</time>
      </trkpt>
      <trkpt lat="42.367878" lon="-8.225958">
        <ele>385.319</ele>
        <time>2018-07-20T13:23:25Z</time>
      </trkpt>
      <trkpt lat="42.367525" lon="-8.225740">
        <ele>393.690</ele>
        <time>2018-07-20T13:23:45Z</time>
      </trkpt>
      <trkpt lat="42.367121" lon="-8.225487">
        <ele>405.039</ele>
        <time>2018-07-20T13:24:05Z</time>
      </trkpt>
      <trkpt lat="42.367025" lon="-8.224920">
        <ele>398.101</ele>
        <time>2018-07-20T13:24:25Z</time>
      </trkpt>
      <trkpt lat="42.367112" lon="-8.224447">
        <ele>390.421</ele>
        <time>2018-07-20T13:24:45Z</time>
      </trkpt>
      <trkpt lat="42.367267" lon="-8.224075">
        <ele>388.608</ele>
        <time>2018-07-20T13:25:05Z</time>
      </trkpt>
      <trkpt lat="42.367414" lon="-8.223868">
        <ele>389.995</ele>
        <time>2018-07-20T13:25:25Z</time>
      </trkpt>
      <trkpt lat="42.367586" lon="-8.223788">
        <ele>391.559</ele>
        <time>2018-07-20T13:25:45Z</time>
      </trkpt>
      <trkpt lat="42.367703" lon="-8.223896">
        <ele>391.140</ele>
        <time>2018-07-20T13:26:05Z</time>
      </trkpt>
      <trkpt lat="42.367826" lon="-8.224048">
        <ele>390.538</ele>
        <time>2018-07-20T13:26:25Z</time>
      </trkpt>
      <trkpt lat="42.367845" lon="-8.224247">
        <ele>387.863</ele>
        <time>2018-07-20T13:26:45Z</time>
      </trkpt>
      <trkpt lat="42.367967" lon="-8.224582">
        <ele>383.934</ele>
        <time>2018-07-20T13:27:05Z</time>
      </trkpt>
      <trkpt lat="42.368252" lon="-8.224804">
        <ele>380.731</ele>
        <time>2018-07-20T13:27:25Z</time>
      </trkpt>
      <trkpt lat="42.368496" lon="-8.224837">
        <ele>375.452</ele>
        <time>2018-07-20T13:27:45Z</time>
      </trkpt>
      <trkpt lat="42.368748" lon="-8.224676">
        <ele>371.759</ele>
        <time>2018-07-20T13:28:05Z</time>
      </trkpt>
      <trkpt lat="42.368926" lon="-8.224355">
        <ele>374.503</ele>
        <time>2018-07-20T13:28:25Z</time>
      </trkpt>
      <trkpt lat="42.368979" lon="-8.224090">
        <ele>379.223</ele>
        <time>2018-07-20T13:28:45Z</time>
      </trkpt>
      <trkpt lat="42.369142" lon="-8.223942">
        <ele>380.208</ele>
        <time>2018-07-20T13:29:05Z</time>
      </trkpt>
      <trkpt lat="42.369258" lon="-8.224111">
        <ele>377.877</ele>
        <time>2018-07-20T13:29:25Z</time>
      </trkpt>
      <trkpt lat="42.369326" lon="-8.224349">
        <ele>373.621</ele>
        <time>2018-07-20T13:29:45Z</time>
      </trkpt>
      <trkpt lat="42.369361" lon="-8.224528">
        <ele>370.672</ele>
        <time>2018-07-20T13:30:05Z</time>
      </trkpt>
      <trkpt lat="42.369545" lon="-8.224717">
        <ele>369.920</ele>
        <time>2018-07-20T13:30:25Z</time>
      </trkpt>
      <trkpt lat="42.369819" lon="-8.224945">
        <ele>366.935</ele>
        <time>2018-07-20T13:30:45Z</time>
      </trkpt>
      <trkpt lat="42.370021" lon="-8.225084">
        <ele>362.956</ele>
        <time>2018-07-20T13:31:05Z</time>
      </trkpt>
      <trkpt lat="42.370228" lon="-8.225123">
        <ele>361.453</ele>
        <time>2018-07-20T13:31:25Z</time>
      </trkpt>
      <trkpt lat="42.370407" lon="-8.224929">
        <ele>365.654</ele>
        <time>2018-07-20T13:31:45Z</time>
      </trkpt>
      <trkpt lat="42.370460" lon="-8.225184">
        <ele>360.241</ele>
        <time>2018-07-20T13:32:05Z</time>
      </trkpt>
      <trkpt lat="42.370436" lon="-8.225466">
        <ele>353.081</ele>
        <time>2018-07-20T13:32:25Z</time>
      </trkpt>
      <trkpt lat="42.370564" lon="-8.225868">
        <ele>345.009</ele>
        <time>2018-07-20T13:32:45Z</time>
      </trkpt>
      <trkpt lat="42.370969" lon="-8.226023">
        <ele>340.208</ele>
        <time>2018-07-20T13:33:05Z</time>
      </trkpt>
      <trkpt lat="42.371447" lon="-8.225953">
        <ele>338.686</ele>
        <time>2018-07-20T13:33:25Z</time>
      </trkpt>
      <trkpt lat="42.371959" lon="-8.225797">
        <ele>337.020</ele>
        <time>2018-07-20T13:33:45Z</time>
      </trkpt>
      <trkpt lat="42.372187" lon="-8.225499">
        <ele>333.291</ele>
        <time>2018-07-20T13:34:05Z</time>
      </trkpt>
      <trkpt lat="42.372241" lon="-8.225293">
        <ele>335.669</ele>
        <time>2018-07-20T13:34:25Z</time>
      </trkpt>
      <trkpt lat="42.372312" lon="-8.225081">
        <ele>342.314</ele>
        <time>2018-07-20T13:34:45Z</time>
      </trkpt>
      <trkpt lat="42.372522" lon="-8.225139">
        <ele>340.425</ele>
        <time>2018-07-20T13:35:05Z</time>
      </trkpt>
      <trkpt lat="42.372753" lon="-8.225270">
        <ele>339.932</ele>
        <time>2018-07-20T13:35:25Z</time>
      </trkpt>
      <trkpt lat="42.372834" lon="-8.225620">
        <ele>331.443</ele>
        <time>2018-07-20T13:35:45Z</time>
      </trkpt>
      <trkpt lat="42.372927" lon="-8.225938">
        <ele>328.261</ele>
        <time>2018-07-20T13:36:05Z</time>
      </trkpt>
      <trkpt lat="42.372903" lon="-8.226269">
        <ele>322.521</ele>
        <time>2018-07-20T13:36:25Z</time>
      </trkpt>
      <trkpt lat="42.372968" lon="-8.226627">
        <ele>320.413</ele>
        <time>2018-07-20T13:36:45Z</time>
      </trkpt>
      <trkpt lat="42.373036" lon="-8.226984">
        <ele>315.408</ele>
        <time>2018-07-20T13:37:05Z</time>
      </trkpt>
      <trkpt lat="42.373135" lon="-8.227225">
        <ele>313.528</ele>
        <time>2018-07-20T13:37:25Z</time>
      </trkpt>
      <trkpt lat="42.373310" lon="-8.227472">
        <ele>307.882</ele>
        <time>2018-07-20T13:37:45Z</time>
      </trkpt>
      <trkpt lat="42.373633" lon="-8.227709">
        <ele>302.283</ele>
        <time>2018-07-20T13:38:05Z</time>
      </trkpt>
      <trkpt lat="42.373850" lon="-8.227815">
        <ele>302.391</ele>
        <time>2018-07-20T13:38:25Z</time>
      </trkpt>
      <trkpt lat="42.374070" lon="-8.228004">
        <ele>299.846</ele>
        <time>2018-07-20T13:38:45Z</time>
      </trkpt>
      <trkpt lat="42.374420" lon="-8.227940">
        <ele>304.077</ele>
        <time>2018-07-20T13:39:05Z</time>
      </trkpt>
      <trkpt lat="42.374735" lon="-8.227830">
        <ele>307.484</ele>
        <time>2018-07-20T13:39:25Z</time>
      </trkpt>
      <trkpt lat="42.374976" lon="-8.227824">
        <ele>307.485</ele>
        <time>2018-07-20T13:39:45Z</time>
      </trkpt>
      <trkpt lat="42.375230" lon="-8.227900">
        <ele>309.198</ele>
        <time>2018-07-20T13:40:05Z</time>
      </trkpt>
      <trkpt lat="42.375558" lon="-8.227903">
        <ele>314.515</ele>
        <time>2018-07-20T13:40:25Z</time>
      </trkpt>
      <trkpt lat="42.375808" lon="-8.227868">
        <ele>314.426</ele>
        <time>2018-07-20T13:40:45Z</time>
      </trkpt>
      <trkpt lat="42.376168" lon="-8.227748">
        <ele>312.908</ele>
        <time>2018-07-20T13:41:05Z</time>
      </trkpt>
      <trkpt lat="42.376353" lon="-8.227524">
        <ele>318.141</ele>
        <time>2018-07-20T13:41:25Z</time>
      </trkpt>
      <trkpt lat="42.376901" lon="-8.227323">
        <ele>306.385</ele>
        <time>2018-07-20T13:41:45Z</time>
      </trkpt>
      <trkpt lat="42.377250" lon="-8.227141">
        <ele>303.266</ele>
        <time>2018-07-20T13:42:05Z</time>
      </trkpt>
      <trkpt lat="42.377647" lon="-8.226909">
        <ele>300.024</ele>
        <time>2018-07-20T13:42:25Z</time>
      </trkpt>
      <trkpt lat="42.378102" lon="-8.226625">
        <ele>297.769</ele>
        <time>2018-07-20T13:42:45Z</time>
      </trkpt>
      <trkpt lat="42.378544" lon="-8.226319">
        <ele>292.180</ele>
        <time>2018-07-20T13:43:05Z</time>
      </trkpt>
      <trkpt lat="42.378693" lon="-8.226078">
        <ele>294.897</ele>
        <time>2018-07-20T13:43:25Z</time>
      </trkpt>
      <trkpt lat="42.378851" lon="-8.225812">
        <ele>297.388</ele>
        <time>2018-07-20T13:43:45Z</time>
      </trkpt>
      <trkpt lat="42.378524" lon="-8.225607">
        <ele>304.526</ele>
        <time>2018-07-20T13:44:05Z</time>
      </trkpt>
      <trkpt lat="42.378388" lon="-8.225468">
        <ele>308.947</ele>
        <time>2018-07-20T13:44:25Z</time>
      </trkpt>
      <trkpt lat="42.378257" lon="-8.225359">
        <ele>313.511</ele>
        <time>2018-07-20T13:44:45Z</time>
      </trkpt>
      <trkpt lat="42.378214" lon="-8.225235">
        <ele>318.208</ele>
        <time>2018-07-20T13:45:05Z</time>
      </trkpt>
      <trkpt lat="42.378417" lon="-8.225178">
        <ele>319.274</ele>
        <time>2018-07-20T13:45:25Z</time>
      </trkpt>
      <trkpt lat="42.378675" lon="-8.225186">
        <ele>318.568</ele>
        <time>2018-07-20T13:45:45Z</time>
      </trkpt>
      <trkpt lat="42.378938" lon="-8.225298">
        <ele>312.169</ele>
        <time>2018-07-20T13:46:05Z</time>
      </trkpt>
      <trkpt lat="42.379113" lon="-8.225300">
        <ele>314.627</ele>
        <time>2018-07-20T13:46:25Z</time>
      </trkpt>
      <trkpt lat="42.379360" lon="-8.225368">
        <ele>318.742</ele>
        <time>2018-07-20T13:46:45Z</time>
      </trkpt>
      <trkpt lat="42.379610" lon="-8.225497">
        <ele>318.283</ele>
        <time>2018-07-20T13:47:05Z</time>
      </trkpt>
      <trkpt lat="42.379865" lon="-8.225600">
        <ele>318.040</ele>
        <time>2018-07-20T13:47:25Z</time>
      </trkpt>
      <trkpt lat="42.380017" lon="-8.225676">
        <ele>318.881</ele>
        <time>2018-07-20T13:47:45Z</time>
      </trkpt>
      <trkpt lat="42.380220" lon="-8.225662">
        <ele>319.176</ele>
        <time>2018-07-20T13:48:05Z</time>
      </trkpt>
      <trkpt lat="42.380309" lon="-8.225528">
        <ele>321.090</ele>
        <time>2018-07-20T13:48:25Z</time>
      </trkpt>
      <trkpt lat="42.380185" lon="-8.225392">
        <ele>323.919</ele>
        <time>2018-07-20T13:48:45Z</time>
      </trkpt>
      <trkpt lat="42.379971" lon="-8.225234">
        <ele>327.808</ele>
        <time>2018-07-20T13:49:05Z</time>
      </trkpt>
      <trkpt lat="42.379792" lon="-8.225072">
        <ele>333.889</ele>
        <time>2018-07-20T13:49:25Z</time>
      </trkpt>
      <trkpt lat="42.379500" lon="-8.224878">
        <ele>337.273</ele>
        <time>2018-07-20T13:49:45Z</time>
      </trkpt>
      <trkpt lat="42.379217" lon="-8.224756">
        <ele>337.294</ele>
        <time>2018-07-20T13:50:05Z</time>
      </trkpt>
      <trkpt lat="42.379038" lon="-8.224587">
        <ele>343.892</ele>
        <time>2018-07-20T13:50:25Z</time>
      </trkpt>
      <trkpt lat="42.378847" lon="-8.224388">
        <ele>353.467</ele>
        <time>2018-07-20T13:50:45Z</time>
      </trkpt>
      <trkpt lat="42.378531" lon="-8.224333">
        <ele>356.358</ele>
        <time>2018-07-20T13:51:05Z</time>
      </trkpt>
      <trkpt lat="42.377984" lon="-8.224203">
        <ele>357.425</ele>
        <time>2018-07-20T13:51:25Z</time>
      </trkpt>
      <trkpt lat="42.377528" lon="-8.224119">
        <ele>359.076</ele>
        <time>2018-07-20T13:51:45Z</time>
      </trkpt>
      <trkpt lat="42.377175" lon="-8.223997">
        <ele>363.747</ele>
        <time>2018-07-20T13:52:05Z</time>
      </trkpt>
      <trkpt lat="42.377083" lon="-8.223910">
        <ele>365.529</ele>
        <time>2018-07-20T13:52:25Z</time>
      </trkpt>
      <trkpt lat="42.376657" lon="-8.223912">
        <ele>364.521</ele>
        <time>2018-07-20T13:52:45Z</time>
      </trkpt>
      <trkpt lat="42.376424" lon="-8.223820">
        <ele>363.208</ele>
        <time>2018-07-20T13:53:05Z</time>
      </trkpt>
      <trkpt lat="42.376297" lon="-8.223699">
        <ele>362.286</ele>
        <time>2018-07-20T13:53:25Z</time>
      </trkpt>
      <trkpt lat="42.376250" lon="-8.223328">
        <ele>364.670</ele>
        <time>2018-07-20T13:53:45Z</time>
      </trkpt>
      <trkpt lat="42.376275" lon="-8.222976">
        <ele>369.511</ele>
        <time>2018-07-20T13:54:05Z</time>
      </trkpt>
      <trkpt lat="42.376174" lon="-8.222488">
        <ele>375.379</ele>
        <time>2018-07-20T13:54:25Z</time>
      </trkpt>
      <trkpt lat="42.375963" lon="-8.222235">
        <ele>375.024</ele>
        <time>2018-07-20T13:54:45Z</time>
      </trkpt>
      <trkpt lat="42.375790" lon="-8.222046">
        <ele>374.985</ele>
        <time>2018-07-20T13:55:05Z</time>
      </trkpt>
      <trkpt lat="42.375681" lon="-8.221788">
        <ele>378.962</ele>
        <time>2018-07-20T13:55:25Z</time>
      </trkpt>
      <trkpt lat="42.375599" lon="-8.221476">
        <ele>384.163</ele>
        <time>2018-07-20T13:55:45Z</time>
      </trkpt>
      <trkpt lat="42.375556" lon="-8.221313">
        <ele>386.915</ele>
        <time>2018-07-20T13:56:05Z</time>
      </trkpt>
      <trkpt lat="42.375450" lon="-8.221189">
        <ele>389.165</ele>
        <time>2018-07-20T13:56:25Z</time>
      </trkpt>
      <trkpt lat="42.375293" lon="-8.221155">
        <ele>388.411</ele>
        <time>2018-07-20T13:56:45Z</time>
      </trkpt>
      <trkpt lat="42.375163" lon="-8.220949">
        <ele>391.808</ele>
        <time>2018-07-20T13:57:05Z</time>
      </trkpt>
      <trkpt lat="42.375109" lon="-8.220750">
        <ele>394.543</ele>
        <time>2018-07-20T13:57:25Z</time>
      </trkpt>
      <trkpt lat="42.375055" lon="-8.220660">
        <ele>395.357</ele>
        <time>2018-07-20T13:57:45Z</time>
      </trkpt>
      <trkpt lat="42.374906" lon="-8.220522">
        <ele>397.298</ele>
        <time>2018-07-20T13:58:05Z</time>
      </trkpt>
      <trkpt lat="42.374762" lon="-8.220395">
        <ele>398.286</ele>
        <time>2018-07-20T13:58:25Z</time>
      </trkpt>
      <trkpt lat="42.374688" lon="-8.220223">
        <ele>399.371</ele>
        <time>2018-07-20T13:58:45Z</time>
      </trkpt>
      <trkpt lat="42.374569" lon="-8.219984">
        <ele>403.432</ele>
        <time>2018-07-20T13:59:05Z</time>
      </trkpt>
      <trkpt lat="42.374355" lon="-8.219892">
        <ele>405.019</ele>
        <time>2018-07-20T13:59:25Z</time>
      </trkpt>
      <trkpt lat="42.374157" lon="-8.219849">
        <ele>404.660</ele>
        <time>2018-07-20T13:59:45Z</time>
      </trkpt>
      <trkpt lat="42.374048" lon="-8.219777">
        <ele>405.579</ele>
        <time>2018-07-20T14:00:05Z</time>
      </trkpt>
      <trkpt lat="42.374060" lon="-8.219423">
        <ele>408.605</ele>
        <time>2018-07-20T14:00:25Z</time>
      </trkpt>
      <trkpt lat="42.374093" lon="-8.219020">
        <ele>414.225</ele>
        <time>2018-07-20T14:00:45Z</time>
      </trkpt>
      <trkpt lat="42.374147" lon="-8.218656">
        <ele>416.908</ele>
        <time>2018-07-20T14:01:05Z</time>
      </trkpt>
      <trkpt lat="42.374309" lon="-8.218485">
        <ele>420.779</ele>
        <time>2018-07-20T14:01:25Z</time>
      </trkpt>
      <trkpt lat="42.374359" lon="-8.218254">
        <ele>424.363</ele>
        <time>2018-07-20T14:01:45Z</time>
      </trkpt>
      <trkpt lat="42.374207" lon="-8.217952">
        <ele>428.824</ele>
        <time>2018-07-20T14:02:05Z</time>
      </trkpt>
      <trkpt lat="42.374025" lon="-8.217769">
        <ele>432.732</ele>
        <time>2018-07-20T14:02:25Z</time>
      </trkpt>
      <trkpt lat="42.373824" lon="-8.217555">
        <ele>439.857</ele>
        <time>2018-07-20T14:02:45Z</time>
      </trkpt>
      <trkpt lat="42.373740" lon="-8.217502">
        <ele>442.628</ele>
        <time>2018-07-20T14:03:05Z</time>
      </trkpt>
      <trkpt lat="42.373626" lon="-8.217600">
        <ele>442.615</ele>
        <time>2018-07-20T14:03:25Z</time>
      </trkpt>
      <trkpt lat="42.373454" lon="-8.217639">
        <ele>449.446</ele>
        <time>2018-07-20T14:03:45Z</time>
      </trkpt>
      <trkpt lat="42.373335" lon="-8.217600">
        <ele>455.215</ele>
        <time>2018-07-20T14:04:05Z</time>
      </trkpt>
      <trkpt lat="42.373255" lon="-8.217683">
        <ele>457.265</ele>
        <time>2018-07-20T14:04:25Z</time>
      </trkpt>
      <trkpt lat="42.373285" lon="-8.217826">
        <ele>455.511</ele>
        <time>2018-07-20T14:04:45Z</time>
      </trkpt>
      <trkpt lat="42.373403" lon="-8.218040">
        <ele>448.108</ele>
        <time>2018-07-20T14:05:05Z</time>
      </trkpt>
      <trkpt lat="42.373498" lon="-8.218252">
        <ele>440.353</ele>
        <time>2018-07-20T14:05:25Z</time>
      </trkpt>
      <trkpt lat="42.373398" lon="-8.218370">
        <ele>445.447</ele>
        <time>2018-07-20T14:05:45Z</time>
      </trkpt>
      <trkpt lat="42.373256" lon="-8.218536">
        <ele>451.358</ele>
        <time>2018-07-20T14:06:05Z</time>
      </trkpt>
      <trkpt lat="42.373173" lon="-8.218767">
        <ele>450.626</ele>
        <time>2018-07-20T14:06:25Z</time>
      </trkpt>
      <trkpt lat="42.373137" lon="-8.218949">
        <ele>448.171</ele>
        <time>2018-07-20T14:06:45Z</time>
      </trkpt>
      <trkpt lat="42.373089" lon="-8.219052">
        <ele>447.932</ele>
        <time>2018-07-20T14:07:05Z</time>
      </trkpt>
      <trkpt lat="42.372928" lon="-8.219273">
        <ele>451.269</ele>
        <time>2018-07-20T14:07:25Z</time>
      </trkpt>
      <trkpt lat="42.372811" lon="-8.219515">
        <ele>453.650</ele>
        <time>2018-07-20T14:07:45Z</time>
      </trkpt>
      <trkpt lat="42.372678" lon="-8.219620">
        <ele>458.624</ele>
        <time>2018-07-20T14:08:05Z</time>
      </trkpt>
      <trkpt lat="42.372670" lon="-8.219507">
        <ele>460.104</ele>
        <time>2018-07-20T14:08:25Z</time>
      </trkpt>
      <trkpt lat="42.372780" lon="-8.219147">
        <ele>460.314</ele>
        <time>2018-07-20T14:08:45Z</time>
      </trkpt>
      <trkpt lat="42.372853" lon="-8.218816">
        <ele>463.908</ele>
        <time>2018-07-20T14:09:05Z</time>
      </trkpt>
      <trkpt lat="42.372913" lon="-8.218518">
        <ele>466.794</ele>
        <time>2018-07-20T14:09:25Z</time>
      </trkpt>
      <trkpt lat="42.372866" lon="-8.218091">
        <ele>472.148</ele>
        <time>2018-07-20T14:09:45Z</time>
      </trkpt>
      <trkpt lat="42.372717" lon="-8.217808">
        <ele>475.479</ele>
        <time>2018-07-20T14:10:05Z</time>
      </trkpt>
      <trkpt lat="42.372484" lon="-8.217411">
        <ele>479.267</ele>
        <time>2018-07-20T14:10:25Z</time>
      </trkpt>
      <trkpt lat="42.372439" lon="-8.216914">
        <ele>479.852</ele>
        <time>2018-07-20T14:10:45Z</time>
      </trkpt>
      <trkpt lat="42.372580" lon="-8.216606">
        <ele>482.213</ele>
        <time>2018-07-20T14:11:05Z</time>
      </trkpt>
      <trkpt lat="42.372793" lon="-8.216317">
        <ele>485.710</ele>
        <time>2018-07-20T14:11:25Z</time>
      </trkpt>
      <trkpt lat="42.373062" lon="-8.216123">
        <ele>486.851</ele>
        <time>2018-07-20T14:11:45Z</time>
      </trkpt>
      <trkpt lat="42.373326" lon="-8.215967">
        <ele>488.136</ele>
        <time>2018-07-20T14:12:05Z</time>
      </trkpt>
      <trkpt lat="42.373488" lon="-8.215747">
        <ele>488.617</ele>
        <time>2018-07-20T14:12:25Z</time>
      </trkpt>
      <trkpt lat="42.373602" lon="-8.215486">
        <ele>489.518</ele>
        <time>2018-07-20T14:12:45Z</time>
      </trkpt>
      <trkpt lat="42.373711" lon="-8.215099">
        <ele>487.308</ele>
        <time>2018-07-20T14:13:05Z</time>
      </trkpt>
      <trkpt lat="42.373832" lon="-8.214760">
        <ele>487.625</ele>
        <time>2018-07-20T14:13:25Z</time>
      </trkpt>
      <trkpt lat="42.374171" lon="-8.214515">
        <ele>491.589</ele>
        <time>2018-07-20T14:13:45Z</time>
      </trkpt>
      <trkpt lat="42.374622" lon="-8.214370">
        <ele>500.990</ele>
        <time>2018-07-20T14:14:05Z</time>
      </trkpt>
      <trkpt lat="42.374912" lon="-8.214162">
        <ele>507.168</ele>
        <time>2018-07-20T14:14:25Z</time>
      </trkpt>
      <trkpt lat="42.375162" lon="-8.213643">
        <ele>506.833</ele>
        <time>2018-07-20T14:14:45Z</time>
      </trkpt>
      <trkpt lat="42.375207" lon="-8.213017">
        <ele>515.794</ele>
        <time>2018-07-20T14:15:05Z</time>
      </trkpt>
      <trkpt lat="42.375154" lon="-8.211862">
        <ele>524.861</ele>
        <time>2018-07-20T14:15:25Z</time>
      </trkpt>
      <trkpt lat="42.375325" lon="-8.211235">
        <ele>520.532</ele>
        <time>2018-07-20T14:15:45Z</time>
      </trkpt>
      <trkpt lat="42.375688" lon="-8.210772">
        <ele>523.255</ele>
        <time>2018-07-20T14:16:05Z</time>
      </trkpt>
      <trkpt lat="42.376285" lon="-8.209879">
        <ele>531.107</ele>
        <time>2018-07-20T14:16:25Z</time>
      </trkpt>
      <trkpt lat="42.376557" lon="-8.209500">
        <ele>534.417</ele>
        <time>2018-07-20T14:16:45Z</time>
      </trkpt>
      <trkpt lat="42.376842" lon="-8.208955">
        <ele>541.008</ele>
        <time>2018-07-20T14:17:05Z</time>
      </trkpt>
      <trkpt lat="42.376822" lon="-8.208351">
        <ele>539.537</ele>
        <time>2018-07-20T14:17:25Z</time>
      </trkpt>
      <trkpt lat="42.376465" lon="-8.207911">
        <ele>536.621</ele>
        <time>2018-07-20T14:17:45Z</time>
      </trkpt>
      <trkpt lat="42.376273" lon="-8.207794">
        <ele>534.862</ele>
        <time>2018-07-20T14:18:05Z</time>
      </trkpt>
      <trkpt lat="42.375368" lon="-8.207836">
        <ele>528.240</ele>
        <time>2018-07-20T14:18:25Z</time>
      </trkpt>
      <trkpt lat="42.374595" lon="-8.208052">
        <ele>526.055</ele>
        <time>2018-07-20T14:18:45Z</time>
      </trkpt>
      <trkpt lat="42.374238" lon="-8.207862">
        <ele>524.296</ele>
        <time>2018-07-20T14:19:05Z</time>
      </trkpt>
      <trkpt lat="42.374068" lon="-8.207590">
        <ele>521.233</ele>
        <time>2018-07-20T14:19:25Z</time>
      </trkpt>
      <trkpt lat="42.373467" lon="-8.207429">
        <ele>517.654</ele>
        <time>2018-07-20T14:19:45Z</time>
      </trkpt>
      <trkpt lat="42.372814" lon="-8.207432">
        <ele>517.357</ele>
        <time>2018-07-20T14:20:05Z</time>
      </trkpt>
      <trkpt lat="42.372109" lon="-8.207324">
        <ele>508.400</ele>
        <time>2018-07-20T14:20:25Z</time>
      </trkpt>
      <trkpt lat="42.371701" lon="-8.207464">
        <ele>509.120</ele>
        <time>2018-07-20T14:20:45Z</time>
      </trkpt>
      <trkpt lat="42.371378" lon="-8.207321">
        <ele>505.008</ele>
        <time>2018-07-20T14:21:05Z</time>
      </trkpt>
      <trkpt lat="42.370738" lon="-8.207281">
        <ele>508.457</ele>
        <time>2018-07-20T14:21:25Z</time>
      </trkpt>
      <trkpt lat="42.370035" lon="-8.207099">
        <ele>509.681</ele>
        <time>2018-07-20T14:21:45Z</time>
      </trkpt>
      <trkpt lat="42.369846" lon="-8.206639">
        <ele>500.592</ele>
        <time>2018-07-20T14:22:05Z</time>
      </trkpt>
      <trkpt lat="42.370445" lon="-8.204934">
        <ele>504.120</ele>
        <time>2018-07-20T14:22:25Z</time>
      </trkpt>
      <trkpt lat="42.371308" lon="-8.203633">
        <ele>510.835</ele>
        <time>2018-07-20T14:22:45Z</time>
      </trkpt>
      <trkpt lat="42.371368" lon="-8.202823">
        <ele>518.586</ele>
        <time>2018-07-20T14:23:05Z</time>
      </trkpt>
      <trkpt lat="42.371986" lon="-8.202302">
        <ele>515.953</ele>
        <time>2018-07-20T14:23:25Z</time>
      </trkpt>
      <trkpt lat="42.372465" lon="-8.201872">
        <ele>516.324</ele>
        <time>2018-07-20T14:23:45Z</time>
      </trkpt>
      <trkpt lat="42.372427" lon="-8.200867">
        <ele>523.874</ele>
        <time>2018-07-20T14:24:05Z</time>
      </trkpt>
      <trkpt lat="42.372177" lon="-8.200464">
        <ele>530.056</ele>
        <time>2018-07-20T14:24:25Z</time>
      </trkpt>
      <trkpt lat="42.371539" lon="-8.200009">
        <ele>536.921</ele>
        <time>2018-07-20T14:24:45Z</time>
      </trkpt>
      <trkpt lat="42.371310" lon="-8.199694">
        <ele>535.308</ele>
        <time>2018-07-20T14:25:05Z</time>
      </trkpt>
      <trkpt lat="42.371042" lon="-8.199268">
        <ele>534.999</ele>
        <time>2018-07-20T14:25:25Z</time>
      </trkpt>
      <trkpt lat="42.370862" lon="-8.198641">
        <ele>539.513</ele>
        <time>2018-07-20T14:25:45Z</time>
      </trkpt>
      <trkpt lat="42.370718" lon="-8.198020">
        <ele>542.844</ele>
        <time>2018-07-20T14:26:05Z</time>
      </trkpt>
      <trkpt lat="42.370080" lon="-8.197721">
        <ele>545.262</ele>
        <time>2018-07-20T14:26:25Z</time>
      </trkpt>
      <trkpt lat="42.368999" lon="-8.197561">
        <ele>553.387</ele>
        <time>2018-07-20T14:26:45Z</time>
      </trkpt>
      <trkpt lat="42.368042" lon="-8.197403">
        <ele>553.388</ele>
        <time>2018-07-20T14:27:05Z</time>
      </trkpt>
      <trkpt lat="42.367549" lon="-8.196949">
        <ele>550.545</ele>
        <time>2018-07-20T14:27:25Z</time>
      </trkpt>
      <trkpt lat="42.367487" lon="-8.196411">
        <ele>550.926</ele>
        <time>2018-07-20T14:27:45Z</time>
      </trkpt>
      <trkpt lat="42.367695" lon="-8.195689">
        <ele>554.097</ele>
        <time>2018-07-20T14:28:05Z</time>
      </trkpt>
      <trkpt lat="42.367989" lon="-8.194895">
        <ele>551.223</ele>
        <time>2018-07-20T14:28:25Z</time>
      </trkpt>
      <trkpt lat="42.367785" lon="-8.194234">
        <ele>552.325</ele>
        <time>2018-07-20T14:28:45Z</time>
      </trkpt>
      <trkpt lat="42.367980" lon="-8.193445">
        <ele>551.708</ele>
        <time>2018-07-20T14:29:05Z</time>
      </trkpt>
      <trkpt lat="42.368373" lon="-8.192730">
        <ele>550.611</ele>
        <time>2018-07-20T14:29:25Z</time>
      </trkpt>
      <trkpt lat="42.368516" lon="-8.191705">
        <ele>557.735</ele>
        <time>2018-07-20T14:29:45Z</time>
      </trkpt>
      <trkpt lat="42.368422" lon="-8.190839">
        <ele>565.486</ele>
        <time>2018-07-20T14:30:05Z</time>
      </trkpt>
      <trkpt lat="42.368611" lon="-8.190233">
        <ele>560.224</ele>
        <time>2018-07-20T14:30:25Z</time>
      </trkpt>
      <trkpt lat="42.369073" lon="-8.189806">
        <ele>557.989</ele>
        <time>2018-07-20T14:30:45Z</time>
      </trkpt>
      <trkpt lat="42.369635" lon="-8.189435">
        <ele>562.150</ele>
        <time>2018-07-20T14:31:05Z</time>
      </trkpt>
      <trkpt lat="42.370481" lon="-8.189039">
        <ele>563.267</ele>
        <time>2018-07-20T14:31:25Z</time>
      </trkpt>
      <trkpt lat="42.370542" lon="-8.189010">
        <ele>563.118</ele>
        <time>2018-07-20T14:31:45Z</time>
      </trkpt>
      <trkpt lat="42.371199" lon="-8.188558">
        <ele>558.774</ele>
        <time>2018-07-20T14:32:05Z</time>
      </trkpt>
      <trkpt lat="42.371579" lon="-8.188025">
        <ele>556.956</ele>
        <time>2018-07-20T14:32:25Z</time>
      </trkpt>
      <trkpt lat="42.372029" lon="-8.186994">
        <ele>565.621</ele>
        <time>2018-07-20T14:32:45Z</time>
      </trkpt>
      <trkpt lat="42.372598" lon="-8.185771">
        <ele>557.908</ele>
        <time>2018-07-20T14:33:05Z</time>
      </trkpt>
      <trkpt lat="42.372773" lon="-8.184852">
        <ele>552.539</ele>
        <time>2018-07-20T14:33:25Z</time>
      </trkpt>
      <trkpt lat="42.373083" lon="-8.184095">
        <ele>552.593</ele>
        <time>2018-07-20T14:33:45Z</time>
      </trkpt>
      <trkpt lat="42.373442" lon="-8.182631">
        <ele>554.344</ele>
        <time>2018-07-20T14:34:05Z</time>
      </trkpt>
      <trkpt lat="42.373716" lon="-8.181068">
        <ele>556.282</ele>
        <time>2018-07-20T14:34:25Z</time>
      </trkpt>
      <trkpt lat="42.374302" lon="-8.180779">
        <ele>555.017</ele>
        <time>2018-07-20T14:34:45Z</time>
      </trkpt>
      <trkpt lat="42.375237" lon="-8.180612">
        <ele>553.298</ele>
        <time>2018-07-20T14:35:05Z</time>
      </trkpt>
      <trkpt lat="42.375629" lon="-8.180506">
        <ele>555.595</ele>
        <time>2018-07-20T14:35:25Z</time>
      </trkpt>
      <trkpt lat="42.375604" lon="-8.179957">
        <ele>556.246</ele>
        <time>2018-07-20T14:35:45Z</time>
      </trkpt>
      <trkpt lat="42.375459" lon="-8.178437">
        <ele>553.114</ele>
        <time>2018-07-20T14:36:05Z</time>
      </trkpt>
      <trkpt lat="42.375726" lon="-8.177254">
        <ele>551.554</ele>
        <time>2018-07-20T14:36:25Z</time>
      </trkpt>
      <trkpt lat="42.375585" lon="-8.177051">
        <ele>545.909</ele>
        <time>2018-07-20T14:36:45Z</time>
      </trkpt>
      <trkpt lat="42.375551" lon="-8.176432">
        <ele>542.008</ele>
        <time>2018-07-20T14:37:05Z</time>
      </trkpt>
      <trkpt lat="42.375715" lon="-8.175738">
        <ele>537.943</ele>
        <time>2018-07-20T14:37:25Z</time>
      </trkpt>
      <trkpt lat="42.375832" lon="-8.175544">
        <ele>534.857</ele>
        <time>2018-07-20T14:37:45Z</time>
      </trkpt>
      <trkpt lat="42.376188" lon="-8.175263">
        <ele>528.068</ele>
        <time>2018-07-20T14:38:05Z</time>
      </trkpt>
      <trkpt lat="42.376526" lon="-8.175050">
        <ele>523.126</ele>
        <time>2018-07-20T14:38:25Z</time>
      </trkpt>
      <trkpt lat="42.376709" lon="-8.174729">
        <ele>518.181</ele>
        <time>2018-07-20T14:38:45Z</time>
      </trkpt>
      <trkpt lat="42.376610" lon="-8.174454">
        <ele>516.362</ele>
        <time>2018-07-20T14:39:05Z</time>
      </trkpt>
      <trkpt lat="42.376593" lon="-8.174228">
        <ele>515.759</ele>
        <time>2018-07-20T14:39:25Z</time>
      </trkpt>
      <trkpt lat="42.376732" lon="-8.174025">
        <ele>513.960</ele>
        <time>2018-07-20T14:39:45Z</time>
      </trkpt>
      <trkpt lat="42.376941" lon="-8.173910">
        <ele>511.212</ele>
        <time>2018-07-20T14:40:05Z</time>
      </trkpt>
      <trkpt lat="42.377076" lon="-8.173568">
        <ele>507.532</ele>
        <time>2018-07-20T14:40:25Z</time>
      </trkpt>
      <trkpt lat="42.377135" lon="-8.173417">
        <ele>506.505</ele>
        <time>2018-07-20T14:40:45Z</time>
      </trkpt>
      <trkpt lat="42.377478" lon="-8.173343">
        <ele>502.208</ele>
        <time>2018-07-20T14:41:05Z</time>
      </trkpt>
      <trkpt lat="42.377839" lon="-8.173283">
        <ele>496.973</ele>
        <time>2018-07-20T14:41:25Z</time>
      </trkpt>
      <trkpt lat="42.378026" lon="-8.172969">
        <ele>492.297</ele>
        <time>2018-07-20T14:41:45Z</time>
      </trkpt>
      <trkpt lat="42.378174" lon="-8.172912">
        <ele>490.928</ele>
        <time>2018-07-20T14:42:05Z</time>
      </trkpt>
      <trkpt lat="42.378262" lon="-8.173140">
        <ele>491.166</ele>
        <time>2018-07-20T14:42:25Z</time>
      </trkpt>
      <trkpt lat="42.378517" lon="-8.173395">
        <ele>491.371</ele>
        <time>2018-07-20T14:42:45Z</time>
      </trkpt>
      <trkpt lat="42.378709" lon="-8.173608">
        <ele>493.362</ele>
        <time>2018-07-20T14:43:05Z</time>
      </trkpt>
      <trkpt lat="42.378840" lon="-8.173559">
        <ele>493.319</ele>
        <time>2018-07-20T14:43:25Z</time>
      </trkpt>
      <trkpt lat="42.379037" lon="-8.173376">
        <ele>492.190</ele>
        <time>2018-07-20T14:43:45Z</time>
      </trkpt>
      <trkpt lat="42.379470" lon="-8.173071">
        <ele>490.599</ele>
        <time>2018-07-20T14:44:05Z</time>
      </trkpt>
      <trkpt lat="42.379777" lon="-8.172586">
        <ele>489.907</ele>
        <time>2018-07-20T14:44:25Z</time>
      </trkpt>
      <trkpt lat="42.380115" lon="-8.171726">
        <ele>488.127</ele>
        <time>2018-07-20T14:44:45Z</time>
      </trkpt>
      <trkpt lat="42.380244" lon="-8.171194">
        <ele>488.508</ele>
        <time>2018-07-20T14:45:05Z</time>
      </trkpt>
      <trkpt lat="42.380498" lon="-8.170923">
        <ele>492.371</ele>
        <time>2018-07-20T14:45:25Z</time>
      </trkpt>
      <trkpt lat="42.380706" lon="-8.170211">
        <ele>493.355</ele>
        <time>2018-07-20T14:45:45Z</time>
      </trkpt>
      <trkpt lat="42.380936" lon="-8.169407">
        <ele>493.916</ele>
        <time>2018-07-20T14:46:05Z</time>
      </trkpt>
      <trkpt lat="42.380975" lon="-8.169341">
        <ele>494.114</ele>
        <time>2018-07-20T14:46:25Z</time>
      </trkpt>
      <trkpt lat="42.381243" lon="-8.168780">
        <ele>493.249</ele>
        <time>2018-07-20T14:46:45Z</time>
      </trkpt>
      <trkpt lat="42.381255" lon="-8.168754">
        <ele>493.170</ele>
        <time>2018-07-20T14:47:05Z</time>
      </trkpt>
      <trkpt lat="42.381565" lon="-8.168056">
        <ele>491.987</ele>
        <time>2018-07-20T14:47:25Z</time>
      </trkpt>
      <trkpt lat="42.381571" lon="-8.168003">
        <ele>491.848</ele>
        <time>2018-07-20T14:47:45Z</time>
      </trkpt>
      <trkpt lat="42.381874" lon="-8.167404">
        <ele>494.351</ele>
        <time>2018-07-20T14:48:05Z</time>
      </trkpt>
      <trkpt lat="42.382179" lon="-8.167158">
        <ele>496.501</ele>
        <time>2018-07-20T14:48:25Z</time>
      </trkpt>
      <trkpt lat="42.382151" lon="-8.166680">
        <ele>496.011</ele>
        <time>2018-07-20T14:48:45Z</time>
      </trkpt>
      <trkpt lat="42.382257" lon="-8.166082">
        <ele>496.308</ele>
        <time>2018-07-20T14:49:05Z</time>
      </trkpt>
      <trkpt lat="42.382306" lon="-8.165555">
        <ele>493.127</ele>
        <time>2018-07-20T14:49:25Z</time>
      </trkpt>
      <trkpt lat="42.382424" lon="-8.164782">
        <ele>488.151</ele>
        <time>2018-07-20T14:49:45Z</time>
      </trkpt>
      <trkpt lat="42.382574" lon="-8.163929">
        <ele>480.032</ele>
        <time>2018-07-20T14:50:05Z</time>
      </trkpt>
      <trkpt lat="42.382722" lon="-8.163488">
        <ele>475.350</ele>
        <time>2018-07-20T14:50:25Z</time>
      </trkpt>
      <trkpt lat="42.382816" lon="-8.163369">
        <ele>473.245</ele>
        <time>2018-07-20T14:50:45Z</time>
      </trkpt>
      <trkpt lat="42.382876" lon="-8.163414">
        <ele>471.986</ele>
        <time>2018-07-20T14:51:05Z</time>
      </trkpt>
      <trkpt lat="42.382860" lon="-8.163596">
        <ele>472.233</ele>
        <time>2018-07-20T14:51:25Z</time>
      </trkpt>
      <trkpt lat="42.382912" lon="-8.163815">
        <ele>471.164</ele>
        <time>2018-07-20T14:51:45Z</time>
      </trkpt>
      <trkpt lat="42.382987" lon="-8.164028">
        <ele>469.673</ele>
        <time>2018-07-20T14:52:05Z</time>
      </trkpt>
      <trkpt lat="42.383075" lon="-8.164102">
        <ele>467.685</ele>
        <time>2018-07-20T14:52:25Z</time>
      </trkpt>
      <trkpt lat="42.383174" lon="-8.164137">
        <ele>465.513</ele>
        <time>2018-07-20T14:52:45Z</time>
      </trkpt>
      <trkpt lat="42.383288" lon="-8.164005">
        <ele>464.008</ele>
        <time>2018-07-20T14:53:05Z</time>
      </trkpt>
      <trkpt lat="42.383432" lon="-8.163711">
        <ele>463.099</ele>
        <time>2018-07-20T14:53:25Z</time>
      </trkpt>
      <trkpt lat="42.383534" lon="-8.163416">
        <ele>462.083</ele>
        <time>2018-07-20T14:53:45Z</time>
      </trkpt>
      <trkpt lat="42.383647" lon="-8.163045">
        <ele>457.974</ele>
        <time>2018-07-20T14:54:05Z</time>
      </trkpt>
      <trkpt lat="42.383684" lon="-8.162796">
        <ele>453.742</ele>
        <time>2018-07-20T14:54:25Z</time>
      </trkpt>
      <trkpt lat="42.383697" lon="-8.162511">
        <ele>451.637</ele>
        <time>2018-07-20T14:54:45Z</time>
      </trkpt>
      <trkpt lat="42.383600" lon="-8.162236">
        <ele>450.498</ele>
        <time>2018-07-20T14:55:05Z</time>
      </trkpt>
      <trkpt lat="42.383446" lon="-8.161905">
        <ele>449.495</ele>
        <time>2018-07-20T14:55:25Z</time>
      </trkpt>
      <trkpt lat="42.383280" lon="-8.161329">
        <ele>445.836</ele>
        <time>2018-07-20T14:55:45Z</time>
      </trkpt>
      <trkpt lat="42.383038" lon="-8.160739">
        <ele>446.363</ele>
        <time>2018-07-20T14:56:05Z</time>
      </trkpt>
      <trkpt lat="42.382891" lon="-8.160358">
        <ele>443.744</ele>
        <time>2018-07-20T14:56:25Z</time>
      </trkpt>
      <trkpt lat="42.382789" lon="-8.159889">
        <ele>436.018</ele>
        <time>2018-07-20T14:56:45Z</time>
      </trkpt>
      <trkpt lat="42.382865" lon="-8.159406">
        <ele>431.108</ele>
        <time>2018-07-20T14:57:05Z</time>
      </trkpt>
      <trkpt lat="42.382937" lon="-8.158844">
        <ele>428.338</ele>
        <time>2018-07-20T14:57:25Z</time>
      </trkpt>
      <trkpt lat="42.382973" lon="-8.158015">
        <ele>423.072</ele>
        <time>2018-07-20T14:57:45Z</time>
      </trkpt>
      <trkpt lat="42.383029" lon="-8.157565">
        <ele>427.913</ele>
        <time>2018-07-20T14:58:05Z</time>
      </trkpt>
      <trkpt lat="42.383327" lon="-8.157841">
        <ele>424.581</ele>
        <time>2018-07-20T14:58:25Z</time>
      </trkpt>
      <trkpt lat="42.383536" lon="-8.158121">
        <ele>422.456</ele>
        <time>2018-07-20T14:58:45Z</time>
      </trkpt>
      <trkpt lat="42.383739" lon="-8.158372">
        <ele>422.847</ele>
        <time>2018-07-20T14:59:05Z</time>
      </trkpt>
      <trkpt lat="42.383923" lon="-8.158654">
        <ele>422.884</ele>
        <time>2018-07-20T14:59:25Z</time>
      </trkpt>
      <trkpt lat="42.384161" lon="-8.158861">
        <ele>420.995</ele>
        <time>2018-07-20T14:59:45Z</time>
      </trkpt>
      <trkpt lat="42.384401" lon="-8.158791">
        <ele>419.596</ele>
        <time>2018-07-20T15:00:05Z</time>
      </trkpt>
      <trkpt lat="42.384730" lon="-8.158684">
        <ele>417.731</ele>
        <time>2018-07-20T15:00:25Z</time>
      </trkpt>
      <trkpt lat="42.385109" lon="-8.159011">
        <ele>419.124</ele>
        <time>2018-07-20T15:00:45Z</time>
      </trkpt>
      <trkpt lat="42.385270" lon="-8.159308">
        <ele>421.008</ele>
        <time>2018-07-20T15:01:05Z</time>
      </trkpt>
      <trkpt lat="42.385461" lon="-8.159688">
        <ele>422.011</ele>
        <time>2018-07-20T15:01:25Z</time>
      </trkpt>
      <trkpt lat="42.385610" lon="-8.159669">
        <ele>421.945</ele>
        <time>2018-07-20T15:01:45Z</time>
      </trkpt>
      <trkpt lat="42.385926" lon="-8.159801">
        <ele>421.126</ele>
        <time>2018-07-20T15:02:05Z</time>
      </trkpt>
      <trkpt lat="42.386294" lon="-8.159394">
        <ele>421.324</ele>
        <time>2018-07-20T15:02:25Z</time>
      </trkpt>
      <trkpt lat="42.386555" lon="-8.159240">
        <ele>420.269</ele>
        <time>2018-07-20T15:02:45Z</time>
      </trkpt>
      <trkpt lat="42.386771" lon="-8.159256">
        <ele>419.330</ele>
        <time>2018-07-20T15:03:05Z</time>
      </trkpt>
      <trkpt lat="42.386892" lon="-8.159327">
        <ele>418.677</ele>
        <time>2018-07-20T15:03:25Z</time>
      </trkpt>
      <trkpt lat="42.387001" lon="-8.159583">
        <ele>417.278</ele>
        <time>2018-07-20T15:03:45Z</time>
      </trkpt>
      <trkpt lat="42.387068" lon="-8.159813">
        <ele>416.634</ele>
        <time>2018-07-20T15:04:05Z</time>
      </trkpt>
      <trkpt lat="42.387086" lon="-8.160034">
        <ele>415.755</ele>
        <time>2018-07-20T15:04:25Z</time>
      </trkpt>
      <trkpt lat="42.387114" lon="-8.160497">
        <ele>411.610</ele>
        <time>2018-07-20T15:04:45Z</time>
      </trkpt>
      <trkpt lat="42.387250" lon="-8.160678">
        <ele>409.808</ele>
        <time>2018-07-20T15:05:05Z</time>
      </trkpt>
      <trkpt lat="42.387552" lon="-8.160927">
        <ele>409.085</ele>
        <time>2018-07-20T15:05:25Z</time>
      </trkpt>
      <trkpt lat="42.387556" lon="-8.160938">
        <ele>409.069</ele>
        <time>2018-07-20T15:05:45Z</time>
      </trkpt>
      <trkpt lat="42.387754" lon="-8.161063">
        <ele>410.030</ele>
        <time>2018-07-20T15:06:05Z</time>
      </trkpt>
      <trkpt lat="42.388032" lon="-8.160967">
        <ele>412.368</ele>
        <time>2018-07-20T15:06:25Z</time>
      </trkpt>
      <trkpt lat="42.388293" lon="-8.160891">
        <ele>413.043</ele>
        <time>2018-07-20T15:06:45Z</time>
      </trkpt>
      <trkpt lat="42.388527" lon="-8.160828">
        <ele>409.554</ele>
        <time>2018-07-20T15:07:05Z</time>
      </trkpt>
      <trkpt lat="42.388672" lon="-8.160993">
        <ele>408.141</ele>
        <time>2018-07-20T15:07:25Z</time>
      </trkpt>
      <trkpt lat="42.388732" lon="-8.161168">
        <ele>407.252</ele>
        <time>2018-07-20T15:07:45Z</time>
      </trkpt>
      <trkpt lat="42.388772" lon="-8.161388">
        <ele>405.575</ele>
        <time>2018-07-20T15:08:05Z</time>
      </trkpt>
      <trkpt lat="42.388735" lon="-8.161636">
        <ele>402.828</ele>
        <time>2018-07-20T15:08:25Z</time>
      </trkpt>
      <trkpt lat="42.388705" lon="-8.161818">
        <ele>399.720</ele>
        <time>2018-07-20T15:08:45Z</time>
      </trkpt>
      <trkpt lat="42.388669" lon="-8.162003">
        <ele>396.608</ele>
        <time>2018-07-20T15:09:05Z</time>
      </trkpt>
      <trkpt lat="42.388733" lon="-8.162144">
        <ele>392.739</ele>
        <time>2018-07-20T15:09:25Z</time>
      </trkpt>
      <trkpt lat="42.388930" lon="-8.162046">
        <ele>390.973</ele>
        <time>2018-07-20T15:09:45Z</time>
      </trkpt>
      <trkpt lat="42.389106" lon="-8.161979">
        <ele>389.434</ele>
        <time>2018-07-20T15:10:05Z</time>
      </trkpt>
      <trkpt lat="42.389178" lon="-8.162031">
        <ele>387.582</ele>
        <time>2018-07-20T15:10:25Z</time>
      </trkpt>
      <trkpt lat="42.389308" lon="-8.162031">
        <ele>385.297</ele>
        <time>2018-07-20T15:10:45Z</time>
      </trkpt>
      <trkpt lat="42.389437" lon="-8.162047">
        <ele>382.898</ele>
        <time>2018-07-20T15:11:05Z</time>
      </trkpt>
      <trkpt lat="42.389538" lon="-8.161841">
        <ele>382.225</ele>
        <time>2018-07-20T15:11:25Z</time>
      </trkpt>
      <trkpt lat="42.389717" lon="-8.161717">
        <ele>378.926</ele>
        <time>2018-07-20T15:11:45Z</time>
      </trkpt>
      <trkpt lat="42.389838" lon="-8.161710">
        <ele>378.067</ele>
        <time>2018-07-20T15:12:05Z</time>
      </trkpt>
      <trkpt lat="42.389929" lon="-8.161744">
        <ele>377.281</ele>
        <time>2018-07-20T15:12:25Z</time>
      </trkpt>
      <trkpt lat="42.390127" lon="-8.161734">
        <ele>376.419</ele>
        <time>2018-07-20T15:12:45Z</time>
      </trkpt>
      <trkpt lat="42.390393" lon="-8.161731">
        <ele>375.708</ele>
        <time>2018-07-20T15:13:05Z</time>
      </trkpt>
      <trkpt lat="42.390658" lon="-8.161712">
        <ele>375.768</ele>
        <time>2018-07-20T15:13:25Z</time>
      </trkpt>
      <trkpt lat="42.390910" lon="-8.161682">
        <ele>376.732</ele>
        <time>2018-07-20T15:13:45Z</time>
      </trkpt>
      <trkpt lat="42.391204" lon="-8.161656">
        <ele>378.593</ele>
        <time>2018-07-20T15:14:05Z</time>
      </trkpt>
      <trkpt lat="42.391486" lon="-8.161671">
        <ele>380.411</ele>
        <time>2018-07-20T15:14:25Z</time>
      </trkpt>
      <trkpt lat="42.391749" lon="-8.161718">
        <ele>381.476</ele>
        <time>2018-07-20T15:14:45Z</time>
      </trkpt>
      <trkpt lat="42.392007" lon="-8.161666">
        <ele>379.347</ele>
        <time>2018-07-20T15:15:05Z</time>
      </trkpt>
      <trkpt lat="42.392316" lon="-8.161571">
        <ele>375.734</ele>
        <time>2018-07-20T15:15:25Z</time>
      </trkpt>
      <trkpt lat="42.392483" lon="-8.161510">
        <ele>374.975</ele>
        <time>2018-07-20T15:15:45Z</time>
      </trkpt>
      <trkpt lat="42.392475" lon="-8.161287">
        <ele>372.975</ele>
        <time>2018-07-20T15:16:05Z</time>
      </trkpt>
      <trkpt lat="42.392420" lon="-8.160919">
        <ele>369.128</ele>
        <time>2018-07-20T15:16:25Z</time>
      </trkpt>
      <trkpt lat="42.392415" lon="-8.160587">
        <ele>366.520</ele>
        <time>2018-07-20T15:16:45Z</time>
      </trkpt>
      <trkpt lat="42.392551" lon="-8.160060">
        <ele>360.808</ele>
        <time>2018-07-20T15:17:05Z</time>
      </trkpt>
      <trkpt lat="42.392709" lon="-8.159776">
        <ele>356.889</ele>
        <time>2018-07-20T15:17:25Z</time>
      </trkpt>
      <trkpt lat="42.392987" lon="-8.159429">
        <ele>355.283</ele>
        <time>2018-07-20T15:17:45Z</time>
      </trkpt>
      <trkpt lat="42.393271" lon="-8.159151">
        <ele>356.464</ele>
        <time>2018-07-20T15:18:05Z</time>
      </trkpt>
      <trkpt lat="42.393352" lon="-8.159267">
        <ele>356.622</ele>
        <time>2018-07-20T15:18:25Z</time>
      </trkpt>
      <trkpt lat="42.393392" lon="-8.159447">
        <ele>355.197</ele>
        <time>2018-07-20T15:18:45Z</time>
      </trkpt>
      <trkpt lat="42.393485" lon="-8.159651">
        <ele>350.938</ele>
        <time>2018-07-20T15:19:05Z</time>
      </trkpt>
      <trkpt lat="42.393438" lon="-8.159938">
        <ele>353.125</ele>
        <time>2018-07-20T15:19:25Z</time>
      </trkpt>
      <trkpt lat="42.393448" lon="-8.160135">
        <ele>354.196</ele>
        <time>2018-07-20T15:19:45Z</time>
      </trkpt>
      <trkpt lat="42.393526" lon="-8.160302">
        <ele>353.392</ele>
        <time>2018-07-20T15:20:05Z</time>
      </trkpt>
      <trkpt lat="42.393641" lon="-8.160334">
        <ele>349.773</ele>
        <time>2018-07-20T15:20:25Z</time>
      </trkpt>
    </trkseg>
  </trk>
</gpx>
